<?xml version="1.0" encoding="UTF-8" standalone="no" ?>
<gpx xmlns="http://www.topografix.com/GPX/1/1" xmlns:xsi="http://www.w3.org/2001/XMLSchema-instance" xsi:schemaLocation="http://www.topografix.com/GPX/1/1 http://www.topografix.com/GPX/1/1/gpx.xsd" version="1.1" creator="VisuGPX - https://www.visugpx.com">
  <metadata>
    <name>les borrels</name>
    <desc><![CDATA[
beaucoup de montées sur piste pentues et pierreuses
Utilisation du mode turbo assez souvent et malgrès cela, difficile de grimper.
Les descentes sont longues sur piste mais  idem les montées: faire attention aux pierres qui roulent mais pas de difficultées techniques, simplement de l'attention et de la maitrise : peu de drailles intéressantes 
Sortie faite avec Alain sur un circuit fait précédemment avec Martin]]></desc>
  </metadata>
  <trk>
    <name><![CDATA[les borrels]]></name>
    <desc><![CDATA[beaucoup de montées sur piste pentues et pierreuses
Utilisation du mode turbo assez souvent et malgrès cela, difficile de grimper.
Les descentes sont longues et idem les montées : peu de drailles intéressantes 
Sortie faite avec Alain sur un circuit fait précédemment avec Martin]]></desc>
    <extensions>
      <line xmlns="http://www.topografix.com/GPX/gpx_style/0/2">
        <color>0000FF</color>
        <width>4</width>
      </line>
    </extensions>
    <trkseg>
      <trkpt lat="43.1581" lon="6.16639">
        <ele>36.799999237061</ele>
        <time>2023-05-24T07:41:32.000Z</time>
      </trkpt>
      <trkpt lat="43.1581" lon="6.16643">
        <ele>37</ele>
        <time>2023-05-24T07:41:40.000Z</time>
      </trkpt>
      <trkpt lat="43.15807" lon="6.1664">
        <ele>36.799999237061</ele>
        <time>2023-05-24T07:41:47.000Z</time>
      </trkpt>
      <trkpt lat="43.15806" lon="6.1664">
        <ele>36.799999237061</ele>
        <time>2023-05-24T07:42:01.000Z</time>
      </trkpt>
      <trkpt lat="43.15802" lon="6.16644">
        <ele>37.400001525879</ele>
        <time>2023-05-24T07:42:20.000Z</time>
      </trkpt>
      <trkpt lat="43.15807" lon="6.16641">
        <ele>36.799999237061</ele>
        <time>2023-05-24T07:42:36.000Z</time>
      </trkpt>
      <trkpt lat="43.15808" lon="6.1664">
        <ele>36.799999237061</ele>
        <time>2023-05-24T07:42:55.000Z</time>
      </trkpt>
      <trkpt lat="43.15808" lon="6.1664">
        <ele>36.799999237061</ele>
        <time>2023-05-24T07:43:03.000Z</time>
      </trkpt>
      <trkpt lat="43.15803" lon="6.16637">
        <ele>36.599998474121</ele>
        <time>2023-05-24T07:43:09.000Z</time>
      </trkpt>
      <trkpt lat="43.15803" lon="6.16637">
        <ele>36.599998474121</ele>
        <time>2023-05-24T07:43:18.000Z</time>
      </trkpt>
      <trkpt lat="43.15803" lon="6.16637">
        <ele>36.599998474121</ele>
        <time>2023-05-24T07:43:30.000Z</time>
      </trkpt>
      <trkpt lat="43.15803" lon="6.16637">
        <ele>36.599998474121</ele>
        <time>2023-05-24T07:43:46.000Z</time>
      </trkpt>
      <trkpt lat="43.15803" lon="6.16638">
        <ele>36.599998474121</ele>
        <time>2023-05-24T07:44:05.000Z</time>
      </trkpt>
      <trkpt lat="43.15803" lon="6.16638">
        <ele>36.599998474121</ele>
        <time>2023-05-24T07:44:19.000Z</time>
      </trkpt>
      <trkpt lat="43.15803" lon="6.16638">
        <ele>36.599998474121</ele>
        <time>2023-05-24T07:44:38.000Z</time>
      </trkpt>
      <trkpt lat="43.15803" lon="6.16638">
        <ele>36.599998474121</ele>
        <time>2023-05-24T07:44:57.000Z</time>
      </trkpt>
      <trkpt lat="43.15803" lon="6.16638">
        <ele>36.599998474121</ele>
        <time>2023-05-24T07:45:15.000Z</time>
      </trkpt>
      <trkpt lat="43.15803" lon="6.16638">
        <ele>36.599998474121</ele>
        <time>2023-05-24T07:45:35.000Z</time>
      </trkpt>
      <trkpt lat="43.15802" lon="6.16638">
        <ele>36.599998474121</ele>
        <time>2023-05-24T07:45:58.000Z</time>
      </trkpt>
      <trkpt lat="43.15802" lon="6.16638">
        <ele>36.599998474121</ele>
        <time>2023-05-24T07:46:16.000Z</time>
      </trkpt>
      <trkpt lat="43.15802" lon="6.16637">
        <ele>36.599998474121</ele>
        <time>2023-05-24T07:46:34.000Z</time>
      </trkpt>
      <trkpt lat="43.15802" lon="6.16637">
        <ele>36.599998474121</ele>
        <time>2023-05-24T07:46:53.000Z</time>
      </trkpt>
      <trkpt lat="43.15802" lon="6.16637">
        <ele>36.599998474121</ele>
        <time>2023-05-24T07:47:11.000Z</time>
      </trkpt>
      <trkpt lat="43.15802" lon="6.16637">
        <ele>36.599998474121</ele>
        <time>2023-05-24T07:47:32.000Z</time>
      </trkpt>
      <trkpt lat="43.15802" lon="6.16637">
        <ele>36.599998474121</ele>
        <time>2023-05-24T07:47:51.000Z</time>
      </trkpt>
      <trkpt lat="43.15802" lon="6.16637">
        <ele>36.599998474121</ele>
        <time>2023-05-24T07:48:09.000Z</time>
      </trkpt>
      <trkpt lat="43.15802" lon="6.16637">
        <ele>36.599998474121</ele>
        <time>2023-05-24T07:48:29.000Z</time>
      </trkpt>
      <trkpt lat="43.15802" lon="6.16637">
        <ele>36.599998474121</ele>
        <time>2023-05-24T07:48:52.000Z</time>
      </trkpt>
      <trkpt lat="43.15802" lon="6.16638">
        <ele>36.599998474121</ele>
        <time>2023-05-24T07:49:14.000Z</time>
      </trkpt>
      <trkpt lat="43.15802" lon="6.16638">
        <ele>36.599998474121</ele>
        <time>2023-05-24T07:49:38.000Z</time>
      </trkpt>
      <trkpt lat="43.15802" lon="6.16636">
        <ele>36.599998474121</ele>
        <time>2023-05-24T07:50:00.000Z</time>
      </trkpt>
      <trkpt lat="43.15802" lon="6.16636">
        <ele>36.599998474121</ele>
        <time>2023-05-24T07:50:20.000Z</time>
      </trkpt>
      <trkpt lat="43.15802" lon="6.16637">
        <ele>36.599998474121</ele>
        <time>2023-05-24T07:50:34.000Z</time>
      </trkpt>
      <trkpt lat="43.15802" lon="6.16637">
        <ele>36.599998474121</ele>
        <time>2023-05-24T07:50:58.000Z</time>
      </trkpt>
      <trkpt lat="43.15802" lon="6.16638">
        <ele>36.599998474121</ele>
        <time>2023-05-24T07:51:18.000Z</time>
      </trkpt>
      <trkpt lat="43.15802" lon="6.16638">
        <ele>36.599998474121</ele>
        <time>2023-05-24T07:51:38.000Z</time>
      </trkpt>
      <trkpt lat="43.15802" lon="6.16638">
        <ele>36.599998474121</ele>
        <time>2023-05-24T07:51:56.000Z</time>
      </trkpt>
      <trkpt lat="43.15802" lon="6.16638">
        <ele>36.599998474121</ele>
        <time>2023-05-24T07:52:15.000Z</time>
      </trkpt>
      <trkpt lat="43.15802" lon="6.16638">
        <ele>36.799999237061</ele>
        <time>2023-05-24T07:52:37.000Z</time>
      </trkpt>
      <trkpt lat="43.15802" lon="6.16638">
        <ele>36.799999237061</ele>
        <time>2023-05-24T07:52:56.000Z</time>
      </trkpt>
      <trkpt lat="43.15802" lon="6.16638">
        <ele>36.799999237061</ele>
        <time>2023-05-24T07:53:17.000Z</time>
      </trkpt>
      <trkpt lat="43.15802" lon="6.16638">
        <ele>36.799999237061</ele>
        <time>2023-05-24T07:53:34.000Z</time>
      </trkpt>
      <trkpt lat="43.15802" lon="6.16639">
        <ele>36.799999237061</ele>
        <time>2023-05-24T07:53:56.000Z</time>
      </trkpt>
      <trkpt lat="43.15802" lon="6.16639">
        <ele>36.799999237061</ele>
        <time>2023-05-24T07:54:20.000Z</time>
      </trkpt>
      <trkpt lat="43.15803" lon="6.16639">
        <ele>36.799999237061</ele>
        <time>2023-05-24T07:54:36.000Z</time>
      </trkpt>
      <trkpt lat="43.15805" lon="6.16642">
        <ele>37</ele>
        <time>2023-05-24T07:54:42.000Z</time>
      </trkpt>
      <trkpt lat="43.15808" lon="6.16643">
        <ele>37</ele>
        <time>2023-05-24T07:54:49.000Z</time>
      </trkpt>
      <trkpt lat="43.15809" lon="6.16643">
        <ele>37</ele>
        <time>2023-05-24T07:54:56.000Z</time>
      </trkpt>
      <trkpt lat="43.15809" lon="6.16643">
        <ele>37</ele>
        <time>2023-05-24T07:55:06.000Z</time>
      </trkpt>
      <trkpt lat="43.15809" lon="6.16643">
        <ele>37</ele>
        <time>2023-05-24T07:55:21.000Z</time>
      </trkpt>
      <trkpt lat="43.15809" lon="6.16643">
        <ele>37</ele>
        <time>2023-05-24T07:55:38.000Z</time>
      </trkpt>
      <trkpt lat="43.15809" lon="6.16643">
        <ele>37</ele>
        <time>2023-05-24T07:55:57.000Z</time>
      </trkpt>
      <trkpt lat="43.15809" lon="6.16643">
        <ele>37</ele>
        <time>2023-05-24T07:56:18.000Z</time>
      </trkpt>
      <trkpt lat="43.15809" lon="6.16643">
        <ele>37</ele>
        <time>2023-05-24T07:56:30.000Z</time>
      </trkpt>
      <trkpt lat="43.15809" lon="6.16643">
        <ele>37</ele>
        <time>2023-05-24T07:56:44.000Z</time>
      </trkpt>
      <trkpt lat="43.15808" lon="6.16649">
        <ele>37.599998474121</ele>
        <time>2023-05-24T07:56:51.000Z</time>
      </trkpt>
      <trkpt lat="43.15807" lon="6.16653">
        <ele>38</ele>
        <time>2023-05-24T07:56:53.000Z</time>
      </trkpt>
      <trkpt lat="43.15809" lon="6.16657">
        <ele>38.400001525879</ele>
        <time>2023-05-24T07:56:55.000Z</time>
      </trkpt>
      <trkpt lat="43.15812" lon="6.16664">
        <ele>38.799999237061</ele>
        <time>2023-05-24T08:06:27.000Z</time>
      </trkpt>
      <trkpt lat="43.15815" lon="6.16648">
        <ele>37.400001525879</ele>
        <time>2023-05-24T08:06:31.000Z</time>
      </trkpt>
      <trkpt lat="43.15813" lon="6.16628">
        <ele>36.599998474121</ele>
        <time>2023-05-24T08:06:35.000Z</time>
      </trkpt>
      <trkpt lat="43.15811" lon="6.16623">
        <ele>36.599998474121</ele>
        <time>2023-05-24T08:06:36.000Z</time>
      </trkpt>
      <trkpt lat="43.158" lon="6.16599">
        <ele>36</ele>
        <time>2023-05-24T08:06:41.000Z</time>
      </trkpt>
      <trkpt lat="43.15779" lon="6.16562">
        <ele>36.400001525879</ele>
        <time>2023-05-24T08:06:49.000Z</time>
      </trkpt>
      <trkpt lat="43.15769" lon="6.16548">
        <ele>36</ele>
        <time>2023-05-24T08:06:52.000Z</time>
      </trkpt>
      <trkpt lat="43.15761" lon="6.16534">
        <ele>35.200000762939</ele>
        <time>2023-05-24T08:06:55.000Z</time>
      </trkpt>
      <trkpt lat="43.1575" lon="6.16514">
        <ele>34.599998474121</ele>
        <time>2023-05-24T08:06:59.000Z</time>
      </trkpt>
      <trkpt lat="43.15745" lon="6.16504">
        <ele>34.599998474121</ele>
        <time>2023-05-24T08:07:01.000Z</time>
      </trkpt>
      <trkpt lat="43.1573" lon="6.16471">
        <ele>34.599998474121</ele>
        <time>2023-05-24T08:07:07.000Z</time>
      </trkpt>
      <trkpt lat="43.15708" lon="6.16439">
        <ele>33.799999237061</ele>
        <time>2023-05-24T08:07:13.000Z</time>
      </trkpt>
      <trkpt lat="43.15676" lon="6.16406">
        <ele>33</ele>
        <time>2023-05-24T08:07:19.000Z</time>
      </trkpt>
      <trkpt lat="43.15638" lon="6.16366">
        <ele>32.400001525879</ele>
        <time>2023-05-24T08:07:26.000Z</time>
      </trkpt>
      <trkpt lat="43.15629" lon="6.16355">
        <ele>32</ele>
        <time>2023-05-24T08:07:28.000Z</time>
      </trkpt>
      <trkpt lat="43.15621" lon="6.16341">
        <ele>31.60000038147</ele>
        <time>2023-05-24T08:07:30.000Z</time>
      </trkpt>
      <trkpt lat="43.15619" lon="6.1633">
        <ele>31.200000762939</ele>
        <time>2023-05-24T08:07:32.000Z</time>
      </trkpt>
      <trkpt lat="43.1562" lon="6.16326">
        <ele>31</ele>
        <time>2023-05-24T08:07:33.000Z</time>
      </trkpt>
      <trkpt lat="43.15622" lon="6.16318">
        <ele>30.799999237061</ele>
        <time>2023-05-24T08:07:36.000Z</time>
      </trkpt>
      <trkpt lat="43.15622" lon="6.16317">
        <ele>30.799999237061</ele>
        <time>2023-05-24T08:07:37.000Z</time>
      </trkpt>
      <trkpt lat="43.15622" lon="6.16317">
        <ele>30.799999237061</ele>
        <time>2023-05-24T08:07:53.000Z</time>
      </trkpt>
      <trkpt lat="43.15622" lon="6.16317">
        <ele>30.799999237061</ele>
        <time>2023-05-24T08:07:56.000Z</time>
      </trkpt>
      <trkpt lat="43.15621" lon="6.16312">
        <ele>30.60000038147</ele>
        <time>2023-05-24T08:07:58.000Z</time>
      </trkpt>
      <trkpt lat="43.15615" lon="6.1629">
        <ele>30</ele>
        <time>2023-05-24T08:08:02.000Z</time>
      </trkpt>
      <trkpt lat="43.15599" lon="6.16258">
        <ele>29.60000038147</ele>
        <time>2023-05-24T08:08:08.000Z</time>
      </trkpt>
      <trkpt lat="43.15574" lon="6.16214">
        <ele>28</ele>
        <time>2023-05-24T08:08:16.000Z</time>
      </trkpt>
      <trkpt lat="43.15543" lon="6.16161">
        <ele>28.799999237061</ele>
        <time>2023-05-24T08:08:25.000Z</time>
      </trkpt>
      <trkpt lat="43.15516" lon="6.16119">
        <ele>28.200000762939</ele>
        <time>2023-05-24T08:08:32.000Z</time>
      </trkpt>
      <trkpt lat="43.15507" lon="6.16114">
        <ele>28.200000762939</ele>
        <time>2023-05-24T08:08:34.000Z</time>
      </trkpt>
      <trkpt lat="43.15499" lon="6.1611">
        <ele>28</ele>
        <time>2023-05-24T08:08:36.000Z</time>
      </trkpt>
      <trkpt lat="43.1549" lon="6.16093">
        <ele>28</ele>
        <time>2023-05-24T08:08:40.000Z</time>
      </trkpt>
      <trkpt lat="43.15488" lon="6.16088">
        <ele>28</ele>
        <time>2023-05-24T08:08:41.000Z</time>
      </trkpt>
      <trkpt lat="43.15484" lon="6.16077">
        <ele>27.799999237061</ele>
        <time>2023-05-24T08:08:43.000Z</time>
      </trkpt>
      <trkpt lat="43.15482" lon="6.16063">
        <ele>27.60000038147</ele>
        <time>2023-05-24T08:08:45.000Z</time>
      </trkpt>
      <trkpt lat="43.15482" lon="6.16056">
        <ele>27.799999237061</ele>
        <time>2023-05-24T08:08:46.000Z</time>
      </trkpt>
      <trkpt lat="43.15484" lon="6.1605">
        <ele>27.799999237061</ele>
        <time>2023-05-24T08:08:47.000Z</time>
      </trkpt>
      <trkpt lat="43.1549" lon="6.16034">
        <ele>28</ele>
        <time>2023-05-24T08:08:50.000Z</time>
      </trkpt>
      <trkpt lat="43.15497" lon="6.16019">
        <ele>28.200000762939</ele>
        <time>2023-05-24T08:08:54.000Z</time>
      </trkpt>
      <trkpt lat="43.15509" lon="6.15993">
        <ele>28.60000038147</ele>
        <time>2023-05-24T08:09:00.000Z</time>
      </trkpt>
      <trkpt lat="43.15524" lon="6.15955">
        <ele>30.200000762939</ele>
        <time>2023-05-24T08:09:08.000Z</time>
      </trkpt>
      <trkpt lat="43.15538" lon="6.15933">
        <ele>31.799999237061</ele>
        <time>2023-05-24T08:09:14.000Z</time>
      </trkpt>
      <trkpt lat="43.15555" lon="6.15915">
        <ele>33</ele>
        <time>2023-05-24T08:09:21.000Z</time>
      </trkpt>
      <trkpt lat="43.15571" lon="6.15896">
        <ele>33.799999237061</ele>
        <time>2023-05-24T08:09:28.000Z</time>
      </trkpt>
      <trkpt lat="43.15581" lon="6.1588">
        <ele>34.599998474121</ele>
        <time>2023-05-24T08:09:33.000Z</time>
      </trkpt>
      <trkpt lat="43.15604" lon="6.15858">
        <ele>36</ele>
        <time>2023-05-24T08:09:40.000Z</time>
      </trkpt>
      <trkpt lat="43.15633" lon="6.15843">
        <ele>36.799999237061</ele>
        <time>2023-05-24T08:09:48.000Z</time>
      </trkpt>
      <trkpt lat="43.1566" lon="6.15836">
        <ele>37</ele>
        <time>2023-05-24T08:09:55.000Z</time>
      </trkpt>
      <trkpt lat="43.15683" lon="6.15826">
        <ele>37</ele>
        <time>2023-05-24T08:10:01.000Z</time>
      </trkpt>
      <trkpt lat="43.15704" lon="6.15811">
        <ele>37</ele>
        <time>2023-05-24T08:10:07.000Z</time>
      </trkpt>
      <trkpt lat="43.15729" lon="6.15794">
        <ele>38.799999237061</ele>
        <time>2023-05-24T08:10:15.000Z</time>
      </trkpt>
      <trkpt lat="43.15749" lon="6.15789">
        <ele>41.200000762939</ele>
        <time>2023-05-24T08:10:21.000Z</time>
      </trkpt>
      <trkpt lat="43.15766" lon="6.15795">
        <ele>42.799999237061</ele>
        <time>2023-05-24T08:10:26.000Z</time>
      </trkpt>
      <trkpt lat="43.15786" lon="6.15802">
        <ele>44.200000762939</ele>
        <time>2023-05-24T08:10:32.000Z</time>
      </trkpt>
      <trkpt lat="43.15798" lon="6.15801">
        <ele>45.200000762939</ele>
        <time>2023-05-24T08:10:36.000Z</time>
      </trkpt>
      <trkpt lat="43.15799" lon="6.15805">
        <ele>45.200000762939</ele>
        <time>2023-05-24T08:11:41.000Z</time>
      </trkpt>
      <trkpt lat="43.158" lon="6.15794">
        <ele>45.400001525879</ele>
        <time>2023-05-24T08:11:44.000Z</time>
      </trkpt>
      <trkpt lat="43.15814" lon="6.15782">
        <ele>46.400001525879</ele>
        <time>2023-05-24T08:11:50.000Z</time>
      </trkpt>
      <trkpt lat="43.15825" lon="6.15772">
        <ele>47.200000762939</ele>
        <time>2023-05-24T08:11:56.000Z</time>
      </trkpt>
      <trkpt lat="43.1583" lon="6.15768">
        <ele>47.200000762939</ele>
        <time>2023-05-24T08:11:59.000Z</time>
      </trkpt>
      <trkpt lat="43.15831" lon="6.15769">
        <ele>47.200000762939</ele>
        <time>2023-05-24T08:12:00.000Z</time>
      </trkpt>
      <trkpt lat="43.15834" lon="6.15773">
        <ele>47.599998474121</ele>
        <time>2023-05-24T08:12:02.000Z</time>
      </trkpt>
      <trkpt lat="43.1584" lon="6.15774">
        <ele>47.799999237061</ele>
        <time>2023-05-24T08:12:05.000Z</time>
      </trkpt>
      <trkpt lat="43.15853" lon="6.15778">
        <ele>48.400001525879</ele>
        <time>2023-05-24T08:12:11.000Z</time>
      </trkpt>
      <trkpt lat="43.1587" lon="6.15782">
        <ele>48.599998474121</ele>
        <time>2023-05-24T08:12:17.000Z</time>
      </trkpt>
      <trkpt lat="43.15888" lon="6.15779">
        <ele>49.599998474121</ele>
        <time>2023-05-24T08:12:23.000Z</time>
      </trkpt>
      <trkpt lat="43.15901" lon="6.15778">
        <ele>49.799999237061</ele>
        <time>2023-05-24T08:12:29.000Z</time>
      </trkpt>
      <trkpt lat="43.15898" lon="6.15782">
        <ele>50</ele>
        <time>2023-05-24T08:12:46.000Z</time>
      </trkpt>
      <trkpt lat="43.15896" lon="6.1578">
        <ele>49.799999237061</ele>
        <time>2023-05-24T08:12:47.000Z</time>
      </trkpt>
      <trkpt lat="43.15895" lon="6.15774">
        <ele>49.400001525879</ele>
        <time>2023-05-24T08:12:49.000Z</time>
      </trkpt>
      <trkpt lat="43.15895" lon="6.15772">
        <ele>49.200000762939</ele>
        <time>2023-05-24T08:12:50.000Z</time>
      </trkpt>
      <trkpt lat="43.15896" lon="6.15769">
        <ele>49</ele>
        <time>2023-05-24T08:12:51.000Z</time>
      </trkpt>
      <trkpt lat="43.15902" lon="6.15762">
        <ele>48.799999237061</ele>
        <time>2023-05-24T08:12:55.000Z</time>
      </trkpt>
      <trkpt lat="43.15918" lon="6.1574">
        <ele>49.400001525879</ele>
        <time>2023-05-24T08:13:05.000Z</time>
      </trkpt>
      <trkpt lat="43.15926" lon="6.15731">
        <ele>50</ele>
        <time>2023-05-24T08:13:10.000Z</time>
      </trkpt>
      <trkpt lat="43.15928" lon="6.15729">
        <ele>50.200000762939</ele>
        <time>2023-05-24T08:13:11.000Z</time>
      </trkpt>
      <trkpt lat="43.15939" lon="6.15718">
        <ele>51</ele>
        <time>2023-05-24T08:13:17.000Z</time>
      </trkpt>
      <trkpt lat="43.15954" lon="6.15702">
        <ele>53.599998474121</ele>
        <time>2023-05-24T08:13:25.000Z</time>
      </trkpt>
      <trkpt lat="43.15964" lon="6.15686">
        <ele>56</ele>
        <time>2023-05-24T08:13:32.000Z</time>
      </trkpt>
      <trkpt lat="43.15973" lon="6.15664">
        <ele>57.599998474121</ele>
        <time>2023-05-24T08:13:39.000Z</time>
      </trkpt>
      <trkpt lat="43.1598" lon="6.15649">
        <ele>58.599998474121</ele>
        <time>2023-05-24T08:13:44.000Z</time>
      </trkpt>
      <trkpt lat="43.15993" lon="6.15636">
        <ele>57.799999237061</ele>
        <time>2023-05-24T08:13:50.000Z</time>
      </trkpt>
      <trkpt lat="43.16008" lon="6.15622">
        <ele>58.599998474121</ele>
        <time>2023-05-24T08:13:57.000Z</time>
      </trkpt>
      <trkpt lat="43.16018" lon="6.15609">
        <ele>59.400001525879</ele>
        <time>2023-05-24T08:14:03.000Z</time>
      </trkpt>
      <trkpt lat="43.16027" lon="6.15599">
        <ele>60.599998474121</ele>
        <time>2023-05-24T08:14:09.000Z</time>
      </trkpt>
      <trkpt lat="43.16045" lon="6.15588">
        <ele>63</ele>
        <time>2023-05-24T08:14:18.000Z</time>
      </trkpt>
      <trkpt lat="43.16057" lon="6.15589">
        <ele>63.200000762939</ele>
        <time>2023-05-24T08:14:23.000Z</time>
      </trkpt>
      <trkpt lat="43.16072" lon="6.15594">
        <ele>63</ele>
        <time>2023-05-24T08:14:28.000Z</time>
      </trkpt>
      <trkpt lat="43.16089" lon="6.15596">
        <ele>63.799999237061</ele>
        <time>2023-05-24T08:14:33.000Z</time>
      </trkpt>
      <trkpt lat="43.16107" lon="6.1559">
        <ele>66</ele>
        <time>2023-05-24T08:14:39.000Z</time>
      </trkpt>
      <trkpt lat="43.1612" lon="6.15576">
        <ele>68.199996948242</ele>
        <time>2023-05-24T08:14:45.000Z</time>
      </trkpt>
      <trkpt lat="43.16133" lon="6.15559">
        <ele>70</ele>
        <time>2023-05-24T08:14:52.000Z</time>
      </trkpt>
      <trkpt lat="43.16143" lon="6.15542">
        <ele>71</ele>
        <time>2023-05-24T08:14:58.000Z</time>
      </trkpt>
      <trkpt lat="43.16154" lon="6.15527">
        <ele>72</ele>
        <time>2023-05-24T08:15:04.000Z</time>
      </trkpt>
      <trkpt lat="43.1617" lon="6.15514">
        <ele>73.199996948242</ele>
        <time>2023-05-24T08:15:12.000Z</time>
      </trkpt>
      <trkpt lat="43.16172" lon="6.15513">
        <ele>73.599998474121</ele>
        <time>2023-05-24T08:15:13.000Z</time>
      </trkpt>
      <trkpt lat="43.16177" lon="6.15506">
        <ele>74.400001525879</ele>
        <time>2023-05-24T08:15:16.000Z</time>
      </trkpt>
      <trkpt lat="43.16187" lon="6.15491">
        <ele>74.400001525879</ele>
        <time>2023-05-24T08:15:22.000Z</time>
      </trkpt>
      <trkpt lat="43.16198" lon="6.15476">
        <ele>78.400001525879</ele>
        <time>2023-05-24T08:15:28.000Z</time>
      </trkpt>
      <trkpt lat="43.16209" lon="6.15455">
        <ele>78.599998474121</ele>
        <time>2023-05-24T08:15:34.000Z</time>
      </trkpt>
      <trkpt lat="43.16216" lon="6.15429">
        <ele>79.400001525879</ele>
        <time>2023-05-24T08:15:41.000Z</time>
      </trkpt>
      <trkpt lat="43.16223" lon="6.15407">
        <ele>80</ele>
        <time>2023-05-24T08:15:46.000Z</time>
      </trkpt>
      <trkpt lat="43.16238" lon="6.15391">
        <ele>82</ele>
        <time>2023-05-24T08:15:51.000Z</time>
      </trkpt>
      <trkpt lat="43.16257" lon="6.15382">
        <ele>84</ele>
        <time>2023-05-24T08:15:58.000Z</time>
      </trkpt>
      <trkpt lat="43.16269" lon="6.15374">
        <ele>85</ele>
        <time>2023-05-24T08:16:03.000Z</time>
      </trkpt>
      <trkpt lat="43.16282" lon="6.15366">
        <ele>86.400001525879</ele>
        <time>2023-05-24T08:16:08.000Z</time>
      </trkpt>
      <trkpt lat="43.16292" lon="6.15354">
        <ele>86</ele>
        <time>2023-05-24T08:16:13.000Z</time>
      </trkpt>
      <trkpt lat="43.16306" lon="6.15341">
        <ele>87.599998474121</ele>
        <time>2023-05-24T08:16:20.000Z</time>
      </trkpt>
      <trkpt lat="43.16319" lon="6.15331">
        <ele>88</ele>
        <time>2023-05-24T08:16:26.000Z</time>
      </trkpt>
      <trkpt lat="43.16332" lon="6.15322">
        <ele>89.599998474121</ele>
        <time>2023-05-24T08:16:32.000Z</time>
      </trkpt>
      <trkpt lat="43.16347" lon="6.15314">
        <ele>92.599998474121</ele>
        <time>2023-05-24T08:16:39.000Z</time>
      </trkpt>
      <trkpt lat="43.16361" lon="6.15318">
        <ele>93.599998474121</ele>
        <time>2023-05-24T08:16:45.000Z</time>
      </trkpt>
      <trkpt lat="43.16374" lon="6.1532">
        <ele>94.800003051758</ele>
        <time>2023-05-24T08:16:51.000Z</time>
      </trkpt>
      <trkpt lat="43.16377" lon="6.15318">
        <ele>95.199996948242</ele>
        <time>2023-05-24T08:16:53.000Z</time>
      </trkpt>
      <trkpt lat="43.16378" lon="6.15313">
        <ele>95.599998474121</ele>
        <time>2023-05-24T08:16:55.000Z</time>
      </trkpt>
      <trkpt lat="43.16375" lon="6.15306">
        <ele>96</ele>
        <time>2023-05-24T08:16:59.000Z</time>
      </trkpt>
      <trkpt lat="43.16372" lon="6.15305">
        <ele>95.800003051758</ele>
        <time>2023-05-24T08:17:01.000Z</time>
      </trkpt>
      <trkpt lat="43.16356" lon="6.15298">
        <ele>95.199996948242</ele>
        <time>2023-05-24T08:17:09.000Z</time>
      </trkpt>
      <trkpt lat="43.1634" lon="6.15289">
        <ele>96</ele>
        <time>2023-05-24T08:17:16.000Z</time>
      </trkpt>
      <trkpt lat="43.16321" lon="6.15279">
        <ele>97</ele>
        <time>2023-05-24T08:17:24.000Z</time>
      </trkpt>
      <trkpt lat="43.1631" lon="6.15269">
        <ele>98.199996948242</ele>
        <time>2023-05-24T08:17:29.000Z</time>
      </trkpt>
      <trkpt lat="43.16305" lon="6.15251">
        <ele>101.59999847412</ele>
        <time>2023-05-24T08:17:35.000Z</time>
      </trkpt>
      <trkpt lat="43.16302" lon="6.15233">
        <ele>105.40000152588</ele>
        <time>2023-05-24T08:17:41.000Z</time>
      </trkpt>
      <trkpt lat="43.16299" lon="6.15216">
        <ele>108.80000305176</ele>
        <time>2023-05-24T08:17:47.000Z</time>
      </trkpt>
      <trkpt lat="43.16296" lon="6.15191">
        <ele>115.19999694824</ele>
        <time>2023-05-24T08:17:55.000Z</time>
      </trkpt>
      <trkpt lat="43.16298" lon="6.15185">
        <ele>117</ele>
        <time>2023-05-24T08:17:57.000Z</time>
      </trkpt>
      <trkpt lat="43.16301" lon="6.15183">
        <ele>118</ele>
        <time>2023-05-24T08:17:59.000Z</time>
      </trkpt>
      <trkpt lat="43.16307" lon="6.15184">
        <ele>118.40000152588</ele>
        <time>2023-05-24T08:18:04.000Z</time>
      </trkpt>
      <trkpt lat="43.16316" lon="6.15192">
        <ele>117.40000152588</ele>
        <time>2023-05-24T08:18:09.000Z</time>
      </trkpt>
      <trkpt lat="43.16328" lon="6.15204">
        <ele>116.40000152588</ele>
        <time>2023-05-24T08:18:15.000Z</time>
      </trkpt>
      <trkpt lat="43.16342" lon="6.15211">
        <ele>116.80000305176</ele>
        <time>2023-05-24T08:18:21.000Z</time>
      </trkpt>
      <trkpt lat="43.16352" lon="6.15212">
        <ele>118.19999694824</ele>
        <time>2023-05-24T08:18:26.000Z</time>
      </trkpt>
      <trkpt lat="43.16371" lon="6.15206">
        <ele>120.19999694824</ele>
        <time>2023-05-24T08:18:34.000Z</time>
      </trkpt>
      <trkpt lat="43.16393" lon="6.15202">
        <ele>123</ele>
        <time>2023-05-24T08:18:43.000Z</time>
      </trkpt>
      <trkpt lat="43.1641" lon="6.15201">
        <ele>124.59999847412</ele>
        <time>2023-05-24T08:18:50.000Z</time>
      </trkpt>
      <trkpt lat="43.16427" lon="6.15202">
        <ele>127.19999694824</ele>
        <time>2023-05-24T08:18:57.000Z</time>
      </trkpt>
      <trkpt lat="43.16446" lon="6.15204">
        <ele>129.19999694824</ele>
        <time>2023-05-24T08:19:04.000Z</time>
      </trkpt>
      <trkpt lat="43.16464" lon="6.15209">
        <ele>130.80000305176</ele>
        <time>2023-05-24T08:19:11.000Z</time>
      </trkpt>
      <trkpt lat="43.16484" lon="6.15213">
        <ele>132.19999694824</ele>
        <time>2023-05-24T08:19:19.000Z</time>
      </trkpt>
      <trkpt lat="43.16507" lon="6.15216">
        <ele>135</ele>
        <time>2023-05-24T08:19:28.000Z</time>
      </trkpt>
      <trkpt lat="43.16527" lon="6.15219">
        <ele>138.19999694824</ele>
        <time>2023-05-24T08:19:36.000Z</time>
      </trkpt>
      <trkpt lat="43.16549" lon="6.15227">
        <ele>140.60000610352</ele>
        <time>2023-05-24T08:19:45.000Z</time>
      </trkpt>
      <trkpt lat="43.16566" lon="6.15234">
        <ele>142.60000610352</ele>
        <time>2023-05-24T08:19:53.000Z</time>
      </trkpt>
      <trkpt lat="43.16582" lon="6.15236">
        <ele>145.39999389648</ele>
        <time>2023-05-24T08:20:01.000Z</time>
      </trkpt>
      <trkpt lat="43.16586" lon="6.15237">
        <ele>146.39999389648</ele>
        <time>2023-05-24T08:20:03.000Z</time>
      </trkpt>
      <trkpt lat="43.16592" lon="6.1524">
        <ele>147.39999389648</ele>
        <time>2023-05-24T08:20:06.000Z</time>
      </trkpt>
      <trkpt lat="43.16604" lon="6.15235">
        <ele>150.60000610352</ele>
        <time>2023-05-24T08:20:12.000Z</time>
      </trkpt>
      <trkpt lat="43.16612" lon="6.15226">
        <ele>152.39999389648</ele>
        <time>2023-05-24T08:20:17.000Z</time>
      </trkpt>
      <trkpt lat="43.16616" lon="6.15214">
        <ele>152.60000610352</ele>
        <time>2023-05-24T08:28:26.000Z</time>
      </trkpt>
      <trkpt lat="43.1662" lon="6.15218">
        <ele>153.19999694824</ele>
        <time>2023-05-24T08:28:27.000Z</time>
      </trkpt>
      <trkpt lat="43.1663" lon="6.15222">
        <ele>154.39999389648</ele>
        <time>2023-05-24T08:28:30.000Z</time>
      </trkpt>
      <trkpt lat="43.16647" lon="6.15226">
        <ele>156.60000610352</ele>
        <time>2023-05-24T08:28:36.000Z</time>
      </trkpt>
      <trkpt lat="43.16667" lon="6.15229">
        <ele>157.19999694824</ele>
        <time>2023-05-24T08:28:43.000Z</time>
      </trkpt>
      <trkpt lat="43.16686" lon="6.15239">
        <ele>158.80000305176</ele>
        <time>2023-05-24T08:28:51.000Z</time>
      </trkpt>
      <trkpt lat="43.16702" lon="6.1525">
        <ele>160.39999389648</ele>
        <time>2023-05-24T08:28:58.000Z</time>
      </trkpt>
      <trkpt lat="43.16715" lon="6.15262">
        <ele>162.19999694824</ele>
        <time>2023-05-24T08:29:04.000Z</time>
      </trkpt>
      <trkpt lat="43.16727" lon="6.15277">
        <ele>163.80000305176</ele>
        <time>2023-05-24T08:29:10.000Z</time>
      </trkpt>
      <trkpt lat="43.16738" lon="6.15292">
        <ele>164.80000305176</ele>
        <time>2023-05-24T08:29:16.000Z</time>
      </trkpt>
      <trkpt lat="43.16753" lon="6.15316">
        <ele>167.80000305176</ele>
        <time>2023-05-24T08:29:25.000Z</time>
      </trkpt>
      <trkpt lat="43.16765" lon="6.15337">
        <ele>169.60000610352</ele>
        <time>2023-05-24T08:29:33.000Z</time>
      </trkpt>
      <trkpt lat="43.16777" lon="6.15345">
        <ele>171.80000305176</ele>
        <time>2023-05-24T08:29:38.000Z</time>
      </trkpt>
      <trkpt lat="43.16796" lon="6.15354">
        <ele>175.80000305176</ele>
        <time>2023-05-24T08:29:45.000Z</time>
      </trkpt>
      <trkpt lat="43.16811" lon="6.15357">
        <ele>180.60000610352</ele>
        <time>2023-05-24T08:29:51.000Z</time>
      </trkpt>
      <trkpt lat="43.16826" lon="6.15358">
        <ele>185.19999694824</ele>
        <time>2023-05-24T08:29:57.000Z</time>
      </trkpt>
      <trkpt lat="43.16848" lon="6.15357">
        <ele>192</ele>
        <time>2023-05-24T08:30:06.000Z</time>
      </trkpt>
      <trkpt lat="43.16863" lon="6.15359">
        <ele>193.39999389648</ele>
        <time>2023-05-24T08:30:13.000Z</time>
      </trkpt>
      <trkpt lat="43.16873" lon="6.15361">
        <ele>192.80000305176</ele>
        <time>2023-05-24T08:30:19.000Z</time>
      </trkpt>
      <trkpt lat="43.16874" lon="6.15361">
        <ele>192.80000305176</ele>
        <time>2023-05-24T08:30:24.000Z</time>
      </trkpt>
      <trkpt lat="43.16874" lon="6.15361">
        <ele>192.80000305176</ele>
        <time>2023-05-24T08:30:38.000Z</time>
      </trkpt>
      <trkpt lat="43.16874" lon="6.15362">
        <ele>192.80000305176</ele>
        <time>2023-05-24T08:30:47.000Z</time>
      </trkpt>
      <trkpt lat="43.16874" lon="6.15362">
        <ele>192.80000305176</ele>
        <time>2023-05-24T08:31:00.000Z</time>
      </trkpt>
      <trkpt lat="43.16874" lon="6.15362">
        <ele>192.80000305176</ele>
        <time>2023-05-24T08:31:10.000Z</time>
      </trkpt>
      <trkpt lat="43.16874" lon="6.15362">
        <ele>192.80000305176</ele>
        <time>2023-05-24T08:31:19.000Z</time>
      </trkpt>
      <trkpt lat="43.16874" lon="6.15362">
        <ele>192.80000305176</ele>
        <time>2023-05-24T08:31:38.000Z</time>
      </trkpt>
      <trkpt lat="43.16874" lon="6.15362">
        <ele>192.80000305176</ele>
        <time>2023-05-24T08:32:00.000Z</time>
      </trkpt>
      <trkpt lat="43.16874" lon="6.15362">
        <ele>192.80000305176</ele>
        <time>2023-05-24T08:32:12.000Z</time>
      </trkpt>
      <trkpt lat="43.16874" lon="6.15362">
        <ele>192.80000305176</ele>
        <time>2023-05-24T08:32:30.000Z</time>
      </trkpt>
      <trkpt lat="43.16874" lon="6.15362">
        <ele>193</ele>
        <time>2023-05-24T08:32:56.000Z</time>
      </trkpt>
      <trkpt lat="43.16874" lon="6.15362">
        <ele>193</ele>
        <time>2023-05-24T08:33:08.000Z</time>
      </trkpt>
      <trkpt lat="43.16874" lon="6.15362">
        <ele>193</ele>
        <time>2023-05-24T08:33:24.000Z</time>
      </trkpt>
      <trkpt lat="43.16874" lon="6.15363">
        <ele>193</ele>
        <time>2023-05-24T08:33:49.000Z</time>
      </trkpt>
      <trkpt lat="43.16874" lon="6.15363">
        <ele>193</ele>
        <time>2023-05-24T08:34:10.000Z</time>
      </trkpt>
      <trkpt lat="43.16875" lon="6.15362">
        <ele>192.80000305176</ele>
        <time>2023-05-24T08:34:42.000Z</time>
      </trkpt>
      <trkpt lat="43.16875" lon="6.15362">
        <ele>192.80000305176</ele>
        <time>2023-05-24T08:35:09.000Z</time>
      </trkpt>
      <trkpt lat="43.16875" lon="6.15362">
        <ele>192.80000305176</ele>
        <time>2023-05-24T08:35:18.000Z</time>
      </trkpt>
      <trkpt lat="43.1688" lon="6.15364">
        <ele>192.80000305176</ele>
        <time>2023-05-24T08:35:23.000Z</time>
      </trkpt>
      <trkpt lat="43.16895" lon="6.1537">
        <ele>192.80000305176</ele>
        <time>2023-05-24T08:35:30.000Z</time>
      </trkpt>
      <trkpt lat="43.16911" lon="6.15374">
        <ele>192.60000610352</ele>
        <time>2023-05-24T08:35:37.000Z</time>
      </trkpt>
      <trkpt lat="43.16925" lon="6.15376">
        <ele>192.60000610352</ele>
        <time>2023-05-24T08:35:43.000Z</time>
      </trkpt>
      <trkpt lat="43.16932" lon="6.15377">
        <ele>192.60000610352</ele>
        <time>2023-05-24T08:35:49.000Z</time>
      </trkpt>
      <trkpt lat="43.16932" lon="6.15377">
        <ele>192.60000610352</ele>
        <time>2023-05-24T08:36:05.000Z</time>
      </trkpt>
      <trkpt lat="43.16932" lon="6.15377">
        <ele>192.60000610352</ele>
        <time>2023-05-24T08:36:20.000Z</time>
      </trkpt>
      <trkpt lat="43.16943" lon="6.1538">
        <ele>191.60000610352</ele>
        <time>2023-05-24T08:36:25.000Z</time>
      </trkpt>
      <trkpt lat="43.16951" lon="6.15385">
        <ele>190</ele>
        <time>2023-05-24T08:36:29.000Z</time>
      </trkpt>
      <trkpt lat="43.16951" lon="6.15385">
        <ele>190</ele>
        <time>2023-05-24T08:36:41.000Z</time>
      </trkpt>
      <trkpt lat="43.16952" lon="6.15385">
        <ele>189.80000305176</ele>
        <time>2023-05-24T08:36:42.000Z</time>
      </trkpt>
      <trkpt lat="43.16958" lon="6.1539">
        <ele>188.80000305176</ele>
        <time>2023-05-24T08:36:45.000Z</time>
      </trkpt>
      <trkpt lat="43.16973" lon="6.15405">
        <ele>187</ele>
        <time>2023-05-24T08:36:51.000Z</time>
      </trkpt>
      <trkpt lat="43.16984" lon="6.15418">
        <ele>185.60000610352</ele>
        <time>2023-05-24T08:36:56.000Z</time>
      </trkpt>
      <trkpt lat="43.17001" lon="6.15429">
        <ele>183.60000610352</ele>
        <time>2023-05-24T08:37:01.000Z</time>
      </trkpt>
      <trkpt lat="43.17025" lon="6.15431">
        <ele>182</ele>
        <time>2023-05-24T08:37:07.000Z</time>
      </trkpt>
      <trkpt lat="43.17041" lon="6.15431">
        <ele>182.60000610352</ele>
        <time>2023-05-24T08:37:10.000Z</time>
      </trkpt>
      <trkpt lat="43.17046" lon="6.15433">
        <ele>182.80000305176</ele>
        <time>2023-05-24T08:37:11.000Z</time>
      </trkpt>
      <trkpt lat="43.17055" lon="6.15435">
        <ele>183.19999694824</ele>
        <time>2023-05-24T08:37:14.000Z</time>
      </trkpt>
      <trkpt lat="43.17067" lon="6.15437">
        <ele>183.80000305176</ele>
        <time>2023-05-24T08:37:20.000Z</time>
      </trkpt>
      <trkpt lat="43.17081" lon="6.15439">
        <ele>184.39999389648</ele>
        <time>2023-05-24T08:37:26.000Z</time>
      </trkpt>
      <trkpt lat="43.171" lon="6.1544">
        <ele>184.39999389648</ele>
        <time>2023-05-24T08:37:33.000Z</time>
      </trkpt>
      <trkpt lat="43.17116" lon="6.1545">
        <ele>184.60000610352</ele>
        <time>2023-05-24T08:37:39.000Z</time>
      </trkpt>
      <trkpt lat="43.17123" lon="6.15457">
        <ele>184.80000305176</ele>
        <time>2023-05-24T08:37:45.000Z</time>
      </trkpt>
      <trkpt lat="43.17127" lon="6.15458">
        <ele>184.80000305176</ele>
        <time>2023-05-24T08:37:49.000Z</time>
      </trkpt>
      <trkpt lat="43.1713" lon="6.15457">
        <ele>184.39999389648</ele>
        <time>2023-05-24T08:37:51.000Z</time>
      </trkpt>
      <trkpt lat="43.17144" lon="6.15446">
        <ele>181.39999389648</ele>
        <time>2023-05-24T08:37:55.000Z</time>
      </trkpt>
      <trkpt lat="43.17157" lon="6.15437">
        <ele>180</ele>
        <time>2023-05-24T08:37:58.000Z</time>
      </trkpt>
      <trkpt lat="43.17165" lon="6.15428">
        <ele>177.80000305176</ele>
        <time>2023-05-24T08:38:00.000Z</time>
      </trkpt>
      <trkpt lat="43.17187" lon="6.15404">
        <ele>174.60000610352</ele>
        <time>2023-05-24T08:38:05.000Z</time>
      </trkpt>
      <trkpt lat="43.1719" lon="6.154">
        <ele>174</ele>
        <time>2023-05-24T08:38:06.000Z</time>
      </trkpt>
      <trkpt lat="43.17196" lon="6.15391">
        <ele>172.60000610352</ele>
        <time>2023-05-24T08:38:08.000Z</time>
      </trkpt>
      <trkpt lat="43.17203" lon="6.15381">
        <ele>172.39999389648</ele>
        <time>2023-05-24T08:38:10.000Z</time>
      </trkpt>
      <trkpt lat="43.17223" lon="6.15353">
        <ele>169.39999389648</ele>
        <time>2023-05-24T08:38:15.000Z</time>
      </trkpt>
      <trkpt lat="43.17233" lon="6.15332">
        <ele>167.60000610352</ele>
        <time>2023-05-24T08:38:19.000Z</time>
      </trkpt>
      <trkpt lat="43.17237" lon="6.15329">
        <ele>167.39999389648</ele>
        <time>2023-05-24T08:38:20.000Z</time>
      </trkpt>
      <trkpt lat="43.1725" lon="6.15318">
        <ele>166</ele>
        <time>2023-05-24T08:38:23.000Z</time>
      </trkpt>
      <trkpt lat="43.17275" lon="6.15293">
        <ele>162.39999389648</ele>
        <time>2023-05-24T08:38:28.000Z</time>
      </trkpt>
      <trkpt lat="43.17285" lon="6.15284">
        <ele>159.60000610352</ele>
        <time>2023-05-24T08:38:30.000Z</time>
      </trkpt>
      <trkpt lat="43.17299" lon="6.15267">
        <ele>158.80000305176</ele>
        <time>2023-05-24T08:38:33.000Z</time>
      </trkpt>
      <trkpt lat="43.17316" lon="6.15251">
        <ele>157.80000305176</ele>
        <time>2023-05-24T08:38:37.000Z</time>
      </trkpt>
      <trkpt lat="43.17314" lon="6.15255">
        <ele>157.39999389648</ele>
        <time>2023-05-24T08:39:36.000Z</time>
      </trkpt>
      <trkpt lat="43.17311" lon="6.15254">
        <ele>157.39999389648</ele>
        <time>2023-05-24T08:39:37.000Z</time>
      </trkpt>
      <trkpt lat="43.17308" lon="6.15249">
        <ele>158</ele>
        <time>2023-05-24T08:39:39.000Z</time>
      </trkpt>
      <trkpt lat="43.17311" lon="6.15237">
        <ele>159.19999694824</ele>
        <time>2023-05-24T08:39:43.000Z</time>
      </trkpt>
      <trkpt lat="43.17317" lon="6.15223">
        <ele>160.19999694824</ele>
        <time>2023-05-24T08:39:50.000Z</time>
      </trkpt>
      <trkpt lat="43.17326" lon="6.15209">
        <ele>162.39999389648</ele>
        <time>2023-05-24T08:39:56.000Z</time>
      </trkpt>
      <trkpt lat="43.17335" lon="6.15193">
        <ele>164</ele>
        <time>2023-05-24T08:40:02.000Z</time>
      </trkpt>
      <trkpt lat="43.17339" lon="6.1517">
        <ele>166.80000305176</ele>
        <time>2023-05-24T08:40:10.000Z</time>
      </trkpt>
      <trkpt lat="43.17341" lon="6.15166">
        <ele>167.39999389648</ele>
        <time>2023-05-24T08:40:12.000Z</time>
      </trkpt>
      <trkpt lat="43.17347" lon="6.15162">
        <ele>168.60000610352</ele>
        <time>2023-05-24T08:40:15.000Z</time>
      </trkpt>
      <trkpt lat="43.1735" lon="6.1516">
        <ele>169.39999389648</ele>
        <time>2023-05-24T08:40:17.000Z</time>
      </trkpt>
      <trkpt lat="43.17354" lon="6.15151">
        <ele>170.80000305176</ele>
        <time>2023-05-24T08:40:20.000Z</time>
      </trkpt>
      <trkpt lat="43.17355" lon="6.15128">
        <ele>174.60000610352</ele>
        <time>2023-05-24T08:40:28.000Z</time>
      </trkpt>
      <trkpt lat="43.17356" lon="6.15114">
        <ele>176.60000610352</ele>
        <time>2023-05-24T08:40:33.000Z</time>
      </trkpt>
      <trkpt lat="43.17358" lon="6.15096">
        <ele>179.60000610352</ele>
        <time>2023-05-24T08:40:39.000Z</time>
      </trkpt>
      <trkpt lat="43.17361" lon="6.1507">
        <ele>183.80000305176</ele>
        <time>2023-05-24T08:40:47.000Z</time>
      </trkpt>
      <trkpt lat="43.17368" lon="6.1505">
        <ele>188.39999389648</ele>
        <time>2023-05-24T08:40:54.000Z</time>
      </trkpt>
      <trkpt lat="43.17377" lon="6.1504">
        <ele>192.19999694824</ele>
        <time>2023-05-24T08:40:59.000Z</time>
      </trkpt>
      <trkpt lat="43.17388" lon="6.15028">
        <ele>195.39999389648</ele>
        <time>2023-05-24T08:41:05.000Z</time>
      </trkpt>
      <trkpt lat="43.174" lon="6.1501">
        <ele>199.19999694824</ele>
        <time>2023-05-24T08:41:12.000Z</time>
      </trkpt>
      <trkpt lat="43.17407" lon="6.14989">
        <ele>203.80000305176</ele>
        <time>2023-05-24T08:41:19.000Z</time>
      </trkpt>
      <trkpt lat="43.17413" lon="6.14967">
        <ele>207</ele>
        <time>2023-05-24T08:41:26.000Z</time>
      </trkpt>
      <trkpt lat="43.17421" lon="6.14944">
        <ele>211</ele>
        <time>2023-05-24T08:41:34.000Z</time>
      </trkpt>
      <trkpt lat="43.17428" lon="6.14923">
        <ele>214.60000610352</ele>
        <time>2023-05-24T08:41:41.000Z</time>
      </trkpt>
      <trkpt lat="43.1743" lon="6.149">
        <ele>216.60000610352</ele>
        <time>2023-05-24T08:41:48.000Z</time>
      </trkpt>
      <trkpt lat="43.17433" lon="6.14871">
        <ele>220.19999694824</ele>
        <time>2023-05-24T08:41:56.000Z</time>
      </trkpt>
      <trkpt lat="43.17433" lon="6.14853">
        <ele>221.39999389648</ele>
        <time>2023-05-24T08:42:01.000Z</time>
      </trkpt>
      <trkpt lat="43.1743" lon="6.14827">
        <ele>221.80000305176</ele>
        <time>2023-05-24T08:42:08.000Z</time>
      </trkpt>
      <trkpt lat="43.17429" lon="6.14808">
        <ele>222.80000305176</ele>
        <time>2023-05-24T08:42:13.000Z</time>
      </trkpt>
      <trkpt lat="43.17429" lon="6.14792">
        <ele>224.19999694824</ele>
        <time>2023-05-24T08:42:18.000Z</time>
      </trkpt>
      <trkpt lat="43.17426" lon="6.14767">
        <ele>224.19999694824</ele>
        <time>2023-05-24T08:42:23.000Z</time>
      </trkpt>
      <trkpt lat="43.17428" lon="6.14733">
        <ele>224</ele>
        <time>2023-05-24T08:42:29.000Z</time>
      </trkpt>
      <trkpt lat="43.17429" lon="6.14705">
        <ele>223.80000305176</ele>
        <time>2023-05-24T08:42:35.000Z</time>
      </trkpt>
      <trkpt lat="43.1743" lon="6.14677">
        <ele>223.19999694824</ele>
        <time>2023-05-24T08:42:42.000Z</time>
      </trkpt>
      <trkpt lat="43.17433" lon="6.14649">
        <ele>222.60000610352</ele>
        <time>2023-05-24T08:42:49.000Z</time>
      </trkpt>
      <trkpt lat="43.17435" lon="6.14639">
        <ele>223</ele>
        <time>2023-05-24T08:42:51.000Z</time>
      </trkpt>
      <trkpt lat="43.17435" lon="6.14627">
        <ele>222.60000610352</ele>
        <time>2023-05-24T08:42:53.000Z</time>
      </trkpt>
      <trkpt lat="43.17426" lon="6.14589">
        <ele>218.80000305176</ele>
        <time>2023-05-24T08:42:59.000Z</time>
      </trkpt>
      <trkpt lat="43.17408" lon="6.14546">
        <ele>217.19999694824</ele>
        <time>2023-05-24T08:43:05.000Z</time>
      </trkpt>
      <trkpt lat="43.17388" lon="6.14508">
        <ele>215.60000610352</ele>
        <time>2023-05-24T08:43:11.000Z</time>
      </trkpt>
      <trkpt lat="43.17364" lon="6.14474">
        <ele>218.19999694824</ele>
        <time>2023-05-24T08:43:19.000Z</time>
      </trkpt>
      <trkpt lat="43.17341" lon="6.14438">
        <ele>221</ele>
        <time>2023-05-24T08:43:28.000Z</time>
      </trkpt>
      <trkpt lat="43.17324" lon="6.14399">
        <ele>218.80000305176</ele>
        <time>2023-05-24T08:43:36.000Z</time>
      </trkpt>
      <trkpt lat="43.1732" lon="6.14382">
        <ele>217.60000610352</ele>
        <time>2023-05-24T08:43:39.000Z</time>
      </trkpt>
      <trkpt lat="43.17319" lon="6.14363">
        <ele>217.19999694824</ele>
        <time>2023-05-24T08:43:42.000Z</time>
      </trkpt>
      <trkpt lat="43.1732" lon="6.14356">
        <ele>217</ele>
        <time>2023-05-24T08:43:43.000Z</time>
      </trkpt>
      <trkpt lat="43.17324" lon="6.14325">
        <ele>216</ele>
        <time>2023-05-24T08:43:48.000Z</time>
      </trkpt>
      <trkpt lat="43.17331" lon="6.14281">
        <ele>216.19999694824</ele>
        <time>2023-05-24T08:43:55.000Z</time>
      </trkpt>
      <trkpt lat="43.17331" lon="6.14275">
        <ele>216.19999694824</ele>
        <time>2023-05-24T08:43:56.000Z</time>
      </trkpt>
      <trkpt lat="43.17331" lon="6.14268">
        <ele>216.19999694824</ele>
        <time>2023-05-24T08:43:57.000Z</time>
      </trkpt>
      <trkpt lat="43.1733" lon="6.1425">
        <ele>216</ele>
        <time>2023-05-24T08:44:00.000Z</time>
      </trkpt>
      <trkpt lat="43.17328" lon="6.14244">
        <ele>215.80000305176</ele>
        <time>2023-05-24T08:44:01.000Z</time>
      </trkpt>
      <trkpt lat="43.17327" lon="6.14238">
        <ele>215.60000610352</ele>
        <time>2023-05-24T08:44:02.000Z</time>
      </trkpt>
      <trkpt lat="43.17317" lon="6.14215">
        <ele>214</ele>
        <time>2023-05-24T08:44:06.000Z</time>
      </trkpt>
      <trkpt lat="43.17292" lon="6.14172">
        <ele>211</ele>
        <time>2023-05-24T08:44:14.000Z</time>
      </trkpt>
      <trkpt lat="43.17274" lon="6.14128">
        <ele>211.19999694824</ele>
        <time>2023-05-24T08:44:21.000Z</time>
      </trkpt>
      <trkpt lat="43.17257" lon="6.1409">
        <ele>210.39999389648</ele>
        <time>2023-05-24T08:44:28.000Z</time>
      </trkpt>
      <trkpt lat="43.17251" lon="6.14064">
        <ele>210.80000305176</ele>
        <time>2023-05-24T08:44:34.000Z</time>
      </trkpt>
      <trkpt lat="43.17252" lon="6.14061">
        <ele>211.39999389648</ele>
        <time>2023-05-24T08:44:35.000Z</time>
      </trkpt>
      <trkpt lat="43.17258" lon="6.14055">
        <ele>212.39999389648</ele>
        <time>2023-05-24T08:44:37.000Z</time>
      </trkpt>
      <trkpt lat="43.17266" lon="6.1405">
        <ele>213.60000610352</ele>
        <time>2023-05-24T08:44:41.000Z</time>
      </trkpt>
      <trkpt lat="43.17271" lon="6.14048">
        <ele>214.39999389648</ele>
        <time>2023-05-24T08:44:43.000Z</time>
      </trkpt>
      <trkpt lat="43.17273" lon="6.14044">
        <ele>214.60000610352</ele>
        <time>2023-05-24T08:44:44.000Z</time>
      </trkpt>
      <trkpt lat="43.17278" lon="6.14027">
        <ele>216.60000610352</ele>
        <time>2023-05-24T08:44:49.000Z</time>
      </trkpt>
      <trkpt lat="43.17287" lon="6.14016">
        <ele>217.39999389648</ele>
        <time>2023-05-24T08:44:53.000Z</time>
      </trkpt>
      <trkpt lat="43.17302" lon="6.14009">
        <ele>216.60000610352</ele>
        <time>2023-05-24T08:44:59.000Z</time>
      </trkpt>
      <trkpt lat="43.17313" lon="6.14008">
        <ele>215.60000610352</ele>
        <time>2023-05-24T08:45:05.000Z</time>
      </trkpt>
      <trkpt lat="43.17315" lon="6.14009">
        <ele>215.39999389648</ele>
        <time>2023-05-24T08:45:10.000Z</time>
      </trkpt>
      <trkpt lat="43.17315" lon="6.14009">
        <ele>215.39999389648</ele>
        <time>2023-05-24T08:45:28.000Z</time>
      </trkpt>
      <trkpt lat="43.17315" lon="6.14009">
        <ele>215.39999389648</ele>
        <time>2023-05-24T08:45:44.000Z</time>
      </trkpt>
      <trkpt lat="43.17315" lon="6.14009">
        <ele>215.39999389648</ele>
        <time>2023-05-24T08:46:05.000Z</time>
      </trkpt>
      <trkpt lat="43.17321" lon="6.14008">
        <ele>214.39999389648</ele>
        <time>2023-05-24T08:46:10.000Z</time>
      </trkpt>
      <trkpt lat="43.17332" lon="6.1401">
        <ele>212.60000610352</ele>
        <time>2023-05-24T08:46:16.000Z</time>
      </trkpt>
      <trkpt lat="43.17333" lon="6.1401">
        <ele>212.19999694824</ele>
        <time>2023-05-24T08:46:21.000Z</time>
      </trkpt>
      <trkpt lat="43.17334" lon="6.14011">
        <ele>212.19999694824</ele>
        <time>2023-05-24T08:46:37.000Z</time>
      </trkpt>
      <trkpt lat="43.17334" lon="6.14011">
        <ele>212.19999694824</ele>
        <time>2023-05-24T08:46:52.000Z</time>
      </trkpt>
      <trkpt lat="43.17334" lon="6.14011">
        <ele>212.19999694824</ele>
        <time>2023-05-24T08:47:14.000Z</time>
      </trkpt>
      <trkpt lat="43.17334" lon="6.14012">
        <ele>212.19999694824</ele>
        <time>2023-05-24T08:47:29.000Z</time>
      </trkpt>
      <trkpt lat="43.17334" lon="6.14012">
        <ele>212.19999694824</ele>
        <time>2023-05-24T08:47:41.000Z</time>
      </trkpt>
      <trkpt lat="43.17334" lon="6.14012">
        <ele>212.19999694824</ele>
        <time>2023-05-24T08:47:58.000Z</time>
      </trkpt>
      <trkpt lat="43.17334" lon="6.14012">
        <ele>212.19999694824</ele>
        <time>2023-05-24T08:48:14.000Z</time>
      </trkpt>
      <trkpt lat="43.17334" lon="6.14012">
        <ele>212.19999694824</ele>
        <time>2023-05-24T08:48:31.000Z</time>
      </trkpt>
      <trkpt lat="43.17335" lon="6.14011">
        <ele>212</ele>
        <time>2023-05-24T08:48:42.000Z</time>
      </trkpt>
      <trkpt lat="43.17346" lon="6.14013">
        <ele>209.80000305176</ele>
        <time>2023-05-24T08:48:47.000Z</time>
      </trkpt>
      <trkpt lat="43.17363" lon="6.14021">
        <ele>207.60000610352</ele>
        <time>2023-05-24T08:48:53.000Z</time>
      </trkpt>
      <trkpt lat="43.17381" lon="6.14035">
        <ele>206.39999389648</ele>
        <time>2023-05-24T08:48:58.000Z</time>
      </trkpt>
      <trkpt lat="43.17389" lon="6.14042">
        <ele>205.19999694824</ele>
        <time>2023-05-24T08:49:00.000Z</time>
      </trkpt>
      <trkpt lat="43.17397" lon="6.14051">
        <ele>204</ele>
        <time>2023-05-24T08:49:02.000Z</time>
      </trkpt>
      <trkpt lat="43.17405" lon="6.14059">
        <ele>202.60000610352</ele>
        <time>2023-05-24T08:49:04.000Z</time>
      </trkpt>
      <trkpt lat="43.17413" lon="6.14065">
        <ele>201.80000305176</ele>
        <time>2023-05-24T08:49:06.000Z</time>
      </trkpt>
      <trkpt lat="43.17418" lon="6.14067">
        <ele>201.39999389648</ele>
        <time>2023-05-24T08:49:07.000Z</time>
      </trkpt>
      <trkpt lat="43.17436" lon="6.14076">
        <ele>200</ele>
        <time>2023-05-24T08:49:11.000Z</time>
      </trkpt>
      <trkpt lat="43.17454" lon="6.14083">
        <ele>197.80000305176</ele>
        <time>2023-05-24T08:49:16.000Z</time>
      </trkpt>
      <trkpt lat="43.17461" lon="6.14085">
        <ele>196.80000305176</ele>
        <time>2023-05-24T08:49:19.000Z</time>
      </trkpt>
      <trkpt lat="43.17461" lon="6.14086">
        <ele>196.60000610352</ele>
        <time>2023-05-24T08:49:20.000Z</time>
      </trkpt>
      <trkpt lat="43.17461" lon="6.14086">
        <ele>196.60000610352</ele>
        <time>2023-05-24T08:49:33.000Z</time>
      </trkpt>
      <trkpt lat="43.17466" lon="6.14091">
        <ele>196.19999694824</ele>
        <time>2023-05-24T08:49:37.000Z</time>
      </trkpt>
      <trkpt lat="43.17481" lon="6.14101">
        <ele>194.19999694824</ele>
        <time>2023-05-24T08:49:43.000Z</time>
      </trkpt>
      <trkpt lat="43.17495" lon="6.14117">
        <ele>192.80000305176</ele>
        <time>2023-05-24T08:49:49.000Z</time>
      </trkpt>
      <trkpt lat="43.17509" lon="6.14141">
        <ele>191.60000610352</ele>
        <time>2023-05-24T08:49:54.000Z</time>
      </trkpt>
      <trkpt lat="43.17531" lon="6.14186">
        <ele>190</ele>
        <time>2023-05-24T08:50:02.000Z</time>
      </trkpt>
      <trkpt lat="43.17548" lon="6.14228">
        <ele>189.39999389648</ele>
        <time>2023-05-24T08:50:09.000Z</time>
      </trkpt>
      <trkpt lat="43.17562" lon="6.14263">
        <ele>188.60000610352</ele>
        <time>2023-05-24T08:50:15.000Z</time>
      </trkpt>
      <trkpt lat="43.17567" lon="6.14279">
        <ele>189.60000610352</ele>
        <time>2023-05-24T08:50:18.000Z</time>
      </trkpt>
      <trkpt lat="43.17571" lon="6.14289">
        <ele>189.80000305176</ele>
        <time>2023-05-24T08:50:20.000Z</time>
      </trkpt>
      <trkpt lat="43.17588" lon="6.14318">
        <ele>190.80000305176</ele>
        <time>2023-05-24T08:50:27.000Z</time>
      </trkpt>
      <trkpt lat="43.17607" lon="6.14348">
        <ele>193</ele>
        <time>2023-05-24T08:50:34.000Z</time>
      </trkpt>
      <trkpt lat="43.17624" lon="6.14376">
        <ele>191</ele>
        <time>2023-05-24T08:50:41.000Z</time>
      </trkpt>
      <trkpt lat="43.17635" lon="6.14404">
        <ele>188.60000610352</ele>
        <time>2023-05-24T08:50:47.000Z</time>
      </trkpt>
      <trkpt lat="43.17639" lon="6.14436">
        <ele>189.19999694824</ele>
        <time>2023-05-24T08:50:53.000Z</time>
      </trkpt>
      <trkpt lat="43.17638" lon="6.14465">
        <ele>189</ele>
        <time>2023-05-24T08:50:59.000Z</time>
      </trkpt>
      <trkpt lat="43.1763" lon="6.14494">
        <ele>189.80000305176</ele>
        <time>2023-05-24T08:51:05.000Z</time>
      </trkpt>
      <trkpt lat="43.1762" lon="6.14508">
        <ele>193.19999694824</ele>
        <time>2023-05-24T08:51:09.000Z</time>
      </trkpt>
      <trkpt lat="43.17612" lon="6.14516">
        <ele>195.60000610352</ele>
        <time>2023-05-24T08:51:12.000Z</time>
      </trkpt>
      <trkpt lat="43.17611" lon="6.14521">
        <ele>196</ele>
        <time>2023-05-24T08:51:13.000Z</time>
      </trkpt>
      <trkpt lat="43.17615" lon="6.1454">
        <ele>195.39999389648</ele>
        <time>2023-05-24T08:51:17.000Z</time>
      </trkpt>
      <trkpt lat="43.17622" lon="6.14559">
        <ele>194.80000305176</ele>
        <time>2023-05-24T08:51:21.000Z</time>
      </trkpt>
      <trkpt lat="43.17625" lon="6.14564">
        <ele>194.60000610352</ele>
        <time>2023-05-24T08:51:22.000Z</time>
      </trkpt>
      <trkpt lat="43.17636" lon="6.14583">
        <ele>194.39999389648</ele>
        <time>2023-05-24T08:51:26.000Z</time>
      </trkpt>
      <trkpt lat="43.17639" lon="6.14588">
        <ele>194.39999389648</ele>
        <time>2023-05-24T08:51:27.000Z</time>
      </trkpt>
      <trkpt lat="43.17646" lon="6.14598">
        <ele>194.80000305176</ele>
        <time>2023-05-24T08:51:30.000Z</time>
      </trkpt>
      <trkpt lat="43.17661" lon="6.1462">
        <ele>194.60000610352</ele>
        <time>2023-05-24T08:51:35.000Z</time>
      </trkpt>
      <trkpt lat="43.17664" lon="6.14624">
        <ele>194.80000305176</ele>
        <time>2023-05-24T08:51:36.000Z</time>
      </trkpt>
      <trkpt lat="43.17678" lon="6.14641">
        <ele>195.19999694824</ele>
        <time>2023-05-24T08:51:41.000Z</time>
      </trkpt>
      <trkpt lat="43.17689" lon="6.14663">
        <ele>197.60000610352</ele>
        <time>2023-05-24T08:51:46.000Z</time>
      </trkpt>
      <trkpt lat="43.17696" lon="6.14688">
        <ele>203</ele>
        <time>2023-05-24T08:51:51.000Z</time>
      </trkpt>
      <trkpt lat="43.17709" lon="6.147">
        <ele>202.80000305176</ele>
        <time>2023-05-24T08:51:55.000Z</time>
      </trkpt>
      <trkpt lat="43.17725" lon="6.14711">
        <ele>202.60000610352</ele>
        <time>2023-05-24T08:51:59.000Z</time>
      </trkpt>
      <trkpt lat="43.17733" lon="6.14712">
        <ele>201.39999389648</ele>
        <time>2023-05-24T08:52:01.000Z</time>
      </trkpt>
      <trkpt lat="43.17737" lon="6.14712">
        <ele>200.60000610352</ele>
        <time>2023-05-24T08:52:02.000Z</time>
      </trkpt>
      <trkpt lat="43.17747" lon="6.14713">
        <ele>198.60000610352</ele>
        <time>2023-05-24T08:52:04.000Z</time>
      </trkpt>
      <trkpt lat="43.17756" lon="6.14714">
        <ele>196.80000305176</ele>
        <time>2023-05-24T08:52:06.000Z</time>
      </trkpt>
      <trkpt lat="43.17767" lon="6.14717">
        <ele>195.19999694824</ele>
        <time>2023-05-24T08:52:08.000Z</time>
      </trkpt>
      <trkpt lat="43.17779" lon="6.1472">
        <ele>195</ele>
        <time>2023-05-24T08:52:10.000Z</time>
      </trkpt>
      <trkpt lat="43.1779" lon="6.14723">
        <ele>196</ele>
        <time>2023-05-24T08:52:12.000Z</time>
      </trkpt>
      <trkpt lat="43.17798" lon="6.14723">
        <ele>196.60000610352</ele>
        <time>2023-05-24T08:52:14.000Z</time>
      </trkpt>
      <trkpt lat="43.17807" lon="6.1472">
        <ele>197.39999389648</ele>
        <time>2023-05-24T08:52:17.000Z</time>
      </trkpt>
      <trkpt lat="43.17809" lon="6.14715">
        <ele>196.80000305176</ele>
        <time>2023-05-24T08:52:18.000Z</time>
      </trkpt>
      <trkpt lat="43.17815" lon="6.14697">
        <ele>193.39999389648</ele>
        <time>2023-05-24T08:52:22.000Z</time>
      </trkpt>
      <trkpt lat="43.17817" lon="6.14692">
        <ele>192.60000610352</ele>
        <time>2023-05-24T08:52:23.000Z</time>
      </trkpt>
      <trkpt lat="43.17822" lon="6.14681">
        <ele>190.60000610352</ele>
        <time>2023-05-24T08:52:25.000Z</time>
      </trkpt>
      <trkpt lat="43.17825" lon="6.14676">
        <ele>189</ele>
        <time>2023-05-24T08:52:26.000Z</time>
      </trkpt>
      <trkpt lat="43.17829" lon="6.14672">
        <ele>188</ele>
        <time>2023-05-24T08:52:27.000Z</time>
      </trkpt>
      <trkpt lat="43.17839" lon="6.14665">
        <ele>187</ele>
        <time>2023-05-24T08:52:30.000Z</time>
      </trkpt>
      <trkpt lat="43.17842" lon="6.14663">
        <ele>186.80000305176</ele>
        <time>2023-05-24T08:52:33.000Z</time>
      </trkpt>
      <trkpt lat="43.17842" lon="6.14663">
        <ele>186.80000305176</ele>
        <time>2023-05-24T08:52:49.000Z</time>
      </trkpt>
      <trkpt lat="43.17842" lon="6.14663">
        <ele>186.80000305176</ele>
        <time>2023-05-24T08:53:08.000Z</time>
      </trkpt>
      <trkpt lat="43.1785" lon="6.14658">
        <ele>186.19999694824</ele>
        <time>2023-05-24T08:53:12.000Z</time>
      </trkpt>
      <trkpt lat="43.17868" lon="6.1465">
        <ele>183.60000610352</ele>
        <time>2023-05-24T08:53:18.000Z</time>
      </trkpt>
      <trkpt lat="43.17892" lon="6.14645">
        <ele>181.19999694824</ele>
        <time>2023-05-24T08:53:24.000Z</time>
      </trkpt>
      <trkpt lat="43.17901" lon="6.14643">
        <ele>180</ele>
        <time>2023-05-24T08:53:26.000Z</time>
      </trkpt>
      <trkpt lat="43.1791" lon="6.14643">
        <ele>179.39999389648</ele>
        <time>2023-05-24T08:53:28.000Z</time>
      </trkpt>
      <trkpt lat="43.17915" lon="6.14644">
        <ele>179</ele>
        <time>2023-05-24T08:53:29.000Z</time>
      </trkpt>
      <trkpt lat="43.17933" lon="6.14646">
        <ele>177.80000305176</ele>
        <time>2023-05-24T08:53:33.000Z</time>
      </trkpt>
      <trkpt lat="43.17937" lon="6.14646">
        <ele>177.39999389648</ele>
        <time>2023-05-24T08:53:34.000Z</time>
      </trkpt>
      <trkpt lat="43.17955" lon="6.14652">
        <ele>176.60000610352</ele>
        <time>2023-05-24T08:53:38.000Z</time>
      </trkpt>
      <trkpt lat="43.1797" lon="6.14659">
        <ele>175.60000610352</ele>
        <time>2023-05-24T08:53:42.000Z</time>
      </trkpt>
      <trkpt lat="43.17981" lon="6.14666">
        <ele>174.19999694824</ele>
        <time>2023-05-24T08:53:46.000Z</time>
      </trkpt>
      <trkpt lat="43.17989" lon="6.14678">
        <ele>175</ele>
        <time>2023-05-24T08:53:51.000Z</time>
      </trkpt>
      <trkpt lat="43.17997" lon="6.14693">
        <ele>175.60000610352</ele>
        <time>2023-05-24T08:53:56.000Z</time>
      </trkpt>
      <trkpt lat="43.18004" lon="6.14711">
        <ele>176.19999694824</ele>
        <time>2023-05-24T08:54:01.000Z</time>
      </trkpt>
      <trkpt lat="43.18008" lon="6.14732">
        <ele>178.60000610352</ele>
        <time>2023-05-24T08:54:06.000Z</time>
      </trkpt>
      <trkpt lat="43.18014" lon="6.14769">
        <ele>184</ele>
        <time>2023-05-24T08:54:14.000Z</time>
      </trkpt>
      <trkpt lat="43.18017" lon="6.14792">
        <ele>187.80000305176</ele>
        <time>2023-05-24T08:54:19.000Z</time>
      </trkpt>
      <trkpt lat="43.1802" lon="6.14807">
        <ele>190.39999389648</ele>
        <time>2023-05-24T08:54:22.000Z</time>
      </trkpt>
      <trkpt lat="43.18025" lon="6.14813">
        <ele>191.80000305176</ele>
        <time>2023-05-24T08:54:24.000Z</time>
      </trkpt>
      <trkpt lat="43.18029" lon="6.14812">
        <ele>191.60000610352</ele>
        <time>2023-05-24T08:54:25.000Z</time>
      </trkpt>
      <trkpt lat="43.18036" lon="6.14807">
        <ele>190</ele>
        <time>2023-05-24T08:54:27.000Z</time>
      </trkpt>
      <trkpt lat="43.18043" lon="6.14802">
        <ele>188</ele>
        <time>2023-05-24T08:54:29.000Z</time>
      </trkpt>
      <trkpt lat="43.18063" lon="6.14795">
        <ele>185.80000305176</ele>
        <time>2023-05-24T08:54:35.000Z</time>
      </trkpt>
      <trkpt lat="43.18084" lon="6.14794">
        <ele>187</ele>
        <time>2023-05-24T08:54:42.000Z</time>
      </trkpt>
      <trkpt lat="43.18106" lon="6.14794">
        <ele>190.19999694824</ele>
        <time>2023-05-24T08:54:49.000Z</time>
      </trkpt>
      <trkpt lat="43.18125" lon="6.14798">
        <ele>193.80000305176</ele>
        <time>2023-05-24T08:54:55.000Z</time>
      </trkpt>
      <trkpt lat="43.18143" lon="6.14802">
        <ele>196</ele>
        <time>2023-05-24T08:55:01.000Z</time>
      </trkpt>
      <trkpt lat="43.18157" lon="6.14804">
        <ele>197</ele>
        <time>2023-05-24T08:55:06.000Z</time>
      </trkpt>
      <trkpt lat="43.18171" lon="6.14809">
        <ele>198.19999694824</ele>
        <time>2023-05-24T08:55:11.000Z</time>
      </trkpt>
      <trkpt lat="43.18187" lon="6.14814">
        <ele>199.19999694824</ele>
        <time>2023-05-24T08:55:17.000Z</time>
      </trkpt>
      <trkpt lat="43.18205" lon="6.14817">
        <ele>200.19999694824</ele>
        <time>2023-05-24T08:55:23.000Z</time>
      </trkpt>
      <trkpt lat="43.18225" lon="6.14819">
        <ele>201.39999389648</ele>
        <time>2023-05-24T08:55:30.000Z</time>
      </trkpt>
      <trkpt lat="43.1824" lon="6.14822">
        <ele>202.60000610352</ele>
        <time>2023-05-24T08:55:35.000Z</time>
      </trkpt>
      <trkpt lat="43.18255" lon="6.14832">
        <ele>203.80000305176</ele>
        <time>2023-05-24T08:55:41.000Z</time>
      </trkpt>
      <trkpt lat="43.18265" lon="6.14838">
        <ele>204.19999694824</ele>
        <time>2023-05-24T08:55:47.000Z</time>
      </trkpt>
      <trkpt lat="43.18266" lon="6.14838">
        <ele>204.19999694824</ele>
        <time>2023-05-24T08:55:48.000Z</time>
      </trkpt>
      <trkpt lat="43.18267" lon="6.14838">
        <ele>204.39999389648</ele>
        <time>2023-05-24T08:55:51.000Z</time>
      </trkpt>
      <trkpt lat="43.18267" lon="6.14838">
        <ele>204.39999389648</ele>
        <time>2023-05-24T08:56:12.000Z</time>
      </trkpt>
      <trkpt lat="43.18267" lon="6.14838">
        <ele>204.39999389648</ele>
        <time>2023-05-24T08:56:27.000Z</time>
      </trkpt>
      <trkpt lat="43.18267" lon="6.14838">
        <ele>204.39999389648</ele>
        <time>2023-05-24T08:56:34.000Z</time>
      </trkpt>
      <trkpt lat="43.18268" lon="6.14839">
        <ele>204.39999389648</ele>
        <time>2023-05-24T08:56:35.000Z</time>
      </trkpt>
      <trkpt lat="43.18275" lon="6.14845">
        <ele>204.39999389648</ele>
        <time>2023-05-24T08:56:39.000Z</time>
      </trkpt>
      <trkpt lat="43.18278" lon="6.14845">
        <ele>204.60000610352</ele>
        <time>2023-05-24T08:56:40.000Z</time>
      </trkpt>
      <trkpt lat="43.18297" lon="6.14844">
        <ele>205.80000305176</ele>
        <time>2023-05-24T08:56:46.000Z</time>
      </trkpt>
      <trkpt lat="43.18304" lon="6.14847">
        <ele>205.39999389648</ele>
        <time>2023-05-24T08:56:49.000Z</time>
      </trkpt>
      <trkpt lat="43.1832" lon="6.14843">
        <ele>206.19999694824</ele>
        <time>2023-05-24T08:56:55.000Z</time>
      </trkpt>
      <trkpt lat="43.18343" lon="6.14837">
        <ele>208.80000305176</ele>
        <time>2023-05-24T08:57:03.000Z</time>
      </trkpt>
      <trkpt lat="43.18363" lon="6.14829">
        <ele>211.60000610352</ele>
        <time>2023-05-24T08:57:10.000Z</time>
      </trkpt>
      <trkpt lat="43.18387" lon="6.14826">
        <ele>214.60000610352</ele>
        <time>2023-05-24T08:57:18.000Z</time>
      </trkpt>
      <trkpt lat="43.18393" lon="6.14827">
        <ele>215.39999389648</ele>
        <time>2023-05-24T08:57:21.000Z</time>
      </trkpt>
      <trkpt lat="43.18395" lon="6.14825">
        <ele>215.80000305176</ele>
        <time>2023-05-24T08:57:22.000Z</time>
      </trkpt>
      <trkpt lat="43.18395" lon="6.14823">
        <ele>216.19999694824</ele>
        <time>2023-05-24T08:57:23.000Z</time>
      </trkpt>
      <trkpt lat="43.18394" lon="6.1482">
        <ele>216.60000610352</ele>
        <time>2023-05-24T08:57:25.000Z</time>
      </trkpt>
      <trkpt lat="43.18393" lon="6.14819">
        <ele>216.60000610352</ele>
        <time>2023-05-24T08:57:26.000Z</time>
      </trkpt>
      <trkpt lat="43.18385" lon="6.14817">
        <ele>216</ele>
        <time>2023-05-24T08:57:32.000Z</time>
      </trkpt>
      <trkpt lat="43.18373" lon="6.14812">
        <ele>216</ele>
        <time>2023-05-24T08:57:37.000Z</time>
      </trkpt>
      <trkpt lat="43.18349" lon="6.14807">
        <ele>215.19999694824</ele>
        <time>2023-05-24T08:57:46.000Z</time>
      </trkpt>
      <trkpt lat="43.18328" lon="6.14809">
        <ele>213.19999694824</ele>
        <time>2023-05-24T08:57:53.000Z</time>
      </trkpt>
      <trkpt lat="43.18317" lon="6.14804">
        <ele>212.60000610352</ele>
        <time>2023-05-24T08:57:57.000Z</time>
      </trkpt>
      <trkpt lat="43.18314" lon="6.14789">
        <ele>213.60000610352</ele>
        <time>2023-05-24T08:58:01.000Z</time>
      </trkpt>
      <trkpt lat="43.18314" lon="6.14784">
        <ele>214</ele>
        <time>2023-05-24T08:58:05.000Z</time>
      </trkpt>
      <trkpt lat="43.18315" lon="6.1478">
        <ele>214.60000610352</ele>
        <time>2023-05-24T08:58:13.000Z</time>
      </trkpt>
      <trkpt lat="43.18323" lon="6.14765">
        <ele>217.80000305176</ele>
        <time>2023-05-24T08:58:19.000Z</time>
      </trkpt>
      <trkpt lat="43.18324" lon="6.14753">
        <ele>217.80000305176</ele>
        <time>2023-05-24T08:58:24.000Z</time>
      </trkpt>
      <trkpt lat="43.18329" lon="6.14735">
        <ele>218.60000610352</ele>
        <time>2023-05-24T08:58:29.000Z</time>
      </trkpt>
      <trkpt lat="43.1834" lon="6.14723">
        <ele>220.19999694824</ele>
        <time>2023-05-24T08:58:34.000Z</time>
      </trkpt>
      <trkpt lat="43.18354" lon="6.14714">
        <ele>223.39999389648</ele>
        <time>2023-05-24T08:58:40.000Z</time>
      </trkpt>
      <trkpt lat="43.18366" lon="6.14707">
        <ele>225</ele>
        <time>2023-05-24T08:58:45.000Z</time>
      </trkpt>
      <trkpt lat="43.18377" lon="6.14703">
        <ele>227</ele>
        <time>2023-05-24T08:58:50.000Z</time>
      </trkpt>
      <trkpt lat="43.18388" lon="6.14705">
        <ele>230.19999694824</ele>
        <time>2023-05-24T08:58:55.000Z</time>
      </trkpt>
      <trkpt lat="43.18403" lon="6.14708">
        <ele>234.19999694824</ele>
        <time>2023-05-24T08:59:01.000Z</time>
      </trkpt>
      <trkpt lat="43.18417" lon="6.14712">
        <ele>237.60000610352</ele>
        <time>2023-05-24T08:59:07.000Z</time>
      </trkpt>
      <trkpt lat="43.18432" lon="6.14715">
        <ele>240.19999694824</ele>
        <time>2023-05-24T08:59:13.000Z</time>
      </trkpt>
      <trkpt lat="43.18447" lon="6.14718">
        <ele>243.60000610352</ele>
        <time>2023-05-24T08:59:20.000Z</time>
      </trkpt>
      <trkpt lat="43.18459" lon="6.1472">
        <ele>246.80000305176</ele>
        <time>2023-05-24T08:59:27.000Z</time>
      </trkpt>
      <trkpt lat="43.18463" lon="6.1472">
        <ele>247.80000305176</ele>
        <time>2023-05-24T08:59:32.000Z</time>
      </trkpt>
      <trkpt lat="43.18464" lon="6.1472">
        <ele>247.80000305176</ele>
        <time>2023-05-24T08:59:39.000Z</time>
      </trkpt>
      <trkpt lat="43.18464" lon="6.1472">
        <ele>248</ele>
        <time>2023-05-24T08:59:52.000Z</time>
      </trkpt>
      <trkpt lat="43.18464" lon="6.1472">
        <ele>248</ele>
        <time>2023-05-24T08:59:59.000Z</time>
      </trkpt>
      <trkpt lat="43.18468" lon="6.14723">
        <ele>249.19999694824</ele>
        <time>2023-05-24T09:00:06.000Z</time>
      </trkpt>
      <trkpt lat="43.18468" lon="6.14723">
        <ele>249.19999694824</ele>
        <time>2023-05-24T09:00:14.000Z</time>
      </trkpt>
      <trkpt lat="43.18473" lon="6.14725">
        <ele>251</ele>
        <time>2023-05-24T09:00:18.000Z</time>
      </trkpt>
      <trkpt lat="43.18487" lon="6.14725">
        <ele>256.20001220703</ele>
        <time>2023-05-24T09:00:25.000Z</time>
      </trkpt>
      <trkpt lat="43.18497" lon="6.14723">
        <ele>260</ele>
        <time>2023-05-24T09:00:30.000Z</time>
      </trkpt>
      <trkpt lat="43.18508" lon="6.14722">
        <ele>264</ele>
        <time>2023-05-24T09:00:35.000Z</time>
      </trkpt>
      <trkpt lat="43.18515" lon="6.14715">
        <ele>267.20001220703</ele>
        <time>2023-05-24T09:00:40.000Z</time>
      </trkpt>
      <trkpt lat="43.18516" lon="6.14713">
        <ele>267.60000610352</ele>
        <time>2023-05-24T09:00:44.000Z</time>
      </trkpt>
      <trkpt lat="43.18516" lon="6.14713">
        <ele>267.60000610352</ele>
        <time>2023-05-24T09:00:55.000Z</time>
      </trkpt>
      <trkpt lat="43.18516" lon="6.14708">
        <ele>267.79998779297</ele>
        <time>2023-05-24T09:01:07.000Z</time>
      </trkpt>
      <trkpt lat="43.18521" lon="6.14696">
        <ele>269.60000610352</ele>
        <time>2023-05-24T09:01:12.000Z</time>
      </trkpt>
      <trkpt lat="43.18525" lon="6.14694">
        <ele>270.39999389648</ele>
        <time>2023-05-24T09:01:14.000Z</time>
      </trkpt>
      <trkpt lat="43.18531" lon="6.14696">
        <ele>272</ele>
        <time>2023-05-24T09:01:17.000Z</time>
      </trkpt>
      <trkpt lat="43.18535" lon="6.14696">
        <ele>273.20001220703</ele>
        <time>2023-05-24T09:01:19.000Z</time>
      </trkpt>
      <trkpt lat="43.1854" lon="6.147">
        <ele>274.60000610352</ele>
        <time>2023-05-24T09:01:22.000Z</time>
      </trkpt>
      <trkpt lat="43.18553" lon="6.14707">
        <ele>278.20001220703</ele>
        <time>2023-05-24T09:01:29.000Z</time>
      </trkpt>
      <trkpt lat="43.18562" lon="6.14716">
        <ele>280.39999389648</ele>
        <time>2023-05-24T09:01:35.000Z</time>
      </trkpt>
      <trkpt lat="43.18569" lon="6.14722">
        <ele>281.79998779297</ele>
        <time>2023-05-24T09:01:39.000Z</time>
      </trkpt>
      <trkpt lat="43.1857" lon="6.14722">
        <ele>282.20001220703</ele>
        <time>2023-05-24T09:01:40.000Z</time>
      </trkpt>
      <trkpt lat="43.18576" lon="6.14713">
        <ele>285.20001220703</ele>
        <time>2023-05-24T09:01:45.000Z</time>
      </trkpt>
      <trkpt lat="43.1858" lon="6.14699">
        <ele>287.79998779297</ele>
        <time>2023-05-24T09:01:51.000Z</time>
      </trkpt>
      <trkpt lat="43.18582" lon="6.1468">
        <ele>289.39999389648</ele>
        <time>2023-05-24T09:01:58.000Z</time>
      </trkpt>
      <trkpt lat="43.18582" lon="6.14662">
        <ele>289.79998779297</ele>
        <time>2023-05-24T09:02:05.000Z</time>
      </trkpt>
      <trkpt lat="43.18582" lon="6.14656">
        <ele>290</ele>
        <time>2023-05-24T09:02:10.000Z</time>
      </trkpt>
      <trkpt lat="43.18582" lon="6.14656">
        <ele>290</ele>
        <time>2023-05-24T09:02:22.000Z</time>
      </trkpt>
      <trkpt lat="43.18582" lon="6.14656">
        <ele>290</ele>
        <time>2023-05-24T09:02:36.000Z</time>
      </trkpt>
      <trkpt lat="43.18582" lon="6.14656">
        <ele>290</ele>
        <time>2023-05-24T09:02:51.000Z</time>
      </trkpt>
      <trkpt lat="43.18582" lon="6.14656">
        <ele>290</ele>
        <time>2023-05-24T09:03:04.000Z</time>
      </trkpt>
      <trkpt lat="43.18581" lon="6.14655">
        <ele>290</ele>
        <time>2023-05-24T09:03:36.000Z</time>
      </trkpt>
      <trkpt lat="43.18581" lon="6.14655">
        <ele>290</ele>
        <time>2023-05-24T09:04:00.000Z</time>
      </trkpt>
      <trkpt lat="43.18582" lon="6.14655">
        <ele>290</ele>
        <time>2023-05-24T09:04:23.000Z</time>
      </trkpt>
      <trkpt lat="43.18582" lon="6.14655">
        <ele>290</ele>
        <time>2023-05-24T09:04:38.000Z</time>
      </trkpt>
      <trkpt lat="43.18582" lon="6.14656">
        <ele>290</ele>
        <time>2023-05-24T09:05:03.000Z</time>
      </trkpt>
      <trkpt lat="43.18582" lon="6.14656">
        <ele>290</ele>
        <time>2023-05-24T09:05:18.000Z</time>
      </trkpt>
      <trkpt lat="43.18582" lon="6.14656">
        <ele>290</ele>
        <time>2023-05-24T09:05:40.000Z</time>
      </trkpt>
      <trkpt lat="43.18582" lon="6.14656">
        <ele>290</ele>
        <time>2023-05-24T09:06:03.000Z</time>
      </trkpt>
      <trkpt lat="43.18582" lon="6.14656">
        <ele>290</ele>
        <time>2023-05-24T09:06:24.000Z</time>
      </trkpt>
      <trkpt lat="43.18582" lon="6.14656">
        <ele>290</ele>
        <time>2023-05-24T09:06:31.000Z</time>
      </trkpt>
      <trkpt lat="43.18582" lon="6.14656">
        <ele>290</ele>
        <time>2023-05-24T09:06:50.000Z</time>
      </trkpt>
      <trkpt lat="43.18582" lon="6.14656">
        <ele>290</ele>
        <time>2023-05-24T09:07:15.000Z</time>
      </trkpt>
      <trkpt lat="43.18582" lon="6.14655">
        <ele>290</ele>
        <time>2023-05-24T09:07:40.000Z</time>
      </trkpt>
      <trkpt lat="43.18582" lon="6.14655">
        <ele>290</ele>
        <time>2023-05-24T09:08:05.000Z</time>
      </trkpt>
      <trkpt lat="43.18582" lon="6.14655">
        <ele>290</ele>
        <time>2023-05-24T09:08:20.000Z</time>
      </trkpt>
      <trkpt lat="43.18582" lon="6.14655">
        <ele>290</ele>
        <time>2023-05-24T09:08:35.000Z</time>
      </trkpt>
      <trkpt lat="43.18582" lon="6.14655">
        <ele>290</ele>
        <time>2023-05-24T09:08:53.000Z</time>
      </trkpt>
      <trkpt lat="43.18582" lon="6.14655">
        <ele>290</ele>
        <time>2023-05-24T09:08:54.000Z</time>
        <extensions>
          <gpxtpx:TrackPointExtension xmlns:gpxtpx="http://www.garmin.com/xmlschemas/TrackPointExtension/v1">
            <gpxtpx:hr>105</gpxtpx:hr>
          </gpxtpx:TrackPointExtension>
        </extensions>
      </trkpt>
      <trkpt lat="43.18582" lon="6.14655">
        <ele>290</ele>
        <time>2023-05-24T09:09:11.000Z</time>
        <extensions>
          <gpxtpx:TrackPointExtension xmlns:gpxtpx="http://www.garmin.com/xmlschemas/TrackPointExtension/v1">
            <gpxtpx:hr>106</gpxtpx:hr>
          </gpxtpx:TrackPointExtension>
        </extensions>
      </trkpt>
      <trkpt lat="43.18582" lon="6.14655">
        <ele>290</ele>
        <time>2023-05-24T09:09:17.000Z</time>
        <extensions>
          <gpxtpx:TrackPointExtension xmlns:gpxtpx="http://www.garmin.com/xmlschemas/TrackPointExtension/v1">
            <gpxtpx:hr>109</gpxtpx:hr>
          </gpxtpx:TrackPointExtension>
        </extensions>
      </trkpt>
      <trkpt lat="43.18582" lon="6.14655">
        <ele>290</ele>
        <time>2023-05-24T09:09:22.000Z</time>
        <extensions>
          <gpxtpx:TrackPointExtension xmlns:gpxtpx="http://www.garmin.com/xmlschemas/TrackPointExtension/v1">
            <gpxtpx:hr>107</gpxtpx:hr>
          </gpxtpx:TrackPointExtension>
        </extensions>
      </trkpt>
      <trkpt lat="43.18581" lon="6.14649">
        <ele>289.79998779297</ele>
        <time>2023-05-24T09:09:28.000Z</time>
        <extensions>
          <gpxtpx:TrackPointExtension xmlns:gpxtpx="http://www.garmin.com/xmlschemas/TrackPointExtension/v1">
            <gpxtpx:hr>108</gpxtpx:hr>
          </gpxtpx:TrackPointExtension>
        </extensions>
      </trkpt>
      <trkpt lat="43.18581" lon="6.14629">
        <ele>290</ele>
        <time>2023-05-24T09:09:34.000Z</time>
        <extensions>
          <gpxtpx:TrackPointExtension xmlns:gpxtpx="http://www.garmin.com/xmlschemas/TrackPointExtension/v1">
            <gpxtpx:hr>108</gpxtpx:hr>
          </gpxtpx:TrackPointExtension>
        </extensions>
      </trkpt>
      <trkpt lat="43.18584" lon="6.14602">
        <ele>290.39999389648</ele>
        <time>2023-05-24T09:09:40.000Z</time>
        <extensions>
          <gpxtpx:TrackPointExtension xmlns:gpxtpx="http://www.garmin.com/xmlschemas/TrackPointExtension/v1">
            <gpxtpx:hr>106</gpxtpx:hr>
          </gpxtpx:TrackPointExtension>
        </extensions>
      </trkpt>
      <trkpt lat="43.18587" lon="6.14572">
        <ele>291.20001220703</ele>
        <time>2023-05-24T09:09:46.000Z</time>
        <extensions>
          <gpxtpx:TrackPointExtension xmlns:gpxtpx="http://www.garmin.com/xmlschemas/TrackPointExtension/v1">
            <gpxtpx:hr>109</gpxtpx:hr>
          </gpxtpx:TrackPointExtension>
        </extensions>
      </trkpt>
      <trkpt lat="43.18588" lon="6.14568">
        <ele>291.20001220703</ele>
        <time>2023-05-24T09:09:47.000Z</time>
        <extensions>
          <gpxtpx:TrackPointExtension xmlns:gpxtpx="http://www.garmin.com/xmlschemas/TrackPointExtension/v1">
            <gpxtpx:hr>109</gpxtpx:hr>
          </gpxtpx:TrackPointExtension>
        </extensions>
      </trkpt>
      <trkpt lat="43.1859" lon="6.1455">
        <ele>291</ele>
        <time>2023-05-24T09:09:51.000Z</time>
        <extensions>
          <gpxtpx:TrackPointExtension xmlns:gpxtpx="http://www.garmin.com/xmlschemas/TrackPointExtension/v1">
            <gpxtpx:hr>112</gpxtpx:hr>
          </gpxtpx:TrackPointExtension>
        </extensions>
      </trkpt>
      <trkpt lat="43.18591" lon="6.1454">
        <ele>290.79998779297</ele>
        <time>2023-05-24T09:09:53.000Z</time>
        <extensions>
          <gpxtpx:TrackPointExtension xmlns:gpxtpx="http://www.garmin.com/xmlschemas/TrackPointExtension/v1">
            <gpxtpx:hr>112</gpxtpx:hr>
          </gpxtpx:TrackPointExtension>
        </extensions>
      </trkpt>
      <trkpt lat="43.18588" lon="6.14517">
        <ele>288.39999389648</ele>
        <time>2023-05-24T09:09:58.000Z</time>
        <extensions>
          <gpxtpx:TrackPointExtension xmlns:gpxtpx="http://www.garmin.com/xmlschemas/TrackPointExtension/v1">
            <gpxtpx:hr>114</gpxtpx:hr>
          </gpxtpx:TrackPointExtension>
        </extensions>
      </trkpt>
      <trkpt lat="43.18585" lon="6.14485">
        <ele>284.79998779297</ele>
        <time>2023-05-24T09:10:04.000Z</time>
        <extensions>
          <gpxtpx:TrackPointExtension xmlns:gpxtpx="http://www.garmin.com/xmlschemas/TrackPointExtension/v1">
            <gpxtpx:hr>112</gpxtpx:hr>
          </gpxtpx:TrackPointExtension>
        </extensions>
      </trkpt>
      <trkpt lat="43.18582" lon="6.14471">
        <ele>284.39999389648</ele>
        <time>2023-05-24T09:10:06.000Z</time>
        <extensions>
          <gpxtpx:TrackPointExtension xmlns:gpxtpx="http://www.garmin.com/xmlschemas/TrackPointExtension/v1">
            <gpxtpx:hr>111</gpxtpx:hr>
          </gpxtpx:TrackPointExtension>
        </extensions>
      </trkpt>
      <trkpt lat="43.18576" lon="6.14458">
        <ele>283.79998779297</ele>
        <time>2023-05-24T09:10:08.000Z</time>
        <extensions>
          <gpxtpx:TrackPointExtension xmlns:gpxtpx="http://www.garmin.com/xmlschemas/TrackPointExtension/v1">
            <gpxtpx:hr>109</gpxtpx:hr>
          </gpxtpx:TrackPointExtension>
        </extensions>
      </trkpt>
      <trkpt lat="43.18574" lon="6.14451">
        <ele>283.39999389648</ele>
        <time>2023-05-24T09:10:09.000Z</time>
        <extensions>
          <gpxtpx:TrackPointExtension xmlns:gpxtpx="http://www.garmin.com/xmlschemas/TrackPointExtension/v1">
            <gpxtpx:hr>110</gpxtpx:hr>
          </gpxtpx:TrackPointExtension>
        </extensions>
      </trkpt>
      <trkpt lat="43.18571" lon="6.14436">
        <ele>282.20001220703</ele>
        <time>2023-05-24T09:10:11.000Z</time>
        <extensions>
          <gpxtpx:TrackPointExtension xmlns:gpxtpx="http://www.garmin.com/xmlschemas/TrackPointExtension/v1">
            <gpxtpx:hr>110</gpxtpx:hr>
          </gpxtpx:TrackPointExtension>
        </extensions>
      </trkpt>
      <trkpt lat="43.18569" lon="6.14427">
        <ele>281.79998779297</ele>
        <time>2023-05-24T09:10:12.000Z</time>
        <extensions>
          <gpxtpx:TrackPointExtension xmlns:gpxtpx="http://www.garmin.com/xmlschemas/TrackPointExtension/v1">
            <gpxtpx:hr>110</gpxtpx:hr>
          </gpxtpx:TrackPointExtension>
        </extensions>
      </trkpt>
      <trkpt lat="43.18566" lon="6.14406">
        <ele>280.60000610352</ele>
        <time>2023-05-24T09:10:15.000Z</time>
        <extensions>
          <gpxtpx:TrackPointExtension xmlns:gpxtpx="http://www.garmin.com/xmlschemas/TrackPointExtension/v1">
            <gpxtpx:hr>112</gpxtpx:hr>
          </gpxtpx:TrackPointExtension>
        </extensions>
      </trkpt>
      <trkpt lat="43.18566" lon="6.14399">
        <ele>280.60000610352</ele>
        <time>2023-05-24T09:10:16.000Z</time>
        <extensions>
          <gpxtpx:TrackPointExtension xmlns:gpxtpx="http://www.garmin.com/xmlschemas/TrackPointExtension/v1">
            <gpxtpx:hr>112</gpxtpx:hr>
          </gpxtpx:TrackPointExtension>
        </extensions>
      </trkpt>
      <trkpt lat="43.18563" lon="6.14386">
        <ele>280</ele>
        <time>2023-05-24T09:10:18.000Z</time>
        <extensions>
          <gpxtpx:TrackPointExtension xmlns:gpxtpx="http://www.garmin.com/xmlschemas/TrackPointExtension/v1">
            <gpxtpx:hr>114</gpxtpx:hr>
          </gpxtpx:TrackPointExtension>
        </extensions>
      </trkpt>
      <trkpt lat="43.18558" lon="6.14367">
        <ele>278.79998779297</ele>
        <time>2023-05-24T09:10:21.000Z</time>
        <extensions>
          <gpxtpx:TrackPointExtension xmlns:gpxtpx="http://www.garmin.com/xmlschemas/TrackPointExtension/v1">
            <gpxtpx:hr>114</gpxtpx:hr>
          </gpxtpx:TrackPointExtension>
        </extensions>
      </trkpt>
      <trkpt lat="43.18548" lon="6.14336">
        <ele>276.60000610352</ele>
        <time>2023-05-24T09:10:25.000Z</time>
        <extensions>
          <gpxtpx:TrackPointExtension xmlns:gpxtpx="http://www.garmin.com/xmlschemas/TrackPointExtension/v1">
            <gpxtpx:hr>113</gpxtpx:hr>
          </gpxtpx:TrackPointExtension>
        </extensions>
      </trkpt>
      <trkpt lat="43.18544" lon="6.14323">
        <ele>275.39999389648</ele>
        <time>2023-05-24T09:10:27.000Z</time>
        <extensions>
          <gpxtpx:TrackPointExtension xmlns:gpxtpx="http://www.garmin.com/xmlschemas/TrackPointExtension/v1">
            <gpxtpx:hr>111</gpxtpx:hr>
          </gpxtpx:TrackPointExtension>
        </extensions>
      </trkpt>
      <trkpt lat="43.18543" lon="6.14315">
        <ele>274.60000610352</ele>
        <time>2023-05-24T09:10:29.000Z</time>
        <extensions>
          <gpxtpx:TrackPointExtension xmlns:gpxtpx="http://www.garmin.com/xmlschemas/TrackPointExtension/v1">
            <gpxtpx:hr>111</gpxtpx:hr>
          </gpxtpx:TrackPointExtension>
        </extensions>
      </trkpt>
      <trkpt lat="43.18545" lon="6.14311">
        <ele>274.79998779297</ele>
        <time>2023-05-24T09:10:31.000Z</time>
        <extensions>
          <gpxtpx:TrackPointExtension xmlns:gpxtpx="http://www.garmin.com/xmlschemas/TrackPointExtension/v1">
            <gpxtpx:hr>111</gpxtpx:hr>
          </gpxtpx:TrackPointExtension>
        </extensions>
      </trkpt>
      <trkpt lat="43.18548" lon="6.14311">
        <ele>275.20001220703</ele>
        <time>2023-05-24T09:10:33.000Z</time>
        <extensions>
          <gpxtpx:TrackPointExtension xmlns:gpxtpx="http://www.garmin.com/xmlschemas/TrackPointExtension/v1">
            <gpxtpx:hr>111</gpxtpx:hr>
          </gpxtpx:TrackPointExtension>
        </extensions>
      </trkpt>
      <trkpt lat="43.18556" lon="6.14316">
        <ele>276</ele>
        <time>2023-05-24T09:10:37.000Z</time>
        <extensions>
          <gpxtpx:TrackPointExtension xmlns:gpxtpx="http://www.garmin.com/xmlschemas/TrackPointExtension/v1">
            <gpxtpx:hr>110</gpxtpx:hr>
          </gpxtpx:TrackPointExtension>
        </extensions>
      </trkpt>
      <trkpt lat="43.18558" lon="6.14317">
        <ele>276.39999389648</ele>
        <time>2023-05-24T09:10:38.000Z</time>
        <extensions>
          <gpxtpx:TrackPointExtension xmlns:gpxtpx="http://www.garmin.com/xmlschemas/TrackPointExtension/v1">
            <gpxtpx:hr>110</gpxtpx:hr>
          </gpxtpx:TrackPointExtension>
        </extensions>
      </trkpt>
      <trkpt lat="43.18567" lon="6.14315">
        <ele>276.79998779297</ele>
        <time>2023-05-24T09:10:41.000Z</time>
        <extensions>
          <gpxtpx:TrackPointExtension xmlns:gpxtpx="http://www.garmin.com/xmlschemas/TrackPointExtension/v1">
            <gpxtpx:hr>109</gpxtpx:hr>
          </gpxtpx:TrackPointExtension>
        </extensions>
      </trkpt>
      <trkpt lat="43.18571" lon="6.14317">
        <ele>277</ele>
        <time>2023-05-24T09:10:43.000Z</time>
        <extensions>
          <gpxtpx:TrackPointExtension xmlns:gpxtpx="http://www.garmin.com/xmlschemas/TrackPointExtension/v1">
            <gpxtpx:hr>107</gpxtpx:hr>
          </gpxtpx:TrackPointExtension>
        </extensions>
      </trkpt>
      <trkpt lat="43.18574" lon="6.14319">
        <ele>277.39999389648</ele>
        <time>2023-05-24T09:10:45.000Z</time>
        <extensions>
          <gpxtpx:TrackPointExtension xmlns:gpxtpx="http://www.garmin.com/xmlschemas/TrackPointExtension/v1">
            <gpxtpx:hr>106</gpxtpx:hr>
          </gpxtpx:TrackPointExtension>
        </extensions>
      </trkpt>
      <trkpt lat="43.18582" lon="6.14324">
        <ele>277.39999389648</ele>
        <time>2023-05-24T09:10:51.000Z</time>
        <extensions>
          <gpxtpx:TrackPointExtension xmlns:gpxtpx="http://www.garmin.com/xmlschemas/TrackPointExtension/v1">
            <gpxtpx:hr>105</gpxtpx:hr>
          </gpxtpx:TrackPointExtension>
        </extensions>
      </trkpt>
      <trkpt lat="43.18589" lon="6.14327">
        <ele>277.39999389648</ele>
        <time>2023-05-24T09:10:56.000Z</time>
        <extensions>
          <gpxtpx:TrackPointExtension xmlns:gpxtpx="http://www.garmin.com/xmlschemas/TrackPointExtension/v1">
            <gpxtpx:hr>106</gpxtpx:hr>
          </gpxtpx:TrackPointExtension>
        </extensions>
      </trkpt>
      <trkpt lat="43.18589" lon="6.14327">
        <ele>277.39999389648</ele>
        <time>2023-05-24T09:11:05.000Z</time>
        <extensions>
          <gpxtpx:TrackPointExtension xmlns:gpxtpx="http://www.garmin.com/xmlschemas/TrackPointExtension/v1">
            <gpxtpx:hr>105</gpxtpx:hr>
          </gpxtpx:TrackPointExtension>
        </extensions>
      </trkpt>
      <trkpt lat="43.18589" lon="6.14328">
        <ele>277.39999389648</ele>
        <time>2023-05-24T09:11:09.000Z</time>
        <extensions>
          <gpxtpx:TrackPointExtension xmlns:gpxtpx="http://www.garmin.com/xmlschemas/TrackPointExtension/v1">
            <gpxtpx:hr>107</gpxtpx:hr>
          </gpxtpx:TrackPointExtension>
        </extensions>
      </trkpt>
      <trkpt lat="43.18588" lon="6.14328">
        <ele>277.60000610352</ele>
        <time>2023-05-24T09:11:10.000Z</time>
        <extensions>
          <gpxtpx:TrackPointExtension xmlns:gpxtpx="http://www.garmin.com/xmlschemas/TrackPointExtension/v1">
            <gpxtpx:hr>107</gpxtpx:hr>
          </gpxtpx:TrackPointExtension>
        </extensions>
      </trkpt>
      <trkpt lat="43.18587" lon="6.14329">
        <ele>277.79998779297</ele>
        <time>2023-05-24T09:11:11.000Z</time>
        <extensions>
          <gpxtpx:TrackPointExtension xmlns:gpxtpx="http://www.garmin.com/xmlschemas/TrackPointExtension/v1">
            <gpxtpx:hr>107</gpxtpx:hr>
          </gpxtpx:TrackPointExtension>
        </extensions>
      </trkpt>
      <trkpt lat="43.18583" lon="6.14338">
        <ele>278.79998779297</ele>
        <time>2023-05-24T09:11:15.000Z</time>
        <extensions>
          <gpxtpx:TrackPointExtension xmlns:gpxtpx="http://www.garmin.com/xmlschemas/TrackPointExtension/v1">
            <gpxtpx:hr>110</gpxtpx:hr>
          </gpxtpx:TrackPointExtension>
        </extensions>
      </trkpt>
      <trkpt lat="43.18583" lon="6.14342">
        <ele>279</ele>
        <time>2023-05-24T09:11:16.000Z</time>
        <extensions>
          <gpxtpx:TrackPointExtension xmlns:gpxtpx="http://www.garmin.com/xmlschemas/TrackPointExtension/v1">
            <gpxtpx:hr>111</gpxtpx:hr>
          </gpxtpx:TrackPointExtension>
        </extensions>
      </trkpt>
      <trkpt lat="43.18585" lon="6.1435">
        <ele>279.60000610352</ele>
        <time>2023-05-24T09:11:19.000Z</time>
        <extensions>
          <gpxtpx:TrackPointExtension xmlns:gpxtpx="http://www.garmin.com/xmlschemas/TrackPointExtension/v1">
            <gpxtpx:hr>113</gpxtpx:hr>
          </gpxtpx:TrackPointExtension>
        </extensions>
      </trkpt>
      <trkpt lat="43.18585" lon="6.14352">
        <ele>279.60000610352</ele>
        <time>2023-05-24T09:11:20.000Z</time>
        <extensions>
          <gpxtpx:TrackPointExtension xmlns:gpxtpx="http://www.garmin.com/xmlschemas/TrackPointExtension/v1">
            <gpxtpx:hr>113</gpxtpx:hr>
          </gpxtpx:TrackPointExtension>
        </extensions>
      </trkpt>
      <trkpt lat="43.18588" lon="6.14359">
        <ele>279.79998779297</ele>
        <time>2023-05-24T09:11:23.000Z</time>
        <extensions>
          <gpxtpx:TrackPointExtension xmlns:gpxtpx="http://www.garmin.com/xmlschemas/TrackPointExtension/v1">
            <gpxtpx:hr>118</gpxtpx:hr>
          </gpxtpx:TrackPointExtension>
        </extensions>
      </trkpt>
      <trkpt lat="43.18589" lon="6.14362">
        <ele>279.79998779297</ele>
        <time>2023-05-24T09:11:24.000Z</time>
        <extensions>
          <gpxtpx:TrackPointExtension xmlns:gpxtpx="http://www.garmin.com/xmlschemas/TrackPointExtension/v1">
            <gpxtpx:hr>115</gpxtpx:hr>
          </gpxtpx:TrackPointExtension>
        </extensions>
      </trkpt>
      <trkpt lat="43.18593" lon="6.14373">
        <ele>280.20001220703</ele>
        <time>2023-05-24T09:11:27.000Z</time>
        <extensions>
          <gpxtpx:TrackPointExtension xmlns:gpxtpx="http://www.garmin.com/xmlschemas/TrackPointExtension/v1">
            <gpxtpx:hr>118</gpxtpx:hr>
          </gpxtpx:TrackPointExtension>
        </extensions>
      </trkpt>
      <trkpt lat="43.18594" lon="6.14377">
        <ele>280.20001220703</ele>
        <time>2023-05-24T09:11:28.000Z</time>
        <extensions>
          <gpxtpx:TrackPointExtension xmlns:gpxtpx="http://www.garmin.com/xmlschemas/TrackPointExtension/v1">
            <gpxtpx:hr>119</gpxtpx:hr>
          </gpxtpx:TrackPointExtension>
        </extensions>
      </trkpt>
      <trkpt lat="43.18596" lon="6.14393">
        <ele>280.79998779297</ele>
        <time>2023-05-24T09:11:33.000Z</time>
        <extensions>
          <gpxtpx:TrackPointExtension xmlns:gpxtpx="http://www.garmin.com/xmlschemas/TrackPointExtension/v1">
            <gpxtpx:hr>119</gpxtpx:hr>
          </gpxtpx:TrackPointExtension>
        </extensions>
      </trkpt>
      <trkpt lat="43.18597" lon="6.14409">
        <ele>281.20001220703</ele>
        <time>2023-05-24T09:11:38.000Z</time>
        <extensions>
          <gpxtpx:TrackPointExtension xmlns:gpxtpx="http://www.garmin.com/xmlschemas/TrackPointExtension/v1">
            <gpxtpx:hr>118</gpxtpx:hr>
          </gpxtpx:TrackPointExtension>
        </extensions>
      </trkpt>
      <trkpt lat="43.18604" lon="6.14442">
        <ele>281.20001220703</ele>
        <time>2023-05-24T09:11:45.000Z</time>
        <extensions>
          <gpxtpx:TrackPointExtension xmlns:gpxtpx="http://www.garmin.com/xmlschemas/TrackPointExtension/v1">
            <gpxtpx:hr>120</gpxtpx:hr>
          </gpxtpx:TrackPointExtension>
        </extensions>
      </trkpt>
      <trkpt lat="43.18607" lon="6.14455">
        <ele>281.20001220703</ele>
        <time>2023-05-24T09:11:48.000Z</time>
        <extensions>
          <gpxtpx:TrackPointExtension xmlns:gpxtpx="http://www.garmin.com/xmlschemas/TrackPointExtension/v1">
            <gpxtpx:hr>125</gpxtpx:hr>
          </gpxtpx:TrackPointExtension>
        </extensions>
      </trkpt>
      <trkpt lat="43.18607" lon="6.14459">
        <ele>281.39999389648</ele>
        <time>2023-05-24T09:11:49.000Z</time>
        <extensions>
          <gpxtpx:TrackPointExtension xmlns:gpxtpx="http://www.garmin.com/xmlschemas/TrackPointExtension/v1">
            <gpxtpx:hr>125</gpxtpx:hr>
          </gpxtpx:TrackPointExtension>
        </extensions>
      </trkpt>
      <trkpt lat="43.18609" lon="6.14467">
        <ele>282</ele>
        <time>2023-05-24T09:11:51.000Z</time>
        <extensions>
          <gpxtpx:TrackPointExtension xmlns:gpxtpx="http://www.garmin.com/xmlschemas/TrackPointExtension/v1">
            <gpxtpx:hr>124</gpxtpx:hr>
          </gpxtpx:TrackPointExtension>
        </extensions>
      </trkpt>
      <trkpt lat="43.18617" lon="6.14489">
        <ele>283.20001220703</ele>
        <time>2023-05-24T09:11:57.000Z</time>
        <extensions>
          <gpxtpx:TrackPointExtension xmlns:gpxtpx="http://www.garmin.com/xmlschemas/TrackPointExtension/v1">
            <gpxtpx:hr>127</gpxtpx:hr>
          </gpxtpx:TrackPointExtension>
        </extensions>
      </trkpt>
      <trkpt lat="43.18618" lon="6.14493">
        <ele>283.60000610352</ele>
        <time>2023-05-24T09:11:58.000Z</time>
        <extensions>
          <gpxtpx:TrackPointExtension xmlns:gpxtpx="http://www.garmin.com/xmlschemas/TrackPointExtension/v1">
            <gpxtpx:hr>132</gpxtpx:hr>
          </gpxtpx:TrackPointExtension>
        </extensions>
      </trkpt>
      <trkpt lat="43.1862" lon="6.14497">
        <ele>284.20001220703</ele>
        <time>2023-05-24T09:11:59.000Z</time>
        <extensions>
          <gpxtpx:TrackPointExtension xmlns:gpxtpx="http://www.garmin.com/xmlschemas/TrackPointExtension/v1">
            <gpxtpx:hr>131</gpxtpx:hr>
          </gpxtpx:TrackPointExtension>
        </extensions>
      </trkpt>
      <trkpt lat="43.18622" lon="6.14508">
        <ele>285.60000610352</ele>
        <time>2023-05-24T09:12:02.000Z</time>
        <extensions>
          <gpxtpx:TrackPointExtension xmlns:gpxtpx="http://www.garmin.com/xmlschemas/TrackPointExtension/v1">
            <gpxtpx:hr>128</gpxtpx:hr>
          </gpxtpx:TrackPointExtension>
        </extensions>
      </trkpt>
      <trkpt lat="43.18624" lon="6.14512">
        <ele>286.20001220703</ele>
        <time>2023-05-24T09:12:03.000Z</time>
        <extensions>
          <gpxtpx:TrackPointExtension xmlns:gpxtpx="http://www.garmin.com/xmlschemas/TrackPointExtension/v1">
            <gpxtpx:hr>128</gpxtpx:hr>
          </gpxtpx:TrackPointExtension>
        </extensions>
      </trkpt>
      <trkpt lat="43.18632" lon="6.14537">
        <ele>288.39999389648</ele>
        <time>2023-05-24T09:12:09.000Z</time>
        <extensions>
          <gpxtpx:TrackPointExtension xmlns:gpxtpx="http://www.garmin.com/xmlschemas/TrackPointExtension/v1">
            <gpxtpx:hr>127</gpxtpx:hr>
          </gpxtpx:TrackPointExtension>
        </extensions>
      </trkpt>
      <trkpt lat="43.18641" lon="6.14567">
        <ele>287.20001220703</ele>
        <time>2023-05-24T09:12:16.000Z</time>
        <extensions>
          <gpxtpx:TrackPointExtension xmlns:gpxtpx="http://www.garmin.com/xmlschemas/TrackPointExtension/v1">
            <gpxtpx:hr>127</gpxtpx:hr>
          </gpxtpx:TrackPointExtension>
        </extensions>
      </trkpt>
      <trkpt lat="43.18643" lon="6.14572">
        <ele>286.60000610352</ele>
        <time>2023-05-24T09:12:17.000Z</time>
        <extensions>
          <gpxtpx:TrackPointExtension xmlns:gpxtpx="http://www.garmin.com/xmlschemas/TrackPointExtension/v1">
            <gpxtpx:hr>126</gpxtpx:hr>
          </gpxtpx:TrackPointExtension>
        </extensions>
      </trkpt>
      <trkpt lat="43.18648" lon="6.1459">
        <ele>285.39999389648</ele>
        <time>2023-05-24T09:12:20.000Z</time>
        <extensions>
          <gpxtpx:TrackPointExtension xmlns:gpxtpx="http://www.garmin.com/xmlschemas/TrackPointExtension/v1">
            <gpxtpx:hr>125</gpxtpx:hr>
          </gpxtpx:TrackPointExtension>
        </extensions>
      </trkpt>
      <trkpt lat="43.18657" lon="6.14616">
        <ele>284.60000610352</ele>
        <time>2023-05-24T09:12:25.000Z</time>
        <extensions>
          <gpxtpx:TrackPointExtension xmlns:gpxtpx="http://www.garmin.com/xmlschemas/TrackPointExtension/v1">
            <gpxtpx:hr>124</gpxtpx:hr>
          </gpxtpx:TrackPointExtension>
        </extensions>
      </trkpt>
      <trkpt lat="43.18669" lon="6.14642">
        <ele>283.39999389648</ele>
        <time>2023-05-24T09:12:29.000Z</time>
        <extensions>
          <gpxtpx:TrackPointExtension xmlns:gpxtpx="http://www.garmin.com/xmlschemas/TrackPointExtension/v1">
            <gpxtpx:hr>124</gpxtpx:hr>
          </gpxtpx:TrackPointExtension>
        </extensions>
      </trkpt>
      <trkpt lat="43.18683" lon="6.1468">
        <ele>283.39999389648</ele>
        <time>2023-05-24T09:12:35.000Z</time>
        <extensions>
          <gpxtpx:TrackPointExtension xmlns:gpxtpx="http://www.garmin.com/xmlschemas/TrackPointExtension/v1">
            <gpxtpx:hr>123</gpxtpx:hr>
          </gpxtpx:TrackPointExtension>
        </extensions>
      </trkpt>
      <trkpt lat="43.18691" lon="6.14708">
        <ele>284.60000610352</ele>
        <time>2023-05-24T09:12:40.000Z</time>
        <extensions>
          <gpxtpx:TrackPointExtension xmlns:gpxtpx="http://www.garmin.com/xmlschemas/TrackPointExtension/v1">
            <gpxtpx:hr>122</gpxtpx:hr>
          </gpxtpx:TrackPointExtension>
        </extensions>
      </trkpt>
      <trkpt lat="43.18696" lon="6.14725">
        <ele>284.79998779297</ele>
        <time>2023-05-24T09:12:44.000Z</time>
        <extensions>
          <gpxtpx:TrackPointExtension xmlns:gpxtpx="http://www.garmin.com/xmlschemas/TrackPointExtension/v1">
            <gpxtpx:hr>119</gpxtpx:hr>
          </gpxtpx:TrackPointExtension>
        </extensions>
      </trkpt>
      <trkpt lat="43.18697" lon="6.14731">
        <ele>284.79998779297</ele>
        <time>2023-05-24T09:12:45.000Z</time>
        <extensions>
          <gpxtpx:TrackPointExtension xmlns:gpxtpx="http://www.garmin.com/xmlschemas/TrackPointExtension/v1">
            <gpxtpx:hr>118</gpxtpx:hr>
          </gpxtpx:TrackPointExtension>
        </extensions>
      </trkpt>
      <trkpt lat="43.187" lon="6.14745">
        <ele>285</ele>
        <time>2023-05-24T09:12:47.000Z</time>
        <extensions>
          <gpxtpx:TrackPointExtension xmlns:gpxtpx="http://www.garmin.com/xmlschemas/TrackPointExtension/v1">
            <gpxtpx:hr>116</gpxtpx:hr>
          </gpxtpx:TrackPointExtension>
        </extensions>
      </trkpt>
      <trkpt lat="43.187" lon="6.14758">
        <ele>284.79998779297</ele>
        <time>2023-05-24T09:12:49.000Z</time>
        <extensions>
          <gpxtpx:TrackPointExtension xmlns:gpxtpx="http://www.garmin.com/xmlschemas/TrackPointExtension/v1">
            <gpxtpx:hr>116</gpxtpx:hr>
          </gpxtpx:TrackPointExtension>
        </extensions>
      </trkpt>
      <trkpt lat="43.187" lon="6.14764">
        <ele>284.60000610352</ele>
        <time>2023-05-24T09:12:50.000Z</time>
        <extensions>
          <gpxtpx:TrackPointExtension xmlns:gpxtpx="http://www.garmin.com/xmlschemas/TrackPointExtension/v1">
            <gpxtpx:hr>121</gpxtpx:hr>
          </gpxtpx:TrackPointExtension>
        </extensions>
      </trkpt>
      <trkpt lat="43.18705" lon="6.14791">
        <ele>284.20001220703</ele>
        <time>2023-05-24T09:12:55.000Z</time>
        <extensions>
          <gpxtpx:TrackPointExtension xmlns:gpxtpx="http://www.garmin.com/xmlschemas/TrackPointExtension/v1">
            <gpxtpx:hr>120</gpxtpx:hr>
          </gpxtpx:TrackPointExtension>
        </extensions>
      </trkpt>
      <trkpt lat="43.18714" lon="6.14806">
        <ele>283.60000610352</ele>
        <time>2023-05-24T09:12:59.000Z</time>
        <extensions>
          <gpxtpx:TrackPointExtension xmlns:gpxtpx="http://www.garmin.com/xmlschemas/TrackPointExtension/v1">
            <gpxtpx:hr>117</gpxtpx:hr>
          </gpxtpx:TrackPointExtension>
        </extensions>
      </trkpt>
      <trkpt lat="43.18727" lon="6.14814">
        <ele>282.39999389648</ele>
        <time>2023-05-24T09:13:03.000Z</time>
        <extensions>
          <gpxtpx:TrackPointExtension xmlns:gpxtpx="http://www.garmin.com/xmlschemas/TrackPointExtension/v1">
            <gpxtpx:hr>115</gpxtpx:hr>
          </gpxtpx:TrackPointExtension>
        </extensions>
      </trkpt>
      <trkpt lat="43.18735" lon="6.1482">
        <ele>281.60000610352</ele>
        <time>2023-05-24T09:13:05.000Z</time>
        <extensions>
          <gpxtpx:TrackPointExtension xmlns:gpxtpx="http://www.garmin.com/xmlschemas/TrackPointExtension/v1">
            <gpxtpx:hr>113</gpxtpx:hr>
          </gpxtpx:TrackPointExtension>
        </extensions>
      </trkpt>
      <trkpt lat="43.18746" lon="6.14826">
        <ele>280.39999389648</ele>
        <time>2023-05-24T09:13:07.000Z</time>
        <extensions>
          <gpxtpx:TrackPointExtension xmlns:gpxtpx="http://www.garmin.com/xmlschemas/TrackPointExtension/v1">
            <gpxtpx:hr>112</gpxtpx:hr>
          </gpxtpx:TrackPointExtension>
        </extensions>
      </trkpt>
      <trkpt lat="43.18777" lon="6.14849">
        <ele>278</ele>
        <time>2023-05-24T09:13:13.000Z</time>
        <extensions>
          <gpxtpx:TrackPointExtension xmlns:gpxtpx="http://www.garmin.com/xmlschemas/TrackPointExtension/v1">
            <gpxtpx:hr>112</gpxtpx:hr>
          </gpxtpx:TrackPointExtension>
        </extensions>
      </trkpt>
      <trkpt lat="43.18792" lon="6.1486">
        <ele>276.79998779297</ele>
        <time>2023-05-24T09:13:16.000Z</time>
        <extensions>
          <gpxtpx:TrackPointExtension xmlns:gpxtpx="http://www.garmin.com/xmlschemas/TrackPointExtension/v1">
            <gpxtpx:hr>111</gpxtpx:hr>
          </gpxtpx:TrackPointExtension>
        </extensions>
      </trkpt>
      <trkpt lat="43.18799" lon="6.14867">
        <ele>276.20001220703</ele>
        <time>2023-05-24T09:13:18.000Z</time>
        <extensions>
          <gpxtpx:TrackPointExtension xmlns:gpxtpx="http://www.garmin.com/xmlschemas/TrackPointExtension/v1">
            <gpxtpx:hr>110</gpxtpx:hr>
          </gpxtpx:TrackPointExtension>
        </extensions>
      </trkpt>
      <trkpt lat="43.18802" lon="6.14871">
        <ele>275.79998779297</ele>
        <time>2023-05-24T09:13:19.000Z</time>
        <extensions>
          <gpxtpx:TrackPointExtension xmlns:gpxtpx="http://www.garmin.com/xmlschemas/TrackPointExtension/v1">
            <gpxtpx:hr>109</gpxtpx:hr>
          </gpxtpx:TrackPointExtension>
        </extensions>
      </trkpt>
      <trkpt lat="43.18806" lon="6.14882">
        <ele>275.39999389648</ele>
        <time>2023-05-24T09:13:21.000Z</time>
        <extensions>
          <gpxtpx:TrackPointExtension xmlns:gpxtpx="http://www.garmin.com/xmlschemas/TrackPointExtension/v1">
            <gpxtpx:hr>109</gpxtpx:hr>
          </gpxtpx:TrackPointExtension>
        </extensions>
      </trkpt>
      <trkpt lat="43.18808" lon="6.14895">
        <ele>275.20001220703</ele>
        <time>2023-05-24T09:13:23.000Z</time>
        <extensions>
          <gpxtpx:TrackPointExtension xmlns:gpxtpx="http://www.garmin.com/xmlschemas/TrackPointExtension/v1">
            <gpxtpx:hr>110</gpxtpx:hr>
          </gpxtpx:TrackPointExtension>
        </extensions>
      </trkpt>
      <trkpt lat="43.1881" lon="6.14921">
        <ele>275.79998779297</ele>
        <time>2023-05-24T09:13:27.000Z</time>
        <extensions>
          <gpxtpx:TrackPointExtension xmlns:gpxtpx="http://www.garmin.com/xmlschemas/TrackPointExtension/v1">
            <gpxtpx:hr>111</gpxtpx:hr>
          </gpxtpx:TrackPointExtension>
        </extensions>
      </trkpt>
      <trkpt lat="43.18817" lon="6.14947">
        <ele>275.60000610352</ele>
        <time>2023-05-24T09:13:32.000Z</time>
        <extensions>
          <gpxtpx:TrackPointExtension xmlns:gpxtpx="http://www.garmin.com/xmlschemas/TrackPointExtension/v1">
            <gpxtpx:hr>111</gpxtpx:hr>
          </gpxtpx:TrackPointExtension>
        </extensions>
      </trkpt>
      <trkpt lat="43.18824" lon="6.14969">
        <ele>275.79998779297</ele>
        <time>2023-05-24T09:13:36.000Z</time>
        <extensions>
          <gpxtpx:TrackPointExtension xmlns:gpxtpx="http://www.garmin.com/xmlschemas/TrackPointExtension/v1">
            <gpxtpx:hr>111</gpxtpx:hr>
          </gpxtpx:TrackPointExtension>
        </extensions>
      </trkpt>
      <trkpt lat="43.18827" lon="6.14981">
        <ele>276.39999389648</ele>
        <time>2023-05-24T09:13:38.000Z</time>
        <extensions>
          <gpxtpx:TrackPointExtension xmlns:gpxtpx="http://www.garmin.com/xmlschemas/TrackPointExtension/v1">
            <gpxtpx:hr>111</gpxtpx:hr>
          </gpxtpx:TrackPointExtension>
        </extensions>
      </trkpt>
      <trkpt lat="43.18833" lon="6.15015">
        <ele>278.79998779297</ele>
        <time>2023-05-24T09:13:44.000Z</time>
        <extensions>
          <gpxtpx:TrackPointExtension xmlns:gpxtpx="http://www.garmin.com/xmlschemas/TrackPointExtension/v1">
            <gpxtpx:hr>114</gpxtpx:hr>
          </gpxtpx:TrackPointExtension>
        </extensions>
      </trkpt>
      <trkpt lat="43.18834" lon="6.1502">
        <ele>279.20001220703</ele>
        <time>2023-05-24T09:13:45.000Z</time>
        <extensions>
          <gpxtpx:TrackPointExtension xmlns:gpxtpx="http://www.garmin.com/xmlschemas/TrackPointExtension/v1">
            <gpxtpx:hr>114</gpxtpx:hr>
          </gpxtpx:TrackPointExtension>
        </extensions>
      </trkpt>
      <trkpt lat="43.18841" lon="6.15046">
        <ele>280.20001220703</ele>
        <time>2023-05-24T09:13:50.000Z</time>
        <extensions>
          <gpxtpx:TrackPointExtension xmlns:gpxtpx="http://www.garmin.com/xmlschemas/TrackPointExtension/v1">
            <gpxtpx:hr>116</gpxtpx:hr>
          </gpxtpx:TrackPointExtension>
        </extensions>
      </trkpt>
      <trkpt lat="43.18852" lon="6.1507">
        <ele>280.79998779297</ele>
        <time>2023-05-24T09:13:56.000Z</time>
        <extensions>
          <gpxtpx:TrackPointExtension xmlns:gpxtpx="http://www.garmin.com/xmlschemas/TrackPointExtension/v1">
            <gpxtpx:hr>118</gpxtpx:hr>
          </gpxtpx:TrackPointExtension>
        </extensions>
      </trkpt>
      <trkpt lat="43.18863" lon="6.15092">
        <ele>279</ele>
        <time>2023-05-24T09:14:01.000Z</time>
        <extensions>
          <gpxtpx:TrackPointExtension xmlns:gpxtpx="http://www.garmin.com/xmlschemas/TrackPointExtension/v1">
            <gpxtpx:hr>118</gpxtpx:hr>
          </gpxtpx:TrackPointExtension>
        </extensions>
      </trkpt>
      <trkpt lat="43.18874" lon="6.1512">
        <ele>279.20001220703</ele>
        <time>2023-05-24T09:14:06.000Z</time>
        <extensions>
          <gpxtpx:TrackPointExtension xmlns:gpxtpx="http://www.garmin.com/xmlschemas/TrackPointExtension/v1">
            <gpxtpx:hr>119</gpxtpx:hr>
          </gpxtpx:TrackPointExtension>
        </extensions>
      </trkpt>
      <trkpt lat="43.18879" lon="6.1513">
        <ele>279.20001220703</ele>
        <time>2023-05-24T09:14:08.000Z</time>
        <extensions>
          <gpxtpx:TrackPointExtension xmlns:gpxtpx="http://www.garmin.com/xmlschemas/TrackPointExtension/v1">
            <gpxtpx:hr>118</gpxtpx:hr>
          </gpxtpx:TrackPointExtension>
        </extensions>
      </trkpt>
      <trkpt lat="43.18882" lon="6.15147">
        <ele>279.20001220703</ele>
        <time>2023-05-24T09:14:11.000Z</time>
        <extensions>
          <gpxtpx:TrackPointExtension xmlns:gpxtpx="http://www.garmin.com/xmlschemas/TrackPointExtension/v1">
            <gpxtpx:hr>118</gpxtpx:hr>
          </gpxtpx:TrackPointExtension>
        </extensions>
      </trkpt>
      <trkpt lat="43.18883" lon="6.15154">
        <ele>279.20001220703</ele>
        <time>2023-05-24T09:14:12.000Z</time>
        <extensions>
          <gpxtpx:TrackPointExtension xmlns:gpxtpx="http://www.garmin.com/xmlschemas/TrackPointExtension/v1">
            <gpxtpx:hr>118</gpxtpx:hr>
          </gpxtpx:TrackPointExtension>
        </extensions>
      </trkpt>
      <trkpt lat="43.18885" lon="6.15166">
        <ele>279.39999389648</ele>
        <time>2023-05-24T09:14:14.000Z</time>
        <extensions>
          <gpxtpx:TrackPointExtension xmlns:gpxtpx="http://www.garmin.com/xmlschemas/TrackPointExtension/v1">
            <gpxtpx:hr>117</gpxtpx:hr>
          </gpxtpx:TrackPointExtension>
        </extensions>
      </trkpt>
      <trkpt lat="43.18891" lon="6.15183">
        <ele>279.39999389648</ele>
        <time>2023-05-24T09:14:17.000Z</time>
        <extensions>
          <gpxtpx:TrackPointExtension xmlns:gpxtpx="http://www.garmin.com/xmlschemas/TrackPointExtension/v1">
            <gpxtpx:hr>116</gpxtpx:hr>
          </gpxtpx:TrackPointExtension>
        </extensions>
      </trkpt>
      <trkpt lat="43.18898" lon="6.15205">
        <ele>277.20001220703</ele>
        <time>2023-05-24T09:14:21.000Z</time>
        <extensions>
          <gpxtpx:TrackPointExtension xmlns:gpxtpx="http://www.garmin.com/xmlschemas/TrackPointExtension/v1">
            <gpxtpx:hr>114</gpxtpx:hr>
          </gpxtpx:TrackPointExtension>
        </extensions>
      </trkpt>
      <trkpt lat="43.18899" lon="6.15212">
        <ele>276.60000610352</ele>
        <time>2023-05-24T09:14:22.000Z</time>
        <extensions>
          <gpxtpx:TrackPointExtension xmlns:gpxtpx="http://www.garmin.com/xmlschemas/TrackPointExtension/v1">
            <gpxtpx:hr>113</gpxtpx:hr>
          </gpxtpx:TrackPointExtension>
        </extensions>
      </trkpt>
      <trkpt lat="43.18899" lon="6.1522">
        <ele>276.60000610352</ele>
        <time>2023-05-24T09:14:23.000Z</time>
        <extensions>
          <gpxtpx:TrackPointExtension xmlns:gpxtpx="http://www.garmin.com/xmlschemas/TrackPointExtension/v1">
            <gpxtpx:hr>112</gpxtpx:hr>
          </gpxtpx:TrackPointExtension>
        </extensions>
      </trkpt>
      <trkpt lat="43.18899" lon="6.15249">
        <ele>277.20001220703</ele>
        <time>2023-05-24T09:14:27.000Z</time>
        <extensions>
          <gpxtpx:TrackPointExtension xmlns:gpxtpx="http://www.garmin.com/xmlschemas/TrackPointExtension/v1">
            <gpxtpx:hr>110</gpxtpx:hr>
          </gpxtpx:TrackPointExtension>
        </extensions>
      </trkpt>
      <trkpt lat="43.189" lon="6.15263">
        <ele>278.20001220703</ele>
        <time>2023-05-24T09:14:29.000Z</time>
        <extensions>
          <gpxtpx:TrackPointExtension xmlns:gpxtpx="http://www.garmin.com/xmlschemas/TrackPointExtension/v1">
            <gpxtpx:hr>109</gpxtpx:hr>
          </gpxtpx:TrackPointExtension>
        </extensions>
      </trkpt>
      <trkpt lat="43.18903" lon="6.15276">
        <ele>278</ele>
        <time>2023-05-24T09:14:31.000Z</time>
        <extensions>
          <gpxtpx:TrackPointExtension xmlns:gpxtpx="http://www.garmin.com/xmlschemas/TrackPointExtension/v1">
            <gpxtpx:hr>109</gpxtpx:hr>
          </gpxtpx:TrackPointExtension>
        </extensions>
      </trkpt>
      <trkpt lat="43.18907" lon="6.15287">
        <ele>278.39999389648</ele>
        <time>2023-05-24T09:14:33.000Z</time>
        <extensions>
          <gpxtpx:TrackPointExtension xmlns:gpxtpx="http://www.garmin.com/xmlschemas/TrackPointExtension/v1">
            <gpxtpx:hr>110</gpxtpx:hr>
          </gpxtpx:TrackPointExtension>
        </extensions>
      </trkpt>
      <trkpt lat="43.18912" lon="6.15298">
        <ele>278.39999389648</ele>
        <time>2023-05-24T09:14:36.000Z</time>
        <extensions>
          <gpxtpx:TrackPointExtension xmlns:gpxtpx="http://www.garmin.com/xmlschemas/TrackPointExtension/v1">
            <gpxtpx:hr>111</gpxtpx:hr>
          </gpxtpx:TrackPointExtension>
        </extensions>
      </trkpt>
      <trkpt lat="43.18923" lon="6.15317">
        <ele>277.60000610352</ele>
        <time>2023-05-24T09:14:41.000Z</time>
        <extensions>
          <gpxtpx:TrackPointExtension xmlns:gpxtpx="http://www.garmin.com/xmlschemas/TrackPointExtension/v1">
            <gpxtpx:hr>110</gpxtpx:hr>
          </gpxtpx:TrackPointExtension>
        </extensions>
      </trkpt>
      <trkpt lat="43.18934" lon="6.15344">
        <ele>277</ele>
        <time>2023-05-24T09:14:47.000Z</time>
        <extensions>
          <gpxtpx:TrackPointExtension xmlns:gpxtpx="http://www.garmin.com/xmlschemas/TrackPointExtension/v1">
            <gpxtpx:hr>110</gpxtpx:hr>
          </gpxtpx:TrackPointExtension>
        </extensions>
      </trkpt>
      <trkpt lat="43.18938" lon="6.15362">
        <ele>277.60000610352</ele>
        <time>2023-05-24T09:14:51.000Z</time>
        <extensions>
          <gpxtpx:TrackPointExtension xmlns:gpxtpx="http://www.garmin.com/xmlschemas/TrackPointExtension/v1">
            <gpxtpx:hr>109</gpxtpx:hr>
          </gpxtpx:TrackPointExtension>
        </extensions>
      </trkpt>
      <trkpt lat="43.18951" lon="6.15379">
        <ele>277.79998779297</ele>
        <time>2023-05-24T09:14:55.000Z</time>
        <extensions>
          <gpxtpx:TrackPointExtension xmlns:gpxtpx="http://www.garmin.com/xmlschemas/TrackPointExtension/v1">
            <gpxtpx:hr>107</gpxtpx:hr>
          </gpxtpx:TrackPointExtension>
        </extensions>
      </trkpt>
      <trkpt lat="43.18964" lon="6.15393">
        <ele>278</ele>
        <time>2023-05-24T09:14:58.000Z</time>
        <extensions>
          <gpxtpx:TrackPointExtension xmlns:gpxtpx="http://www.garmin.com/xmlschemas/TrackPointExtension/v1">
            <gpxtpx:hr>108</gpxtpx:hr>
          </gpxtpx:TrackPointExtension>
        </extensions>
      </trkpt>
      <trkpt lat="43.18971" lon="6.15401">
        <ele>278</ele>
        <time>2023-05-24T09:15:00.000Z</time>
        <extensions>
          <gpxtpx:TrackPointExtension xmlns:gpxtpx="http://www.garmin.com/xmlschemas/TrackPointExtension/v1">
            <gpxtpx:hr>109</gpxtpx:hr>
          </gpxtpx:TrackPointExtension>
        </extensions>
      </trkpt>
      <trkpt lat="43.1899" lon="6.15423">
        <ele>279.39999389648</ele>
        <time>2023-05-24T09:15:06.000Z</time>
        <extensions>
          <gpxtpx:TrackPointExtension xmlns:gpxtpx="http://www.garmin.com/xmlschemas/TrackPointExtension/v1">
            <gpxtpx:hr>109</gpxtpx:hr>
          </gpxtpx:TrackPointExtension>
        </extensions>
      </trkpt>
      <trkpt lat="43.18997" lon="6.15438">
        <ele>280.79998779297</ele>
        <time>2023-05-24T09:15:09.000Z</time>
        <extensions>
          <gpxtpx:TrackPointExtension xmlns:gpxtpx="http://www.garmin.com/xmlschemas/TrackPointExtension/v1">
            <gpxtpx:hr>106</gpxtpx:hr>
          </gpxtpx:TrackPointExtension>
        </extensions>
      </trkpt>
      <trkpt lat="43.18999" lon="6.15445">
        <ele>281.39999389648</ele>
        <time>2023-05-24T09:15:10.000Z</time>
        <extensions>
          <gpxtpx:TrackPointExtension xmlns:gpxtpx="http://www.garmin.com/xmlschemas/TrackPointExtension/v1">
            <gpxtpx:hr>106</gpxtpx:hr>
          </gpxtpx:TrackPointExtension>
        </extensions>
      </trkpt>
      <trkpt lat="43.19006" lon="6.15457">
        <ele>282.39999389648</ele>
        <time>2023-05-24T09:15:13.000Z</time>
        <extensions>
          <gpxtpx:TrackPointExtension xmlns:gpxtpx="http://www.garmin.com/xmlschemas/TrackPointExtension/v1">
            <gpxtpx:hr>106</gpxtpx:hr>
          </gpxtpx:TrackPointExtension>
        </extensions>
      </trkpt>
      <trkpt lat="43.1902" lon="6.15462">
        <ele>281.79998779297</ele>
        <time>2023-05-24T09:15:17.000Z</time>
        <extensions>
          <gpxtpx:TrackPointExtension xmlns:gpxtpx="http://www.garmin.com/xmlschemas/TrackPointExtension/v1">
            <gpxtpx:hr>106</gpxtpx:hr>
          </gpxtpx:TrackPointExtension>
        </extensions>
      </trkpt>
      <trkpt lat="43.19028" lon="6.15461">
        <ele>281</ele>
        <time>2023-05-24T09:15:19.000Z</time>
        <extensions>
          <gpxtpx:TrackPointExtension xmlns:gpxtpx="http://www.garmin.com/xmlschemas/TrackPointExtension/v1">
            <gpxtpx:hr>106</gpxtpx:hr>
          </gpxtpx:TrackPointExtension>
        </extensions>
      </trkpt>
      <trkpt lat="43.19041" lon="6.15464">
        <ele>280.60000610352</ele>
        <time>2023-05-24T09:15:22.000Z</time>
        <extensions>
          <gpxtpx:TrackPointExtension xmlns:gpxtpx="http://www.garmin.com/xmlschemas/TrackPointExtension/v1">
            <gpxtpx:hr>108</gpxtpx:hr>
          </gpxtpx:TrackPointExtension>
        </extensions>
      </trkpt>
      <trkpt lat="43.19065" lon="6.1546">
        <ele>280.20001220703</ele>
        <time>2023-05-24T09:15:28.000Z</time>
        <extensions>
          <gpxtpx:TrackPointExtension xmlns:gpxtpx="http://www.garmin.com/xmlschemas/TrackPointExtension/v1">
            <gpxtpx:hr>110</gpxtpx:hr>
          </gpxtpx:TrackPointExtension>
        </extensions>
      </trkpt>
      <trkpt lat="43.19083" lon="6.15463">
        <ele>281.60000610352</ele>
        <time>2023-05-24T09:15:33.000Z</time>
        <extensions>
          <gpxtpx:TrackPointExtension xmlns:gpxtpx="http://www.garmin.com/xmlschemas/TrackPointExtension/v1">
            <gpxtpx:hr>111</gpxtpx:hr>
          </gpxtpx:TrackPointExtension>
        </extensions>
      </trkpt>
      <trkpt lat="43.191" lon="6.15466">
        <ele>283.60000610352</ele>
        <time>2023-05-24T09:15:38.000Z</time>
        <extensions>
          <gpxtpx:TrackPointExtension xmlns:gpxtpx="http://www.garmin.com/xmlschemas/TrackPointExtension/v1">
            <gpxtpx:hr>114</gpxtpx:hr>
          </gpxtpx:TrackPointExtension>
        </extensions>
      </trkpt>
      <trkpt lat="43.19103" lon="6.15466">
        <ele>283.79998779297</ele>
        <time>2023-05-24T09:15:39.000Z</time>
        <extensions>
          <gpxtpx:TrackPointExtension xmlns:gpxtpx="http://www.garmin.com/xmlschemas/TrackPointExtension/v1">
            <gpxtpx:hr>114</gpxtpx:hr>
          </gpxtpx:TrackPointExtension>
        </extensions>
      </trkpt>
      <trkpt lat="43.19125" lon="6.15469">
        <ele>284.39999389648</ele>
        <time>2023-05-24T09:15:45.000Z</time>
        <extensions>
          <gpxtpx:TrackPointExtension xmlns:gpxtpx="http://www.garmin.com/xmlschemas/TrackPointExtension/v1">
            <gpxtpx:hr>116</gpxtpx:hr>
          </gpxtpx:TrackPointExtension>
        </extensions>
      </trkpt>
      <trkpt lat="43.19145" lon="6.15473">
        <ele>284.79998779297</ele>
        <time>2023-05-24T09:15:51.000Z</time>
        <extensions>
          <gpxtpx:TrackPointExtension xmlns:gpxtpx="http://www.garmin.com/xmlschemas/TrackPointExtension/v1">
            <gpxtpx:hr>119</gpxtpx:hr>
          </gpxtpx:TrackPointExtension>
        </extensions>
      </trkpt>
      <trkpt lat="43.19163" lon="6.15478">
        <ele>285.39999389648</ele>
        <time>2023-05-24T09:15:57.000Z</time>
        <extensions>
          <gpxtpx:TrackPointExtension xmlns:gpxtpx="http://www.garmin.com/xmlschemas/TrackPointExtension/v1">
            <gpxtpx:hr>122</gpxtpx:hr>
          </gpxtpx:TrackPointExtension>
        </extensions>
      </trkpt>
      <trkpt lat="43.19182" lon="6.15478">
        <ele>284.79998779297</ele>
        <time>2023-05-24T09:16:04.000Z</time>
        <extensions>
          <gpxtpx:TrackPointExtension xmlns:gpxtpx="http://www.garmin.com/xmlschemas/TrackPointExtension/v1">
            <gpxtpx:hr>123</gpxtpx:hr>
          </gpxtpx:TrackPointExtension>
        </extensions>
      </trkpt>
      <trkpt lat="43.19185" lon="6.15479">
        <ele>284.60000610352</ele>
        <time>2023-05-24T09:16:08.000Z</time>
        <extensions>
          <gpxtpx:TrackPointExtension xmlns:gpxtpx="http://www.garmin.com/xmlschemas/TrackPointExtension/v1">
            <gpxtpx:hr>124</gpxtpx:hr>
          </gpxtpx:TrackPointExtension>
        </extensions>
      </trkpt>
      <trkpt lat="43.19185" lon="6.15479">
        <ele>284.60000610352</ele>
        <time>2023-05-24T09:16:15.000Z</time>
        <extensions>
          <gpxtpx:TrackPointExtension xmlns:gpxtpx="http://www.garmin.com/xmlschemas/TrackPointExtension/v1">
            <gpxtpx:hr>124</gpxtpx:hr>
          </gpxtpx:TrackPointExtension>
        </extensions>
      </trkpt>
      <trkpt lat="43.19185" lon="6.15479">
        <ele>284.60000610352</ele>
        <time>2023-05-24T09:16:24.000Z</time>
        <extensions>
          <gpxtpx:TrackPointExtension xmlns:gpxtpx="http://www.garmin.com/xmlschemas/TrackPointExtension/v1">
            <gpxtpx:hr>125</gpxtpx:hr>
          </gpxtpx:TrackPointExtension>
        </extensions>
      </trkpt>
      <trkpt lat="43.19185" lon="6.15479">
        <ele>284.60000610352</ele>
        <time>2023-05-24T09:16:31.000Z</time>
        <extensions>
          <gpxtpx:TrackPointExtension xmlns:gpxtpx="http://www.garmin.com/xmlschemas/TrackPointExtension/v1">
            <gpxtpx:hr>125</gpxtpx:hr>
          </gpxtpx:TrackPointExtension>
        </extensions>
      </trkpt>
      <trkpt lat="43.19185" lon="6.15479">
        <ele>284.60000610352</ele>
        <time>2023-05-24T09:16:43.000Z</time>
        <extensions>
          <gpxtpx:TrackPointExtension xmlns:gpxtpx="http://www.garmin.com/xmlschemas/TrackPointExtension/v1">
            <gpxtpx:hr>124</gpxtpx:hr>
          </gpxtpx:TrackPointExtension>
        </extensions>
      </trkpt>
      <trkpt lat="43.19191" lon="6.1548">
        <ele>283.79998779297</ele>
        <time>2023-05-24T09:16:47.000Z</time>
        <extensions>
          <gpxtpx:TrackPointExtension xmlns:gpxtpx="http://www.garmin.com/xmlschemas/TrackPointExtension/v1">
            <gpxtpx:hr>124</gpxtpx:hr>
          </gpxtpx:TrackPointExtension>
        </extensions>
      </trkpt>
      <trkpt lat="43.19203" lon="6.15488">
        <ele>283.39999389648</ele>
        <time>2023-05-24T09:16:52.000Z</time>
        <extensions>
          <gpxtpx:TrackPointExtension xmlns:gpxtpx="http://www.garmin.com/xmlschemas/TrackPointExtension/v1">
            <gpxtpx:hr>123</gpxtpx:hr>
          </gpxtpx:TrackPointExtension>
        </extensions>
      </trkpt>
      <trkpt lat="43.1921" lon="6.15507">
        <ele>285.20001220703</ele>
        <time>2023-05-24T09:16:57.000Z</time>
        <extensions>
          <gpxtpx:TrackPointExtension xmlns:gpxtpx="http://www.garmin.com/xmlschemas/TrackPointExtension/v1">
            <gpxtpx:hr>124</gpxtpx:hr>
          </gpxtpx:TrackPointExtension>
        </extensions>
      </trkpt>
      <trkpt lat="43.19212" lon="6.15521">
        <ele>286.39999389648</ele>
        <time>2023-05-24T09:17:02.000Z</time>
        <extensions>
          <gpxtpx:TrackPointExtension xmlns:gpxtpx="http://www.garmin.com/xmlschemas/TrackPointExtension/v1">
            <gpxtpx:hr>123</gpxtpx:hr>
          </gpxtpx:TrackPointExtension>
        </extensions>
      </trkpt>
      <trkpt lat="43.19212" lon="6.15521">
        <ele>286.39999389648</ele>
        <time>2023-05-24T09:17:08.000Z</time>
        <extensions>
          <gpxtpx:TrackPointExtension xmlns:gpxtpx="http://www.garmin.com/xmlschemas/TrackPointExtension/v1">
            <gpxtpx:hr>120</gpxtpx:hr>
          </gpxtpx:TrackPointExtension>
        </extensions>
      </trkpt>
      <trkpt lat="43.19212" lon="6.15521">
        <ele>286.39999389648</ele>
        <time>2023-05-24T09:17:10.000Z</time>
        <extensions>
          <gpxtpx:TrackPointExtension xmlns:gpxtpx="http://www.garmin.com/xmlschemas/TrackPointExtension/v1">
            <gpxtpx:hr>120</gpxtpx:hr>
          </gpxtpx:TrackPointExtension>
        </extensions>
      </trkpt>
      <trkpt lat="43.19212" lon="6.15521">
        <ele>286.39999389648</ele>
        <time>2023-05-24T09:17:17.000Z</time>
        <extensions>
          <gpxtpx:TrackPointExtension xmlns:gpxtpx="http://www.garmin.com/xmlschemas/TrackPointExtension/v1">
            <gpxtpx:hr>118</gpxtpx:hr>
          </gpxtpx:TrackPointExtension>
        </extensions>
      </trkpt>
      <trkpt lat="43.19212" lon="6.15521">
        <ele>286.39999389648</ele>
        <time>2023-05-24T09:17:29.000Z</time>
        <extensions>
          <gpxtpx:TrackPointExtension xmlns:gpxtpx="http://www.garmin.com/xmlschemas/TrackPointExtension/v1">
            <gpxtpx:hr>115</gpxtpx:hr>
          </gpxtpx:TrackPointExtension>
        </extensions>
      </trkpt>
      <trkpt lat="43.19212" lon="6.15521">
        <ele>286.39999389648</ele>
        <time>2023-05-24T09:17:32.000Z</time>
        <extensions>
          <gpxtpx:TrackPointExtension xmlns:gpxtpx="http://www.garmin.com/xmlschemas/TrackPointExtension/v1">
            <gpxtpx:hr>113</gpxtpx:hr>
          </gpxtpx:TrackPointExtension>
        </extensions>
      </trkpt>
      <trkpt lat="43.19212" lon="6.15521">
        <ele>286.39999389648</ele>
        <time>2023-05-24T09:17:38.000Z</time>
        <extensions>
          <gpxtpx:TrackPointExtension xmlns:gpxtpx="http://www.garmin.com/xmlschemas/TrackPointExtension/v1">
            <gpxtpx:hr>110</gpxtpx:hr>
          </gpxtpx:TrackPointExtension>
        </extensions>
      </trkpt>
      <trkpt lat="43.19212" lon="6.15522">
        <ele>286.60000610352</ele>
        <time>2023-05-24T09:17:52.000Z</time>
        <extensions>
          <gpxtpx:TrackPointExtension xmlns:gpxtpx="http://www.garmin.com/xmlschemas/TrackPointExtension/v1">
            <gpxtpx:hr>107</gpxtpx:hr>
          </gpxtpx:TrackPointExtension>
        </extensions>
      </trkpt>
      <trkpt lat="43.19212" lon="6.15522">
        <ele>286.60000610352</ele>
        <time>2023-05-24T09:17:55.000Z</time>
        <extensions>
          <gpxtpx:TrackPointExtension xmlns:gpxtpx="http://www.garmin.com/xmlschemas/TrackPointExtension/v1">
            <gpxtpx:hr>107</gpxtpx:hr>
          </gpxtpx:TrackPointExtension>
        </extensions>
      </trkpt>
      <trkpt lat="43.19212" lon="6.15522">
        <ele>286.60000610352</ele>
        <time>2023-05-24T09:18:08.000Z</time>
        <extensions>
          <gpxtpx:TrackPointExtension xmlns:gpxtpx="http://www.garmin.com/xmlschemas/TrackPointExtension/v1">
            <gpxtpx:hr>105</gpxtpx:hr>
          </gpxtpx:TrackPointExtension>
        </extensions>
      </trkpt>
      <trkpt lat="43.19213" lon="6.15527">
        <ele>286.79998779297</ele>
        <time>2023-05-24T09:18:11.000Z</time>
        <extensions>
          <gpxtpx:TrackPointExtension xmlns:gpxtpx="http://www.garmin.com/xmlschemas/TrackPointExtension/v1">
            <gpxtpx:hr>108</gpxtpx:hr>
          </gpxtpx:TrackPointExtension>
        </extensions>
      </trkpt>
      <trkpt lat="43.19215" lon="6.15534">
        <ele>286.60000610352</ele>
        <time>2023-05-24T09:18:13.000Z</time>
        <extensions>
          <gpxtpx:TrackPointExtension xmlns:gpxtpx="http://www.garmin.com/xmlschemas/TrackPointExtension/v1">
            <gpxtpx:hr>109</gpxtpx:hr>
          </gpxtpx:TrackPointExtension>
        </extensions>
      </trkpt>
      <trkpt lat="43.19218" lon="6.15544">
        <ele>286.20001220703</ele>
        <time>2023-05-24T09:18:15.000Z</time>
        <extensions>
          <gpxtpx:TrackPointExtension xmlns:gpxtpx="http://www.garmin.com/xmlschemas/TrackPointExtension/v1">
            <gpxtpx:hr>105</gpxtpx:hr>
          </gpxtpx:TrackPointExtension>
        </extensions>
      </trkpt>
      <trkpt lat="43.19222" lon="6.15562">
        <ele>285</ele>
        <time>2023-05-24T09:18:18.000Z</time>
        <extensions>
          <gpxtpx:TrackPointExtension xmlns:gpxtpx="http://www.garmin.com/xmlschemas/TrackPointExtension/v1">
            <gpxtpx:hr>104</gpxtpx:hr>
          </gpxtpx:TrackPointExtension>
        </extensions>
      </trkpt>
      <trkpt lat="43.19228" lon="6.1559">
        <ele>281.60000610352</ele>
        <time>2023-05-24T09:18:22.000Z</time>
        <extensions>
          <gpxtpx:TrackPointExtension xmlns:gpxtpx="http://www.garmin.com/xmlschemas/TrackPointExtension/v1">
            <gpxtpx:hr>101</gpxtpx:hr>
          </gpxtpx:TrackPointExtension>
        </extensions>
      </trkpt>
      <trkpt lat="43.1923" lon="6.15604">
        <ele>280.20001220703</ele>
        <time>2023-05-24T09:18:24.000Z</time>
        <extensions>
          <gpxtpx:TrackPointExtension xmlns:gpxtpx="http://www.garmin.com/xmlschemas/TrackPointExtension/v1">
            <gpxtpx:hr>102</gpxtpx:hr>
          </gpxtpx:TrackPointExtension>
        </extensions>
      </trkpt>
      <trkpt lat="43.19236" lon="6.15635">
        <ele>277</ele>
        <time>2023-05-24T09:18:30.000Z</time>
        <extensions>
          <gpxtpx:TrackPointExtension xmlns:gpxtpx="http://www.garmin.com/xmlschemas/TrackPointExtension/v1">
            <gpxtpx:hr>100</gpxtpx:hr>
          </gpxtpx:TrackPointExtension>
        </extensions>
      </trkpt>
      <trkpt lat="43.19236" lon="6.15645">
        <ele>277</ele>
        <time>2023-05-24T09:18:32.000Z</time>
        <extensions>
          <gpxtpx:TrackPointExtension xmlns:gpxtpx="http://www.garmin.com/xmlschemas/TrackPointExtension/v1">
            <gpxtpx:hr>99</gpxtpx:hr>
          </gpxtpx:TrackPointExtension>
        </extensions>
      </trkpt>
      <trkpt lat="43.19238" lon="6.15656">
        <ele>276.20001220703</ele>
        <time>2023-05-24T09:18:34.000Z</time>
        <extensions>
          <gpxtpx:TrackPointExtension xmlns:gpxtpx="http://www.garmin.com/xmlschemas/TrackPointExtension/v1">
            <gpxtpx:hr>99</gpxtpx:hr>
          </gpxtpx:TrackPointExtension>
        </extensions>
      </trkpt>
      <trkpt lat="43.19246" lon="6.15676">
        <ele>275</ele>
        <time>2023-05-24T09:18:37.000Z</time>
        <extensions>
          <gpxtpx:TrackPointExtension xmlns:gpxtpx="http://www.garmin.com/xmlschemas/TrackPointExtension/v1">
            <gpxtpx:hr>99</gpxtpx:hr>
          </gpxtpx:TrackPointExtension>
        </extensions>
      </trkpt>
      <trkpt lat="43.19261" lon="6.15697">
        <ele>273.60000610352</ele>
        <time>2023-05-24T09:18:40.000Z</time>
        <extensions>
          <gpxtpx:TrackPointExtension xmlns:gpxtpx="http://www.garmin.com/xmlschemas/TrackPointExtension/v1">
            <gpxtpx:hr>99</gpxtpx:hr>
          </gpxtpx:TrackPointExtension>
        </extensions>
      </trkpt>
      <trkpt lat="43.19268" lon="6.15706">
        <ele>273</ele>
        <time>2023-05-24T09:18:41.000Z</time>
        <extensions>
          <gpxtpx:TrackPointExtension xmlns:gpxtpx="http://www.garmin.com/xmlschemas/TrackPointExtension/v1">
            <gpxtpx:hr>99</gpxtpx:hr>
          </gpxtpx:TrackPointExtension>
        </extensions>
      </trkpt>
      <trkpt lat="43.19297" lon="6.15752">
        <ele>270.60000610352</ele>
        <time>2023-05-24T09:18:46.000Z</time>
        <extensions>
          <gpxtpx:TrackPointExtension xmlns:gpxtpx="http://www.garmin.com/xmlschemas/TrackPointExtension/v1">
            <gpxtpx:hr>99</gpxtpx:hr>
          </gpxtpx:TrackPointExtension>
        </extensions>
      </trkpt>
      <trkpt lat="43.1931" lon="6.15776">
        <ele>268.20001220703</ele>
        <time>2023-05-24T09:18:49.000Z</time>
        <extensions>
          <gpxtpx:TrackPointExtension xmlns:gpxtpx="http://www.garmin.com/xmlschemas/TrackPointExtension/v1">
            <gpxtpx:hr>98</gpxtpx:hr>
          </gpxtpx:TrackPointExtension>
        </extensions>
      </trkpt>
      <trkpt lat="43.19313" lon="6.15785">
        <ele>267.60000610352</ele>
        <time>2023-05-24T09:18:50.000Z</time>
        <extensions>
          <gpxtpx:TrackPointExtension xmlns:gpxtpx="http://www.garmin.com/xmlschemas/TrackPointExtension/v1">
            <gpxtpx:hr>98</gpxtpx:hr>
          </gpxtpx:TrackPointExtension>
        </extensions>
      </trkpt>
      <trkpt lat="43.1932" lon="6.15833">
        <ele>265.79998779297</ele>
        <time>2023-05-24T09:18:55.000Z</time>
        <extensions>
          <gpxtpx:TrackPointExtension xmlns:gpxtpx="http://www.garmin.com/xmlschemas/TrackPointExtension/v1">
            <gpxtpx:hr>98</gpxtpx:hr>
          </gpxtpx:TrackPointExtension>
        </extensions>
      </trkpt>
      <trkpt lat="43.19323" lon="6.15851">
        <ele>265</ele>
        <time>2023-05-24T09:18:57.000Z</time>
        <extensions>
          <gpxtpx:TrackPointExtension xmlns:gpxtpx="http://www.garmin.com/xmlschemas/TrackPointExtension/v1">
            <gpxtpx:hr>97</gpxtpx:hr>
          </gpxtpx:TrackPointExtension>
        </extensions>
      </trkpt>
      <trkpt lat="43.19332" lon="6.15866">
        <ele>264.20001220703</ele>
        <time>2023-05-24T09:18:59.000Z</time>
        <extensions>
          <gpxtpx:TrackPointExtension xmlns:gpxtpx="http://www.garmin.com/xmlschemas/TrackPointExtension/v1">
            <gpxtpx:hr>97</gpxtpx:hr>
          </gpxtpx:TrackPointExtension>
        </extensions>
      </trkpt>
      <trkpt lat="43.19355" lon="6.15889">
        <ele>263</ele>
        <time>2023-05-24T09:19:03.000Z</time>
        <extensions>
          <gpxtpx:TrackPointExtension xmlns:gpxtpx="http://www.garmin.com/xmlschemas/TrackPointExtension/v1">
            <gpxtpx:hr>96</gpxtpx:hr>
          </gpxtpx:TrackPointExtension>
        </extensions>
      </trkpt>
      <trkpt lat="43.1938" lon="6.15918">
        <ele>264.20001220703</ele>
        <time>2023-05-24T09:19:07.000Z</time>
        <extensions>
          <gpxtpx:TrackPointExtension xmlns:gpxtpx="http://www.garmin.com/xmlschemas/TrackPointExtension/v1">
            <gpxtpx:hr>99</gpxtpx:hr>
          </gpxtpx:TrackPointExtension>
        </extensions>
      </trkpt>
      <trkpt lat="43.19386" lon="6.15924">
        <ele>265.20001220703</ele>
        <time>2023-05-24T09:19:08.000Z</time>
        <extensions>
          <gpxtpx:TrackPointExtension xmlns:gpxtpx="http://www.garmin.com/xmlschemas/TrackPointExtension/v1">
            <gpxtpx:hr>99</gpxtpx:hr>
          </gpxtpx:TrackPointExtension>
        </extensions>
      </trkpt>
      <trkpt lat="43.19395" lon="6.15937">
        <ele>267.20001220703</ele>
        <time>2023-05-24T09:19:11.000Z</time>
        <extensions>
          <gpxtpx:TrackPointExtension xmlns:gpxtpx="http://www.garmin.com/xmlschemas/TrackPointExtension/v1">
            <gpxtpx:hr>99</gpxtpx:hr>
          </gpxtpx:TrackPointExtension>
        </extensions>
      </trkpt>
      <trkpt lat="43.19393" lon="6.15942">
        <ele>267.60000610352</ele>
        <time>2023-05-24T09:19:13.000Z</time>
        <extensions>
          <gpxtpx:TrackPointExtension xmlns:gpxtpx="http://www.garmin.com/xmlschemas/TrackPointExtension/v1">
            <gpxtpx:hr>99</gpxtpx:hr>
          </gpxtpx:TrackPointExtension>
        </extensions>
      </trkpt>
      <trkpt lat="43.19391" lon="6.15945">
        <ele>267.79998779297</ele>
        <time>2023-05-24T09:19:15.000Z</time>
        <extensions>
          <gpxtpx:TrackPointExtension xmlns:gpxtpx="http://www.garmin.com/xmlschemas/TrackPointExtension/v1">
            <gpxtpx:hr>99</gpxtpx:hr>
          </gpxtpx:TrackPointExtension>
        </extensions>
      </trkpt>
      <trkpt lat="43.19382" lon="6.15945">
        <ele>267.39999389648</ele>
        <time>2023-05-24T09:19:20.000Z</time>
        <extensions>
          <gpxtpx:TrackPointExtension xmlns:gpxtpx="http://www.garmin.com/xmlschemas/TrackPointExtension/v1">
            <gpxtpx:hr>99</gpxtpx:hr>
          </gpxtpx:TrackPointExtension>
        </extensions>
      </trkpt>
      <trkpt lat="43.19372" lon="6.15938">
        <ele>265.79998779297</ele>
        <time>2023-05-24T09:19:25.000Z</time>
        <extensions>
          <gpxtpx:TrackPointExtension xmlns:gpxtpx="http://www.garmin.com/xmlschemas/TrackPointExtension/v1">
            <gpxtpx:hr>97</gpxtpx:hr>
          </gpxtpx:TrackPointExtension>
        </extensions>
      </trkpt>
      <trkpt lat="43.19369" lon="6.15936">
        <ele>265.39999389648</ele>
        <time>2023-05-24T09:19:30.000Z</time>
        <extensions>
          <gpxtpx:TrackPointExtension xmlns:gpxtpx="http://www.garmin.com/xmlschemas/TrackPointExtension/v1">
            <gpxtpx:hr>98</gpxtpx:hr>
          </gpxtpx:TrackPointExtension>
        </extensions>
      </trkpt>
      <trkpt lat="43.19368" lon="6.15936">
        <ele>265.39999389648</ele>
        <time>2023-05-24T09:19:36.000Z</time>
        <extensions>
          <gpxtpx:TrackPointExtension xmlns:gpxtpx="http://www.garmin.com/xmlschemas/TrackPointExtension/v1">
            <gpxtpx:hr>101</gpxtpx:hr>
          </gpxtpx:TrackPointExtension>
        </extensions>
      </trkpt>
      <trkpt lat="43.19368" lon="6.15936">
        <ele>265.39999389648</ele>
        <time>2023-05-24T09:19:37.000Z</time>
        <extensions>
          <gpxtpx:TrackPointExtension xmlns:gpxtpx="http://www.garmin.com/xmlschemas/TrackPointExtension/v1">
            <gpxtpx:hr>102</gpxtpx:hr>
          </gpxtpx:TrackPointExtension>
        </extensions>
      </trkpt>
      <trkpt lat="43.19368" lon="6.15936">
        <ele>265.39999389648</ele>
        <time>2023-05-24T09:19:39.000Z</time>
        <extensions>
          <gpxtpx:TrackPointExtension xmlns:gpxtpx="http://www.garmin.com/xmlschemas/TrackPointExtension/v1">
            <gpxtpx:hr>103</gpxtpx:hr>
          </gpxtpx:TrackPointExtension>
        </extensions>
      </trkpt>
      <trkpt lat="43.19368" lon="6.1594">
        <ele>265.79998779297</ele>
        <time>2023-05-24T09:19:41.000Z</time>
        <extensions>
          <gpxtpx:TrackPointExtension xmlns:gpxtpx="http://www.garmin.com/xmlschemas/TrackPointExtension/v1">
            <gpxtpx:hr>103</gpxtpx:hr>
          </gpxtpx:TrackPointExtension>
        </extensions>
      </trkpt>
      <trkpt lat="43.19372" lon="6.15942">
        <ele>266.39999389648</ele>
        <time>2023-05-24T09:19:43.000Z</time>
        <extensions>
          <gpxtpx:TrackPointExtension xmlns:gpxtpx="http://www.garmin.com/xmlschemas/TrackPointExtension/v1">
            <gpxtpx:hr>103</gpxtpx:hr>
          </gpxtpx:TrackPointExtension>
        </extensions>
      </trkpt>
      <trkpt lat="43.19377" lon="6.15945">
        <ele>267.20001220703</ele>
        <time>2023-05-24T09:19:45.000Z</time>
        <extensions>
          <gpxtpx:TrackPointExtension xmlns:gpxtpx="http://www.garmin.com/xmlschemas/TrackPointExtension/v1">
            <gpxtpx:hr>103</gpxtpx:hr>
          </gpxtpx:TrackPointExtension>
        </extensions>
      </trkpt>
      <trkpt lat="43.19378" lon="6.1595">
        <ele>268</ele>
        <time>2023-05-24T09:19:46.000Z</time>
        <extensions>
          <gpxtpx:TrackPointExtension xmlns:gpxtpx="http://www.garmin.com/xmlschemas/TrackPointExtension/v1">
            <gpxtpx:hr>103</gpxtpx:hr>
          </gpxtpx:TrackPointExtension>
        </extensions>
      </trkpt>
      <trkpt lat="43.19379" lon="6.15959">
        <ele>269.39999389648</ele>
        <time>2023-05-24T09:19:48.000Z</time>
        <extensions>
          <gpxtpx:TrackPointExtension xmlns:gpxtpx="http://www.garmin.com/xmlschemas/TrackPointExtension/v1">
            <gpxtpx:hr>104</gpxtpx:hr>
          </gpxtpx:TrackPointExtension>
        </extensions>
      </trkpt>
      <trkpt lat="43.19371" lon="6.15975">
        <ele>270.39999389648</ele>
        <time>2023-05-24T09:19:52.000Z</time>
        <extensions>
          <gpxtpx:TrackPointExtension xmlns:gpxtpx="http://www.garmin.com/xmlschemas/TrackPointExtension/v1">
            <gpxtpx:hr>106</gpxtpx:hr>
          </gpxtpx:TrackPointExtension>
        </extensions>
      </trkpt>
      <trkpt lat="43.19355" lon="6.15993">
        <ele>271.60000610352</ele>
        <time>2023-05-24T09:19:59.000Z</time>
        <extensions>
          <gpxtpx:TrackPointExtension xmlns:gpxtpx="http://www.garmin.com/xmlschemas/TrackPointExtension/v1">
            <gpxtpx:hr>110</gpxtpx:hr>
          </gpxtpx:TrackPointExtension>
        </extensions>
      </trkpt>
      <trkpt lat="43.19353" lon="6.15996">
        <ele>271.79998779297</ele>
        <time>2023-05-24T09:20:00.000Z</time>
        <extensions>
          <gpxtpx:TrackPointExtension xmlns:gpxtpx="http://www.garmin.com/xmlschemas/TrackPointExtension/v1">
            <gpxtpx:hr>110</gpxtpx:hr>
          </gpxtpx:TrackPointExtension>
        </extensions>
      </trkpt>
      <trkpt lat="43.19338" lon="6.16022">
        <ele>271.39999389648</ele>
        <time>2023-05-24T09:20:08.000Z</time>
        <extensions>
          <gpxtpx:TrackPointExtension xmlns:gpxtpx="http://www.garmin.com/xmlschemas/TrackPointExtension/v1">
            <gpxtpx:hr>110</gpxtpx:hr>
          </gpxtpx:TrackPointExtension>
        </extensions>
      </trkpt>
      <trkpt lat="43.19331" lon="6.16048">
        <ele>271</ele>
        <time>2023-05-24T09:20:14.000Z</time>
        <extensions>
          <gpxtpx:TrackPointExtension xmlns:gpxtpx="http://www.garmin.com/xmlschemas/TrackPointExtension/v1">
            <gpxtpx:hr>113</gpxtpx:hr>
          </gpxtpx:TrackPointExtension>
        </extensions>
      </trkpt>
      <trkpt lat="43.19331" lon="6.16053">
        <ele>271.20001220703</ele>
        <time>2023-05-24T09:20:15.000Z</time>
        <extensions>
          <gpxtpx:TrackPointExtension xmlns:gpxtpx="http://www.garmin.com/xmlschemas/TrackPointExtension/v1">
            <gpxtpx:hr>113</gpxtpx:hr>
          </gpxtpx:TrackPointExtension>
        </extensions>
      </trkpt>
      <trkpt lat="43.19335" lon="6.16074">
        <ele>272.60000610352</ele>
        <time>2023-05-24T09:20:20.000Z</time>
        <extensions>
          <gpxtpx:TrackPointExtension xmlns:gpxtpx="http://www.garmin.com/xmlschemas/TrackPointExtension/v1">
            <gpxtpx:hr>114</gpxtpx:hr>
          </gpxtpx:TrackPointExtension>
        </extensions>
      </trkpt>
      <trkpt lat="43.19337" lon="6.16083">
        <ele>274</ele>
        <time>2023-05-24T09:20:22.000Z</time>
        <extensions>
          <gpxtpx:TrackPointExtension xmlns:gpxtpx="http://www.garmin.com/xmlschemas/TrackPointExtension/v1">
            <gpxtpx:hr>110</gpxtpx:hr>
          </gpxtpx:TrackPointExtension>
        </extensions>
      </trkpt>
      <trkpt lat="43.19339" lon="6.16096">
        <ele>275.60000610352</ele>
        <time>2023-05-24T09:20:25.000Z</time>
        <extensions>
          <gpxtpx:TrackPointExtension xmlns:gpxtpx="http://www.garmin.com/xmlschemas/TrackPointExtension/v1">
            <gpxtpx:hr>113</gpxtpx:hr>
          </gpxtpx:TrackPointExtension>
        </extensions>
      </trkpt>
      <trkpt lat="43.1934" lon="6.16104">
        <ele>276.20001220703</ele>
        <time>2023-05-24T09:20:27.000Z</time>
        <extensions>
          <gpxtpx:TrackPointExtension xmlns:gpxtpx="http://www.garmin.com/xmlschemas/TrackPointExtension/v1">
            <gpxtpx:hr>115</gpxtpx:hr>
          </gpxtpx:TrackPointExtension>
        </extensions>
      </trkpt>
      <trkpt lat="43.19339" lon="6.16113">
        <ele>276.60000610352</ele>
        <time>2023-05-24T09:20:29.000Z</time>
        <extensions>
          <gpxtpx:TrackPointExtension xmlns:gpxtpx="http://www.garmin.com/xmlschemas/TrackPointExtension/v1">
            <gpxtpx:hr>118</gpxtpx:hr>
          </gpxtpx:TrackPointExtension>
        </extensions>
      </trkpt>
      <trkpt lat="43.19339" lon="6.16126">
        <ele>277.39999389648</ele>
        <time>2023-05-24T09:20:32.000Z</time>
        <extensions>
          <gpxtpx:TrackPointExtension xmlns:gpxtpx="http://www.garmin.com/xmlschemas/TrackPointExtension/v1">
            <gpxtpx:hr>120</gpxtpx:hr>
          </gpxtpx:TrackPointExtension>
        </extensions>
      </trkpt>
      <trkpt lat="43.1934" lon="6.16135">
        <ele>278.39999389648</ele>
        <time>2023-05-24T09:20:34.000Z</time>
        <extensions>
          <gpxtpx:TrackPointExtension xmlns:gpxtpx="http://www.garmin.com/xmlschemas/TrackPointExtension/v1">
            <gpxtpx:hr>126</gpxtpx:hr>
          </gpxtpx:TrackPointExtension>
        </extensions>
      </trkpt>
      <trkpt lat="43.1934" lon="6.1614">
        <ele>278.79998779297</ele>
        <time>2023-05-24T09:20:35.000Z</time>
        <extensions>
          <gpxtpx:TrackPointExtension xmlns:gpxtpx="http://www.garmin.com/xmlschemas/TrackPointExtension/v1">
            <gpxtpx:hr>125</gpxtpx:hr>
          </gpxtpx:TrackPointExtension>
        </extensions>
      </trkpt>
      <trkpt lat="43.19341" lon="6.16159">
        <ele>280.79998779297</ele>
        <time>2023-05-24T09:20:39.000Z</time>
        <extensions>
          <gpxtpx:TrackPointExtension xmlns:gpxtpx="http://www.garmin.com/xmlschemas/TrackPointExtension/v1">
            <gpxtpx:hr>124</gpxtpx:hr>
          </gpxtpx:TrackPointExtension>
        </extensions>
      </trkpt>
      <trkpt lat="43.19335" lon="6.1618">
        <ele>281.20001220703</ele>
        <time>2023-05-24T09:20:44.000Z</time>
        <extensions>
          <gpxtpx:TrackPointExtension xmlns:gpxtpx="http://www.garmin.com/xmlschemas/TrackPointExtension/v1">
            <gpxtpx:hr>125</gpxtpx:hr>
          </gpxtpx:TrackPointExtension>
        </extensions>
      </trkpt>
      <trkpt lat="43.19318" lon="6.16201">
        <ele>281.20001220703</ele>
        <time>2023-05-24T09:20:51.000Z</time>
        <extensions>
          <gpxtpx:TrackPointExtension xmlns:gpxtpx="http://www.garmin.com/xmlschemas/TrackPointExtension/v1">
            <gpxtpx:hr>126</gpxtpx:hr>
          </gpxtpx:TrackPointExtension>
        </extensions>
      </trkpt>
      <trkpt lat="43.19297" lon="6.1622">
        <ele>280.79998779297</ele>
        <time>2023-05-24T09:20:59.000Z</time>
        <extensions>
          <gpxtpx:TrackPointExtension xmlns:gpxtpx="http://www.garmin.com/xmlschemas/TrackPointExtension/v1">
            <gpxtpx:hr>127</gpxtpx:hr>
          </gpxtpx:TrackPointExtension>
        </extensions>
      </trkpt>
      <trkpt lat="43.19281" lon="6.16246">
        <ele>282.39999389648</ele>
        <time>2023-05-24T09:21:07.000Z</time>
        <extensions>
          <gpxtpx:TrackPointExtension xmlns:gpxtpx="http://www.garmin.com/xmlschemas/TrackPointExtension/v1">
            <gpxtpx:hr>128</gpxtpx:hr>
          </gpxtpx:TrackPointExtension>
        </extensions>
      </trkpt>
      <trkpt lat="43.19271" lon="6.16278">
        <ele>285.79998779297</ele>
        <time>2023-05-24T09:21:15.000Z</time>
        <extensions>
          <gpxtpx:TrackPointExtension xmlns:gpxtpx="http://www.garmin.com/xmlschemas/TrackPointExtension/v1">
            <gpxtpx:hr>129</gpxtpx:hr>
          </gpxtpx:TrackPointExtension>
        </extensions>
      </trkpt>
      <trkpt lat="43.1926" lon="6.16312">
        <ele>288.39999389648</ele>
        <time>2023-05-24T09:21:23.000Z</time>
        <extensions>
          <gpxtpx:TrackPointExtension xmlns:gpxtpx="http://www.garmin.com/xmlschemas/TrackPointExtension/v1">
            <gpxtpx:hr>129</gpxtpx:hr>
          </gpxtpx:TrackPointExtension>
        </extensions>
      </trkpt>
      <trkpt lat="43.1925" lon="6.16331">
        <ele>289.39999389648</ele>
        <time>2023-05-24T09:21:28.000Z</time>
        <extensions>
          <gpxtpx:TrackPointExtension xmlns:gpxtpx="http://www.garmin.com/xmlschemas/TrackPointExtension/v1">
            <gpxtpx:hr>129</gpxtpx:hr>
          </gpxtpx:TrackPointExtension>
        </extensions>
      </trkpt>
      <trkpt lat="43.19232" lon="6.16341">
        <ele>289.20001220703</ele>
        <time>2023-05-24T09:21:33.000Z</time>
        <extensions>
          <gpxtpx:TrackPointExtension xmlns:gpxtpx="http://www.garmin.com/xmlschemas/TrackPointExtension/v1">
            <gpxtpx:hr>130</gpxtpx:hr>
          </gpxtpx:TrackPointExtension>
        </extensions>
      </trkpt>
      <trkpt lat="43.19208" lon="6.16345">
        <ele>286.79998779297</ele>
        <time>2023-05-24T09:21:40.000Z</time>
        <extensions>
          <gpxtpx:TrackPointExtension xmlns:gpxtpx="http://www.garmin.com/xmlschemas/TrackPointExtension/v1">
            <gpxtpx:hr>130</gpxtpx:hr>
          </gpxtpx:TrackPointExtension>
        </extensions>
      </trkpt>
      <trkpt lat="43.19187" lon="6.16353">
        <ele>286.20001220703</ele>
        <time>2023-05-24T09:21:46.000Z</time>
        <extensions>
          <gpxtpx:TrackPointExtension xmlns:gpxtpx="http://www.garmin.com/xmlschemas/TrackPointExtension/v1">
            <gpxtpx:hr>129</gpxtpx:hr>
          </gpxtpx:TrackPointExtension>
        </extensions>
      </trkpt>
      <trkpt lat="43.19178" lon="6.16369">
        <ele>285.60000610352</ele>
        <time>2023-05-24T09:21:50.000Z</time>
        <extensions>
          <gpxtpx:TrackPointExtension xmlns:gpxtpx="http://www.garmin.com/xmlschemas/TrackPointExtension/v1">
            <gpxtpx:hr>129</gpxtpx:hr>
          </gpxtpx:TrackPointExtension>
        </extensions>
      </trkpt>
      <trkpt lat="43.19179" lon="6.16388">
        <ele>285.79998779297</ele>
        <time>2023-05-24T09:21:54.000Z</time>
        <extensions>
          <gpxtpx:TrackPointExtension xmlns:gpxtpx="http://www.garmin.com/xmlschemas/TrackPointExtension/v1">
            <gpxtpx:hr>130</gpxtpx:hr>
          </gpxtpx:TrackPointExtension>
        </extensions>
      </trkpt>
      <trkpt lat="43.19191" lon="6.16414">
        <ele>288</ele>
        <time>2023-05-24T09:22:00.000Z</time>
        <extensions>
          <gpxtpx:TrackPointExtension xmlns:gpxtpx="http://www.garmin.com/xmlschemas/TrackPointExtension/v1">
            <gpxtpx:hr>133</gpxtpx:hr>
          </gpxtpx:TrackPointExtension>
        </extensions>
      </trkpt>
      <trkpt lat="43.19195" lon="6.16444">
        <ele>287.60000610352</ele>
        <time>2023-05-24T09:22:06.000Z</time>
        <extensions>
          <gpxtpx:TrackPointExtension xmlns:gpxtpx="http://www.garmin.com/xmlschemas/TrackPointExtension/v1">
            <gpxtpx:hr>131</gpxtpx:hr>
          </gpxtpx:TrackPointExtension>
        </extensions>
      </trkpt>
      <trkpt lat="43.19192" lon="6.1648">
        <ele>286.20001220703</ele>
        <time>2023-05-24T09:22:13.000Z</time>
        <extensions>
          <gpxtpx:TrackPointExtension xmlns:gpxtpx="http://www.garmin.com/xmlschemas/TrackPointExtension/v1">
            <gpxtpx:hr>128</gpxtpx:hr>
          </gpxtpx:TrackPointExtension>
        </extensions>
      </trkpt>
      <trkpt lat="43.19191" lon="6.16491">
        <ele>285.79998779297</ele>
        <time>2023-05-24T09:22:15.000Z</time>
        <extensions>
          <gpxtpx:TrackPointExtension xmlns:gpxtpx="http://www.garmin.com/xmlschemas/TrackPointExtension/v1">
            <gpxtpx:hr>128</gpxtpx:hr>
          </gpxtpx:TrackPointExtension>
        </extensions>
      </trkpt>
      <trkpt lat="43.19193" lon="6.16502">
        <ele>285</ele>
        <time>2023-05-24T09:22:17.000Z</time>
        <extensions>
          <gpxtpx:TrackPointExtension xmlns:gpxtpx="http://www.garmin.com/xmlschemas/TrackPointExtension/v1">
            <gpxtpx:hr>127</gpxtpx:hr>
          </gpxtpx:TrackPointExtension>
        </extensions>
      </trkpt>
      <trkpt lat="43.19196" lon="6.16513">
        <ele>284.39999389648</ele>
        <time>2023-05-24T09:22:19.000Z</time>
        <extensions>
          <gpxtpx:TrackPointExtension xmlns:gpxtpx="http://www.garmin.com/xmlschemas/TrackPointExtension/v1">
            <gpxtpx:hr>125</gpxtpx:hr>
          </gpxtpx:TrackPointExtension>
        </extensions>
      </trkpt>
      <trkpt lat="43.19204" lon="6.1653">
        <ele>284</ele>
        <time>2023-05-24T09:22:22.000Z</time>
        <extensions>
          <gpxtpx:TrackPointExtension xmlns:gpxtpx="http://www.garmin.com/xmlschemas/TrackPointExtension/v1">
            <gpxtpx:hr>122</gpxtpx:hr>
          </gpxtpx:TrackPointExtension>
        </extensions>
      </trkpt>
      <trkpt lat="43.19214" lon="6.16553">
        <ele>283.39999389648</ele>
        <time>2023-05-24T09:22:26.000Z</time>
        <extensions>
          <gpxtpx:TrackPointExtension xmlns:gpxtpx="http://www.garmin.com/xmlschemas/TrackPointExtension/v1">
            <gpxtpx:hr>119</gpxtpx:hr>
          </gpxtpx:TrackPointExtension>
        </extensions>
      </trkpt>
      <trkpt lat="43.19221" lon="6.16577">
        <ele>282.20001220703</ele>
        <time>2023-05-24T09:22:29.000Z</time>
        <extensions>
          <gpxtpx:TrackPointExtension xmlns:gpxtpx="http://www.garmin.com/xmlschemas/TrackPointExtension/v1">
            <gpxtpx:hr>118</gpxtpx:hr>
          </gpxtpx:TrackPointExtension>
        </extensions>
      </trkpt>
      <trkpt lat="43.19223" lon="6.16586">
        <ele>282.79998779297</ele>
        <time>2023-05-24T09:22:30.000Z</time>
        <extensions>
          <gpxtpx:TrackPointExtension xmlns:gpxtpx="http://www.garmin.com/xmlschemas/TrackPointExtension/v1">
            <gpxtpx:hr>118</gpxtpx:hr>
          </gpxtpx:TrackPointExtension>
        </extensions>
      </trkpt>
      <trkpt lat="43.19223" lon="6.16595">
        <ele>283</ele>
        <time>2023-05-24T09:22:31.000Z</time>
        <extensions>
          <gpxtpx:TrackPointExtension xmlns:gpxtpx="http://www.garmin.com/xmlschemas/TrackPointExtension/v1">
            <gpxtpx:hr>117</gpxtpx:hr>
          </gpxtpx:TrackPointExtension>
        </extensions>
      </trkpt>
      <trkpt lat="43.1922" lon="6.1661">
        <ele>284.60000610352</ele>
        <time>2023-05-24T09:22:33.000Z</time>
        <extensions>
          <gpxtpx:TrackPointExtension xmlns:gpxtpx="http://www.garmin.com/xmlschemas/TrackPointExtension/v1">
            <gpxtpx:hr>116</gpxtpx:hr>
          </gpxtpx:TrackPointExtension>
        </extensions>
      </trkpt>
      <trkpt lat="43.19216" lon="6.16622">
        <ele>286.79998779297</ele>
        <time>2023-05-24T09:22:35.000Z</time>
        <extensions>
          <gpxtpx:TrackPointExtension xmlns:gpxtpx="http://www.garmin.com/xmlschemas/TrackPointExtension/v1">
            <gpxtpx:hr>117</gpxtpx:hr>
          </gpxtpx:TrackPointExtension>
        </extensions>
      </trkpt>
      <trkpt lat="43.1921" lon="6.16631">
        <ele>287.79998779297</ele>
        <time>2023-05-24T09:22:37.000Z</time>
        <extensions>
          <gpxtpx:TrackPointExtension xmlns:gpxtpx="http://www.garmin.com/xmlschemas/TrackPointExtension/v1">
            <gpxtpx:hr>116</gpxtpx:hr>
          </gpxtpx:TrackPointExtension>
        </extensions>
      </trkpt>
      <trkpt lat="43.19188" lon="6.16652">
        <ele>289.20001220703</ele>
        <time>2023-05-24T09:22:43.000Z</time>
        <extensions>
          <gpxtpx:TrackPointExtension xmlns:gpxtpx="http://www.garmin.com/xmlschemas/TrackPointExtension/v1">
            <gpxtpx:hr>113</gpxtpx:hr>
          </gpxtpx:TrackPointExtension>
        </extensions>
      </trkpt>
      <trkpt lat="43.19181" lon="6.1666">
        <ele>288.39999389648</ele>
        <time>2023-05-24T09:22:45.000Z</time>
        <extensions>
          <gpxtpx:TrackPointExtension xmlns:gpxtpx="http://www.garmin.com/xmlschemas/TrackPointExtension/v1">
            <gpxtpx:hr>114</gpxtpx:hr>
          </gpxtpx:TrackPointExtension>
        </extensions>
      </trkpt>
      <trkpt lat="43.19175" lon="6.1667">
        <ele>287.39999389648</ele>
        <time>2023-05-24T09:22:47.000Z</time>
        <extensions>
          <gpxtpx:TrackPointExtension xmlns:gpxtpx="http://www.garmin.com/xmlschemas/TrackPointExtension/v1">
            <gpxtpx:hr>114</gpxtpx:hr>
          </gpxtpx:TrackPointExtension>
        </extensions>
      </trkpt>
      <trkpt lat="43.19172" lon="6.16682">
        <ele>288.39999389648</ele>
        <time>2023-05-24T09:22:49.000Z</time>
        <extensions>
          <gpxtpx:TrackPointExtension xmlns:gpxtpx="http://www.garmin.com/xmlschemas/TrackPointExtension/v1">
            <gpxtpx:hr>115</gpxtpx:hr>
          </gpxtpx:TrackPointExtension>
        </extensions>
      </trkpt>
      <trkpt lat="43.19169" lon="6.16702">
        <ele>291.20001220703</ele>
        <time>2023-05-24T09:22:52.000Z</time>
        <extensions>
          <gpxtpx:TrackPointExtension xmlns:gpxtpx="http://www.garmin.com/xmlschemas/TrackPointExtension/v1">
            <gpxtpx:hr>116</gpxtpx:hr>
          </gpxtpx:TrackPointExtension>
        </extensions>
      </trkpt>
      <trkpt lat="43.19163" lon="6.16719">
        <ele>292.20001220703</ele>
        <time>2023-05-24T09:22:55.000Z</time>
        <extensions>
          <gpxtpx:TrackPointExtension xmlns:gpxtpx="http://www.garmin.com/xmlschemas/TrackPointExtension/v1">
            <gpxtpx:hr>115</gpxtpx:hr>
          </gpxtpx:TrackPointExtension>
        </extensions>
      </trkpt>
      <trkpt lat="43.19148" lon="6.16743">
        <ele>294</ele>
        <time>2023-05-24T09:23:00.000Z</time>
        <extensions>
          <gpxtpx:TrackPointExtension xmlns:gpxtpx="http://www.garmin.com/xmlschemas/TrackPointExtension/v1">
            <gpxtpx:hr>113</gpxtpx:hr>
          </gpxtpx:TrackPointExtension>
        </extensions>
      </trkpt>
      <trkpt lat="43.19144" lon="6.16747">
        <ele>294</ele>
        <time>2023-05-24T09:23:01.000Z</time>
        <extensions>
          <gpxtpx:TrackPointExtension xmlns:gpxtpx="http://www.garmin.com/xmlschemas/TrackPointExtension/v1">
            <gpxtpx:hr>117</gpxtpx:hr>
          </gpxtpx:TrackPointExtension>
        </extensions>
      </trkpt>
      <trkpt lat="43.1914" lon="6.16751">
        <ele>293.79998779297</ele>
        <time>2023-05-24T09:23:02.000Z</time>
        <extensions>
          <gpxtpx:TrackPointExtension xmlns:gpxtpx="http://www.garmin.com/xmlschemas/TrackPointExtension/v1">
            <gpxtpx:hr>116</gpxtpx:hr>
          </gpxtpx:TrackPointExtension>
        </extensions>
      </trkpt>
      <trkpt lat="43.19132" lon="6.16757">
        <ele>292.20001220703</ele>
        <time>2023-05-24T09:23:04.000Z</time>
        <extensions>
          <gpxtpx:TrackPointExtension xmlns:gpxtpx="http://www.garmin.com/xmlschemas/TrackPointExtension/v1">
            <gpxtpx:hr>115</gpxtpx:hr>
          </gpxtpx:TrackPointExtension>
        </extensions>
      </trkpt>
      <trkpt lat="43.19118" lon="6.16763">
        <ele>290.39999389648</ele>
        <time>2023-05-24T09:23:07.000Z</time>
        <extensions>
          <gpxtpx:TrackPointExtension xmlns:gpxtpx="http://www.garmin.com/xmlschemas/TrackPointExtension/v1">
            <gpxtpx:hr>113</gpxtpx:hr>
          </gpxtpx:TrackPointExtension>
        </extensions>
      </trkpt>
      <trkpt lat="43.19104" lon="6.16768">
        <ele>289.20001220703</ele>
        <time>2023-05-24T09:23:10.000Z</time>
        <extensions>
          <gpxtpx:TrackPointExtension xmlns:gpxtpx="http://www.garmin.com/xmlschemas/TrackPointExtension/v1">
            <gpxtpx:hr>110</gpxtpx:hr>
          </gpxtpx:TrackPointExtension>
        </extensions>
      </trkpt>
      <trkpt lat="43.19085" lon="6.16775">
        <ele>287.39999389648</ele>
        <time>2023-05-24T09:23:14.000Z</time>
        <extensions>
          <gpxtpx:TrackPointExtension xmlns:gpxtpx="http://www.garmin.com/xmlschemas/TrackPointExtension/v1">
            <gpxtpx:hr>108</gpxtpx:hr>
          </gpxtpx:TrackPointExtension>
        </extensions>
      </trkpt>
      <trkpt lat="43.19053" lon="6.16787">
        <ele>286.39999389648</ele>
        <time>2023-05-24T09:23:21.000Z</time>
        <extensions>
          <gpxtpx:TrackPointExtension xmlns:gpxtpx="http://www.garmin.com/xmlschemas/TrackPointExtension/v1">
            <gpxtpx:hr>114</gpxtpx:hr>
          </gpxtpx:TrackPointExtension>
        </extensions>
      </trkpt>
      <trkpt lat="43.1904" lon="6.16787">
        <ele>286.39999389648</ele>
        <time>2023-05-24T09:23:24.000Z</time>
        <extensions>
          <gpxtpx:TrackPointExtension xmlns:gpxtpx="http://www.garmin.com/xmlschemas/TrackPointExtension/v1">
            <gpxtpx:hr>111</gpxtpx:hr>
          </gpxtpx:TrackPointExtension>
        </extensions>
      </trkpt>
      <trkpt lat="43.19031" lon="6.16784">
        <ele>285.60000610352</ele>
        <time>2023-05-24T09:23:26.000Z</time>
        <extensions>
          <gpxtpx:TrackPointExtension xmlns:gpxtpx="http://www.garmin.com/xmlschemas/TrackPointExtension/v1">
            <gpxtpx:hr>110</gpxtpx:hr>
          </gpxtpx:TrackPointExtension>
        </extensions>
      </trkpt>
      <trkpt lat="43.19027" lon="6.16782">
        <ele>285</ele>
        <time>2023-05-24T09:23:27.000Z</time>
        <extensions>
          <gpxtpx:TrackPointExtension xmlns:gpxtpx="http://www.garmin.com/xmlschemas/TrackPointExtension/v1">
            <gpxtpx:hr>110</gpxtpx:hr>
          </gpxtpx:TrackPointExtension>
        </extensions>
      </trkpt>
      <trkpt lat="43.19018" lon="6.16778">
        <ele>283.79998779297</ele>
        <time>2023-05-24T09:23:29.000Z</time>
        <extensions>
          <gpxtpx:TrackPointExtension xmlns:gpxtpx="http://www.garmin.com/xmlschemas/TrackPointExtension/v1">
            <gpxtpx:hr>110</gpxtpx:hr>
          </gpxtpx:TrackPointExtension>
        </extensions>
      </trkpt>
      <trkpt lat="43.19004" lon="6.16773">
        <ele>284</ele>
        <time>2023-05-24T09:23:32.000Z</time>
        <extensions>
          <gpxtpx:TrackPointExtension xmlns:gpxtpx="http://www.garmin.com/xmlschemas/TrackPointExtension/v1">
            <gpxtpx:hr>108</gpxtpx:hr>
          </gpxtpx:TrackPointExtension>
        </extensions>
      </trkpt>
      <trkpt lat="43.18977" lon="6.16768">
        <ele>286.39999389648</ele>
        <time>2023-05-24T09:23:38.000Z</time>
        <extensions>
          <gpxtpx:TrackPointExtension xmlns:gpxtpx="http://www.garmin.com/xmlschemas/TrackPointExtension/v1">
            <gpxtpx:hr>109</gpxtpx:hr>
          </gpxtpx:TrackPointExtension>
        </extensions>
      </trkpt>
      <trkpt lat="43.18957" lon="6.16756">
        <ele>288</ele>
        <time>2023-05-24T09:23:43.000Z</time>
        <extensions>
          <gpxtpx:TrackPointExtension xmlns:gpxtpx="http://www.garmin.com/xmlschemas/TrackPointExtension/v1">
            <gpxtpx:hr>112</gpxtpx:hr>
          </gpxtpx:TrackPointExtension>
        </extensions>
      </trkpt>
      <trkpt lat="43.18953" lon="6.16753">
        <ele>288.39999389648</ele>
        <time>2023-05-24T09:23:44.000Z</time>
        <extensions>
          <gpxtpx:TrackPointExtension xmlns:gpxtpx="http://www.garmin.com/xmlschemas/TrackPointExtension/v1">
            <gpxtpx:hr>111</gpxtpx:hr>
          </gpxtpx:TrackPointExtension>
        </extensions>
      </trkpt>
      <trkpt lat="43.1892" lon="6.16723">
        <ele>286.60000610352</ele>
        <time>2023-05-24T09:23:53.000Z</time>
        <extensions>
          <gpxtpx:TrackPointExtension xmlns:gpxtpx="http://www.garmin.com/xmlschemas/TrackPointExtension/v1">
            <gpxtpx:hr>110</gpxtpx:hr>
          </gpxtpx:TrackPointExtension>
        </extensions>
      </trkpt>
      <trkpt lat="43.18892" lon="6.1669">
        <ele>279.79998779297</ele>
        <time>2023-05-24T09:24:01.000Z</time>
        <extensions>
          <gpxtpx:TrackPointExtension xmlns:gpxtpx="http://www.garmin.com/xmlschemas/TrackPointExtension/v1">
            <gpxtpx:hr>111</gpxtpx:hr>
          </gpxtpx:TrackPointExtension>
        </extensions>
      </trkpt>
      <trkpt lat="43.18878" lon="6.16675">
        <ele>278.20001220703</ele>
        <time>2023-05-24T09:24:05.000Z</time>
        <extensions>
          <gpxtpx:TrackPointExtension xmlns:gpxtpx="http://www.garmin.com/xmlschemas/TrackPointExtension/v1">
            <gpxtpx:hr>111</gpxtpx:hr>
          </gpxtpx:TrackPointExtension>
        </extensions>
      </trkpt>
      <trkpt lat="43.1887" lon="6.1667">
        <ele>277.60000610352</ele>
        <time>2023-05-24T09:24:07.000Z</time>
        <extensions>
          <gpxtpx:TrackPointExtension xmlns:gpxtpx="http://www.garmin.com/xmlschemas/TrackPointExtension/v1">
            <gpxtpx:hr>110</gpxtpx:hr>
          </gpxtpx:TrackPointExtension>
        </extensions>
      </trkpt>
      <trkpt lat="43.18866" lon="6.16668">
        <ele>277.39999389648</ele>
        <time>2023-05-24T09:24:08.000Z</time>
        <extensions>
          <gpxtpx:TrackPointExtension xmlns:gpxtpx="http://www.garmin.com/xmlschemas/TrackPointExtension/v1">
            <gpxtpx:hr>109</gpxtpx:hr>
          </gpxtpx:TrackPointExtension>
        </extensions>
      </trkpt>
      <trkpt lat="43.18858" lon="6.16666">
        <ele>277</ele>
        <time>2023-05-24T09:24:10.000Z</time>
        <extensions>
          <gpxtpx:TrackPointExtension xmlns:gpxtpx="http://www.garmin.com/xmlschemas/TrackPointExtension/v1">
            <gpxtpx:hr>106</gpxtpx:hr>
          </gpxtpx:TrackPointExtension>
        </extensions>
      </trkpt>
      <trkpt lat="43.18854" lon="6.16667">
        <ele>276.60000610352</ele>
        <time>2023-05-24T09:24:11.000Z</time>
        <extensions>
          <gpxtpx:TrackPointExtension xmlns:gpxtpx="http://www.garmin.com/xmlschemas/TrackPointExtension/v1">
            <gpxtpx:hr>108</gpxtpx:hr>
          </gpxtpx:TrackPointExtension>
        </extensions>
      </trkpt>
      <trkpt lat="43.18851" lon="6.16671">
        <ele>276</ele>
        <time>2023-05-24T09:24:12.000Z</time>
        <extensions>
          <gpxtpx:TrackPointExtension xmlns:gpxtpx="http://www.garmin.com/xmlschemas/TrackPointExtension/v1">
            <gpxtpx:hr>106</gpxtpx:hr>
          </gpxtpx:TrackPointExtension>
        </extensions>
      </trkpt>
      <trkpt lat="43.18847" lon="6.16682">
        <ele>275.79998779297</ele>
        <time>2023-05-24T09:24:14.000Z</time>
        <extensions>
          <gpxtpx:TrackPointExtension xmlns:gpxtpx="http://www.garmin.com/xmlschemas/TrackPointExtension/v1">
            <gpxtpx:hr>105</gpxtpx:hr>
          </gpxtpx:TrackPointExtension>
        </extensions>
      </trkpt>
      <trkpt lat="43.18846" lon="6.167">
        <ele>277.39999389648</ele>
        <time>2023-05-24T09:24:17.000Z</time>
        <extensions>
          <gpxtpx:TrackPointExtension xmlns:gpxtpx="http://www.garmin.com/xmlschemas/TrackPointExtension/v1">
            <gpxtpx:hr>106</gpxtpx:hr>
          </gpxtpx:TrackPointExtension>
        </extensions>
      </trkpt>
      <trkpt lat="43.18848" lon="6.16713">
        <ele>278.60000610352</ele>
        <time>2023-05-24T09:24:19.000Z</time>
        <extensions>
          <gpxtpx:TrackPointExtension xmlns:gpxtpx="http://www.garmin.com/xmlschemas/TrackPointExtension/v1">
            <gpxtpx:hr>107</gpxtpx:hr>
          </gpxtpx:TrackPointExtension>
        </extensions>
      </trkpt>
      <trkpt lat="43.18858" lon="6.16753">
        <ele>282.20001220703</ele>
        <time>2023-05-24T09:24:26.000Z</time>
        <extensions>
          <gpxtpx:TrackPointExtension xmlns:gpxtpx="http://www.garmin.com/xmlschemas/TrackPointExtension/v1">
            <gpxtpx:hr>110</gpxtpx:hr>
          </gpxtpx:TrackPointExtension>
        </extensions>
      </trkpt>
      <trkpt lat="43.18867" lon="6.16797">
        <ele>285.79998779297</ele>
        <time>2023-05-24T09:24:33.000Z</time>
        <extensions>
          <gpxtpx:TrackPointExtension xmlns:gpxtpx="http://www.garmin.com/xmlschemas/TrackPointExtension/v1">
            <gpxtpx:hr>111</gpxtpx:hr>
          </gpxtpx:TrackPointExtension>
        </extensions>
      </trkpt>
      <trkpt lat="43.18867" lon="6.16804">
        <ele>286.60000610352</ele>
        <time>2023-05-24T09:24:34.000Z</time>
        <extensions>
          <gpxtpx:TrackPointExtension xmlns:gpxtpx="http://www.garmin.com/xmlschemas/TrackPointExtension/v1">
            <gpxtpx:hr>111</gpxtpx:hr>
          </gpxtpx:TrackPointExtension>
        </extensions>
      </trkpt>
      <trkpt lat="43.18866" lon="6.16818">
        <ele>287.79998779297</ele>
        <time>2023-05-24T09:24:36.000Z</time>
        <extensions>
          <gpxtpx:TrackPointExtension xmlns:gpxtpx="http://www.garmin.com/xmlschemas/TrackPointExtension/v1">
            <gpxtpx:hr>110</gpxtpx:hr>
          </gpxtpx:TrackPointExtension>
        </extensions>
      </trkpt>
      <trkpt lat="43.18862" lon="6.16838">
        <ele>288.39999389648</ele>
        <time>2023-05-24T09:24:39.000Z</time>
        <extensions>
          <gpxtpx:TrackPointExtension xmlns:gpxtpx="http://www.garmin.com/xmlschemas/TrackPointExtension/v1">
            <gpxtpx:hr>110</gpxtpx:hr>
          </gpxtpx:TrackPointExtension>
        </extensions>
      </trkpt>
      <trkpt lat="43.18853" lon="6.1687">
        <ele>288.79998779297</ele>
        <time>2023-05-24T09:24:44.000Z</time>
        <extensions>
          <gpxtpx:TrackPointExtension xmlns:gpxtpx="http://www.garmin.com/xmlschemas/TrackPointExtension/v1">
            <gpxtpx:hr>107</gpxtpx:hr>
          </gpxtpx:TrackPointExtension>
        </extensions>
      </trkpt>
      <trkpt lat="43.18847" lon="6.1689">
        <ele>285.79998779297</ele>
        <time>2023-05-24T09:24:47.000Z</time>
        <extensions>
          <gpxtpx:TrackPointExtension xmlns:gpxtpx="http://www.garmin.com/xmlschemas/TrackPointExtension/v1">
            <gpxtpx:hr>107</gpxtpx:hr>
          </gpxtpx:TrackPointExtension>
        </extensions>
      </trkpt>
      <trkpt lat="43.18829" lon="6.1694">
        <ele>280.39999389648</ele>
        <time>2023-05-24T09:24:55.000Z</time>
        <extensions>
          <gpxtpx:TrackPointExtension xmlns:gpxtpx="http://www.garmin.com/xmlschemas/TrackPointExtension/v1">
            <gpxtpx:hr>108</gpxtpx:hr>
          </gpxtpx:TrackPointExtension>
        </extensions>
      </trkpt>
      <trkpt lat="43.18825" lon="6.16952">
        <ele>280</ele>
        <time>2023-05-24T09:24:57.000Z</time>
        <extensions>
          <gpxtpx:TrackPointExtension xmlns:gpxtpx="http://www.garmin.com/xmlschemas/TrackPointExtension/v1">
            <gpxtpx:hr>108</gpxtpx:hr>
          </gpxtpx:TrackPointExtension>
        </extensions>
      </trkpt>
      <trkpt lat="43.18813" lon="6.16973">
        <ele>276.79998779297</ele>
        <time>2023-05-24T09:25:01.000Z</time>
        <extensions>
          <gpxtpx:TrackPointExtension xmlns:gpxtpx="http://www.garmin.com/xmlschemas/TrackPointExtension/v1">
            <gpxtpx:hr>108</gpxtpx:hr>
          </gpxtpx:TrackPointExtension>
        </extensions>
      </trkpt>
      <trkpt lat="43.18807" lon="6.16984">
        <ele>276.20001220703</ele>
        <time>2023-05-24T09:25:03.000Z</time>
        <extensions>
          <gpxtpx:TrackPointExtension xmlns:gpxtpx="http://www.garmin.com/xmlschemas/TrackPointExtension/v1">
            <gpxtpx:hr>107</gpxtpx:hr>
          </gpxtpx:TrackPointExtension>
        </extensions>
      </trkpt>
      <trkpt lat="43.18801" lon="6.17002">
        <ele>276.39999389648</ele>
        <time>2023-05-24T09:25:06.000Z</time>
        <extensions>
          <gpxtpx:TrackPointExtension xmlns:gpxtpx="http://www.garmin.com/xmlschemas/TrackPointExtension/v1">
            <gpxtpx:hr>107</gpxtpx:hr>
          </gpxtpx:TrackPointExtension>
        </extensions>
      </trkpt>
      <trkpt lat="43.18796" lon="6.17027">
        <ele>277</ele>
        <time>2023-05-24T09:25:11.000Z</time>
        <extensions>
          <gpxtpx:TrackPointExtension xmlns:gpxtpx="http://www.garmin.com/xmlschemas/TrackPointExtension/v1">
            <gpxtpx:hr>107</gpxtpx:hr>
          </gpxtpx:TrackPointExtension>
        </extensions>
      </trkpt>
      <trkpt lat="43.18798" lon="6.17039">
        <ele>277</ele>
        <time>2023-05-24T09:25:16.000Z</time>
        <extensions>
          <gpxtpx:TrackPointExtension xmlns:gpxtpx="http://www.garmin.com/xmlschemas/TrackPointExtension/v1">
            <gpxtpx:hr>107</gpxtpx:hr>
          </gpxtpx:TrackPointExtension>
        </extensions>
      </trkpt>
      <trkpt lat="43.18797" lon="6.17058">
        <ele>276</ele>
        <time>2023-05-24T09:25:21.000Z</time>
        <extensions>
          <gpxtpx:TrackPointExtension xmlns:gpxtpx="http://www.garmin.com/xmlschemas/TrackPointExtension/v1">
            <gpxtpx:hr>108</gpxtpx:hr>
          </gpxtpx:TrackPointExtension>
        </extensions>
      </trkpt>
      <trkpt lat="43.18794" lon="6.1708">
        <ele>275.20001220703</ele>
        <time>2023-05-24T09:25:25.000Z</time>
        <extensions>
          <gpxtpx:TrackPointExtension xmlns:gpxtpx="http://www.garmin.com/xmlschemas/TrackPointExtension/v1">
            <gpxtpx:hr>111</gpxtpx:hr>
          </gpxtpx:TrackPointExtension>
        </extensions>
      </trkpt>
      <trkpt lat="43.18794" lon="6.17091">
        <ele>274.79998779297</ele>
        <time>2023-05-24T09:25:27.000Z</time>
        <extensions>
          <gpxtpx:TrackPointExtension xmlns:gpxtpx="http://www.garmin.com/xmlschemas/TrackPointExtension/v1">
            <gpxtpx:hr>111</gpxtpx:hr>
          </gpxtpx:TrackPointExtension>
        </extensions>
      </trkpt>
      <trkpt lat="43.18793" lon="6.1712">
        <ele>274.79998779297</ele>
        <time>2023-05-24T09:25:33.000Z</time>
        <extensions>
          <gpxtpx:TrackPointExtension xmlns:gpxtpx="http://www.garmin.com/xmlschemas/TrackPointExtension/v1">
            <gpxtpx:hr>114</gpxtpx:hr>
          </gpxtpx:TrackPointExtension>
        </extensions>
      </trkpt>
      <trkpt lat="43.18789" lon="6.17145">
        <ele>276.20001220703</ele>
        <time>2023-05-24T09:25:39.000Z</time>
        <extensions>
          <gpxtpx:TrackPointExtension xmlns:gpxtpx="http://www.garmin.com/xmlschemas/TrackPointExtension/v1">
            <gpxtpx:hr>115</gpxtpx:hr>
          </gpxtpx:TrackPointExtension>
        </extensions>
      </trkpt>
      <trkpt lat="43.18787" lon="6.17168">
        <ele>278</ele>
        <time>2023-05-24T09:25:44.000Z</time>
        <extensions>
          <gpxtpx:TrackPointExtension xmlns:gpxtpx="http://www.garmin.com/xmlschemas/TrackPointExtension/v1">
            <gpxtpx:hr>116</gpxtpx:hr>
          </gpxtpx:TrackPointExtension>
        </extensions>
      </trkpt>
      <trkpt lat="43.18787" lon="6.17179">
        <ele>279.20001220703</ele>
        <time>2023-05-24T09:25:46.000Z</time>
        <extensions>
          <gpxtpx:TrackPointExtension xmlns:gpxtpx="http://www.garmin.com/xmlschemas/TrackPointExtension/v1">
            <gpxtpx:hr>119</gpxtpx:hr>
          </gpxtpx:TrackPointExtension>
        </extensions>
      </trkpt>
      <trkpt lat="43.1879" lon="6.17194">
        <ele>281.20001220703</ele>
        <time>2023-05-24T09:25:49.000Z</time>
        <extensions>
          <gpxtpx:TrackPointExtension xmlns:gpxtpx="http://www.garmin.com/xmlschemas/TrackPointExtension/v1">
            <gpxtpx:hr>118</gpxtpx:hr>
          </gpxtpx:TrackPointExtension>
        </extensions>
      </trkpt>
      <trkpt lat="43.1879" lon="6.17204">
        <ele>282.79998779297</ele>
        <time>2023-05-24T09:25:51.000Z</time>
        <extensions>
          <gpxtpx:TrackPointExtension xmlns:gpxtpx="http://www.garmin.com/xmlschemas/TrackPointExtension/v1">
            <gpxtpx:hr>123</gpxtpx:hr>
          </gpxtpx:TrackPointExtension>
        </extensions>
      </trkpt>
      <trkpt lat="43.18791" lon="6.17234">
        <ele>286</ele>
        <time>2023-05-24T09:25:57.000Z</time>
        <extensions>
          <gpxtpx:TrackPointExtension xmlns:gpxtpx="http://www.garmin.com/xmlschemas/TrackPointExtension/v1">
            <gpxtpx:hr>121</gpxtpx:hr>
          </gpxtpx:TrackPointExtension>
        </extensions>
      </trkpt>
      <trkpt lat="43.18792" lon="6.17256">
        <ele>287.60000610352</ele>
        <time>2023-05-24T09:26:02.000Z</time>
        <extensions>
          <gpxtpx:TrackPointExtension xmlns:gpxtpx="http://www.garmin.com/xmlschemas/TrackPointExtension/v1">
            <gpxtpx:hr>123</gpxtpx:hr>
          </gpxtpx:TrackPointExtension>
        </extensions>
      </trkpt>
      <trkpt lat="43.18791" lon="6.17277">
        <ele>288.79998779297</ele>
        <time>2023-05-24T09:26:08.000Z</time>
        <extensions>
          <gpxtpx:TrackPointExtension xmlns:gpxtpx="http://www.garmin.com/xmlschemas/TrackPointExtension/v1">
            <gpxtpx:hr>125</gpxtpx:hr>
          </gpxtpx:TrackPointExtension>
        </extensions>
      </trkpt>
      <trkpt lat="43.18788" lon="6.17294">
        <ele>290.60000610352</ele>
        <time>2023-05-24T09:26:13.000Z</time>
        <extensions>
          <gpxtpx:TrackPointExtension xmlns:gpxtpx="http://www.garmin.com/xmlschemas/TrackPointExtension/v1">
            <gpxtpx:hr>129</gpxtpx:hr>
          </gpxtpx:TrackPointExtension>
        </extensions>
      </trkpt>
      <trkpt lat="43.18788" lon="6.17298">
        <ele>291.20001220703</ele>
        <time>2023-05-24T09:26:14.000Z</time>
        <extensions>
          <gpxtpx:TrackPointExtension xmlns:gpxtpx="http://www.garmin.com/xmlschemas/TrackPointExtension/v1">
            <gpxtpx:hr>129</gpxtpx:hr>
          </gpxtpx:TrackPointExtension>
        </extensions>
      </trkpt>
      <trkpt lat="43.18784" lon="6.1732">
        <ele>295.20001220703</ele>
        <time>2023-05-24T09:26:20.000Z</time>
        <extensions>
          <gpxtpx:TrackPointExtension xmlns:gpxtpx="http://www.garmin.com/xmlschemas/TrackPointExtension/v1">
            <gpxtpx:hr>129</gpxtpx:hr>
          </gpxtpx:TrackPointExtension>
        </extensions>
      </trkpt>
      <trkpt lat="43.18781" lon="6.17342">
        <ele>298.39999389648</ele>
        <time>2023-05-24T09:26:27.000Z</time>
        <extensions>
          <gpxtpx:TrackPointExtension xmlns:gpxtpx="http://www.garmin.com/xmlschemas/TrackPointExtension/v1">
            <gpxtpx:hr>131</gpxtpx:hr>
          </gpxtpx:TrackPointExtension>
        </extensions>
      </trkpt>
      <trkpt lat="43.1878" lon="6.17369">
        <ele>301.79998779297</ele>
        <time>2023-05-24T09:26:36.000Z</time>
        <extensions>
          <gpxtpx:TrackPointExtension xmlns:gpxtpx="http://www.garmin.com/xmlschemas/TrackPointExtension/v1">
            <gpxtpx:hr>134</gpxtpx:hr>
          </gpxtpx:TrackPointExtension>
        </extensions>
      </trkpt>
      <trkpt lat="43.18776" lon="6.17383">
        <ele>302.39999389648</ele>
        <time>2023-05-24T09:26:41.000Z</time>
        <extensions>
          <gpxtpx:TrackPointExtension xmlns:gpxtpx="http://www.garmin.com/xmlschemas/TrackPointExtension/v1">
            <gpxtpx:hr>133</gpxtpx:hr>
          </gpxtpx:TrackPointExtension>
        </extensions>
      </trkpt>
      <trkpt lat="43.18775" lon="6.17388">
        <ele>302.20001220703</ele>
        <time>2023-05-24T09:26:46.000Z</time>
        <extensions>
          <gpxtpx:TrackPointExtension xmlns:gpxtpx="http://www.garmin.com/xmlschemas/TrackPointExtension/v1">
            <gpxtpx:hr>132</gpxtpx:hr>
          </gpxtpx:TrackPointExtension>
        </extensions>
      </trkpt>
      <trkpt lat="43.18775" lon="6.17388">
        <ele>302.20001220703</ele>
        <time>2023-05-24T09:26:57.000Z</time>
        <extensions>
          <gpxtpx:TrackPointExtension xmlns:gpxtpx="http://www.garmin.com/xmlschemas/TrackPointExtension/v1">
            <gpxtpx:hr>129</gpxtpx:hr>
          </gpxtpx:TrackPointExtension>
        </extensions>
      </trkpt>
      <trkpt lat="43.18775" lon="6.17388">
        <ele>302.20001220703</ele>
        <time>2023-05-24T09:27:03.000Z</time>
        <extensions>
          <gpxtpx:TrackPointExtension xmlns:gpxtpx="http://www.garmin.com/xmlschemas/TrackPointExtension/v1">
            <gpxtpx:hr>130</gpxtpx:hr>
          </gpxtpx:TrackPointExtension>
        </extensions>
      </trkpt>
      <trkpt lat="43.18775" lon="6.17388">
        <ele>302.20001220703</ele>
        <time>2023-05-24T09:27:13.000Z</time>
        <extensions>
          <gpxtpx:TrackPointExtension xmlns:gpxtpx="http://www.garmin.com/xmlschemas/TrackPointExtension/v1">
            <gpxtpx:hr>127</gpxtpx:hr>
          </gpxtpx:TrackPointExtension>
        </extensions>
      </trkpt>
      <trkpt lat="43.18775" lon="6.17388">
        <ele>302.20001220703</ele>
        <time>2023-05-24T09:27:18.000Z</time>
        <extensions>
          <gpxtpx:TrackPointExtension xmlns:gpxtpx="http://www.garmin.com/xmlschemas/TrackPointExtension/v1">
            <gpxtpx:hr>124</gpxtpx:hr>
          </gpxtpx:TrackPointExtension>
        </extensions>
      </trkpt>
      <trkpt lat="43.18775" lon="6.17388">
        <ele>302.20001220703</ele>
        <time>2023-05-24T09:27:22.000Z</time>
        <extensions>
          <gpxtpx:TrackPointExtension xmlns:gpxtpx="http://www.garmin.com/xmlschemas/TrackPointExtension/v1">
            <gpxtpx:hr>121</gpxtpx:hr>
          </gpxtpx:TrackPointExtension>
        </extensions>
      </trkpt>
      <trkpt lat="43.18775" lon="6.17388">
        <ele>302.20001220703</ele>
        <time>2023-05-24T09:27:24.000Z</time>
        <extensions>
          <gpxtpx:TrackPointExtension xmlns:gpxtpx="http://www.garmin.com/xmlschemas/TrackPointExtension/v1">
            <gpxtpx:hr>120</gpxtpx:hr>
          </gpxtpx:TrackPointExtension>
        </extensions>
      </trkpt>
      <trkpt lat="43.18775" lon="6.17388">
        <ele>302.20001220703</ele>
        <time>2023-05-24T09:27:33.000Z</time>
        <extensions>
          <gpxtpx:TrackPointExtension xmlns:gpxtpx="http://www.garmin.com/xmlschemas/TrackPointExtension/v1">
            <gpxtpx:hr>117</gpxtpx:hr>
          </gpxtpx:TrackPointExtension>
        </extensions>
      </trkpt>
      <trkpt lat="43.18775" lon="6.17388">
        <ele>302.20001220703</ele>
        <time>2023-05-24T09:27:40.000Z</time>
        <extensions>
          <gpxtpx:TrackPointExtension xmlns:gpxtpx="http://www.garmin.com/xmlschemas/TrackPointExtension/v1">
            <gpxtpx:hr>114</gpxtpx:hr>
          </gpxtpx:TrackPointExtension>
        </extensions>
      </trkpt>
      <trkpt lat="43.18775" lon="6.17388">
        <ele>302.20001220703</ele>
        <time>2023-05-24T09:27:45.000Z</time>
        <extensions>
          <gpxtpx:TrackPointExtension xmlns:gpxtpx="http://www.garmin.com/xmlschemas/TrackPointExtension/v1">
            <gpxtpx:hr>112</gpxtpx:hr>
          </gpxtpx:TrackPointExtension>
        </extensions>
      </trkpt>
      <trkpt lat="43.18775" lon="6.17388">
        <ele>302.20001220703</ele>
        <time>2023-05-24T09:27:58.000Z</time>
        <extensions>
          <gpxtpx:TrackPointExtension xmlns:gpxtpx="http://www.garmin.com/xmlschemas/TrackPointExtension/v1">
            <gpxtpx:hr>108</gpxtpx:hr>
          </gpxtpx:TrackPointExtension>
        </extensions>
      </trkpt>
      <trkpt lat="43.18775" lon="6.17388">
        <ele>302.20001220703</ele>
        <time>2023-05-24T09:28:00.000Z</time>
        <extensions>
          <gpxtpx:TrackPointExtension xmlns:gpxtpx="http://www.garmin.com/xmlschemas/TrackPointExtension/v1">
            <gpxtpx:hr>105</gpxtpx:hr>
          </gpxtpx:TrackPointExtension>
        </extensions>
      </trkpt>
      <trkpt lat="43.18775" lon="6.17388">
        <ele>302.20001220703</ele>
        <time>2023-05-24T09:28:03.000Z</time>
        <extensions>
          <gpxtpx:TrackPointExtension xmlns:gpxtpx="http://www.garmin.com/xmlschemas/TrackPointExtension/v1">
            <gpxtpx:hr>102</gpxtpx:hr>
          </gpxtpx:TrackPointExtension>
        </extensions>
      </trkpt>
      <trkpt lat="43.18775" lon="6.17388">
        <ele>302.20001220703</ele>
        <time>2023-05-24T09:28:04.000Z</time>
        <extensions>
          <gpxtpx:TrackPointExtension xmlns:gpxtpx="http://www.garmin.com/xmlschemas/TrackPointExtension/v1">
            <gpxtpx:hr>103</gpxtpx:hr>
          </gpxtpx:TrackPointExtension>
        </extensions>
      </trkpt>
      <trkpt lat="43.18771" lon="6.17398">
        <ele>302.20001220703</ele>
        <time>2023-05-24T09:28:09.000Z</time>
        <extensions>
          <gpxtpx:TrackPointExtension xmlns:gpxtpx="http://www.garmin.com/xmlschemas/TrackPointExtension/v1">
            <gpxtpx:hr>105</gpxtpx:hr>
          </gpxtpx:TrackPointExtension>
        </extensions>
      </trkpt>
      <trkpt lat="43.18763" lon="6.17417">
        <ele>300.20001220703</ele>
        <time>2023-05-24T09:28:13.000Z</time>
        <extensions>
          <gpxtpx:TrackPointExtension xmlns:gpxtpx="http://www.garmin.com/xmlschemas/TrackPointExtension/v1">
            <gpxtpx:hr>102</gpxtpx:hr>
          </gpxtpx:TrackPointExtension>
        </extensions>
      </trkpt>
      <trkpt lat="43.18759" lon="6.17427">
        <ele>298.39999389648</ele>
        <time>2023-05-24T09:28:15.000Z</time>
        <extensions>
          <gpxtpx:TrackPointExtension xmlns:gpxtpx="http://www.garmin.com/xmlschemas/TrackPointExtension/v1">
            <gpxtpx:hr>101</gpxtpx:hr>
          </gpxtpx:TrackPointExtension>
        </extensions>
      </trkpt>
      <trkpt lat="43.18752" lon="6.1744">
        <ele>298.79998779297</ele>
        <time>2023-05-24T09:28:18.000Z</time>
        <extensions>
          <gpxtpx:TrackPointExtension xmlns:gpxtpx="http://www.garmin.com/xmlschemas/TrackPointExtension/v1">
            <gpxtpx:hr>98</gpxtpx:hr>
          </gpxtpx:TrackPointExtension>
        </extensions>
      </trkpt>
      <trkpt lat="43.18749" lon="6.17445">
        <ele>298.60000610352</ele>
        <time>2023-05-24T09:28:20.000Z</time>
        <extensions>
          <gpxtpx:TrackPointExtension xmlns:gpxtpx="http://www.garmin.com/xmlschemas/TrackPointExtension/v1">
            <gpxtpx:hr>97</gpxtpx:hr>
          </gpxtpx:TrackPointExtension>
        </extensions>
      </trkpt>
      <trkpt lat="43.18748" lon="6.17446">
        <ele>298.79998779297</ele>
        <time>2023-05-24T09:28:24.000Z</time>
        <extensions>
          <gpxtpx:TrackPointExtension xmlns:gpxtpx="http://www.garmin.com/xmlschemas/TrackPointExtension/v1">
            <gpxtpx:hr>99</gpxtpx:hr>
          </gpxtpx:TrackPointExtension>
        </extensions>
      </trkpt>
      <trkpt lat="43.18746" lon="6.17449">
        <ele>299</ele>
        <time>2023-05-24T09:28:29.000Z</time>
        <extensions>
          <gpxtpx:TrackPointExtension xmlns:gpxtpx="http://www.garmin.com/xmlschemas/TrackPointExtension/v1">
            <gpxtpx:hr>100</gpxtpx:hr>
          </gpxtpx:TrackPointExtension>
        </extensions>
      </trkpt>
      <trkpt lat="43.18742" lon="6.17455">
        <ele>299.39999389648</ele>
        <time>2023-05-24T09:28:34.000Z</time>
        <extensions>
          <gpxtpx:TrackPointExtension xmlns:gpxtpx="http://www.garmin.com/xmlschemas/TrackPointExtension/v1">
            <gpxtpx:hr>102</gpxtpx:hr>
          </gpxtpx:TrackPointExtension>
        </extensions>
      </trkpt>
      <trkpt lat="43.18732" lon="6.17475">
        <ele>299</ele>
        <time>2023-05-24T09:28:40.000Z</time>
        <extensions>
          <gpxtpx:TrackPointExtension xmlns:gpxtpx="http://www.garmin.com/xmlschemas/TrackPointExtension/v1">
            <gpxtpx:hr>102</gpxtpx:hr>
          </gpxtpx:TrackPointExtension>
        </extensions>
      </trkpt>
      <trkpt lat="43.18729" lon="6.17485">
        <ele>299.60000610352</ele>
        <time>2023-05-24T09:28:43.000Z</time>
        <extensions>
          <gpxtpx:TrackPointExtension xmlns:gpxtpx="http://www.garmin.com/xmlschemas/TrackPointExtension/v1">
            <gpxtpx:hr>105</gpxtpx:hr>
          </gpxtpx:TrackPointExtension>
        </extensions>
      </trkpt>
      <trkpt lat="43.18725" lon="6.17498">
        <ele>299.60000610352</ele>
        <time>2023-05-24T09:28:47.000Z</time>
        <extensions>
          <gpxtpx:TrackPointExtension xmlns:gpxtpx="http://www.garmin.com/xmlschemas/TrackPointExtension/v1">
            <gpxtpx:hr>108</gpxtpx:hr>
          </gpxtpx:TrackPointExtension>
        </extensions>
      </trkpt>
      <trkpt lat="43.18724" lon="6.17509">
        <ele>300</ele>
        <time>2023-05-24T09:28:50.000Z</time>
        <extensions>
          <gpxtpx:TrackPointExtension xmlns:gpxtpx="http://www.garmin.com/xmlschemas/TrackPointExtension/v1">
            <gpxtpx:hr>111</gpxtpx:hr>
          </gpxtpx:TrackPointExtension>
        </extensions>
      </trkpt>
      <trkpt lat="43.18724" lon="6.1752">
        <ele>300.79998779297</ele>
        <time>2023-05-24T09:28:53.000Z</time>
        <extensions>
          <gpxtpx:TrackPointExtension xmlns:gpxtpx="http://www.garmin.com/xmlschemas/TrackPointExtension/v1">
            <gpxtpx:hr>112</gpxtpx:hr>
          </gpxtpx:TrackPointExtension>
        </extensions>
      </trkpt>
      <trkpt lat="43.18722" lon="6.17531">
        <ele>300.60000610352</ele>
        <time>2023-05-24T09:28:56.000Z</time>
        <extensions>
          <gpxtpx:TrackPointExtension xmlns:gpxtpx="http://www.garmin.com/xmlschemas/TrackPointExtension/v1">
            <gpxtpx:hr>115</gpxtpx:hr>
          </gpxtpx:TrackPointExtension>
        </extensions>
      </trkpt>
      <trkpt lat="43.18718" lon="6.17541">
        <ele>302.60000610352</ele>
        <time>2023-05-24T09:28:59.000Z</time>
        <extensions>
          <gpxtpx:TrackPointExtension xmlns:gpxtpx="http://www.garmin.com/xmlschemas/TrackPointExtension/v1">
            <gpxtpx:hr>116</gpxtpx:hr>
          </gpxtpx:TrackPointExtension>
        </extensions>
      </trkpt>
      <trkpt lat="43.1871" lon="6.17548">
        <ele>305.79998779297</ele>
        <time>2023-05-24T09:29:03.000Z</time>
        <extensions>
          <gpxtpx:TrackPointExtension xmlns:gpxtpx="http://www.garmin.com/xmlschemas/TrackPointExtension/v1">
            <gpxtpx:hr>119</gpxtpx:hr>
          </gpxtpx:TrackPointExtension>
        </extensions>
      </trkpt>
      <trkpt lat="43.18702" lon="6.17559">
        <ele>308.39999389648</ele>
        <time>2023-05-24T09:29:08.000Z</time>
        <extensions>
          <gpxtpx:TrackPointExtension xmlns:gpxtpx="http://www.garmin.com/xmlschemas/TrackPointExtension/v1">
            <gpxtpx:hr>122</gpxtpx:hr>
          </gpxtpx:TrackPointExtension>
        </extensions>
      </trkpt>
      <trkpt lat="43.187" lon="6.17561">
        <ele>309</ele>
        <time>2023-05-24T09:29:09.000Z</time>
        <extensions>
          <gpxtpx:TrackPointExtension xmlns:gpxtpx="http://www.garmin.com/xmlschemas/TrackPointExtension/v1">
            <gpxtpx:hr>122</gpxtpx:hr>
          </gpxtpx:TrackPointExtension>
        </extensions>
      </trkpt>
      <trkpt lat="43.18692" lon="6.17573">
        <ele>312.20001220703</ele>
        <time>2023-05-24T09:29:14.000Z</time>
        <extensions>
          <gpxtpx:TrackPointExtension xmlns:gpxtpx="http://www.garmin.com/xmlschemas/TrackPointExtension/v1">
            <gpxtpx:hr>125</gpxtpx:hr>
          </gpxtpx:TrackPointExtension>
        </extensions>
      </trkpt>
      <trkpt lat="43.18689" lon="6.17577">
        <ele>313</ele>
        <time>2023-05-24T09:29:16.000Z</time>
        <extensions>
          <gpxtpx:TrackPointExtension xmlns:gpxtpx="http://www.garmin.com/xmlschemas/TrackPointExtension/v1">
            <gpxtpx:hr>126</gpxtpx:hr>
          </gpxtpx:TrackPointExtension>
        </extensions>
      </trkpt>
      <trkpt lat="43.18684" lon="6.17589">
        <ele>316.79998779297</ele>
        <time>2023-05-24T09:29:21.000Z</time>
        <extensions>
          <gpxtpx:TrackPointExtension xmlns:gpxtpx="http://www.garmin.com/xmlschemas/TrackPointExtension/v1">
            <gpxtpx:hr>129</gpxtpx:hr>
          </gpxtpx:TrackPointExtension>
        </extensions>
      </trkpt>
      <trkpt lat="43.18683" lon="6.17591">
        <ele>317.20001220703</ele>
        <time>2023-05-24T09:29:22.000Z</time>
        <extensions>
          <gpxtpx:TrackPointExtension xmlns:gpxtpx="http://www.garmin.com/xmlschemas/TrackPointExtension/v1">
            <gpxtpx:hr>129</gpxtpx:hr>
          </gpxtpx:TrackPointExtension>
        </extensions>
      </trkpt>
      <trkpt lat="43.1868" lon="6.17602">
        <ele>319.39999389648</ele>
        <time>2023-05-24T09:29:26.000Z</time>
        <extensions>
          <gpxtpx:TrackPointExtension xmlns:gpxtpx="http://www.garmin.com/xmlschemas/TrackPointExtension/v1">
            <gpxtpx:hr>132</gpxtpx:hr>
          </gpxtpx:TrackPointExtension>
        </extensions>
      </trkpt>
      <trkpt lat="43.18679" lon="6.17606">
        <ele>319.60000610352</ele>
        <time>2023-05-24T09:29:28.000Z</time>
        <extensions>
          <gpxtpx:TrackPointExtension xmlns:gpxtpx="http://www.garmin.com/xmlschemas/TrackPointExtension/v1">
            <gpxtpx:hr>132</gpxtpx:hr>
          </gpxtpx:TrackPointExtension>
        </extensions>
      </trkpt>
      <trkpt lat="43.18676" lon="6.17613">
        <ele>320</ele>
        <time>2023-05-24T09:29:31.000Z</time>
        <extensions>
          <gpxtpx:TrackPointExtension xmlns:gpxtpx="http://www.garmin.com/xmlschemas/TrackPointExtension/v1">
            <gpxtpx:hr>135</gpxtpx:hr>
          </gpxtpx:TrackPointExtension>
        </extensions>
      </trkpt>
      <trkpt lat="43.18675" lon="6.17615">
        <ele>320.20001220703</ele>
        <time>2023-05-24T09:29:32.000Z</time>
        <extensions>
          <gpxtpx:TrackPointExtension xmlns:gpxtpx="http://www.garmin.com/xmlschemas/TrackPointExtension/v1">
            <gpxtpx:hr>132</gpxtpx:hr>
          </gpxtpx:TrackPointExtension>
        </extensions>
      </trkpt>
      <trkpt lat="43.18673" lon="6.17618">
        <ele>320.60000610352</ele>
        <time>2023-05-24T09:29:34.000Z</time>
        <extensions>
          <gpxtpx:TrackPointExtension xmlns:gpxtpx="http://www.garmin.com/xmlschemas/TrackPointExtension/v1">
            <gpxtpx:hr>134</gpxtpx:hr>
          </gpxtpx:TrackPointExtension>
        </extensions>
      </trkpt>
      <trkpt lat="43.18669" lon="6.17624">
        <ele>323.20001220703</ele>
        <time>2023-05-24T09:29:38.000Z</time>
        <extensions>
          <gpxtpx:TrackPointExtension xmlns:gpxtpx="http://www.garmin.com/xmlschemas/TrackPointExtension/v1">
            <gpxtpx:hr>137</gpxtpx:hr>
          </gpxtpx:TrackPointExtension>
        </extensions>
      </trkpt>
      <trkpt lat="43.18664" lon="6.17632">
        <ele>325.39999389648</ele>
        <time>2023-05-24T09:29:42.000Z</time>
        <extensions>
          <gpxtpx:TrackPointExtension xmlns:gpxtpx="http://www.garmin.com/xmlschemas/TrackPointExtension/v1">
            <gpxtpx:hr>139</gpxtpx:hr>
          </gpxtpx:TrackPointExtension>
        </extensions>
      </trkpt>
      <trkpt lat="43.18657" lon="6.17646">
        <ele>328.20001220703</ele>
        <time>2023-05-24T09:29:48.000Z</time>
        <extensions>
          <gpxtpx:TrackPointExtension xmlns:gpxtpx="http://www.garmin.com/xmlschemas/TrackPointExtension/v1">
            <gpxtpx:hr>141</gpxtpx:hr>
          </gpxtpx:TrackPointExtension>
        </extensions>
      </trkpt>
      <trkpt lat="43.18656" lon="6.17648">
        <ele>328.60000610352</ele>
        <time>2023-05-24T09:29:49.000Z</time>
        <extensions>
          <gpxtpx:TrackPointExtension xmlns:gpxtpx="http://www.garmin.com/xmlschemas/TrackPointExtension/v1">
            <gpxtpx:hr>141</gpxtpx:hr>
          </gpxtpx:TrackPointExtension>
        </extensions>
      </trkpt>
      <trkpt lat="43.18649" lon="6.17654">
        <ele>330.60000610352</ele>
        <time>2023-05-24T09:29:53.000Z</time>
        <extensions>
          <gpxtpx:TrackPointExtension xmlns:gpxtpx="http://www.garmin.com/xmlschemas/TrackPointExtension/v1">
            <gpxtpx:hr>142</gpxtpx:hr>
          </gpxtpx:TrackPointExtension>
        </extensions>
      </trkpt>
      <trkpt lat="43.18635" lon="6.17666">
        <ele>335.20001220703</ele>
        <time>2023-05-24T09:30:01.000Z</time>
        <extensions>
          <gpxtpx:TrackPointExtension xmlns:gpxtpx="http://www.garmin.com/xmlschemas/TrackPointExtension/v1">
            <gpxtpx:hr>143</gpxtpx:hr>
          </gpxtpx:TrackPointExtension>
        </extensions>
      </trkpt>
      <trkpt lat="43.1863" lon="6.1767">
        <ele>337.39999389648</ele>
        <time>2023-05-24T09:30:04.000Z</time>
        <extensions>
          <gpxtpx:TrackPointExtension xmlns:gpxtpx="http://www.garmin.com/xmlschemas/TrackPointExtension/v1">
            <gpxtpx:hr>143</gpxtpx:hr>
          </gpxtpx:TrackPointExtension>
        </extensions>
      </trkpt>
      <trkpt lat="43.18628" lon="6.17674">
        <ele>337.79998779297</ele>
        <time>2023-05-24T09:30:06.000Z</time>
        <extensions>
          <gpxtpx:TrackPointExtension xmlns:gpxtpx="http://www.garmin.com/xmlschemas/TrackPointExtension/v1">
            <gpxtpx:hr>143</gpxtpx:hr>
          </gpxtpx:TrackPointExtension>
        </extensions>
      </trkpt>
      <trkpt lat="43.18619" lon="6.17691">
        <ele>340.20001220703</ele>
        <time>2023-05-24T09:30:14.000Z</time>
        <extensions>
          <gpxtpx:TrackPointExtension xmlns:gpxtpx="http://www.garmin.com/xmlschemas/TrackPointExtension/v1">
            <gpxtpx:hr>145</gpxtpx:hr>
          </gpxtpx:TrackPointExtension>
        </extensions>
      </trkpt>
      <trkpt lat="43.18618" lon="6.17692">
        <ele>340.39999389648</ele>
        <time>2023-05-24T09:30:19.000Z</time>
        <extensions>
          <gpxtpx:TrackPointExtension xmlns:gpxtpx="http://www.garmin.com/xmlschemas/TrackPointExtension/v1">
            <gpxtpx:hr>144</gpxtpx:hr>
          </gpxtpx:TrackPointExtension>
        </extensions>
      </trkpt>
      <trkpt lat="43.18618" lon="6.17692">
        <ele>340.39999389648</ele>
        <time>2023-05-24T09:30:26.000Z</time>
        <extensions>
          <gpxtpx:TrackPointExtension xmlns:gpxtpx="http://www.garmin.com/xmlschemas/TrackPointExtension/v1">
            <gpxtpx:hr>141</gpxtpx:hr>
          </gpxtpx:TrackPointExtension>
        </extensions>
      </trkpt>
      <trkpt lat="43.18618" lon="6.17692">
        <ele>340.39999389648</ele>
        <time>2023-05-24T09:30:32.000Z</time>
        <extensions>
          <gpxtpx:TrackPointExtension xmlns:gpxtpx="http://www.garmin.com/xmlschemas/TrackPointExtension/v1">
            <gpxtpx:hr>138</gpxtpx:hr>
          </gpxtpx:TrackPointExtension>
        </extensions>
      </trkpt>
      <trkpt lat="43.18618" lon="6.17692">
        <ele>340.39999389648</ele>
        <time>2023-05-24T09:30:35.000Z</time>
        <extensions>
          <gpxtpx:TrackPointExtension xmlns:gpxtpx="http://www.garmin.com/xmlschemas/TrackPointExtension/v1">
            <gpxtpx:hr>138</gpxtpx:hr>
          </gpxtpx:TrackPointExtension>
        </extensions>
      </trkpt>
      <trkpt lat="43.18618" lon="6.17692">
        <ele>340.39999389648</ele>
        <time>2023-05-24T09:30:43.000Z</time>
        <extensions>
          <gpxtpx:TrackPointExtension xmlns:gpxtpx="http://www.garmin.com/xmlschemas/TrackPointExtension/v1">
            <gpxtpx:hr>135</gpxtpx:hr>
          </gpxtpx:TrackPointExtension>
        </extensions>
      </trkpt>
      <trkpt lat="43.18618" lon="6.17692">
        <ele>340.39999389648</ele>
        <time>2023-05-24T09:30:50.000Z</time>
        <extensions>
          <gpxtpx:TrackPointExtension xmlns:gpxtpx="http://www.garmin.com/xmlschemas/TrackPointExtension/v1">
            <gpxtpx:hr>132</gpxtpx:hr>
          </gpxtpx:TrackPointExtension>
        </extensions>
      </trkpt>
      <trkpt lat="43.18618" lon="6.17692">
        <ele>340.39999389648</ele>
        <time>2023-05-24T09:30:53.000Z</time>
        <extensions>
          <gpxtpx:TrackPointExtension xmlns:gpxtpx="http://www.garmin.com/xmlschemas/TrackPointExtension/v1">
            <gpxtpx:hr>131</gpxtpx:hr>
          </gpxtpx:TrackPointExtension>
        </extensions>
      </trkpt>
      <trkpt lat="43.18618" lon="6.17692">
        <ele>340.39999389648</ele>
        <time>2023-05-24T09:30:58.000Z</time>
        <extensions>
          <gpxtpx:TrackPointExtension xmlns:gpxtpx="http://www.garmin.com/xmlschemas/TrackPointExtension/v1">
            <gpxtpx:hr>128</gpxtpx:hr>
          </gpxtpx:TrackPointExtension>
        </extensions>
      </trkpt>
      <trkpt lat="43.18618" lon="6.17692">
        <ele>340.39999389648</ele>
        <time>2023-05-24T09:31:04.000Z</time>
        <extensions>
          <gpxtpx:TrackPointExtension xmlns:gpxtpx="http://www.garmin.com/xmlschemas/TrackPointExtension/v1">
            <gpxtpx:hr>125</gpxtpx:hr>
          </gpxtpx:TrackPointExtension>
        </extensions>
      </trkpt>
      <trkpt lat="43.18618" lon="6.17692">
        <ele>340.39999389648</ele>
        <time>2023-05-24T09:31:08.000Z</time>
        <extensions>
          <gpxtpx:TrackPointExtension xmlns:gpxtpx="http://www.garmin.com/xmlschemas/TrackPointExtension/v1">
            <gpxtpx:hr>122</gpxtpx:hr>
          </gpxtpx:TrackPointExtension>
        </extensions>
      </trkpt>
      <trkpt lat="43.18618" lon="6.17692">
        <ele>340.39999389648</ele>
        <time>2023-05-24T09:31:11.000Z</time>
        <extensions>
          <gpxtpx:TrackPointExtension xmlns:gpxtpx="http://www.garmin.com/xmlschemas/TrackPointExtension/v1">
            <gpxtpx:hr>119</gpxtpx:hr>
          </gpxtpx:TrackPointExtension>
        </extensions>
      </trkpt>
      <trkpt lat="43.18618" lon="6.17692">
        <ele>340.39999389648</ele>
        <time>2023-05-24T09:31:26.000Z</time>
        <extensions>
          <gpxtpx:TrackPointExtension xmlns:gpxtpx="http://www.garmin.com/xmlschemas/TrackPointExtension/v1">
            <gpxtpx:hr>116</gpxtpx:hr>
          </gpxtpx:TrackPointExtension>
        </extensions>
      </trkpt>
      <trkpt lat="43.18618" lon="6.17692">
        <ele>340.39999389648</ele>
        <time>2023-05-24T09:31:31.000Z</time>
        <extensions>
          <gpxtpx:TrackPointExtension xmlns:gpxtpx="http://www.garmin.com/xmlschemas/TrackPointExtension/v1">
            <gpxtpx:hr>113</gpxtpx:hr>
          </gpxtpx:TrackPointExtension>
        </extensions>
      </trkpt>
      <trkpt lat="43.18618" lon="6.17692">
        <ele>340.39999389648</ele>
        <time>2023-05-24T09:31:34.000Z</time>
        <extensions>
          <gpxtpx:TrackPointExtension xmlns:gpxtpx="http://www.garmin.com/xmlschemas/TrackPointExtension/v1">
            <gpxtpx:hr>112</gpxtpx:hr>
          </gpxtpx:TrackPointExtension>
        </extensions>
      </trkpt>
      <trkpt lat="43.18618" lon="6.17692">
        <ele>340.20001220703</ele>
        <time>2023-05-24T09:31:41.000Z</time>
        <extensions>
          <gpxtpx:TrackPointExtension xmlns:gpxtpx="http://www.garmin.com/xmlschemas/TrackPointExtension/v1">
            <gpxtpx:hr>109</gpxtpx:hr>
          </gpxtpx:TrackPointExtension>
        </extensions>
      </trkpt>
      <trkpt lat="43.18618" lon="6.17692">
        <ele>340.20001220703</ele>
        <time>2023-05-24T09:31:46.000Z</time>
        <extensions>
          <gpxtpx:TrackPointExtension xmlns:gpxtpx="http://www.garmin.com/xmlschemas/TrackPointExtension/v1">
            <gpxtpx:hr>108</gpxtpx:hr>
          </gpxtpx:TrackPointExtension>
        </extensions>
      </trkpt>
      <trkpt lat="43.18618" lon="6.17692">
        <ele>340.20001220703</ele>
        <time>2023-05-24T09:32:05.000Z</time>
        <extensions>
          <gpxtpx:TrackPointExtension xmlns:gpxtpx="http://www.garmin.com/xmlschemas/TrackPointExtension/v1">
            <gpxtpx:hr>106</gpxtpx:hr>
          </gpxtpx:TrackPointExtension>
        </extensions>
      </trkpt>
      <trkpt lat="43.18618" lon="6.17692">
        <ele>340.20001220703</ele>
        <time>2023-05-24T09:32:19.000Z</time>
        <extensions>
          <gpxtpx:TrackPointExtension xmlns:gpxtpx="http://www.garmin.com/xmlschemas/TrackPointExtension/v1">
            <gpxtpx:hr>103</gpxtpx:hr>
          </gpxtpx:TrackPointExtension>
        </extensions>
      </trkpt>
      <trkpt lat="43.18618" lon="6.17692">
        <ele>340.20001220703</ele>
        <time>2023-05-24T09:32:30.000Z</time>
        <extensions>
          <gpxtpx:TrackPointExtension xmlns:gpxtpx="http://www.garmin.com/xmlschemas/TrackPointExtension/v1">
            <gpxtpx:hr>106</gpxtpx:hr>
          </gpxtpx:TrackPointExtension>
        </extensions>
      </trkpt>
      <trkpt lat="43.18618" lon="6.17692">
        <ele>340.20001220703</ele>
        <time>2023-05-24T09:32:33.000Z</time>
        <extensions>
          <gpxtpx:TrackPointExtension xmlns:gpxtpx="http://www.garmin.com/xmlschemas/TrackPointExtension/v1">
            <gpxtpx:hr>109</gpxtpx:hr>
          </gpxtpx:TrackPointExtension>
        </extensions>
      </trkpt>
      <trkpt lat="43.18615" lon="6.17699">
        <ele>340.60000610352</ele>
        <time>2023-05-24T09:32:36.000Z</time>
        <extensions>
          <gpxtpx:TrackPointExtension xmlns:gpxtpx="http://www.garmin.com/xmlschemas/TrackPointExtension/v1">
            <gpxtpx:hr>112</gpxtpx:hr>
          </gpxtpx:TrackPointExtension>
        </extensions>
      </trkpt>
      <trkpt lat="43.18612" lon="6.17704">
        <ele>341.79998779297</ele>
        <time>2023-05-24T09:32:38.000Z</time>
        <extensions>
          <gpxtpx:TrackPointExtension xmlns:gpxtpx="http://www.garmin.com/xmlschemas/TrackPointExtension/v1">
            <gpxtpx:hr>113</gpxtpx:hr>
          </gpxtpx:TrackPointExtension>
        </extensions>
      </trkpt>
      <trkpt lat="43.18606" lon="6.17718">
        <ele>343.79998779297</ele>
        <time>2023-05-24T09:32:44.000Z</time>
        <extensions>
          <gpxtpx:TrackPointExtension xmlns:gpxtpx="http://www.garmin.com/xmlschemas/TrackPointExtension/v1">
            <gpxtpx:hr>115</gpxtpx:hr>
          </gpxtpx:TrackPointExtension>
        </extensions>
      </trkpt>
      <trkpt lat="43.18606" lon="6.17718">
        <ele>343.79998779297</ele>
        <time>2023-05-24T09:32:56.000Z</time>
        <extensions>
          <gpxtpx:TrackPointExtension xmlns:gpxtpx="http://www.garmin.com/xmlschemas/TrackPointExtension/v1">
            <gpxtpx:hr>113</gpxtpx:hr>
          </gpxtpx:TrackPointExtension>
        </extensions>
      </trkpt>
      <trkpt lat="43.18606" lon="6.17718">
        <ele>343.79998779297</ele>
        <time>2023-05-24T09:33:15.000Z</time>
        <extensions>
          <gpxtpx:TrackPointExtension xmlns:gpxtpx="http://www.garmin.com/xmlschemas/TrackPointExtension/v1">
            <gpxtpx:hr>115</gpxtpx:hr>
          </gpxtpx:TrackPointExtension>
        </extensions>
      </trkpt>
      <trkpt lat="43.18606" lon="6.17718">
        <ele>343.79998779297</ele>
        <time>2023-05-24T09:33:21.000Z</time>
        <extensions>
          <gpxtpx:TrackPointExtension xmlns:gpxtpx="http://www.garmin.com/xmlschemas/TrackPointExtension/v1">
            <gpxtpx:hr>112</gpxtpx:hr>
          </gpxtpx:TrackPointExtension>
        </extensions>
      </trkpt>
      <trkpt lat="43.18606" lon="6.17718">
        <ele>343.79998779297</ele>
        <time>2023-05-24T09:33:26.000Z</time>
        <extensions>
          <gpxtpx:TrackPointExtension xmlns:gpxtpx="http://www.garmin.com/xmlschemas/TrackPointExtension/v1">
            <gpxtpx:hr>109</gpxtpx:hr>
          </gpxtpx:TrackPointExtension>
        </extensions>
      </trkpt>
      <trkpt lat="43.18606" lon="6.17718">
        <ele>343.79998779297</ele>
        <time>2023-05-24T09:33:36.000Z</time>
        <extensions>
          <gpxtpx:TrackPointExtension xmlns:gpxtpx="http://www.garmin.com/xmlschemas/TrackPointExtension/v1">
            <gpxtpx:hr>110</gpxtpx:hr>
          </gpxtpx:TrackPointExtension>
        </extensions>
      </trkpt>
      <trkpt lat="43.18606" lon="6.17718">
        <ele>343.79998779297</ele>
        <time>2023-05-24T09:33:51.000Z</time>
        <extensions>
          <gpxtpx:TrackPointExtension xmlns:gpxtpx="http://www.garmin.com/xmlschemas/TrackPointExtension/v1">
            <gpxtpx:hr>109</gpxtpx:hr>
          </gpxtpx:TrackPointExtension>
        </extensions>
      </trkpt>
      <trkpt lat="43.18606" lon="6.1772">
        <ele>344.20001220703</ele>
        <time>2023-05-24T09:34:00.000Z</time>
        <extensions>
          <gpxtpx:TrackPointExtension xmlns:gpxtpx="http://www.garmin.com/xmlschemas/TrackPointExtension/v1">
            <gpxtpx:hr>109</gpxtpx:hr>
          </gpxtpx:TrackPointExtension>
        </extensions>
      </trkpt>
      <trkpt lat="43.18605" lon="6.1773">
        <ele>344.60000610352</ele>
        <time>2023-05-24T09:34:05.000Z</time>
        <extensions>
          <gpxtpx:TrackPointExtension xmlns:gpxtpx="http://www.garmin.com/xmlschemas/TrackPointExtension/v1">
            <gpxtpx:hr>108</gpxtpx:hr>
          </gpxtpx:TrackPointExtension>
        </extensions>
      </trkpt>
      <trkpt lat="43.18605" lon="6.17732">
        <ele>345</ele>
        <time>2023-05-24T09:34:06.000Z</time>
        <extensions>
          <gpxtpx:TrackPointExtension xmlns:gpxtpx="http://www.garmin.com/xmlschemas/TrackPointExtension/v1">
            <gpxtpx:hr>108</gpxtpx:hr>
          </gpxtpx:TrackPointExtension>
        </extensions>
      </trkpt>
      <trkpt lat="43.18604" lon="6.17746">
        <ele>345.20001220703</ele>
        <time>2023-05-24T09:34:13.000Z</time>
        <extensions>
          <gpxtpx:TrackPointExtension xmlns:gpxtpx="http://www.garmin.com/xmlschemas/TrackPointExtension/v1">
            <gpxtpx:hr>108</gpxtpx:hr>
          </gpxtpx:TrackPointExtension>
        </extensions>
      </trkpt>
      <trkpt lat="43.18607" lon="6.17768">
        <ele>342.79998779297</ele>
        <time>2023-05-24T09:34:19.000Z</time>
        <extensions>
          <gpxtpx:TrackPointExtension xmlns:gpxtpx="http://www.garmin.com/xmlschemas/TrackPointExtension/v1">
            <gpxtpx:hr>106</gpxtpx:hr>
          </gpxtpx:TrackPointExtension>
        </extensions>
      </trkpt>
      <trkpt lat="43.18612" lon="6.17795">
        <ele>339.39999389648</ele>
        <time>2023-05-24T09:34:23.000Z</time>
        <extensions>
          <gpxtpx:TrackPointExtension xmlns:gpxtpx="http://www.garmin.com/xmlschemas/TrackPointExtension/v1">
            <gpxtpx:hr>105</gpxtpx:hr>
          </gpxtpx:TrackPointExtension>
        </extensions>
      </trkpt>
      <trkpt lat="43.18618" lon="6.17823">
        <ele>338</ele>
        <time>2023-05-24T09:34:26.000Z</time>
        <extensions>
          <gpxtpx:TrackPointExtension xmlns:gpxtpx="http://www.garmin.com/xmlschemas/TrackPointExtension/v1">
            <gpxtpx:hr>105</gpxtpx:hr>
          </gpxtpx:TrackPointExtension>
        </extensions>
      </trkpt>
      <trkpt lat="43.18624" lon="6.17845">
        <ele>338.20001220703</ele>
        <time>2023-05-24T09:34:28.000Z</time>
        <extensions>
          <gpxtpx:TrackPointExtension xmlns:gpxtpx="http://www.garmin.com/xmlschemas/TrackPointExtension/v1">
            <gpxtpx:hr>106</gpxtpx:hr>
          </gpxtpx:TrackPointExtension>
        </extensions>
      </trkpt>
      <trkpt lat="43.18639" lon="6.17895">
        <ele>336.39999389648</ele>
        <time>2023-05-24T09:34:33.000Z</time>
        <extensions>
          <gpxtpx:TrackPointExtension xmlns:gpxtpx="http://www.garmin.com/xmlschemas/TrackPointExtension/v1">
            <gpxtpx:hr>107</gpxtpx:hr>
          </gpxtpx:TrackPointExtension>
        </extensions>
      </trkpt>
      <trkpt lat="43.18642" lon="6.17903">
        <ele>336.39999389648</ele>
        <time>2023-05-24T09:34:34.000Z</time>
        <extensions>
          <gpxtpx:TrackPointExtension xmlns:gpxtpx="http://www.garmin.com/xmlschemas/TrackPointExtension/v1">
            <gpxtpx:hr>107</gpxtpx:hr>
          </gpxtpx:TrackPointExtension>
        </extensions>
      </trkpt>
      <trkpt lat="43.18659" lon="6.17938">
        <ele>338.20001220703</ele>
        <time>2023-05-24T09:34:39.000Z</time>
        <extensions>
          <gpxtpx:TrackPointExtension xmlns:gpxtpx="http://www.garmin.com/xmlschemas/TrackPointExtension/v1">
            <gpxtpx:hr>106</gpxtpx:hr>
          </gpxtpx:TrackPointExtension>
        </extensions>
      </trkpt>
      <trkpt lat="43.18666" lon="6.17957">
        <ele>338.39999389648</ele>
        <time>2023-05-24T09:34:43.000Z</time>
        <extensions>
          <gpxtpx:TrackPointExtension xmlns:gpxtpx="http://www.garmin.com/xmlschemas/TrackPointExtension/v1">
            <gpxtpx:hr>108</gpxtpx:hr>
          </gpxtpx:TrackPointExtension>
        </extensions>
      </trkpt>
      <trkpt lat="43.18676" lon="6.17981">
        <ele>339.39999389648</ele>
        <time>2023-05-24T09:34:49.000Z</time>
        <extensions>
          <gpxtpx:TrackPointExtension xmlns:gpxtpx="http://www.garmin.com/xmlschemas/TrackPointExtension/v1">
            <gpxtpx:hr>112</gpxtpx:hr>
          </gpxtpx:TrackPointExtension>
        </extensions>
      </trkpt>
      <trkpt lat="43.18678" lon="6.17985">
        <ele>339.39999389648</ele>
        <time>2023-05-24T09:34:50.000Z</time>
        <extensions>
          <gpxtpx:TrackPointExtension xmlns:gpxtpx="http://www.garmin.com/xmlschemas/TrackPointExtension/v1">
            <gpxtpx:hr>116</gpxtpx:hr>
          </gpxtpx:TrackPointExtension>
        </extensions>
      </trkpt>
      <trkpt lat="43.1868" lon="6.17988">
        <ele>339.39999389648</ele>
        <time>2023-05-24T09:34:51.000Z</time>
        <extensions>
          <gpxtpx:TrackPointExtension xmlns:gpxtpx="http://www.garmin.com/xmlschemas/TrackPointExtension/v1">
            <gpxtpx:hr>116</gpxtpx:hr>
          </gpxtpx:TrackPointExtension>
        </extensions>
      </trkpt>
      <trkpt lat="43.18683" lon="6.17995">
        <ele>340</ele>
        <time>2023-05-24T09:34:53.000Z</time>
        <extensions>
          <gpxtpx:TrackPointExtension xmlns:gpxtpx="http://www.garmin.com/xmlschemas/TrackPointExtension/v1">
            <gpxtpx:hr>116</gpxtpx:hr>
          </gpxtpx:TrackPointExtension>
        </extensions>
      </trkpt>
      <trkpt lat="43.18686" lon="6.18016">
        <ele>343.20001220703</ele>
        <time>2023-05-24T09:34:59.000Z</time>
        <extensions>
          <gpxtpx:TrackPointExtension xmlns:gpxtpx="http://www.garmin.com/xmlschemas/TrackPointExtension/v1">
            <gpxtpx:hr>117</gpxtpx:hr>
          </gpxtpx:TrackPointExtension>
        </extensions>
      </trkpt>
      <trkpt lat="43.18684" lon="6.18028">
        <ele>345.39999389648</ele>
        <time>2023-05-24T09:35:04.000Z</time>
        <extensions>
          <gpxtpx:TrackPointExtension xmlns:gpxtpx="http://www.garmin.com/xmlschemas/TrackPointExtension/v1">
            <gpxtpx:hr>120</gpxtpx:hr>
          </gpxtpx:TrackPointExtension>
        </extensions>
      </trkpt>
      <trkpt lat="43.18679" lon="6.18035">
        <ele>346.60000610352</ele>
        <time>2023-05-24T09:35:07.000Z</time>
        <extensions>
          <gpxtpx:TrackPointExtension xmlns:gpxtpx="http://www.garmin.com/xmlschemas/TrackPointExtension/v1">
            <gpxtpx:hr>124</gpxtpx:hr>
          </gpxtpx:TrackPointExtension>
        </extensions>
      </trkpt>
      <trkpt lat="43.18677" lon="6.18037">
        <ele>347</ele>
        <time>2023-05-24T09:35:08.000Z</time>
        <extensions>
          <gpxtpx:TrackPointExtension xmlns:gpxtpx="http://www.garmin.com/xmlschemas/TrackPointExtension/v1">
            <gpxtpx:hr>121</gpxtpx:hr>
          </gpxtpx:TrackPointExtension>
        </extensions>
      </trkpt>
      <trkpt lat="43.18673" lon="6.18041">
        <ele>347.60000610352</ele>
        <time>2023-05-24T09:35:10.000Z</time>
        <extensions>
          <gpxtpx:TrackPointExtension xmlns:gpxtpx="http://www.garmin.com/xmlschemas/TrackPointExtension/v1">
            <gpxtpx:hr>123</gpxtpx:hr>
          </gpxtpx:TrackPointExtension>
        </extensions>
      </trkpt>
      <trkpt lat="43.18664" lon="6.18061">
        <ele>350.20001220703</ele>
        <time>2023-05-24T09:35:15.000Z</time>
        <extensions>
          <gpxtpx:TrackPointExtension xmlns:gpxtpx="http://www.garmin.com/xmlschemas/TrackPointExtension/v1">
            <gpxtpx:hr>125</gpxtpx:hr>
          </gpxtpx:TrackPointExtension>
        </extensions>
      </trkpt>
      <trkpt lat="43.18661" lon="6.18074">
        <ele>351</ele>
        <time>2023-05-24T09:35:17.000Z</time>
        <extensions>
          <gpxtpx:TrackPointExtension xmlns:gpxtpx="http://www.garmin.com/xmlschemas/TrackPointExtension/v1">
            <gpxtpx:hr>125</gpxtpx:hr>
          </gpxtpx:TrackPointExtension>
        </extensions>
      </trkpt>
      <trkpt lat="43.1866" lon="6.18088">
        <ele>351.39999389648</ele>
        <time>2023-05-24T09:35:19.000Z</time>
        <extensions>
          <gpxtpx:TrackPointExtension xmlns:gpxtpx="http://www.garmin.com/xmlschemas/TrackPointExtension/v1">
            <gpxtpx:hr>125</gpxtpx:hr>
          </gpxtpx:TrackPointExtension>
        </extensions>
      </trkpt>
      <trkpt lat="43.18665" lon="6.18107">
        <ele>352.20001220703</ele>
        <time>2023-05-24T09:35:23.000Z</time>
        <extensions>
          <gpxtpx:TrackPointExtension xmlns:gpxtpx="http://www.garmin.com/xmlschemas/TrackPointExtension/v1">
            <gpxtpx:hr>128</gpxtpx:hr>
          </gpxtpx:TrackPointExtension>
        </extensions>
      </trkpt>
      <trkpt lat="43.18677" lon="6.18121">
        <ele>352.60000610352</ele>
        <time>2023-05-24T09:35:28.000Z</time>
        <extensions>
          <gpxtpx:TrackPointExtension xmlns:gpxtpx="http://www.garmin.com/xmlschemas/TrackPointExtension/v1">
            <gpxtpx:hr>129</gpxtpx:hr>
          </gpxtpx:TrackPointExtension>
        </extensions>
      </trkpt>
      <trkpt lat="43.18683" lon="6.18129">
        <ele>352.79998779297</ele>
        <time>2023-05-24T09:35:31.000Z</time>
        <extensions>
          <gpxtpx:TrackPointExtension xmlns:gpxtpx="http://www.garmin.com/xmlschemas/TrackPointExtension/v1">
            <gpxtpx:hr>132</gpxtpx:hr>
          </gpxtpx:TrackPointExtension>
        </extensions>
      </trkpt>
      <trkpt lat="43.18688" lon="6.18136">
        <ele>352.60000610352</ele>
        <time>2023-05-24T09:35:33.000Z</time>
        <extensions>
          <gpxtpx:TrackPointExtension xmlns:gpxtpx="http://www.garmin.com/xmlschemas/TrackPointExtension/v1">
            <gpxtpx:hr>133</gpxtpx:hr>
          </gpxtpx:TrackPointExtension>
        </extensions>
      </trkpt>
      <trkpt lat="43.187" lon="6.18158">
        <ele>350</ele>
        <time>2023-05-24T09:35:39.000Z</time>
        <extensions>
          <gpxtpx:TrackPointExtension xmlns:gpxtpx="http://www.garmin.com/xmlschemas/TrackPointExtension/v1">
            <gpxtpx:hr>137</gpxtpx:hr>
          </gpxtpx:TrackPointExtension>
        </extensions>
      </trkpt>
      <trkpt lat="43.18703" lon="6.18166">
        <ele>349.20001220703</ele>
        <time>2023-05-24T09:35:42.000Z</time>
        <extensions>
          <gpxtpx:TrackPointExtension xmlns:gpxtpx="http://www.garmin.com/xmlschemas/TrackPointExtension/v1">
            <gpxtpx:hr>136</gpxtpx:hr>
          </gpxtpx:TrackPointExtension>
        </extensions>
      </trkpt>
      <trkpt lat="43.18707" lon="6.18174">
        <ele>348.39999389648</ele>
        <time>2023-05-24T09:35:48.000Z</time>
        <extensions>
          <gpxtpx:TrackPointExtension xmlns:gpxtpx="http://www.garmin.com/xmlschemas/TrackPointExtension/v1">
            <gpxtpx:hr>134</gpxtpx:hr>
          </gpxtpx:TrackPointExtension>
        </extensions>
      </trkpt>
      <trkpt lat="43.18709" lon="6.18177">
        <ele>348</ele>
        <time>2023-05-24T09:36:02.000Z</time>
        <extensions>
          <gpxtpx:TrackPointExtension xmlns:gpxtpx="http://www.garmin.com/xmlschemas/TrackPointExtension/v1">
            <gpxtpx:hr>132</gpxtpx:hr>
          </gpxtpx:TrackPointExtension>
        </extensions>
      </trkpt>
      <trkpt lat="43.18716" lon="6.1819">
        <ele>345.79998779297</ele>
        <time>2023-05-24T09:36:07.000Z</time>
        <extensions>
          <gpxtpx:TrackPointExtension xmlns:gpxtpx="http://www.garmin.com/xmlschemas/TrackPointExtension/v1">
            <gpxtpx:hr>132</gpxtpx:hr>
          </gpxtpx:TrackPointExtension>
        </extensions>
      </trkpt>
      <trkpt lat="43.18728" lon="6.18207">
        <ele>341.39999389648</ele>
        <time>2023-05-24T09:36:13.000Z</time>
        <extensions>
          <gpxtpx:TrackPointExtension xmlns:gpxtpx="http://www.garmin.com/xmlschemas/TrackPointExtension/v1">
            <gpxtpx:hr>131</gpxtpx:hr>
          </gpxtpx:TrackPointExtension>
        </extensions>
      </trkpt>
      <trkpt lat="43.18736" lon="6.18224">
        <ele>338</ele>
        <time>2023-05-24T09:36:18.000Z</time>
        <extensions>
          <gpxtpx:TrackPointExtension xmlns:gpxtpx="http://www.garmin.com/xmlschemas/TrackPointExtension/v1">
            <gpxtpx:hr>130</gpxtpx:hr>
          </gpxtpx:TrackPointExtension>
        </extensions>
      </trkpt>
      <trkpt lat="43.18755" lon="6.18242">
        <ele>333</ele>
        <time>2023-05-24T09:36:24.000Z</time>
        <extensions>
          <gpxtpx:TrackPointExtension xmlns:gpxtpx="http://www.garmin.com/xmlschemas/TrackPointExtension/v1">
            <gpxtpx:hr>129</gpxtpx:hr>
          </gpxtpx:TrackPointExtension>
        </extensions>
      </trkpt>
      <trkpt lat="43.18776" lon="6.18264">
        <ele>326.60000610352</ele>
        <time>2023-05-24T09:36:29.000Z</time>
        <extensions>
          <gpxtpx:TrackPointExtension xmlns:gpxtpx="http://www.garmin.com/xmlschemas/TrackPointExtension/v1">
            <gpxtpx:hr>128</gpxtpx:hr>
          </gpxtpx:TrackPointExtension>
        </extensions>
      </trkpt>
      <trkpt lat="43.18798" lon="6.18287">
        <ele>320.20001220703</ele>
        <time>2023-05-24T09:36:34.000Z</time>
        <extensions>
          <gpxtpx:TrackPointExtension xmlns:gpxtpx="http://www.garmin.com/xmlschemas/TrackPointExtension/v1">
            <gpxtpx:hr>127</gpxtpx:hr>
          </gpxtpx:TrackPointExtension>
        </extensions>
      </trkpt>
      <trkpt lat="43.18801" lon="6.1829">
        <ele>319.60000610352</ele>
        <time>2023-05-24T09:36:37.000Z</time>
        <extensions>
          <gpxtpx:TrackPointExtension xmlns:gpxtpx="http://www.garmin.com/xmlschemas/TrackPointExtension/v1">
            <gpxtpx:hr>127</gpxtpx:hr>
          </gpxtpx:TrackPointExtension>
        </extensions>
      </trkpt>
      <trkpt lat="43.18801" lon="6.1829">
        <ele>319.60000610352</ele>
        <time>2023-05-24T09:36:43.000Z</time>
        <extensions>
          <gpxtpx:TrackPointExtension xmlns:gpxtpx="http://www.garmin.com/xmlschemas/TrackPointExtension/v1">
            <gpxtpx:hr>127</gpxtpx:hr>
          </gpxtpx:TrackPointExtension>
        </extensions>
      </trkpt>
      <trkpt lat="43.18801" lon="6.18291">
        <ele>319.60000610352</ele>
        <time>2023-05-24T09:36:50.000Z</time>
        <extensions>
          <gpxtpx:TrackPointExtension xmlns:gpxtpx="http://www.garmin.com/xmlschemas/TrackPointExtension/v1">
            <gpxtpx:hr>126</gpxtpx:hr>
          </gpxtpx:TrackPointExtension>
        </extensions>
      </trkpt>
      <trkpt lat="43.18803" lon="6.18293">
        <ele>319.20001220703</ele>
        <time>2023-05-24T09:36:52.000Z</time>
        <extensions>
          <gpxtpx:TrackPointExtension xmlns:gpxtpx="http://www.garmin.com/xmlschemas/TrackPointExtension/v1">
            <gpxtpx:hr>125</gpxtpx:hr>
          </gpxtpx:TrackPointExtension>
        </extensions>
      </trkpt>
      <trkpt lat="43.18803" lon="6.18293">
        <ele>319.20001220703</ele>
        <time>2023-05-24T09:37:00.000Z</time>
        <extensions>
          <gpxtpx:TrackPointExtension xmlns:gpxtpx="http://www.garmin.com/xmlschemas/TrackPointExtension/v1">
            <gpxtpx:hr>127</gpxtpx:hr>
          </gpxtpx:TrackPointExtension>
        </extensions>
      </trkpt>
      <trkpt lat="43.18803" lon="6.18293">
        <ele>319.20001220703</ele>
        <time>2023-05-24T09:37:10.000Z</time>
        <extensions>
          <gpxtpx:TrackPointExtension xmlns:gpxtpx="http://www.garmin.com/xmlschemas/TrackPointExtension/v1">
            <gpxtpx:hr>128</gpxtpx:hr>
          </gpxtpx:TrackPointExtension>
        </extensions>
      </trkpt>
      <trkpt lat="43.18813" lon="6.183">
        <ele>317.39999389648</ele>
        <time>2023-05-24T09:37:14.000Z</time>
        <extensions>
          <gpxtpx:TrackPointExtension xmlns:gpxtpx="http://www.garmin.com/xmlschemas/TrackPointExtension/v1">
            <gpxtpx:hr>126</gpxtpx:hr>
          </gpxtpx:TrackPointExtension>
        </extensions>
      </trkpt>
      <trkpt lat="43.18837" lon="6.18318">
        <ele>315.20001220703</ele>
        <time>2023-05-24T09:37:20.000Z</time>
        <extensions>
          <gpxtpx:TrackPointExtension xmlns:gpxtpx="http://www.garmin.com/xmlschemas/TrackPointExtension/v1">
            <gpxtpx:hr>125</gpxtpx:hr>
          </gpxtpx:TrackPointExtension>
        </extensions>
      </trkpt>
      <trkpt lat="43.18841" lon="6.18321">
        <ele>315</ele>
        <time>2023-05-24T09:37:21.000Z</time>
        <extensions>
          <gpxtpx:TrackPointExtension xmlns:gpxtpx="http://www.garmin.com/xmlschemas/TrackPointExtension/v1">
            <gpxtpx:hr>125</gpxtpx:hr>
          </gpxtpx:TrackPointExtension>
        </extensions>
      </trkpt>
      <trkpt lat="43.18858" lon="6.18327">
        <ele>315</ele>
        <time>2023-05-24T09:37:24.000Z</time>
        <extensions>
          <gpxtpx:TrackPointExtension xmlns:gpxtpx="http://www.garmin.com/xmlschemas/TrackPointExtension/v1">
            <gpxtpx:hr>124</gpxtpx:hr>
          </gpxtpx:TrackPointExtension>
        </extensions>
      </trkpt>
      <trkpt lat="43.18863" lon="6.18329">
        <ele>315.20001220703</ele>
        <time>2023-05-24T09:37:25.000Z</time>
        <extensions>
          <gpxtpx:TrackPointExtension xmlns:gpxtpx="http://www.garmin.com/xmlschemas/TrackPointExtension/v1">
            <gpxtpx:hr>124</gpxtpx:hr>
          </gpxtpx:TrackPointExtension>
        </extensions>
      </trkpt>
      <trkpt lat="43.18874" lon="6.18337">
        <ele>315.39999389648</ele>
        <time>2023-05-24T09:37:27.000Z</time>
        <extensions>
          <gpxtpx:TrackPointExtension xmlns:gpxtpx="http://www.garmin.com/xmlschemas/TrackPointExtension/v1">
            <gpxtpx:hr>123</gpxtpx:hr>
          </gpxtpx:TrackPointExtension>
        </extensions>
      </trkpt>
      <trkpt lat="43.18878" lon="6.18342">
        <ele>315.60000610352</ele>
        <time>2023-05-24T09:37:28.000Z</time>
        <extensions>
          <gpxtpx:TrackPointExtension xmlns:gpxtpx="http://www.garmin.com/xmlschemas/TrackPointExtension/v1">
            <gpxtpx:hr>123</gpxtpx:hr>
          </gpxtpx:TrackPointExtension>
        </extensions>
      </trkpt>
      <trkpt lat="43.18892" lon="6.18359">
        <ele>315</ele>
        <time>2023-05-24T09:37:32.000Z</time>
        <extensions>
          <gpxtpx:TrackPointExtension xmlns:gpxtpx="http://www.garmin.com/xmlschemas/TrackPointExtension/v1">
            <gpxtpx:hr>122</gpxtpx:hr>
          </gpxtpx:TrackPointExtension>
        </extensions>
      </trkpt>
      <trkpt lat="43.18901" lon="6.18374">
        <ele>314.39999389648</ele>
        <time>2023-05-24T09:37:35.000Z</time>
        <extensions>
          <gpxtpx:TrackPointExtension xmlns:gpxtpx="http://www.garmin.com/xmlschemas/TrackPointExtension/v1">
            <gpxtpx:hr>123</gpxtpx:hr>
          </gpxtpx:TrackPointExtension>
        </extensions>
      </trkpt>
      <trkpt lat="43.18904" lon="6.18381">
        <ele>313.79998779297</ele>
        <time>2023-05-24T09:37:36.000Z</time>
        <extensions>
          <gpxtpx:TrackPointExtension xmlns:gpxtpx="http://www.garmin.com/xmlschemas/TrackPointExtension/v1">
            <gpxtpx:hr>123</gpxtpx:hr>
          </gpxtpx:TrackPointExtension>
        </extensions>
      </trkpt>
      <trkpt lat="43.18912" lon="6.18405">
        <ele>312.20001220703</ele>
        <time>2023-05-24T09:37:39.000Z</time>
        <extensions>
          <gpxtpx:TrackPointExtension xmlns:gpxtpx="http://www.garmin.com/xmlschemas/TrackPointExtension/v1">
            <gpxtpx:hr>121</gpxtpx:hr>
          </gpxtpx:TrackPointExtension>
        </extensions>
      </trkpt>
      <trkpt lat="43.18912" lon="6.18414">
        <ele>312</ele>
        <time>2023-05-24T09:37:40.000Z</time>
        <extensions>
          <gpxtpx:TrackPointExtension xmlns:gpxtpx="http://www.garmin.com/xmlschemas/TrackPointExtension/v1">
            <gpxtpx:hr>120</gpxtpx:hr>
          </gpxtpx:TrackPointExtension>
        </extensions>
      </trkpt>
      <trkpt lat="43.18912" lon="6.18423">
        <ele>311.60000610352</ele>
        <time>2023-05-24T09:37:41.000Z</time>
        <extensions>
          <gpxtpx:TrackPointExtension xmlns:gpxtpx="http://www.garmin.com/xmlschemas/TrackPointExtension/v1">
            <gpxtpx:hr>120</gpxtpx:hr>
          </gpxtpx:TrackPointExtension>
        </extensions>
      </trkpt>
      <trkpt lat="43.18908" lon="6.18437">
        <ele>311</ele>
        <time>2023-05-24T09:37:43.000Z</time>
        <extensions>
          <gpxtpx:TrackPointExtension xmlns:gpxtpx="http://www.garmin.com/xmlschemas/TrackPointExtension/v1">
            <gpxtpx:hr>119</gpxtpx:hr>
          </gpxtpx:TrackPointExtension>
        </extensions>
      </trkpt>
      <trkpt lat="43.18907" lon="6.18443">
        <ele>311</ele>
        <time>2023-05-24T09:37:44.000Z</time>
        <extensions>
          <gpxtpx:TrackPointExtension xmlns:gpxtpx="http://www.garmin.com/xmlschemas/TrackPointExtension/v1">
            <gpxtpx:hr>119</gpxtpx:hr>
          </gpxtpx:TrackPointExtension>
        </extensions>
      </trkpt>
      <trkpt lat="43.18907" lon="6.18458">
        <ele>311.60000610352</ele>
        <time>2023-05-24T09:37:46.000Z</time>
        <extensions>
          <gpxtpx:TrackPointExtension xmlns:gpxtpx="http://www.garmin.com/xmlschemas/TrackPointExtension/v1">
            <gpxtpx:hr>119</gpxtpx:hr>
          </gpxtpx:TrackPointExtension>
        </extensions>
      </trkpt>
      <trkpt lat="43.18908" lon="6.18464">
        <ele>311.79998779297</ele>
        <time>2023-05-24T09:37:47.000Z</time>
        <extensions>
          <gpxtpx:TrackPointExtension xmlns:gpxtpx="http://www.garmin.com/xmlschemas/TrackPointExtension/v1">
            <gpxtpx:hr>119</gpxtpx:hr>
          </gpxtpx:TrackPointExtension>
        </extensions>
      </trkpt>
      <trkpt lat="43.18911" lon="6.18473">
        <ele>311.20001220703</ele>
        <time>2023-05-24T09:37:50.000Z</time>
        <extensions>
          <gpxtpx:TrackPointExtension xmlns:gpxtpx="http://www.garmin.com/xmlschemas/TrackPointExtension/v1">
            <gpxtpx:hr>118</gpxtpx:hr>
          </gpxtpx:TrackPointExtension>
        </extensions>
      </trkpt>
      <trkpt lat="43.18912" lon="6.18474">
        <ele>311.20001220703</ele>
        <time>2023-05-24T09:37:55.000Z</time>
        <extensions>
          <gpxtpx:TrackPointExtension xmlns:gpxtpx="http://www.garmin.com/xmlschemas/TrackPointExtension/v1">
            <gpxtpx:hr>120</gpxtpx:hr>
          </gpxtpx:TrackPointExtension>
        </extensions>
      </trkpt>
      <trkpt lat="43.18912" lon="6.18474">
        <ele>311.20001220703</ele>
        <time>2023-05-24T09:38:06.000Z</time>
        <extensions>
          <gpxtpx:TrackPointExtension xmlns:gpxtpx="http://www.garmin.com/xmlschemas/TrackPointExtension/v1">
            <gpxtpx:hr>121</gpxtpx:hr>
          </gpxtpx:TrackPointExtension>
        </extensions>
      </trkpt>
      <trkpt lat="43.18912" lon="6.18474">
        <ele>311.20001220703</ele>
        <time>2023-05-24T09:38:26.000Z</time>
        <extensions>
          <gpxtpx:TrackPointExtension xmlns:gpxtpx="http://www.garmin.com/xmlschemas/TrackPointExtension/v1">
            <gpxtpx:hr>119</gpxtpx:hr>
          </gpxtpx:TrackPointExtension>
        </extensions>
      </trkpt>
      <trkpt lat="43.18914" lon="6.18479">
        <ele>310.79998779297</ele>
        <time>2023-05-24T09:38:31.000Z</time>
        <extensions>
          <gpxtpx:TrackPointExtension xmlns:gpxtpx="http://www.garmin.com/xmlschemas/TrackPointExtension/v1">
            <gpxtpx:hr>119</gpxtpx:hr>
          </gpxtpx:TrackPointExtension>
        </extensions>
      </trkpt>
      <trkpt lat="43.18923" lon="6.18496">
        <ele>309.20001220703</ele>
        <time>2023-05-24T09:38:37.000Z</time>
        <extensions>
          <gpxtpx:TrackPointExtension xmlns:gpxtpx="http://www.garmin.com/xmlschemas/TrackPointExtension/v1">
            <gpxtpx:hr>119</gpxtpx:hr>
          </gpxtpx:TrackPointExtension>
        </extensions>
      </trkpt>
      <trkpt lat="43.1893" lon="6.1852">
        <ele>304.60000610352</ele>
        <time>2023-05-24T09:38:43.000Z</time>
        <extensions>
          <gpxtpx:TrackPointExtension xmlns:gpxtpx="http://www.garmin.com/xmlschemas/TrackPointExtension/v1">
            <gpxtpx:hr>119</gpxtpx:hr>
          </gpxtpx:TrackPointExtension>
        </extensions>
      </trkpt>
      <trkpt lat="43.18931" lon="6.18556">
        <ele>300.39999389648</ele>
        <time>2023-05-24T09:38:50.000Z</time>
        <extensions>
          <gpxtpx:TrackPointExtension xmlns:gpxtpx="http://www.garmin.com/xmlschemas/TrackPointExtension/v1">
            <gpxtpx:hr>120</gpxtpx:hr>
          </gpxtpx:TrackPointExtension>
        </extensions>
      </trkpt>
      <trkpt lat="43.18929" lon="6.18578">
        <ele>300.20001220703</ele>
        <time>2023-05-24T09:38:53.000Z</time>
        <extensions>
          <gpxtpx:TrackPointExtension xmlns:gpxtpx="http://www.garmin.com/xmlschemas/TrackPointExtension/v1">
            <gpxtpx:hr>120</gpxtpx:hr>
          </gpxtpx:TrackPointExtension>
        </extensions>
      </trkpt>
      <trkpt lat="43.18928" lon="6.18587">
        <ele>300.79998779297</ele>
        <time>2023-05-24T09:38:54.000Z</time>
        <extensions>
          <gpxtpx:TrackPointExtension xmlns:gpxtpx="http://www.garmin.com/xmlschemas/TrackPointExtension/v1">
            <gpxtpx:hr>120</gpxtpx:hr>
          </gpxtpx:TrackPointExtension>
        </extensions>
      </trkpt>
      <trkpt lat="43.18924" lon="6.18642">
        <ele>300.39999389648</ele>
        <time>2023-05-24T09:39:00.000Z</time>
        <extensions>
          <gpxtpx:TrackPointExtension xmlns:gpxtpx="http://www.garmin.com/xmlschemas/TrackPointExtension/v1">
            <gpxtpx:hr>119</gpxtpx:hr>
          </gpxtpx:TrackPointExtension>
        </extensions>
      </trkpt>
      <trkpt lat="43.18924" lon="6.18672">
        <ele>300</ele>
        <time>2023-05-24T09:39:04.000Z</time>
        <extensions>
          <gpxtpx:TrackPointExtension xmlns:gpxtpx="http://www.garmin.com/xmlschemas/TrackPointExtension/v1">
            <gpxtpx:hr>120</gpxtpx:hr>
          </gpxtpx:TrackPointExtension>
        </extensions>
      </trkpt>
      <trkpt lat="43.18925" lon="6.18679">
        <ele>300.20001220703</ele>
        <time>2023-05-24T09:39:05.000Z</time>
        <extensions>
          <gpxtpx:TrackPointExtension xmlns:gpxtpx="http://www.garmin.com/xmlschemas/TrackPointExtension/v1">
            <gpxtpx:hr>120</gpxtpx:hr>
          </gpxtpx:TrackPointExtension>
        </extensions>
      </trkpt>
      <trkpt lat="43.18928" lon="6.18717">
        <ele>299.79998779297</ele>
        <time>2023-05-24T09:39:11.000Z</time>
        <extensions>
          <gpxtpx:TrackPointExtension xmlns:gpxtpx="http://www.garmin.com/xmlschemas/TrackPointExtension/v1">
            <gpxtpx:hr>117</gpxtpx:hr>
          </gpxtpx:TrackPointExtension>
        </extensions>
      </trkpt>
      <trkpt lat="43.18933" lon="6.1875">
        <ele>297</ele>
        <time>2023-05-24T09:39:17.000Z</time>
        <extensions>
          <gpxtpx:TrackPointExtension xmlns:gpxtpx="http://www.garmin.com/xmlschemas/TrackPointExtension/v1">
            <gpxtpx:hr>116</gpxtpx:hr>
          </gpxtpx:TrackPointExtension>
        </extensions>
      </trkpt>
      <trkpt lat="43.18935" lon="6.18765">
        <ele>295.39999389648</ele>
        <time>2023-05-24T09:39:19.000Z</time>
        <extensions>
          <gpxtpx:TrackPointExtension xmlns:gpxtpx="http://www.garmin.com/xmlschemas/TrackPointExtension/v1">
            <gpxtpx:hr>115</gpxtpx:hr>
          </gpxtpx:TrackPointExtension>
        </extensions>
      </trkpt>
      <trkpt lat="43.18935" lon="6.18789">
        <ele>292.79998779297</ele>
        <time>2023-05-24T09:39:22.000Z</time>
        <extensions>
          <gpxtpx:TrackPointExtension xmlns:gpxtpx="http://www.garmin.com/xmlschemas/TrackPointExtension/v1">
            <gpxtpx:hr>115</gpxtpx:hr>
          </gpxtpx:TrackPointExtension>
        </extensions>
      </trkpt>
      <trkpt lat="43.18933" lon="6.18805">
        <ele>291</ele>
        <time>2023-05-24T09:39:24.000Z</time>
        <extensions>
          <gpxtpx:TrackPointExtension xmlns:gpxtpx="http://www.garmin.com/xmlschemas/TrackPointExtension/v1">
            <gpxtpx:hr>114</gpxtpx:hr>
          </gpxtpx:TrackPointExtension>
        </extensions>
      </trkpt>
      <trkpt lat="43.18928" lon="6.1883">
        <ele>288</ele>
        <time>2023-05-24T09:39:27.000Z</time>
        <extensions>
          <gpxtpx:TrackPointExtension xmlns:gpxtpx="http://www.garmin.com/xmlschemas/TrackPointExtension/v1">
            <gpxtpx:hr>114</gpxtpx:hr>
          </gpxtpx:TrackPointExtension>
        </extensions>
      </trkpt>
      <trkpt lat="43.18927" lon="6.18844">
        <ele>287</ele>
        <time>2023-05-24T09:39:29.000Z</time>
        <extensions>
          <gpxtpx:TrackPointExtension xmlns:gpxtpx="http://www.garmin.com/xmlschemas/TrackPointExtension/v1">
            <gpxtpx:hr>114</gpxtpx:hr>
          </gpxtpx:TrackPointExtension>
        </extensions>
      </trkpt>
      <trkpt lat="43.18928" lon="6.18858">
        <ele>286.20001220703</ele>
        <time>2023-05-24T09:39:31.000Z</time>
        <extensions>
          <gpxtpx:TrackPointExtension xmlns:gpxtpx="http://www.garmin.com/xmlschemas/TrackPointExtension/v1">
            <gpxtpx:hr>114</gpxtpx:hr>
          </gpxtpx:TrackPointExtension>
        </extensions>
      </trkpt>
      <trkpt lat="43.18928" lon="6.1888">
        <ele>285.39999389648</ele>
        <time>2023-05-24T09:39:34.000Z</time>
        <extensions>
          <gpxtpx:TrackPointExtension xmlns:gpxtpx="http://www.garmin.com/xmlschemas/TrackPointExtension/v1">
            <gpxtpx:hr>114</gpxtpx:hr>
          </gpxtpx:TrackPointExtension>
        </extensions>
      </trkpt>
      <trkpt lat="43.18928" lon="6.18895">
        <ele>284</ele>
        <time>2023-05-24T09:39:36.000Z</time>
        <extensions>
          <gpxtpx:TrackPointExtension xmlns:gpxtpx="http://www.garmin.com/xmlschemas/TrackPointExtension/v1">
            <gpxtpx:hr>113</gpxtpx:hr>
          </gpxtpx:TrackPointExtension>
        </extensions>
      </trkpt>
      <trkpt lat="43.18932" lon="6.18948">
        <ele>277.60000610352</ele>
        <time>2023-05-24T09:39:43.000Z</time>
        <extensions>
          <gpxtpx:TrackPointExtension xmlns:gpxtpx="http://www.garmin.com/xmlschemas/TrackPointExtension/v1">
            <gpxtpx:hr>114</gpxtpx:hr>
          </gpxtpx:TrackPointExtension>
        </extensions>
      </trkpt>
      <trkpt lat="43.18939" lon="6.19007">
        <ele>273.20001220703</ele>
        <time>2023-05-24T09:39:50.000Z</time>
        <extensions>
          <gpxtpx:TrackPointExtension xmlns:gpxtpx="http://www.garmin.com/xmlschemas/TrackPointExtension/v1">
            <gpxtpx:hr>114</gpxtpx:hr>
          </gpxtpx:TrackPointExtension>
        </extensions>
      </trkpt>
      <trkpt lat="43.18949" lon="6.19064">
        <ele>268.60000610352</ele>
        <time>2023-05-24T09:39:57.000Z</time>
        <extensions>
          <gpxtpx:TrackPointExtension xmlns:gpxtpx="http://www.garmin.com/xmlschemas/TrackPointExtension/v1">
            <gpxtpx:hr>114</gpxtpx:hr>
          </gpxtpx:TrackPointExtension>
        </extensions>
      </trkpt>
      <trkpt lat="43.18951" lon="6.19079">
        <ele>266.20001220703</ele>
        <time>2023-05-24T09:39:59.000Z</time>
        <extensions>
          <gpxtpx:TrackPointExtension xmlns:gpxtpx="http://www.garmin.com/xmlschemas/TrackPointExtension/v1">
            <gpxtpx:hr>114</gpxtpx:hr>
          </gpxtpx:TrackPointExtension>
        </extensions>
      </trkpt>
      <trkpt lat="43.18951" lon="6.19093">
        <ele>264.60000610352</ele>
        <time>2023-05-24T09:40:01.000Z</time>
        <extensions>
          <gpxtpx:TrackPointExtension xmlns:gpxtpx="http://www.garmin.com/xmlschemas/TrackPointExtension/v1">
            <gpxtpx:hr>114</gpxtpx:hr>
          </gpxtpx:TrackPointExtension>
        </extensions>
      </trkpt>
      <trkpt lat="43.18949" lon="6.19099">
        <ele>264.39999389648</ele>
        <time>2023-05-24T09:40:02.000Z</time>
        <extensions>
          <gpxtpx:TrackPointExtension xmlns:gpxtpx="http://www.garmin.com/xmlschemas/TrackPointExtension/v1">
            <gpxtpx:hr>113</gpxtpx:hr>
          </gpxtpx:TrackPointExtension>
        </extensions>
      </trkpt>
      <trkpt lat="43.18947" lon="6.19105">
        <ele>264</ele>
        <time>2023-05-24T09:40:03.000Z</time>
        <extensions>
          <gpxtpx:TrackPointExtension xmlns:gpxtpx="http://www.garmin.com/xmlschemas/TrackPointExtension/v1">
            <gpxtpx:hr>113</gpxtpx:hr>
          </gpxtpx:TrackPointExtension>
        </extensions>
      </trkpt>
      <trkpt lat="43.18939" lon="6.1912">
        <ele>263</ele>
        <time>2023-05-24T09:40:06.000Z</time>
        <extensions>
          <gpxtpx:TrackPointExtension xmlns:gpxtpx="http://www.garmin.com/xmlschemas/TrackPointExtension/v1">
            <gpxtpx:hr>113</gpxtpx:hr>
          </gpxtpx:TrackPointExtension>
        </extensions>
      </trkpt>
      <trkpt lat="43.1892" lon="6.19158">
        <ele>257.39999389648</ele>
        <time>2023-05-24T09:40:12.000Z</time>
        <extensions>
          <gpxtpx:TrackPointExtension xmlns:gpxtpx="http://www.garmin.com/xmlschemas/TrackPointExtension/v1">
            <gpxtpx:hr>115</gpxtpx:hr>
          </gpxtpx:TrackPointExtension>
        </extensions>
      </trkpt>
      <trkpt lat="43.18899" lon="6.19198">
        <ele>251.80000305176</ele>
        <time>2023-05-24T09:40:17.000Z</time>
        <extensions>
          <gpxtpx:TrackPointExtension xmlns:gpxtpx="http://www.garmin.com/xmlschemas/TrackPointExtension/v1">
            <gpxtpx:hr>116</gpxtpx:hr>
          </gpxtpx:TrackPointExtension>
        </extensions>
      </trkpt>
      <trkpt lat="43.18878" lon="6.19246">
        <ele>251</ele>
        <time>2023-05-24T09:40:22.000Z</time>
        <extensions>
          <gpxtpx:TrackPointExtension xmlns:gpxtpx="http://www.garmin.com/xmlschemas/TrackPointExtension/v1">
            <gpxtpx:hr>115</gpxtpx:hr>
          </gpxtpx:TrackPointExtension>
        </extensions>
      </trkpt>
      <trkpt lat="43.18869" lon="6.1927">
        <ele>251.60000610352</ele>
        <time>2023-05-24T09:40:26.000Z</time>
        <extensions>
          <gpxtpx:TrackPointExtension xmlns:gpxtpx="http://www.garmin.com/xmlschemas/TrackPointExtension/v1">
            <gpxtpx:hr>115</gpxtpx:hr>
          </gpxtpx:TrackPointExtension>
        </extensions>
      </trkpt>
      <trkpt lat="43.1886" lon="6.19295">
        <ele>250.80000305176</ele>
        <time>2023-05-24T09:40:32.000Z</time>
        <extensions>
          <gpxtpx:TrackPointExtension xmlns:gpxtpx="http://www.garmin.com/xmlschemas/TrackPointExtension/v1">
            <gpxtpx:hr>113</gpxtpx:hr>
          </gpxtpx:TrackPointExtension>
        </extensions>
      </trkpt>
      <trkpt lat="43.18855" lon="6.19314">
        <ele>250.19999694824</ele>
        <time>2023-05-24T09:40:35.000Z</time>
        <extensions>
          <gpxtpx:TrackPointExtension xmlns:gpxtpx="http://www.garmin.com/xmlschemas/TrackPointExtension/v1">
            <gpxtpx:hr>113</gpxtpx:hr>
          </gpxtpx:TrackPointExtension>
        </extensions>
      </trkpt>
      <trkpt lat="43.18854" lon="6.19329">
        <ele>249.60000610352</ele>
        <time>2023-05-24T09:40:37.000Z</time>
        <extensions>
          <gpxtpx:TrackPointExtension xmlns:gpxtpx="http://www.garmin.com/xmlschemas/TrackPointExtension/v1">
            <gpxtpx:hr>113</gpxtpx:hr>
          </gpxtpx:TrackPointExtension>
        </extensions>
      </trkpt>
      <trkpt lat="43.18859" lon="6.19377">
        <ele>245.80000305176</ele>
        <time>2023-05-24T09:40:43.000Z</time>
        <extensions>
          <gpxtpx:TrackPointExtension xmlns:gpxtpx="http://www.garmin.com/xmlschemas/TrackPointExtension/v1">
            <gpxtpx:hr>113</gpxtpx:hr>
          </gpxtpx:TrackPointExtension>
        </extensions>
      </trkpt>
      <trkpt lat="43.18865" lon="6.19419">
        <ele>242</ele>
        <time>2023-05-24T09:40:49.000Z</time>
        <extensions>
          <gpxtpx:TrackPointExtension xmlns:gpxtpx="http://www.garmin.com/xmlschemas/TrackPointExtension/v1">
            <gpxtpx:hr>113</gpxtpx:hr>
          </gpxtpx:TrackPointExtension>
        </extensions>
      </trkpt>
      <trkpt lat="43.1887" lon="6.19453">
        <ele>238.39999389648</ele>
        <time>2023-05-24T09:40:55.000Z</time>
        <extensions>
          <gpxtpx:TrackPointExtension xmlns:gpxtpx="http://www.garmin.com/xmlschemas/TrackPointExtension/v1">
            <gpxtpx:hr>111</gpxtpx:hr>
          </gpxtpx:TrackPointExtension>
        </extensions>
      </trkpt>
      <trkpt lat="43.18872" lon="6.19476">
        <ele>236</ele>
        <time>2023-05-24T09:40:58.000Z</time>
        <extensions>
          <gpxtpx:TrackPointExtension xmlns:gpxtpx="http://www.garmin.com/xmlschemas/TrackPointExtension/v1">
            <gpxtpx:hr>112</gpxtpx:hr>
          </gpxtpx:TrackPointExtension>
        </extensions>
      </trkpt>
      <trkpt lat="43.18873" lon="6.19494">
        <ele>234.19999694824</ele>
        <time>2023-05-24T09:41:00.000Z</time>
        <extensions>
          <gpxtpx:TrackPointExtension xmlns:gpxtpx="http://www.garmin.com/xmlschemas/TrackPointExtension/v1">
            <gpxtpx:hr>112</gpxtpx:hr>
          </gpxtpx:TrackPointExtension>
        </extensions>
      </trkpt>
      <trkpt lat="43.18875" lon="6.19535">
        <ele>232.19999694824</ele>
        <time>2023-05-24T09:41:04.000Z</time>
        <extensions>
          <gpxtpx:TrackPointExtension xmlns:gpxtpx="http://www.garmin.com/xmlschemas/TrackPointExtension/v1">
            <gpxtpx:hr>112</gpxtpx:hr>
          </gpxtpx:TrackPointExtension>
        </extensions>
      </trkpt>
      <trkpt lat="43.18877" lon="6.19548">
        <ele>231.80000305176</ele>
        <time>2023-05-24T09:41:06.000Z</time>
        <extensions>
          <gpxtpx:TrackPointExtension xmlns:gpxtpx="http://www.garmin.com/xmlschemas/TrackPointExtension/v1">
            <gpxtpx:hr>112</gpxtpx:hr>
          </gpxtpx:TrackPointExtension>
        </extensions>
      </trkpt>
      <trkpt lat="43.18879" lon="6.19559">
        <ele>231.60000610352</ele>
        <time>2023-05-24T09:41:08.000Z</time>
        <extensions>
          <gpxtpx:TrackPointExtension xmlns:gpxtpx="http://www.garmin.com/xmlschemas/TrackPointExtension/v1">
            <gpxtpx:hr>112</gpxtpx:hr>
          </gpxtpx:TrackPointExtension>
        </extensions>
      </trkpt>
      <trkpt lat="43.18886" lon="6.19587">
        <ele>228.19999694824</ele>
        <time>2023-05-24T09:41:13.000Z</time>
        <extensions>
          <gpxtpx:TrackPointExtension xmlns:gpxtpx="http://www.garmin.com/xmlschemas/TrackPointExtension/v1">
            <gpxtpx:hr>112</gpxtpx:hr>
          </gpxtpx:TrackPointExtension>
        </extensions>
      </trkpt>
      <trkpt lat="43.18898" lon="6.19621">
        <ele>220.80000305176</ele>
        <time>2023-05-24T09:41:18.000Z</time>
        <extensions>
          <gpxtpx:TrackPointExtension xmlns:gpxtpx="http://www.garmin.com/xmlschemas/TrackPointExtension/v1">
            <gpxtpx:hr>112</gpxtpx:hr>
          </gpxtpx:TrackPointExtension>
        </extensions>
      </trkpt>
      <trkpt lat="43.18899" lon="6.19629">
        <ele>219</ele>
        <time>2023-05-24T09:41:19.000Z</time>
        <extensions>
          <gpxtpx:TrackPointExtension xmlns:gpxtpx="http://www.garmin.com/xmlschemas/TrackPointExtension/v1">
            <gpxtpx:hr>113</gpxtpx:hr>
          </gpxtpx:TrackPointExtension>
        </extensions>
      </trkpt>
      <trkpt lat="43.18902" lon="6.19641">
        <ele>216.60000610352</ele>
        <time>2023-05-24T09:41:21.000Z</time>
        <extensions>
          <gpxtpx:TrackPointExtension xmlns:gpxtpx="http://www.garmin.com/xmlschemas/TrackPointExtension/v1">
            <gpxtpx:hr>113</gpxtpx:hr>
          </gpxtpx:TrackPointExtension>
        </extensions>
      </trkpt>
      <trkpt lat="43.18905" lon="6.19652">
        <ele>214.39999389648</ele>
        <time>2023-05-24T09:41:23.000Z</time>
        <extensions>
          <gpxtpx:TrackPointExtension xmlns:gpxtpx="http://www.garmin.com/xmlschemas/TrackPointExtension/v1">
            <gpxtpx:hr>114</gpxtpx:hr>
          </gpxtpx:TrackPointExtension>
        </extensions>
      </trkpt>
      <trkpt lat="43.18908" lon="6.19666">
        <ele>212.19999694824</ele>
        <time>2023-05-24T09:41:25.000Z</time>
        <extensions>
          <gpxtpx:TrackPointExtension xmlns:gpxtpx="http://www.garmin.com/xmlschemas/TrackPointExtension/v1">
            <gpxtpx:hr>115</gpxtpx:hr>
          </gpxtpx:TrackPointExtension>
        </extensions>
      </trkpt>
      <trkpt lat="43.18911" lon="6.19683">
        <ele>209.80000305176</ele>
        <time>2023-05-24T09:41:27.000Z</time>
        <extensions>
          <gpxtpx:TrackPointExtension xmlns:gpxtpx="http://www.garmin.com/xmlschemas/TrackPointExtension/v1">
            <gpxtpx:hr>115</gpxtpx:hr>
          </gpxtpx:TrackPointExtension>
        </extensions>
      </trkpt>
      <trkpt lat="43.18913" lon="6.19697">
        <ele>208</ele>
        <time>2023-05-24T09:41:29.000Z</time>
        <extensions>
          <gpxtpx:TrackPointExtension xmlns:gpxtpx="http://www.garmin.com/xmlschemas/TrackPointExtension/v1">
            <gpxtpx:hr>115</gpxtpx:hr>
          </gpxtpx:TrackPointExtension>
        </extensions>
      </trkpt>
      <trkpt lat="43.18912" lon="6.19708">
        <ele>207</ele>
        <time>2023-05-24T09:41:31.000Z</time>
        <extensions>
          <gpxtpx:TrackPointExtension xmlns:gpxtpx="http://www.garmin.com/xmlschemas/TrackPointExtension/v1">
            <gpxtpx:hr>114</gpxtpx:hr>
          </gpxtpx:TrackPointExtension>
        </extensions>
      </trkpt>
      <trkpt lat="43.18911" lon="6.19711">
        <ele>206.80000305176</ele>
        <time>2023-05-24T09:41:32.000Z</time>
        <extensions>
          <gpxtpx:TrackPointExtension xmlns:gpxtpx="http://www.garmin.com/xmlschemas/TrackPointExtension/v1">
            <gpxtpx:hr>113</gpxtpx:hr>
          </gpxtpx:TrackPointExtension>
        </extensions>
      </trkpt>
      <trkpt lat="43.18909" lon="6.19712">
        <ele>207</ele>
        <time>2023-05-24T09:41:34.000Z</time>
        <extensions>
          <gpxtpx:TrackPointExtension xmlns:gpxtpx="http://www.garmin.com/xmlschemas/TrackPointExtension/v1">
            <gpxtpx:hr>113</gpxtpx:hr>
          </gpxtpx:TrackPointExtension>
        </extensions>
      </trkpt>
      <trkpt lat="43.18902" lon="6.19706">
        <ele>208</ele>
        <time>2023-05-24T09:41:39.000Z</time>
        <extensions>
          <gpxtpx:TrackPointExtension xmlns:gpxtpx="http://www.garmin.com/xmlschemas/TrackPointExtension/v1">
            <gpxtpx:hr>111</gpxtpx:hr>
          </gpxtpx:TrackPointExtension>
        </extensions>
      </trkpt>
      <trkpt lat="43.18896" lon="6.19701">
        <ele>208.80000305176</ele>
        <time>2023-05-24T09:41:41.000Z</time>
        <extensions>
          <gpxtpx:TrackPointExtension xmlns:gpxtpx="http://www.garmin.com/xmlschemas/TrackPointExtension/v1">
            <gpxtpx:hr>112</gpxtpx:hr>
          </gpxtpx:TrackPointExtension>
        </extensions>
      </trkpt>
      <trkpt lat="43.18892" lon="6.19699">
        <ele>209</ele>
        <time>2023-05-24T09:41:42.000Z</time>
        <extensions>
          <gpxtpx:TrackPointExtension xmlns:gpxtpx="http://www.garmin.com/xmlschemas/TrackPointExtension/v1">
            <gpxtpx:hr>112</gpxtpx:hr>
          </gpxtpx:TrackPointExtension>
        </extensions>
      </trkpt>
      <trkpt lat="43.18875" lon="6.19704">
        <ele>207.80000305176</ele>
        <time>2023-05-24T09:41:46.000Z</time>
        <extensions>
          <gpxtpx:TrackPointExtension xmlns:gpxtpx="http://www.garmin.com/xmlschemas/TrackPointExtension/v1">
            <gpxtpx:hr>112</gpxtpx:hr>
          </gpxtpx:TrackPointExtension>
        </extensions>
      </trkpt>
      <trkpt lat="43.18862" lon="6.19709">
        <ele>204.19999694824</ele>
        <time>2023-05-24T09:41:49.000Z</time>
        <extensions>
          <gpxtpx:TrackPointExtension xmlns:gpxtpx="http://www.garmin.com/xmlschemas/TrackPointExtension/v1">
            <gpxtpx:hr>112</gpxtpx:hr>
          </gpxtpx:TrackPointExtension>
        </extensions>
      </trkpt>
      <trkpt lat="43.18852" lon="6.1971">
        <ele>201.80000305176</ele>
        <time>2023-05-24T09:41:51.000Z</time>
        <extensions>
          <gpxtpx:TrackPointExtension xmlns:gpxtpx="http://www.garmin.com/xmlschemas/TrackPointExtension/v1">
            <gpxtpx:hr>112</gpxtpx:hr>
          </gpxtpx:TrackPointExtension>
        </extensions>
      </trkpt>
      <trkpt lat="43.18839" lon="6.1971">
        <ele>199</ele>
        <time>2023-05-24T09:41:54.000Z</time>
        <extensions>
          <gpxtpx:TrackPointExtension xmlns:gpxtpx="http://www.garmin.com/xmlschemas/TrackPointExtension/v1">
            <gpxtpx:hr>111</gpxtpx:hr>
          </gpxtpx:TrackPointExtension>
        </extensions>
      </trkpt>
      <trkpt lat="43.1883" lon="6.19708">
        <ele>197.60000610352</ele>
        <time>2023-05-24T09:41:56.000Z</time>
        <extensions>
          <gpxtpx:TrackPointExtension xmlns:gpxtpx="http://www.garmin.com/xmlschemas/TrackPointExtension/v1">
            <gpxtpx:hr>111</gpxtpx:hr>
          </gpxtpx:TrackPointExtension>
        </extensions>
      </trkpt>
      <trkpt lat="43.18799" lon="6.197">
        <ele>193.19999694824</ele>
        <time>2023-05-24T09:42:02.000Z</time>
        <extensions>
          <gpxtpx:TrackPointExtension xmlns:gpxtpx="http://www.garmin.com/xmlschemas/TrackPointExtension/v1">
            <gpxtpx:hr>111</gpxtpx:hr>
          </gpxtpx:TrackPointExtension>
        </extensions>
      </trkpt>
      <trkpt lat="43.18789" lon="6.19693">
        <ele>191.60000610352</ele>
        <time>2023-05-24T09:42:04.000Z</time>
        <extensions>
          <gpxtpx:TrackPointExtension xmlns:gpxtpx="http://www.garmin.com/xmlschemas/TrackPointExtension/v1">
            <gpxtpx:hr>111</gpxtpx:hr>
          </gpxtpx:TrackPointExtension>
        </extensions>
      </trkpt>
      <trkpt lat="43.18781" lon="6.19683">
        <ele>190.60000610352</ele>
        <time>2023-05-24T09:42:06.000Z</time>
        <extensions>
          <gpxtpx:TrackPointExtension xmlns:gpxtpx="http://www.garmin.com/xmlschemas/TrackPointExtension/v1">
            <gpxtpx:hr>111</gpxtpx:hr>
          </gpxtpx:TrackPointExtension>
        </extensions>
      </trkpt>
      <trkpt lat="43.18776" lon="6.19672">
        <ele>190.39999389648</ele>
        <time>2023-05-24T09:42:08.000Z</time>
        <extensions>
          <gpxtpx:TrackPointExtension xmlns:gpxtpx="http://www.garmin.com/xmlschemas/TrackPointExtension/v1">
            <gpxtpx:hr>111</gpxtpx:hr>
          </gpxtpx:TrackPointExtension>
        </extensions>
      </trkpt>
      <trkpt lat="43.18773" lon="6.19658">
        <ele>191.60000610352</ele>
        <time>2023-05-24T09:42:10.000Z</time>
        <extensions>
          <gpxtpx:TrackPointExtension xmlns:gpxtpx="http://www.garmin.com/xmlschemas/TrackPointExtension/v1">
            <gpxtpx:hr>111</gpxtpx:hr>
          </gpxtpx:TrackPointExtension>
        </extensions>
      </trkpt>
      <trkpt lat="43.18768" lon="6.19636">
        <ele>192.80000305176</ele>
        <time>2023-05-24T09:42:13.000Z</time>
        <extensions>
          <gpxtpx:TrackPointExtension xmlns:gpxtpx="http://www.garmin.com/xmlschemas/TrackPointExtension/v1">
            <gpxtpx:hr>111</gpxtpx:hr>
          </gpxtpx:TrackPointExtension>
        </extensions>
      </trkpt>
      <trkpt lat="43.18762" lon="6.19625">
        <ele>191.19999694824</ele>
        <time>2023-05-24T09:42:15.000Z</time>
        <extensions>
          <gpxtpx:TrackPointExtension xmlns:gpxtpx="http://www.garmin.com/xmlschemas/TrackPointExtension/v1">
            <gpxtpx:hr>111</gpxtpx:hr>
          </gpxtpx:TrackPointExtension>
        </extensions>
      </trkpt>
      <trkpt lat="43.18753" lon="6.19612">
        <ele>187.80000305176</ele>
        <time>2023-05-24T09:42:18.000Z</time>
        <extensions>
          <gpxtpx:TrackPointExtension xmlns:gpxtpx="http://www.garmin.com/xmlschemas/TrackPointExtension/v1">
            <gpxtpx:hr>111</gpxtpx:hr>
          </gpxtpx:TrackPointExtension>
        </extensions>
      </trkpt>
      <trkpt lat="43.1875" lon="6.19601">
        <ele>187.19999694824</ele>
        <time>2023-05-24T09:42:20.000Z</time>
        <extensions>
          <gpxtpx:TrackPointExtension xmlns:gpxtpx="http://www.garmin.com/xmlschemas/TrackPointExtension/v1">
            <gpxtpx:hr>110</gpxtpx:hr>
          </gpxtpx:TrackPointExtension>
        </extensions>
      </trkpt>
      <trkpt lat="43.18748" lon="6.19582">
        <ele>187.39999389648</ele>
        <time>2023-05-24T09:42:24.000Z</time>
        <extensions>
          <gpxtpx:TrackPointExtension xmlns:gpxtpx="http://www.garmin.com/xmlschemas/TrackPointExtension/v1">
            <gpxtpx:hr>108</gpxtpx:hr>
          </gpxtpx:TrackPointExtension>
        </extensions>
      </trkpt>
      <trkpt lat="43.1875" lon="6.19565">
        <ele>188.80000305176</ele>
        <time>2023-05-24T09:42:30.000Z</time>
        <extensions>
          <gpxtpx:TrackPointExtension xmlns:gpxtpx="http://www.garmin.com/xmlschemas/TrackPointExtension/v1">
            <gpxtpx:hr>111</gpxtpx:hr>
          </gpxtpx:TrackPointExtension>
        </extensions>
      </trkpt>
      <trkpt lat="43.18754" lon="6.19552">
        <ele>190.80000305176</ele>
        <time>2023-05-24T09:42:33.000Z</time>
        <extensions>
          <gpxtpx:TrackPointExtension xmlns:gpxtpx="http://www.garmin.com/xmlschemas/TrackPointExtension/v1">
            <gpxtpx:hr>114</gpxtpx:hr>
          </gpxtpx:TrackPointExtension>
        </extensions>
      </trkpt>
      <trkpt lat="43.18756" lon="6.19543">
        <ele>192</ele>
        <time>2023-05-24T09:42:35.000Z</time>
        <extensions>
          <gpxtpx:TrackPointExtension xmlns:gpxtpx="http://www.garmin.com/xmlschemas/TrackPointExtension/v1">
            <gpxtpx:hr>115</gpxtpx:hr>
          </gpxtpx:TrackPointExtension>
        </extensions>
      </trkpt>
      <trkpt lat="43.18757" lon="6.19517">
        <ele>193.80000305176</ele>
        <time>2023-05-24T09:42:40.000Z</time>
        <extensions>
          <gpxtpx:TrackPointExtension xmlns:gpxtpx="http://www.garmin.com/xmlschemas/TrackPointExtension/v1">
            <gpxtpx:hr>118</gpxtpx:hr>
          </gpxtpx:TrackPointExtension>
        </extensions>
      </trkpt>
      <trkpt lat="43.18756" lon="6.19512">
        <ele>194.19999694824</ele>
        <time>2023-05-24T09:42:41.000Z</time>
        <extensions>
          <gpxtpx:TrackPointExtension xmlns:gpxtpx="http://www.garmin.com/xmlschemas/TrackPointExtension/v1">
            <gpxtpx:hr>118</gpxtpx:hr>
          </gpxtpx:TrackPointExtension>
        </extensions>
      </trkpt>
      <trkpt lat="43.18746" lon="6.19476">
        <ele>194.60000610352</ele>
        <time>2023-05-24T09:42:49.000Z</time>
        <extensions>
          <gpxtpx:TrackPointExtension xmlns:gpxtpx="http://www.garmin.com/xmlschemas/TrackPointExtension/v1">
            <gpxtpx:hr>121</gpxtpx:hr>
          </gpxtpx:TrackPointExtension>
        </extensions>
      </trkpt>
      <trkpt lat="43.18731" lon="6.19438">
        <ele>197.19999694824</ele>
        <time>2023-05-24T09:42:58.000Z</time>
        <extensions>
          <gpxtpx:TrackPointExtension xmlns:gpxtpx="http://www.garmin.com/xmlschemas/TrackPointExtension/v1">
            <gpxtpx:hr>123</gpxtpx:hr>
          </gpxtpx:TrackPointExtension>
        </extensions>
      </trkpt>
      <trkpt lat="43.1872" lon="6.19414">
        <ele>197.19999694824</ele>
        <time>2023-05-24T09:43:05.000Z</time>
        <extensions>
          <gpxtpx:TrackPointExtension xmlns:gpxtpx="http://www.garmin.com/xmlschemas/TrackPointExtension/v1">
            <gpxtpx:hr>125</gpxtpx:hr>
          </gpxtpx:TrackPointExtension>
        </extensions>
      </trkpt>
      <trkpt lat="43.18715" lon="6.1939">
        <ele>198.60000610352</ele>
        <time>2023-05-24T09:43:11.000Z</time>
        <extensions>
          <gpxtpx:TrackPointExtension xmlns:gpxtpx="http://www.garmin.com/xmlschemas/TrackPointExtension/v1">
            <gpxtpx:hr>128</gpxtpx:hr>
          </gpxtpx:TrackPointExtension>
        </extensions>
      </trkpt>
      <trkpt lat="43.18715" lon="6.19386">
        <ele>199</ele>
        <time>2023-05-24T09:43:12.000Z</time>
        <extensions>
          <gpxtpx:TrackPointExtension xmlns:gpxtpx="http://www.garmin.com/xmlschemas/TrackPointExtension/v1">
            <gpxtpx:hr>128</gpxtpx:hr>
          </gpxtpx:TrackPointExtension>
        </extensions>
      </trkpt>
      <trkpt lat="43.18716" lon="6.19353">
        <ele>200.80000305176</ele>
        <time>2023-05-24T09:43:19.000Z</time>
        <extensions>
          <gpxtpx:TrackPointExtension xmlns:gpxtpx="http://www.garmin.com/xmlschemas/TrackPointExtension/v1">
            <gpxtpx:hr>130</gpxtpx:hr>
          </gpxtpx:TrackPointExtension>
        </extensions>
      </trkpt>
      <trkpt lat="43.18721" lon="6.1933">
        <ele>202.19999694824</ele>
        <time>2023-05-24T09:43:24.000Z</time>
        <extensions>
          <gpxtpx:TrackPointExtension xmlns:gpxtpx="http://www.garmin.com/xmlschemas/TrackPointExtension/v1">
            <gpxtpx:hr>132</gpxtpx:hr>
          </gpxtpx:TrackPointExtension>
        </extensions>
      </trkpt>
      <trkpt lat="43.18734" lon="6.19296">
        <ele>204.60000610352</ele>
        <time>2023-05-24T09:43:32.000Z</time>
        <extensions>
          <gpxtpx:TrackPointExtension xmlns:gpxtpx="http://www.garmin.com/xmlschemas/TrackPointExtension/v1">
            <gpxtpx:hr>133</gpxtpx:hr>
          </gpxtpx:TrackPointExtension>
        </extensions>
      </trkpt>
      <trkpt lat="43.18748" lon="6.19262">
        <ele>207.80000305176</ele>
        <time>2023-05-24T09:43:40.000Z</time>
        <extensions>
          <gpxtpx:TrackPointExtension xmlns:gpxtpx="http://www.garmin.com/xmlschemas/TrackPointExtension/v1">
            <gpxtpx:hr>134</gpxtpx:hr>
          </gpxtpx:TrackPointExtension>
        </extensions>
      </trkpt>
      <trkpt lat="43.18763" lon="6.19223">
        <ele>211.39999389648</ele>
        <time>2023-05-24T09:43:49.000Z</time>
        <extensions>
          <gpxtpx:TrackPointExtension xmlns:gpxtpx="http://www.garmin.com/xmlschemas/TrackPointExtension/v1">
            <gpxtpx:hr>135</gpxtpx:hr>
          </gpxtpx:TrackPointExtension>
        </extensions>
      </trkpt>
      <trkpt lat="43.18772" lon="6.19201">
        <ele>212.80000305176</ele>
        <time>2023-05-24T09:43:54.000Z</time>
        <extensions>
          <gpxtpx:TrackPointExtension xmlns:gpxtpx="http://www.garmin.com/xmlschemas/TrackPointExtension/v1">
            <gpxtpx:hr>135</gpxtpx:hr>
          </gpxtpx:TrackPointExtension>
        </extensions>
      </trkpt>
      <trkpt lat="43.18776" lon="6.19192">
        <ele>213.39999389648</ele>
        <time>2023-05-24T09:43:56.000Z</time>
        <extensions>
          <gpxtpx:TrackPointExtension xmlns:gpxtpx="http://www.garmin.com/xmlschemas/TrackPointExtension/v1">
            <gpxtpx:hr>135</gpxtpx:hr>
          </gpxtpx:TrackPointExtension>
        </extensions>
      </trkpt>
      <trkpt lat="43.18792" lon="6.19146">
        <ele>217.39999389648</ele>
        <time>2023-05-24T09:44:06.000Z</time>
        <extensions>
          <gpxtpx:TrackPointExtension xmlns:gpxtpx="http://www.garmin.com/xmlschemas/TrackPointExtension/v1">
            <gpxtpx:hr>135</gpxtpx:hr>
          </gpxtpx:TrackPointExtension>
        </extensions>
      </trkpt>
      <trkpt lat="43.18794" lon="6.19116">
        <ele>217</ele>
        <time>2023-05-24T09:44:12.000Z</time>
        <extensions>
          <gpxtpx:TrackPointExtension xmlns:gpxtpx="http://www.garmin.com/xmlschemas/TrackPointExtension/v1">
            <gpxtpx:hr>135</gpxtpx:hr>
          </gpxtpx:TrackPointExtension>
        </extensions>
      </trkpt>
      <trkpt lat="43.18789" lon="6.19085">
        <ele>217.80000305176</ele>
        <time>2023-05-24T09:44:18.000Z</time>
        <extensions>
          <gpxtpx:TrackPointExtension xmlns:gpxtpx="http://www.garmin.com/xmlschemas/TrackPointExtension/v1">
            <gpxtpx:hr>135</gpxtpx:hr>
          </gpxtpx:TrackPointExtension>
        </extensions>
      </trkpt>
      <trkpt lat="43.18777" lon="6.19073">
        <ele>216.19999694824</ele>
        <time>2023-05-24T09:44:22.000Z</time>
        <extensions>
          <gpxtpx:TrackPointExtension xmlns:gpxtpx="http://www.garmin.com/xmlschemas/TrackPointExtension/v1">
            <gpxtpx:hr>134</gpxtpx:hr>
          </gpxtpx:TrackPointExtension>
        </extensions>
      </trkpt>
      <trkpt lat="43.18774" lon="6.19071">
        <ele>215.60000610352</ele>
        <time>2023-05-24T09:44:23.000Z</time>
        <extensions>
          <gpxtpx:TrackPointExtension xmlns:gpxtpx="http://www.garmin.com/xmlschemas/TrackPointExtension/v1">
            <gpxtpx:hr>134</gpxtpx:hr>
          </gpxtpx:TrackPointExtension>
        </extensions>
      </trkpt>
      <trkpt lat="43.18757" lon="6.19062">
        <ele>214</ele>
        <time>2023-05-24T09:44:28.000Z</time>
        <extensions>
          <gpxtpx:TrackPointExtension xmlns:gpxtpx="http://www.garmin.com/xmlschemas/TrackPointExtension/v1">
            <gpxtpx:hr>135</gpxtpx:hr>
          </gpxtpx:TrackPointExtension>
        </extensions>
      </trkpt>
      <trkpt lat="43.18739" lon="6.19043">
        <ele>215.19999694824</ele>
        <time>2023-05-24T09:44:34.000Z</time>
        <extensions>
          <gpxtpx:TrackPointExtension xmlns:gpxtpx="http://www.garmin.com/xmlschemas/TrackPointExtension/v1">
            <gpxtpx:hr>134</gpxtpx:hr>
          </gpxtpx:TrackPointExtension>
        </extensions>
      </trkpt>
      <trkpt lat="43.18736" lon="6.19018">
        <ele>219.60000610352</ele>
        <time>2023-05-24T09:44:39.000Z</time>
        <extensions>
          <gpxtpx:TrackPointExtension xmlns:gpxtpx="http://www.garmin.com/xmlschemas/TrackPointExtension/v1">
            <gpxtpx:hr>134</gpxtpx:hr>
          </gpxtpx:TrackPointExtension>
        </extensions>
      </trkpt>
      <trkpt lat="43.18736" lon="6.19013">
        <ele>220</ele>
        <time>2023-05-24T09:44:40.000Z</time>
        <extensions>
          <gpxtpx:TrackPointExtension xmlns:gpxtpx="http://www.garmin.com/xmlschemas/TrackPointExtension/v1">
            <gpxtpx:hr>133</gpxtpx:hr>
          </gpxtpx:TrackPointExtension>
        </extensions>
      </trkpt>
      <trkpt lat="43.18738" lon="6.18997">
        <ele>221.80000305176</ele>
        <time>2023-05-24T09:44:43.000Z</time>
        <extensions>
          <gpxtpx:TrackPointExtension xmlns:gpxtpx="http://www.garmin.com/xmlschemas/TrackPointExtension/v1">
            <gpxtpx:hr>132</gpxtpx:hr>
          </gpxtpx:TrackPointExtension>
        </extensions>
      </trkpt>
      <trkpt lat="43.18742" lon="6.18988">
        <ele>223.39999389648</ele>
        <time>2023-05-24T09:44:45.000Z</time>
        <extensions>
          <gpxtpx:TrackPointExtension xmlns:gpxtpx="http://www.garmin.com/xmlschemas/TrackPointExtension/v1">
            <gpxtpx:hr>132</gpxtpx:hr>
          </gpxtpx:TrackPointExtension>
        </extensions>
      </trkpt>
      <trkpt lat="43.18749" lon="6.18974">
        <ele>226</ele>
        <time>2023-05-24T09:44:48.000Z</time>
        <extensions>
          <gpxtpx:TrackPointExtension xmlns:gpxtpx="http://www.garmin.com/xmlschemas/TrackPointExtension/v1">
            <gpxtpx:hr>131</gpxtpx:hr>
          </gpxtpx:TrackPointExtension>
        </extensions>
      </trkpt>
      <trkpt lat="43.18767" lon="6.18936">
        <ele>231.39999389648</ele>
        <time>2023-05-24T09:44:56.000Z</time>
        <extensions>
          <gpxtpx:TrackPointExtension xmlns:gpxtpx="http://www.garmin.com/xmlschemas/TrackPointExtension/v1">
            <gpxtpx:hr>131</gpxtpx:hr>
          </gpxtpx:TrackPointExtension>
        </extensions>
      </trkpt>
      <trkpt lat="43.18769" lon="6.18931">
        <ele>232.19999694824</ele>
        <time>2023-05-24T09:44:57.000Z</time>
        <extensions>
          <gpxtpx:TrackPointExtension xmlns:gpxtpx="http://www.garmin.com/xmlschemas/TrackPointExtension/v1">
            <gpxtpx:hr>132</gpxtpx:hr>
          </gpxtpx:TrackPointExtension>
        </extensions>
      </trkpt>
      <trkpt lat="43.18768" lon="6.1892">
        <ele>233</ele>
        <time>2023-05-24T09:44:59.000Z</time>
        <extensions>
          <gpxtpx:TrackPointExtension xmlns:gpxtpx="http://www.garmin.com/xmlschemas/TrackPointExtension/v1">
            <gpxtpx:hr>132</gpxtpx:hr>
          </gpxtpx:TrackPointExtension>
        </extensions>
      </trkpt>
      <trkpt lat="43.18766" lon="6.18915">
        <ele>233</ele>
        <time>2023-05-24T09:45:00.000Z</time>
        <extensions>
          <gpxtpx:TrackPointExtension xmlns:gpxtpx="http://www.garmin.com/xmlschemas/TrackPointExtension/v1">
            <gpxtpx:hr>132</gpxtpx:hr>
          </gpxtpx:TrackPointExtension>
        </extensions>
      </trkpt>
      <trkpt lat="43.18764" lon="6.18911">
        <ele>232.60000610352</ele>
        <time>2023-05-24T09:45:01.000Z</time>
        <extensions>
          <gpxtpx:TrackPointExtension xmlns:gpxtpx="http://www.garmin.com/xmlschemas/TrackPointExtension/v1">
            <gpxtpx:hr>132</gpxtpx:hr>
          </gpxtpx:TrackPointExtension>
        </extensions>
      </trkpt>
      <trkpt lat="43.18757" lon="6.18907">
        <ele>231.39999389648</ele>
        <time>2023-05-24T09:45:03.000Z</time>
        <extensions>
          <gpxtpx:TrackPointExtension xmlns:gpxtpx="http://www.garmin.com/xmlschemas/TrackPointExtension/v1">
            <gpxtpx:hr>132</gpxtpx:hr>
          </gpxtpx:TrackPointExtension>
        </extensions>
      </trkpt>
      <trkpt lat="43.18753" lon="6.18906">
        <ele>231</ele>
        <time>2023-05-24T09:45:04.000Z</time>
        <extensions>
          <gpxtpx:TrackPointExtension xmlns:gpxtpx="http://www.garmin.com/xmlschemas/TrackPointExtension/v1">
            <gpxtpx:hr>136</gpxtpx:hr>
          </gpxtpx:TrackPointExtension>
        </extensions>
      </trkpt>
      <trkpt lat="43.18743" lon="6.189">
        <ele>229.60000610352</ele>
        <time>2023-05-24T09:45:07.000Z</time>
        <extensions>
          <gpxtpx:TrackPointExtension xmlns:gpxtpx="http://www.garmin.com/xmlschemas/TrackPointExtension/v1">
            <gpxtpx:hr>133</gpxtpx:hr>
          </gpxtpx:TrackPointExtension>
        </extensions>
      </trkpt>
      <trkpt lat="43.18734" lon="6.18891">
        <ele>228.60000610352</ele>
        <time>2023-05-24T09:45:10.000Z</time>
        <extensions>
          <gpxtpx:TrackPointExtension xmlns:gpxtpx="http://www.garmin.com/xmlschemas/TrackPointExtension/v1">
            <gpxtpx:hr>132</gpxtpx:hr>
          </gpxtpx:TrackPointExtension>
        </extensions>
      </trkpt>
      <trkpt lat="43.18721" lon="6.18869">
        <ele>228.60000610352</ele>
        <time>2023-05-24T09:45:15.000Z</time>
        <extensions>
          <gpxtpx:TrackPointExtension xmlns:gpxtpx="http://www.garmin.com/xmlschemas/TrackPointExtension/v1">
            <gpxtpx:hr>129</gpxtpx:hr>
          </gpxtpx:TrackPointExtension>
        </extensions>
      </trkpt>
      <trkpt lat="43.18719" lon="6.18858">
        <ele>229.39999389648</ele>
        <time>2023-05-24T09:45:17.000Z</time>
        <extensions>
          <gpxtpx:TrackPointExtension xmlns:gpxtpx="http://www.garmin.com/xmlschemas/TrackPointExtension/v1">
            <gpxtpx:hr>131</gpxtpx:hr>
          </gpxtpx:TrackPointExtension>
        </extensions>
      </trkpt>
      <trkpt lat="43.18718" lon="6.18847">
        <ele>230.80000305176</ele>
        <time>2023-05-24T09:45:19.000Z</time>
        <extensions>
          <gpxtpx:TrackPointExtension xmlns:gpxtpx="http://www.garmin.com/xmlschemas/TrackPointExtension/v1">
            <gpxtpx:hr>130</gpxtpx:hr>
          </gpxtpx:TrackPointExtension>
        </extensions>
      </trkpt>
      <trkpt lat="43.18718" lon="6.18841">
        <ele>231.39999389648</ele>
        <time>2023-05-24T09:45:20.000Z</time>
        <extensions>
          <gpxtpx:TrackPointExtension xmlns:gpxtpx="http://www.garmin.com/xmlschemas/TrackPointExtension/v1">
            <gpxtpx:hr>130</gpxtpx:hr>
          </gpxtpx:TrackPointExtension>
        </extensions>
      </trkpt>
      <trkpt lat="43.18718" lon="6.18836">
        <ele>232.19999694824</ele>
        <time>2023-05-24T09:45:21.000Z</time>
        <extensions>
          <gpxtpx:TrackPointExtension xmlns:gpxtpx="http://www.garmin.com/xmlschemas/TrackPointExtension/v1">
            <gpxtpx:hr>130</gpxtpx:hr>
          </gpxtpx:TrackPointExtension>
        </extensions>
      </trkpt>
      <trkpt lat="43.18721" lon="6.18807">
        <ele>235.80000305176</ele>
        <time>2023-05-24T09:45:26.000Z</time>
        <extensions>
          <gpxtpx:TrackPointExtension xmlns:gpxtpx="http://www.garmin.com/xmlschemas/TrackPointExtension/v1">
            <gpxtpx:hr>131</gpxtpx:hr>
          </gpxtpx:TrackPointExtension>
        </extensions>
      </trkpt>
      <trkpt lat="43.18722" lon="6.18796">
        <ele>237.19999694824</ele>
        <time>2023-05-24T09:45:28.000Z</time>
        <extensions>
          <gpxtpx:TrackPointExtension xmlns:gpxtpx="http://www.garmin.com/xmlschemas/TrackPointExtension/v1">
            <gpxtpx:hr>131</gpxtpx:hr>
          </gpxtpx:TrackPointExtension>
        </extensions>
      </trkpt>
      <trkpt lat="43.18724" lon="6.18774">
        <ele>238.80000305176</ele>
        <time>2023-05-24T09:45:32.000Z</time>
        <extensions>
          <gpxtpx:TrackPointExtension xmlns:gpxtpx="http://www.garmin.com/xmlschemas/TrackPointExtension/v1">
            <gpxtpx:hr>131</gpxtpx:hr>
          </gpxtpx:TrackPointExtension>
        </extensions>
      </trkpt>
      <trkpt lat="43.18728" lon="6.1873">
        <ele>239.19999694824</ele>
        <time>2023-05-24T09:45:40.000Z</time>
        <extensions>
          <gpxtpx:TrackPointExtension xmlns:gpxtpx="http://www.garmin.com/xmlschemas/TrackPointExtension/v1">
            <gpxtpx:hr>131</gpxtpx:hr>
          </gpxtpx:TrackPointExtension>
        </extensions>
      </trkpt>
      <trkpt lat="43.18735" lon="6.18698">
        <ele>241.60000610352</ele>
        <time>2023-05-24T09:45:46.000Z</time>
        <extensions>
          <gpxtpx:TrackPointExtension xmlns:gpxtpx="http://www.garmin.com/xmlschemas/TrackPointExtension/v1">
            <gpxtpx:hr>137</gpxtpx:hr>
          </gpxtpx:TrackPointExtension>
        </extensions>
      </trkpt>
      <trkpt lat="43.18738" lon="6.18683">
        <ele>243.39999389648</ele>
        <time>2023-05-24T09:45:49.000Z</time>
        <extensions>
          <gpxtpx:TrackPointExtension xmlns:gpxtpx="http://www.garmin.com/xmlschemas/TrackPointExtension/v1">
            <gpxtpx:hr>134</gpxtpx:hr>
          </gpxtpx:TrackPointExtension>
        </extensions>
      </trkpt>
      <trkpt lat="43.18739" lon="6.18677">
        <ele>243.60000610352</ele>
        <time>2023-05-24T09:45:50.000Z</time>
        <extensions>
          <gpxtpx:TrackPointExtension xmlns:gpxtpx="http://www.garmin.com/xmlschemas/TrackPointExtension/v1">
            <gpxtpx:hr>133</gpxtpx:hr>
          </gpxtpx:TrackPointExtension>
        </extensions>
      </trkpt>
      <trkpt lat="43.18742" lon="6.1864">
        <ele>243.80000305176</ele>
        <time>2023-05-24T09:45:57.000Z</time>
        <extensions>
          <gpxtpx:TrackPointExtension xmlns:gpxtpx="http://www.garmin.com/xmlschemas/TrackPointExtension/v1">
            <gpxtpx:hr>131</gpxtpx:hr>
          </gpxtpx:TrackPointExtension>
        </extensions>
      </trkpt>
      <trkpt lat="43.1875" lon="6.18602">
        <ele>246.80000305176</ele>
        <time>2023-05-24T09:46:04.000Z</time>
        <extensions>
          <gpxtpx:TrackPointExtension xmlns:gpxtpx="http://www.garmin.com/xmlschemas/TrackPointExtension/v1">
            <gpxtpx:hr>131</gpxtpx:hr>
          </gpxtpx:TrackPointExtension>
        </extensions>
      </trkpt>
      <trkpt lat="43.18757" lon="6.18574">
        <ele>250.60000610352</ele>
        <time>2023-05-24T09:46:09.000Z</time>
        <extensions>
          <gpxtpx:TrackPointExtension xmlns:gpxtpx="http://www.garmin.com/xmlschemas/TrackPointExtension/v1">
            <gpxtpx:hr>131</gpxtpx:hr>
          </gpxtpx:TrackPointExtension>
        </extensions>
      </trkpt>
      <trkpt lat="43.18758" lon="6.18562">
        <ele>251.80000305176</ele>
        <time>2023-05-24T09:46:11.000Z</time>
        <extensions>
          <gpxtpx:TrackPointExtension xmlns:gpxtpx="http://www.garmin.com/xmlschemas/TrackPointExtension/v1">
            <gpxtpx:hr>130</gpxtpx:hr>
          </gpxtpx:TrackPointExtension>
        </extensions>
      </trkpt>
      <trkpt lat="43.18756" lon="6.18544">
        <ele>252.60000610352</ele>
        <time>2023-05-24T09:46:14.000Z</time>
        <extensions>
          <gpxtpx:TrackPointExtension xmlns:gpxtpx="http://www.garmin.com/xmlschemas/TrackPointExtension/v1">
            <gpxtpx:hr>130</gpxtpx:hr>
          </gpxtpx:TrackPointExtension>
        </extensions>
      </trkpt>
      <trkpt lat="43.18754" lon="6.18539">
        <ele>253</ele>
        <time>2023-05-24T09:46:15.000Z</time>
        <extensions>
          <gpxtpx:TrackPointExtension xmlns:gpxtpx="http://www.garmin.com/xmlschemas/TrackPointExtension/v1">
            <gpxtpx:hr>130</gpxtpx:hr>
          </gpxtpx:TrackPointExtension>
        </extensions>
      </trkpt>
      <trkpt lat="43.18751" lon="6.18534">
        <ele>253</ele>
        <time>2023-05-24T09:46:16.000Z</time>
        <extensions>
          <gpxtpx:TrackPointExtension xmlns:gpxtpx="http://www.garmin.com/xmlschemas/TrackPointExtension/v1">
            <gpxtpx:hr>130</gpxtpx:hr>
          </gpxtpx:TrackPointExtension>
        </extensions>
      </trkpt>
      <trkpt lat="43.18745" lon="6.18527">
        <ele>251.80000305176</ele>
        <time>2023-05-24T09:46:18.000Z</time>
        <extensions>
          <gpxtpx:TrackPointExtension xmlns:gpxtpx="http://www.garmin.com/xmlschemas/TrackPointExtension/v1">
            <gpxtpx:hr>129</gpxtpx:hr>
          </gpxtpx:TrackPointExtension>
        </extensions>
      </trkpt>
      <trkpt lat="43.18741" lon="6.18526">
        <ele>250.80000305176</ele>
        <time>2023-05-24T09:46:19.000Z</time>
        <extensions>
          <gpxtpx:TrackPointExtension xmlns:gpxtpx="http://www.garmin.com/xmlschemas/TrackPointExtension/v1">
            <gpxtpx:hr>128</gpxtpx:hr>
          </gpxtpx:TrackPointExtension>
        </extensions>
      </trkpt>
      <trkpt lat="43.18714" lon="6.18524">
        <ele>246.60000610352</ele>
        <time>2023-05-24T09:46:25.000Z</time>
        <extensions>
          <gpxtpx:TrackPointExtension xmlns:gpxtpx="http://www.garmin.com/xmlschemas/TrackPointExtension/v1">
            <gpxtpx:hr>127</gpxtpx:hr>
          </gpxtpx:TrackPointExtension>
        </extensions>
      </trkpt>
      <trkpt lat="43.18709" lon="6.18524">
        <ele>246.39999389648</ele>
        <time>2023-05-24T09:46:26.000Z</time>
        <extensions>
          <gpxtpx:TrackPointExtension xmlns:gpxtpx="http://www.garmin.com/xmlschemas/TrackPointExtension/v1">
            <gpxtpx:hr>128</gpxtpx:hr>
          </gpxtpx:TrackPointExtension>
        </extensions>
      </trkpt>
      <trkpt lat="43.18685" lon="6.18522">
        <ele>245</ele>
        <time>2023-05-24T09:46:31.000Z</time>
        <extensions>
          <gpxtpx:TrackPointExtension xmlns:gpxtpx="http://www.garmin.com/xmlschemas/TrackPointExtension/v1">
            <gpxtpx:hr>128</gpxtpx:hr>
          </gpxtpx:TrackPointExtension>
        </extensions>
      </trkpt>
      <trkpt lat="43.18644" lon="6.18519">
        <ele>249</ele>
        <time>2023-05-24T09:46:40.000Z</time>
        <extensions>
          <gpxtpx:TrackPointExtension xmlns:gpxtpx="http://www.garmin.com/xmlschemas/TrackPointExtension/v1">
            <gpxtpx:hr>128</gpxtpx:hr>
          </gpxtpx:TrackPointExtension>
        </extensions>
      </trkpt>
      <trkpt lat="43.18631" lon="6.18519">
        <ele>250.80000305176</ele>
        <time>2023-05-24T09:46:43.000Z</time>
        <extensions>
          <gpxtpx:TrackPointExtension xmlns:gpxtpx="http://www.garmin.com/xmlschemas/TrackPointExtension/v1">
            <gpxtpx:hr>129</gpxtpx:hr>
          </gpxtpx:TrackPointExtension>
        </extensions>
      </trkpt>
      <trkpt lat="43.18622" lon="6.18524">
        <ele>251.19999694824</ele>
        <time>2023-05-24T09:46:45.000Z</time>
        <extensions>
          <gpxtpx:TrackPointExtension xmlns:gpxtpx="http://www.garmin.com/xmlschemas/TrackPointExtension/v1">
            <gpxtpx:hr>129</gpxtpx:hr>
          </gpxtpx:TrackPointExtension>
        </extensions>
      </trkpt>
      <trkpt lat="43.18612" lon="6.18535">
        <ele>249.60000610352</ele>
        <time>2023-05-24T09:46:48.000Z</time>
        <extensions>
          <gpxtpx:TrackPointExtension xmlns:gpxtpx="http://www.garmin.com/xmlschemas/TrackPointExtension/v1">
            <gpxtpx:hr>129</gpxtpx:hr>
          </gpxtpx:TrackPointExtension>
        </extensions>
      </trkpt>
      <trkpt lat="43.18606" lon="6.18544">
        <ele>248.19999694824</ele>
        <time>2023-05-24T09:46:50.000Z</time>
        <extensions>
          <gpxtpx:TrackPointExtension xmlns:gpxtpx="http://www.garmin.com/xmlschemas/TrackPointExtension/v1">
            <gpxtpx:hr>128</gpxtpx:hr>
          </gpxtpx:TrackPointExtension>
        </extensions>
      </trkpt>
      <trkpt lat="43.18602" lon="6.18548">
        <ele>247.80000305176</ele>
        <time>2023-05-24T09:46:51.000Z</time>
        <extensions>
          <gpxtpx:TrackPointExtension xmlns:gpxtpx="http://www.garmin.com/xmlschemas/TrackPointExtension/v1">
            <gpxtpx:hr>128</gpxtpx:hr>
          </gpxtpx:TrackPointExtension>
        </extensions>
      </trkpt>
      <trkpt lat="43.18594" lon="6.18555">
        <ele>247.80000305176</ele>
        <time>2023-05-24T09:46:53.000Z</time>
        <extensions>
          <gpxtpx:TrackPointExtension xmlns:gpxtpx="http://www.garmin.com/xmlschemas/TrackPointExtension/v1">
            <gpxtpx:hr>127</gpxtpx:hr>
          </gpxtpx:TrackPointExtension>
        </extensions>
      </trkpt>
      <trkpt lat="43.18585" lon="6.18559">
        <ele>248.60000610352</ele>
        <time>2023-05-24T09:46:55.000Z</time>
        <extensions>
          <gpxtpx:TrackPointExtension xmlns:gpxtpx="http://www.garmin.com/xmlschemas/TrackPointExtension/v1">
            <gpxtpx:hr>127</gpxtpx:hr>
          </gpxtpx:TrackPointExtension>
        </extensions>
      </trkpt>
      <trkpt lat="43.18576" lon="6.1856">
        <ele>250.60000610352</ele>
        <time>2023-05-24T09:46:57.000Z</time>
        <extensions>
          <gpxtpx:TrackPointExtension xmlns:gpxtpx="http://www.garmin.com/xmlschemas/TrackPointExtension/v1">
            <gpxtpx:hr>126</gpxtpx:hr>
          </gpxtpx:TrackPointExtension>
        </extensions>
      </trkpt>
      <trkpt lat="43.18567" lon="6.18558">
        <ele>251</ele>
        <time>2023-05-24T09:46:59.000Z</time>
        <extensions>
          <gpxtpx:TrackPointExtension xmlns:gpxtpx="http://www.garmin.com/xmlschemas/TrackPointExtension/v1">
            <gpxtpx:hr>126</gpxtpx:hr>
          </gpxtpx:TrackPointExtension>
        </extensions>
      </trkpt>
      <trkpt lat="43.18536" lon="6.18547">
        <ele>252.60000610352</ele>
        <time>2023-05-24T09:47:06.000Z</time>
        <extensions>
          <gpxtpx:TrackPointExtension xmlns:gpxtpx="http://www.garmin.com/xmlschemas/TrackPointExtension/v1">
            <gpxtpx:hr>131</gpxtpx:hr>
          </gpxtpx:TrackPointExtension>
        </extensions>
      </trkpt>
      <trkpt lat="43.18527" lon="6.18545">
        <ele>253.19999694824</ele>
        <time>2023-05-24T09:47:08.000Z</time>
        <extensions>
          <gpxtpx:TrackPointExtension xmlns:gpxtpx="http://www.garmin.com/xmlschemas/TrackPointExtension/v1">
            <gpxtpx:hr>130</gpxtpx:hr>
          </gpxtpx:TrackPointExtension>
        </extensions>
      </trkpt>
      <trkpt lat="43.18491" lon="6.18541">
        <ele>256</ele>
        <time>2023-05-24T09:47:16.000Z</time>
        <extensions>
          <gpxtpx:TrackPointExtension xmlns:gpxtpx="http://www.garmin.com/xmlschemas/TrackPointExtension/v1">
            <gpxtpx:hr>130</gpxtpx:hr>
          </gpxtpx:TrackPointExtension>
        </extensions>
      </trkpt>
      <trkpt lat="43.18487" lon="6.18541">
        <ele>256</ele>
        <time>2023-05-24T09:47:17.000Z</time>
        <extensions>
          <gpxtpx:TrackPointExtension xmlns:gpxtpx="http://www.garmin.com/xmlschemas/TrackPointExtension/v1">
            <gpxtpx:hr>130</gpxtpx:hr>
          </gpxtpx:TrackPointExtension>
        </extensions>
      </trkpt>
      <trkpt lat="43.1847" lon="6.18546">
        <ele>256.60000610352</ele>
        <time>2023-05-24T09:47:21.000Z</time>
        <extensions>
          <gpxtpx:TrackPointExtension xmlns:gpxtpx="http://www.garmin.com/xmlschemas/TrackPointExtension/v1">
            <gpxtpx:hr>130</gpxtpx:hr>
          </gpxtpx:TrackPointExtension>
        </extensions>
      </trkpt>
      <trkpt lat="43.18443" lon="6.18554">
        <ele>255.80000305176</ele>
        <time>2023-05-24T09:47:27.000Z</time>
        <extensions>
          <gpxtpx:TrackPointExtension xmlns:gpxtpx="http://www.garmin.com/xmlschemas/TrackPointExtension/v1">
            <gpxtpx:hr>130</gpxtpx:hr>
          </gpxtpx:TrackPointExtension>
        </extensions>
      </trkpt>
      <trkpt lat="43.18406" lon="6.18563">
        <ele>256.20001220703</ele>
        <time>2023-05-24T09:47:35.000Z</time>
        <extensions>
          <gpxtpx:TrackPointExtension xmlns:gpxtpx="http://www.garmin.com/xmlschemas/TrackPointExtension/v1">
            <gpxtpx:hr>131</gpxtpx:hr>
          </gpxtpx:TrackPointExtension>
        </extensions>
      </trkpt>
      <trkpt lat="43.1838" lon="6.18571">
        <ele>258.20001220703</ele>
        <time>2023-05-24T09:47:41.000Z</time>
        <extensions>
          <gpxtpx:TrackPointExtension xmlns:gpxtpx="http://www.garmin.com/xmlschemas/TrackPointExtension/v1">
            <gpxtpx:hr>131</gpxtpx:hr>
          </gpxtpx:TrackPointExtension>
        </extensions>
      </trkpt>
      <trkpt lat="43.18362" lon="6.18573">
        <ele>258.20001220703</ele>
        <time>2023-05-24T09:47:45.000Z</time>
        <extensions>
          <gpxtpx:TrackPointExtension xmlns:gpxtpx="http://www.garmin.com/xmlschemas/TrackPointExtension/v1">
            <gpxtpx:hr>131</gpxtpx:hr>
          </gpxtpx:TrackPointExtension>
        </extensions>
      </trkpt>
      <trkpt lat="43.18347" lon="6.18572">
        <ele>258</ele>
        <time>2023-05-24T09:47:48.000Z</time>
        <extensions>
          <gpxtpx:TrackPointExtension xmlns:gpxtpx="http://www.garmin.com/xmlschemas/TrackPointExtension/v1">
            <gpxtpx:hr>131</gpxtpx:hr>
          </gpxtpx:TrackPointExtension>
        </extensions>
      </trkpt>
      <trkpt lat="43.18313" lon="6.18562">
        <ele>255.39999389648</ele>
        <time>2023-05-24T09:47:55.000Z</time>
        <extensions>
          <gpxtpx:TrackPointExtension xmlns:gpxtpx="http://www.garmin.com/xmlschemas/TrackPointExtension/v1">
            <gpxtpx:hr>131</gpxtpx:hr>
          </gpxtpx:TrackPointExtension>
        </extensions>
      </trkpt>
      <trkpt lat="43.18294" lon="6.18554">
        <ele>255.39999389648</ele>
        <time>2023-05-24T09:47:59.000Z</time>
        <extensions>
          <gpxtpx:TrackPointExtension xmlns:gpxtpx="http://www.garmin.com/xmlschemas/TrackPointExtension/v1">
            <gpxtpx:hr>128</gpxtpx:hr>
          </gpxtpx:TrackPointExtension>
        </extensions>
      </trkpt>
      <trkpt lat="43.18275" lon="6.18545">
        <ele>256</ele>
        <time>2023-05-24T09:48:03.000Z</time>
        <extensions>
          <gpxtpx:TrackPointExtension xmlns:gpxtpx="http://www.garmin.com/xmlschemas/TrackPointExtension/v1">
            <gpxtpx:hr>126</gpxtpx:hr>
          </gpxtpx:TrackPointExtension>
        </extensions>
      </trkpt>
      <trkpt lat="43.18245" lon="6.18528">
        <ele>255.39999389648</ele>
        <time>2023-05-24T09:48:10.000Z</time>
        <extensions>
          <gpxtpx:TrackPointExtension xmlns:gpxtpx="http://www.garmin.com/xmlschemas/TrackPointExtension/v1">
            <gpxtpx:hr>124</gpxtpx:hr>
          </gpxtpx:TrackPointExtension>
        </extensions>
      </trkpt>
      <trkpt lat="43.18237" lon="6.18521">
        <ele>255.60000610352</ele>
        <time>2023-05-24T09:48:12.000Z</time>
        <extensions>
          <gpxtpx:TrackPointExtension xmlns:gpxtpx="http://www.garmin.com/xmlschemas/TrackPointExtension/v1">
            <gpxtpx:hr>123</gpxtpx:hr>
          </gpxtpx:TrackPointExtension>
        </extensions>
      </trkpt>
      <trkpt lat="43.18232" lon="6.18514">
        <ele>255.60000610352</ele>
        <time>2023-05-24T09:48:14.000Z</time>
        <extensions>
          <gpxtpx:TrackPointExtension xmlns:gpxtpx="http://www.garmin.com/xmlschemas/TrackPointExtension/v1">
            <gpxtpx:hr>122</gpxtpx:hr>
          </gpxtpx:TrackPointExtension>
        </extensions>
      </trkpt>
      <trkpt lat="43.18233" lon="6.18501">
        <ele>256.60000610352</ele>
        <time>2023-05-24T09:48:18.000Z</time>
        <extensions>
          <gpxtpx:TrackPointExtension xmlns:gpxtpx="http://www.garmin.com/xmlschemas/TrackPointExtension/v1">
            <gpxtpx:hr>120</gpxtpx:hr>
          </gpxtpx:TrackPointExtension>
        </extensions>
      </trkpt>
      <trkpt lat="43.18238" lon="6.18488">
        <ele>258.20001220703</ele>
        <time>2023-05-24T09:48:24.000Z</time>
        <extensions>
          <gpxtpx:TrackPointExtension xmlns:gpxtpx="http://www.garmin.com/xmlschemas/TrackPointExtension/v1">
            <gpxtpx:hr>120</gpxtpx:hr>
          </gpxtpx:TrackPointExtension>
        </extensions>
      </trkpt>
      <trkpt lat="43.18242" lon="6.18483">
        <ele>259.20001220703</ele>
        <time>2023-05-24T09:48:27.000Z</time>
        <extensions>
          <gpxtpx:TrackPointExtension xmlns:gpxtpx="http://www.garmin.com/xmlschemas/TrackPointExtension/v1">
            <gpxtpx:hr>119</gpxtpx:hr>
          </gpxtpx:TrackPointExtension>
        </extensions>
      </trkpt>
      <trkpt lat="43.18243" lon="6.1848">
        <ele>259.60000610352</ele>
        <time>2023-05-24T09:48:29.000Z</time>
        <extensions>
          <gpxtpx:TrackPointExtension xmlns:gpxtpx="http://www.garmin.com/xmlschemas/TrackPointExtension/v1">
            <gpxtpx:hr>119</gpxtpx:hr>
          </gpxtpx:TrackPointExtension>
        </extensions>
      </trkpt>
      <trkpt lat="43.18243" lon="6.1848">
        <ele>259.60000610352</ele>
        <time>2023-05-24T09:48:34.000Z</time>
        <extensions>
          <gpxtpx:TrackPointExtension xmlns:gpxtpx="http://www.garmin.com/xmlschemas/TrackPointExtension/v1">
            <gpxtpx:hr>117</gpxtpx:hr>
          </gpxtpx:TrackPointExtension>
        </extensions>
      </trkpt>
      <trkpt lat="43.18243" lon="6.1848">
        <ele>259.60000610352</ele>
        <time>2023-05-24T09:48:48.000Z</time>
        <extensions>
          <gpxtpx:TrackPointExtension xmlns:gpxtpx="http://www.garmin.com/xmlschemas/TrackPointExtension/v1">
            <gpxtpx:hr>115</gpxtpx:hr>
          </gpxtpx:TrackPointExtension>
        </extensions>
      </trkpt>
      <trkpt lat="43.18243" lon="6.1848">
        <ele>259.60000610352</ele>
        <time>2023-05-24T09:49:02.000Z</time>
        <extensions>
          <gpxtpx:TrackPointExtension xmlns:gpxtpx="http://www.garmin.com/xmlschemas/TrackPointExtension/v1">
            <gpxtpx:hr>114</gpxtpx:hr>
          </gpxtpx:TrackPointExtension>
        </extensions>
      </trkpt>
      <trkpt lat="43.18243" lon="6.1848">
        <ele>259.60000610352</ele>
        <time>2023-05-24T09:49:07.000Z</time>
        <extensions>
          <gpxtpx:TrackPointExtension xmlns:gpxtpx="http://www.garmin.com/xmlschemas/TrackPointExtension/v1">
            <gpxtpx:hr>117</gpxtpx:hr>
          </gpxtpx:TrackPointExtension>
        </extensions>
      </trkpt>
      <trkpt lat="43.18243" lon="6.1848">
        <ele>259.60000610352</ele>
        <time>2023-05-24T09:49:12.000Z</time>
        <extensions>
          <gpxtpx:TrackPointExtension xmlns:gpxtpx="http://www.garmin.com/xmlschemas/TrackPointExtension/v1">
            <gpxtpx:hr>114</gpxtpx:hr>
          </gpxtpx:TrackPointExtension>
        </extensions>
      </trkpt>
      <trkpt lat="43.18243" lon="6.1848">
        <ele>259.60000610352</ele>
        <time>2023-05-24T09:49:23.000Z</time>
        <extensions>
          <gpxtpx:TrackPointExtension xmlns:gpxtpx="http://www.garmin.com/xmlschemas/TrackPointExtension/v1">
            <gpxtpx:hr>116</gpxtpx:hr>
          </gpxtpx:TrackPointExtension>
        </extensions>
      </trkpt>
      <trkpt lat="43.18243" lon="6.1848">
        <ele>259.60000610352</ele>
        <time>2023-05-24T09:49:27.000Z</time>
        <extensions>
          <gpxtpx:TrackPointExtension xmlns:gpxtpx="http://www.garmin.com/xmlschemas/TrackPointExtension/v1">
            <gpxtpx:hr>113</gpxtpx:hr>
          </gpxtpx:TrackPointExtension>
        </extensions>
      </trkpt>
      <trkpt lat="43.18243" lon="6.1848">
        <ele>259.60000610352</ele>
        <time>2023-05-24T09:49:41.000Z</time>
        <extensions>
          <gpxtpx:TrackPointExtension xmlns:gpxtpx="http://www.garmin.com/xmlschemas/TrackPointExtension/v1">
            <gpxtpx:hr>114</gpxtpx:hr>
          </gpxtpx:TrackPointExtension>
        </extensions>
      </trkpt>
      <trkpt lat="43.18241" lon="6.18483">
        <ele>259</ele>
        <time>2023-05-24T09:49:46.000Z</time>
        <extensions>
          <gpxtpx:TrackPointExtension xmlns:gpxtpx="http://www.garmin.com/xmlschemas/TrackPointExtension/v1">
            <gpxtpx:hr>110</gpxtpx:hr>
          </gpxtpx:TrackPointExtension>
        </extensions>
      </trkpt>
      <trkpt lat="43.18241" lon="6.18483">
        <ele>259</ele>
        <time>2023-05-24T09:49:47.000Z</time>
        <extensions>
          <gpxtpx:TrackPointExtension xmlns:gpxtpx="http://www.garmin.com/xmlschemas/TrackPointExtension/v1">
            <gpxtpx:hr>109</gpxtpx:hr>
          </gpxtpx:TrackPointExtension>
        </extensions>
      </trkpt>
      <trkpt lat="43.18241" lon="6.18483">
        <ele>259</ele>
        <time>2023-05-24T09:49:49.000Z</time>
        <extensions>
          <gpxtpx:TrackPointExtension xmlns:gpxtpx="http://www.garmin.com/xmlschemas/TrackPointExtension/v1">
            <gpxtpx:hr>108</gpxtpx:hr>
          </gpxtpx:TrackPointExtension>
        </extensions>
      </trkpt>
      <trkpt lat="43.18238" lon="6.18489">
        <ele>258</ele>
        <time>2023-05-24T09:49:52.000Z</time>
        <extensions>
          <gpxtpx:TrackPointExtension xmlns:gpxtpx="http://www.garmin.com/xmlschemas/TrackPointExtension/v1">
            <gpxtpx:hr>109</gpxtpx:hr>
          </gpxtpx:TrackPointExtension>
        </extensions>
      </trkpt>
      <trkpt lat="43.18226" lon="6.18506">
        <ele>254.80000305176</ele>
        <time>2023-05-24T09:49:57.000Z</time>
        <extensions>
          <gpxtpx:TrackPointExtension xmlns:gpxtpx="http://www.garmin.com/xmlschemas/TrackPointExtension/v1">
            <gpxtpx:hr>108</gpxtpx:hr>
          </gpxtpx:TrackPointExtension>
        </extensions>
      </trkpt>
      <trkpt lat="43.18214" lon="6.18521">
        <ele>251.80000305176</ele>
        <time>2023-05-24T09:50:02.000Z</time>
        <extensions>
          <gpxtpx:TrackPointExtension xmlns:gpxtpx="http://www.garmin.com/xmlschemas/TrackPointExtension/v1">
            <gpxtpx:hr>106</gpxtpx:hr>
          </gpxtpx:TrackPointExtension>
        </extensions>
      </trkpt>
      <trkpt lat="43.18209" lon="6.18523">
        <ele>251.60000610352</ele>
        <time>2023-05-24T09:50:06.000Z</time>
        <extensions>
          <gpxtpx:TrackPointExtension xmlns:gpxtpx="http://www.garmin.com/xmlschemas/TrackPointExtension/v1">
            <gpxtpx:hr>106</gpxtpx:hr>
          </gpxtpx:TrackPointExtension>
        </extensions>
      </trkpt>
      <trkpt lat="43.18209" lon="6.18523">
        <ele>251.60000610352</ele>
        <time>2023-05-24T09:50:17.000Z</time>
        <extensions>
          <gpxtpx:TrackPointExtension xmlns:gpxtpx="http://www.garmin.com/xmlschemas/TrackPointExtension/v1">
            <gpxtpx:hr>107</gpxtpx:hr>
          </gpxtpx:TrackPointExtension>
        </extensions>
      </trkpt>
      <trkpt lat="43.18209" lon="6.18523">
        <ele>251.60000610352</ele>
        <time>2023-05-24T09:50:26.000Z</time>
        <extensions>
          <gpxtpx:TrackPointExtension xmlns:gpxtpx="http://www.garmin.com/xmlschemas/TrackPointExtension/v1">
            <gpxtpx:hr>104</gpxtpx:hr>
          </gpxtpx:TrackPointExtension>
        </extensions>
      </trkpt>
      <trkpt lat="43.18209" lon="6.18523">
        <ele>251.60000610352</ele>
        <time>2023-05-24T09:50:33.000Z</time>
        <extensions>
          <gpxtpx:TrackPointExtension xmlns:gpxtpx="http://www.garmin.com/xmlschemas/TrackPointExtension/v1">
            <gpxtpx:hr>105</gpxtpx:hr>
          </gpxtpx:TrackPointExtension>
        </extensions>
      </trkpt>
      <trkpt lat="43.18209" lon="6.18523">
        <ele>251.60000610352</ele>
        <time>2023-05-24T09:50:36.000Z</time>
        <extensions>
          <gpxtpx:TrackPointExtension xmlns:gpxtpx="http://www.garmin.com/xmlschemas/TrackPointExtension/v1">
            <gpxtpx:hr>108</gpxtpx:hr>
          </gpxtpx:TrackPointExtension>
        </extensions>
      </trkpt>
      <trkpt lat="43.18209" lon="6.18523">
        <ele>251.60000610352</ele>
        <time>2023-05-24T09:50:44.000Z</time>
        <extensions>
          <gpxtpx:TrackPointExtension xmlns:gpxtpx="http://www.garmin.com/xmlschemas/TrackPointExtension/v1">
            <gpxtpx:hr>108</gpxtpx:hr>
          </gpxtpx:TrackPointExtension>
        </extensions>
      </trkpt>
      <trkpt lat="43.18209" lon="6.18523">
        <ele>251.60000610352</ele>
        <time>2023-05-24T09:50:58.000Z</time>
        <extensions>
          <gpxtpx:TrackPointExtension xmlns:gpxtpx="http://www.garmin.com/xmlschemas/TrackPointExtension/v1">
            <gpxtpx:hr>109</gpxtpx:hr>
          </gpxtpx:TrackPointExtension>
        </extensions>
      </trkpt>
      <trkpt lat="43.18209" lon="6.18523">
        <ele>251.60000610352</ele>
        <time>2023-05-24T09:51:05.000Z</time>
        <extensions>
          <gpxtpx:TrackPointExtension xmlns:gpxtpx="http://www.garmin.com/xmlschemas/TrackPointExtension/v1">
            <gpxtpx:hr>106</gpxtpx:hr>
          </gpxtpx:TrackPointExtension>
        </extensions>
      </trkpt>
      <trkpt lat="43.18209" lon="6.18523">
        <ele>251.60000610352</ele>
        <time>2023-05-24T09:51:13.000Z</time>
        <extensions>
          <gpxtpx:TrackPointExtension xmlns:gpxtpx="http://www.garmin.com/xmlschemas/TrackPointExtension/v1">
            <gpxtpx:hr>106</gpxtpx:hr>
          </gpxtpx:TrackPointExtension>
        </extensions>
      </trkpt>
      <trkpt lat="43.18208" lon="6.18524">
        <ele>251.39999389648</ele>
        <time>2023-05-24T09:51:14.000Z</time>
        <extensions>
          <gpxtpx:TrackPointExtension xmlns:gpxtpx="http://www.garmin.com/xmlschemas/TrackPointExtension/v1">
            <gpxtpx:hr>107</gpxtpx:hr>
          </gpxtpx:TrackPointExtension>
        </extensions>
      </trkpt>
      <trkpt lat="43.18207" lon="6.18525">
        <ele>251.39999389648</ele>
        <time>2023-05-24T09:51:16.000Z</time>
        <extensions>
          <gpxtpx:TrackPointExtension xmlns:gpxtpx="http://www.garmin.com/xmlschemas/TrackPointExtension/v1">
            <gpxtpx:hr>108</gpxtpx:hr>
          </gpxtpx:TrackPointExtension>
        </extensions>
      </trkpt>
      <trkpt lat="43.18205" lon="6.18528">
        <ele>251</ele>
        <time>2023-05-24T09:51:19.000Z</time>
        <extensions>
          <gpxtpx:TrackPointExtension xmlns:gpxtpx="http://www.garmin.com/xmlschemas/TrackPointExtension/v1">
            <gpxtpx:hr>108</gpxtpx:hr>
          </gpxtpx:TrackPointExtension>
        </extensions>
      </trkpt>
      <trkpt lat="43.18201" lon="6.18534">
        <ele>250.39999389648</ele>
        <time>2023-05-24T09:51:27.000Z</time>
        <extensions>
          <gpxtpx:TrackPointExtension xmlns:gpxtpx="http://www.garmin.com/xmlschemas/TrackPointExtension/v1">
            <gpxtpx:hr>106</gpxtpx:hr>
          </gpxtpx:TrackPointExtension>
        </extensions>
      </trkpt>
      <trkpt lat="43.18201" lon="6.18533">
        <ele>250.60000610352</ele>
        <time>2023-05-24T09:51:33.000Z</time>
        <extensions>
          <gpxtpx:TrackPointExtension xmlns:gpxtpx="http://www.garmin.com/xmlschemas/TrackPointExtension/v1">
            <gpxtpx:hr>108</gpxtpx:hr>
          </gpxtpx:TrackPointExtension>
        </extensions>
      </trkpt>
      <trkpt lat="43.18201" lon="6.18533">
        <ele>250.60000610352</ele>
        <time>2023-05-24T09:51:43.000Z</time>
        <extensions>
          <gpxtpx:TrackPointExtension xmlns:gpxtpx="http://www.garmin.com/xmlschemas/TrackPointExtension/v1">
            <gpxtpx:hr>108</gpxtpx:hr>
          </gpxtpx:TrackPointExtension>
        </extensions>
      </trkpt>
      <trkpt lat="43.18201" lon="6.18533">
        <ele>250.60000610352</ele>
        <time>2023-05-24T09:51:55.000Z</time>
        <extensions>
          <gpxtpx:TrackPointExtension xmlns:gpxtpx="http://www.garmin.com/xmlschemas/TrackPointExtension/v1">
            <gpxtpx:hr>111</gpxtpx:hr>
          </gpxtpx:TrackPointExtension>
        </extensions>
      </trkpt>
      <trkpt lat="43.18201" lon="6.18533">
        <ele>250.60000610352</ele>
        <time>2023-05-24T09:52:00.000Z</time>
        <extensions>
          <gpxtpx:TrackPointExtension xmlns:gpxtpx="http://www.garmin.com/xmlschemas/TrackPointExtension/v1">
            <gpxtpx:hr>112</gpxtpx:hr>
          </gpxtpx:TrackPointExtension>
        </extensions>
      </trkpt>
      <trkpt lat="43.182" lon="6.18533">
        <ele>250.39999389648</ele>
        <time>2023-05-24T09:52:27.000Z</time>
      </trkpt>
      <trkpt lat="43.182" lon="6.18533">
        <ele>250.39999389648</ele>
        <time>2023-05-24T09:52:46.000Z</time>
        <extensions>
          <gpxtpx:TrackPointExtension xmlns:gpxtpx="http://www.garmin.com/xmlschemas/TrackPointExtension/v1">
            <gpxtpx:hr>110</gpxtpx:hr>
          </gpxtpx:TrackPointExtension>
        </extensions>
      </trkpt>
      <trkpt lat="43.182" lon="6.18534">
        <ele>250.39999389648</ele>
        <time>2023-05-24T09:52:52.000Z</time>
        <extensions>
          <gpxtpx:TrackPointExtension xmlns:gpxtpx="http://www.garmin.com/xmlschemas/TrackPointExtension/v1">
            <gpxtpx:hr>107</gpxtpx:hr>
          </gpxtpx:TrackPointExtension>
        </extensions>
      </trkpt>
      <trkpt lat="43.182" lon="6.18534">
        <ele>250.39999389648</ele>
        <time>2023-05-24T09:53:13.000Z</time>
      </trkpt>
      <trkpt lat="43.182" lon="6.18534">
        <ele>250.39999389648</ele>
        <time>2023-05-24T09:53:32.000Z</time>
        <extensions>
          <gpxtpx:TrackPointExtension xmlns:gpxtpx="http://www.garmin.com/xmlschemas/TrackPointExtension/v1">
            <gpxtpx:hr>97</gpxtpx:hr>
          </gpxtpx:TrackPointExtension>
        </extensions>
      </trkpt>
      <trkpt lat="43.182" lon="6.18534">
        <ele>250.39999389648</ele>
        <time>2023-05-24T09:53:33.000Z</time>
        <extensions>
          <gpxtpx:TrackPointExtension xmlns:gpxtpx="http://www.garmin.com/xmlschemas/TrackPointExtension/v1">
            <gpxtpx:hr>97</gpxtpx:hr>
          </gpxtpx:TrackPointExtension>
        </extensions>
      </trkpt>
      <trkpt lat="43.182" lon="6.18534">
        <ele>250.39999389648</ele>
        <time>2023-05-24T09:53:34.000Z</time>
        <extensions>
          <gpxtpx:TrackPointExtension xmlns:gpxtpx="http://www.garmin.com/xmlschemas/TrackPointExtension/v1">
            <gpxtpx:hr>97</gpxtpx:hr>
          </gpxtpx:TrackPointExtension>
        </extensions>
      </trkpt>
      <trkpt lat="43.182" lon="6.18534">
        <ele>250.39999389648</ele>
        <time>2023-05-24T09:53:56.000Z</time>
      </trkpt>
      <trkpt lat="43.182" lon="6.18534">
        <ele>250.60000610352</ele>
        <time>2023-05-24T09:54:19.000Z</time>
      </trkpt>
      <trkpt lat="43.182" lon="6.18534">
        <ele>250.60000610352</ele>
        <time>2023-05-24T09:54:42.000Z</time>
      </trkpt>
      <trkpt lat="43.18199" lon="6.18533">
        <ele>250.60000610352</ele>
        <time>2023-05-24T09:55:04.000Z</time>
      </trkpt>
      <trkpt lat="43.18199" lon="6.18533">
        <ele>250.60000610352</ele>
        <time>2023-05-24T09:55:25.000Z</time>
      </trkpt>
      <trkpt lat="43.18199" lon="6.18533">
        <ele>250.60000610352</ele>
        <time>2023-05-24T09:55:46.000Z</time>
      </trkpt>
      <trkpt lat="43.18199" lon="6.18533">
        <ele>250.60000610352</ele>
        <time>2023-05-24T09:56:06.000Z</time>
      </trkpt>
      <trkpt lat="43.18198" lon="6.18533">
        <ele>250.60000610352</ele>
        <time>2023-05-24T09:56:30.000Z</time>
      </trkpt>
      <trkpt lat="43.18198" lon="6.18533">
        <ele>250.60000610352</ele>
        <time>2023-05-24T09:56:53.000Z</time>
      </trkpt>
      <trkpt lat="43.18198" lon="6.18533">
        <ele>250.60000610352</ele>
        <time>2023-05-24T09:57:15.000Z</time>
      </trkpt>
      <trkpt lat="43.18198" lon="6.18534">
        <ele>250.60000610352</ele>
        <time>2023-05-24T09:57:38.000Z</time>
      </trkpt>
      <trkpt lat="43.18198" lon="6.18534">
        <ele>250.60000610352</ele>
        <time>2023-05-24T09:58:03.000Z</time>
      </trkpt>
      <trkpt lat="43.18198" lon="6.18534">
        <ele>250.60000610352</ele>
        <time>2023-05-24T09:58:27.000Z</time>
      </trkpt>
      <trkpt lat="43.18198" lon="6.18533">
        <ele>250.60000610352</ele>
        <time>2023-05-24T09:58:51.000Z</time>
      </trkpt>
      <trkpt lat="43.18198" lon="6.18533">
        <ele>250.60000610352</ele>
        <time>2023-05-24T09:59:20.000Z</time>
      </trkpt>
      <trkpt lat="43.18198" lon="6.18532">
        <ele>250.60000610352</ele>
        <time>2023-05-24T09:59:48.000Z</time>
      </trkpt>
      <trkpt lat="43.18198" lon="6.18532">
        <ele>250.60000610352</ele>
        <time>2023-05-24T10:00:12.000Z</time>
      </trkpt>
      <trkpt lat="43.18198" lon="6.18532">
        <ele>250.60000610352</ele>
        <time>2023-05-24T10:00:38.000Z</time>
      </trkpt>
      <trkpt lat="43.18198" lon="6.18532">
        <ele>250.60000610352</ele>
        <time>2023-05-24T10:01:03.000Z</time>
      </trkpt>
      <trkpt lat="43.18198" lon="6.18532">
        <ele>250.60000610352</ele>
        <time>2023-05-24T10:01:29.000Z</time>
      </trkpt>
      <trkpt lat="43.18199" lon="6.18532">
        <ele>250.60000610352</ele>
        <time>2023-05-24T10:01:52.000Z</time>
      </trkpt>
      <trkpt lat="43.18199" lon="6.18532">
        <ele>250.60000610352</ele>
        <time>2023-05-24T10:02:18.000Z</time>
      </trkpt>
      <trkpt lat="43.18199" lon="6.18532">
        <ele>250.60000610352</ele>
        <time>2023-05-24T10:02:41.000Z</time>
      </trkpt>
      <trkpt lat="43.18199" lon="6.18531">
        <ele>250.60000610352</ele>
        <time>2023-05-24T10:03:05.000Z</time>
      </trkpt>
      <trkpt lat="43.18199" lon="6.18531">
        <ele>250.60000610352</ele>
        <time>2023-05-24T10:03:29.000Z</time>
      </trkpt>
      <trkpt lat="43.18199" lon="6.18532">
        <ele>250.60000610352</ele>
        <time>2023-05-24T10:03:50.000Z</time>
      </trkpt>
      <trkpt lat="43.18199" lon="6.18532">
        <ele>250.60000610352</ele>
        <time>2023-05-24T10:04:14.000Z</time>
      </trkpt>
      <trkpt lat="43.18199" lon="6.18532">
        <ele>250.60000610352</ele>
        <time>2023-05-24T10:04:35.000Z</time>
      </trkpt>
      <trkpt lat="43.18199" lon="6.18532">
        <ele>250.60000610352</ele>
        <time>2023-05-24T10:04:56.000Z</time>
      </trkpt>
      <trkpt lat="43.18199" lon="6.18532">
        <ele>250.60000610352</ele>
        <time>2023-05-24T10:05:18.000Z</time>
      </trkpt>
      <trkpt lat="43.18199" lon="6.18532">
        <ele>250.60000610352</ele>
        <time>2023-05-24T10:05:36.000Z</time>
      </trkpt>
      <trkpt lat="43.18199" lon="6.18532">
        <ele>250.60000610352</ele>
        <time>2023-05-24T10:05:55.000Z</time>
      </trkpt>
      <trkpt lat="43.18199" lon="6.18532">
        <ele>250.60000610352</ele>
        <time>2023-05-24T10:06:19.000Z</time>
      </trkpt>
      <trkpt lat="43.18199" lon="6.18532">
        <ele>250.60000610352</ele>
        <time>2023-05-24T10:06:40.000Z</time>
      </trkpt>
      <trkpt lat="43.18198" lon="6.18532">
        <ele>250.60000610352</ele>
        <time>2023-05-24T10:06:59.000Z</time>
      </trkpt>
      <trkpt lat="43.18198" lon="6.18532">
        <ele>250.60000610352</ele>
        <time>2023-05-24T10:07:21.000Z</time>
      </trkpt>
      <trkpt lat="43.18199" lon="6.18532">
        <ele>250.60000610352</ele>
        <time>2023-05-24T10:07:42.000Z</time>
      </trkpt>
      <trkpt lat="43.18199" lon="6.18532">
        <ele>250.60000610352</ele>
        <time>2023-05-24T10:08:02.000Z</time>
      </trkpt>
      <trkpt lat="43.18199" lon="6.18532">
        <ele>250.60000610352</ele>
        <time>2023-05-24T10:08:23.000Z</time>
      </trkpt>
      <trkpt lat="43.18199" lon="6.18532">
        <ele>250.60000610352</ele>
        <time>2023-05-24T10:08:47.000Z</time>
      </trkpt>
      <trkpt lat="43.18199" lon="6.18532">
        <ele>250.60000610352</ele>
        <time>2023-05-24T10:09:07.000Z</time>
      </trkpt>
      <trkpt lat="43.18199" lon="6.18531">
        <ele>250.80000305176</ele>
        <time>2023-05-24T10:09:34.000Z</time>
      </trkpt>
      <trkpt lat="43.18199" lon="6.18531">
        <ele>250.80000305176</ele>
        <time>2023-05-24T10:09:55.000Z</time>
      </trkpt>
      <trkpt lat="43.18199" lon="6.18531">
        <ele>250.60000610352</ele>
        <time>2023-05-24T10:10:15.000Z</time>
      </trkpt>
      <trkpt lat="43.18199" lon="6.18531">
        <ele>250.60000610352</ele>
        <time>2023-05-24T10:10:36.000Z</time>
      </trkpt>
      <trkpt lat="43.18199" lon="6.18532">
        <ele>250.60000610352</ele>
        <time>2023-05-24T10:10:57.000Z</time>
      </trkpt>
      <trkpt lat="43.18199" lon="6.18532">
        <ele>250.60000610352</ele>
        <time>2023-05-24T10:11:22.000Z</time>
      </trkpt>
      <trkpt lat="43.18199" lon="6.18531">
        <ele>250.60000610352</ele>
        <time>2023-05-24T10:11:44.000Z</time>
      </trkpt>
      <trkpt lat="43.18199" lon="6.18531">
        <ele>250.60000610352</ele>
        <time>2023-05-24T10:12:06.000Z</time>
      </trkpt>
      <trkpt lat="43.18199" lon="6.18532">
        <ele>250.60000610352</ele>
        <time>2023-05-24T10:12:28.000Z</time>
      </trkpt>
      <trkpt lat="43.18199" lon="6.18532">
        <ele>250.60000610352</ele>
        <time>2023-05-24T10:12:49.000Z</time>
      </trkpt>
      <trkpt lat="43.18199" lon="6.18532">
        <ele>250.60000610352</ele>
        <time>2023-05-24T10:13:11.000Z</time>
      </trkpt>
      <trkpt lat="43.18199" lon="6.18532">
        <ele>250.60000610352</ele>
        <time>2023-05-24T10:13:35.000Z</time>
      </trkpt>
      <trkpt lat="43.18199" lon="6.18532">
        <ele>250.60000610352</ele>
        <time>2023-05-24T10:13:56.000Z</time>
      </trkpt>
      <trkpt lat="43.18199" lon="6.18532">
        <ele>250.60000610352</ele>
        <time>2023-05-24T10:14:19.000Z</time>
      </trkpt>
      <trkpt lat="43.18199" lon="6.18532">
        <ele>250.60000610352</ele>
        <time>2023-05-24T10:14:45.000Z</time>
      </trkpt>
      <trkpt lat="43.18199" lon="6.18531">
        <ele>250.60000610352</ele>
        <time>2023-05-24T10:15:06.000Z</time>
      </trkpt>
      <trkpt lat="43.18199" lon="6.1853">
        <ele>250.80000305176</ele>
        <time>2023-05-24T10:15:30.000Z</time>
      </trkpt>
      <trkpt lat="43.18199" lon="6.1853">
        <ele>250.80000305176</ele>
        <time>2023-05-24T10:15:53.000Z</time>
      </trkpt>
      <trkpt lat="43.18199" lon="6.1853">
        <ele>250.80000305176</ele>
        <time>2023-05-24T10:16:14.000Z</time>
      </trkpt>
      <trkpt lat="43.18199" lon="6.1853">
        <ele>250.80000305176</ele>
        <time>2023-05-24T10:16:37.000Z</time>
      </trkpt>
      <trkpt lat="43.18199" lon="6.18531">
        <ele>250.80000305176</ele>
        <time>2023-05-24T10:17:05.000Z</time>
      </trkpt>
      <trkpt lat="43.18199" lon="6.18531">
        <ele>250.80000305176</ele>
        <time>2023-05-24T10:17:32.000Z</time>
      </trkpt>
      <trkpt lat="43.18199" lon="6.18531">
        <ele>250.80000305176</ele>
        <time>2023-05-24T10:17:56.000Z</time>
      </trkpt>
      <trkpt lat="43.18199" lon="6.18531">
        <ele>250.80000305176</ele>
        <time>2023-05-24T10:18:20.000Z</time>
      </trkpt>
      <trkpt lat="43.18199" lon="6.18531">
        <ele>250.80000305176</ele>
        <time>2023-05-24T10:18:48.000Z</time>
      </trkpt>
      <trkpt lat="43.18199" lon="6.18531">
        <ele>250.80000305176</ele>
        <time>2023-05-24T10:19:12.000Z</time>
        <extensions>
          <gpxtpx:TrackPointExtension xmlns:gpxtpx="http://www.garmin.com/xmlschemas/TrackPointExtension/v1">
            <gpxtpx:hr>85</gpxtpx:hr>
          </gpxtpx:TrackPointExtension>
        </extensions>
      </trkpt>
      <trkpt lat="43.18199" lon="6.18531">
        <ele>250.80000305176</ele>
        <time>2023-05-24T10:19:13.000Z</time>
        <extensions>
          <gpxtpx:TrackPointExtension xmlns:gpxtpx="http://www.garmin.com/xmlschemas/TrackPointExtension/v1">
            <gpxtpx:hr>85</gpxtpx:hr>
          </gpxtpx:TrackPointExtension>
        </extensions>
      </trkpt>
      <trkpt lat="43.18199" lon="6.18531">
        <ele>250.80000305176</ele>
        <time>2023-05-24T10:19:19.000Z</time>
        <extensions>
          <gpxtpx:TrackPointExtension xmlns:gpxtpx="http://www.garmin.com/xmlschemas/TrackPointExtension/v1">
            <gpxtpx:hr>84</gpxtpx:hr>
          </gpxtpx:TrackPointExtension>
        </extensions>
      </trkpt>
      <trkpt lat="43.18199" lon="6.18531">
        <ele>250.80000305176</ele>
        <time>2023-05-24T10:19:43.000Z</time>
        <extensions>
          <gpxtpx:TrackPointExtension xmlns:gpxtpx="http://www.garmin.com/xmlschemas/TrackPointExtension/v1">
            <gpxtpx:hr>81</gpxtpx:hr>
          </gpxtpx:TrackPointExtension>
        </extensions>
      </trkpt>
      <trkpt lat="43.18199" lon="6.18531">
        <ele>250.80000305176</ele>
        <time>2023-05-24T10:19:45.000Z</time>
        <extensions>
          <gpxtpx:TrackPointExtension xmlns:gpxtpx="http://www.garmin.com/xmlschemas/TrackPointExtension/v1">
            <gpxtpx:hr>80</gpxtpx:hr>
          </gpxtpx:TrackPointExtension>
        </extensions>
      </trkpt>
      <trkpt lat="43.18199" lon="6.18531">
        <ele>250.80000305176</ele>
        <time>2023-05-24T10:19:58.000Z</time>
        <extensions>
          <gpxtpx:TrackPointExtension xmlns:gpxtpx="http://www.garmin.com/xmlschemas/TrackPointExtension/v1">
            <gpxtpx:hr>83</gpxtpx:hr>
          </gpxtpx:TrackPointExtension>
        </extensions>
      </trkpt>
      <trkpt lat="43.18199" lon="6.18531">
        <ele>250.80000305176</ele>
        <time>2023-05-24T10:20:14.000Z</time>
      </trkpt>
      <trkpt lat="43.18199" lon="6.18531">
        <ele>250.80000305176</ele>
        <time>2023-05-24T10:20:23.000Z</time>
        <extensions>
          <gpxtpx:TrackPointExtension xmlns:gpxtpx="http://www.garmin.com/xmlschemas/TrackPointExtension/v1">
            <gpxtpx:hr>79</gpxtpx:hr>
          </gpxtpx:TrackPointExtension>
        </extensions>
      </trkpt>
      <trkpt lat="43.18199" lon="6.18531">
        <ele>250.80000305176</ele>
        <time>2023-05-24T10:20:24.000Z</time>
        <extensions>
          <gpxtpx:TrackPointExtension xmlns:gpxtpx="http://www.garmin.com/xmlschemas/TrackPointExtension/v1">
            <gpxtpx:hr>79</gpxtpx:hr>
          </gpxtpx:TrackPointExtension>
        </extensions>
      </trkpt>
      <trkpt lat="43.18199" lon="6.18531">
        <ele>250.80000305176</ele>
        <time>2023-05-24T10:20:40.000Z</time>
        <extensions>
          <gpxtpx:TrackPointExtension xmlns:gpxtpx="http://www.garmin.com/xmlschemas/TrackPointExtension/v1">
            <gpxtpx:hr>79</gpxtpx:hr>
          </gpxtpx:TrackPointExtension>
        </extensions>
      </trkpt>
      <trkpt lat="43.18199" lon="6.18531">
        <ele>250.80000305176</ele>
        <time>2023-05-24T10:20:58.000Z</time>
        <extensions>
          <gpxtpx:TrackPointExtension xmlns:gpxtpx="http://www.garmin.com/xmlschemas/TrackPointExtension/v1">
            <gpxtpx:hr>80</gpxtpx:hr>
          </gpxtpx:TrackPointExtension>
        </extensions>
      </trkpt>
      <trkpt lat="43.18199" lon="6.18531">
        <ele>250.80000305176</ele>
        <time>2023-05-24T10:21:04.000Z</time>
        <extensions>
          <gpxtpx:TrackPointExtension xmlns:gpxtpx="http://www.garmin.com/xmlschemas/TrackPointExtension/v1">
            <gpxtpx:hr>84</gpxtpx:hr>
          </gpxtpx:TrackPointExtension>
        </extensions>
      </trkpt>
      <trkpt lat="43.18199" lon="6.18531">
        <ele>250.80000305176</ele>
        <time>2023-05-24T10:21:11.000Z</time>
        <extensions>
          <gpxtpx:TrackPointExtension xmlns:gpxtpx="http://www.garmin.com/xmlschemas/TrackPointExtension/v1">
            <gpxtpx:hr>87</gpxtpx:hr>
          </gpxtpx:TrackPointExtension>
        </extensions>
      </trkpt>
      <trkpt lat="43.18199" lon="6.18531">
        <ele>250.80000305176</ele>
        <time>2023-05-24T10:21:18.000Z</time>
      </trkpt>
      <trkpt lat="43.18199" lon="6.18531">
        <ele>250.80000305176</ele>
        <time>2023-05-24T10:21:39.000Z</time>
      </trkpt>
      <trkpt lat="43.18199" lon="6.18531">
        <ele>250.80000305176</ele>
        <time>2023-05-24T10:22:01.000Z</time>
      </trkpt>
      <trkpt lat="43.18199" lon="6.18531">
        <ele>250.80000305176</ele>
        <time>2023-05-24T10:22:25.000Z</time>
      </trkpt>
      <trkpt lat="43.18199" lon="6.18531">
        <ele>250.80000305176</ele>
        <time>2023-05-24T10:22:47.000Z</time>
      </trkpt>
      <trkpt lat="43.18199" lon="6.18531">
        <ele>250.80000305176</ele>
        <time>2023-05-24T10:23:09.000Z</time>
      </trkpt>
      <trkpt lat="43.18199" lon="6.18531">
        <ele>250.80000305176</ele>
        <time>2023-05-24T10:23:15.000Z</time>
        <extensions>
          <gpxtpx:TrackPointExtension xmlns:gpxtpx="http://www.garmin.com/xmlschemas/TrackPointExtension/v1">
            <gpxtpx:hr>93</gpxtpx:hr>
          </gpxtpx:TrackPointExtension>
        </extensions>
      </trkpt>
      <trkpt lat="43.18199" lon="6.18531">
        <ele>250.80000305176</ele>
        <time>2023-05-24T10:23:16.000Z</time>
        <extensions>
          <gpxtpx:TrackPointExtension xmlns:gpxtpx="http://www.garmin.com/xmlschemas/TrackPointExtension/v1">
            <gpxtpx:hr>93</gpxtpx:hr>
          </gpxtpx:TrackPointExtension>
        </extensions>
      </trkpt>
      <trkpt lat="43.18198" lon="6.18531">
        <ele>250.60000610352</ele>
        <time>2023-05-24T10:23:35.000Z</time>
      </trkpt>
      <trkpt lat="43.18198" lon="6.18531">
        <ele>250.60000610352</ele>
        <time>2023-05-24T10:23:48.000Z</time>
        <extensions>
          <gpxtpx:TrackPointExtension xmlns:gpxtpx="http://www.garmin.com/xmlschemas/TrackPointExtension/v1">
            <gpxtpx:hr>96</gpxtpx:hr>
          </gpxtpx:TrackPointExtension>
        </extensions>
      </trkpt>
      <trkpt lat="43.18198" lon="6.18531">
        <ele>250.60000610352</ele>
        <time>2023-05-24T10:23:58.000Z</time>
      </trkpt>
      <trkpt lat="43.18199" lon="6.18532">
        <ele>250.60000610352</ele>
        <time>2023-05-24T10:24:24.000Z</time>
        <extensions>
          <gpxtpx:TrackPointExtension xmlns:gpxtpx="http://www.garmin.com/xmlschemas/TrackPointExtension/v1">
            <gpxtpx:hr>96</gpxtpx:hr>
          </gpxtpx:TrackPointExtension>
        </extensions>
      </trkpt>
      <trkpt lat="43.18199" lon="6.18532">
        <ele>250.60000610352</ele>
        <time>2023-05-24T10:24:36.000Z</time>
        <extensions>
          <gpxtpx:TrackPointExtension xmlns:gpxtpx="http://www.garmin.com/xmlschemas/TrackPointExtension/v1">
            <gpxtpx:hr>93</gpxtpx:hr>
          </gpxtpx:TrackPointExtension>
        </extensions>
      </trkpt>
      <trkpt lat="43.18199" lon="6.18532">
        <ele>250.60000610352</ele>
        <time>2023-05-24T10:24:42.000Z</time>
        <extensions>
          <gpxtpx:TrackPointExtension xmlns:gpxtpx="http://www.garmin.com/xmlschemas/TrackPointExtension/v1">
            <gpxtpx:hr>90</gpxtpx:hr>
          </gpxtpx:TrackPointExtension>
        </extensions>
      </trkpt>
      <trkpt lat="43.18199" lon="6.18532">
        <ele>250.60000610352</ele>
        <time>2023-05-24T10:24:46.000Z</time>
        <extensions>
          <gpxtpx:TrackPointExtension xmlns:gpxtpx="http://www.garmin.com/xmlschemas/TrackPointExtension/v1">
            <gpxtpx:hr>93</gpxtpx:hr>
          </gpxtpx:TrackPointExtension>
        </extensions>
      </trkpt>
      <trkpt lat="43.18199" lon="6.18532">
        <ele>250.60000610352</ele>
        <time>2023-05-24T10:24:47.000Z</time>
        <extensions>
          <gpxtpx:TrackPointExtension xmlns:gpxtpx="http://www.garmin.com/xmlschemas/TrackPointExtension/v1">
            <gpxtpx:hr>93</gpxtpx:hr>
          </gpxtpx:TrackPointExtension>
        </extensions>
      </trkpt>
      <trkpt lat="43.18198" lon="6.18532">
        <ele>250.60000610352</ele>
        <time>2023-05-24T10:24:58.000Z</time>
        <extensions>
          <gpxtpx:TrackPointExtension xmlns:gpxtpx="http://www.garmin.com/xmlschemas/TrackPointExtension/v1">
            <gpxtpx:hr>90</gpxtpx:hr>
          </gpxtpx:TrackPointExtension>
        </extensions>
      </trkpt>
      <trkpt lat="43.18198" lon="6.18532">
        <ele>250.60000610352</ele>
        <time>2023-05-24T10:25:06.000Z</time>
        <extensions>
          <gpxtpx:TrackPointExtension xmlns:gpxtpx="http://www.garmin.com/xmlschemas/TrackPointExtension/v1">
            <gpxtpx:hr>88</gpxtpx:hr>
          </gpxtpx:TrackPointExtension>
        </extensions>
      </trkpt>
      <trkpt lat="43.18198" lon="6.18532">
        <ele>250.60000610352</ele>
        <time>2023-05-24T10:25:27.000Z</time>
        <extensions>
          <gpxtpx:TrackPointExtension xmlns:gpxtpx="http://www.garmin.com/xmlschemas/TrackPointExtension/v1">
            <gpxtpx:hr>91</gpxtpx:hr>
          </gpxtpx:TrackPointExtension>
        </extensions>
      </trkpt>
      <trkpt lat="43.18198" lon="6.18532">
        <ele>250.60000610352</ele>
        <time>2023-05-24T10:25:32.000Z</time>
        <extensions>
          <gpxtpx:TrackPointExtension xmlns:gpxtpx="http://www.garmin.com/xmlschemas/TrackPointExtension/v1">
            <gpxtpx:hr>92</gpxtpx:hr>
          </gpxtpx:TrackPointExtension>
        </extensions>
      </trkpt>
      <trkpt lat="43.18198" lon="6.18532">
        <ele>250.60000610352</ele>
        <time>2023-05-24T10:25:36.000Z</time>
        <extensions>
          <gpxtpx:TrackPointExtension xmlns:gpxtpx="http://www.garmin.com/xmlschemas/TrackPointExtension/v1">
            <gpxtpx:hr>89</gpxtpx:hr>
          </gpxtpx:TrackPointExtension>
        </extensions>
      </trkpt>
      <trkpt lat="43.18198" lon="6.18532">
        <ele>250.60000610352</ele>
        <time>2023-05-24T10:25:51.000Z</time>
        <extensions>
          <gpxtpx:TrackPointExtension xmlns:gpxtpx="http://www.garmin.com/xmlschemas/TrackPointExtension/v1">
            <gpxtpx:hr>90</gpxtpx:hr>
          </gpxtpx:TrackPointExtension>
        </extensions>
      </trkpt>
      <trkpt lat="43.18198" lon="6.18532">
        <ele>250.60000610352</ele>
        <time>2023-05-24T10:25:54.000Z</time>
        <extensions>
          <gpxtpx:TrackPointExtension xmlns:gpxtpx="http://www.garmin.com/xmlschemas/TrackPointExtension/v1">
            <gpxtpx:hr>94</gpxtpx:hr>
          </gpxtpx:TrackPointExtension>
        </extensions>
      </trkpt>
      <trkpt lat="43.18198" lon="6.18532">
        <ele>250.60000610352</ele>
        <time>2023-05-24T10:25:55.000Z</time>
        <extensions>
          <gpxtpx:TrackPointExtension xmlns:gpxtpx="http://www.garmin.com/xmlschemas/TrackPointExtension/v1">
            <gpxtpx:hr>98</gpxtpx:hr>
          </gpxtpx:TrackPointExtension>
        </extensions>
      </trkpt>
      <trkpt lat="43.18198" lon="6.18532">
        <ele>250.60000610352</ele>
        <time>2023-05-24T10:25:56.000Z</time>
        <extensions>
          <gpxtpx:TrackPointExtension xmlns:gpxtpx="http://www.garmin.com/xmlschemas/TrackPointExtension/v1">
            <gpxtpx:hr>97</gpxtpx:hr>
          </gpxtpx:TrackPointExtension>
        </extensions>
      </trkpt>
      <trkpt lat="43.18198" lon="6.18532">
        <ele>250.60000610352</ele>
        <time>2023-05-24T10:26:00.000Z</time>
        <extensions>
          <gpxtpx:TrackPointExtension xmlns:gpxtpx="http://www.garmin.com/xmlschemas/TrackPointExtension/v1">
            <gpxtpx:hr>100</gpxtpx:hr>
          </gpxtpx:TrackPointExtension>
        </extensions>
      </trkpt>
      <trkpt lat="43.18198" lon="6.18532">
        <ele>250.60000610352</ele>
        <time>2023-05-24T10:26:07.000Z</time>
        <extensions>
          <gpxtpx:TrackPointExtension xmlns:gpxtpx="http://www.garmin.com/xmlschemas/TrackPointExtension/v1">
            <gpxtpx:hr>98</gpxtpx:hr>
          </gpxtpx:TrackPointExtension>
        </extensions>
      </trkpt>
      <trkpt lat="43.18199" lon="6.18532">
        <ele>250.60000610352</ele>
        <time>2023-05-24T10:26:10.000Z</time>
        <extensions>
          <gpxtpx:TrackPointExtension xmlns:gpxtpx="http://www.garmin.com/xmlschemas/TrackPointExtension/v1">
            <gpxtpx:hr>95</gpxtpx:hr>
          </gpxtpx:TrackPointExtension>
        </extensions>
      </trkpt>
      <trkpt lat="43.18199" lon="6.18532">
        <ele>250.60000610352</ele>
        <time>2023-05-24T10:26:26.000Z</time>
        <extensions>
          <gpxtpx:TrackPointExtension xmlns:gpxtpx="http://www.garmin.com/xmlschemas/TrackPointExtension/v1">
            <gpxtpx:hr>94</gpxtpx:hr>
          </gpxtpx:TrackPointExtension>
        </extensions>
      </trkpt>
      <trkpt lat="43.18199" lon="6.18532">
        <ele>250.60000610352</ele>
        <time>2023-05-24T10:26:44.000Z</time>
        <extensions>
          <gpxtpx:TrackPointExtension xmlns:gpxtpx="http://www.garmin.com/xmlschemas/TrackPointExtension/v1">
            <gpxtpx:hr>95</gpxtpx:hr>
          </gpxtpx:TrackPointExtension>
        </extensions>
      </trkpt>
      <trkpt lat="43.18199" lon="6.18532">
        <ele>250.60000610352</ele>
        <time>2023-05-24T10:26:58.000Z</time>
        <extensions>
          <gpxtpx:TrackPointExtension xmlns:gpxtpx="http://www.garmin.com/xmlschemas/TrackPointExtension/v1">
            <gpxtpx:hr>96</gpxtpx:hr>
          </gpxtpx:TrackPointExtension>
        </extensions>
      </trkpt>
      <trkpt lat="43.18199" lon="6.18532">
        <ele>250.60000610352</ele>
        <time>2023-05-24T10:27:07.000Z</time>
        <extensions>
          <gpxtpx:TrackPointExtension xmlns:gpxtpx="http://www.garmin.com/xmlschemas/TrackPointExtension/v1">
            <gpxtpx:hr>93</gpxtpx:hr>
          </gpxtpx:TrackPointExtension>
        </extensions>
      </trkpt>
      <trkpt lat="43.18199" lon="6.18532">
        <ele>250.60000610352</ele>
        <time>2023-05-24T10:27:09.000Z</time>
        <extensions>
          <gpxtpx:TrackPointExtension xmlns:gpxtpx="http://www.garmin.com/xmlschemas/TrackPointExtension/v1">
            <gpxtpx:hr>96</gpxtpx:hr>
          </gpxtpx:TrackPointExtension>
        </extensions>
      </trkpt>
      <trkpt lat="43.18199" lon="6.18532">
        <ele>250.60000610352</ele>
        <time>2023-05-24T10:27:14.000Z</time>
        <extensions>
          <gpxtpx:TrackPointExtension xmlns:gpxtpx="http://www.garmin.com/xmlschemas/TrackPointExtension/v1">
            <gpxtpx:hr>94</gpxtpx:hr>
          </gpxtpx:TrackPointExtension>
        </extensions>
      </trkpt>
      <trkpt lat="43.18199" lon="6.18532">
        <ele>250.60000610352</ele>
        <time>2023-05-24T10:27:29.000Z</time>
        <extensions>
          <gpxtpx:TrackPointExtension xmlns:gpxtpx="http://www.garmin.com/xmlschemas/TrackPointExtension/v1">
            <gpxtpx:hr>92</gpxtpx:hr>
          </gpxtpx:TrackPointExtension>
        </extensions>
      </trkpt>
      <trkpt lat="43.18199" lon="6.18533">
        <ele>250.60000610352</ele>
        <time>2023-05-24T10:27:45.000Z</time>
        <extensions>
          <gpxtpx:TrackPointExtension xmlns:gpxtpx="http://www.garmin.com/xmlschemas/TrackPointExtension/v1">
            <gpxtpx:hr>95</gpxtpx:hr>
          </gpxtpx:TrackPointExtension>
        </extensions>
      </trkpt>
      <trkpt lat="43.18199" lon="6.18533">
        <ele>250.60000610352</ele>
        <time>2023-05-24T10:27:49.000Z</time>
        <extensions>
          <gpxtpx:TrackPointExtension xmlns:gpxtpx="http://www.garmin.com/xmlschemas/TrackPointExtension/v1">
            <gpxtpx:hr>97</gpxtpx:hr>
          </gpxtpx:TrackPointExtension>
        </extensions>
      </trkpt>
      <trkpt lat="43.18199" lon="6.18533">
        <ele>250.60000610352</ele>
        <time>2023-05-24T10:28:01.000Z</time>
        <extensions>
          <gpxtpx:TrackPointExtension xmlns:gpxtpx="http://www.garmin.com/xmlschemas/TrackPointExtension/v1">
            <gpxtpx:hr>102</gpxtpx:hr>
          </gpxtpx:TrackPointExtension>
        </extensions>
      </trkpt>
      <trkpt lat="43.18199" lon="6.18533">
        <ele>250.60000610352</ele>
        <time>2023-05-24T10:28:04.000Z</time>
        <extensions>
          <gpxtpx:TrackPointExtension xmlns:gpxtpx="http://www.garmin.com/xmlschemas/TrackPointExtension/v1">
            <gpxtpx:hr>101</gpxtpx:hr>
          </gpxtpx:TrackPointExtension>
        </extensions>
      </trkpt>
      <trkpt lat="43.18199" lon="6.18532">
        <ele>250.60000610352</ele>
        <time>2023-05-24T10:28:09.000Z</time>
        <extensions>
          <gpxtpx:TrackPointExtension xmlns:gpxtpx="http://www.garmin.com/xmlschemas/TrackPointExtension/v1">
            <gpxtpx:hr>99</gpxtpx:hr>
          </gpxtpx:TrackPointExtension>
        </extensions>
      </trkpt>
      <trkpt lat="43.18199" lon="6.18532">
        <ele>250.60000610352</ele>
        <time>2023-05-24T10:28:10.000Z</time>
        <extensions>
          <gpxtpx:TrackPointExtension xmlns:gpxtpx="http://www.garmin.com/xmlschemas/TrackPointExtension/v1">
            <gpxtpx:hr>104</gpxtpx:hr>
          </gpxtpx:TrackPointExtension>
        </extensions>
      </trkpt>
      <trkpt lat="43.18199" lon="6.18531">
        <ele>250.80000305176</ele>
        <time>2023-05-24T10:28:12.000Z</time>
        <extensions>
          <gpxtpx:TrackPointExtension xmlns:gpxtpx="http://www.garmin.com/xmlschemas/TrackPointExtension/v1">
            <gpxtpx:hr>102</gpxtpx:hr>
          </gpxtpx:TrackPointExtension>
        </extensions>
      </trkpt>
      <trkpt lat="43.18203" lon="6.18528">
        <ele>251</ele>
        <time>2023-05-24T10:28:15.000Z</time>
        <extensions>
          <gpxtpx:TrackPointExtension xmlns:gpxtpx="http://www.garmin.com/xmlschemas/TrackPointExtension/v1">
            <gpxtpx:hr>101</gpxtpx:hr>
          </gpxtpx:TrackPointExtension>
        </extensions>
      </trkpt>
      <trkpt lat="43.18206" lon="6.18526">
        <ele>251.19999694824</ele>
        <time>2023-05-24T10:28:18.000Z</time>
        <extensions>
          <gpxtpx:TrackPointExtension xmlns:gpxtpx="http://www.garmin.com/xmlschemas/TrackPointExtension/v1">
            <gpxtpx:hr>101</gpxtpx:hr>
          </gpxtpx:TrackPointExtension>
        </extensions>
      </trkpt>
      <trkpt lat="43.18207" lon="6.18523">
        <ele>251.60000610352</ele>
        <time>2023-05-24T10:28:20.000Z</time>
        <extensions>
          <gpxtpx:TrackPointExtension xmlns:gpxtpx="http://www.garmin.com/xmlschemas/TrackPointExtension/v1">
            <gpxtpx:hr>101</gpxtpx:hr>
          </gpxtpx:TrackPointExtension>
        </extensions>
      </trkpt>
      <trkpt lat="43.18207" lon="6.18521">
        <ele>251.80000305176</ele>
        <time>2023-05-24T10:28:21.000Z</time>
        <extensions>
          <gpxtpx:TrackPointExtension xmlns:gpxtpx="http://www.garmin.com/xmlschemas/TrackPointExtension/v1">
            <gpxtpx:hr>107</gpxtpx:hr>
          </gpxtpx:TrackPointExtension>
        </extensions>
      </trkpt>
      <trkpt lat="43.18206" lon="6.1852">
        <ele>252</ele>
        <time>2023-05-24T10:28:22.000Z</time>
        <extensions>
          <gpxtpx:TrackPointExtension xmlns:gpxtpx="http://www.garmin.com/xmlschemas/TrackPointExtension/v1">
            <gpxtpx:hr>106</gpxtpx:hr>
          </gpxtpx:TrackPointExtension>
        </extensions>
      </trkpt>
      <trkpt lat="43.18204" lon="6.18519">
        <ele>252</ele>
        <time>2023-05-24T10:28:23.000Z</time>
        <extensions>
          <gpxtpx:TrackPointExtension xmlns:gpxtpx="http://www.garmin.com/xmlschemas/TrackPointExtension/v1">
            <gpxtpx:hr>108</gpxtpx:hr>
          </gpxtpx:TrackPointExtension>
        </extensions>
      </trkpt>
      <trkpt lat="43.18203" lon="6.18519">
        <ele>252</ele>
        <time>2023-05-24T10:28:24.000Z</time>
        <extensions>
          <gpxtpx:TrackPointExtension xmlns:gpxtpx="http://www.garmin.com/xmlschemas/TrackPointExtension/v1">
            <gpxtpx:hr>110</gpxtpx:hr>
          </gpxtpx:TrackPointExtension>
        </extensions>
      </trkpt>
      <trkpt lat="43.18201" lon="6.18518">
        <ele>252</ele>
        <time>2023-05-24T10:28:25.000Z</time>
        <extensions>
          <gpxtpx:TrackPointExtension xmlns:gpxtpx="http://www.garmin.com/xmlschemas/TrackPointExtension/v1">
            <gpxtpx:hr>107</gpxtpx:hr>
          </gpxtpx:TrackPointExtension>
        </extensions>
      </trkpt>
      <trkpt lat="43.18199" lon="6.18513">
        <ele>251.80000305176</ele>
        <time>2023-05-24T10:28:27.000Z</time>
        <extensions>
          <gpxtpx:TrackPointExtension xmlns:gpxtpx="http://www.garmin.com/xmlschemas/TrackPointExtension/v1">
            <gpxtpx:hr>107</gpxtpx:hr>
          </gpxtpx:TrackPointExtension>
        </extensions>
      </trkpt>
      <trkpt lat="43.18204" lon="6.185">
        <ele>252</ele>
        <time>2023-05-24T10:28:31.000Z</time>
        <extensions>
          <gpxtpx:TrackPointExtension xmlns:gpxtpx="http://www.garmin.com/xmlschemas/TrackPointExtension/v1">
            <gpxtpx:hr>106</gpxtpx:hr>
          </gpxtpx:TrackPointExtension>
        </extensions>
      </trkpt>
      <trkpt lat="43.18219" lon="6.18481">
        <ele>253.60000610352</ele>
        <time>2023-05-24T10:28:37.000Z</time>
        <extensions>
          <gpxtpx:TrackPointExtension xmlns:gpxtpx="http://www.garmin.com/xmlschemas/TrackPointExtension/v1">
            <gpxtpx:hr>107</gpxtpx:hr>
          </gpxtpx:TrackPointExtension>
        </extensions>
      </trkpt>
      <trkpt lat="43.18229" lon="6.18464">
        <ele>255.39999389648</ele>
        <time>2023-05-24T10:28:41.000Z</time>
        <extensions>
          <gpxtpx:TrackPointExtension xmlns:gpxtpx="http://www.garmin.com/xmlschemas/TrackPointExtension/v1">
            <gpxtpx:hr>106</gpxtpx:hr>
          </gpxtpx:TrackPointExtension>
        </extensions>
      </trkpt>
      <trkpt lat="43.18234" lon="6.18455">
        <ele>256.20001220703</ele>
        <time>2023-05-24T10:28:43.000Z</time>
        <extensions>
          <gpxtpx:TrackPointExtension xmlns:gpxtpx="http://www.garmin.com/xmlschemas/TrackPointExtension/v1">
            <gpxtpx:hr>106</gpxtpx:hr>
          </gpxtpx:TrackPointExtension>
        </extensions>
      </trkpt>
      <trkpt lat="43.18252" lon="6.18417">
        <ele>256.39999389648</ele>
        <time>2023-05-24T10:28:50.000Z</time>
        <extensions>
          <gpxtpx:TrackPointExtension xmlns:gpxtpx="http://www.garmin.com/xmlschemas/TrackPointExtension/v1">
            <gpxtpx:hr>105</gpxtpx:hr>
          </gpxtpx:TrackPointExtension>
        </extensions>
      </trkpt>
      <trkpt lat="43.18255" lon="6.18412">
        <ele>256</ele>
        <time>2023-05-24T10:28:51.000Z</time>
        <extensions>
          <gpxtpx:TrackPointExtension xmlns:gpxtpx="http://www.garmin.com/xmlschemas/TrackPointExtension/v1">
            <gpxtpx:hr>105</gpxtpx:hr>
          </gpxtpx:TrackPointExtension>
        </extensions>
      </trkpt>
      <trkpt lat="43.18271" lon="6.18389">
        <ele>252</ele>
        <time>2023-05-24T10:28:56.000Z</time>
        <extensions>
          <gpxtpx:TrackPointExtension xmlns:gpxtpx="http://www.garmin.com/xmlschemas/TrackPointExtension/v1">
            <gpxtpx:hr>104</gpxtpx:hr>
          </gpxtpx:TrackPointExtension>
        </extensions>
      </trkpt>
      <trkpt lat="43.18286" lon="6.18364">
        <ele>247.60000610352</ele>
        <time>2023-05-24T10:29:01.000Z</time>
        <extensions>
          <gpxtpx:TrackPointExtension xmlns:gpxtpx="http://www.garmin.com/xmlschemas/TrackPointExtension/v1">
            <gpxtpx:hr>105</gpxtpx:hr>
          </gpxtpx:TrackPointExtension>
        </extensions>
      </trkpt>
      <trkpt lat="43.1829" lon="6.1836">
        <ele>247.39999389648</ele>
        <time>2023-05-24T10:29:02.000Z</time>
        <extensions>
          <gpxtpx:TrackPointExtension xmlns:gpxtpx="http://www.garmin.com/xmlschemas/TrackPointExtension/v1">
            <gpxtpx:hr>105</gpxtpx:hr>
          </gpxtpx:TrackPointExtension>
        </extensions>
      </trkpt>
      <trkpt lat="43.18318" lon="6.18324">
        <ele>246.60000610352</ele>
        <time>2023-05-24T10:29:08.000Z</time>
        <extensions>
          <gpxtpx:TrackPointExtension xmlns:gpxtpx="http://www.garmin.com/xmlschemas/TrackPointExtension/v1">
            <gpxtpx:hr>106</gpxtpx:hr>
          </gpxtpx:TrackPointExtension>
        </extensions>
      </trkpt>
      <trkpt lat="43.18323" lon="6.18317">
        <ele>246.39999389648</ele>
        <time>2023-05-24T10:29:09.000Z</time>
        <extensions>
          <gpxtpx:TrackPointExtension xmlns:gpxtpx="http://www.garmin.com/xmlschemas/TrackPointExtension/v1">
            <gpxtpx:hr>107</gpxtpx:hr>
          </gpxtpx:TrackPointExtension>
        </extensions>
      </trkpt>
      <trkpt lat="43.1833" lon="6.18301">
        <ele>243.80000305176</ele>
        <time>2023-05-24T10:29:11.000Z</time>
        <extensions>
          <gpxtpx:TrackPointExtension xmlns:gpxtpx="http://www.garmin.com/xmlschemas/TrackPointExtension/v1">
            <gpxtpx:hr>107</gpxtpx:hr>
          </gpxtpx:TrackPointExtension>
        </extensions>
      </trkpt>
      <trkpt lat="43.18341" lon="6.18281">
        <ele>241.19999694824</ele>
        <time>2023-05-24T10:29:14.000Z</time>
        <extensions>
          <gpxtpx:TrackPointExtension xmlns:gpxtpx="http://www.garmin.com/xmlschemas/TrackPointExtension/v1">
            <gpxtpx:hr>106</gpxtpx:hr>
          </gpxtpx:TrackPointExtension>
        </extensions>
      </trkpt>
      <trkpt lat="43.18345" lon="6.18276">
        <ele>241.39999389648</ele>
        <time>2023-05-24T10:29:15.000Z</time>
        <extensions>
          <gpxtpx:TrackPointExtension xmlns:gpxtpx="http://www.garmin.com/xmlschemas/TrackPointExtension/v1">
            <gpxtpx:hr>106</gpxtpx:hr>
          </gpxtpx:TrackPointExtension>
        </extensions>
      </trkpt>
      <trkpt lat="43.18364" lon="6.18262">
        <ele>244.19999694824</ele>
        <time>2023-05-24T10:29:19.000Z</time>
        <extensions>
          <gpxtpx:TrackPointExtension xmlns:gpxtpx="http://www.garmin.com/xmlschemas/TrackPointExtension/v1">
            <gpxtpx:hr>106</gpxtpx:hr>
          </gpxtpx:TrackPointExtension>
        </extensions>
      </trkpt>
      <trkpt lat="43.18369" lon="6.18261">
        <ele>245.60000610352</ele>
        <time>2023-05-24T10:29:20.000Z</time>
        <extensions>
          <gpxtpx:TrackPointExtension xmlns:gpxtpx="http://www.garmin.com/xmlschemas/TrackPointExtension/v1">
            <gpxtpx:hr>105</gpxtpx:hr>
          </gpxtpx:TrackPointExtension>
        </extensions>
      </trkpt>
      <trkpt lat="43.18374" lon="6.1826">
        <ele>247.19999694824</ele>
        <time>2023-05-24T10:29:21.000Z</time>
        <extensions>
          <gpxtpx:TrackPointExtension xmlns:gpxtpx="http://www.garmin.com/xmlschemas/TrackPointExtension/v1">
            <gpxtpx:hr>106</gpxtpx:hr>
          </gpxtpx:TrackPointExtension>
        </extensions>
      </trkpt>
      <trkpt lat="43.18383" lon="6.18256">
        <ele>250.39999389648</ele>
        <time>2023-05-24T10:29:23.000Z</time>
        <extensions>
          <gpxtpx:TrackPointExtension xmlns:gpxtpx="http://www.garmin.com/xmlschemas/TrackPointExtension/v1">
            <gpxtpx:hr>107</gpxtpx:hr>
          </gpxtpx:TrackPointExtension>
        </extensions>
      </trkpt>
      <trkpt lat="43.18387" lon="6.18251">
        <ele>250.80000305176</ele>
        <time>2023-05-24T10:29:24.000Z</time>
        <extensions>
          <gpxtpx:TrackPointExtension xmlns:gpxtpx="http://www.garmin.com/xmlschemas/TrackPointExtension/v1">
            <gpxtpx:hr>107</gpxtpx:hr>
          </gpxtpx:TrackPointExtension>
        </extensions>
      </trkpt>
      <trkpt lat="43.18388" lon="6.18245">
        <ele>250.39999389648</ele>
        <time>2023-05-24T10:29:25.000Z</time>
        <extensions>
          <gpxtpx:TrackPointExtension xmlns:gpxtpx="http://www.garmin.com/xmlschemas/TrackPointExtension/v1">
            <gpxtpx:hr>108</gpxtpx:hr>
          </gpxtpx:TrackPointExtension>
        </extensions>
      </trkpt>
      <trkpt lat="43.18388" lon="6.18233">
        <ele>249</ele>
        <time>2023-05-24T10:29:27.000Z</time>
        <extensions>
          <gpxtpx:TrackPointExtension xmlns:gpxtpx="http://www.garmin.com/xmlschemas/TrackPointExtension/v1">
            <gpxtpx:hr>110</gpxtpx:hr>
          </gpxtpx:TrackPointExtension>
        </extensions>
      </trkpt>
      <trkpt lat="43.18393" lon="6.18211">
        <ele>249.19999694824</ele>
        <time>2023-05-24T10:29:31.000Z</time>
        <extensions>
          <gpxtpx:TrackPointExtension xmlns:gpxtpx="http://www.garmin.com/xmlschemas/TrackPointExtension/v1">
            <gpxtpx:hr>112</gpxtpx:hr>
          </gpxtpx:TrackPointExtension>
        </extensions>
      </trkpt>
      <trkpt lat="43.18404" lon="6.18193">
        <ele>252.19999694824</ele>
        <time>2023-05-24T10:29:36.000Z</time>
        <extensions>
          <gpxtpx:TrackPointExtension xmlns:gpxtpx="http://www.garmin.com/xmlschemas/TrackPointExtension/v1">
            <gpxtpx:hr>115</gpxtpx:hr>
          </gpxtpx:TrackPointExtension>
        </extensions>
      </trkpt>
      <trkpt lat="43.18409" lon="6.18187">
        <ele>253.39999389648</ele>
        <time>2023-05-24T10:29:38.000Z</time>
        <extensions>
          <gpxtpx:TrackPointExtension xmlns:gpxtpx="http://www.garmin.com/xmlschemas/TrackPointExtension/v1">
            <gpxtpx:hr>116</gpxtpx:hr>
          </gpxtpx:TrackPointExtension>
        </extensions>
      </trkpt>
      <trkpt lat="43.18415" lon="6.18168">
        <ele>258</ele>
        <time>2023-05-24T10:29:43.000Z</time>
        <extensions>
          <gpxtpx:TrackPointExtension xmlns:gpxtpx="http://www.garmin.com/xmlschemas/TrackPointExtension/v1">
            <gpxtpx:hr>118</gpxtpx:hr>
          </gpxtpx:TrackPointExtension>
        </extensions>
      </trkpt>
      <trkpt lat="43.18408" lon="6.18158">
        <ele>255.19999694824</ele>
        <time>2023-05-24T10:29:46.000Z</time>
        <extensions>
          <gpxtpx:TrackPointExtension xmlns:gpxtpx="http://www.garmin.com/xmlschemas/TrackPointExtension/v1">
            <gpxtpx:hr>119</gpxtpx:hr>
          </gpxtpx:TrackPointExtension>
        </extensions>
      </trkpt>
      <trkpt lat="43.18393" lon="6.18145">
        <ele>251.19999694824</ele>
        <time>2023-05-24T10:29:51.000Z</time>
        <extensions>
          <gpxtpx:TrackPointExtension xmlns:gpxtpx="http://www.garmin.com/xmlschemas/TrackPointExtension/v1">
            <gpxtpx:hr>121</gpxtpx:hr>
          </gpxtpx:TrackPointExtension>
        </extensions>
      </trkpt>
      <trkpt lat="43.1839" lon="6.18141">
        <ele>250.60000610352</ele>
        <time>2023-05-24T10:29:52.000Z</time>
        <extensions>
          <gpxtpx:TrackPointExtension xmlns:gpxtpx="http://www.garmin.com/xmlschemas/TrackPointExtension/v1">
            <gpxtpx:hr>121</gpxtpx:hr>
          </gpxtpx:TrackPointExtension>
        </extensions>
      </trkpt>
      <trkpt lat="43.18386" lon="6.18131">
        <ele>250.19999694824</ele>
        <time>2023-05-24T10:29:54.000Z</time>
        <extensions>
          <gpxtpx:TrackPointExtension xmlns:gpxtpx="http://www.garmin.com/xmlschemas/TrackPointExtension/v1">
            <gpxtpx:hr>122</gpxtpx:hr>
          </gpxtpx:TrackPointExtension>
        </extensions>
      </trkpt>
      <trkpt lat="43.18384" lon="6.18126">
        <ele>250.39999389648</ele>
        <time>2023-05-24T10:29:55.000Z</time>
        <extensions>
          <gpxtpx:TrackPointExtension xmlns:gpxtpx="http://www.garmin.com/xmlschemas/TrackPointExtension/v1">
            <gpxtpx:hr>122</gpxtpx:hr>
          </gpxtpx:TrackPointExtension>
        </extensions>
      </trkpt>
      <trkpt lat="43.18383" lon="6.18114">
        <ele>251.39999389648</ele>
        <time>2023-05-24T10:29:57.000Z</time>
        <extensions>
          <gpxtpx:TrackPointExtension xmlns:gpxtpx="http://www.garmin.com/xmlschemas/TrackPointExtension/v1">
            <gpxtpx:hr>123</gpxtpx:hr>
          </gpxtpx:TrackPointExtension>
        </extensions>
      </trkpt>
      <trkpt lat="43.18382" lon="6.18092">
        <ele>253.60000610352</ele>
        <time>2023-05-24T10:30:01.000Z</time>
        <extensions>
          <gpxtpx:TrackPointExtension xmlns:gpxtpx="http://www.garmin.com/xmlschemas/TrackPointExtension/v1">
            <gpxtpx:hr>124</gpxtpx:hr>
          </gpxtpx:TrackPointExtension>
        </extensions>
      </trkpt>
      <trkpt lat="43.18384" lon="6.18066">
        <ele>255.39999389648</ele>
        <time>2023-05-24T10:30:05.000Z</time>
        <extensions>
          <gpxtpx:TrackPointExtension xmlns:gpxtpx="http://www.garmin.com/xmlschemas/TrackPointExtension/v1">
            <gpxtpx:hr>124</gpxtpx:hr>
          </gpxtpx:TrackPointExtension>
        </extensions>
      </trkpt>
      <trkpt lat="43.18386" lon="6.18052">
        <ele>256</ele>
        <time>2023-05-24T10:30:07.000Z</time>
        <extensions>
          <gpxtpx:TrackPointExtension xmlns:gpxtpx="http://www.garmin.com/xmlschemas/TrackPointExtension/v1">
            <gpxtpx:hr>124</gpxtpx:hr>
          </gpxtpx:TrackPointExtension>
        </extensions>
      </trkpt>
      <trkpt lat="43.18386" lon="6.18039">
        <ele>256</ele>
        <time>2023-05-24T10:30:09.000Z</time>
        <extensions>
          <gpxtpx:TrackPointExtension xmlns:gpxtpx="http://www.garmin.com/xmlschemas/TrackPointExtension/v1">
            <gpxtpx:hr>124</gpxtpx:hr>
          </gpxtpx:TrackPointExtension>
        </extensions>
      </trkpt>
      <trkpt lat="43.18383" lon="6.1803">
        <ele>255.39999389648</ele>
        <time>2023-05-24T10:30:11.000Z</time>
        <extensions>
          <gpxtpx:TrackPointExtension xmlns:gpxtpx="http://www.garmin.com/xmlschemas/TrackPointExtension/v1">
            <gpxtpx:hr>123</gpxtpx:hr>
          </gpxtpx:TrackPointExtension>
        </extensions>
      </trkpt>
      <trkpt lat="43.18376" lon="6.18032">
        <ele>254</ele>
        <time>2023-05-24T10:30:13.000Z</time>
        <extensions>
          <gpxtpx:TrackPointExtension xmlns:gpxtpx="http://www.garmin.com/xmlschemas/TrackPointExtension/v1">
            <gpxtpx:hr>123</gpxtpx:hr>
          </gpxtpx:TrackPointExtension>
        </extensions>
      </trkpt>
      <trkpt lat="43.18373" lon="6.18036">
        <ele>253.60000610352</ele>
        <time>2023-05-24T10:30:14.000Z</time>
        <extensions>
          <gpxtpx:TrackPointExtension xmlns:gpxtpx="http://www.garmin.com/xmlschemas/TrackPointExtension/v1">
            <gpxtpx:hr>123</gpxtpx:hr>
          </gpxtpx:TrackPointExtension>
        </extensions>
      </trkpt>
      <trkpt lat="43.18365" lon="6.1805">
        <ele>250.80000305176</ele>
        <time>2023-05-24T10:30:17.000Z</time>
        <extensions>
          <gpxtpx:TrackPointExtension xmlns:gpxtpx="http://www.garmin.com/xmlschemas/TrackPointExtension/v1">
            <gpxtpx:hr>123</gpxtpx:hr>
          </gpxtpx:TrackPointExtension>
        </extensions>
      </trkpt>
      <trkpt lat="43.18362" lon="6.18055">
        <ele>250</ele>
        <time>2023-05-24T10:30:18.000Z</time>
        <extensions>
          <gpxtpx:TrackPointExtension xmlns:gpxtpx="http://www.garmin.com/xmlschemas/TrackPointExtension/v1">
            <gpxtpx:hr>123</gpxtpx:hr>
          </gpxtpx:TrackPointExtension>
        </extensions>
      </trkpt>
      <trkpt lat="43.18347" lon="6.18078">
        <ele>243.19999694824</ele>
        <time>2023-05-24T10:30:22.000Z</time>
        <extensions>
          <gpxtpx:TrackPointExtension xmlns:gpxtpx="http://www.garmin.com/xmlschemas/TrackPointExtension/v1">
            <gpxtpx:hr>123</gpxtpx:hr>
          </gpxtpx:TrackPointExtension>
        </extensions>
      </trkpt>
      <trkpt lat="43.18343" lon="6.18084">
        <ele>242.19999694824</ele>
        <time>2023-05-24T10:30:23.000Z</time>
        <extensions>
          <gpxtpx:TrackPointExtension xmlns:gpxtpx="http://www.garmin.com/xmlschemas/TrackPointExtension/v1">
            <gpxtpx:hr>123</gpxtpx:hr>
          </gpxtpx:TrackPointExtension>
        </extensions>
      </trkpt>
      <trkpt lat="43.18322" lon="6.1813">
        <ele>232</ele>
        <time>2023-05-24T10:30:29.000Z</time>
        <extensions>
          <gpxtpx:TrackPointExtension xmlns:gpxtpx="http://www.garmin.com/xmlschemas/TrackPointExtension/v1">
            <gpxtpx:hr>122</gpxtpx:hr>
          </gpxtpx:TrackPointExtension>
        </extensions>
      </trkpt>
      <trkpt lat="43.18315" lon="6.18146">
        <ele>228.60000610352</ele>
        <time>2023-05-24T10:30:31.000Z</time>
        <extensions>
          <gpxtpx:TrackPointExtension xmlns:gpxtpx="http://www.garmin.com/xmlschemas/TrackPointExtension/v1">
            <gpxtpx:hr>121</gpxtpx:hr>
          </gpxtpx:TrackPointExtension>
        </extensions>
      </trkpt>
      <trkpt lat="43.18308" lon="6.18158">
        <ele>227.19999694824</ele>
        <time>2023-05-24T10:30:33.000Z</time>
        <extensions>
          <gpxtpx:TrackPointExtension xmlns:gpxtpx="http://www.garmin.com/xmlschemas/TrackPointExtension/v1">
            <gpxtpx:hr>120</gpxtpx:hr>
          </gpxtpx:TrackPointExtension>
        </extensions>
      </trkpt>
      <trkpt lat="43.18298" lon="6.18162">
        <ele>227.39999389648</ele>
        <time>2023-05-24T10:30:35.000Z</time>
        <extensions>
          <gpxtpx:TrackPointExtension xmlns:gpxtpx="http://www.garmin.com/xmlschemas/TrackPointExtension/v1">
            <gpxtpx:hr>119</gpxtpx:hr>
          </gpxtpx:TrackPointExtension>
        </extensions>
      </trkpt>
      <trkpt lat="43.18293" lon="6.18162">
        <ele>227</ele>
        <time>2023-05-24T10:30:36.000Z</time>
        <extensions>
          <gpxtpx:TrackPointExtension xmlns:gpxtpx="http://www.garmin.com/xmlschemas/TrackPointExtension/v1">
            <gpxtpx:hr>119</gpxtpx:hr>
          </gpxtpx:TrackPointExtension>
        </extensions>
      </trkpt>
      <trkpt lat="43.18288" lon="6.18159">
        <ele>226.80000305176</ele>
        <time>2023-05-24T10:30:37.000Z</time>
        <extensions>
          <gpxtpx:TrackPointExtension xmlns:gpxtpx="http://www.garmin.com/xmlschemas/TrackPointExtension/v1">
            <gpxtpx:hr>118</gpxtpx:hr>
          </gpxtpx:TrackPointExtension>
        </extensions>
      </trkpt>
      <trkpt lat="43.1828" lon="6.18149">
        <ele>227</ele>
        <time>2023-05-24T10:30:39.000Z</time>
        <extensions>
          <gpxtpx:TrackPointExtension xmlns:gpxtpx="http://www.garmin.com/xmlschemas/TrackPointExtension/v1">
            <gpxtpx:hr>118</gpxtpx:hr>
          </gpxtpx:TrackPointExtension>
        </extensions>
      </trkpt>
      <trkpt lat="43.1827" lon="6.18122">
        <ele>229</ele>
        <time>2023-05-24T10:30:43.000Z</time>
        <extensions>
          <gpxtpx:TrackPointExtension xmlns:gpxtpx="http://www.garmin.com/xmlschemas/TrackPointExtension/v1">
            <gpxtpx:hr>118</gpxtpx:hr>
          </gpxtpx:TrackPointExtension>
        </extensions>
      </trkpt>
      <trkpt lat="43.18262" lon="6.18074">
        <ele>229.39999389648</ele>
        <time>2023-05-24T10:30:48.000Z</time>
        <extensions>
          <gpxtpx:TrackPointExtension xmlns:gpxtpx="http://www.garmin.com/xmlschemas/TrackPointExtension/v1">
            <gpxtpx:hr>117</gpxtpx:hr>
          </gpxtpx:TrackPointExtension>
        </extensions>
      </trkpt>
      <trkpt lat="43.18255" lon="6.1802">
        <ele>226.60000610352</ele>
        <time>2023-05-24T10:30:53.000Z</time>
        <extensions>
          <gpxtpx:TrackPointExtension xmlns:gpxtpx="http://www.garmin.com/xmlschemas/TrackPointExtension/v1">
            <gpxtpx:hr>115</gpxtpx:hr>
          </gpxtpx:TrackPointExtension>
        </extensions>
      </trkpt>
      <trkpt lat="43.18256" lon="6.18001">
        <ele>225.80000305176</ele>
        <time>2023-05-24T10:30:55.000Z</time>
        <extensions>
          <gpxtpx:TrackPointExtension xmlns:gpxtpx="http://www.garmin.com/xmlschemas/TrackPointExtension/v1">
            <gpxtpx:hr>114</gpxtpx:hr>
          </gpxtpx:TrackPointExtension>
        </extensions>
      </trkpt>
      <trkpt lat="43.18259" lon="6.17985">
        <ele>226.39999389648</ele>
        <time>2023-05-24T10:30:57.000Z</time>
        <extensions>
          <gpxtpx:TrackPointExtension xmlns:gpxtpx="http://www.garmin.com/xmlschemas/TrackPointExtension/v1">
            <gpxtpx:hr>114</gpxtpx:hr>
          </gpxtpx:TrackPointExtension>
        </extensions>
      </trkpt>
      <trkpt lat="43.18261" lon="6.17978">
        <ele>226.19999694824</ele>
        <time>2023-05-24T10:30:58.000Z</time>
        <extensions>
          <gpxtpx:TrackPointExtension xmlns:gpxtpx="http://www.garmin.com/xmlschemas/TrackPointExtension/v1">
            <gpxtpx:hr>114</gpxtpx:hr>
          </gpxtpx:TrackPointExtension>
        </extensions>
      </trkpt>
      <trkpt lat="43.18265" lon="6.17951">
        <ele>224.60000610352</ele>
        <time>2023-05-24T10:31:01.000Z</time>
        <extensions>
          <gpxtpx:TrackPointExtension xmlns:gpxtpx="http://www.garmin.com/xmlschemas/TrackPointExtension/v1">
            <gpxtpx:hr>115</gpxtpx:hr>
          </gpxtpx:TrackPointExtension>
        </extensions>
      </trkpt>
      <trkpt lat="43.1827" lon="6.17903">
        <ele>226.60000610352</ele>
        <time>2023-05-24T10:31:06.000Z</time>
        <extensions>
          <gpxtpx:TrackPointExtension xmlns:gpxtpx="http://www.garmin.com/xmlschemas/TrackPointExtension/v1">
            <gpxtpx:hr>115</gpxtpx:hr>
          </gpxtpx:TrackPointExtension>
        </extensions>
      </trkpt>
      <trkpt lat="43.1827" lon="6.17894">
        <ele>227</ele>
        <time>2023-05-24T10:31:07.000Z</time>
        <extensions>
          <gpxtpx:TrackPointExtension xmlns:gpxtpx="http://www.garmin.com/xmlschemas/TrackPointExtension/v1">
            <gpxtpx:hr>115</gpxtpx:hr>
          </gpxtpx:TrackPointExtension>
        </extensions>
      </trkpt>
      <trkpt lat="43.18267" lon="6.17881">
        <ele>226.19999694824</ele>
        <time>2023-05-24T10:31:09.000Z</time>
        <extensions>
          <gpxtpx:TrackPointExtension xmlns:gpxtpx="http://www.garmin.com/xmlschemas/TrackPointExtension/v1">
            <gpxtpx:hr>114</gpxtpx:hr>
          </gpxtpx:TrackPointExtension>
        </extensions>
      </trkpt>
      <trkpt lat="43.18256" lon="6.17867">
        <ele>224.60000610352</ele>
        <time>2023-05-24T10:31:12.000Z</time>
        <extensions>
          <gpxtpx:TrackPointExtension xmlns:gpxtpx="http://www.garmin.com/xmlschemas/TrackPointExtension/v1">
            <gpxtpx:hr>114</gpxtpx:hr>
          </gpxtpx:TrackPointExtension>
        </extensions>
      </trkpt>
      <trkpt lat="43.18248" lon="6.17866">
        <ele>221.39999389648</ele>
        <time>2023-05-24T10:31:14.000Z</time>
        <extensions>
          <gpxtpx:TrackPointExtension xmlns:gpxtpx="http://www.garmin.com/xmlschemas/TrackPointExtension/v1">
            <gpxtpx:hr>113</gpxtpx:hr>
          </gpxtpx:TrackPointExtension>
        </extensions>
      </trkpt>
      <trkpt lat="43.18243" lon="6.17868">
        <ele>219.39999389648</ele>
        <time>2023-05-24T10:31:15.000Z</time>
        <extensions>
          <gpxtpx:TrackPointExtension xmlns:gpxtpx="http://www.garmin.com/xmlschemas/TrackPointExtension/v1">
            <gpxtpx:hr>113</gpxtpx:hr>
          </gpxtpx:TrackPointExtension>
        </extensions>
      </trkpt>
      <trkpt lat="43.18215" lon="6.17873">
        <ele>213.80000305176</ele>
        <time>2023-05-24T10:31:21.000Z</time>
        <extensions>
          <gpxtpx:TrackPointExtension xmlns:gpxtpx="http://www.garmin.com/xmlschemas/TrackPointExtension/v1">
            <gpxtpx:hr>113</gpxtpx:hr>
          </gpxtpx:TrackPointExtension>
        </extensions>
      </trkpt>
      <trkpt lat="43.18184" lon="6.17874">
        <ele>210</ele>
        <time>2023-05-24T10:31:27.000Z</time>
        <extensions>
          <gpxtpx:TrackPointExtension xmlns:gpxtpx="http://www.garmin.com/xmlschemas/TrackPointExtension/v1">
            <gpxtpx:hr>114</gpxtpx:hr>
          </gpxtpx:TrackPointExtension>
        </extensions>
      </trkpt>
      <trkpt lat="43.18169" lon="6.17871">
        <ele>208.39999389648</ele>
        <time>2023-05-24T10:31:30.000Z</time>
        <extensions>
          <gpxtpx:TrackPointExtension xmlns:gpxtpx="http://www.garmin.com/xmlschemas/TrackPointExtension/v1">
            <gpxtpx:hr>114</gpxtpx:hr>
          </gpxtpx:TrackPointExtension>
        </extensions>
      </trkpt>
      <trkpt lat="43.18159" lon="6.17867">
        <ele>208.39999389648</ele>
        <time>2023-05-24T10:31:32.000Z</time>
        <extensions>
          <gpxtpx:TrackPointExtension xmlns:gpxtpx="http://www.garmin.com/xmlschemas/TrackPointExtension/v1">
            <gpxtpx:hr>114</gpxtpx:hr>
          </gpxtpx:TrackPointExtension>
        </extensions>
      </trkpt>
      <trkpt lat="43.18135" lon="6.17845">
        <ele>208.80000305176</ele>
        <time>2023-05-24T10:31:37.000Z</time>
        <extensions>
          <gpxtpx:TrackPointExtension xmlns:gpxtpx="http://www.garmin.com/xmlschemas/TrackPointExtension/v1">
            <gpxtpx:hr>112</gpxtpx:hr>
          </gpxtpx:TrackPointExtension>
        </extensions>
      </trkpt>
      <trkpt lat="43.18119" lon="6.17827">
        <ele>207.80000305176</ele>
        <time>2023-05-24T10:31:41.000Z</time>
        <extensions>
          <gpxtpx:TrackPointExtension xmlns:gpxtpx="http://www.garmin.com/xmlschemas/TrackPointExtension/v1">
            <gpxtpx:hr>112</gpxtpx:hr>
          </gpxtpx:TrackPointExtension>
        </extensions>
      </trkpt>
      <trkpt lat="43.18116" lon="6.17821">
        <ele>207.60000610352</ele>
        <time>2023-05-24T10:31:42.000Z</time>
        <extensions>
          <gpxtpx:TrackPointExtension xmlns:gpxtpx="http://www.garmin.com/xmlschemas/TrackPointExtension/v1">
            <gpxtpx:hr>112</gpxtpx:hr>
          </gpxtpx:TrackPointExtension>
        </extensions>
      </trkpt>
      <trkpt lat="43.18114" lon="6.17815">
        <ele>207.39999389648</ele>
        <time>2023-05-24T10:31:43.000Z</time>
        <extensions>
          <gpxtpx:TrackPointExtension xmlns:gpxtpx="http://www.garmin.com/xmlschemas/TrackPointExtension/v1">
            <gpxtpx:hr>113</gpxtpx:hr>
          </gpxtpx:TrackPointExtension>
        </extensions>
      </trkpt>
      <trkpt lat="43.1811" lon="6.17804">
        <ele>208</ele>
        <time>2023-05-24T10:31:45.000Z</time>
        <extensions>
          <gpxtpx:TrackPointExtension xmlns:gpxtpx="http://www.garmin.com/xmlschemas/TrackPointExtension/v1">
            <gpxtpx:hr>113</gpxtpx:hr>
          </gpxtpx:TrackPointExtension>
        </extensions>
      </trkpt>
      <trkpt lat="43.1811" lon="6.17798">
        <ele>209.19999694824</ele>
        <time>2023-05-24T10:31:46.000Z</time>
        <extensions>
          <gpxtpx:TrackPointExtension xmlns:gpxtpx="http://www.garmin.com/xmlschemas/TrackPointExtension/v1">
            <gpxtpx:hr>113</gpxtpx:hr>
          </gpxtpx:TrackPointExtension>
        </extensions>
      </trkpt>
      <trkpt lat="43.18109" lon="6.17792">
        <ele>210</ele>
        <time>2023-05-24T10:31:47.000Z</time>
        <extensions>
          <gpxtpx:TrackPointExtension xmlns:gpxtpx="http://www.garmin.com/xmlschemas/TrackPointExtension/v1">
            <gpxtpx:hr>114</gpxtpx:hr>
          </gpxtpx:TrackPointExtension>
        </extensions>
      </trkpt>
      <trkpt lat="43.18109" lon="6.17785">
        <ele>210.60000610352</ele>
        <time>2023-05-24T10:31:48.000Z</time>
        <extensions>
          <gpxtpx:TrackPointExtension xmlns:gpxtpx="http://www.garmin.com/xmlschemas/TrackPointExtension/v1">
            <gpxtpx:hr>111</gpxtpx:hr>
          </gpxtpx:TrackPointExtension>
        </extensions>
      </trkpt>
      <trkpt lat="43.18109" lon="6.17778">
        <ele>211</ele>
        <time>2023-05-24T10:31:49.000Z</time>
        <extensions>
          <gpxtpx:TrackPointExtension xmlns:gpxtpx="http://www.garmin.com/xmlschemas/TrackPointExtension/v1">
            <gpxtpx:hr>112</gpxtpx:hr>
          </gpxtpx:TrackPointExtension>
        </extensions>
      </trkpt>
      <trkpt lat="43.18107" lon="6.1777">
        <ele>211.39999389648</ele>
        <time>2023-05-24T10:31:50.000Z</time>
        <extensions>
          <gpxtpx:TrackPointExtension xmlns:gpxtpx="http://www.garmin.com/xmlschemas/TrackPointExtension/v1">
            <gpxtpx:hr>112</gpxtpx:hr>
          </gpxtpx:TrackPointExtension>
        </extensions>
      </trkpt>
      <trkpt lat="43.18105" lon="6.17762">
        <ele>210.80000305176</ele>
        <time>2023-05-24T10:31:51.000Z</time>
        <extensions>
          <gpxtpx:TrackPointExtension xmlns:gpxtpx="http://www.garmin.com/xmlschemas/TrackPointExtension/v1">
            <gpxtpx:hr>113</gpxtpx:hr>
          </gpxtpx:TrackPointExtension>
        </extensions>
      </trkpt>
      <trkpt lat="43.18097" lon="6.1775">
        <ele>208</ele>
        <time>2023-05-24T10:31:53.000Z</time>
        <extensions>
          <gpxtpx:TrackPointExtension xmlns:gpxtpx="http://www.garmin.com/xmlschemas/TrackPointExtension/v1">
            <gpxtpx:hr>114</gpxtpx:hr>
          </gpxtpx:TrackPointExtension>
        </extensions>
      </trkpt>
      <trkpt lat="43.18082" lon="6.17716">
        <ele>202.19999694824</ele>
        <time>2023-05-24T10:31:58.000Z</time>
        <extensions>
          <gpxtpx:TrackPointExtension xmlns:gpxtpx="http://www.garmin.com/xmlschemas/TrackPointExtension/v1">
            <gpxtpx:hr>114</gpxtpx:hr>
          </gpxtpx:TrackPointExtension>
        </extensions>
      </trkpt>
      <trkpt lat="43.1808" lon="6.17709">
        <ele>201.39999389648</ele>
        <time>2023-05-24T10:31:59.000Z</time>
        <extensions>
          <gpxtpx:TrackPointExtension xmlns:gpxtpx="http://www.garmin.com/xmlschemas/TrackPointExtension/v1">
            <gpxtpx:hr>114</gpxtpx:hr>
          </gpxtpx:TrackPointExtension>
        </extensions>
      </trkpt>
      <trkpt lat="43.18078" lon="6.17693">
        <ele>200.60000610352</ele>
        <time>2023-05-24T10:32:01.000Z</time>
        <extensions>
          <gpxtpx:TrackPointExtension xmlns:gpxtpx="http://www.garmin.com/xmlschemas/TrackPointExtension/v1">
            <gpxtpx:hr>113</gpxtpx:hr>
          </gpxtpx:TrackPointExtension>
        </extensions>
      </trkpt>
      <trkpt lat="43.18078" lon="6.17684">
        <ele>200.60000610352</ele>
        <time>2023-05-24T10:32:02.000Z</time>
        <extensions>
          <gpxtpx:TrackPointExtension xmlns:gpxtpx="http://www.garmin.com/xmlschemas/TrackPointExtension/v1">
            <gpxtpx:hr>112</gpxtpx:hr>
          </gpxtpx:TrackPointExtension>
        </extensions>
      </trkpt>
      <trkpt lat="43.18083" lon="6.17632">
        <ele>201.60000610352</ele>
        <time>2023-05-24T10:32:08.000Z</time>
        <extensions>
          <gpxtpx:TrackPointExtension xmlns:gpxtpx="http://www.garmin.com/xmlschemas/TrackPointExtension/v1">
            <gpxtpx:hr>113</gpxtpx:hr>
          </gpxtpx:TrackPointExtension>
        </extensions>
      </trkpt>
      <trkpt lat="43.18088" lon="6.1761">
        <ele>201.39999389648</ele>
        <time>2023-05-24T10:32:11.000Z</time>
        <extensions>
          <gpxtpx:TrackPointExtension xmlns:gpxtpx="http://www.garmin.com/xmlschemas/TrackPointExtension/v1">
            <gpxtpx:hr>114</gpxtpx:hr>
          </gpxtpx:TrackPointExtension>
        </extensions>
      </trkpt>
      <trkpt lat="43.18089" lon="6.17604">
        <ele>202</ele>
        <time>2023-05-24T10:32:12.000Z</time>
        <extensions>
          <gpxtpx:TrackPointExtension xmlns:gpxtpx="http://www.garmin.com/xmlschemas/TrackPointExtension/v1">
            <gpxtpx:hr>114</gpxtpx:hr>
          </gpxtpx:TrackPointExtension>
        </extensions>
      </trkpt>
      <trkpt lat="43.1809" lon="6.17599">
        <ele>202.39999389648</ele>
        <time>2023-05-24T10:32:13.000Z</time>
        <extensions>
          <gpxtpx:TrackPointExtension xmlns:gpxtpx="http://www.garmin.com/xmlschemas/TrackPointExtension/v1">
            <gpxtpx:hr>114</gpxtpx:hr>
          </gpxtpx:TrackPointExtension>
        </extensions>
      </trkpt>
      <trkpt lat="43.18087" lon="6.17596">
        <ele>200.80000305176</ele>
        <time>2023-05-24T10:32:15.000Z</time>
        <extensions>
          <gpxtpx:TrackPointExtension xmlns:gpxtpx="http://www.garmin.com/xmlschemas/TrackPointExtension/v1">
            <gpxtpx:hr>115</gpxtpx:hr>
          </gpxtpx:TrackPointExtension>
        </extensions>
      </trkpt>
      <trkpt lat="43.18081" lon="6.17606">
        <ele>198</ele>
        <time>2023-05-24T10:32:18.000Z</time>
        <extensions>
          <gpxtpx:TrackPointExtension xmlns:gpxtpx="http://www.garmin.com/xmlschemas/TrackPointExtension/v1">
            <gpxtpx:hr>115</gpxtpx:hr>
          </gpxtpx:TrackPointExtension>
        </extensions>
      </trkpt>
      <trkpt lat="43.18078" lon="6.17611">
        <ele>197.60000610352</ele>
        <time>2023-05-24T10:32:19.000Z</time>
        <extensions>
          <gpxtpx:TrackPointExtension xmlns:gpxtpx="http://www.garmin.com/xmlschemas/TrackPointExtension/v1">
            <gpxtpx:hr>115</gpxtpx:hr>
          </gpxtpx:TrackPointExtension>
        </extensions>
      </trkpt>
      <trkpt lat="43.1807" lon="6.17628">
        <ele>195.80000305176</ele>
        <time>2023-05-24T10:32:22.000Z</time>
        <extensions>
          <gpxtpx:TrackPointExtension xmlns:gpxtpx="http://www.garmin.com/xmlschemas/TrackPointExtension/v1">
            <gpxtpx:hr>115</gpxtpx:hr>
          </gpxtpx:TrackPointExtension>
        </extensions>
      </trkpt>
      <trkpt lat="43.18068" lon="6.17634">
        <ele>195.19999694824</ele>
        <time>2023-05-24T10:32:23.000Z</time>
        <extensions>
          <gpxtpx:TrackPointExtension xmlns:gpxtpx="http://www.garmin.com/xmlschemas/TrackPointExtension/v1">
            <gpxtpx:hr>115</gpxtpx:hr>
          </gpxtpx:TrackPointExtension>
        </extensions>
      </trkpt>
      <trkpt lat="43.18058" lon="6.17668">
        <ele>192.60000610352</ele>
        <time>2023-05-24T10:32:28.000Z</time>
        <extensions>
          <gpxtpx:TrackPointExtension xmlns:gpxtpx="http://www.garmin.com/xmlschemas/TrackPointExtension/v1">
            <gpxtpx:hr>114</gpxtpx:hr>
          </gpxtpx:TrackPointExtension>
        </extensions>
      </trkpt>
      <trkpt lat="43.18057" lon="6.17675">
        <ele>192.19999694824</ele>
        <time>2023-05-24T10:32:29.000Z</time>
        <extensions>
          <gpxtpx:TrackPointExtension xmlns:gpxtpx="http://www.garmin.com/xmlschemas/TrackPointExtension/v1">
            <gpxtpx:hr>113</gpxtpx:hr>
          </gpxtpx:TrackPointExtension>
        </extensions>
      </trkpt>
      <trkpt lat="43.18058" lon="6.17725">
        <ele>191.39999389648</ele>
        <time>2023-05-24T10:32:36.000Z</time>
        <extensions>
          <gpxtpx:TrackPointExtension xmlns:gpxtpx="http://www.garmin.com/xmlschemas/TrackPointExtension/v1">
            <gpxtpx:hr>114</gpxtpx:hr>
          </gpxtpx:TrackPointExtension>
        </extensions>
      </trkpt>
      <trkpt lat="43.18061" lon="6.17739">
        <ele>192</ele>
        <time>2023-05-24T10:32:38.000Z</time>
        <extensions>
          <gpxtpx:TrackPointExtension xmlns:gpxtpx="http://www.garmin.com/xmlschemas/TrackPointExtension/v1">
            <gpxtpx:hr>114</gpxtpx:hr>
          </gpxtpx:TrackPointExtension>
        </extensions>
      </trkpt>
      <trkpt lat="43.18068" lon="6.17759">
        <ele>194.39999389648</ele>
        <time>2023-05-24T10:32:41.000Z</time>
        <extensions>
          <gpxtpx:TrackPointExtension xmlns:gpxtpx="http://www.garmin.com/xmlschemas/TrackPointExtension/v1">
            <gpxtpx:hr>114</gpxtpx:hr>
          </gpxtpx:TrackPointExtension>
        </extensions>
      </trkpt>
      <trkpt lat="43.18074" lon="6.17772">
        <ele>196.39999389648</ele>
        <time>2023-05-24T10:32:43.000Z</time>
        <extensions>
          <gpxtpx:TrackPointExtension xmlns:gpxtpx="http://www.garmin.com/xmlschemas/TrackPointExtension/v1">
            <gpxtpx:hr>114</gpxtpx:hr>
          </gpxtpx:TrackPointExtension>
        </extensions>
      </trkpt>
      <trkpt lat="43.18075" lon="6.17787">
        <ele>196</ele>
        <time>2023-05-24T10:32:45.000Z</time>
        <extensions>
          <gpxtpx:TrackPointExtension xmlns:gpxtpx="http://www.garmin.com/xmlschemas/TrackPointExtension/v1">
            <gpxtpx:hr>112</gpxtpx:hr>
          </gpxtpx:TrackPointExtension>
        </extensions>
      </trkpt>
      <trkpt lat="43.1807" lon="6.17808">
        <ele>192.80000305176</ele>
        <time>2023-05-24T10:32:48.000Z</time>
        <extensions>
          <gpxtpx:TrackPointExtension xmlns:gpxtpx="http://www.garmin.com/xmlschemas/TrackPointExtension/v1">
            <gpxtpx:hr>112</gpxtpx:hr>
          </gpxtpx:TrackPointExtension>
        </extensions>
      </trkpt>
      <trkpt lat="43.18068" lon="6.17823">
        <ele>191</ele>
        <time>2023-05-24T10:32:50.000Z</time>
        <extensions>
          <gpxtpx:TrackPointExtension xmlns:gpxtpx="http://www.garmin.com/xmlschemas/TrackPointExtension/v1">
            <gpxtpx:hr>113</gpxtpx:hr>
          </gpxtpx:TrackPointExtension>
        </extensions>
      </trkpt>
      <trkpt lat="43.18068" lon="6.17838">
        <ele>188.80000305176</ele>
        <time>2023-05-24T10:32:52.000Z</time>
        <extensions>
          <gpxtpx:TrackPointExtension xmlns:gpxtpx="http://www.garmin.com/xmlschemas/TrackPointExtension/v1">
            <gpxtpx:hr>113</gpxtpx:hr>
          </gpxtpx:TrackPointExtension>
        </extensions>
      </trkpt>
      <trkpt lat="43.18071" lon="6.1786">
        <ele>186.60000610352</ele>
        <time>2023-05-24T10:32:55.000Z</time>
        <extensions>
          <gpxtpx:TrackPointExtension xmlns:gpxtpx="http://www.garmin.com/xmlschemas/TrackPointExtension/v1">
            <gpxtpx:hr>113</gpxtpx:hr>
          </gpxtpx:TrackPointExtension>
        </extensions>
      </trkpt>
      <trkpt lat="43.18077" lon="6.17879">
        <ele>184.80000305176</ele>
        <time>2023-05-24T10:32:59.000Z</time>
        <extensions>
          <gpxtpx:TrackPointExtension xmlns:gpxtpx="http://www.garmin.com/xmlschemas/TrackPointExtension/v1">
            <gpxtpx:hr>113</gpxtpx:hr>
          </gpxtpx:TrackPointExtension>
        </extensions>
      </trkpt>
      <trkpt lat="43.18071" lon="6.17881">
        <ele>182.80000305176</ele>
        <time>2023-05-24T10:33:02.000Z</time>
        <extensions>
          <gpxtpx:TrackPointExtension xmlns:gpxtpx="http://www.garmin.com/xmlschemas/TrackPointExtension/v1">
            <gpxtpx:hr>113</gpxtpx:hr>
          </gpxtpx:TrackPointExtension>
        </extensions>
      </trkpt>
      <trkpt lat="43.18061" lon="6.17867">
        <ele>182.39999389648</ele>
        <time>2023-05-24T10:33:06.000Z</time>
        <extensions>
          <gpxtpx:TrackPointExtension xmlns:gpxtpx="http://www.garmin.com/xmlschemas/TrackPointExtension/v1">
            <gpxtpx:hr>113</gpxtpx:hr>
          </gpxtpx:TrackPointExtension>
        </extensions>
      </trkpt>
      <trkpt lat="43.18054" lon="6.17856">
        <ele>182.39999389648</ele>
        <time>2023-05-24T10:33:08.000Z</time>
        <extensions>
          <gpxtpx:TrackPointExtension xmlns:gpxtpx="http://www.garmin.com/xmlschemas/TrackPointExtension/v1">
            <gpxtpx:hr>113</gpxtpx:hr>
          </gpxtpx:TrackPointExtension>
        </extensions>
      </trkpt>
      <trkpt lat="43.18049" lon="6.17842">
        <ele>182.80000305176</ele>
        <time>2023-05-24T10:33:10.000Z</time>
        <extensions>
          <gpxtpx:TrackPointExtension xmlns:gpxtpx="http://www.garmin.com/xmlschemas/TrackPointExtension/v1">
            <gpxtpx:hr>113</gpxtpx:hr>
          </gpxtpx:TrackPointExtension>
        </extensions>
      </trkpt>
      <trkpt lat="43.18045" lon="6.17807">
        <ele>184</ele>
        <time>2023-05-24T10:33:15.000Z</time>
        <extensions>
          <gpxtpx:TrackPointExtension xmlns:gpxtpx="http://www.garmin.com/xmlschemas/TrackPointExtension/v1">
            <gpxtpx:hr>113</gpxtpx:hr>
          </gpxtpx:TrackPointExtension>
        </extensions>
      </trkpt>
      <trkpt lat="43.18044" lon="6.17791">
        <ele>184</ele>
        <time>2023-05-24T10:33:18.000Z</time>
        <extensions>
          <gpxtpx:TrackPointExtension xmlns:gpxtpx="http://www.garmin.com/xmlschemas/TrackPointExtension/v1">
            <gpxtpx:hr>113</gpxtpx:hr>
          </gpxtpx:TrackPointExtension>
        </extensions>
      </trkpt>
      <trkpt lat="43.18042" lon="6.17787">
        <ele>182.80000305176</ele>
        <time>2023-05-24T10:33:19.000Z</time>
        <extensions>
          <gpxtpx:TrackPointExtension xmlns:gpxtpx="http://www.garmin.com/xmlschemas/TrackPointExtension/v1">
            <gpxtpx:hr>113</gpxtpx:hr>
          </gpxtpx:TrackPointExtension>
        </extensions>
      </trkpt>
      <trkpt lat="43.18038" lon="6.17783">
        <ele>181.39999389648</ele>
        <time>2023-05-24T10:33:20.000Z</time>
        <extensions>
          <gpxtpx:TrackPointExtension xmlns:gpxtpx="http://www.garmin.com/xmlschemas/TrackPointExtension/v1">
            <gpxtpx:hr>116</gpxtpx:hr>
          </gpxtpx:TrackPointExtension>
        </extensions>
      </trkpt>
      <trkpt lat="43.18027" lon="6.17769">
        <ele>176.60000610352</ele>
        <time>2023-05-24T10:33:23.000Z</time>
        <extensions>
          <gpxtpx:TrackPointExtension xmlns:gpxtpx="http://www.garmin.com/xmlschemas/TrackPointExtension/v1">
            <gpxtpx:hr>114</gpxtpx:hr>
          </gpxtpx:TrackPointExtension>
        </extensions>
      </trkpt>
      <trkpt lat="43.1802" lon="6.17759">
        <ele>173.60000610352</ele>
        <time>2023-05-24T10:33:25.000Z</time>
        <extensions>
          <gpxtpx:TrackPointExtension xmlns:gpxtpx="http://www.garmin.com/xmlschemas/TrackPointExtension/v1">
            <gpxtpx:hr>114</gpxtpx:hr>
          </gpxtpx:TrackPointExtension>
        </extensions>
      </trkpt>
      <trkpt lat="43.18015" lon="6.17746">
        <ele>172.39999389648</ele>
        <time>2023-05-24T10:33:27.000Z</time>
        <extensions>
          <gpxtpx:TrackPointExtension xmlns:gpxtpx="http://www.garmin.com/xmlschemas/TrackPointExtension/v1">
            <gpxtpx:hr>114</gpxtpx:hr>
          </gpxtpx:TrackPointExtension>
        </extensions>
      </trkpt>
      <trkpt lat="43.18012" lon="6.17732">
        <ele>171.39999389648</ele>
        <time>2023-05-24T10:33:29.000Z</time>
        <extensions>
          <gpxtpx:TrackPointExtension xmlns:gpxtpx="http://www.garmin.com/xmlschemas/TrackPointExtension/v1">
            <gpxtpx:hr>113</gpxtpx:hr>
          </gpxtpx:TrackPointExtension>
        </extensions>
      </trkpt>
      <trkpt lat="43.1801" lon="6.17716">
        <ele>171</ele>
        <time>2023-05-24T10:33:31.000Z</time>
        <extensions>
          <gpxtpx:TrackPointExtension xmlns:gpxtpx="http://www.garmin.com/xmlschemas/TrackPointExtension/v1">
            <gpxtpx:hr>113</gpxtpx:hr>
          </gpxtpx:TrackPointExtension>
        </extensions>
      </trkpt>
      <trkpt lat="43.18008" lon="6.17708">
        <ele>170.60000610352</ele>
        <time>2023-05-24T10:33:32.000Z</time>
        <extensions>
          <gpxtpx:TrackPointExtension xmlns:gpxtpx="http://www.garmin.com/xmlschemas/TrackPointExtension/v1">
            <gpxtpx:hr>113</gpxtpx:hr>
          </gpxtpx:TrackPointExtension>
        </extensions>
      </trkpt>
      <trkpt lat="43.18" lon="6.17675">
        <ele>169</ele>
        <time>2023-05-24T10:33:36.000Z</time>
        <extensions>
          <gpxtpx:TrackPointExtension xmlns:gpxtpx="http://www.garmin.com/xmlschemas/TrackPointExtension/v1">
            <gpxtpx:hr>112</gpxtpx:hr>
          </gpxtpx:TrackPointExtension>
        </extensions>
      </trkpt>
      <trkpt lat="43.17998" lon="6.17668">
        <ele>169</ele>
        <time>2023-05-24T10:33:37.000Z</time>
        <extensions>
          <gpxtpx:TrackPointExtension xmlns:gpxtpx="http://www.garmin.com/xmlschemas/TrackPointExtension/v1">
            <gpxtpx:hr>112</gpxtpx:hr>
          </gpxtpx:TrackPointExtension>
        </extensions>
      </trkpt>
      <trkpt lat="43.17993" lon="6.17646">
        <ele>166.80000305176</ele>
        <time>2023-05-24T10:33:42.000Z</time>
        <extensions>
          <gpxtpx:TrackPointExtension xmlns:gpxtpx="http://www.garmin.com/xmlschemas/TrackPointExtension/v1">
            <gpxtpx:hr>113</gpxtpx:hr>
          </gpxtpx:TrackPointExtension>
        </extensions>
      </trkpt>
      <trkpt lat="43.17988" lon="6.17649">
        <ele>165</ele>
        <time>2023-05-24T10:33:45.000Z</time>
        <extensions>
          <gpxtpx:TrackPointExtension xmlns:gpxtpx="http://www.garmin.com/xmlschemas/TrackPointExtension/v1">
            <gpxtpx:hr>113</gpxtpx:hr>
          </gpxtpx:TrackPointExtension>
        </extensions>
      </trkpt>
      <trkpt lat="43.17986" lon="6.1766">
        <ele>164.60000610352</ele>
        <time>2023-05-24T10:33:47.000Z</time>
        <extensions>
          <gpxtpx:TrackPointExtension xmlns:gpxtpx="http://www.garmin.com/xmlschemas/TrackPointExtension/v1">
            <gpxtpx:hr>113</gpxtpx:hr>
          </gpxtpx:TrackPointExtension>
        </extensions>
      </trkpt>
      <trkpt lat="43.17987" lon="6.17674">
        <ele>163.80000305176</ele>
        <time>2023-05-24T10:33:49.000Z</time>
        <extensions>
          <gpxtpx:TrackPointExtension xmlns:gpxtpx="http://www.garmin.com/xmlschemas/TrackPointExtension/v1">
            <gpxtpx:hr>113</gpxtpx:hr>
          </gpxtpx:TrackPointExtension>
        </extensions>
      </trkpt>
      <trkpt lat="43.17988" lon="6.17688">
        <ele>163.39999389648</ele>
        <time>2023-05-24T10:33:51.000Z</time>
        <extensions>
          <gpxtpx:TrackPointExtension xmlns:gpxtpx="http://www.garmin.com/xmlschemas/TrackPointExtension/v1">
            <gpxtpx:hr>114</gpxtpx:hr>
          </gpxtpx:TrackPointExtension>
        </extensions>
      </trkpt>
      <trkpt lat="43.17987" lon="6.17701">
        <ele>162</ele>
        <time>2023-05-24T10:33:53.000Z</time>
        <extensions>
          <gpxtpx:TrackPointExtension xmlns:gpxtpx="http://www.garmin.com/xmlschemas/TrackPointExtension/v1">
            <gpxtpx:hr>113</gpxtpx:hr>
          </gpxtpx:TrackPointExtension>
        </extensions>
      </trkpt>
      <trkpt lat="43.1798" lon="6.17719">
        <ele>159</ele>
        <time>2023-05-24T10:33:56.000Z</time>
        <extensions>
          <gpxtpx:TrackPointExtension xmlns:gpxtpx="http://www.garmin.com/xmlschemas/TrackPointExtension/v1">
            <gpxtpx:hr>112</gpxtpx:hr>
          </gpxtpx:TrackPointExtension>
        </extensions>
      </trkpt>
      <trkpt lat="43.1798" lon="6.17733">
        <ele>159.19999694824</ele>
        <time>2023-05-24T10:33:58.000Z</time>
        <extensions>
          <gpxtpx:TrackPointExtension xmlns:gpxtpx="http://www.garmin.com/xmlschemas/TrackPointExtension/v1">
            <gpxtpx:hr>112</gpxtpx:hr>
          </gpxtpx:TrackPointExtension>
        </extensions>
      </trkpt>
      <trkpt lat="43.17981" lon="6.17747">
        <ele>159.39999389648</ele>
        <time>2023-05-24T10:34:00.000Z</time>
        <extensions>
          <gpxtpx:TrackPointExtension xmlns:gpxtpx="http://www.garmin.com/xmlschemas/TrackPointExtension/v1">
            <gpxtpx:hr>112</gpxtpx:hr>
          </gpxtpx:TrackPointExtension>
        </extensions>
      </trkpt>
      <trkpt lat="43.17983" lon="6.17775">
        <ele>160.19999694824</ele>
        <time>2023-05-24T10:34:04.000Z</time>
        <extensions>
          <gpxtpx:TrackPointExtension xmlns:gpxtpx="http://www.garmin.com/xmlschemas/TrackPointExtension/v1">
            <gpxtpx:hr>112</gpxtpx:hr>
          </gpxtpx:TrackPointExtension>
        </extensions>
      </trkpt>
      <trkpt lat="43.17986" lon="6.17785">
        <ele>161.19999694824</ele>
        <time>2023-05-24T10:34:06.000Z</time>
        <extensions>
          <gpxtpx:TrackPointExtension xmlns:gpxtpx="http://www.garmin.com/xmlschemas/TrackPointExtension/v1">
            <gpxtpx:hr>113</gpxtpx:hr>
          </gpxtpx:TrackPointExtension>
        </extensions>
      </trkpt>
      <trkpt lat="43.17986" lon="6.1779">
        <ele>161.39999389648</ele>
        <time>2023-05-24T10:34:07.000Z</time>
        <extensions>
          <gpxtpx:TrackPointExtension xmlns:gpxtpx="http://www.garmin.com/xmlschemas/TrackPointExtension/v1">
            <gpxtpx:hr>113</gpxtpx:hr>
          </gpxtpx:TrackPointExtension>
        </extensions>
      </trkpt>
      <trkpt lat="43.17981" lon="6.17797">
        <ele>160</ele>
        <time>2023-05-24T10:34:09.000Z</time>
        <extensions>
          <gpxtpx:TrackPointExtension xmlns:gpxtpx="http://www.garmin.com/xmlschemas/TrackPointExtension/v1">
            <gpxtpx:hr>113</gpxtpx:hr>
          </gpxtpx:TrackPointExtension>
        </extensions>
      </trkpt>
      <trkpt lat="43.17977" lon="6.17799">
        <ele>158.80000305176</ele>
        <time>2023-05-24T10:34:10.000Z</time>
        <extensions>
          <gpxtpx:TrackPointExtension xmlns:gpxtpx="http://www.garmin.com/xmlschemas/TrackPointExtension/v1">
            <gpxtpx:hr>113</gpxtpx:hr>
          </gpxtpx:TrackPointExtension>
        </extensions>
      </trkpt>
      <trkpt lat="43.17963" lon="6.17803">
        <ele>154.80000305176</ele>
        <time>2023-05-24T10:34:13.000Z</time>
        <extensions>
          <gpxtpx:TrackPointExtension xmlns:gpxtpx="http://www.garmin.com/xmlschemas/TrackPointExtension/v1">
            <gpxtpx:hr>114</gpxtpx:hr>
          </gpxtpx:TrackPointExtension>
        </extensions>
      </trkpt>
      <trkpt lat="43.17953" lon="6.17808">
        <ele>153.19999694824</ele>
        <time>2023-05-24T10:34:15.000Z</time>
        <extensions>
          <gpxtpx:TrackPointExtension xmlns:gpxtpx="http://www.garmin.com/xmlschemas/TrackPointExtension/v1">
            <gpxtpx:hr>116</gpxtpx:hr>
          </gpxtpx:TrackPointExtension>
        </extensions>
      </trkpt>
      <trkpt lat="43.17946" lon="6.17808">
        <ele>152</ele>
        <time>2023-05-24T10:34:17.000Z</time>
        <extensions>
          <gpxtpx:TrackPointExtension xmlns:gpxtpx="http://www.garmin.com/xmlschemas/TrackPointExtension/v1">
            <gpxtpx:hr>116</gpxtpx:hr>
          </gpxtpx:TrackPointExtension>
        </extensions>
      </trkpt>
      <trkpt lat="43.17944" lon="6.17802">
        <ele>151.60000610352</ele>
        <time>2023-05-24T10:34:19.000Z</time>
        <extensions>
          <gpxtpx:TrackPointExtension xmlns:gpxtpx="http://www.garmin.com/xmlschemas/TrackPointExtension/v1">
            <gpxtpx:hr>115</gpxtpx:hr>
          </gpxtpx:TrackPointExtension>
        </extensions>
      </trkpt>
      <trkpt lat="43.17945" lon="6.17797">
        <ele>151.80000305176</ele>
        <time>2023-05-24T10:34:20.000Z</time>
        <extensions>
          <gpxtpx:TrackPointExtension xmlns:gpxtpx="http://www.garmin.com/xmlschemas/TrackPointExtension/v1">
            <gpxtpx:hr>114</gpxtpx:hr>
          </gpxtpx:TrackPointExtension>
        </extensions>
      </trkpt>
      <trkpt lat="43.17949" lon="6.17787">
        <ele>152.39999389648</ele>
        <time>2023-05-24T10:34:22.000Z</time>
        <extensions>
          <gpxtpx:TrackPointExtension xmlns:gpxtpx="http://www.garmin.com/xmlschemas/TrackPointExtension/v1">
            <gpxtpx:hr>115</gpxtpx:hr>
          </gpxtpx:TrackPointExtension>
        </extensions>
      </trkpt>
      <trkpt lat="43.17952" lon="6.17774">
        <ele>153</ele>
        <time>2023-05-24T10:34:24.000Z</time>
        <extensions>
          <gpxtpx:TrackPointExtension xmlns:gpxtpx="http://www.garmin.com/xmlschemas/TrackPointExtension/v1">
            <gpxtpx:hr>115</gpxtpx:hr>
          </gpxtpx:TrackPointExtension>
        </extensions>
      </trkpt>
      <trkpt lat="43.17956" lon="6.17762">
        <ele>153.39999389648</ele>
        <time>2023-05-24T10:34:26.000Z</time>
        <extensions>
          <gpxtpx:TrackPointExtension xmlns:gpxtpx="http://www.garmin.com/xmlschemas/TrackPointExtension/v1">
            <gpxtpx:hr>115</gpxtpx:hr>
          </gpxtpx:TrackPointExtension>
        </extensions>
      </trkpt>
      <trkpt lat="43.17957" lon="6.1775">
        <ele>153</ele>
        <time>2023-05-24T10:34:28.000Z</time>
        <extensions>
          <gpxtpx:TrackPointExtension xmlns:gpxtpx="http://www.garmin.com/xmlschemas/TrackPointExtension/v1">
            <gpxtpx:hr>115</gpxtpx:hr>
          </gpxtpx:TrackPointExtension>
        </extensions>
      </trkpt>
      <trkpt lat="43.17957" lon="6.17744">
        <ele>153</ele>
        <time>2023-05-24T10:34:29.000Z</time>
        <extensions>
          <gpxtpx:TrackPointExtension xmlns:gpxtpx="http://www.garmin.com/xmlschemas/TrackPointExtension/v1">
            <gpxtpx:hr>115</gpxtpx:hr>
          </gpxtpx:TrackPointExtension>
        </extensions>
      </trkpt>
      <trkpt lat="43.17959" lon="6.17734">
        <ele>153</ele>
        <time>2023-05-24T10:34:31.000Z</time>
        <extensions>
          <gpxtpx:TrackPointExtension xmlns:gpxtpx="http://www.garmin.com/xmlschemas/TrackPointExtension/v1">
            <gpxtpx:hr>115</gpxtpx:hr>
          </gpxtpx:TrackPointExtension>
        </extensions>
      </trkpt>
      <trkpt lat="43.17959" lon="6.17728">
        <ele>152.60000610352</ele>
        <time>2023-05-24T10:34:32.000Z</time>
        <extensions>
          <gpxtpx:TrackPointExtension xmlns:gpxtpx="http://www.garmin.com/xmlschemas/TrackPointExtension/v1">
            <gpxtpx:hr>114</gpxtpx:hr>
          </gpxtpx:TrackPointExtension>
        </extensions>
      </trkpt>
      <trkpt lat="43.17957" lon="6.17723">
        <ele>152.19999694824</ele>
        <time>2023-05-24T10:34:33.000Z</time>
        <extensions>
          <gpxtpx:TrackPointExtension xmlns:gpxtpx="http://www.garmin.com/xmlschemas/TrackPointExtension/v1">
            <gpxtpx:hr>114</gpxtpx:hr>
          </gpxtpx:TrackPointExtension>
        </extensions>
      </trkpt>
      <trkpt lat="43.17951" lon="6.17713">
        <ele>150.80000305176</ele>
        <time>2023-05-24T10:34:35.000Z</time>
        <extensions>
          <gpxtpx:TrackPointExtension xmlns:gpxtpx="http://www.garmin.com/xmlschemas/TrackPointExtension/v1">
            <gpxtpx:hr>113</gpxtpx:hr>
          </gpxtpx:TrackPointExtension>
        </extensions>
      </trkpt>
      <trkpt lat="43.17948" lon="6.1771">
        <ele>150.19999694824</ele>
        <time>2023-05-24T10:34:36.000Z</time>
        <extensions>
          <gpxtpx:TrackPointExtension xmlns:gpxtpx="http://www.garmin.com/xmlschemas/TrackPointExtension/v1">
            <gpxtpx:hr>113</gpxtpx:hr>
          </gpxtpx:TrackPointExtension>
        </extensions>
      </trkpt>
      <trkpt lat="43.1794" lon="6.17696">
        <ele>148.80000305176</ele>
        <time>2023-05-24T10:34:39.000Z</time>
        <extensions>
          <gpxtpx:TrackPointExtension xmlns:gpxtpx="http://www.garmin.com/xmlschemas/TrackPointExtension/v1">
            <gpxtpx:hr>112</gpxtpx:hr>
          </gpxtpx:TrackPointExtension>
        </extensions>
      </trkpt>
      <trkpt lat="43.17937" lon="6.17674">
        <ele>147.80000305176</ele>
        <time>2023-05-24T10:34:43.000Z</time>
        <extensions>
          <gpxtpx:TrackPointExtension xmlns:gpxtpx="http://www.garmin.com/xmlschemas/TrackPointExtension/v1">
            <gpxtpx:hr>112</gpxtpx:hr>
          </gpxtpx:TrackPointExtension>
        </extensions>
      </trkpt>
      <trkpt lat="43.1794" lon="6.1766">
        <ele>148.19999694824</ele>
        <time>2023-05-24T10:34:45.000Z</time>
        <extensions>
          <gpxtpx:TrackPointExtension xmlns:gpxtpx="http://www.garmin.com/xmlschemas/TrackPointExtension/v1">
            <gpxtpx:hr>111</gpxtpx:hr>
          </gpxtpx:TrackPointExtension>
        </extensions>
      </trkpt>
      <trkpt lat="43.1794" lon="6.17645">
        <ele>147.80000305176</ele>
        <time>2023-05-24T10:34:47.000Z</time>
        <extensions>
          <gpxtpx:TrackPointExtension xmlns:gpxtpx="http://www.garmin.com/xmlschemas/TrackPointExtension/v1">
            <gpxtpx:hr>112</gpxtpx:hr>
          </gpxtpx:TrackPointExtension>
        </extensions>
      </trkpt>
      <trkpt lat="43.17937" lon="6.17631">
        <ele>146.19999694824</ele>
        <time>2023-05-24T10:34:49.000Z</time>
        <extensions>
          <gpxtpx:TrackPointExtension xmlns:gpxtpx="http://www.garmin.com/xmlschemas/TrackPointExtension/v1">
            <gpxtpx:hr>112</gpxtpx:hr>
          </gpxtpx:TrackPointExtension>
        </extensions>
      </trkpt>
      <trkpt lat="43.1793" lon="6.1762">
        <ele>145.19999694824</ele>
        <time>2023-05-24T10:34:51.000Z</time>
        <extensions>
          <gpxtpx:TrackPointExtension xmlns:gpxtpx="http://www.garmin.com/xmlschemas/TrackPointExtension/v1">
            <gpxtpx:hr>112</gpxtpx:hr>
          </gpxtpx:TrackPointExtension>
        </extensions>
      </trkpt>
      <trkpt lat="43.17926" lon="6.17615">
        <ele>144.60000610352</ele>
        <time>2023-05-24T10:34:52.000Z</time>
        <extensions>
          <gpxtpx:TrackPointExtension xmlns:gpxtpx="http://www.garmin.com/xmlschemas/TrackPointExtension/v1">
            <gpxtpx:hr>112</gpxtpx:hr>
          </gpxtpx:TrackPointExtension>
        </extensions>
      </trkpt>
      <trkpt lat="43.17915" lon="6.17602">
        <ele>143</ele>
        <time>2023-05-24T10:34:55.000Z</time>
        <extensions>
          <gpxtpx:TrackPointExtension xmlns:gpxtpx="http://www.garmin.com/xmlschemas/TrackPointExtension/v1">
            <gpxtpx:hr>111</gpxtpx:hr>
          </gpxtpx:TrackPointExtension>
        </extensions>
      </trkpt>
      <trkpt lat="43.1791" lon="6.17581">
        <ele>142.19999694824</ele>
        <time>2023-05-24T10:34:59.000Z</time>
        <extensions>
          <gpxtpx:TrackPointExtension xmlns:gpxtpx="http://www.garmin.com/xmlschemas/TrackPointExtension/v1">
            <gpxtpx:hr>113</gpxtpx:hr>
          </gpxtpx:TrackPointExtension>
        </extensions>
      </trkpt>
      <trkpt lat="43.1791" lon="6.1757">
        <ele>142.19999694824</ele>
        <time>2023-05-24T10:35:01.000Z</time>
        <extensions>
          <gpxtpx:TrackPointExtension xmlns:gpxtpx="http://www.garmin.com/xmlschemas/TrackPointExtension/v1">
            <gpxtpx:hr>114</gpxtpx:hr>
          </gpxtpx:TrackPointExtension>
        </extensions>
      </trkpt>
      <trkpt lat="43.17914" lon="6.17557">
        <ele>142.39999389648</ele>
        <time>2023-05-24T10:35:03.000Z</time>
        <extensions>
          <gpxtpx:TrackPointExtension xmlns:gpxtpx="http://www.garmin.com/xmlschemas/TrackPointExtension/v1">
            <gpxtpx:hr>114</gpxtpx:hr>
          </gpxtpx:TrackPointExtension>
        </extensions>
      </trkpt>
      <trkpt lat="43.17918" lon="6.17533">
        <ele>145</ele>
        <time>2023-05-24T10:35:06.000Z</time>
        <extensions>
          <gpxtpx:TrackPointExtension xmlns:gpxtpx="http://www.garmin.com/xmlschemas/TrackPointExtension/v1">
            <gpxtpx:hr>114</gpxtpx:hr>
          </gpxtpx:TrackPointExtension>
        </extensions>
      </trkpt>
      <trkpt lat="43.17918" lon="6.17525">
        <ele>145.60000610352</ele>
        <time>2023-05-24T10:35:07.000Z</time>
        <extensions>
          <gpxtpx:TrackPointExtension xmlns:gpxtpx="http://www.garmin.com/xmlschemas/TrackPointExtension/v1">
            <gpxtpx:hr>118</gpxtpx:hr>
          </gpxtpx:TrackPointExtension>
        </extensions>
      </trkpt>
      <trkpt lat="43.17915" lon="6.17496">
        <ele>145.19999694824</ele>
        <time>2023-05-24T10:35:11.000Z</time>
        <extensions>
          <gpxtpx:TrackPointExtension xmlns:gpxtpx="http://www.garmin.com/xmlschemas/TrackPointExtension/v1">
            <gpxtpx:hr>118</gpxtpx:hr>
          </gpxtpx:TrackPointExtension>
        </extensions>
      </trkpt>
      <trkpt lat="43.17901" lon="6.17475">
        <ele>142</ele>
        <time>2023-05-24T10:35:15.000Z</time>
        <extensions>
          <gpxtpx:TrackPointExtension xmlns:gpxtpx="http://www.garmin.com/xmlschemas/TrackPointExtension/v1">
            <gpxtpx:hr>116</gpxtpx:hr>
          </gpxtpx:TrackPointExtension>
        </extensions>
      </trkpt>
      <trkpt lat="43.17892" lon="6.17463">
        <ele>140.80000305176</ele>
        <time>2023-05-24T10:35:17.000Z</time>
        <extensions>
          <gpxtpx:TrackPointExtension xmlns:gpxtpx="http://www.garmin.com/xmlschemas/TrackPointExtension/v1">
            <gpxtpx:hr>115</gpxtpx:hr>
          </gpxtpx:TrackPointExtension>
        </extensions>
      </trkpt>
      <trkpt lat="43.17886" lon="6.17448">
        <ele>139.19999694824</ele>
        <time>2023-05-24T10:35:19.000Z</time>
        <extensions>
          <gpxtpx:TrackPointExtension xmlns:gpxtpx="http://www.garmin.com/xmlschemas/TrackPointExtension/v1">
            <gpxtpx:hr>115</gpxtpx:hr>
          </gpxtpx:TrackPointExtension>
        </extensions>
      </trkpt>
      <trkpt lat="43.17883" lon="6.17441">
        <ele>138.60000610352</ele>
        <time>2023-05-24T10:35:20.000Z</time>
        <extensions>
          <gpxtpx:TrackPointExtension xmlns:gpxtpx="http://www.garmin.com/xmlschemas/TrackPointExtension/v1">
            <gpxtpx:hr>115</gpxtpx:hr>
          </gpxtpx:TrackPointExtension>
        </extensions>
      </trkpt>
      <trkpt lat="43.17873" lon="6.17411">
        <ele>136.80000305176</ele>
        <time>2023-05-24T10:35:24.000Z</time>
        <extensions>
          <gpxtpx:TrackPointExtension xmlns:gpxtpx="http://www.garmin.com/xmlschemas/TrackPointExtension/v1">
            <gpxtpx:hr>116</gpxtpx:hr>
          </gpxtpx:TrackPointExtension>
        </extensions>
      </trkpt>
      <trkpt lat="43.17871" lon="6.17394">
        <ele>136.19999694824</ele>
        <time>2023-05-24T10:35:26.000Z</time>
        <extensions>
          <gpxtpx:TrackPointExtension xmlns:gpxtpx="http://www.garmin.com/xmlschemas/TrackPointExtension/v1">
            <gpxtpx:hr>116</gpxtpx:hr>
          </gpxtpx:TrackPointExtension>
        </extensions>
      </trkpt>
      <trkpt lat="43.17872" lon="6.17362">
        <ele>135.39999389648</ele>
        <time>2023-05-24T10:35:30.000Z</time>
        <extensions>
          <gpxtpx:TrackPointExtension xmlns:gpxtpx="http://www.garmin.com/xmlschemas/TrackPointExtension/v1">
            <gpxtpx:hr>115</gpxtpx:hr>
          </gpxtpx:TrackPointExtension>
        </extensions>
      </trkpt>
      <trkpt lat="43.17873" lon="6.17355">
        <ele>135.39999389648</ele>
        <time>2023-05-24T10:35:31.000Z</time>
        <extensions>
          <gpxtpx:TrackPointExtension xmlns:gpxtpx="http://www.garmin.com/xmlschemas/TrackPointExtension/v1">
            <gpxtpx:hr>115</gpxtpx:hr>
          </gpxtpx:TrackPointExtension>
        </extensions>
      </trkpt>
      <trkpt lat="43.17874" lon="6.17347">
        <ele>135.39999389648</ele>
        <time>2023-05-24T10:35:32.000Z</time>
        <extensions>
          <gpxtpx:TrackPointExtension xmlns:gpxtpx="http://www.garmin.com/xmlschemas/TrackPointExtension/v1">
            <gpxtpx:hr>115</gpxtpx:hr>
          </gpxtpx:TrackPointExtension>
        </extensions>
      </trkpt>
      <trkpt lat="43.1788" lon="6.17316">
        <ele>136.60000610352</ele>
        <time>2023-05-24T10:35:36.000Z</time>
        <extensions>
          <gpxtpx:TrackPointExtension xmlns:gpxtpx="http://www.garmin.com/xmlschemas/TrackPointExtension/v1">
            <gpxtpx:hr>116</gpxtpx:hr>
          </gpxtpx:TrackPointExtension>
        </extensions>
      </trkpt>
      <trkpt lat="43.17878" lon="6.17303">
        <ele>135.80000305176</ele>
        <time>2023-05-24T10:35:38.000Z</time>
        <extensions>
          <gpxtpx:TrackPointExtension xmlns:gpxtpx="http://www.garmin.com/xmlschemas/TrackPointExtension/v1">
            <gpxtpx:hr>117</gpxtpx:hr>
          </gpxtpx:TrackPointExtension>
        </extensions>
      </trkpt>
      <trkpt lat="43.17875" lon="6.17299">
        <ele>135.19999694824</ele>
        <time>2023-05-24T10:35:39.000Z</time>
        <extensions>
          <gpxtpx:TrackPointExtension xmlns:gpxtpx="http://www.garmin.com/xmlschemas/TrackPointExtension/v1">
            <gpxtpx:hr>117</gpxtpx:hr>
          </gpxtpx:TrackPointExtension>
        </extensions>
      </trkpt>
      <trkpt lat="43.17872" lon="6.17279">
        <ele>133.60000610352</ele>
        <time>2023-05-24T10:35:43.000Z</time>
        <extensions>
          <gpxtpx:TrackPointExtension xmlns:gpxtpx="http://www.garmin.com/xmlschemas/TrackPointExtension/v1">
            <gpxtpx:hr>120</gpxtpx:hr>
          </gpxtpx:TrackPointExtension>
        </extensions>
      </trkpt>
      <trkpt lat="43.17872" lon="6.17263">
        <ele>132.60000610352</ele>
        <time>2023-05-24T10:35:47.000Z</time>
        <extensions>
          <gpxtpx:TrackPointExtension xmlns:gpxtpx="http://www.garmin.com/xmlschemas/TrackPointExtension/v1">
            <gpxtpx:hr>118</gpxtpx:hr>
          </gpxtpx:TrackPointExtension>
        </extensions>
      </trkpt>
      <trkpt lat="43.17873" lon="6.17239">
        <ele>130.39999389648</ele>
        <time>2023-05-24T10:35:52.000Z</time>
        <extensions>
          <gpxtpx:TrackPointExtension xmlns:gpxtpx="http://www.garmin.com/xmlschemas/TrackPointExtension/v1">
            <gpxtpx:hr>118</gpxtpx:hr>
          </gpxtpx:TrackPointExtension>
        </extensions>
      </trkpt>
      <trkpt lat="43.17874" lon="6.17232">
        <ele>130.19999694824</ele>
        <time>2023-05-24T10:35:53.000Z</time>
        <extensions>
          <gpxtpx:TrackPointExtension xmlns:gpxtpx="http://www.garmin.com/xmlschemas/TrackPointExtension/v1">
            <gpxtpx:hr>118</gpxtpx:hr>
          </gpxtpx:TrackPointExtension>
        </extensions>
      </trkpt>
      <trkpt lat="43.17876" lon="6.17216">
        <ele>129.19999694824</ele>
        <time>2023-05-24T10:35:55.000Z</time>
        <extensions>
          <gpxtpx:TrackPointExtension xmlns:gpxtpx="http://www.garmin.com/xmlschemas/TrackPointExtension/v1">
            <gpxtpx:hr>117</gpxtpx:hr>
          </gpxtpx:TrackPointExtension>
        </extensions>
      </trkpt>
      <trkpt lat="43.17877" lon="6.17209">
        <ele>129</ele>
        <time>2023-05-24T10:35:56.000Z</time>
        <extensions>
          <gpxtpx:TrackPointExtension xmlns:gpxtpx="http://www.garmin.com/xmlschemas/TrackPointExtension/v1">
            <gpxtpx:hr>116</gpxtpx:hr>
          </gpxtpx:TrackPointExtension>
        </extensions>
      </trkpt>
      <trkpt lat="43.17882" lon="6.17188">
        <ele>128.60000610352</ele>
        <time>2023-05-24T10:36:00.000Z</time>
        <extensions>
          <gpxtpx:TrackPointExtension xmlns:gpxtpx="http://www.garmin.com/xmlschemas/TrackPointExtension/v1">
            <gpxtpx:hr>118</gpxtpx:hr>
          </gpxtpx:TrackPointExtension>
        </extensions>
      </trkpt>
      <trkpt lat="43.17885" lon="6.17169">
        <ele>129.39999389648</ele>
        <time>2023-05-24T10:36:03.000Z</time>
        <extensions>
          <gpxtpx:TrackPointExtension xmlns:gpxtpx="http://www.garmin.com/xmlschemas/TrackPointExtension/v1">
            <gpxtpx:hr>118</gpxtpx:hr>
          </gpxtpx:TrackPointExtension>
        </extensions>
      </trkpt>
      <trkpt lat="43.17885" lon="6.17156">
        <ele>129</ele>
        <time>2023-05-24T10:36:05.000Z</time>
        <extensions>
          <gpxtpx:TrackPointExtension xmlns:gpxtpx="http://www.garmin.com/xmlschemas/TrackPointExtension/v1">
            <gpxtpx:hr>119</gpxtpx:hr>
          </gpxtpx:TrackPointExtension>
        </extensions>
      </trkpt>
      <trkpt lat="43.17882" lon="6.17142">
        <ele>127.40000152588</ele>
        <time>2023-05-24T10:36:07.000Z</time>
        <extensions>
          <gpxtpx:TrackPointExtension xmlns:gpxtpx="http://www.garmin.com/xmlschemas/TrackPointExtension/v1">
            <gpxtpx:hr>118</gpxtpx:hr>
          </gpxtpx:TrackPointExtension>
        </extensions>
      </trkpt>
      <trkpt lat="43.17876" lon="6.17128">
        <ele>126</ele>
        <time>2023-05-24T10:36:09.000Z</time>
        <extensions>
          <gpxtpx:TrackPointExtension xmlns:gpxtpx="http://www.garmin.com/xmlschemas/TrackPointExtension/v1">
            <gpxtpx:hr>119</gpxtpx:hr>
          </gpxtpx:TrackPointExtension>
        </extensions>
      </trkpt>
      <trkpt lat="43.17866" lon="6.17119">
        <ele>125.59999847412</ele>
        <time>2023-05-24T10:36:11.000Z</time>
        <extensions>
          <gpxtpx:TrackPointExtension xmlns:gpxtpx="http://www.garmin.com/xmlschemas/TrackPointExtension/v1">
            <gpxtpx:hr>118</gpxtpx:hr>
          </gpxtpx:TrackPointExtension>
        </extensions>
      </trkpt>
      <trkpt lat="43.1786" lon="6.17117">
        <ele>125.59999847412</ele>
        <time>2023-05-24T10:36:12.000Z</time>
        <extensions>
          <gpxtpx:TrackPointExtension xmlns:gpxtpx="http://www.garmin.com/xmlschemas/TrackPointExtension/v1">
            <gpxtpx:hr>119</gpxtpx:hr>
          </gpxtpx:TrackPointExtension>
        </extensions>
      </trkpt>
      <trkpt lat="43.1785" lon="6.17114">
        <ele>125.80000305176</ele>
        <time>2023-05-24T10:36:14.000Z</time>
        <extensions>
          <gpxtpx:TrackPointExtension xmlns:gpxtpx="http://www.garmin.com/xmlschemas/TrackPointExtension/v1">
            <gpxtpx:hr>118</gpxtpx:hr>
          </gpxtpx:TrackPointExtension>
        </extensions>
      </trkpt>
      <trkpt lat="43.17843" lon="6.17108">
        <ele>126.80000305176</ele>
        <time>2023-05-24T10:36:16.000Z</time>
        <extensions>
          <gpxtpx:TrackPointExtension xmlns:gpxtpx="http://www.garmin.com/xmlschemas/TrackPointExtension/v1">
            <gpxtpx:hr>118</gpxtpx:hr>
          </gpxtpx:TrackPointExtension>
        </extensions>
      </trkpt>
      <trkpt lat="43.17839" lon="6.17098">
        <ele>127.40000152588</ele>
        <time>2023-05-24T10:36:18.000Z</time>
        <extensions>
          <gpxtpx:TrackPointExtension xmlns:gpxtpx="http://www.garmin.com/xmlschemas/TrackPointExtension/v1">
            <gpxtpx:hr>118</gpxtpx:hr>
          </gpxtpx:TrackPointExtension>
        </extensions>
      </trkpt>
      <trkpt lat="43.17837" lon="6.17088">
        <ele>127.59999847412</ele>
        <time>2023-05-24T10:36:20.000Z</time>
        <extensions>
          <gpxtpx:TrackPointExtension xmlns:gpxtpx="http://www.garmin.com/xmlschemas/TrackPointExtension/v1">
            <gpxtpx:hr>119</gpxtpx:hr>
          </gpxtpx:TrackPointExtension>
        </extensions>
      </trkpt>
      <trkpt lat="43.17838" lon="6.17076">
        <ele>126.80000305176</ele>
        <time>2023-05-24T10:36:22.000Z</time>
        <extensions>
          <gpxtpx:TrackPointExtension xmlns:gpxtpx="http://www.garmin.com/xmlschemas/TrackPointExtension/v1">
            <gpxtpx:hr>120</gpxtpx:hr>
          </gpxtpx:TrackPointExtension>
        </extensions>
      </trkpt>
      <trkpt lat="43.1784" lon="6.17063">
        <ele>126</ele>
        <time>2023-05-24T10:36:24.000Z</time>
        <extensions>
          <gpxtpx:TrackPointExtension xmlns:gpxtpx="http://www.garmin.com/xmlschemas/TrackPointExtension/v1">
            <gpxtpx:hr>121</gpxtpx:hr>
          </gpxtpx:TrackPointExtension>
        </extensions>
      </trkpt>
      <trkpt lat="43.17842" lon="6.17057">
        <ele>125.80000305176</ele>
        <time>2023-05-24T10:36:25.000Z</time>
        <extensions>
          <gpxtpx:TrackPointExtension xmlns:gpxtpx="http://www.garmin.com/xmlschemas/TrackPointExtension/v1">
            <gpxtpx:hr>122</gpxtpx:hr>
          </gpxtpx:TrackPointExtension>
        </extensions>
      </trkpt>
      <trkpt lat="43.17852" lon="6.17039">
        <ele>124</ele>
        <time>2023-05-24T10:36:28.000Z</time>
        <extensions>
          <gpxtpx:TrackPointExtension xmlns:gpxtpx="http://www.garmin.com/xmlschemas/TrackPointExtension/v1">
            <gpxtpx:hr>123</gpxtpx:hr>
          </gpxtpx:TrackPointExtension>
        </extensions>
      </trkpt>
      <trkpt lat="43.17856" lon="6.17034">
        <ele>123.59999847412</ele>
        <time>2023-05-24T10:36:29.000Z</time>
        <extensions>
          <gpxtpx:TrackPointExtension xmlns:gpxtpx="http://www.garmin.com/xmlschemas/TrackPointExtension/v1">
            <gpxtpx:hr>123</gpxtpx:hr>
          </gpxtpx:TrackPointExtension>
        </extensions>
      </trkpt>
      <trkpt lat="43.17884" lon="6.17005">
        <ele>120.40000152588</ele>
        <time>2023-05-24T10:36:35.000Z</time>
        <extensions>
          <gpxtpx:TrackPointExtension xmlns:gpxtpx="http://www.garmin.com/xmlschemas/TrackPointExtension/v1">
            <gpxtpx:hr>122</gpxtpx:hr>
          </gpxtpx:TrackPointExtension>
        </extensions>
      </trkpt>
      <trkpt lat="43.17887" lon="6.16998">
        <ele>120</ele>
        <time>2023-05-24T10:36:36.000Z</time>
        <extensions>
          <gpxtpx:TrackPointExtension xmlns:gpxtpx="http://www.garmin.com/xmlschemas/TrackPointExtension/v1">
            <gpxtpx:hr>121</gpxtpx:hr>
          </gpxtpx:TrackPointExtension>
        </extensions>
      </trkpt>
      <trkpt lat="43.1789" lon="6.16991">
        <ele>120</ele>
        <time>2023-05-24T10:36:37.000Z</time>
        <extensions>
          <gpxtpx:TrackPointExtension xmlns:gpxtpx="http://www.garmin.com/xmlschemas/TrackPointExtension/v1">
            <gpxtpx:hr>121</gpxtpx:hr>
          </gpxtpx:TrackPointExtension>
        </extensions>
      </trkpt>
      <trkpt lat="43.17891" lon="6.16975">
        <ele>118.80000305176</ele>
        <time>2023-05-24T10:36:39.000Z</time>
        <extensions>
          <gpxtpx:TrackPointExtension xmlns:gpxtpx="http://www.garmin.com/xmlschemas/TrackPointExtension/v1">
            <gpxtpx:hr>120</gpxtpx:hr>
          </gpxtpx:TrackPointExtension>
        </extensions>
      </trkpt>
      <trkpt lat="43.17888" lon="6.16954">
        <ele>117.59999847412</ele>
        <time>2023-05-24T10:36:42.000Z</time>
        <extensions>
          <gpxtpx:TrackPointExtension xmlns:gpxtpx="http://www.garmin.com/xmlschemas/TrackPointExtension/v1">
            <gpxtpx:hr>121</gpxtpx:hr>
          </gpxtpx:TrackPointExtension>
        </extensions>
      </trkpt>
      <trkpt lat="43.17886" lon="6.16947">
        <ele>117</ele>
        <time>2023-05-24T10:36:43.000Z</time>
        <extensions>
          <gpxtpx:TrackPointExtension xmlns:gpxtpx="http://www.garmin.com/xmlschemas/TrackPointExtension/v1">
            <gpxtpx:hr>121</gpxtpx:hr>
          </gpxtpx:TrackPointExtension>
        </extensions>
      </trkpt>
      <trkpt lat="43.1788" lon="6.16926">
        <ele>115.40000152588</ele>
        <time>2023-05-24T10:36:46.000Z</time>
        <extensions>
          <gpxtpx:TrackPointExtension xmlns:gpxtpx="http://www.garmin.com/xmlschemas/TrackPointExtension/v1">
            <gpxtpx:hr>120</gpxtpx:hr>
          </gpxtpx:TrackPointExtension>
        </extensions>
      </trkpt>
      <trkpt lat="43.17877" lon="6.16912">
        <ele>115</ele>
        <time>2023-05-24T10:36:48.000Z</time>
        <extensions>
          <gpxtpx:TrackPointExtension xmlns:gpxtpx="http://www.garmin.com/xmlschemas/TrackPointExtension/v1">
            <gpxtpx:hr>121</gpxtpx:hr>
          </gpxtpx:TrackPointExtension>
        </extensions>
      </trkpt>
      <trkpt lat="43.17874" lon="6.16905">
        <ele>114.59999847412</ele>
        <time>2023-05-24T10:36:49.000Z</time>
        <extensions>
          <gpxtpx:TrackPointExtension xmlns:gpxtpx="http://www.garmin.com/xmlschemas/TrackPointExtension/v1">
            <gpxtpx:hr>124</gpxtpx:hr>
          </gpxtpx:TrackPointExtension>
        </extensions>
      </trkpt>
      <trkpt lat="43.17865" lon="6.16879">
        <ele>114.40000152588</ele>
        <time>2023-05-24T10:36:53.000Z</time>
        <extensions>
          <gpxtpx:TrackPointExtension xmlns:gpxtpx="http://www.garmin.com/xmlschemas/TrackPointExtension/v1">
            <gpxtpx:hr>123</gpxtpx:hr>
          </gpxtpx:TrackPointExtension>
        </extensions>
      </trkpt>
      <trkpt lat="43.1786" lon="6.16865">
        <ele>113.19999694824</ele>
        <time>2023-05-24T10:36:55.000Z</time>
        <extensions>
          <gpxtpx:TrackPointExtension xmlns:gpxtpx="http://www.garmin.com/xmlschemas/TrackPointExtension/v1">
            <gpxtpx:hr>120</gpxtpx:hr>
          </gpxtpx:TrackPointExtension>
        </extensions>
      </trkpt>
      <trkpt lat="43.17852" lon="6.16844">
        <ele>111.19999694824</ele>
        <time>2023-05-24T10:36:58.000Z</time>
        <extensions>
          <gpxtpx:TrackPointExtension xmlns:gpxtpx="http://www.garmin.com/xmlschemas/TrackPointExtension/v1">
            <gpxtpx:hr>122</gpxtpx:hr>
          </gpxtpx:TrackPointExtension>
        </extensions>
      </trkpt>
      <trkpt lat="43.17837" lon="6.1681">
        <ele>107.40000152588</ele>
        <time>2023-05-24T10:37:04.000Z</time>
        <extensions>
          <gpxtpx:TrackPointExtension xmlns:gpxtpx="http://www.garmin.com/xmlschemas/TrackPointExtension/v1">
            <gpxtpx:hr>121</gpxtpx:hr>
          </gpxtpx:TrackPointExtension>
        </extensions>
      </trkpt>
      <trkpt lat="43.17835" lon="6.16806">
        <ele>107</ele>
        <time>2023-05-24T10:37:05.000Z</time>
        <extensions>
          <gpxtpx:TrackPointExtension xmlns:gpxtpx="http://www.garmin.com/xmlschemas/TrackPointExtension/v1">
            <gpxtpx:hr>122</gpxtpx:hr>
          </gpxtpx:TrackPointExtension>
        </extensions>
      </trkpt>
      <trkpt lat="43.17827" lon="6.16799">
        <ele>106.19999694824</ele>
        <time>2023-05-24T10:37:07.000Z</time>
        <extensions>
          <gpxtpx:TrackPointExtension xmlns:gpxtpx="http://www.garmin.com/xmlschemas/TrackPointExtension/v1">
            <gpxtpx:hr>124</gpxtpx:hr>
          </gpxtpx:TrackPointExtension>
        </extensions>
      </trkpt>
      <trkpt lat="43.17823" lon="6.16796">
        <ele>105.80000305176</ele>
        <time>2023-05-24T10:37:08.000Z</time>
        <extensions>
          <gpxtpx:TrackPointExtension xmlns:gpxtpx="http://www.garmin.com/xmlschemas/TrackPointExtension/v1">
            <gpxtpx:hr>123</gpxtpx:hr>
          </gpxtpx:TrackPointExtension>
        </extensions>
      </trkpt>
      <trkpt lat="43.17809" lon="6.16786">
        <ele>103.80000305176</ele>
        <time>2023-05-24T10:37:11.000Z</time>
        <extensions>
          <gpxtpx:TrackPointExtension xmlns:gpxtpx="http://www.garmin.com/xmlschemas/TrackPointExtension/v1">
            <gpxtpx:hr>120</gpxtpx:hr>
          </gpxtpx:TrackPointExtension>
        </extensions>
      </trkpt>
      <trkpt lat="43.17803" lon="6.16777">
        <ele>102.40000152588</ele>
        <time>2023-05-24T10:37:13.000Z</time>
        <extensions>
          <gpxtpx:TrackPointExtension xmlns:gpxtpx="http://www.garmin.com/xmlschemas/TrackPointExtension/v1">
            <gpxtpx:hr>119</gpxtpx:hr>
          </gpxtpx:TrackPointExtension>
        </extensions>
      </trkpt>
      <trkpt lat="43.17796" lon="6.16768">
        <ele>101</ele>
        <time>2023-05-24T10:37:15.000Z</time>
        <extensions>
          <gpxtpx:TrackPointExtension xmlns:gpxtpx="http://www.garmin.com/xmlschemas/TrackPointExtension/v1">
            <gpxtpx:hr>119</gpxtpx:hr>
          </gpxtpx:TrackPointExtension>
        </extensions>
      </trkpt>
      <trkpt lat="43.17788" lon="6.16762">
        <ele>100.59999847412</ele>
        <time>2023-05-24T10:37:17.000Z</time>
        <extensions>
          <gpxtpx:TrackPointExtension xmlns:gpxtpx="http://www.garmin.com/xmlschemas/TrackPointExtension/v1">
            <gpxtpx:hr>120</gpxtpx:hr>
          </gpxtpx:TrackPointExtension>
        </extensions>
      </trkpt>
      <trkpt lat="43.17782" lon="6.16755">
        <ele>100</ele>
        <time>2023-05-24T10:37:19.000Z</time>
        <extensions>
          <gpxtpx:TrackPointExtension xmlns:gpxtpx="http://www.garmin.com/xmlschemas/TrackPointExtension/v1">
            <gpxtpx:hr>121</gpxtpx:hr>
          </gpxtpx:TrackPointExtension>
        </extensions>
      </trkpt>
      <trkpt lat="43.17778" lon="6.16744">
        <ele>99.800003051758</ele>
        <time>2023-05-24T10:37:21.000Z</time>
        <extensions>
          <gpxtpx:TrackPointExtension xmlns:gpxtpx="http://www.garmin.com/xmlschemas/TrackPointExtension/v1">
            <gpxtpx:hr>122</gpxtpx:hr>
          </gpxtpx:TrackPointExtension>
        </extensions>
      </trkpt>
      <trkpt lat="43.17766" lon="6.16708">
        <ele>99.800003051758</ele>
        <time>2023-05-24T10:37:27.000Z</time>
        <extensions>
          <gpxtpx:TrackPointExtension xmlns:gpxtpx="http://www.garmin.com/xmlschemas/TrackPointExtension/v1">
            <gpxtpx:hr>124</gpxtpx:hr>
          </gpxtpx:TrackPointExtension>
        </extensions>
      </trkpt>
      <trkpt lat="43.17754" lon="6.16676">
        <ele>99.599998474121</ele>
        <time>2023-05-24T10:37:32.000Z</time>
        <extensions>
          <gpxtpx:TrackPointExtension xmlns:gpxtpx="http://www.garmin.com/xmlschemas/TrackPointExtension/v1">
            <gpxtpx:hr>124</gpxtpx:hr>
          </gpxtpx:TrackPointExtension>
        </extensions>
      </trkpt>
      <trkpt lat="43.17752" lon="6.16669">
        <ele>99</ele>
        <time>2023-05-24T10:37:33.000Z</time>
        <extensions>
          <gpxtpx:TrackPointExtension xmlns:gpxtpx="http://www.garmin.com/xmlschemas/TrackPointExtension/v1">
            <gpxtpx:hr>124</gpxtpx:hr>
          </gpxtpx:TrackPointExtension>
        </extensions>
      </trkpt>
      <trkpt lat="43.17749" lon="6.16662">
        <ele>98.800003051758</ele>
        <time>2023-05-24T10:37:34.000Z</time>
        <extensions>
          <gpxtpx:TrackPointExtension xmlns:gpxtpx="http://www.garmin.com/xmlschemas/TrackPointExtension/v1">
            <gpxtpx:hr>124</gpxtpx:hr>
          </gpxtpx:TrackPointExtension>
        </extensions>
      </trkpt>
      <trkpt lat="43.17741" lon="6.16643">
        <ele>97</ele>
        <time>2023-05-24T10:37:37.000Z</time>
        <extensions>
          <gpxtpx:TrackPointExtension xmlns:gpxtpx="http://www.garmin.com/xmlschemas/TrackPointExtension/v1">
            <gpxtpx:hr>124</gpxtpx:hr>
          </gpxtpx:TrackPointExtension>
        </extensions>
      </trkpt>
      <trkpt lat="43.17739" lon="6.16635">
        <ele>97</ele>
        <time>2023-05-24T10:37:38.000Z</time>
        <extensions>
          <gpxtpx:TrackPointExtension xmlns:gpxtpx="http://www.garmin.com/xmlschemas/TrackPointExtension/v1">
            <gpxtpx:hr>124</gpxtpx:hr>
          </gpxtpx:TrackPointExtension>
        </extensions>
      </trkpt>
      <trkpt lat="43.17739" lon="6.16627">
        <ele>97</ele>
        <time>2023-05-24T10:37:39.000Z</time>
        <extensions>
          <gpxtpx:TrackPointExtension xmlns:gpxtpx="http://www.garmin.com/xmlschemas/TrackPointExtension/v1">
            <gpxtpx:hr>124</gpxtpx:hr>
          </gpxtpx:TrackPointExtension>
        </extensions>
      </trkpt>
      <trkpt lat="43.17742" lon="6.16613">
        <ele>96.800003051758</ele>
        <time>2023-05-24T10:37:41.000Z</time>
        <extensions>
          <gpxtpx:TrackPointExtension xmlns:gpxtpx="http://www.garmin.com/xmlschemas/TrackPointExtension/v1">
            <gpxtpx:hr>123</gpxtpx:hr>
          </gpxtpx:TrackPointExtension>
        </extensions>
      </trkpt>
      <trkpt lat="43.17741" lon="6.16599">
        <ele>96</ele>
        <time>2023-05-24T10:37:43.000Z</time>
        <extensions>
          <gpxtpx:TrackPointExtension xmlns:gpxtpx="http://www.garmin.com/xmlschemas/TrackPointExtension/v1">
            <gpxtpx:hr>122</gpxtpx:hr>
          </gpxtpx:TrackPointExtension>
        </extensions>
      </trkpt>
      <trkpt lat="43.1774" lon="6.16592">
        <ele>96</ele>
        <time>2023-05-24T10:37:44.000Z</time>
        <extensions>
          <gpxtpx:TrackPointExtension xmlns:gpxtpx="http://www.garmin.com/xmlschemas/TrackPointExtension/v1">
            <gpxtpx:hr>122</gpxtpx:hr>
          </gpxtpx:TrackPointExtension>
        </extensions>
      </trkpt>
      <trkpt lat="43.17738" lon="6.16587">
        <ele>95.800003051758</ele>
        <time>2023-05-24T10:37:45.000Z</time>
        <extensions>
          <gpxtpx:TrackPointExtension xmlns:gpxtpx="http://www.garmin.com/xmlschemas/TrackPointExtension/v1">
            <gpxtpx:hr>122</gpxtpx:hr>
          </gpxtpx:TrackPointExtension>
        </extensions>
      </trkpt>
      <trkpt lat="43.17733" lon="6.16577">
        <ele>95.800003051758</ele>
        <time>2023-05-24T10:37:47.000Z</time>
        <extensions>
          <gpxtpx:TrackPointExtension xmlns:gpxtpx="http://www.garmin.com/xmlschemas/TrackPointExtension/v1">
            <gpxtpx:hr>121</gpxtpx:hr>
          </gpxtpx:TrackPointExtension>
        </extensions>
      </trkpt>
      <trkpt lat="43.17729" lon="6.16574">
        <ele>95.599998474121</ele>
        <time>2023-05-24T10:37:48.000Z</time>
        <extensions>
          <gpxtpx:TrackPointExtension xmlns:gpxtpx="http://www.garmin.com/xmlschemas/TrackPointExtension/v1">
            <gpxtpx:hr>121</gpxtpx:hr>
          </gpxtpx:TrackPointExtension>
        </extensions>
      </trkpt>
      <trkpt lat="43.17718" lon="6.16564">
        <ele>95.800003051758</ele>
        <time>2023-05-24T10:37:51.000Z</time>
        <extensions>
          <gpxtpx:TrackPointExtension xmlns:gpxtpx="http://www.garmin.com/xmlschemas/TrackPointExtension/v1">
            <gpxtpx:hr>120</gpxtpx:hr>
          </gpxtpx:TrackPointExtension>
        </extensions>
      </trkpt>
      <trkpt lat="43.17709" lon="6.16563">
        <ele>95.400001525879</ele>
        <time>2023-05-24T10:37:53.000Z</time>
        <extensions>
          <gpxtpx:TrackPointExtension xmlns:gpxtpx="http://www.garmin.com/xmlschemas/TrackPointExtension/v1">
            <gpxtpx:hr>120</gpxtpx:hr>
          </gpxtpx:TrackPointExtension>
        </extensions>
      </trkpt>
      <trkpt lat="43.17683" lon="6.16567">
        <ele>94</ele>
        <time>2023-05-24T10:37:59.000Z</time>
        <extensions>
          <gpxtpx:TrackPointExtension xmlns:gpxtpx="http://www.garmin.com/xmlschemas/TrackPointExtension/v1">
            <gpxtpx:hr>119</gpxtpx:hr>
          </gpxtpx:TrackPointExtension>
        </extensions>
      </trkpt>
      <trkpt lat="43.17696" lon="6.16567">
        <ele>94.599998474121</ele>
        <time>2023-05-24T10:38:40.000Z</time>
        <extensions>
          <gpxtpx:TrackPointExtension xmlns:gpxtpx="http://www.garmin.com/xmlschemas/TrackPointExtension/v1">
            <gpxtpx:hr>122</gpxtpx:hr>
          </gpxtpx:TrackPointExtension>
        </extensions>
      </trkpt>
      <trkpt lat="43.17706" lon="6.16575">
        <ele>94.800003051758</ele>
        <time>2023-05-24T10:38:45.000Z</time>
        <extensions>
          <gpxtpx:TrackPointExtension xmlns:gpxtpx="http://www.garmin.com/xmlschemas/TrackPointExtension/v1">
            <gpxtpx:hr>123</gpxtpx:hr>
          </gpxtpx:TrackPointExtension>
        </extensions>
      </trkpt>
      <trkpt lat="43.17707" lon="6.16579">
        <ele>95</ele>
        <time>2023-05-24T10:38:46.000Z</time>
        <extensions>
          <gpxtpx:TrackPointExtension xmlns:gpxtpx="http://www.garmin.com/xmlschemas/TrackPointExtension/v1">
            <gpxtpx:hr>124</gpxtpx:hr>
          </gpxtpx:TrackPointExtension>
        </extensions>
      </trkpt>
      <trkpt lat="43.17704" lon="6.16584">
        <ele>95</ele>
        <time>2023-05-24T10:38:48.000Z</time>
        <extensions>
          <gpxtpx:TrackPointExtension xmlns:gpxtpx="http://www.garmin.com/xmlschemas/TrackPointExtension/v1">
            <gpxtpx:hr>125</gpxtpx:hr>
          </gpxtpx:TrackPointExtension>
        </extensions>
      </trkpt>
      <trkpt lat="43.17691" lon="6.16592">
        <ele>94.800003051758</ele>
        <time>2023-05-24T10:38:54.000Z</time>
        <extensions>
          <gpxtpx:TrackPointExtension xmlns:gpxtpx="http://www.garmin.com/xmlschemas/TrackPointExtension/v1">
            <gpxtpx:hr>128</gpxtpx:hr>
          </gpxtpx:TrackPointExtension>
        </extensions>
      </trkpt>
      <trkpt lat="43.17679" lon="6.166">
        <ele>94.400001525879</ele>
        <time>2023-05-24T10:38:59.000Z</time>
        <extensions>
          <gpxtpx:TrackPointExtension xmlns:gpxtpx="http://www.garmin.com/xmlschemas/TrackPointExtension/v1">
            <gpxtpx:hr>131</gpxtpx:hr>
          </gpxtpx:TrackPointExtension>
        </extensions>
      </trkpt>
      <trkpt lat="43.17675" lon="6.16604">
        <ele>94.599998474121</ele>
        <time>2023-05-24T10:39:01.000Z</time>
        <extensions>
          <gpxtpx:TrackPointExtension xmlns:gpxtpx="http://www.garmin.com/xmlschemas/TrackPointExtension/v1">
            <gpxtpx:hr>132</gpxtpx:hr>
          </gpxtpx:TrackPointExtension>
        </extensions>
      </trkpt>
      <trkpt lat="43.17663" lon="6.16619">
        <ele>96.800003051758</ele>
        <time>2023-05-24T10:39:07.000Z</time>
        <extensions>
          <gpxtpx:TrackPointExtension xmlns:gpxtpx="http://www.garmin.com/xmlschemas/TrackPointExtension/v1">
            <gpxtpx:hr>134</gpxtpx:hr>
          </gpxtpx:TrackPointExtension>
        </extensions>
      </trkpt>
      <trkpt lat="43.1766" lon="6.1663">
        <ele>99.199996948242</ele>
        <time>2023-05-24T10:39:10.000Z</time>
        <extensions>
          <gpxtpx:TrackPointExtension xmlns:gpxtpx="http://www.garmin.com/xmlschemas/TrackPointExtension/v1">
            <gpxtpx:hr>134</gpxtpx:hr>
          </gpxtpx:TrackPointExtension>
        </extensions>
      </trkpt>
      <trkpt lat="43.17657" lon="6.16633">
        <ele>99.599998474121</ele>
        <time>2023-05-24T10:39:11.000Z</time>
        <extensions>
          <gpxtpx:TrackPointExtension xmlns:gpxtpx="http://www.garmin.com/xmlschemas/TrackPointExtension/v1">
            <gpxtpx:hr>134</gpxtpx:hr>
          </gpxtpx:TrackPointExtension>
        </extensions>
      </trkpt>
      <trkpt lat="43.17641" lon="6.16629">
        <ele>100</ele>
        <time>2023-05-24T10:39:16.000Z</time>
        <extensions>
          <gpxtpx:TrackPointExtension xmlns:gpxtpx="http://www.garmin.com/xmlschemas/TrackPointExtension/v1">
            <gpxtpx:hr>134</gpxtpx:hr>
          </gpxtpx:TrackPointExtension>
        </extensions>
      </trkpt>
      <trkpt lat="43.17626" lon="6.16612">
        <ele>98</ele>
        <time>2023-05-24T10:39:22.000Z</time>
        <extensions>
          <gpxtpx:TrackPointExtension xmlns:gpxtpx="http://www.garmin.com/xmlschemas/TrackPointExtension/v1">
            <gpxtpx:hr>135</gpxtpx:hr>
          </gpxtpx:TrackPointExtension>
        </extensions>
      </trkpt>
      <trkpt lat="43.17621" lon="6.1661">
        <ele>99.199996948242</ele>
        <time>2023-05-24T10:39:24.000Z</time>
        <extensions>
          <gpxtpx:TrackPointExtension xmlns:gpxtpx="http://www.garmin.com/xmlschemas/TrackPointExtension/v1">
            <gpxtpx:hr>136</gpxtpx:hr>
          </gpxtpx:TrackPointExtension>
        </extensions>
      </trkpt>
      <trkpt lat="43.17616" lon="6.16612">
        <ele>100.80000305176</ele>
        <time>2023-05-24T10:39:26.000Z</time>
        <extensions>
          <gpxtpx:TrackPointExtension xmlns:gpxtpx="http://www.garmin.com/xmlschemas/TrackPointExtension/v1">
            <gpxtpx:hr>136</gpxtpx:hr>
          </gpxtpx:TrackPointExtension>
        </extensions>
      </trkpt>
      <trkpt lat="43.17602" lon="6.16615">
        <ele>104</ele>
        <time>2023-05-24T10:39:31.000Z</time>
        <extensions>
          <gpxtpx:TrackPointExtension xmlns:gpxtpx="http://www.garmin.com/xmlschemas/TrackPointExtension/v1">
            <gpxtpx:hr>137</gpxtpx:hr>
          </gpxtpx:TrackPointExtension>
        </extensions>
      </trkpt>
      <trkpt lat="43.17587" lon="6.16604">
        <ele>105</ele>
        <time>2023-05-24T10:39:36.000Z</time>
        <extensions>
          <gpxtpx:TrackPointExtension xmlns:gpxtpx="http://www.garmin.com/xmlschemas/TrackPointExtension/v1">
            <gpxtpx:hr>138</gpxtpx:hr>
          </gpxtpx:TrackPointExtension>
        </extensions>
      </trkpt>
      <trkpt lat="43.17574" lon="6.16604">
        <ele>107.59999847412</ele>
        <time>2023-05-24T10:39:40.000Z</time>
        <extensions>
          <gpxtpx:TrackPointExtension xmlns:gpxtpx="http://www.garmin.com/xmlschemas/TrackPointExtension/v1">
            <gpxtpx:hr>138</gpxtpx:hr>
          </gpxtpx:TrackPointExtension>
        </extensions>
      </trkpt>
      <trkpt lat="43.17569" lon="6.16598">
        <ele>107.80000305176</ele>
        <time>2023-05-24T10:39:42.000Z</time>
        <extensions>
          <gpxtpx:TrackPointExtension xmlns:gpxtpx="http://www.garmin.com/xmlschemas/TrackPointExtension/v1">
            <gpxtpx:hr>138</gpxtpx:hr>
          </gpxtpx:TrackPointExtension>
        </extensions>
      </trkpt>
      <trkpt lat="43.17569" lon="6.16594">
        <ele>107.40000152588</ele>
        <time>2023-05-24T10:39:43.000Z</time>
        <extensions>
          <gpxtpx:TrackPointExtension xmlns:gpxtpx="http://www.garmin.com/xmlschemas/TrackPointExtension/v1">
            <gpxtpx:hr>138</gpxtpx:hr>
          </gpxtpx:TrackPointExtension>
        </extensions>
      </trkpt>
      <trkpt lat="43.17567" lon="6.16575">
        <ele>105.80000305176</ele>
        <time>2023-05-24T10:39:48.000Z</time>
        <extensions>
          <gpxtpx:TrackPointExtension xmlns:gpxtpx="http://www.garmin.com/xmlschemas/TrackPointExtension/v1">
            <gpxtpx:hr>138</gpxtpx:hr>
          </gpxtpx:TrackPointExtension>
        </extensions>
      </trkpt>
      <trkpt lat="43.1756" lon="6.16554">
        <ele>105</ele>
        <time>2023-05-24T10:39:53.000Z</time>
        <extensions>
          <gpxtpx:TrackPointExtension xmlns:gpxtpx="http://www.garmin.com/xmlschemas/TrackPointExtension/v1">
            <gpxtpx:hr>138</gpxtpx:hr>
          </gpxtpx:TrackPointExtension>
        </extensions>
      </trkpt>
      <trkpt lat="43.17549" lon="6.16527">
        <ele>105.80000305176</ele>
        <time>2023-05-24T10:40:00.000Z</time>
        <extensions>
          <gpxtpx:TrackPointExtension xmlns:gpxtpx="http://www.garmin.com/xmlschemas/TrackPointExtension/v1">
            <gpxtpx:hr>140</gpxtpx:hr>
          </gpxtpx:TrackPointExtension>
        </extensions>
      </trkpt>
      <trkpt lat="43.17538" lon="6.16509">
        <ele>109.80000305176</ele>
        <time>2023-05-24T10:40:06.000Z</time>
        <extensions>
          <gpxtpx:TrackPointExtension xmlns:gpxtpx="http://www.garmin.com/xmlschemas/TrackPointExtension/v1">
            <gpxtpx:hr>140</gpxtpx:hr>
          </gpxtpx:TrackPointExtension>
        </extensions>
      </trkpt>
      <trkpt lat="43.17534" lon="6.16492">
        <ele>111.80000305176</ele>
        <time>2023-05-24T10:40:11.000Z</time>
        <extensions>
          <gpxtpx:TrackPointExtension xmlns:gpxtpx="http://www.garmin.com/xmlschemas/TrackPointExtension/v1">
            <gpxtpx:hr>140</gpxtpx:hr>
          </gpxtpx:TrackPointExtension>
        </extensions>
      </trkpt>
      <trkpt lat="43.17534" lon="6.16473">
        <ele>111.59999847412</ele>
        <time>2023-05-24T10:40:17.000Z</time>
        <extensions>
          <gpxtpx:TrackPointExtension xmlns:gpxtpx="http://www.garmin.com/xmlschemas/TrackPointExtension/v1">
            <gpxtpx:hr>140</gpxtpx:hr>
          </gpxtpx:TrackPointExtension>
        </extensions>
      </trkpt>
      <trkpt lat="43.17536" lon="6.16453">
        <ele>109.59999847412</ele>
        <time>2023-05-24T10:40:22.000Z</time>
        <extensions>
          <gpxtpx:TrackPointExtension xmlns:gpxtpx="http://www.garmin.com/xmlschemas/TrackPointExtension/v1">
            <gpxtpx:hr>139</gpxtpx:hr>
          </gpxtpx:TrackPointExtension>
        </extensions>
      </trkpt>
      <trkpt lat="43.17538" lon="6.16428">
        <ele>109.59999847412</ele>
        <time>2023-05-24T10:40:28.000Z</time>
        <extensions>
          <gpxtpx:TrackPointExtension xmlns:gpxtpx="http://www.garmin.com/xmlschemas/TrackPointExtension/v1">
            <gpxtpx:hr>140</gpxtpx:hr>
          </gpxtpx:TrackPointExtension>
        </extensions>
      </trkpt>
      <trkpt lat="43.17537" lon="6.16415">
        <ele>110.19999694824</ele>
        <time>2023-05-24T10:40:31.000Z</time>
        <extensions>
          <gpxtpx:TrackPointExtension xmlns:gpxtpx="http://www.garmin.com/xmlschemas/TrackPointExtension/v1">
            <gpxtpx:hr>140</gpxtpx:hr>
          </gpxtpx:TrackPointExtension>
        </extensions>
      </trkpt>
      <trkpt lat="43.17534" lon="6.16412">
        <ele>110.59999847412</ele>
        <time>2023-05-24T10:40:32.000Z</time>
        <extensions>
          <gpxtpx:TrackPointExtension xmlns:gpxtpx="http://www.garmin.com/xmlschemas/TrackPointExtension/v1">
            <gpxtpx:hr>141</gpxtpx:hr>
          </gpxtpx:TrackPointExtension>
        </extensions>
      </trkpt>
      <trkpt lat="43.17526" lon="6.16409">
        <ele>112</ele>
        <time>2023-05-24T10:40:36.000Z</time>
        <extensions>
          <gpxtpx:TrackPointExtension xmlns:gpxtpx="http://www.garmin.com/xmlschemas/TrackPointExtension/v1">
            <gpxtpx:hr>141</gpxtpx:hr>
          </gpxtpx:TrackPointExtension>
        </extensions>
      </trkpt>
      <trkpt lat="43.1751" lon="6.1641">
        <ele>114.19999694824</ele>
        <time>2023-05-24T10:40:42.000Z</time>
        <extensions>
          <gpxtpx:TrackPointExtension xmlns:gpxtpx="http://www.garmin.com/xmlschemas/TrackPointExtension/v1">
            <gpxtpx:hr>141</gpxtpx:hr>
          </gpxtpx:TrackPointExtension>
        </extensions>
      </trkpt>
      <trkpt lat="43.1749" lon="6.16414">
        <ele>118</ele>
        <time>2023-05-24T10:40:49.000Z</time>
        <extensions>
          <gpxtpx:TrackPointExtension xmlns:gpxtpx="http://www.garmin.com/xmlschemas/TrackPointExtension/v1">
            <gpxtpx:hr>142</gpxtpx:hr>
          </gpxtpx:TrackPointExtension>
        </extensions>
      </trkpt>
      <trkpt lat="43.1748" lon="6.16418">
        <ele>120.59999847412</ele>
        <time>2023-05-24T10:40:52.000Z</time>
        <extensions>
          <gpxtpx:TrackPointExtension xmlns:gpxtpx="http://www.garmin.com/xmlschemas/TrackPointExtension/v1">
            <gpxtpx:hr>142</gpxtpx:hr>
          </gpxtpx:TrackPointExtension>
        </extensions>
      </trkpt>
      <trkpt lat="43.17473" lon="6.16418">
        <ele>121.80000305176</ele>
        <time>2023-05-24T10:40:54.000Z</time>
        <extensions>
          <gpxtpx:TrackPointExtension xmlns:gpxtpx="http://www.garmin.com/xmlschemas/TrackPointExtension/v1">
            <gpxtpx:hr>142</gpxtpx:hr>
          </gpxtpx:TrackPointExtension>
        </extensions>
      </trkpt>
      <trkpt lat="43.17461" lon="6.16407">
        <ele>121.59999847412</ele>
        <time>2023-05-24T10:40:58.000Z</time>
        <extensions>
          <gpxtpx:TrackPointExtension xmlns:gpxtpx="http://www.garmin.com/xmlschemas/TrackPointExtension/v1">
            <gpxtpx:hr>141</gpxtpx:hr>
          </gpxtpx:TrackPointExtension>
        </extensions>
      </trkpt>
      <trkpt lat="43.17454" lon="6.16399">
        <ele>121.80000305176</ele>
        <time>2023-05-24T10:41:00.000Z</time>
        <extensions>
          <gpxtpx:TrackPointExtension xmlns:gpxtpx="http://www.garmin.com/xmlschemas/TrackPointExtension/v1">
            <gpxtpx:hr>141</gpxtpx:hr>
          </gpxtpx:TrackPointExtension>
        </extensions>
      </trkpt>
      <trkpt lat="43.1745" lon="6.16389">
        <ele>120.80000305176</ele>
        <time>2023-05-24T10:41:02.000Z</time>
        <extensions>
          <gpxtpx:TrackPointExtension xmlns:gpxtpx="http://www.garmin.com/xmlschemas/TrackPointExtension/v1">
            <gpxtpx:hr>141</gpxtpx:hr>
          </gpxtpx:TrackPointExtension>
        </extensions>
      </trkpt>
      <trkpt lat="43.17446" lon="6.16379">
        <ele>119.80000305176</ele>
        <time>2023-05-24T10:41:04.000Z</time>
        <extensions>
          <gpxtpx:TrackPointExtension xmlns:gpxtpx="http://www.garmin.com/xmlschemas/TrackPointExtension/v1">
            <gpxtpx:hr>141</gpxtpx:hr>
          </gpxtpx:TrackPointExtension>
        </extensions>
      </trkpt>
      <trkpt lat="43.1744" lon="6.16371">
        <ele>120.19999694824</ele>
        <time>2023-05-24T10:41:06.000Z</time>
        <extensions>
          <gpxtpx:TrackPointExtension xmlns:gpxtpx="http://www.garmin.com/xmlschemas/TrackPointExtension/v1">
            <gpxtpx:hr>141</gpxtpx:hr>
          </gpxtpx:TrackPointExtension>
        </extensions>
      </trkpt>
      <trkpt lat="43.17434" lon="6.16363">
        <ele>120.59999847412</ele>
        <time>2023-05-24T10:41:08.000Z</time>
        <extensions>
          <gpxtpx:TrackPointExtension xmlns:gpxtpx="http://www.garmin.com/xmlschemas/TrackPointExtension/v1">
            <gpxtpx:hr>140</gpxtpx:hr>
          </gpxtpx:TrackPointExtension>
        </extensions>
      </trkpt>
      <trkpt lat="43.1743" lon="6.16353">
        <ele>120</ele>
        <time>2023-05-24T10:41:10.000Z</time>
        <extensions>
          <gpxtpx:TrackPointExtension xmlns:gpxtpx="http://www.garmin.com/xmlschemas/TrackPointExtension/v1">
            <gpxtpx:hr>141</gpxtpx:hr>
          </gpxtpx:TrackPointExtension>
        </extensions>
      </trkpt>
      <trkpt lat="43.17421" lon="6.16323">
        <ele>118</ele>
        <time>2023-05-24T10:41:16.000Z</time>
        <extensions>
          <gpxtpx:TrackPointExtension xmlns:gpxtpx="http://www.garmin.com/xmlschemas/TrackPointExtension/v1">
            <gpxtpx:hr>141</gpxtpx:hr>
          </gpxtpx:TrackPointExtension>
        </extensions>
      </trkpt>
      <trkpt lat="43.17405" lon="6.16297">
        <ele>119</ele>
        <time>2023-05-24T10:41:22.000Z</time>
        <extensions>
          <gpxtpx:TrackPointExtension xmlns:gpxtpx="http://www.garmin.com/xmlschemas/TrackPointExtension/v1">
            <gpxtpx:hr>141</gpxtpx:hr>
          </gpxtpx:TrackPointExtension>
        </extensions>
      </trkpt>
      <trkpt lat="43.17385" lon="6.16274">
        <ele>122</ele>
        <time>2023-05-24T10:41:29.000Z</time>
        <extensions>
          <gpxtpx:TrackPointExtension xmlns:gpxtpx="http://www.garmin.com/xmlschemas/TrackPointExtension/v1">
            <gpxtpx:hr>141</gpxtpx:hr>
          </gpxtpx:TrackPointExtension>
        </extensions>
      </trkpt>
      <trkpt lat="43.17367" lon="6.16266">
        <ele>123.59999847412</ele>
        <time>2023-05-24T10:41:35.000Z</time>
        <extensions>
          <gpxtpx:TrackPointExtension xmlns:gpxtpx="http://www.garmin.com/xmlschemas/TrackPointExtension/v1">
            <gpxtpx:hr>142</gpxtpx:hr>
          </gpxtpx:TrackPointExtension>
        </extensions>
      </trkpt>
      <trkpt lat="43.17345" lon="6.16267">
        <ele>123.80000305176</ele>
        <time>2023-05-24T10:41:42.000Z</time>
        <extensions>
          <gpxtpx:TrackPointExtension xmlns:gpxtpx="http://www.garmin.com/xmlschemas/TrackPointExtension/v1">
            <gpxtpx:hr>141</gpxtpx:hr>
          </gpxtpx:TrackPointExtension>
        </extensions>
      </trkpt>
      <trkpt lat="43.17326" lon="6.16275">
        <ele>123.80000305176</ele>
        <time>2023-05-24T10:41:48.000Z</time>
        <extensions>
          <gpxtpx:TrackPointExtension xmlns:gpxtpx="http://www.garmin.com/xmlschemas/TrackPointExtension/v1">
            <gpxtpx:hr>142</gpxtpx:hr>
          </gpxtpx:TrackPointExtension>
        </extensions>
      </trkpt>
      <trkpt lat="43.17315" lon="6.16291">
        <ele>126</ele>
        <time>2023-05-24T10:41:54.000Z</time>
        <extensions>
          <gpxtpx:TrackPointExtension xmlns:gpxtpx="http://www.garmin.com/xmlschemas/TrackPointExtension/v1">
            <gpxtpx:hr>141</gpxtpx:hr>
          </gpxtpx:TrackPointExtension>
        </extensions>
      </trkpt>
      <trkpt lat="43.17313" lon="6.16295">
        <ele>126.19999694824</ele>
        <time>2023-05-24T10:41:58.000Z</time>
        <extensions>
          <gpxtpx:TrackPointExtension xmlns:gpxtpx="http://www.garmin.com/xmlschemas/TrackPointExtension/v1">
            <gpxtpx:hr>140</gpxtpx:hr>
          </gpxtpx:TrackPointExtension>
        </extensions>
      </trkpt>
      <trkpt lat="43.17313" lon="6.16295">
        <ele>126.19999694824</ele>
        <time>2023-05-24T10:42:07.000Z</time>
        <extensions>
          <gpxtpx:TrackPointExtension xmlns:gpxtpx="http://www.garmin.com/xmlschemas/TrackPointExtension/v1">
            <gpxtpx:hr>137</gpxtpx:hr>
          </gpxtpx:TrackPointExtension>
        </extensions>
      </trkpt>
      <trkpt lat="43.17313" lon="6.16295">
        <ele>126.19999694824</ele>
        <time>2023-05-24T10:42:11.000Z</time>
        <extensions>
          <gpxtpx:TrackPointExtension xmlns:gpxtpx="http://www.garmin.com/xmlschemas/TrackPointExtension/v1">
            <gpxtpx:hr>136</gpxtpx:hr>
          </gpxtpx:TrackPointExtension>
        </extensions>
      </trkpt>
      <trkpt lat="43.17313" lon="6.16295">
        <ele>126.19999694824</ele>
        <time>2023-05-24T10:42:23.000Z</time>
        <extensions>
          <gpxtpx:TrackPointExtension xmlns:gpxtpx="http://www.garmin.com/xmlschemas/TrackPointExtension/v1">
            <gpxtpx:hr>133</gpxtpx:hr>
          </gpxtpx:TrackPointExtension>
        </extensions>
      </trkpt>
      <trkpt lat="43.17313" lon="6.16295">
        <ele>126.19999694824</ele>
        <time>2023-05-24T10:42:24.000Z</time>
        <extensions>
          <gpxtpx:TrackPointExtension xmlns:gpxtpx="http://www.garmin.com/xmlschemas/TrackPointExtension/v1">
            <gpxtpx:hr>133</gpxtpx:hr>
          </gpxtpx:TrackPointExtension>
        </extensions>
      </trkpt>
      <trkpt lat="43.17313" lon="6.16295">
        <ele>126.19999694824</ele>
        <time>2023-05-24T10:42:25.000Z</time>
        <extensions>
          <gpxtpx:TrackPointExtension xmlns:gpxtpx="http://www.garmin.com/xmlschemas/TrackPointExtension/v1">
            <gpxtpx:hr>137</gpxtpx:hr>
          </gpxtpx:TrackPointExtension>
        </extensions>
      </trkpt>
      <trkpt lat="43.17313" lon="6.16295">
        <ele>126.19999694824</ele>
        <time>2023-05-24T10:42:28.000Z</time>
        <extensions>
          <gpxtpx:TrackPointExtension xmlns:gpxtpx="http://www.garmin.com/xmlschemas/TrackPointExtension/v1">
            <gpxtpx:hr>134</gpxtpx:hr>
          </gpxtpx:TrackPointExtension>
        </extensions>
      </trkpt>
      <trkpt lat="43.17313" lon="6.16295">
        <ele>126.19999694824</ele>
        <time>2023-05-24T10:42:31.000Z</time>
        <extensions>
          <gpxtpx:TrackPointExtension xmlns:gpxtpx="http://www.garmin.com/xmlschemas/TrackPointExtension/v1">
            <gpxtpx:hr>131</gpxtpx:hr>
          </gpxtpx:TrackPointExtension>
        </extensions>
      </trkpt>
      <trkpt lat="43.17313" lon="6.16295">
        <ele>126.19999694824</ele>
        <time>2023-05-24T10:42:36.000Z</time>
        <extensions>
          <gpxtpx:TrackPointExtension xmlns:gpxtpx="http://www.garmin.com/xmlschemas/TrackPointExtension/v1">
            <gpxtpx:hr>128</gpxtpx:hr>
          </gpxtpx:TrackPointExtension>
        </extensions>
      </trkpt>
      <trkpt lat="43.17313" lon="6.16295">
        <ele>126.19999694824</ele>
        <time>2023-05-24T10:42:38.000Z</time>
        <extensions>
          <gpxtpx:TrackPointExtension xmlns:gpxtpx="http://www.garmin.com/xmlschemas/TrackPointExtension/v1">
            <gpxtpx:hr>126</gpxtpx:hr>
          </gpxtpx:TrackPointExtension>
        </extensions>
      </trkpt>
      <trkpt lat="43.17313" lon="6.16295">
        <ele>126.19999694824</ele>
        <time>2023-05-24T10:42:42.000Z</time>
        <extensions>
          <gpxtpx:TrackPointExtension xmlns:gpxtpx="http://www.garmin.com/xmlschemas/TrackPointExtension/v1">
            <gpxtpx:hr>123</gpxtpx:hr>
          </gpxtpx:TrackPointExtension>
        </extensions>
      </trkpt>
      <trkpt lat="43.17313" lon="6.16295">
        <ele>126.19999694824</ele>
        <time>2023-05-24T10:42:50.000Z</time>
        <extensions>
          <gpxtpx:TrackPointExtension xmlns:gpxtpx="http://www.garmin.com/xmlschemas/TrackPointExtension/v1">
            <gpxtpx:hr>122</gpxtpx:hr>
          </gpxtpx:TrackPointExtension>
        </extensions>
      </trkpt>
      <trkpt lat="43.17313" lon="6.16295">
        <ele>126.19999694824</ele>
        <time>2023-05-24T10:43:03.000Z</time>
        <extensions>
          <gpxtpx:TrackPointExtension xmlns:gpxtpx="http://www.garmin.com/xmlschemas/TrackPointExtension/v1">
            <gpxtpx:hr>119</gpxtpx:hr>
          </gpxtpx:TrackPointExtension>
        </extensions>
      </trkpt>
      <trkpt lat="43.17313" lon="6.16295">
        <ele>126.19999694824</ele>
        <time>2023-05-24T10:43:06.000Z</time>
        <extensions>
          <gpxtpx:TrackPointExtension xmlns:gpxtpx="http://www.garmin.com/xmlschemas/TrackPointExtension/v1">
            <gpxtpx:hr>119</gpxtpx:hr>
          </gpxtpx:TrackPointExtension>
        </extensions>
      </trkpt>
      <trkpt lat="43.17313" lon="6.16295">
        <ele>126.19999694824</ele>
        <time>2023-05-24T10:43:19.000Z</time>
        <extensions>
          <gpxtpx:TrackPointExtension xmlns:gpxtpx="http://www.garmin.com/xmlschemas/TrackPointExtension/v1">
            <gpxtpx:hr>118</gpxtpx:hr>
          </gpxtpx:TrackPointExtension>
        </extensions>
      </trkpt>
      <trkpt lat="43.17313" lon="6.16295">
        <ele>126.19999694824</ele>
        <time>2023-05-24T10:43:25.000Z</time>
        <extensions>
          <gpxtpx:TrackPointExtension xmlns:gpxtpx="http://www.garmin.com/xmlschemas/TrackPointExtension/v1">
            <gpxtpx:hr>115</gpxtpx:hr>
          </gpxtpx:TrackPointExtension>
        </extensions>
      </trkpt>
      <trkpt lat="43.17313" lon="6.16295">
        <ele>126.19999694824</ele>
        <time>2023-05-24T10:43:33.000Z</time>
        <extensions>
          <gpxtpx:TrackPointExtension xmlns:gpxtpx="http://www.garmin.com/xmlschemas/TrackPointExtension/v1">
            <gpxtpx:hr>116</gpxtpx:hr>
          </gpxtpx:TrackPointExtension>
        </extensions>
      </trkpt>
      <trkpt lat="43.17313" lon="6.16295">
        <ele>126.19999694824</ele>
        <time>2023-05-24T10:43:43.000Z</time>
        <extensions>
          <gpxtpx:TrackPointExtension xmlns:gpxtpx="http://www.garmin.com/xmlschemas/TrackPointExtension/v1">
            <gpxtpx:hr>116</gpxtpx:hr>
          </gpxtpx:TrackPointExtension>
        </extensions>
      </trkpt>
      <trkpt lat="43.17313" lon="6.16295">
        <ele>126.19999694824</ele>
        <time>2023-05-24T10:43:49.000Z</time>
        <extensions>
          <gpxtpx:TrackPointExtension xmlns:gpxtpx="http://www.garmin.com/xmlschemas/TrackPointExtension/v1">
            <gpxtpx:hr>113</gpxtpx:hr>
          </gpxtpx:TrackPointExtension>
        </extensions>
      </trkpt>
      <trkpt lat="43.17313" lon="6.16294">
        <ele>126.19999694824</ele>
        <time>2023-05-24T10:43:58.000Z</time>
        <extensions>
          <gpxtpx:TrackPointExtension xmlns:gpxtpx="http://www.garmin.com/xmlschemas/TrackPointExtension/v1">
            <gpxtpx:hr>113</gpxtpx:hr>
          </gpxtpx:TrackPointExtension>
        </extensions>
      </trkpt>
      <trkpt lat="43.17313" lon="6.16294">
        <ele>126.19999694824</ele>
        <time>2023-05-24T10:44:16.000Z</time>
        <extensions>
          <gpxtpx:TrackPointExtension xmlns:gpxtpx="http://www.garmin.com/xmlschemas/TrackPointExtension/v1">
            <gpxtpx:hr>113</gpxtpx:hr>
          </gpxtpx:TrackPointExtension>
        </extensions>
      </trkpt>
      <trkpt lat="43.17313" lon="6.16294">
        <ele>126.19999694824</ele>
        <time>2023-05-24T10:44:23.000Z</time>
        <extensions>
          <gpxtpx:TrackPointExtension xmlns:gpxtpx="http://www.garmin.com/xmlschemas/TrackPointExtension/v1">
            <gpxtpx:hr>115</gpxtpx:hr>
          </gpxtpx:TrackPointExtension>
        </extensions>
      </trkpt>
      <trkpt lat="43.17313" lon="6.16294">
        <ele>126</ele>
        <time>2023-05-24T10:44:41.000Z</time>
        <extensions>
          <gpxtpx:TrackPointExtension xmlns:gpxtpx="http://www.garmin.com/xmlschemas/TrackPointExtension/v1">
            <gpxtpx:hr>115</gpxtpx:hr>
          </gpxtpx:TrackPointExtension>
        </extensions>
      </trkpt>
      <trkpt lat="43.17313" lon="6.16294">
        <ele>126</ele>
        <time>2023-05-24T10:44:49.000Z</time>
        <extensions>
          <gpxtpx:TrackPointExtension xmlns:gpxtpx="http://www.garmin.com/xmlschemas/TrackPointExtension/v1">
            <gpxtpx:hr>118</gpxtpx:hr>
          </gpxtpx:TrackPointExtension>
        </extensions>
      </trkpt>
      <trkpt lat="43.17313" lon="6.16294">
        <ele>126</ele>
        <time>2023-05-24T10:44:55.000Z</time>
        <extensions>
          <gpxtpx:TrackPointExtension xmlns:gpxtpx="http://www.garmin.com/xmlschemas/TrackPointExtension/v1">
            <gpxtpx:hr>121</gpxtpx:hr>
          </gpxtpx:TrackPointExtension>
        </extensions>
      </trkpt>
      <trkpt lat="43.17313" lon="6.16294">
        <ele>126</ele>
        <time>2023-05-24T10:45:00.000Z</time>
        <extensions>
          <gpxtpx:TrackPointExtension xmlns:gpxtpx="http://www.garmin.com/xmlschemas/TrackPointExtension/v1">
            <gpxtpx:hr>120</gpxtpx:hr>
          </gpxtpx:TrackPointExtension>
        </extensions>
      </trkpt>
      <trkpt lat="43.17313" lon="6.16294">
        <ele>126</ele>
        <time>2023-05-24T10:45:20.000Z</time>
        <extensions>
          <gpxtpx:TrackPointExtension xmlns:gpxtpx="http://www.garmin.com/xmlschemas/TrackPointExtension/v1">
            <gpxtpx:hr>123</gpxtpx:hr>
          </gpxtpx:TrackPointExtension>
        </extensions>
      </trkpt>
      <trkpt lat="43.17313" lon="6.16294">
        <ele>126</ele>
        <time>2023-05-24T10:45:24.000Z</time>
        <extensions>
          <gpxtpx:TrackPointExtension xmlns:gpxtpx="http://www.garmin.com/xmlschemas/TrackPointExtension/v1">
            <gpxtpx:hr>124</gpxtpx:hr>
          </gpxtpx:TrackPointExtension>
        </extensions>
      </trkpt>
      <trkpt lat="43.17313" lon="6.16294">
        <ele>126</ele>
        <time>2023-05-24T10:45:29.000Z</time>
        <extensions>
          <gpxtpx:TrackPointExtension xmlns:gpxtpx="http://www.garmin.com/xmlschemas/TrackPointExtension/v1">
            <gpxtpx:hr>127</gpxtpx:hr>
          </gpxtpx:TrackPointExtension>
        </extensions>
      </trkpt>
      <trkpt lat="43.17313" lon="6.16294">
        <ele>126</ele>
        <time>2023-05-24T10:45:37.000Z</time>
        <extensions>
          <gpxtpx:TrackPointExtension xmlns:gpxtpx="http://www.garmin.com/xmlschemas/TrackPointExtension/v1">
            <gpxtpx:hr>130</gpxtpx:hr>
          </gpxtpx:TrackPointExtension>
        </extensions>
      </trkpt>
      <trkpt lat="43.17313" lon="6.16294">
        <ele>126</ele>
        <time>2023-05-24T10:45:51.000Z</time>
        <extensions>
          <gpxtpx:TrackPointExtension xmlns:gpxtpx="http://www.garmin.com/xmlschemas/TrackPointExtension/v1">
            <gpxtpx:hr>129</gpxtpx:hr>
          </gpxtpx:TrackPointExtension>
        </extensions>
      </trkpt>
      <trkpt lat="43.17313" lon="6.16293">
        <ele>126</ele>
        <time>2023-05-24T10:46:08.000Z</time>
        <extensions>
          <gpxtpx:TrackPointExtension xmlns:gpxtpx="http://www.garmin.com/xmlschemas/TrackPointExtension/v1">
            <gpxtpx:hr>126</gpxtpx:hr>
          </gpxtpx:TrackPointExtension>
        </extensions>
      </trkpt>
      <trkpt lat="43.17313" lon="6.16293">
        <ele>126</ele>
        <time>2023-05-24T10:46:13.000Z</time>
        <extensions>
          <gpxtpx:TrackPointExtension xmlns:gpxtpx="http://www.garmin.com/xmlschemas/TrackPointExtension/v1">
            <gpxtpx:hr>123</gpxtpx:hr>
          </gpxtpx:TrackPointExtension>
        </extensions>
      </trkpt>
      <trkpt lat="43.17313" lon="6.16293">
        <ele>126</ele>
        <time>2023-05-24T10:46:14.000Z</time>
        <extensions>
          <gpxtpx:TrackPointExtension xmlns:gpxtpx="http://www.garmin.com/xmlschemas/TrackPointExtension/v1">
            <gpxtpx:hr>124</gpxtpx:hr>
          </gpxtpx:TrackPointExtension>
        </extensions>
      </trkpt>
      <trkpt lat="43.17314" lon="6.16291">
        <ele>125.80000305176</ele>
        <time>2023-05-24T10:46:36.000Z</time>
        <extensions>
          <gpxtpx:TrackPointExtension xmlns:gpxtpx="http://www.garmin.com/xmlschemas/TrackPointExtension/v1">
            <gpxtpx:hr>127</gpxtpx:hr>
          </gpxtpx:TrackPointExtension>
        </extensions>
      </trkpt>
      <trkpt lat="43.17314" lon="6.16291">
        <ele>125.80000305176</ele>
        <time>2023-05-24T10:46:37.000Z</time>
        <extensions>
          <gpxtpx:TrackPointExtension xmlns:gpxtpx="http://www.garmin.com/xmlschemas/TrackPointExtension/v1">
            <gpxtpx:hr>128</gpxtpx:hr>
          </gpxtpx:TrackPointExtension>
        </extensions>
      </trkpt>
      <trkpt lat="43.17315" lon="6.1629">
        <ele>125.80000305176</ele>
        <time>2023-05-24T10:46:38.000Z</time>
        <extensions>
          <gpxtpx:TrackPointExtension xmlns:gpxtpx="http://www.garmin.com/xmlschemas/TrackPointExtension/v1">
            <gpxtpx:hr>128</gpxtpx:hr>
          </gpxtpx:TrackPointExtension>
        </extensions>
      </trkpt>
      <trkpt lat="43.17316" lon="6.16289">
        <ele>125.80000305176</ele>
        <time>2023-05-24T10:46:42.000Z</time>
        <extensions>
          <gpxtpx:TrackPointExtension xmlns:gpxtpx="http://www.garmin.com/xmlschemas/TrackPointExtension/v1">
            <gpxtpx:hr>131</gpxtpx:hr>
          </gpxtpx:TrackPointExtension>
        </extensions>
      </trkpt>
      <trkpt lat="43.17316" lon="6.16289">
        <ele>126</ele>
        <time>2023-05-24T10:46:47.000Z</time>
        <extensions>
          <gpxtpx:TrackPointExtension xmlns:gpxtpx="http://www.garmin.com/xmlschemas/TrackPointExtension/v1">
            <gpxtpx:hr>132</gpxtpx:hr>
          </gpxtpx:TrackPointExtension>
        </extensions>
      </trkpt>
      <trkpt lat="43.17316" lon="6.1629">
        <ele>126.19999694824</ele>
        <time>2023-05-24T10:46:48.000Z</time>
        <extensions>
          <gpxtpx:TrackPointExtension xmlns:gpxtpx="http://www.garmin.com/xmlschemas/TrackPointExtension/v1">
            <gpxtpx:hr>132</gpxtpx:hr>
          </gpxtpx:TrackPointExtension>
        </extensions>
      </trkpt>
      <trkpt lat="43.17314" lon="6.16295">
        <ele>126.59999847412</ele>
        <time>2023-05-24T10:46:50.000Z</time>
        <extensions>
          <gpxtpx:TrackPointExtension xmlns:gpxtpx="http://www.garmin.com/xmlschemas/TrackPointExtension/v1">
            <gpxtpx:hr>132</gpxtpx:hr>
          </gpxtpx:TrackPointExtension>
        </extensions>
      </trkpt>
      <trkpt lat="43.17314" lon="6.16298">
        <ele>127.19999694824</ele>
        <time>2023-05-24T10:46:51.000Z</time>
        <extensions>
          <gpxtpx:TrackPointExtension xmlns:gpxtpx="http://www.garmin.com/xmlschemas/TrackPointExtension/v1">
            <gpxtpx:hr>135</gpxtpx:hr>
          </gpxtpx:TrackPointExtension>
        </extensions>
      </trkpt>
      <trkpt lat="43.17315" lon="6.163">
        <ele>128</ele>
        <time>2023-05-24T10:46:52.000Z</time>
        <extensions>
          <gpxtpx:TrackPointExtension xmlns:gpxtpx="http://www.garmin.com/xmlschemas/TrackPointExtension/v1">
            <gpxtpx:hr>133</gpxtpx:hr>
          </gpxtpx:TrackPointExtension>
        </extensions>
      </trkpt>
      <trkpt lat="43.17322" lon="6.16309">
        <ele>131.80000305176</ele>
        <time>2023-05-24T10:46:57.000Z</time>
        <extensions>
          <gpxtpx:TrackPointExtension xmlns:gpxtpx="http://www.garmin.com/xmlschemas/TrackPointExtension/v1">
            <gpxtpx:hr>134</gpxtpx:hr>
          </gpxtpx:TrackPointExtension>
        </extensions>
      </trkpt>
      <trkpt lat="43.17323" lon="6.16312">
        <ele>132.80000305176</ele>
        <time>2023-05-24T10:46:58.000Z</time>
        <extensions>
          <gpxtpx:TrackPointExtension xmlns:gpxtpx="http://www.garmin.com/xmlschemas/TrackPointExtension/v1">
            <gpxtpx:hr>134</gpxtpx:hr>
          </gpxtpx:TrackPointExtension>
        </extensions>
      </trkpt>
      <trkpt lat="43.17328" lon="6.16329">
        <ele>136.60000610352</ele>
        <time>2023-05-24T10:47:04.000Z</time>
        <extensions>
          <gpxtpx:TrackPointExtension xmlns:gpxtpx="http://www.garmin.com/xmlschemas/TrackPointExtension/v1">
            <gpxtpx:hr>136</gpxtpx:hr>
          </gpxtpx:TrackPointExtension>
        </extensions>
      </trkpt>
      <trkpt lat="43.17333" lon="6.16341">
        <ele>138.60000610352</ele>
        <time>2023-05-24T10:47:09.000Z</time>
        <extensions>
          <gpxtpx:TrackPointExtension xmlns:gpxtpx="http://www.garmin.com/xmlschemas/TrackPointExtension/v1">
            <gpxtpx:hr>137</gpxtpx:hr>
          </gpxtpx:TrackPointExtension>
        </extensions>
      </trkpt>
      <trkpt lat="43.17338" lon="6.16358">
        <ele>141</ele>
        <time>2023-05-24T10:47:15.000Z</time>
        <extensions>
          <gpxtpx:TrackPointExtension xmlns:gpxtpx="http://www.garmin.com/xmlschemas/TrackPointExtension/v1">
            <gpxtpx:hr>138</gpxtpx:hr>
          </gpxtpx:TrackPointExtension>
        </extensions>
      </trkpt>
      <trkpt lat="43.1734" lon="6.16372">
        <ele>142.80000305176</ele>
        <time>2023-05-24T10:47:20.000Z</time>
        <extensions>
          <gpxtpx:TrackPointExtension xmlns:gpxtpx="http://www.garmin.com/xmlschemas/TrackPointExtension/v1">
            <gpxtpx:hr>138</gpxtpx:hr>
          </gpxtpx:TrackPointExtension>
        </extensions>
      </trkpt>
      <trkpt lat="43.1734" lon="6.16382">
        <ele>144.19999694824</ele>
        <time>2023-05-24T10:47:24.000Z</time>
        <extensions>
          <gpxtpx:TrackPointExtension xmlns:gpxtpx="http://www.garmin.com/xmlschemas/TrackPointExtension/v1">
            <gpxtpx:hr>142</gpxtpx:hr>
          </gpxtpx:TrackPointExtension>
        </extensions>
      </trkpt>
      <trkpt lat="43.1734" lon="6.16387">
        <ele>145</ele>
        <time>2023-05-24T10:47:26.000Z</time>
        <extensions>
          <gpxtpx:TrackPointExtension xmlns:gpxtpx="http://www.garmin.com/xmlschemas/TrackPointExtension/v1">
            <gpxtpx:hr>142</gpxtpx:hr>
          </gpxtpx:TrackPointExtension>
        </extensions>
      </trkpt>
      <trkpt lat="43.17339" lon="6.16395">
        <ele>146.19999694824</ele>
        <time>2023-05-24T10:47:29.000Z</time>
        <extensions>
          <gpxtpx:TrackPointExtension xmlns:gpxtpx="http://www.garmin.com/xmlschemas/TrackPointExtension/v1">
            <gpxtpx:hr>143</gpxtpx:hr>
          </gpxtpx:TrackPointExtension>
        </extensions>
      </trkpt>
      <trkpt lat="43.1734" lon="6.164">
        <ele>147</ele>
        <time>2023-05-24T10:47:31.000Z</time>
        <extensions>
          <gpxtpx:TrackPointExtension xmlns:gpxtpx="http://www.garmin.com/xmlschemas/TrackPointExtension/v1">
            <gpxtpx:hr>146</gpxtpx:hr>
          </gpxtpx:TrackPointExtension>
        </extensions>
      </trkpt>
      <trkpt lat="43.1734" lon="6.16403">
        <ele>147.39999389648</ele>
        <time>2023-05-24T10:47:32.000Z</time>
        <extensions>
          <gpxtpx:TrackPointExtension xmlns:gpxtpx="http://www.garmin.com/xmlschemas/TrackPointExtension/v1">
            <gpxtpx:hr>142</gpxtpx:hr>
          </gpxtpx:TrackPointExtension>
        </extensions>
      </trkpt>
      <trkpt lat="43.1734" lon="6.1641">
        <ele>148.80000305176</ele>
        <time>2023-05-24T10:47:35.000Z</time>
        <extensions>
          <gpxtpx:TrackPointExtension xmlns:gpxtpx="http://www.garmin.com/xmlschemas/TrackPointExtension/v1">
            <gpxtpx:hr>145</gpxtpx:hr>
          </gpxtpx:TrackPointExtension>
        </extensions>
      </trkpt>
      <trkpt lat="43.17341" lon="6.16413">
        <ele>149.39999389648</ele>
        <time>2023-05-24T10:47:36.000Z</time>
        <extensions>
          <gpxtpx:TrackPointExtension xmlns:gpxtpx="http://www.garmin.com/xmlschemas/TrackPointExtension/v1">
            <gpxtpx:hr>148</gpxtpx:hr>
          </gpxtpx:TrackPointExtension>
        </extensions>
      </trkpt>
      <trkpt lat="43.17341" lon="6.16418">
        <ele>150.39999389648</ele>
        <time>2023-05-24T10:47:38.000Z</time>
        <extensions>
          <gpxtpx:TrackPointExtension xmlns:gpxtpx="http://www.garmin.com/xmlschemas/TrackPointExtension/v1">
            <gpxtpx:hr>146</gpxtpx:hr>
          </gpxtpx:TrackPointExtension>
        </extensions>
      </trkpt>
      <trkpt lat="43.17343" lon="6.16436">
        <ele>153.80000305176</ele>
        <time>2023-05-24T10:47:45.000Z</time>
        <extensions>
          <gpxtpx:TrackPointExtension xmlns:gpxtpx="http://www.garmin.com/xmlschemas/TrackPointExtension/v1">
            <gpxtpx:hr>147</gpxtpx:hr>
          </gpxtpx:TrackPointExtension>
        </extensions>
      </trkpt>
      <trkpt lat="43.17344" lon="6.16438">
        <ele>154.19999694824</ele>
        <time>2023-05-24T10:47:46.000Z</time>
        <extensions>
          <gpxtpx:TrackPointExtension xmlns:gpxtpx="http://www.garmin.com/xmlschemas/TrackPointExtension/v1">
            <gpxtpx:hr>155</gpxtpx:hr>
          </gpxtpx:TrackPointExtension>
        </extensions>
      </trkpt>
      <trkpt lat="43.17345" lon="6.16439">
        <ele>154.39999389648</ele>
        <time>2023-05-24T10:47:47.000Z</time>
        <extensions>
          <gpxtpx:TrackPointExtension xmlns:gpxtpx="http://www.garmin.com/xmlschemas/TrackPointExtension/v1">
            <gpxtpx:hr>154</gpxtpx:hr>
          </gpxtpx:TrackPointExtension>
        </extensions>
      </trkpt>
      <trkpt lat="43.17345" lon="6.16441">
        <ele>154.80000305176</ele>
        <time>2023-05-24T10:47:48.000Z</time>
        <extensions>
          <gpxtpx:TrackPointExtension xmlns:gpxtpx="http://www.garmin.com/xmlschemas/TrackPointExtension/v1">
            <gpxtpx:hr>151</gpxtpx:hr>
          </gpxtpx:TrackPointExtension>
        </extensions>
      </trkpt>
      <trkpt lat="43.17346" lon="6.16446">
        <ele>155.80000305176</ele>
        <time>2023-05-24T10:47:51.000Z</time>
        <extensions>
          <gpxtpx:TrackPointExtension xmlns:gpxtpx="http://www.garmin.com/xmlschemas/TrackPointExtension/v1">
            <gpxtpx:hr>150</gpxtpx:hr>
          </gpxtpx:TrackPointExtension>
        </extensions>
      </trkpt>
      <trkpt lat="43.17347" lon="6.16462">
        <ele>158.60000610352</ele>
        <time>2023-05-24T10:47:58.000Z</time>
        <extensions>
          <gpxtpx:TrackPointExtension xmlns:gpxtpx="http://www.garmin.com/xmlschemas/TrackPointExtension/v1">
            <gpxtpx:hr>150</gpxtpx:hr>
          </gpxtpx:TrackPointExtension>
        </extensions>
      </trkpt>
      <trkpt lat="43.1735" lon="6.16483">
        <ele>162.39999389648</ele>
        <time>2023-05-24T10:48:07.000Z</time>
        <extensions>
          <gpxtpx:TrackPointExtension xmlns:gpxtpx="http://www.garmin.com/xmlschemas/TrackPointExtension/v1">
            <gpxtpx:hr>151</gpxtpx:hr>
          </gpxtpx:TrackPointExtension>
        </extensions>
      </trkpt>
      <trkpt lat="43.17354" lon="6.16494">
        <ele>164.39999389648</ele>
        <time>2023-05-24T10:48:12.000Z</time>
        <extensions>
          <gpxtpx:TrackPointExtension xmlns:gpxtpx="http://www.garmin.com/xmlschemas/TrackPointExtension/v1">
            <gpxtpx:hr>148</gpxtpx:hr>
          </gpxtpx:TrackPointExtension>
        </extensions>
      </trkpt>
      <trkpt lat="43.17354" lon="6.16497">
        <ele>164.80000305176</ele>
        <time>2023-05-24T10:48:13.000Z</time>
        <extensions>
          <gpxtpx:TrackPointExtension xmlns:gpxtpx="http://www.garmin.com/xmlschemas/TrackPointExtension/v1">
            <gpxtpx:hr>149</gpxtpx:hr>
          </gpxtpx:TrackPointExtension>
        </extensions>
      </trkpt>
      <trkpt lat="43.17355" lon="6.16504">
        <ele>165.80000305176</ele>
        <time>2023-05-24T10:48:16.000Z</time>
        <extensions>
          <gpxtpx:TrackPointExtension xmlns:gpxtpx="http://www.garmin.com/xmlschemas/TrackPointExtension/v1">
            <gpxtpx:hr>154</gpxtpx:hr>
          </gpxtpx:TrackPointExtension>
        </extensions>
      </trkpt>
      <trkpt lat="43.17357" lon="6.16516">
        <ele>167.39999389648</ele>
        <time>2023-05-24T10:48:21.000Z</time>
        <extensions>
          <gpxtpx:TrackPointExtension xmlns:gpxtpx="http://www.garmin.com/xmlschemas/TrackPointExtension/v1">
            <gpxtpx:hr>153</gpxtpx:hr>
          </gpxtpx:TrackPointExtension>
        </extensions>
      </trkpt>
      <trkpt lat="43.17362" lon="6.16529">
        <ele>169.39999389648</ele>
        <time>2023-05-24T10:48:27.000Z</time>
        <extensions>
          <gpxtpx:TrackPointExtension xmlns:gpxtpx="http://www.garmin.com/xmlschemas/TrackPointExtension/v1">
            <gpxtpx:hr>152</gpxtpx:hr>
          </gpxtpx:TrackPointExtension>
        </extensions>
      </trkpt>
      <trkpt lat="43.17367" lon="6.16542">
        <ele>171.19999694824</ele>
        <time>2023-05-24T10:48:33.000Z</time>
        <extensions>
          <gpxtpx:TrackPointExtension xmlns:gpxtpx="http://www.garmin.com/xmlschemas/TrackPointExtension/v1">
            <gpxtpx:hr>152</gpxtpx:hr>
          </gpxtpx:TrackPointExtension>
        </extensions>
      </trkpt>
      <trkpt lat="43.17372" lon="6.16558">
        <ele>173.39999389648</ele>
        <time>2023-05-24T10:48:39.000Z</time>
        <extensions>
          <gpxtpx:TrackPointExtension xmlns:gpxtpx="http://www.garmin.com/xmlschemas/TrackPointExtension/v1">
            <gpxtpx:hr>147</gpxtpx:hr>
          </gpxtpx:TrackPointExtension>
        </extensions>
      </trkpt>
      <trkpt lat="43.17372" lon="6.1656">
        <ele>173.60000610352</ele>
        <time>2023-05-24T10:48:40.000Z</time>
        <extensions>
          <gpxtpx:TrackPointExtension xmlns:gpxtpx="http://www.garmin.com/xmlschemas/TrackPointExtension/v1">
            <gpxtpx:hr>148</gpxtpx:hr>
          </gpxtpx:TrackPointExtension>
        </extensions>
      </trkpt>
      <trkpt lat="43.17374" lon="6.16566">
        <ele>174.60000610352</ele>
        <time>2023-05-24T10:48:43.000Z</time>
        <extensions>
          <gpxtpx:TrackPointExtension xmlns:gpxtpx="http://www.garmin.com/xmlschemas/TrackPointExtension/v1">
            <gpxtpx:hr>156</gpxtpx:hr>
          </gpxtpx:TrackPointExtension>
        </extensions>
      </trkpt>
      <trkpt lat="43.17374" lon="6.16568">
        <ele>175</ele>
        <time>2023-05-24T10:48:44.000Z</time>
        <extensions>
          <gpxtpx:TrackPointExtension xmlns:gpxtpx="http://www.garmin.com/xmlschemas/TrackPointExtension/v1">
            <gpxtpx:hr>160</gpxtpx:hr>
          </gpxtpx:TrackPointExtension>
        </extensions>
      </trkpt>
      <trkpt lat="43.17375" lon="6.16571">
        <ele>175.39999389648</ele>
        <time>2023-05-24T10:48:45.000Z</time>
        <extensions>
          <gpxtpx:TrackPointExtension xmlns:gpxtpx="http://www.garmin.com/xmlschemas/TrackPointExtension/v1">
            <gpxtpx:hr>156</gpxtpx:hr>
          </gpxtpx:TrackPointExtension>
        </extensions>
      </trkpt>
      <trkpt lat="43.17375" lon="6.16573">
        <ele>175.80000305176</ele>
        <time>2023-05-24T10:48:47.000Z</time>
        <extensions>
          <gpxtpx:TrackPointExtension xmlns:gpxtpx="http://www.garmin.com/xmlschemas/TrackPointExtension/v1">
            <gpxtpx:hr>154</gpxtpx:hr>
          </gpxtpx:TrackPointExtension>
        </extensions>
      </trkpt>
      <trkpt lat="43.17375" lon="6.16573">
        <ele>175.80000305176</ele>
        <time>2023-05-24T10:48:50.000Z</time>
        <extensions>
          <gpxtpx:TrackPointExtension xmlns:gpxtpx="http://www.garmin.com/xmlschemas/TrackPointExtension/v1">
            <gpxtpx:hr>151</gpxtpx:hr>
          </gpxtpx:TrackPointExtension>
        </extensions>
      </trkpt>
      <trkpt lat="43.17375" lon="6.16573">
        <ele>175.80000305176</ele>
        <time>2023-05-24T10:48:54.000Z</time>
        <extensions>
          <gpxtpx:TrackPointExtension xmlns:gpxtpx="http://www.garmin.com/xmlschemas/TrackPointExtension/v1">
            <gpxtpx:hr>148</gpxtpx:hr>
          </gpxtpx:TrackPointExtension>
        </extensions>
      </trkpt>
      <trkpt lat="43.17375" lon="6.16573">
        <ele>175.80000305176</ele>
        <time>2023-05-24T10:48:55.000Z</time>
        <extensions>
          <gpxtpx:TrackPointExtension xmlns:gpxtpx="http://www.garmin.com/xmlschemas/TrackPointExtension/v1">
            <gpxtpx:hr>148</gpxtpx:hr>
          </gpxtpx:TrackPointExtension>
        </extensions>
      </trkpt>
      <trkpt lat="43.17375" lon="6.16573">
        <ele>175.80000305176</ele>
        <time>2023-05-24T10:48:58.000Z</time>
        <extensions>
          <gpxtpx:TrackPointExtension xmlns:gpxtpx="http://www.garmin.com/xmlschemas/TrackPointExtension/v1">
            <gpxtpx:hr>145</gpxtpx:hr>
          </gpxtpx:TrackPointExtension>
        </extensions>
      </trkpt>
      <trkpt lat="43.17375" lon="6.16573">
        <ele>175.80000305176</ele>
        <time>2023-05-24T10:49:05.000Z</time>
        <extensions>
          <gpxtpx:TrackPointExtension xmlns:gpxtpx="http://www.garmin.com/xmlschemas/TrackPointExtension/v1">
            <gpxtpx:hr>142</gpxtpx:hr>
          </gpxtpx:TrackPointExtension>
        </extensions>
      </trkpt>
      <trkpt lat="43.17375" lon="6.16573">
        <ele>175.80000305176</ele>
        <time>2023-05-24T10:49:08.000Z</time>
        <extensions>
          <gpxtpx:TrackPointExtension xmlns:gpxtpx="http://www.garmin.com/xmlschemas/TrackPointExtension/v1">
            <gpxtpx:hr>142</gpxtpx:hr>
          </gpxtpx:TrackPointExtension>
        </extensions>
      </trkpt>
      <trkpt lat="43.17375" lon="6.16573">
        <ele>175.80000305176</ele>
        <time>2023-05-24T10:49:21.000Z</time>
        <extensions>
          <gpxtpx:TrackPointExtension xmlns:gpxtpx="http://www.garmin.com/xmlschemas/TrackPointExtension/v1">
            <gpxtpx:hr>139</gpxtpx:hr>
          </gpxtpx:TrackPointExtension>
        </extensions>
      </trkpt>
      <trkpt lat="43.17375" lon="6.16573">
        <ele>175.60000610352</ele>
        <time>2023-05-24T10:49:29.000Z</time>
        <extensions>
          <gpxtpx:TrackPointExtension xmlns:gpxtpx="http://www.garmin.com/xmlschemas/TrackPointExtension/v1">
            <gpxtpx:hr>136</gpxtpx:hr>
          </gpxtpx:TrackPointExtension>
        </extensions>
      </trkpt>
      <trkpt lat="43.17375" lon="6.16573">
        <ele>175.60000610352</ele>
        <time>2023-05-24T10:49:33.000Z</time>
        <extensions>
          <gpxtpx:TrackPointExtension xmlns:gpxtpx="http://www.garmin.com/xmlschemas/TrackPointExtension/v1">
            <gpxtpx:hr>133</gpxtpx:hr>
          </gpxtpx:TrackPointExtension>
        </extensions>
      </trkpt>
      <trkpt lat="43.17375" lon="6.16573">
        <ele>175.60000610352</ele>
        <time>2023-05-24T10:49:34.000Z</time>
        <extensions>
          <gpxtpx:TrackPointExtension xmlns:gpxtpx="http://www.garmin.com/xmlschemas/TrackPointExtension/v1">
            <gpxtpx:hr>133</gpxtpx:hr>
          </gpxtpx:TrackPointExtension>
        </extensions>
      </trkpt>
      <trkpt lat="43.17375" lon="6.16573">
        <ele>175.60000610352</ele>
        <time>2023-05-24T10:49:50.000Z</time>
        <extensions>
          <gpxtpx:TrackPointExtension xmlns:gpxtpx="http://www.garmin.com/xmlschemas/TrackPointExtension/v1">
            <gpxtpx:hr>132</gpxtpx:hr>
          </gpxtpx:TrackPointExtension>
        </extensions>
      </trkpt>
      <trkpt lat="43.17375" lon="6.16573">
        <ele>175.60000610352</ele>
        <time>2023-05-24T10:49:57.000Z</time>
        <extensions>
          <gpxtpx:TrackPointExtension xmlns:gpxtpx="http://www.garmin.com/xmlschemas/TrackPointExtension/v1">
            <gpxtpx:hr>129</gpxtpx:hr>
          </gpxtpx:TrackPointExtension>
        </extensions>
      </trkpt>
      <trkpt lat="43.17375" lon="6.16573">
        <ele>175.80000305176</ele>
        <time>2023-05-24T10:50:07.000Z</time>
        <extensions>
          <gpxtpx:TrackPointExtension xmlns:gpxtpx="http://www.garmin.com/xmlschemas/TrackPointExtension/v1">
            <gpxtpx:hr>127</gpxtpx:hr>
          </gpxtpx:TrackPointExtension>
        </extensions>
      </trkpt>
      <trkpt lat="43.17375" lon="6.16573">
        <ele>175.80000305176</ele>
        <time>2023-05-24T10:50:13.000Z</time>
        <extensions>
          <gpxtpx:TrackPointExtension xmlns:gpxtpx="http://www.garmin.com/xmlschemas/TrackPointExtension/v1">
            <gpxtpx:hr>124</gpxtpx:hr>
          </gpxtpx:TrackPointExtension>
        </extensions>
      </trkpt>
      <trkpt lat="43.17375" lon="6.16573">
        <ele>175.80000305176</ele>
        <time>2023-05-24T10:50:25.000Z</time>
        <extensions>
          <gpxtpx:TrackPointExtension xmlns:gpxtpx="http://www.garmin.com/xmlschemas/TrackPointExtension/v1">
            <gpxtpx:hr>122</gpxtpx:hr>
          </gpxtpx:TrackPointExtension>
        </extensions>
      </trkpt>
      <trkpt lat="43.17375" lon="6.16573">
        <ele>175.80000305176</ele>
        <time>2023-05-24T10:50:35.000Z</time>
        <extensions>
          <gpxtpx:TrackPointExtension xmlns:gpxtpx="http://www.garmin.com/xmlschemas/TrackPointExtension/v1">
            <gpxtpx:hr>119</gpxtpx:hr>
          </gpxtpx:TrackPointExtension>
        </extensions>
      </trkpt>
      <trkpt lat="43.17375" lon="6.16573">
        <ele>175.80000305176</ele>
        <time>2023-05-24T10:50:44.000Z</time>
        <extensions>
          <gpxtpx:TrackPointExtension xmlns:gpxtpx="http://www.garmin.com/xmlschemas/TrackPointExtension/v1">
            <gpxtpx:hr>117</gpxtpx:hr>
          </gpxtpx:TrackPointExtension>
        </extensions>
      </trkpt>
      <trkpt lat="43.17375" lon="6.16573">
        <ele>175.60000610352</ele>
        <time>2023-05-24T10:51:08.000Z</time>
        <extensions>
          <gpxtpx:TrackPointExtension xmlns:gpxtpx="http://www.garmin.com/xmlschemas/TrackPointExtension/v1">
            <gpxtpx:hr>116</gpxtpx:hr>
          </gpxtpx:TrackPointExtension>
        </extensions>
      </trkpt>
      <trkpt lat="43.17375" lon="6.16573">
        <ele>175.60000610352</ele>
        <time>2023-05-24T10:51:28.000Z</time>
        <extensions>
          <gpxtpx:TrackPointExtension xmlns:gpxtpx="http://www.garmin.com/xmlschemas/TrackPointExtension/v1">
            <gpxtpx:hr>116</gpxtpx:hr>
          </gpxtpx:TrackPointExtension>
        </extensions>
      </trkpt>
      <trkpt lat="43.17375" lon="6.16573">
        <ele>175.60000610352</ele>
        <time>2023-05-24T10:51:43.000Z</time>
        <extensions>
          <gpxtpx:TrackPointExtension xmlns:gpxtpx="http://www.garmin.com/xmlschemas/TrackPointExtension/v1">
            <gpxtpx:hr>113</gpxtpx:hr>
          </gpxtpx:TrackPointExtension>
        </extensions>
      </trkpt>
      <trkpt lat="43.17375" lon="6.16573">
        <ele>175.60000610352</ele>
        <time>2023-05-24T10:51:46.000Z</time>
        <extensions>
          <gpxtpx:TrackPointExtension xmlns:gpxtpx="http://www.garmin.com/xmlschemas/TrackPointExtension/v1">
            <gpxtpx:hr>112</gpxtpx:hr>
          </gpxtpx:TrackPointExtension>
        </extensions>
      </trkpt>
      <trkpt lat="43.17375" lon="6.16573">
        <ele>175.60000610352</ele>
        <time>2023-05-24T10:52:04.000Z</time>
        <extensions>
          <gpxtpx:TrackPointExtension xmlns:gpxtpx="http://www.garmin.com/xmlschemas/TrackPointExtension/v1">
            <gpxtpx:hr>115</gpxtpx:hr>
          </gpxtpx:TrackPointExtension>
        </extensions>
      </trkpt>
      <trkpt lat="43.17375" lon="6.16573">
        <ele>175.60000610352</ele>
        <time>2023-05-24T10:52:06.000Z</time>
        <extensions>
          <gpxtpx:TrackPointExtension xmlns:gpxtpx="http://www.garmin.com/xmlschemas/TrackPointExtension/v1">
            <gpxtpx:hr>115</gpxtpx:hr>
          </gpxtpx:TrackPointExtension>
        </extensions>
      </trkpt>
      <trkpt lat="43.17375" lon="6.16574">
        <ele>175.80000305176</ele>
        <time>2023-05-24T10:52:29.000Z</time>
        <extensions>
          <gpxtpx:TrackPointExtension xmlns:gpxtpx="http://www.garmin.com/xmlschemas/TrackPointExtension/v1">
            <gpxtpx:hr>113</gpxtpx:hr>
          </gpxtpx:TrackPointExtension>
        </extensions>
      </trkpt>
      <trkpt lat="43.17375" lon="6.16574">
        <ele>175.80000305176</ele>
        <time>2023-05-24T10:52:45.000Z</time>
        <extensions>
          <gpxtpx:TrackPointExtension xmlns:gpxtpx="http://www.garmin.com/xmlschemas/TrackPointExtension/v1">
            <gpxtpx:hr>113</gpxtpx:hr>
          </gpxtpx:TrackPointExtension>
        </extensions>
      </trkpt>
      <trkpt lat="43.17375" lon="6.16574">
        <ele>175.80000305176</ele>
        <time>2023-05-24T10:53:05.000Z</time>
        <extensions>
          <gpxtpx:TrackPointExtension xmlns:gpxtpx="http://www.garmin.com/xmlschemas/TrackPointExtension/v1">
            <gpxtpx:hr>111</gpxtpx:hr>
          </gpxtpx:TrackPointExtension>
        </extensions>
      </trkpt>
      <trkpt lat="43.17375" lon="6.16574">
        <ele>175.80000305176</ele>
        <time>2023-05-24T10:53:25.000Z</time>
        <extensions>
          <gpxtpx:TrackPointExtension xmlns:gpxtpx="http://www.garmin.com/xmlschemas/TrackPointExtension/v1">
            <gpxtpx:hr>112</gpxtpx:hr>
          </gpxtpx:TrackPointExtension>
        </extensions>
      </trkpt>
      <trkpt lat="43.17376" lon="6.16577">
        <ele>176.19999694824</ele>
        <time>2023-05-24T10:53:38.000Z</time>
        <extensions>
          <gpxtpx:TrackPointExtension xmlns:gpxtpx="http://www.garmin.com/xmlschemas/TrackPointExtension/v1">
            <gpxtpx:hr>111</gpxtpx:hr>
          </gpxtpx:TrackPointExtension>
        </extensions>
      </trkpt>
      <trkpt lat="43.17378" lon="6.16584">
        <ele>177</ele>
        <time>2023-05-24T10:53:42.000Z</time>
        <extensions>
          <gpxtpx:TrackPointExtension xmlns:gpxtpx="http://www.garmin.com/xmlschemas/TrackPointExtension/v1">
            <gpxtpx:hr>114</gpxtpx:hr>
          </gpxtpx:TrackPointExtension>
        </extensions>
      </trkpt>
      <trkpt lat="43.17379" lon="6.16587">
        <ele>177.39999389648</ele>
        <time>2023-05-24T10:53:43.000Z</time>
        <extensions>
          <gpxtpx:TrackPointExtension xmlns:gpxtpx="http://www.garmin.com/xmlschemas/TrackPointExtension/v1">
            <gpxtpx:hr>114</gpxtpx:hr>
          </gpxtpx:TrackPointExtension>
        </extensions>
      </trkpt>
      <trkpt lat="43.17382" lon="6.16603">
        <ele>178.19999694824</ele>
        <time>2023-05-24T10:53:48.000Z</time>
        <extensions>
          <gpxtpx:TrackPointExtension xmlns:gpxtpx="http://www.garmin.com/xmlschemas/TrackPointExtension/v1">
            <gpxtpx:hr>112</gpxtpx:hr>
          </gpxtpx:TrackPointExtension>
        </extensions>
      </trkpt>
      <trkpt lat="43.1738" lon="6.16616">
        <ele>179</ele>
        <time>2023-05-24T10:53:51.000Z</time>
        <extensions>
          <gpxtpx:TrackPointExtension xmlns:gpxtpx="http://www.garmin.com/xmlschemas/TrackPointExtension/v1">
            <gpxtpx:hr>117</gpxtpx:hr>
          </gpxtpx:TrackPointExtension>
        </extensions>
      </trkpt>
      <trkpt lat="43.17377" lon="6.16625">
        <ele>178.80000305176</ele>
        <time>2023-05-24T10:53:53.000Z</time>
        <extensions>
          <gpxtpx:TrackPointExtension xmlns:gpxtpx="http://www.garmin.com/xmlschemas/TrackPointExtension/v1">
            <gpxtpx:hr>117</gpxtpx:hr>
          </gpxtpx:TrackPointExtension>
        </extensions>
      </trkpt>
      <trkpt lat="43.17362" lon="6.16658">
        <ele>179</ele>
        <time>2023-05-24T10:54:01.000Z</time>
        <extensions>
          <gpxtpx:TrackPointExtension xmlns:gpxtpx="http://www.garmin.com/xmlschemas/TrackPointExtension/v1">
            <gpxtpx:hr>119</gpxtpx:hr>
          </gpxtpx:TrackPointExtension>
        </extensions>
      </trkpt>
      <trkpt lat="43.17357" lon="6.16672">
        <ele>180.39999389648</ele>
        <time>2023-05-24T10:54:05.000Z</time>
        <extensions>
          <gpxtpx:TrackPointExtension xmlns:gpxtpx="http://www.garmin.com/xmlschemas/TrackPointExtension/v1">
            <gpxtpx:hr>122</gpxtpx:hr>
          </gpxtpx:TrackPointExtension>
        </extensions>
      </trkpt>
      <trkpt lat="43.17355" lon="6.16679">
        <ele>181.19999694824</ele>
        <time>2023-05-24T10:54:07.000Z</time>
        <extensions>
          <gpxtpx:TrackPointExtension xmlns:gpxtpx="http://www.garmin.com/xmlschemas/TrackPointExtension/v1">
            <gpxtpx:hr>121</gpxtpx:hr>
          </gpxtpx:TrackPointExtension>
        </extensions>
      </trkpt>
      <trkpt lat="43.17355" lon="6.16683">
        <ele>181.60000610352</ele>
        <time>2023-05-24T10:54:08.000Z</time>
        <extensions>
          <gpxtpx:TrackPointExtension xmlns:gpxtpx="http://www.garmin.com/xmlschemas/TrackPointExtension/v1">
            <gpxtpx:hr>118</gpxtpx:hr>
          </gpxtpx:TrackPointExtension>
        </extensions>
      </trkpt>
      <trkpt lat="43.17355" lon="6.16686">
        <ele>182</ele>
        <time>2023-05-24T10:54:09.000Z</time>
        <extensions>
          <gpxtpx:TrackPointExtension xmlns:gpxtpx="http://www.garmin.com/xmlschemas/TrackPointExtension/v1">
            <gpxtpx:hr>121</gpxtpx:hr>
          </gpxtpx:TrackPointExtension>
        </extensions>
      </trkpt>
      <trkpt lat="43.17355" lon="6.1669">
        <ele>182.19999694824</ele>
        <time>2023-05-24T10:54:10.000Z</time>
        <extensions>
          <gpxtpx:TrackPointExtension xmlns:gpxtpx="http://www.garmin.com/xmlschemas/TrackPointExtension/v1">
            <gpxtpx:hr>128</gpxtpx:hr>
          </gpxtpx:TrackPointExtension>
        </extensions>
      </trkpt>
      <trkpt lat="43.17356" lon="6.16693">
        <ele>182.39999389648</ele>
        <time>2023-05-24T10:54:11.000Z</time>
        <extensions>
          <gpxtpx:TrackPointExtension xmlns:gpxtpx="http://www.garmin.com/xmlschemas/TrackPointExtension/v1">
            <gpxtpx:hr>127</gpxtpx:hr>
          </gpxtpx:TrackPointExtension>
        </extensions>
      </trkpt>
      <trkpt lat="43.17357" lon="6.16696">
        <ele>182.60000610352</ele>
        <time>2023-05-24T10:54:12.000Z</time>
        <extensions>
          <gpxtpx:TrackPointExtension xmlns:gpxtpx="http://www.garmin.com/xmlschemas/TrackPointExtension/v1">
            <gpxtpx:hr>127</gpxtpx:hr>
          </gpxtpx:TrackPointExtension>
        </extensions>
      </trkpt>
      <trkpt lat="43.17358" lon="6.16707">
        <ele>183.39999389648</ele>
        <time>2023-05-24T10:54:15.000Z</time>
        <extensions>
          <gpxtpx:TrackPointExtension xmlns:gpxtpx="http://www.garmin.com/xmlschemas/TrackPointExtension/v1">
            <gpxtpx:hr>130</gpxtpx:hr>
          </gpxtpx:TrackPointExtension>
        </extensions>
      </trkpt>
      <trkpt lat="43.17358" lon="6.16713">
        <ele>183.80000305176</ele>
        <time>2023-05-24T10:54:17.000Z</time>
        <extensions>
          <gpxtpx:TrackPointExtension xmlns:gpxtpx="http://www.garmin.com/xmlschemas/TrackPointExtension/v1">
            <gpxtpx:hr>126</gpxtpx:hr>
          </gpxtpx:TrackPointExtension>
        </extensions>
      </trkpt>
      <trkpt lat="43.17359" lon="6.1672">
        <ele>184.19999694824</ele>
        <time>2023-05-24T10:54:19.000Z</time>
        <extensions>
          <gpxtpx:TrackPointExtension xmlns:gpxtpx="http://www.garmin.com/xmlschemas/TrackPointExtension/v1">
            <gpxtpx:hr>127</gpxtpx:hr>
          </gpxtpx:TrackPointExtension>
        </extensions>
      </trkpt>
      <trkpt lat="43.17358" lon="6.1674">
        <ele>186.39999389648</ele>
        <time>2023-05-24T10:54:25.000Z</time>
        <extensions>
          <gpxtpx:TrackPointExtension xmlns:gpxtpx="http://www.garmin.com/xmlschemas/TrackPointExtension/v1">
            <gpxtpx:hr>130</gpxtpx:hr>
          </gpxtpx:TrackPointExtension>
        </extensions>
      </trkpt>
      <trkpt lat="43.17358" lon="6.16752">
        <ele>187.80000305176</ele>
        <time>2023-05-24T10:54:28.000Z</time>
        <extensions>
          <gpxtpx:TrackPointExtension xmlns:gpxtpx="http://www.garmin.com/xmlschemas/TrackPointExtension/v1">
            <gpxtpx:hr>130</gpxtpx:hr>
          </gpxtpx:TrackPointExtension>
        </extensions>
      </trkpt>
      <trkpt lat="43.17358" lon="6.1676">
        <ele>188.39999389648</ele>
        <time>2023-05-24T10:54:30.000Z</time>
        <extensions>
          <gpxtpx:TrackPointExtension xmlns:gpxtpx="http://www.garmin.com/xmlschemas/TrackPointExtension/v1">
            <gpxtpx:hr>127</gpxtpx:hr>
          </gpxtpx:TrackPointExtension>
        </extensions>
      </trkpt>
      <trkpt lat="43.17359" lon="6.16769">
        <ele>189.19999694824</ele>
        <time>2023-05-24T10:54:33.000Z</time>
        <extensions>
          <gpxtpx:TrackPointExtension xmlns:gpxtpx="http://www.garmin.com/xmlschemas/TrackPointExtension/v1">
            <gpxtpx:hr>124</gpxtpx:hr>
          </gpxtpx:TrackPointExtension>
        </extensions>
      </trkpt>
      <trkpt lat="43.17359" lon="6.16772">
        <ele>189.80000305176</ele>
        <time>2023-05-24T10:54:34.000Z</time>
        <extensions>
          <gpxtpx:TrackPointExtension xmlns:gpxtpx="http://www.garmin.com/xmlschemas/TrackPointExtension/v1">
            <gpxtpx:hr>126</gpxtpx:hr>
          </gpxtpx:TrackPointExtension>
        </extensions>
      </trkpt>
      <trkpt lat="43.1736" lon="6.16777">
        <ele>191</ele>
        <time>2023-05-24T10:54:36.000Z</time>
        <extensions>
          <gpxtpx:TrackPointExtension xmlns:gpxtpx="http://www.garmin.com/xmlschemas/TrackPointExtension/v1">
            <gpxtpx:hr>135</gpxtpx:hr>
          </gpxtpx:TrackPointExtension>
        </extensions>
      </trkpt>
      <trkpt lat="43.17361" lon="6.16779">
        <ele>191.39999389648</ele>
        <time>2023-05-24T10:54:37.000Z</time>
        <extensions>
          <gpxtpx:TrackPointExtension xmlns:gpxtpx="http://www.garmin.com/xmlschemas/TrackPointExtension/v1">
            <gpxtpx:hr>135</gpxtpx:hr>
          </gpxtpx:TrackPointExtension>
        </extensions>
      </trkpt>
      <trkpt lat="43.17364" lon="6.16784">
        <ele>192.39999389648</ele>
        <time>2023-05-24T10:54:39.000Z</time>
        <extensions>
          <gpxtpx:TrackPointExtension xmlns:gpxtpx="http://www.garmin.com/xmlschemas/TrackPointExtension/v1">
            <gpxtpx:hr>135</gpxtpx:hr>
          </gpxtpx:TrackPointExtension>
        </extensions>
      </trkpt>
      <trkpt lat="43.17367" lon="6.16794">
        <ele>193.39999389648</ele>
        <time>2023-05-24T10:54:42.000Z</time>
        <extensions>
          <gpxtpx:TrackPointExtension xmlns:gpxtpx="http://www.garmin.com/xmlschemas/TrackPointExtension/v1">
            <gpxtpx:hr>141</gpxtpx:hr>
          </gpxtpx:TrackPointExtension>
        </extensions>
      </trkpt>
      <trkpt lat="43.17368" lon="6.16798">
        <ele>194</ele>
        <time>2023-05-24T10:54:43.000Z</time>
        <extensions>
          <gpxtpx:TrackPointExtension xmlns:gpxtpx="http://www.garmin.com/xmlschemas/TrackPointExtension/v1">
            <gpxtpx:hr>140</gpxtpx:hr>
          </gpxtpx:TrackPointExtension>
        </extensions>
      </trkpt>
      <trkpt lat="43.17369" lon="6.16804">
        <ele>195.80000305176</ele>
        <time>2023-05-24T10:54:45.000Z</time>
        <extensions>
          <gpxtpx:TrackPointExtension xmlns:gpxtpx="http://www.garmin.com/xmlschemas/TrackPointExtension/v1">
            <gpxtpx:hr>138</gpxtpx:hr>
          </gpxtpx:TrackPointExtension>
        </extensions>
      </trkpt>
      <trkpt lat="43.17374" lon="6.16816">
        <ele>199.19999694824</ele>
        <time>2023-05-24T10:54:49.000Z</time>
        <extensions>
          <gpxtpx:TrackPointExtension xmlns:gpxtpx="http://www.garmin.com/xmlschemas/TrackPointExtension/v1">
            <gpxtpx:hr>142</gpxtpx:hr>
          </gpxtpx:TrackPointExtension>
        </extensions>
      </trkpt>
      <trkpt lat="43.17377" lon="6.16821">
        <ele>200.80000305176</ele>
        <time>2023-05-24T10:54:51.000Z</time>
        <extensions>
          <gpxtpx:TrackPointExtension xmlns:gpxtpx="http://www.garmin.com/xmlschemas/TrackPointExtension/v1">
            <gpxtpx:hr>139</gpxtpx:hr>
          </gpxtpx:TrackPointExtension>
        </extensions>
      </trkpt>
      <trkpt lat="43.17385" lon="6.1683">
        <ele>202.80000305176</ele>
        <time>2023-05-24T10:54:56.000Z</time>
        <extensions>
          <gpxtpx:TrackPointExtension xmlns:gpxtpx="http://www.garmin.com/xmlschemas/TrackPointExtension/v1">
            <gpxtpx:hr>141</gpxtpx:hr>
          </gpxtpx:TrackPointExtension>
        </extensions>
      </trkpt>
      <trkpt lat="43.17396" lon="6.16846">
        <ele>205.19999694824</ele>
        <time>2023-05-24T10:55:03.000Z</time>
        <extensions>
          <gpxtpx:TrackPointExtension xmlns:gpxtpx="http://www.garmin.com/xmlschemas/TrackPointExtension/v1">
            <gpxtpx:hr>138</gpxtpx:hr>
          </gpxtpx:TrackPointExtension>
        </extensions>
      </trkpt>
      <trkpt lat="43.17401" lon="6.16861">
        <ele>206.60000610352</ele>
        <time>2023-05-24T10:55:08.000Z</time>
        <extensions>
          <gpxtpx:TrackPointExtension xmlns:gpxtpx="http://www.garmin.com/xmlschemas/TrackPointExtension/v1">
            <gpxtpx:hr>138</gpxtpx:hr>
          </gpxtpx:TrackPointExtension>
        </extensions>
      </trkpt>
      <trkpt lat="43.17407" lon="6.16875">
        <ele>207.60000610352</ele>
        <time>2023-05-24T10:55:13.000Z</time>
        <extensions>
          <gpxtpx:TrackPointExtension xmlns:gpxtpx="http://www.garmin.com/xmlschemas/TrackPointExtension/v1">
            <gpxtpx:hr>141</gpxtpx:hr>
          </gpxtpx:TrackPointExtension>
        </extensions>
      </trkpt>
      <trkpt lat="43.17408" lon="6.16878">
        <ele>207.80000305176</ele>
        <time>2023-05-24T10:55:14.000Z</time>
        <extensions>
          <gpxtpx:TrackPointExtension xmlns:gpxtpx="http://www.garmin.com/xmlschemas/TrackPointExtension/v1">
            <gpxtpx:hr>141</gpxtpx:hr>
          </gpxtpx:TrackPointExtension>
        </extensions>
      </trkpt>
      <trkpt lat="43.17409" lon="6.16896">
        <ele>209.39999389648</ele>
        <time>2023-05-24T10:55:19.000Z</time>
        <extensions>
          <gpxtpx:TrackPointExtension xmlns:gpxtpx="http://www.garmin.com/xmlschemas/TrackPointExtension/v1">
            <gpxtpx:hr>141</gpxtpx:hr>
          </gpxtpx:TrackPointExtension>
        </extensions>
      </trkpt>
      <trkpt lat="43.17403" lon="6.16915">
        <ele>211.19999694824</ele>
        <time>2023-05-24T10:55:25.000Z</time>
        <extensions>
          <gpxtpx:TrackPointExtension xmlns:gpxtpx="http://www.garmin.com/xmlschemas/TrackPointExtension/v1">
            <gpxtpx:hr>142</gpxtpx:hr>
          </gpxtpx:TrackPointExtension>
        </extensions>
      </trkpt>
      <trkpt lat="43.17396" lon="6.16933">
        <ele>212.39999389648</ele>
        <time>2023-05-24T10:55:32.000Z</time>
        <extensions>
          <gpxtpx:TrackPointExtension xmlns:gpxtpx="http://www.garmin.com/xmlschemas/TrackPointExtension/v1">
            <gpxtpx:hr>142</gpxtpx:hr>
          </gpxtpx:TrackPointExtension>
        </extensions>
      </trkpt>
      <trkpt lat="43.17383" lon="6.16958">
        <ele>215.80000305176</ele>
        <time>2023-05-24T10:55:42.000Z</time>
        <extensions>
          <gpxtpx:TrackPointExtension xmlns:gpxtpx="http://www.garmin.com/xmlschemas/TrackPointExtension/v1">
            <gpxtpx:hr>142</gpxtpx:hr>
          </gpxtpx:TrackPointExtension>
        </extensions>
      </trkpt>
      <trkpt lat="43.17374" lon="6.16976">
        <ele>217.60000610352</ele>
        <time>2023-05-24T10:55:49.000Z</time>
        <extensions>
          <gpxtpx:TrackPointExtension xmlns:gpxtpx="http://www.garmin.com/xmlschemas/TrackPointExtension/v1">
            <gpxtpx:hr>143</gpxtpx:hr>
          </gpxtpx:TrackPointExtension>
        </extensions>
      </trkpt>
      <trkpt lat="43.17372" lon="6.16993">
        <ele>219</ele>
        <time>2023-05-24T10:55:55.000Z</time>
        <extensions>
          <gpxtpx:TrackPointExtension xmlns:gpxtpx="http://www.garmin.com/xmlschemas/TrackPointExtension/v1">
            <gpxtpx:hr>142</gpxtpx:hr>
          </gpxtpx:TrackPointExtension>
        </extensions>
      </trkpt>
      <trkpt lat="43.17374" lon="6.17014">
        <ele>220.39999389648</ele>
        <time>2023-05-24T10:56:02.000Z</time>
        <extensions>
          <gpxtpx:TrackPointExtension xmlns:gpxtpx="http://www.garmin.com/xmlschemas/TrackPointExtension/v1">
            <gpxtpx:hr>142</gpxtpx:hr>
          </gpxtpx:TrackPointExtension>
        </extensions>
      </trkpt>
      <trkpt lat="43.17372" lon="6.17027">
        <ele>221.80000305176</ele>
        <time>2023-05-24T10:56:06.000Z</time>
        <extensions>
          <gpxtpx:TrackPointExtension xmlns:gpxtpx="http://www.garmin.com/xmlschemas/TrackPointExtension/v1">
            <gpxtpx:hr>141</gpxtpx:hr>
          </gpxtpx:TrackPointExtension>
        </extensions>
      </trkpt>
      <trkpt lat="43.17373" lon="6.17034">
        <ele>223</ele>
        <time>2023-05-24T10:56:08.000Z</time>
        <extensions>
          <gpxtpx:TrackPointExtension xmlns:gpxtpx="http://www.garmin.com/xmlschemas/TrackPointExtension/v1">
            <gpxtpx:hr>145</gpxtpx:hr>
          </gpxtpx:TrackPointExtension>
        </extensions>
      </trkpt>
      <trkpt lat="43.17374" lon="6.17041">
        <ele>224</ele>
        <time>2023-05-24T10:56:10.000Z</time>
        <extensions>
          <gpxtpx:TrackPointExtension xmlns:gpxtpx="http://www.garmin.com/xmlschemas/TrackPointExtension/v1">
            <gpxtpx:hr>148</gpxtpx:hr>
          </gpxtpx:TrackPointExtension>
        </extensions>
      </trkpt>
      <trkpt lat="43.17375" lon="6.17048">
        <ele>224.60000610352</ele>
        <time>2023-05-24T10:56:12.000Z</time>
        <extensions>
          <gpxtpx:TrackPointExtension xmlns:gpxtpx="http://www.garmin.com/xmlschemas/TrackPointExtension/v1">
            <gpxtpx:hr>146</gpxtpx:hr>
          </gpxtpx:TrackPointExtension>
        </extensions>
      </trkpt>
      <trkpt lat="43.17378" lon="6.17057">
        <ele>226</ele>
        <time>2023-05-24T10:56:15.000Z</time>
        <extensions>
          <gpxtpx:TrackPointExtension xmlns:gpxtpx="http://www.garmin.com/xmlschemas/TrackPointExtension/v1">
            <gpxtpx:hr>143</gpxtpx:hr>
          </gpxtpx:TrackPointExtension>
        </extensions>
      </trkpt>
      <trkpt lat="43.17384" lon="6.1707">
        <ele>227.19999694824</ele>
        <time>2023-05-24T10:56:19.000Z</time>
        <extensions>
          <gpxtpx:TrackPointExtension xmlns:gpxtpx="http://www.garmin.com/xmlschemas/TrackPointExtension/v1">
            <gpxtpx:hr>142</gpxtpx:hr>
          </gpxtpx:TrackPointExtension>
        </extensions>
      </trkpt>
      <trkpt lat="43.1739" lon="6.17082">
        <ele>228.39999389648</ele>
        <time>2023-05-24T10:56:23.000Z</time>
        <extensions>
          <gpxtpx:TrackPointExtension xmlns:gpxtpx="http://www.garmin.com/xmlschemas/TrackPointExtension/v1">
            <gpxtpx:hr>146</gpxtpx:hr>
          </gpxtpx:TrackPointExtension>
        </extensions>
      </trkpt>
      <trkpt lat="43.17392" lon="6.1709">
        <ele>229.19999694824</ele>
        <time>2023-05-24T10:56:25.000Z</time>
        <extensions>
          <gpxtpx:TrackPointExtension xmlns:gpxtpx="http://www.garmin.com/xmlschemas/TrackPointExtension/v1">
            <gpxtpx:hr>143</gpxtpx:hr>
          </gpxtpx:TrackPointExtension>
        </extensions>
      </trkpt>
      <trkpt lat="43.17393" lon="6.17104">
        <ele>230.80000305176</ele>
        <time>2023-05-24T10:56:29.000Z</time>
        <extensions>
          <gpxtpx:TrackPointExtension xmlns:gpxtpx="http://www.garmin.com/xmlschemas/TrackPointExtension/v1">
            <gpxtpx:hr>140</gpxtpx:hr>
          </gpxtpx:TrackPointExtension>
        </extensions>
      </trkpt>
      <trkpt lat="43.17393" lon="6.17108">
        <ele>231.39999389648</ele>
        <time>2023-05-24T10:56:30.000Z</time>
        <extensions>
          <gpxtpx:TrackPointExtension xmlns:gpxtpx="http://www.garmin.com/xmlschemas/TrackPointExtension/v1">
            <gpxtpx:hr>140</gpxtpx:hr>
          </gpxtpx:TrackPointExtension>
        </extensions>
      </trkpt>
      <trkpt lat="43.17393" lon="6.17112">
        <ele>231.80000305176</ele>
        <time>2023-05-24T10:56:31.000Z</time>
        <extensions>
          <gpxtpx:TrackPointExtension xmlns:gpxtpx="http://www.garmin.com/xmlschemas/TrackPointExtension/v1">
            <gpxtpx:hr>144</gpxtpx:hr>
          </gpxtpx:TrackPointExtension>
        </extensions>
      </trkpt>
      <trkpt lat="43.17394" lon="6.17119">
        <ele>232.60000610352</ele>
        <time>2023-05-24T10:56:33.000Z</time>
        <extensions>
          <gpxtpx:TrackPointExtension xmlns:gpxtpx="http://www.garmin.com/xmlschemas/TrackPointExtension/v1">
            <gpxtpx:hr>141</gpxtpx:hr>
          </gpxtpx:TrackPointExtension>
        </extensions>
      </trkpt>
      <trkpt lat="43.17396" lon="6.17131">
        <ele>233.19999694824</ele>
        <time>2023-05-24T10:56:36.000Z</time>
        <extensions>
          <gpxtpx:TrackPointExtension xmlns:gpxtpx="http://www.garmin.com/xmlschemas/TrackPointExtension/v1">
            <gpxtpx:hr>141</gpxtpx:hr>
          </gpxtpx:TrackPointExtension>
        </extensions>
      </trkpt>
      <trkpt lat="43.17394" lon="6.17154">
        <ele>235.80000305176</ele>
        <time>2023-05-24T10:56:42.000Z</time>
        <extensions>
          <gpxtpx:TrackPointExtension xmlns:gpxtpx="http://www.garmin.com/xmlschemas/TrackPointExtension/v1">
            <gpxtpx:hr>141</gpxtpx:hr>
          </gpxtpx:TrackPointExtension>
        </extensions>
      </trkpt>
      <trkpt lat="43.17394" lon="6.17161">
        <ele>236.60000610352</ele>
        <time>2023-05-24T10:56:44.000Z</time>
        <extensions>
          <gpxtpx:TrackPointExtension xmlns:gpxtpx="http://www.garmin.com/xmlschemas/TrackPointExtension/v1">
            <gpxtpx:hr>141</gpxtpx:hr>
          </gpxtpx:TrackPointExtension>
        </extensions>
      </trkpt>
      <trkpt lat="43.17396" lon="6.17169">
        <ele>238.39999389648</ele>
        <time>2023-05-24T10:56:47.000Z</time>
        <extensions>
          <gpxtpx:TrackPointExtension xmlns:gpxtpx="http://www.garmin.com/xmlschemas/TrackPointExtension/v1">
            <gpxtpx:hr>139</gpxtpx:hr>
          </gpxtpx:TrackPointExtension>
        </extensions>
      </trkpt>
      <trkpt lat="43.17402" lon="6.17178">
        <ele>240.80000305176</ele>
        <time>2023-05-24T10:56:52.000Z</time>
        <extensions>
          <gpxtpx:TrackPointExtension xmlns:gpxtpx="http://www.garmin.com/xmlschemas/TrackPointExtension/v1">
            <gpxtpx:hr>139</gpxtpx:hr>
          </gpxtpx:TrackPointExtension>
        </extensions>
      </trkpt>
      <trkpt lat="43.17406" lon="6.17184">
        <ele>242.60000610352</ele>
        <time>2023-05-24T10:56:55.000Z</time>
        <extensions>
          <gpxtpx:TrackPointExtension xmlns:gpxtpx="http://www.garmin.com/xmlschemas/TrackPointExtension/v1">
            <gpxtpx:hr>146</gpxtpx:hr>
          </gpxtpx:TrackPointExtension>
        </extensions>
      </trkpt>
      <trkpt lat="43.17407" lon="6.17186">
        <ele>243.19999694824</ele>
        <time>2023-05-24T10:56:56.000Z</time>
        <extensions>
          <gpxtpx:TrackPointExtension xmlns:gpxtpx="http://www.garmin.com/xmlschemas/TrackPointExtension/v1">
            <gpxtpx:hr>145</gpxtpx:hr>
          </gpxtpx:TrackPointExtension>
        </extensions>
      </trkpt>
      <trkpt lat="43.1741" lon="6.1719">
        <ele>244.19999694824</ele>
        <time>2023-05-24T10:56:58.000Z</time>
        <extensions>
          <gpxtpx:TrackPointExtension xmlns:gpxtpx="http://www.garmin.com/xmlschemas/TrackPointExtension/v1">
            <gpxtpx:hr>142</gpxtpx:hr>
          </gpxtpx:TrackPointExtension>
        </extensions>
      </trkpt>
      <trkpt lat="43.17411" lon="6.17192">
        <ele>244.60000610352</ele>
        <time>2023-05-24T10:56:59.000Z</time>
        <extensions>
          <gpxtpx:TrackPointExtension xmlns:gpxtpx="http://www.garmin.com/xmlschemas/TrackPointExtension/v1">
            <gpxtpx:hr>145</gpxtpx:hr>
          </gpxtpx:TrackPointExtension>
        </extensions>
      </trkpt>
      <trkpt lat="43.17417" lon="6.17199">
        <ele>246.39999389648</ele>
        <time>2023-05-24T10:57:03.000Z</time>
        <extensions>
          <gpxtpx:TrackPointExtension xmlns:gpxtpx="http://www.garmin.com/xmlschemas/TrackPointExtension/v1">
            <gpxtpx:hr>151</gpxtpx:hr>
          </gpxtpx:TrackPointExtension>
        </extensions>
      </trkpt>
      <trkpt lat="43.17419" lon="6.17201">
        <ele>246.80000305176</ele>
        <time>2023-05-24T10:57:04.000Z</time>
        <extensions>
          <gpxtpx:TrackPointExtension xmlns:gpxtpx="http://www.garmin.com/xmlschemas/TrackPointExtension/v1">
            <gpxtpx:hr>149</gpxtpx:hr>
          </gpxtpx:TrackPointExtension>
        </extensions>
      </trkpt>
      <trkpt lat="43.17422" lon="6.17208">
        <ele>248.60000610352</ele>
        <time>2023-05-24T10:57:07.000Z</time>
        <extensions>
          <gpxtpx:TrackPointExtension xmlns:gpxtpx="http://www.garmin.com/xmlschemas/TrackPointExtension/v1">
            <gpxtpx:hr>145</gpxtpx:hr>
          </gpxtpx:TrackPointExtension>
        </extensions>
      </trkpt>
      <trkpt lat="43.17424" lon="6.17212">
        <ele>249.60000610352</ele>
        <time>2023-05-24T10:57:09.000Z</time>
        <extensions>
          <gpxtpx:TrackPointExtension xmlns:gpxtpx="http://www.garmin.com/xmlschemas/TrackPointExtension/v1">
            <gpxtpx:hr>141</gpxtpx:hr>
          </gpxtpx:TrackPointExtension>
        </extensions>
      </trkpt>
      <trkpt lat="43.17425" lon="6.17214">
        <ele>250.19999694824</ele>
        <time>2023-05-24T10:57:10.000Z</time>
        <extensions>
          <gpxtpx:TrackPointExtension xmlns:gpxtpx="http://www.garmin.com/xmlschemas/TrackPointExtension/v1">
            <gpxtpx:hr>138</gpxtpx:hr>
          </gpxtpx:TrackPointExtension>
        </extensions>
      </trkpt>
      <trkpt lat="43.17426" lon="6.17216">
        <ele>250.60000610352</ele>
        <time>2023-05-24T10:57:11.000Z</time>
        <extensions>
          <gpxtpx:TrackPointExtension xmlns:gpxtpx="http://www.garmin.com/xmlschemas/TrackPointExtension/v1">
            <gpxtpx:hr>140</gpxtpx:hr>
          </gpxtpx:TrackPointExtension>
        </extensions>
      </trkpt>
      <trkpt lat="43.17428" lon="6.17218">
        <ele>251.19999694824</ele>
        <time>2023-05-24T10:57:12.000Z</time>
        <extensions>
          <gpxtpx:TrackPointExtension xmlns:gpxtpx="http://www.garmin.com/xmlschemas/TrackPointExtension/v1">
            <gpxtpx:hr>137</gpxtpx:hr>
          </gpxtpx:TrackPointExtension>
        </extensions>
      </trkpt>
      <trkpt lat="43.1743" lon="6.17223">
        <ele>252.19999694824</ele>
        <time>2023-05-24T10:57:14.000Z</time>
        <extensions>
          <gpxtpx:TrackPointExtension xmlns:gpxtpx="http://www.garmin.com/xmlschemas/TrackPointExtension/v1">
            <gpxtpx:hr>136</gpxtpx:hr>
          </gpxtpx:TrackPointExtension>
        </extensions>
      </trkpt>
      <trkpt lat="43.17432" lon="6.17228">
        <ele>253.19999694824</ele>
        <time>2023-05-24T10:57:16.000Z</time>
        <extensions>
          <gpxtpx:TrackPointExtension xmlns:gpxtpx="http://www.garmin.com/xmlschemas/TrackPointExtension/v1">
            <gpxtpx:hr>132</gpxtpx:hr>
          </gpxtpx:TrackPointExtension>
        </extensions>
      </trkpt>
      <trkpt lat="43.17433" lon="6.17229">
        <ele>253.60000610352</ele>
        <time>2023-05-24T10:57:17.000Z</time>
        <extensions>
          <gpxtpx:TrackPointExtension xmlns:gpxtpx="http://www.garmin.com/xmlschemas/TrackPointExtension/v1">
            <gpxtpx:hr>136</gpxtpx:hr>
          </gpxtpx:TrackPointExtension>
        </extensions>
      </trkpt>
      <trkpt lat="43.17434" lon="6.17231">
        <ele>253.80000305176</ele>
        <time>2023-05-24T10:57:18.000Z</time>
        <extensions>
          <gpxtpx:TrackPointExtension xmlns:gpxtpx="http://www.garmin.com/xmlschemas/TrackPointExtension/v1">
            <gpxtpx:hr>138</gpxtpx:hr>
          </gpxtpx:TrackPointExtension>
        </extensions>
      </trkpt>
      <trkpt lat="43.17434" lon="6.17233">
        <ele>254.19999694824</ele>
        <time>2023-05-24T10:57:19.000Z</time>
        <extensions>
          <gpxtpx:TrackPointExtension xmlns:gpxtpx="http://www.garmin.com/xmlschemas/TrackPointExtension/v1">
            <gpxtpx:hr>141</gpxtpx:hr>
          </gpxtpx:TrackPointExtension>
        </extensions>
      </trkpt>
      <trkpt lat="43.17434" lon="6.17235">
        <ele>254.60000610352</ele>
        <time>2023-05-24T10:57:20.000Z</time>
        <extensions>
          <gpxtpx:TrackPointExtension xmlns:gpxtpx="http://www.garmin.com/xmlschemas/TrackPointExtension/v1">
            <gpxtpx:hr>142</gpxtpx:hr>
          </gpxtpx:TrackPointExtension>
        </extensions>
      </trkpt>
      <trkpt lat="43.17434" lon="6.17241">
        <ele>256</ele>
        <time>2023-05-24T10:57:23.000Z</time>
        <extensions>
          <gpxtpx:TrackPointExtension xmlns:gpxtpx="http://www.garmin.com/xmlschemas/TrackPointExtension/v1">
            <gpxtpx:hr>145</gpxtpx:hr>
          </gpxtpx:TrackPointExtension>
        </extensions>
      </trkpt>
      <trkpt lat="43.17434" lon="6.17249">
        <ele>257.20001220703</ele>
        <time>2023-05-24T10:57:26.000Z</time>
        <extensions>
          <gpxtpx:TrackPointExtension xmlns:gpxtpx="http://www.garmin.com/xmlschemas/TrackPointExtension/v1">
            <gpxtpx:hr>145</gpxtpx:hr>
          </gpxtpx:TrackPointExtension>
        </extensions>
      </trkpt>
      <trkpt lat="43.17435" lon="6.17261">
        <ele>258.79998779297</ele>
        <time>2023-05-24T10:57:31.000Z</time>
        <extensions>
          <gpxtpx:TrackPointExtension xmlns:gpxtpx="http://www.garmin.com/xmlschemas/TrackPointExtension/v1">
            <gpxtpx:hr>146</gpxtpx:hr>
          </gpxtpx:TrackPointExtension>
        </extensions>
      </trkpt>
      <trkpt lat="43.17436" lon="6.17266">
        <ele>259.39999389648</ele>
        <time>2023-05-24T10:57:33.000Z</time>
        <extensions>
          <gpxtpx:TrackPointExtension xmlns:gpxtpx="http://www.garmin.com/xmlschemas/TrackPointExtension/v1">
            <gpxtpx:hr>149</gpxtpx:hr>
          </gpxtpx:TrackPointExtension>
        </extensions>
      </trkpt>
      <trkpt lat="43.17437" lon="6.17273">
        <ele>260.20001220703</ele>
        <time>2023-05-24T10:57:36.000Z</time>
        <extensions>
          <gpxtpx:TrackPointExtension xmlns:gpxtpx="http://www.garmin.com/xmlschemas/TrackPointExtension/v1">
            <gpxtpx:hr>150</gpxtpx:hr>
          </gpxtpx:TrackPointExtension>
        </extensions>
      </trkpt>
      <trkpt lat="43.17437" lon="6.17276">
        <ele>260.60000610352</ele>
        <time>2023-05-24T10:57:37.000Z</time>
        <extensions>
          <gpxtpx:TrackPointExtension xmlns:gpxtpx="http://www.garmin.com/xmlschemas/TrackPointExtension/v1">
            <gpxtpx:hr>149</gpxtpx:hr>
          </gpxtpx:TrackPointExtension>
        </extensions>
      </trkpt>
      <trkpt lat="43.17436" lon="6.17281">
        <ele>261.20001220703</ele>
        <time>2023-05-24T10:57:40.000Z</time>
        <extensions>
          <gpxtpx:TrackPointExtension xmlns:gpxtpx="http://www.garmin.com/xmlschemas/TrackPointExtension/v1">
            <gpxtpx:hr>149</gpxtpx:hr>
          </gpxtpx:TrackPointExtension>
        </extensions>
      </trkpt>
      <trkpt lat="43.17435" lon="6.17285">
        <ele>261.79998779297</ele>
        <time>2023-05-24T10:57:42.000Z</time>
        <extensions>
          <gpxtpx:TrackPointExtension xmlns:gpxtpx="http://www.garmin.com/xmlschemas/TrackPointExtension/v1">
            <gpxtpx:hr>149</gpxtpx:hr>
          </gpxtpx:TrackPointExtension>
        </extensions>
      </trkpt>
      <trkpt lat="43.17435" lon="6.17288">
        <ele>262</ele>
        <time>2023-05-24T10:57:43.000Z</time>
        <extensions>
          <gpxtpx:TrackPointExtension xmlns:gpxtpx="http://www.garmin.com/xmlschemas/TrackPointExtension/v1">
            <gpxtpx:hr>152</gpxtpx:hr>
          </gpxtpx:TrackPointExtension>
        </extensions>
      </trkpt>
      <trkpt lat="43.17435" lon="6.1729">
        <ele>262.39999389648</ele>
        <time>2023-05-24T10:57:44.000Z</time>
        <extensions>
          <gpxtpx:TrackPointExtension xmlns:gpxtpx="http://www.garmin.com/xmlschemas/TrackPointExtension/v1">
            <gpxtpx:hr>148</gpxtpx:hr>
          </gpxtpx:TrackPointExtension>
        </extensions>
      </trkpt>
      <trkpt lat="43.17435" lon="6.17297">
        <ele>263</ele>
        <time>2023-05-24T10:57:46.000Z</time>
        <extensions>
          <gpxtpx:TrackPointExtension xmlns:gpxtpx="http://www.garmin.com/xmlschemas/TrackPointExtension/v1">
            <gpxtpx:hr>151</gpxtpx:hr>
          </gpxtpx:TrackPointExtension>
        </extensions>
      </trkpt>
      <trkpt lat="43.17434" lon="6.17302">
        <ele>263.39999389648</ele>
        <time>2023-05-24T10:57:48.000Z</time>
        <extensions>
          <gpxtpx:TrackPointExtension xmlns:gpxtpx="http://www.garmin.com/xmlschemas/TrackPointExtension/v1">
            <gpxtpx:hr>151</gpxtpx:hr>
          </gpxtpx:TrackPointExtension>
        </extensions>
      </trkpt>
      <trkpt lat="43.17428" lon="6.17319">
        <ele>264.60000610352</ele>
        <time>2023-05-24T10:57:55.000Z</time>
        <extensions>
          <gpxtpx:TrackPointExtension xmlns:gpxtpx="http://www.garmin.com/xmlschemas/TrackPointExtension/v1">
            <gpxtpx:hr>151</gpxtpx:hr>
          </gpxtpx:TrackPointExtension>
        </extensions>
      </trkpt>
      <trkpt lat="43.17425" lon="6.17323">
        <ele>265</ele>
        <time>2023-05-24T10:57:57.000Z</time>
        <extensions>
          <gpxtpx:TrackPointExtension xmlns:gpxtpx="http://www.garmin.com/xmlschemas/TrackPointExtension/v1">
            <gpxtpx:hr>155</gpxtpx:hr>
          </gpxtpx:TrackPointExtension>
        </extensions>
      </trkpt>
      <trkpt lat="43.17424" lon="6.17326">
        <ele>265</ele>
        <time>2023-05-24T10:58:00.000Z</time>
        <extensions>
          <gpxtpx:TrackPointExtension xmlns:gpxtpx="http://www.garmin.com/xmlschemas/TrackPointExtension/v1">
            <gpxtpx:hr>153</gpxtpx:hr>
          </gpxtpx:TrackPointExtension>
        </extensions>
      </trkpt>
      <trkpt lat="43.17424" lon="6.17326">
        <ele>265</ele>
        <time>2023-05-24T10:58:05.000Z</time>
        <extensions>
          <gpxtpx:TrackPointExtension xmlns:gpxtpx="http://www.garmin.com/xmlschemas/TrackPointExtension/v1">
            <gpxtpx:hr>150</gpxtpx:hr>
          </gpxtpx:TrackPointExtension>
        </extensions>
      </trkpt>
      <trkpt lat="43.17424" lon="6.17326">
        <ele>265</ele>
        <time>2023-05-24T10:58:10.000Z</time>
        <extensions>
          <gpxtpx:TrackPointExtension xmlns:gpxtpx="http://www.garmin.com/xmlschemas/TrackPointExtension/v1">
            <gpxtpx:hr>147</gpxtpx:hr>
          </gpxtpx:TrackPointExtension>
        </extensions>
      </trkpt>
      <trkpt lat="43.17424" lon="6.17326">
        <ele>265</ele>
        <time>2023-05-24T10:58:12.000Z</time>
        <extensions>
          <gpxtpx:TrackPointExtension xmlns:gpxtpx="http://www.garmin.com/xmlschemas/TrackPointExtension/v1">
            <gpxtpx:hr>146</gpxtpx:hr>
          </gpxtpx:TrackPointExtension>
        </extensions>
      </trkpt>
      <trkpt lat="43.17424" lon="6.17326">
        <ele>265</ele>
        <time>2023-05-24T10:58:34.000Z</time>
        <extensions>
          <gpxtpx:TrackPointExtension xmlns:gpxtpx="http://www.garmin.com/xmlschemas/TrackPointExtension/v1">
            <gpxtpx:hr>143</gpxtpx:hr>
          </gpxtpx:TrackPointExtension>
        </extensions>
      </trkpt>
      <trkpt lat="43.17424" lon="6.17326">
        <ele>265</ele>
        <time>2023-05-24T10:58:35.000Z</time>
        <extensions>
          <gpxtpx:TrackPointExtension xmlns:gpxtpx="http://www.garmin.com/xmlschemas/TrackPointExtension/v1">
            <gpxtpx:hr>143</gpxtpx:hr>
          </gpxtpx:TrackPointExtension>
        </extensions>
      </trkpt>
      <trkpt lat="43.17424" lon="6.17326">
        <ele>265</ele>
        <time>2023-05-24T10:58:39.000Z</time>
        <extensions>
          <gpxtpx:TrackPointExtension xmlns:gpxtpx="http://www.garmin.com/xmlschemas/TrackPointExtension/v1">
            <gpxtpx:hr>140</gpxtpx:hr>
          </gpxtpx:TrackPointExtension>
        </extensions>
      </trkpt>
      <trkpt lat="43.17424" lon="6.17326">
        <ele>265</ele>
        <time>2023-05-24T10:58:45.000Z</time>
        <extensions>
          <gpxtpx:TrackPointExtension xmlns:gpxtpx="http://www.garmin.com/xmlschemas/TrackPointExtension/v1">
            <gpxtpx:hr>137</gpxtpx:hr>
          </gpxtpx:TrackPointExtension>
        </extensions>
      </trkpt>
      <trkpt lat="43.17424" lon="6.17326">
        <ele>265</ele>
        <time>2023-05-24T10:58:52.000Z</time>
        <extensions>
          <gpxtpx:TrackPointExtension xmlns:gpxtpx="http://www.garmin.com/xmlschemas/TrackPointExtension/v1">
            <gpxtpx:hr>135</gpxtpx:hr>
          </gpxtpx:TrackPointExtension>
        </extensions>
      </trkpt>
      <trkpt lat="43.17424" lon="6.17326">
        <ele>265</ele>
        <time>2023-05-24T10:59:03.000Z</time>
        <extensions>
          <gpxtpx:TrackPointExtension xmlns:gpxtpx="http://www.garmin.com/xmlschemas/TrackPointExtension/v1">
            <gpxtpx:hr>132</gpxtpx:hr>
          </gpxtpx:TrackPointExtension>
        </extensions>
      </trkpt>
      <trkpt lat="43.17424" lon="6.17326">
        <ele>265</ele>
        <time>2023-05-24T10:59:05.000Z</time>
        <extensions>
          <gpxtpx:TrackPointExtension xmlns:gpxtpx="http://www.garmin.com/xmlschemas/TrackPointExtension/v1">
            <gpxtpx:hr>132</gpxtpx:hr>
          </gpxtpx:TrackPointExtension>
        </extensions>
      </trkpt>
      <trkpt lat="43.17424" lon="6.17326">
        <ele>265</ele>
        <time>2023-05-24T10:59:14.000Z</time>
        <extensions>
          <gpxtpx:TrackPointExtension xmlns:gpxtpx="http://www.garmin.com/xmlschemas/TrackPointExtension/v1">
            <gpxtpx:hr>130</gpxtpx:hr>
          </gpxtpx:TrackPointExtension>
        </extensions>
      </trkpt>
      <trkpt lat="43.17424" lon="6.17326">
        <ele>265</ele>
        <time>2023-05-24T10:59:31.000Z</time>
        <extensions>
          <gpxtpx:TrackPointExtension xmlns:gpxtpx="http://www.garmin.com/xmlschemas/TrackPointExtension/v1">
            <gpxtpx:hr>129</gpxtpx:hr>
          </gpxtpx:TrackPointExtension>
        </extensions>
      </trkpt>
      <trkpt lat="43.17424" lon="6.17326">
        <ele>265</ele>
        <time>2023-05-24T10:59:41.000Z</time>
        <extensions>
          <gpxtpx:TrackPointExtension xmlns:gpxtpx="http://www.garmin.com/xmlschemas/TrackPointExtension/v1">
            <gpxtpx:hr>129</gpxtpx:hr>
          </gpxtpx:TrackPointExtension>
        </extensions>
      </trkpt>
      <trkpt lat="43.17425" lon="6.17326">
        <ele>265</ele>
        <time>2023-05-24T10:59:50.000Z</time>
        <extensions>
          <gpxtpx:TrackPointExtension xmlns:gpxtpx="http://www.garmin.com/xmlschemas/TrackPointExtension/v1">
            <gpxtpx:hr>129</gpxtpx:hr>
          </gpxtpx:TrackPointExtension>
        </extensions>
      </trkpt>
      <trkpt lat="43.17425" lon="6.17327">
        <ele>265.20001220703</ele>
        <time>2023-05-24T10:59:52.000Z</time>
        <extensions>
          <gpxtpx:TrackPointExtension xmlns:gpxtpx="http://www.garmin.com/xmlschemas/TrackPointExtension/v1">
            <gpxtpx:hr>129</gpxtpx:hr>
          </gpxtpx:TrackPointExtension>
        </extensions>
      </trkpt>
      <trkpt lat="43.17427" lon="6.17333">
        <ele>265.39999389648</ele>
        <time>2023-05-24T10:59:55.000Z</time>
        <extensions>
          <gpxtpx:TrackPointExtension xmlns:gpxtpx="http://www.garmin.com/xmlschemas/TrackPointExtension/v1">
            <gpxtpx:hr>129</gpxtpx:hr>
          </gpxtpx:TrackPointExtension>
        </extensions>
      </trkpt>
      <trkpt lat="43.17434" lon="6.17341">
        <ele>265.60000610352</ele>
        <time>2023-05-24T10:59:59.000Z</time>
        <extensions>
          <gpxtpx:TrackPointExtension xmlns:gpxtpx="http://www.garmin.com/xmlschemas/TrackPointExtension/v1">
            <gpxtpx:hr>126</gpxtpx:hr>
          </gpxtpx:TrackPointExtension>
        </extensions>
      </trkpt>
      <trkpt lat="43.17438" lon="6.17345">
        <ele>265.39999389648</ele>
        <time>2023-05-24T11:00:01.000Z</time>
        <extensions>
          <gpxtpx:TrackPointExtension xmlns:gpxtpx="http://www.garmin.com/xmlschemas/TrackPointExtension/v1">
            <gpxtpx:hr>125</gpxtpx:hr>
          </gpxtpx:TrackPointExtension>
        </extensions>
      </trkpt>
      <trkpt lat="43.1744" lon="6.1735">
        <ele>265.39999389648</ele>
        <time>2023-05-24T11:00:03.000Z</time>
        <extensions>
          <gpxtpx:TrackPointExtension xmlns:gpxtpx="http://www.garmin.com/xmlschemas/TrackPointExtension/v1">
            <gpxtpx:hr>125</gpxtpx:hr>
          </gpxtpx:TrackPointExtension>
        </extensions>
      </trkpt>
      <trkpt lat="43.17439" lon="6.17354">
        <ele>265.60000610352</ele>
        <time>2023-05-24T11:00:05.000Z</time>
        <extensions>
          <gpxtpx:TrackPointExtension xmlns:gpxtpx="http://www.garmin.com/xmlschemas/TrackPointExtension/v1">
            <gpxtpx:hr>128</gpxtpx:hr>
          </gpxtpx:TrackPointExtension>
        </extensions>
      </trkpt>
      <trkpt lat="43.17437" lon="6.17357">
        <ele>265.79998779297</ele>
        <time>2023-05-24T11:00:07.000Z</time>
        <extensions>
          <gpxtpx:TrackPointExtension xmlns:gpxtpx="http://www.garmin.com/xmlschemas/TrackPointExtension/v1">
            <gpxtpx:hr>126</gpxtpx:hr>
          </gpxtpx:TrackPointExtension>
        </extensions>
      </trkpt>
      <trkpt lat="43.17437" lon="6.17358">
        <ele>265.79998779297</ele>
        <time>2023-05-24T11:00:09.000Z</time>
        <extensions>
          <gpxtpx:TrackPointExtension xmlns:gpxtpx="http://www.garmin.com/xmlschemas/TrackPointExtension/v1">
            <gpxtpx:hr>123</gpxtpx:hr>
          </gpxtpx:TrackPointExtension>
        </extensions>
      </trkpt>
      <trkpt lat="43.17437" lon="6.17358">
        <ele>265.79998779297</ele>
        <time>2023-05-24T11:00:12.000Z</time>
        <extensions>
          <gpxtpx:TrackPointExtension xmlns:gpxtpx="http://www.garmin.com/xmlschemas/TrackPointExtension/v1">
            <gpxtpx:hr>122</gpxtpx:hr>
          </gpxtpx:TrackPointExtension>
        </extensions>
      </trkpt>
      <trkpt lat="43.17437" lon="6.17358">
        <ele>265.79998779297</ele>
        <time>2023-05-24T11:00:33.000Z</time>
        <extensions>
          <gpxtpx:TrackPointExtension xmlns:gpxtpx="http://www.garmin.com/xmlschemas/TrackPointExtension/v1">
            <gpxtpx:hr>123</gpxtpx:hr>
          </gpxtpx:TrackPointExtension>
        </extensions>
      </trkpt>
      <trkpt lat="43.17437" lon="6.17358">
        <ele>265.79998779297</ele>
        <time>2023-05-24T11:00:38.000Z</time>
        <extensions>
          <gpxtpx:TrackPointExtension xmlns:gpxtpx="http://www.garmin.com/xmlschemas/TrackPointExtension/v1">
            <gpxtpx:hr>126</gpxtpx:hr>
          </gpxtpx:TrackPointExtension>
        </extensions>
      </trkpt>
      <trkpt lat="43.17437" lon="6.1736">
        <ele>265.60000610352</ele>
        <time>2023-05-24T11:00:39.000Z</time>
        <extensions>
          <gpxtpx:TrackPointExtension xmlns:gpxtpx="http://www.garmin.com/xmlschemas/TrackPointExtension/v1">
            <gpxtpx:hr>123</gpxtpx:hr>
          </gpxtpx:TrackPointExtension>
        </extensions>
      </trkpt>
      <trkpt lat="43.17438" lon="6.17361">
        <ele>265.60000610352</ele>
        <time>2023-05-24T11:00:40.000Z</time>
        <extensions>
          <gpxtpx:TrackPointExtension xmlns:gpxtpx="http://www.garmin.com/xmlschemas/TrackPointExtension/v1">
            <gpxtpx:hr>124</gpxtpx:hr>
          </gpxtpx:TrackPointExtension>
        </extensions>
      </trkpt>
      <trkpt lat="43.1744" lon="6.17366">
        <ele>265.39999389648</ele>
        <time>2023-05-24T11:00:42.000Z</time>
        <extensions>
          <gpxtpx:TrackPointExtension xmlns:gpxtpx="http://www.garmin.com/xmlschemas/TrackPointExtension/v1">
            <gpxtpx:hr>127</gpxtpx:hr>
          </gpxtpx:TrackPointExtension>
        </extensions>
      </trkpt>
      <trkpt lat="43.17442" lon="6.17369">
        <ele>265.20001220703</ele>
        <time>2023-05-24T11:00:43.000Z</time>
        <extensions>
          <gpxtpx:TrackPointExtension xmlns:gpxtpx="http://www.garmin.com/xmlschemas/TrackPointExtension/v1">
            <gpxtpx:hr>127</gpxtpx:hr>
          </gpxtpx:TrackPointExtension>
        </extensions>
      </trkpt>
      <trkpt lat="43.17453" lon="6.17384">
        <ele>264</ele>
        <time>2023-05-24T11:00:46.000Z</time>
        <extensions>
          <gpxtpx:TrackPointExtension xmlns:gpxtpx="http://www.garmin.com/xmlschemas/TrackPointExtension/v1">
            <gpxtpx:hr>126</gpxtpx:hr>
          </gpxtpx:TrackPointExtension>
        </extensions>
      </trkpt>
      <trkpt lat="43.17471" lon="6.17406">
        <ele>261.60000610352</ele>
        <time>2023-05-24T11:00:50.000Z</time>
        <extensions>
          <gpxtpx:TrackPointExtension xmlns:gpxtpx="http://www.garmin.com/xmlschemas/TrackPointExtension/v1">
            <gpxtpx:hr>123</gpxtpx:hr>
          </gpxtpx:TrackPointExtension>
        </extensions>
      </trkpt>
      <trkpt lat="43.17478" lon="6.17417">
        <ele>261</ele>
        <time>2023-05-24T11:00:52.000Z</time>
        <extensions>
          <gpxtpx:TrackPointExtension xmlns:gpxtpx="http://www.garmin.com/xmlschemas/TrackPointExtension/v1">
            <gpxtpx:hr>122</gpxtpx:hr>
          </gpxtpx:TrackPointExtension>
        </extensions>
      </trkpt>
      <trkpt lat="43.17485" lon="6.17428">
        <ele>260.39999389648</ele>
        <time>2023-05-24T11:00:54.000Z</time>
        <extensions>
          <gpxtpx:TrackPointExtension xmlns:gpxtpx="http://www.garmin.com/xmlschemas/TrackPointExtension/v1">
            <gpxtpx:hr>121</gpxtpx:hr>
          </gpxtpx:TrackPointExtension>
        </extensions>
      </trkpt>
      <trkpt lat="43.17498" lon="6.1745">
        <ele>259</ele>
        <time>2023-05-24T11:00:57.000Z</time>
        <extensions>
          <gpxtpx:TrackPointExtension xmlns:gpxtpx="http://www.garmin.com/xmlschemas/TrackPointExtension/v1">
            <gpxtpx:hr>120</gpxtpx:hr>
          </gpxtpx:TrackPointExtension>
        </extensions>
      </trkpt>
      <trkpt lat="43.1752" lon="6.17492">
        <ele>259</ele>
        <time>2023-05-24T11:01:02.000Z</time>
        <extensions>
          <gpxtpx:TrackPointExtension xmlns:gpxtpx="http://www.garmin.com/xmlschemas/TrackPointExtension/v1">
            <gpxtpx:hr>118</gpxtpx:hr>
          </gpxtpx:TrackPointExtension>
        </extensions>
      </trkpt>
      <trkpt lat="43.17523" lon="6.17499">
        <ele>258.79998779297</ele>
        <time>2023-05-24T11:01:03.000Z</time>
        <extensions>
          <gpxtpx:TrackPointExtension xmlns:gpxtpx="http://www.garmin.com/xmlschemas/TrackPointExtension/v1">
            <gpxtpx:hr>114</gpxtpx:hr>
          </gpxtpx:TrackPointExtension>
        </extensions>
      </trkpt>
      <trkpt lat="43.17528" lon="6.17508">
        <ele>258.60000610352</ele>
        <time>2023-05-24T11:01:05.000Z</time>
        <extensions>
          <gpxtpx:TrackPointExtension xmlns:gpxtpx="http://www.garmin.com/xmlschemas/TrackPointExtension/v1">
            <gpxtpx:hr>117</gpxtpx:hr>
          </gpxtpx:TrackPointExtension>
        </extensions>
      </trkpt>
      <trkpt lat="43.17537" lon="6.17532">
        <ele>259.79998779297</ele>
        <time>2023-05-24T11:01:11.000Z</time>
        <extensions>
          <gpxtpx:TrackPointExtension xmlns:gpxtpx="http://www.garmin.com/xmlschemas/TrackPointExtension/v1">
            <gpxtpx:hr>123</gpxtpx:hr>
          </gpxtpx:TrackPointExtension>
        </extensions>
      </trkpt>
      <trkpt lat="43.1754" lon="6.1754">
        <ele>260.60000610352</ele>
        <time>2023-05-24T11:01:13.000Z</time>
        <extensions>
          <gpxtpx:TrackPointExtension xmlns:gpxtpx="http://www.garmin.com/xmlschemas/TrackPointExtension/v1">
            <gpxtpx:hr>128</gpxtpx:hr>
          </gpxtpx:TrackPointExtension>
        </extensions>
      </trkpt>
      <trkpt lat="43.17544" lon="6.17548">
        <ele>260.79998779297</ele>
        <time>2023-05-24T11:01:15.000Z</time>
        <extensions>
          <gpxtpx:TrackPointExtension xmlns:gpxtpx="http://www.garmin.com/xmlschemas/TrackPointExtension/v1">
            <gpxtpx:hr>124</gpxtpx:hr>
          </gpxtpx:TrackPointExtension>
        </extensions>
      </trkpt>
      <trkpt lat="43.17549" lon="6.17566">
        <ele>261.79998779297</ele>
        <time>2023-05-24T11:01:19.000Z</time>
        <extensions>
          <gpxtpx:TrackPointExtension xmlns:gpxtpx="http://www.garmin.com/xmlschemas/TrackPointExtension/v1">
            <gpxtpx:hr>122</gpxtpx:hr>
          </gpxtpx:TrackPointExtension>
        </extensions>
      </trkpt>
      <trkpt lat="43.17551" lon="6.1757">
        <ele>262</ele>
        <time>2023-05-24T11:01:20.000Z</time>
        <extensions>
          <gpxtpx:TrackPointExtension xmlns:gpxtpx="http://www.garmin.com/xmlschemas/TrackPointExtension/v1">
            <gpxtpx:hr>125</gpxtpx:hr>
          </gpxtpx:TrackPointExtension>
        </extensions>
      </trkpt>
      <trkpt lat="43.17553" lon="6.17581">
        <ele>262.60000610352</ele>
        <time>2023-05-24T11:01:24.000Z</time>
        <extensions>
          <gpxtpx:TrackPointExtension xmlns:gpxtpx="http://www.garmin.com/xmlschemas/TrackPointExtension/v1">
            <gpxtpx:hr>125</gpxtpx:hr>
          </gpxtpx:TrackPointExtension>
        </extensions>
      </trkpt>
      <trkpt lat="43.17554" lon="6.17582">
        <ele>262.60000610352</ele>
        <time>2023-05-24T11:01:31.000Z</time>
        <extensions>
          <gpxtpx:TrackPointExtension xmlns:gpxtpx="http://www.garmin.com/xmlschemas/TrackPointExtension/v1">
            <gpxtpx:hr>128</gpxtpx:hr>
          </gpxtpx:TrackPointExtension>
        </extensions>
      </trkpt>
      <trkpt lat="43.17554" lon="6.17583">
        <ele>262.60000610352</ele>
        <time>2023-05-24T11:01:32.000Z</time>
        <extensions>
          <gpxtpx:TrackPointExtension xmlns:gpxtpx="http://www.garmin.com/xmlschemas/TrackPointExtension/v1">
            <gpxtpx:hr>128</gpxtpx:hr>
          </gpxtpx:TrackPointExtension>
        </extensions>
      </trkpt>
      <trkpt lat="43.1756" lon="6.176">
        <ele>263.39999389648</ele>
        <time>2023-05-24T11:01:36.000Z</time>
        <extensions>
          <gpxtpx:TrackPointExtension xmlns:gpxtpx="http://www.garmin.com/xmlschemas/TrackPointExtension/v1">
            <gpxtpx:hr>130</gpxtpx:hr>
          </gpxtpx:TrackPointExtension>
        </extensions>
      </trkpt>
      <trkpt lat="43.17573" lon="6.17633">
        <ele>262</ele>
        <time>2023-05-24T11:01:42.000Z</time>
        <extensions>
          <gpxtpx:TrackPointExtension xmlns:gpxtpx="http://www.garmin.com/xmlschemas/TrackPointExtension/v1">
            <gpxtpx:hr>131</gpxtpx:hr>
          </gpxtpx:TrackPointExtension>
        </extensions>
      </trkpt>
      <trkpt lat="43.17575" lon="6.17646">
        <ele>260.39999389648</ele>
        <time>2023-05-24T11:01:44.000Z</time>
        <extensions>
          <gpxtpx:TrackPointExtension xmlns:gpxtpx="http://www.garmin.com/xmlschemas/TrackPointExtension/v1">
            <gpxtpx:hr>129</gpxtpx:hr>
          </gpxtpx:TrackPointExtension>
        </extensions>
      </trkpt>
      <trkpt lat="43.17574" lon="6.17659">
        <ele>260</ele>
        <time>2023-05-24T11:01:46.000Z</time>
        <extensions>
          <gpxtpx:TrackPointExtension xmlns:gpxtpx="http://www.garmin.com/xmlschemas/TrackPointExtension/v1">
            <gpxtpx:hr>134</gpxtpx:hr>
          </gpxtpx:TrackPointExtension>
        </extensions>
      </trkpt>
      <trkpt lat="43.17566" lon="6.17676">
        <ele>259.39999389648</ele>
        <time>2023-05-24T11:01:49.000Z</time>
        <extensions>
          <gpxtpx:TrackPointExtension xmlns:gpxtpx="http://www.garmin.com/xmlschemas/TrackPointExtension/v1">
            <gpxtpx:hr>132</gpxtpx:hr>
          </gpxtpx:TrackPointExtension>
        </extensions>
      </trkpt>
      <trkpt lat="43.17561" lon="6.17685">
        <ele>258.39999389648</ele>
        <time>2023-05-24T11:01:51.000Z</time>
        <extensions>
          <gpxtpx:TrackPointExtension xmlns:gpxtpx="http://www.garmin.com/xmlschemas/TrackPointExtension/v1">
            <gpxtpx:hr>132</gpxtpx:hr>
          </gpxtpx:TrackPointExtension>
        </extensions>
      </trkpt>
      <trkpt lat="43.17547" lon="6.17707">
        <ele>256.20001220703</ele>
        <time>2023-05-24T11:01:56.000Z</time>
        <extensions>
          <gpxtpx:TrackPointExtension xmlns:gpxtpx="http://www.garmin.com/xmlschemas/TrackPointExtension/v1">
            <gpxtpx:hr>131</gpxtpx:hr>
          </gpxtpx:TrackPointExtension>
        </extensions>
      </trkpt>
      <trkpt lat="43.1754" lon="6.17719">
        <ele>254</ele>
        <time>2023-05-24T11:01:58.000Z</time>
        <extensions>
          <gpxtpx:TrackPointExtension xmlns:gpxtpx="http://www.garmin.com/xmlschemas/TrackPointExtension/v1">
            <gpxtpx:hr>131</gpxtpx:hr>
          </gpxtpx:TrackPointExtension>
        </extensions>
      </trkpt>
      <trkpt lat="43.17536" lon="6.17734">
        <ele>251.80000305176</ele>
        <time>2023-05-24T11:02:00.000Z</time>
        <extensions>
          <gpxtpx:TrackPointExtension xmlns:gpxtpx="http://www.garmin.com/xmlschemas/TrackPointExtension/v1">
            <gpxtpx:hr>130</gpxtpx:hr>
          </gpxtpx:TrackPointExtension>
        </extensions>
      </trkpt>
      <trkpt lat="43.1754" lon="6.17766">
        <ele>250.39999389648</ele>
        <time>2023-05-24T11:02:04.000Z</time>
        <extensions>
          <gpxtpx:TrackPointExtension xmlns:gpxtpx="http://www.garmin.com/xmlschemas/TrackPointExtension/v1">
            <gpxtpx:hr>129</gpxtpx:hr>
          </gpxtpx:TrackPointExtension>
        </extensions>
      </trkpt>
      <trkpt lat="43.1755" lon="6.17802">
        <ele>247.39999389648</ele>
        <time>2023-05-24T11:02:09.000Z</time>
        <extensions>
          <gpxtpx:TrackPointExtension xmlns:gpxtpx="http://www.garmin.com/xmlschemas/TrackPointExtension/v1">
            <gpxtpx:hr>128</gpxtpx:hr>
          </gpxtpx:TrackPointExtension>
        </extensions>
      </trkpt>
      <trkpt lat="43.17558" lon="6.17859">
        <ele>239.60000610352</ele>
        <time>2023-05-24T11:02:15.000Z</time>
        <extensions>
          <gpxtpx:TrackPointExtension xmlns:gpxtpx="http://www.garmin.com/xmlschemas/TrackPointExtension/v1">
            <gpxtpx:hr>125</gpxtpx:hr>
          </gpxtpx:TrackPointExtension>
        </extensions>
      </trkpt>
      <trkpt lat="43.17567" lon="6.17921">
        <ele>234.60000610352</ele>
        <time>2023-05-24T11:02:21.000Z</time>
        <extensions>
          <gpxtpx:TrackPointExtension xmlns:gpxtpx="http://www.garmin.com/xmlschemas/TrackPointExtension/v1">
            <gpxtpx:hr>124</gpxtpx:hr>
          </gpxtpx:TrackPointExtension>
        </extensions>
      </trkpt>
      <trkpt lat="43.17569" lon="6.17941">
        <ele>234.60000610352</ele>
        <time>2023-05-24T11:02:23.000Z</time>
        <extensions>
          <gpxtpx:TrackPointExtension xmlns:gpxtpx="http://www.garmin.com/xmlschemas/TrackPointExtension/v1">
            <gpxtpx:hr>123</gpxtpx:hr>
          </gpxtpx:TrackPointExtension>
        </extensions>
      </trkpt>
      <trkpt lat="43.17575" lon="6.17961">
        <ele>235.80000305176</ele>
        <time>2023-05-24T11:02:25.000Z</time>
        <extensions>
          <gpxtpx:TrackPointExtension xmlns:gpxtpx="http://www.garmin.com/xmlschemas/TrackPointExtension/v1">
            <gpxtpx:hr>122</gpxtpx:hr>
          </gpxtpx:TrackPointExtension>
        </extensions>
      </trkpt>
      <trkpt lat="43.17582" lon="6.17982">
        <ele>237.80000305176</ele>
        <time>2023-05-24T11:02:28.000Z</time>
        <extensions>
          <gpxtpx:TrackPointExtension xmlns:gpxtpx="http://www.garmin.com/xmlschemas/TrackPointExtension/v1">
            <gpxtpx:hr>122</gpxtpx:hr>
          </gpxtpx:TrackPointExtension>
        </extensions>
      </trkpt>
      <trkpt lat="43.17588" lon="6.18001">
        <ele>240.39999389648</ele>
        <time>2023-05-24T11:02:33.000Z</time>
        <extensions>
          <gpxtpx:TrackPointExtension xmlns:gpxtpx="http://www.garmin.com/xmlschemas/TrackPointExtension/v1">
            <gpxtpx:hr>122</gpxtpx:hr>
          </gpxtpx:TrackPointExtension>
        </extensions>
      </trkpt>
      <trkpt lat="43.17588" lon="6.18005">
        <ele>241</ele>
        <time>2023-05-24T11:02:37.000Z</time>
        <extensions>
          <gpxtpx:TrackPointExtension xmlns:gpxtpx="http://www.garmin.com/xmlschemas/TrackPointExtension/v1">
            <gpxtpx:hr>120</gpxtpx:hr>
          </gpxtpx:TrackPointExtension>
        </extensions>
      </trkpt>
      <trkpt lat="43.17588" lon="6.18005">
        <ele>241</ele>
        <time>2023-05-24T11:02:47.000Z</time>
        <extensions>
          <gpxtpx:TrackPointExtension xmlns:gpxtpx="http://www.garmin.com/xmlschemas/TrackPointExtension/v1">
            <gpxtpx:hr>119</gpxtpx:hr>
          </gpxtpx:TrackPointExtension>
        </extensions>
      </trkpt>
      <trkpt lat="43.17588" lon="6.18005">
        <ele>241</ele>
        <time>2023-05-24T11:03:00.000Z</time>
        <extensions>
          <gpxtpx:TrackPointExtension xmlns:gpxtpx="http://www.garmin.com/xmlschemas/TrackPointExtension/v1">
            <gpxtpx:hr>121</gpxtpx:hr>
          </gpxtpx:TrackPointExtension>
        </extensions>
      </trkpt>
      <trkpt lat="43.17588" lon="6.18005">
        <ele>241</ele>
        <time>2023-05-24T11:03:17.000Z</time>
        <extensions>
          <gpxtpx:TrackPointExtension xmlns:gpxtpx="http://www.garmin.com/xmlschemas/TrackPointExtension/v1">
            <gpxtpx:hr>123</gpxtpx:hr>
          </gpxtpx:TrackPointExtension>
        </extensions>
      </trkpt>
      <trkpt lat="43.17588" lon="6.18005">
        <ele>241</ele>
        <time>2023-05-24T11:03:36.000Z</time>
        <extensions>
          <gpxtpx:TrackPointExtension xmlns:gpxtpx="http://www.garmin.com/xmlschemas/TrackPointExtension/v1">
            <gpxtpx:hr>124</gpxtpx:hr>
          </gpxtpx:TrackPointExtension>
        </extensions>
      </trkpt>
      <trkpt lat="43.17589" lon="6.18005">
        <ele>241</ele>
        <time>2023-05-24T11:03:51.000Z</time>
        <extensions>
          <gpxtpx:TrackPointExtension xmlns:gpxtpx="http://www.garmin.com/xmlschemas/TrackPointExtension/v1">
            <gpxtpx:hr>124</gpxtpx:hr>
          </gpxtpx:TrackPointExtension>
        </extensions>
      </trkpt>
      <trkpt lat="43.17589" lon="6.18005">
        <ele>241</ele>
        <time>2023-05-24T11:04:08.000Z</time>
        <extensions>
          <gpxtpx:TrackPointExtension xmlns:gpxtpx="http://www.garmin.com/xmlschemas/TrackPointExtension/v1">
            <gpxtpx:hr>127</gpxtpx:hr>
          </gpxtpx:TrackPointExtension>
        </extensions>
      </trkpt>
      <trkpt lat="43.17589" lon="6.18005">
        <ele>241</ele>
        <time>2023-05-24T11:04:09.000Z</time>
        <extensions>
          <gpxtpx:TrackPointExtension xmlns:gpxtpx="http://www.garmin.com/xmlschemas/TrackPointExtension/v1">
            <gpxtpx:hr>126</gpxtpx:hr>
          </gpxtpx:TrackPointExtension>
        </extensions>
      </trkpt>
      <trkpt lat="43.17589" lon="6.18005">
        <ele>241</ele>
        <time>2023-05-24T11:04:17.000Z</time>
        <extensions>
          <gpxtpx:TrackPointExtension xmlns:gpxtpx="http://www.garmin.com/xmlschemas/TrackPointExtension/v1">
            <gpxtpx:hr>129</gpxtpx:hr>
          </gpxtpx:TrackPointExtension>
        </extensions>
      </trkpt>
      <trkpt lat="43.17589" lon="6.18005">
        <ele>241</ele>
        <time>2023-05-24T11:04:25.000Z</time>
        <extensions>
          <gpxtpx:TrackPointExtension xmlns:gpxtpx="http://www.garmin.com/xmlschemas/TrackPointExtension/v1">
            <gpxtpx:hr>125</gpxtpx:hr>
          </gpxtpx:TrackPointExtension>
        </extensions>
      </trkpt>
      <trkpt lat="43.17589" lon="6.18005">
        <ele>241</ele>
        <time>2023-05-24T11:04:29.000Z</time>
        <extensions>
          <gpxtpx:TrackPointExtension xmlns:gpxtpx="http://www.garmin.com/xmlschemas/TrackPointExtension/v1">
            <gpxtpx:hr>128</gpxtpx:hr>
          </gpxtpx:TrackPointExtension>
        </extensions>
      </trkpt>
      <trkpt lat="43.17589" lon="6.18005">
        <ele>241</ele>
        <time>2023-05-24T11:04:30.000Z</time>
        <extensions>
          <gpxtpx:TrackPointExtension xmlns:gpxtpx="http://www.garmin.com/xmlschemas/TrackPointExtension/v1">
            <gpxtpx:hr>128</gpxtpx:hr>
          </gpxtpx:TrackPointExtension>
        </extensions>
      </trkpt>
      <trkpt lat="43.17589" lon="6.18005">
        <ele>241</ele>
        <time>2023-05-24T11:04:38.000Z</time>
        <extensions>
          <gpxtpx:TrackPointExtension xmlns:gpxtpx="http://www.garmin.com/xmlschemas/TrackPointExtension/v1">
            <gpxtpx:hr>131</gpxtpx:hr>
          </gpxtpx:TrackPointExtension>
        </extensions>
      </trkpt>
      <trkpt lat="43.17589" lon="6.18005">
        <ele>241</ele>
        <time>2023-05-24T11:04:43.000Z</time>
        <extensions>
          <gpxtpx:TrackPointExtension xmlns:gpxtpx="http://www.garmin.com/xmlschemas/TrackPointExtension/v1">
            <gpxtpx:hr>132</gpxtpx:hr>
          </gpxtpx:TrackPointExtension>
        </extensions>
      </trkpt>
      <trkpt lat="43.17589" lon="6.18005">
        <ele>241</ele>
        <time>2023-05-24T11:04:45.000Z</time>
        <extensions>
          <gpxtpx:TrackPointExtension xmlns:gpxtpx="http://www.garmin.com/xmlschemas/TrackPointExtension/v1">
            <gpxtpx:hr>129</gpxtpx:hr>
          </gpxtpx:TrackPointExtension>
        </extensions>
      </trkpt>
      <trkpt lat="43.17589" lon="6.18005">
        <ele>241</ele>
        <time>2023-05-24T11:04:49.000Z</time>
        <extensions>
          <gpxtpx:TrackPointExtension xmlns:gpxtpx="http://www.garmin.com/xmlschemas/TrackPointExtension/v1">
            <gpxtpx:hr>132</gpxtpx:hr>
          </gpxtpx:TrackPointExtension>
        </extensions>
      </trkpt>
      <trkpt lat="43.17589" lon="6.18005">
        <ele>241</ele>
        <time>2023-05-24T11:04:52.000Z</time>
        <extensions>
          <gpxtpx:TrackPointExtension xmlns:gpxtpx="http://www.garmin.com/xmlschemas/TrackPointExtension/v1">
            <gpxtpx:hr>132</gpxtpx:hr>
          </gpxtpx:TrackPointExtension>
        </extensions>
      </trkpt>
      <trkpt lat="43.17589" lon="6.18005">
        <ele>241</ele>
        <time>2023-05-24T11:05:00.000Z</time>
        <extensions>
          <gpxtpx:TrackPointExtension xmlns:gpxtpx="http://www.garmin.com/xmlschemas/TrackPointExtension/v1">
            <gpxtpx:hr>136</gpxtpx:hr>
          </gpxtpx:TrackPointExtension>
        </extensions>
      </trkpt>
      <trkpt lat="43.17589" lon="6.18008">
        <ele>241.19999694824</ele>
        <time>2023-05-24T11:05:02.000Z</time>
        <extensions>
          <gpxtpx:TrackPointExtension xmlns:gpxtpx="http://www.garmin.com/xmlschemas/TrackPointExtension/v1">
            <gpxtpx:hr>134</gpxtpx:hr>
          </gpxtpx:TrackPointExtension>
        </extensions>
      </trkpt>
      <trkpt lat="43.17594" lon="6.18021">
        <ele>242.19999694824</ele>
        <time>2023-05-24T11:05:08.000Z</time>
        <extensions>
          <gpxtpx:TrackPointExtension xmlns:gpxtpx="http://www.garmin.com/xmlschemas/TrackPointExtension/v1">
            <gpxtpx:hr>133</gpxtpx:hr>
          </gpxtpx:TrackPointExtension>
        </extensions>
      </trkpt>
      <trkpt lat="43.17601" lon="6.1803">
        <ele>243.60000610352</ele>
        <time>2023-05-24T11:05:13.000Z</time>
        <extensions>
          <gpxtpx:TrackPointExtension xmlns:gpxtpx="http://www.garmin.com/xmlschemas/TrackPointExtension/v1">
            <gpxtpx:hr>139</gpxtpx:hr>
          </gpxtpx:TrackPointExtension>
        </extensions>
      </trkpt>
      <trkpt lat="43.17607" lon="6.18038">
        <ele>244.80000305176</ele>
        <time>2023-05-24T11:05:17.000Z</time>
        <extensions>
          <gpxtpx:TrackPointExtension xmlns:gpxtpx="http://www.garmin.com/xmlschemas/TrackPointExtension/v1">
            <gpxtpx:hr>136</gpxtpx:hr>
          </gpxtpx:TrackPointExtension>
        </extensions>
      </trkpt>
      <trkpt lat="43.1761" lon="6.18041">
        <ele>245.19999694824</ele>
        <time>2023-05-24T11:05:19.000Z</time>
        <extensions>
          <gpxtpx:TrackPointExtension xmlns:gpxtpx="http://www.garmin.com/xmlschemas/TrackPointExtension/v1">
            <gpxtpx:hr>135</gpxtpx:hr>
          </gpxtpx:TrackPointExtension>
        </extensions>
      </trkpt>
      <trkpt lat="43.17614" lon="6.18045">
        <ele>245.80000305176</ele>
        <time>2023-05-24T11:05:21.000Z</time>
        <extensions>
          <gpxtpx:TrackPointExtension xmlns:gpxtpx="http://www.garmin.com/xmlschemas/TrackPointExtension/v1">
            <gpxtpx:hr>141</gpxtpx:hr>
          </gpxtpx:TrackPointExtension>
        </extensions>
      </trkpt>
      <trkpt lat="43.17619" lon="6.18051">
        <ele>247</ele>
        <time>2023-05-24T11:05:24.000Z</time>
        <extensions>
          <gpxtpx:TrackPointExtension xmlns:gpxtpx="http://www.garmin.com/xmlschemas/TrackPointExtension/v1">
            <gpxtpx:hr>139</gpxtpx:hr>
          </gpxtpx:TrackPointExtension>
        </extensions>
      </trkpt>
      <trkpt lat="43.17628" lon="6.18061">
        <ele>249.39999389648</ele>
        <time>2023-05-24T11:05:30.000Z</time>
        <extensions>
          <gpxtpx:TrackPointExtension xmlns:gpxtpx="http://www.garmin.com/xmlschemas/TrackPointExtension/v1">
            <gpxtpx:hr>138</gpxtpx:hr>
          </gpxtpx:TrackPointExtension>
        </extensions>
      </trkpt>
      <trkpt lat="43.1764" lon="6.18072">
        <ele>252.19999694824</ele>
        <time>2023-05-24T11:05:37.000Z</time>
        <extensions>
          <gpxtpx:TrackPointExtension xmlns:gpxtpx="http://www.garmin.com/xmlschemas/TrackPointExtension/v1">
            <gpxtpx:hr>139</gpxtpx:hr>
          </gpxtpx:TrackPointExtension>
        </extensions>
      </trkpt>
      <trkpt lat="43.17641" lon="6.18074">
        <ele>252.60000610352</ele>
        <time>2023-05-24T11:05:38.000Z</time>
        <extensions>
          <gpxtpx:TrackPointExtension xmlns:gpxtpx="http://www.garmin.com/xmlschemas/TrackPointExtension/v1">
            <gpxtpx:hr>146</gpxtpx:hr>
          </gpxtpx:TrackPointExtension>
        </extensions>
      </trkpt>
      <trkpt lat="43.17643" lon="6.18075">
        <ele>253</ele>
        <time>2023-05-24T11:05:39.000Z</time>
        <extensions>
          <gpxtpx:TrackPointExtension xmlns:gpxtpx="http://www.garmin.com/xmlschemas/TrackPointExtension/v1">
            <gpxtpx:hr>145</gpxtpx:hr>
          </gpxtpx:TrackPointExtension>
        </extensions>
      </trkpt>
      <trkpt lat="43.17648" lon="6.18079">
        <ele>254</ele>
        <time>2023-05-24T11:05:42.000Z</time>
        <extensions>
          <gpxtpx:TrackPointExtension xmlns:gpxtpx="http://www.garmin.com/xmlschemas/TrackPointExtension/v1">
            <gpxtpx:hr>146</gpxtpx:hr>
          </gpxtpx:TrackPointExtension>
        </extensions>
      </trkpt>
      <trkpt lat="43.17651" lon="6.18083">
        <ele>254.80000305176</ele>
        <time>2023-05-24T11:05:44.000Z</time>
        <extensions>
          <gpxtpx:TrackPointExtension xmlns:gpxtpx="http://www.garmin.com/xmlschemas/TrackPointExtension/v1">
            <gpxtpx:hr>142</gpxtpx:hr>
          </gpxtpx:TrackPointExtension>
        </extensions>
      </trkpt>
      <trkpt lat="43.17657" lon="6.18089">
        <ele>256</ele>
        <time>2023-05-24T11:05:48.000Z</time>
        <extensions>
          <gpxtpx:TrackPointExtension xmlns:gpxtpx="http://www.garmin.com/xmlschemas/TrackPointExtension/v1">
            <gpxtpx:hr>143</gpxtpx:hr>
          </gpxtpx:TrackPointExtension>
        </extensions>
      </trkpt>
      <trkpt lat="43.1766" lon="6.18092">
        <ele>256.60000610352</ele>
        <time>2023-05-24T11:05:50.000Z</time>
        <extensions>
          <gpxtpx:TrackPointExtension xmlns:gpxtpx="http://www.garmin.com/xmlschemas/TrackPointExtension/v1">
            <gpxtpx:hr>139</gpxtpx:hr>
          </gpxtpx:TrackPointExtension>
        </extensions>
      </trkpt>
      <trkpt lat="43.17665" lon="6.18099">
        <ele>257.60000610352</ele>
        <time>2023-05-24T11:05:54.000Z</time>
        <extensions>
          <gpxtpx:TrackPointExtension xmlns:gpxtpx="http://www.garmin.com/xmlschemas/TrackPointExtension/v1">
            <gpxtpx:hr>150</gpxtpx:hr>
          </gpxtpx:TrackPointExtension>
        </extensions>
      </trkpt>
      <trkpt lat="43.17666" lon="6.18101">
        <ele>257.79998779297</ele>
        <time>2023-05-24T11:05:55.000Z</time>
        <extensions>
          <gpxtpx:TrackPointExtension xmlns:gpxtpx="http://www.garmin.com/xmlschemas/TrackPointExtension/v1">
            <gpxtpx:hr>148</gpxtpx:hr>
          </gpxtpx:TrackPointExtension>
        </extensions>
      </trkpt>
      <trkpt lat="43.17668" lon="6.18102">
        <ele>258</ele>
        <time>2023-05-24T11:05:56.000Z</time>
        <extensions>
          <gpxtpx:TrackPointExtension xmlns:gpxtpx="http://www.garmin.com/xmlschemas/TrackPointExtension/v1">
            <gpxtpx:hr>152</gpxtpx:hr>
          </gpxtpx:TrackPointExtension>
        </extensions>
      </trkpt>
      <trkpt lat="43.17671" lon="6.18106">
        <ele>258.79998779297</ele>
        <time>2023-05-24T11:05:58.000Z</time>
        <extensions>
          <gpxtpx:TrackPointExtension xmlns:gpxtpx="http://www.garmin.com/xmlschemas/TrackPointExtension/v1">
            <gpxtpx:hr>146</gpxtpx:hr>
          </gpxtpx:TrackPointExtension>
        </extensions>
      </trkpt>
      <trkpt lat="43.17676" lon="6.18112">
        <ele>260.39999389648</ele>
        <time>2023-05-24T11:06:01.000Z</time>
        <extensions>
          <gpxtpx:TrackPointExtension xmlns:gpxtpx="http://www.garmin.com/xmlschemas/TrackPointExtension/v1">
            <gpxtpx:hr>143</gpxtpx:hr>
          </gpxtpx:TrackPointExtension>
        </extensions>
      </trkpt>
      <trkpt lat="43.17682" lon="6.18121">
        <ele>262.60000610352</ele>
        <time>2023-05-24T11:06:05.000Z</time>
        <extensions>
          <gpxtpx:TrackPointExtension xmlns:gpxtpx="http://www.garmin.com/xmlschemas/TrackPointExtension/v1">
            <gpxtpx:hr>146</gpxtpx:hr>
          </gpxtpx:TrackPointExtension>
        </extensions>
      </trkpt>
      <trkpt lat="43.17683" lon="6.18122">
        <ele>263</ele>
        <time>2023-05-24T11:06:06.000Z</time>
        <extensions>
          <gpxtpx:TrackPointExtension xmlns:gpxtpx="http://www.garmin.com/xmlschemas/TrackPointExtension/v1">
            <gpxtpx:hr>150</gpxtpx:hr>
          </gpxtpx:TrackPointExtension>
        </extensions>
      </trkpt>
      <trkpt lat="43.17687" lon="6.18126">
        <ele>263.79998779297</ele>
        <time>2023-05-24T11:06:08.000Z</time>
        <extensions>
          <gpxtpx:TrackPointExtension xmlns:gpxtpx="http://www.garmin.com/xmlschemas/TrackPointExtension/v1">
            <gpxtpx:hr>148</gpxtpx:hr>
          </gpxtpx:TrackPointExtension>
        </extensions>
      </trkpt>
      <trkpt lat="43.17694" lon="6.18138">
        <ele>266.20001220703</ele>
        <time>2023-05-24T11:06:13.000Z</time>
        <extensions>
          <gpxtpx:TrackPointExtension xmlns:gpxtpx="http://www.garmin.com/xmlschemas/TrackPointExtension/v1">
            <gpxtpx:hr>145</gpxtpx:hr>
          </gpxtpx:TrackPointExtension>
        </extensions>
      </trkpt>
      <trkpt lat="43.17697" lon="6.18142">
        <ele>267.20001220703</ele>
        <time>2023-05-24T11:06:15.000Z</time>
        <extensions>
          <gpxtpx:TrackPointExtension xmlns:gpxtpx="http://www.garmin.com/xmlschemas/TrackPointExtension/v1">
            <gpxtpx:hr>145</gpxtpx:hr>
          </gpxtpx:TrackPointExtension>
        </extensions>
      </trkpt>
      <trkpt lat="43.17702" lon="6.18149">
        <ele>268.39999389648</ele>
        <time>2023-05-24T11:06:18.000Z</time>
        <extensions>
          <gpxtpx:TrackPointExtension xmlns:gpxtpx="http://www.garmin.com/xmlschemas/TrackPointExtension/v1">
            <gpxtpx:hr>160</gpxtpx:hr>
          </gpxtpx:TrackPointExtension>
        </extensions>
      </trkpt>
      <trkpt lat="43.17703" lon="6.18151">
        <ele>268.79998779297</ele>
        <time>2023-05-24T11:06:19.000Z</time>
        <extensions>
          <gpxtpx:TrackPointExtension xmlns:gpxtpx="http://www.garmin.com/xmlschemas/TrackPointExtension/v1">
            <gpxtpx:hr>160</gpxtpx:hr>
          </gpxtpx:TrackPointExtension>
        </extensions>
      </trkpt>
      <trkpt lat="43.17706" lon="6.18155">
        <ele>269.60000610352</ele>
        <time>2023-05-24T11:06:21.000Z</time>
        <extensions>
          <gpxtpx:TrackPointExtension xmlns:gpxtpx="http://www.garmin.com/xmlschemas/TrackPointExtension/v1">
            <gpxtpx:hr>156</gpxtpx:hr>
          </gpxtpx:TrackPointExtension>
        </extensions>
      </trkpt>
      <trkpt lat="43.17707" lon="6.18158">
        <ele>270</ele>
        <time>2023-05-24T11:06:22.000Z</time>
        <extensions>
          <gpxtpx:TrackPointExtension xmlns:gpxtpx="http://www.garmin.com/xmlschemas/TrackPointExtension/v1">
            <gpxtpx:hr>153</gpxtpx:hr>
          </gpxtpx:TrackPointExtension>
        </extensions>
      </trkpt>
      <trkpt lat="43.17708" lon="6.1816">
        <ele>270.60000610352</ele>
        <time>2023-05-24T11:06:23.000Z</time>
        <extensions>
          <gpxtpx:TrackPointExtension xmlns:gpxtpx="http://www.garmin.com/xmlschemas/TrackPointExtension/v1">
            <gpxtpx:hr>158</gpxtpx:hr>
          </gpxtpx:TrackPointExtension>
        </extensions>
      </trkpt>
      <trkpt lat="43.17709" lon="6.18162">
        <ele>271</ele>
        <time>2023-05-24T11:06:24.000Z</time>
        <extensions>
          <gpxtpx:TrackPointExtension xmlns:gpxtpx="http://www.garmin.com/xmlschemas/TrackPointExtension/v1">
            <gpxtpx:hr>155</gpxtpx:hr>
          </gpxtpx:TrackPointExtension>
        </extensions>
      </trkpt>
      <trkpt lat="43.17712" lon="6.18166">
        <ele>272.20001220703</ele>
        <time>2023-05-24T11:06:26.000Z</time>
        <extensions>
          <gpxtpx:TrackPointExtension xmlns:gpxtpx="http://www.garmin.com/xmlschemas/TrackPointExtension/v1">
            <gpxtpx:hr>152</gpxtpx:hr>
          </gpxtpx:TrackPointExtension>
        </extensions>
      </trkpt>
      <trkpt lat="43.17714" lon="6.18173">
        <ele>273.60000610352</ele>
        <time>2023-05-24T11:06:29.000Z</time>
        <extensions>
          <gpxtpx:TrackPointExtension xmlns:gpxtpx="http://www.garmin.com/xmlschemas/TrackPointExtension/v1">
            <gpxtpx:hr>149</gpxtpx:hr>
          </gpxtpx:TrackPointExtension>
        </extensions>
      </trkpt>
      <trkpt lat="43.17715" lon="6.18175">
        <ele>274</ele>
        <time>2023-05-24T11:06:30.000Z</time>
        <extensions>
          <gpxtpx:TrackPointExtension xmlns:gpxtpx="http://www.garmin.com/xmlschemas/TrackPointExtension/v1">
            <gpxtpx:hr>144</gpxtpx:hr>
          </gpxtpx:TrackPointExtension>
        </extensions>
      </trkpt>
      <trkpt lat="43.17716" lon="6.18177">
        <ele>274.39999389648</ele>
        <time>2023-05-24T11:06:31.000Z</time>
        <extensions>
          <gpxtpx:TrackPointExtension xmlns:gpxtpx="http://www.garmin.com/xmlschemas/TrackPointExtension/v1">
            <gpxtpx:hr>145</gpxtpx:hr>
          </gpxtpx:TrackPointExtension>
        </extensions>
      </trkpt>
      <trkpt lat="43.17719" lon="6.18182">
        <ele>275.39999389648</ele>
        <time>2023-05-24T11:06:33.000Z</time>
        <extensions>
          <gpxtpx:TrackPointExtension xmlns:gpxtpx="http://www.garmin.com/xmlschemas/TrackPointExtension/v1">
            <gpxtpx:hr>147</gpxtpx:hr>
          </gpxtpx:TrackPointExtension>
        </extensions>
      </trkpt>
      <trkpt lat="43.17722" lon="6.18188">
        <ele>276.79998779297</ele>
        <time>2023-05-24T11:06:36.000Z</time>
        <extensions>
          <gpxtpx:TrackPointExtension xmlns:gpxtpx="http://www.garmin.com/xmlschemas/TrackPointExtension/v1">
            <gpxtpx:hr>150</gpxtpx:hr>
          </gpxtpx:TrackPointExtension>
        </extensions>
      </trkpt>
      <trkpt lat="43.17724" lon="6.18191">
        <ele>277.60000610352</ele>
        <time>2023-05-24T11:06:38.000Z</time>
        <extensions>
          <gpxtpx:TrackPointExtension xmlns:gpxtpx="http://www.garmin.com/xmlschemas/TrackPointExtension/v1">
            <gpxtpx:hr>146</gpxtpx:hr>
          </gpxtpx:TrackPointExtension>
        </extensions>
      </trkpt>
      <trkpt lat="43.17725" lon="6.18192">
        <ele>277.79998779297</ele>
        <time>2023-05-24T11:06:39.000Z</time>
        <extensions>
          <gpxtpx:TrackPointExtension xmlns:gpxtpx="http://www.garmin.com/xmlschemas/TrackPointExtension/v1">
            <gpxtpx:hr>148</gpxtpx:hr>
          </gpxtpx:TrackPointExtension>
        </extensions>
      </trkpt>
      <trkpt lat="43.17732" lon="6.18197">
        <ele>278.60000610352</ele>
        <time>2023-05-24T11:06:43.000Z</time>
        <extensions>
          <gpxtpx:TrackPointExtension xmlns:gpxtpx="http://www.garmin.com/xmlschemas/TrackPointExtension/v1">
            <gpxtpx:hr>148</gpxtpx:hr>
          </gpxtpx:TrackPointExtension>
        </extensions>
      </trkpt>
      <trkpt lat="43.17738" lon="6.18205">
        <ele>280.39999389648</ele>
        <time>2023-05-24T11:06:48.000Z</time>
        <extensions>
          <gpxtpx:TrackPointExtension xmlns:gpxtpx="http://www.garmin.com/xmlschemas/TrackPointExtension/v1">
            <gpxtpx:hr>148</gpxtpx:hr>
          </gpxtpx:TrackPointExtension>
        </extensions>
      </trkpt>
      <trkpt lat="43.1774" lon="6.18206">
        <ele>280.79998779297</ele>
        <time>2023-05-24T11:06:49.000Z</time>
        <extensions>
          <gpxtpx:TrackPointExtension xmlns:gpxtpx="http://www.garmin.com/xmlschemas/TrackPointExtension/v1">
            <gpxtpx:hr>148</gpxtpx:hr>
          </gpxtpx:TrackPointExtension>
        </extensions>
      </trkpt>
      <trkpt lat="43.17748" lon="6.18216">
        <ele>281.39999389648</ele>
        <time>2023-05-24T11:06:55.000Z</time>
        <extensions>
          <gpxtpx:TrackPointExtension xmlns:gpxtpx="http://www.garmin.com/xmlschemas/TrackPointExtension/v1">
            <gpxtpx:hr>149</gpxtpx:hr>
          </gpxtpx:TrackPointExtension>
        </extensions>
      </trkpt>
      <trkpt lat="43.17757" lon="6.18228">
        <ele>280.39999389648</ele>
        <time>2023-05-24T11:07:01.000Z</time>
        <extensions>
          <gpxtpx:TrackPointExtension xmlns:gpxtpx="http://www.garmin.com/xmlschemas/TrackPointExtension/v1">
            <gpxtpx:hr>149</gpxtpx:hr>
          </gpxtpx:TrackPointExtension>
        </extensions>
      </trkpt>
      <trkpt lat="43.1776" lon="6.18239">
        <ele>281.20001220703</ele>
        <time>2023-05-24T11:07:05.000Z</time>
        <extensions>
          <gpxtpx:TrackPointExtension xmlns:gpxtpx="http://www.garmin.com/xmlschemas/TrackPointExtension/v1">
            <gpxtpx:hr>149</gpxtpx:hr>
          </gpxtpx:TrackPointExtension>
        </extensions>
      </trkpt>
      <trkpt lat="43.17759" lon="6.18252">
        <ele>283</ele>
        <time>2023-05-24T11:07:10.000Z</time>
        <extensions>
          <gpxtpx:TrackPointExtension xmlns:gpxtpx="http://www.garmin.com/xmlschemas/TrackPointExtension/v1">
            <gpxtpx:hr>144</gpxtpx:hr>
          </gpxtpx:TrackPointExtension>
        </extensions>
      </trkpt>
      <trkpt lat="43.17758" lon="6.18255">
        <ele>283.39999389648</ele>
        <time>2023-05-24T11:07:11.000Z</time>
        <extensions>
          <gpxtpx:TrackPointExtension xmlns:gpxtpx="http://www.garmin.com/xmlschemas/TrackPointExtension/v1">
            <gpxtpx:hr>147</gpxtpx:hr>
          </gpxtpx:TrackPointExtension>
        </extensions>
      </trkpt>
      <trkpt lat="43.17758" lon="6.18257">
        <ele>284</ele>
        <time>2023-05-24T11:07:12.000Z</time>
        <extensions>
          <gpxtpx:TrackPointExtension xmlns:gpxtpx="http://www.garmin.com/xmlschemas/TrackPointExtension/v1">
            <gpxtpx:hr>146</gpxtpx:hr>
          </gpxtpx:TrackPointExtension>
        </extensions>
      </trkpt>
      <trkpt lat="43.17753" lon="6.18265">
        <ele>286</ele>
        <time>2023-05-24T11:07:16.000Z</time>
        <extensions>
          <gpxtpx:TrackPointExtension xmlns:gpxtpx="http://www.garmin.com/xmlschemas/TrackPointExtension/v1">
            <gpxtpx:hr>149</gpxtpx:hr>
          </gpxtpx:TrackPointExtension>
        </extensions>
      </trkpt>
      <trkpt lat="43.1775" lon="6.18271">
        <ele>287.39999389648</ele>
        <time>2023-05-24T11:07:19.000Z</time>
        <extensions>
          <gpxtpx:TrackPointExtension xmlns:gpxtpx="http://www.garmin.com/xmlschemas/TrackPointExtension/v1">
            <gpxtpx:hr>150</gpxtpx:hr>
          </gpxtpx:TrackPointExtension>
        </extensions>
      </trkpt>
      <trkpt lat="43.17745" lon="6.18287">
        <ele>290</ele>
        <time>2023-05-24T11:07:26.000Z</time>
        <extensions>
          <gpxtpx:TrackPointExtension xmlns:gpxtpx="http://www.garmin.com/xmlschemas/TrackPointExtension/v1">
            <gpxtpx:hr>153</gpxtpx:hr>
          </gpxtpx:TrackPointExtension>
        </extensions>
      </trkpt>
      <trkpt lat="43.17743" lon="6.18295">
        <ele>291.39999389648</ele>
        <time>2023-05-24T11:07:29.000Z</time>
        <extensions>
          <gpxtpx:TrackPointExtension xmlns:gpxtpx="http://www.garmin.com/xmlschemas/TrackPointExtension/v1">
            <gpxtpx:hr>149</gpxtpx:hr>
          </gpxtpx:TrackPointExtension>
        </extensions>
      </trkpt>
      <trkpt lat="43.17742" lon="6.18297">
        <ele>291.79998779297</ele>
        <time>2023-05-24T11:07:30.000Z</time>
        <extensions>
          <gpxtpx:TrackPointExtension xmlns:gpxtpx="http://www.garmin.com/xmlschemas/TrackPointExtension/v1">
            <gpxtpx:hr>149</gpxtpx:hr>
          </gpxtpx:TrackPointExtension>
        </extensions>
      </trkpt>
      <trkpt lat="43.17741" lon="6.18299">
        <ele>292.20001220703</ele>
        <time>2023-05-24T11:07:31.000Z</time>
        <extensions>
          <gpxtpx:TrackPointExtension xmlns:gpxtpx="http://www.garmin.com/xmlschemas/TrackPointExtension/v1">
            <gpxtpx:hr>146</gpxtpx:hr>
          </gpxtpx:TrackPointExtension>
        </extensions>
      </trkpt>
      <trkpt lat="43.1774" lon="6.18304">
        <ele>293</ele>
        <time>2023-05-24T11:07:33.000Z</time>
        <extensions>
          <gpxtpx:TrackPointExtension xmlns:gpxtpx="http://www.garmin.com/xmlschemas/TrackPointExtension/v1">
            <gpxtpx:hr>148</gpxtpx:hr>
          </gpxtpx:TrackPointExtension>
        </extensions>
      </trkpt>
      <trkpt lat="43.17738" lon="6.18323">
        <ele>295</ele>
        <time>2023-05-24T11:07:40.000Z</time>
        <extensions>
          <gpxtpx:TrackPointExtension xmlns:gpxtpx="http://www.garmin.com/xmlschemas/TrackPointExtension/v1">
            <gpxtpx:hr>155</gpxtpx:hr>
          </gpxtpx:TrackPointExtension>
        </extensions>
      </trkpt>
      <trkpt lat="43.17738" lon="6.18326">
        <ele>295.20001220703</ele>
        <time>2023-05-24T11:07:41.000Z</time>
        <extensions>
          <gpxtpx:TrackPointExtension xmlns:gpxtpx="http://www.garmin.com/xmlschemas/TrackPointExtension/v1">
            <gpxtpx:hr>153</gpxtpx:hr>
          </gpxtpx:TrackPointExtension>
        </extensions>
      </trkpt>
      <trkpt lat="43.17741" lon="6.18336">
        <ele>295.79998779297</ele>
        <time>2023-05-24T11:07:45.000Z</time>
        <extensions>
          <gpxtpx:TrackPointExtension xmlns:gpxtpx="http://www.garmin.com/xmlschemas/TrackPointExtension/v1">
            <gpxtpx:hr>149</gpxtpx:hr>
          </gpxtpx:TrackPointExtension>
        </extensions>
      </trkpt>
      <trkpt lat="43.17743" lon="6.18341">
        <ele>295.60000610352</ele>
        <time>2023-05-24T11:07:47.000Z</time>
        <extensions>
          <gpxtpx:TrackPointExtension xmlns:gpxtpx="http://www.garmin.com/xmlschemas/TrackPointExtension/v1">
            <gpxtpx:hr>149</gpxtpx:hr>
          </gpxtpx:TrackPointExtension>
        </extensions>
      </trkpt>
      <trkpt lat="43.17745" lon="6.18348">
        <ele>295.20001220703</ele>
        <time>2023-05-24T11:07:52.000Z</time>
        <extensions>
          <gpxtpx:TrackPointExtension xmlns:gpxtpx="http://www.garmin.com/xmlschemas/TrackPointExtension/v1">
            <gpxtpx:hr>147</gpxtpx:hr>
          </gpxtpx:TrackPointExtension>
        </extensions>
      </trkpt>
      <trkpt lat="43.17745" lon="6.18348">
        <ele>295.20001220703</ele>
        <time>2023-05-24T11:07:57.000Z</time>
        <extensions>
          <gpxtpx:TrackPointExtension xmlns:gpxtpx="http://www.garmin.com/xmlschemas/TrackPointExtension/v1">
            <gpxtpx:hr>146</gpxtpx:hr>
          </gpxtpx:TrackPointExtension>
        </extensions>
      </trkpt>
      <trkpt lat="43.17745" lon="6.18348">
        <ele>295.20001220703</ele>
        <time>2023-05-24T11:08:03.000Z</time>
        <extensions>
          <gpxtpx:TrackPointExtension xmlns:gpxtpx="http://www.garmin.com/xmlschemas/TrackPointExtension/v1">
            <gpxtpx:hr>143</gpxtpx:hr>
          </gpxtpx:TrackPointExtension>
        </extensions>
      </trkpt>
      <trkpt lat="43.17746" lon="6.18352">
        <ele>295.20001220703</ele>
        <time>2023-05-24T11:08:05.000Z</time>
        <extensions>
          <gpxtpx:TrackPointExtension xmlns:gpxtpx="http://www.garmin.com/xmlschemas/TrackPointExtension/v1">
            <gpxtpx:hr>144</gpxtpx:hr>
          </gpxtpx:TrackPointExtension>
        </extensions>
      </trkpt>
      <trkpt lat="43.17752" lon="6.18372">
        <ele>293.60000610352</ele>
        <time>2023-05-24T11:08:10.000Z</time>
        <extensions>
          <gpxtpx:TrackPointExtension xmlns:gpxtpx="http://www.garmin.com/xmlschemas/TrackPointExtension/v1">
            <gpxtpx:hr>138</gpxtpx:hr>
          </gpxtpx:TrackPointExtension>
        </extensions>
      </trkpt>
      <trkpt lat="43.17755" lon="6.18381">
        <ele>292.60000610352</ele>
        <time>2023-05-24T11:08:12.000Z</time>
        <extensions>
          <gpxtpx:TrackPointExtension xmlns:gpxtpx="http://www.garmin.com/xmlschemas/TrackPointExtension/v1">
            <gpxtpx:hr>142</gpxtpx:hr>
          </gpxtpx:TrackPointExtension>
        </extensions>
      </trkpt>
      <trkpt lat="43.1776" lon="6.18401">
        <ele>292.39999389648</ele>
        <time>2023-05-24T11:08:17.000Z</time>
        <extensions>
          <gpxtpx:TrackPointExtension xmlns:gpxtpx="http://www.garmin.com/xmlschemas/TrackPointExtension/v1">
            <gpxtpx:hr>141</gpxtpx:hr>
          </gpxtpx:TrackPointExtension>
        </extensions>
      </trkpt>
      <trkpt lat="43.17761" lon="6.18403">
        <ele>292.39999389648</ele>
        <time>2023-05-24T11:08:19.000Z</time>
        <extensions>
          <gpxtpx:TrackPointExtension xmlns:gpxtpx="http://www.garmin.com/xmlschemas/TrackPointExtension/v1">
            <gpxtpx:hr>146</gpxtpx:hr>
          </gpxtpx:TrackPointExtension>
        </extensions>
      </trkpt>
      <trkpt lat="43.17761" lon="6.18403">
        <ele>292.39999389648</ele>
        <time>2023-05-24T11:08:21.000Z</time>
        <extensions>
          <gpxtpx:TrackPointExtension xmlns:gpxtpx="http://www.garmin.com/xmlschemas/TrackPointExtension/v1">
            <gpxtpx:hr>142</gpxtpx:hr>
          </gpxtpx:TrackPointExtension>
        </extensions>
      </trkpt>
      <trkpt lat="43.17761" lon="6.18403">
        <ele>292.39999389648</ele>
        <time>2023-05-24T11:08:24.000Z</time>
        <extensions>
          <gpxtpx:TrackPointExtension xmlns:gpxtpx="http://www.garmin.com/xmlschemas/TrackPointExtension/v1">
            <gpxtpx:hr>139</gpxtpx:hr>
          </gpxtpx:TrackPointExtension>
        </extensions>
      </trkpt>
      <trkpt lat="43.17761" lon="6.18403">
        <ele>292.39999389648</ele>
        <time>2023-05-24T11:08:27.000Z</time>
        <extensions>
          <gpxtpx:TrackPointExtension xmlns:gpxtpx="http://www.garmin.com/xmlschemas/TrackPointExtension/v1">
            <gpxtpx:hr>136</gpxtpx:hr>
          </gpxtpx:TrackPointExtension>
        </extensions>
      </trkpt>
      <trkpt lat="43.17761" lon="6.18403">
        <ele>292.39999389648</ele>
        <time>2023-05-24T11:08:40.000Z</time>
        <extensions>
          <gpxtpx:TrackPointExtension xmlns:gpxtpx="http://www.garmin.com/xmlschemas/TrackPointExtension/v1">
            <gpxtpx:hr>134</gpxtpx:hr>
          </gpxtpx:TrackPointExtension>
        </extensions>
      </trkpt>
      <trkpt lat="43.17761" lon="6.18403">
        <ele>292.39999389648</ele>
        <time>2023-05-24T11:08:52.000Z</time>
        <extensions>
          <gpxtpx:TrackPointExtension xmlns:gpxtpx="http://www.garmin.com/xmlschemas/TrackPointExtension/v1">
            <gpxtpx:hr>131</gpxtpx:hr>
          </gpxtpx:TrackPointExtension>
        </extensions>
      </trkpt>
      <trkpt lat="43.17761" lon="6.18403">
        <ele>292.39999389648</ele>
        <time>2023-05-24T11:08:53.000Z</time>
        <extensions>
          <gpxtpx:TrackPointExtension xmlns:gpxtpx="http://www.garmin.com/xmlschemas/TrackPointExtension/v1">
            <gpxtpx:hr>131</gpxtpx:hr>
          </gpxtpx:TrackPointExtension>
        </extensions>
      </trkpt>
      <trkpt lat="43.17761" lon="6.18403">
        <ele>292.39999389648</ele>
        <time>2023-05-24T11:08:57.000Z</time>
        <extensions>
          <gpxtpx:TrackPointExtension xmlns:gpxtpx="http://www.garmin.com/xmlschemas/TrackPointExtension/v1">
            <gpxtpx:hr>128</gpxtpx:hr>
          </gpxtpx:TrackPointExtension>
        </extensions>
      </trkpt>
      <trkpt lat="43.17761" lon="6.18402">
        <ele>292.39999389648</ele>
        <time>2023-05-24T11:09:04.000Z</time>
        <extensions>
          <gpxtpx:TrackPointExtension xmlns:gpxtpx="http://www.garmin.com/xmlschemas/TrackPointExtension/v1">
            <gpxtpx:hr>125</gpxtpx:hr>
          </gpxtpx:TrackPointExtension>
        </extensions>
      </trkpt>
      <trkpt lat="43.17761" lon="6.18402">
        <ele>292.39999389648</ele>
        <time>2023-05-24T11:09:17.000Z</time>
        <extensions>
          <gpxtpx:TrackPointExtension xmlns:gpxtpx="http://www.garmin.com/xmlschemas/TrackPointExtension/v1">
            <gpxtpx:hr>124</gpxtpx:hr>
          </gpxtpx:TrackPointExtension>
        </extensions>
      </trkpt>
      <trkpt lat="43.17761" lon="6.18405">
        <ele>292.20001220703</ele>
        <time>2023-05-24T11:09:29.000Z</time>
        <extensions>
          <gpxtpx:TrackPointExtension xmlns:gpxtpx="http://www.garmin.com/xmlschemas/TrackPointExtension/v1">
            <gpxtpx:hr>125</gpxtpx:hr>
          </gpxtpx:TrackPointExtension>
        </extensions>
      </trkpt>
      <trkpt lat="43.17762" lon="6.18407">
        <ele>292</ele>
        <time>2023-05-24T11:09:30.000Z</time>
        <extensions>
          <gpxtpx:TrackPointExtension xmlns:gpxtpx="http://www.garmin.com/xmlschemas/TrackPointExtension/v1">
            <gpxtpx:hr>126</gpxtpx:hr>
          </gpxtpx:TrackPointExtension>
        </extensions>
      </trkpt>
      <trkpt lat="43.17767" lon="6.18429">
        <ele>292</ele>
        <time>2023-05-24T11:09:35.000Z</time>
        <extensions>
          <gpxtpx:TrackPointExtension xmlns:gpxtpx="http://www.garmin.com/xmlschemas/TrackPointExtension/v1">
            <gpxtpx:hr>124</gpxtpx:hr>
          </gpxtpx:TrackPointExtension>
        </extensions>
      </trkpt>
      <trkpt lat="43.17772" lon="6.18448">
        <ele>291.39999389648</ele>
        <time>2023-05-24T11:09:38.000Z</time>
        <extensions>
          <gpxtpx:TrackPointExtension xmlns:gpxtpx="http://www.garmin.com/xmlschemas/TrackPointExtension/v1">
            <gpxtpx:hr>122</gpxtpx:hr>
          </gpxtpx:TrackPointExtension>
        </extensions>
      </trkpt>
      <trkpt lat="43.17775" lon="6.18454">
        <ele>291.20001220703</ele>
        <time>2023-05-24T11:09:39.000Z</time>
        <extensions>
          <gpxtpx:TrackPointExtension xmlns:gpxtpx="http://www.garmin.com/xmlschemas/TrackPointExtension/v1">
            <gpxtpx:hr>122</gpxtpx:hr>
          </gpxtpx:TrackPointExtension>
        </extensions>
      </trkpt>
      <trkpt lat="43.17779" lon="6.1846">
        <ele>290.79998779297</ele>
        <time>2023-05-24T11:09:40.000Z</time>
        <extensions>
          <gpxtpx:TrackPointExtension xmlns:gpxtpx="http://www.garmin.com/xmlschemas/TrackPointExtension/v1">
            <gpxtpx:hr>122</gpxtpx:hr>
          </gpxtpx:TrackPointExtension>
        </extensions>
      </trkpt>
      <trkpt lat="43.17793" lon="6.18474">
        <ele>289.79998779297</ele>
        <time>2023-05-24T11:09:43.000Z</time>
        <extensions>
          <gpxtpx:TrackPointExtension xmlns:gpxtpx="http://www.garmin.com/xmlschemas/TrackPointExtension/v1">
            <gpxtpx:hr>119</gpxtpx:hr>
          </gpxtpx:TrackPointExtension>
        </extensions>
      </trkpt>
      <trkpt lat="43.17811" lon="6.18491">
        <ele>289</ele>
        <time>2023-05-24T11:09:48.000Z</time>
        <extensions>
          <gpxtpx:TrackPointExtension xmlns:gpxtpx="http://www.garmin.com/xmlschemas/TrackPointExtension/v1">
            <gpxtpx:hr>120</gpxtpx:hr>
          </gpxtpx:TrackPointExtension>
        </extensions>
      </trkpt>
      <trkpt lat="43.17828" lon="6.18505">
        <ele>289.20001220703</ele>
        <time>2023-05-24T11:09:52.000Z</time>
        <extensions>
          <gpxtpx:TrackPointExtension xmlns:gpxtpx="http://www.garmin.com/xmlschemas/TrackPointExtension/v1">
            <gpxtpx:hr>124</gpxtpx:hr>
          </gpxtpx:TrackPointExtension>
        </extensions>
      </trkpt>
      <trkpt lat="43.17837" lon="6.18512">
        <ele>289.79998779297</ele>
        <time>2023-05-24T11:09:54.000Z</time>
        <extensions>
          <gpxtpx:TrackPointExtension xmlns:gpxtpx="http://www.garmin.com/xmlschemas/TrackPointExtension/v1">
            <gpxtpx:hr>123</gpxtpx:hr>
          </gpxtpx:TrackPointExtension>
        </extensions>
      </trkpt>
      <trkpt lat="43.17848" lon="6.18525">
        <ele>290.79998779297</ele>
        <time>2023-05-24T11:09:57.000Z</time>
        <extensions>
          <gpxtpx:TrackPointExtension xmlns:gpxtpx="http://www.garmin.com/xmlschemas/TrackPointExtension/v1">
            <gpxtpx:hr>124</gpxtpx:hr>
          </gpxtpx:TrackPointExtension>
        </extensions>
      </trkpt>
      <trkpt lat="43.17859" lon="6.18537">
        <ele>291</ele>
        <time>2023-05-24T11:10:00.000Z</time>
        <extensions>
          <gpxtpx:TrackPointExtension xmlns:gpxtpx="http://www.garmin.com/xmlschemas/TrackPointExtension/v1">
            <gpxtpx:hr>124</gpxtpx:hr>
          </gpxtpx:TrackPointExtension>
        </extensions>
      </trkpt>
      <trkpt lat="43.1787" lon="6.18549">
        <ele>291.20001220703</ele>
        <time>2023-05-24T11:10:03.000Z</time>
        <extensions>
          <gpxtpx:TrackPointExtension xmlns:gpxtpx="http://www.garmin.com/xmlschemas/TrackPointExtension/v1">
            <gpxtpx:hr>127</gpxtpx:hr>
          </gpxtpx:TrackPointExtension>
        </extensions>
      </trkpt>
      <trkpt lat="43.17885" lon="6.1857">
        <ele>292.79998779297</ele>
        <time>2023-05-24T11:10:08.000Z</time>
        <extensions>
          <gpxtpx:TrackPointExtension xmlns:gpxtpx="http://www.garmin.com/xmlschemas/TrackPointExtension/v1">
            <gpxtpx:hr>128</gpxtpx:hr>
          </gpxtpx:TrackPointExtension>
        </extensions>
      </trkpt>
      <trkpt lat="43.17888" lon="6.18574">
        <ele>293</ele>
        <time>2023-05-24T11:10:09.000Z</time>
        <extensions>
          <gpxtpx:TrackPointExtension xmlns:gpxtpx="http://www.garmin.com/xmlschemas/TrackPointExtension/v1">
            <gpxtpx:hr>125</gpxtpx:hr>
          </gpxtpx:TrackPointExtension>
        </extensions>
      </trkpt>
      <trkpt lat="43.17898" lon="6.18591">
        <ele>295.39999389648</ele>
        <time>2023-05-24T11:10:13.000Z</time>
        <extensions>
          <gpxtpx:TrackPointExtension xmlns:gpxtpx="http://www.garmin.com/xmlschemas/TrackPointExtension/v1">
            <gpxtpx:hr>133</gpxtpx:hr>
          </gpxtpx:TrackPointExtension>
        </extensions>
      </trkpt>
      <trkpt lat="43.179" lon="6.18595">
        <ele>295.79998779297</ele>
        <time>2023-05-24T11:10:14.000Z</time>
        <extensions>
          <gpxtpx:TrackPointExtension xmlns:gpxtpx="http://www.garmin.com/xmlschemas/TrackPointExtension/v1">
            <gpxtpx:hr>133</gpxtpx:hr>
          </gpxtpx:TrackPointExtension>
        </extensions>
      </trkpt>
      <trkpt lat="43.17912" lon="6.18617">
        <ele>297.60000610352</ele>
        <time>2023-05-24T11:10:20.000Z</time>
        <extensions>
          <gpxtpx:TrackPointExtension xmlns:gpxtpx="http://www.garmin.com/xmlschemas/TrackPointExtension/v1">
            <gpxtpx:hr>139</gpxtpx:hr>
          </gpxtpx:TrackPointExtension>
        </extensions>
      </trkpt>
      <trkpt lat="43.17923" lon="6.18636">
        <ele>297.39999389648</ele>
        <time>2023-05-24T11:10:27.000Z</time>
        <extensions>
          <gpxtpx:TrackPointExtension xmlns:gpxtpx="http://www.garmin.com/xmlschemas/TrackPointExtension/v1">
            <gpxtpx:hr>138</gpxtpx:hr>
          </gpxtpx:TrackPointExtension>
        </extensions>
      </trkpt>
      <trkpt lat="43.1793" lon="6.18653">
        <ele>296.60000610352</ele>
        <time>2023-05-24T11:10:33.000Z</time>
        <extensions>
          <gpxtpx:TrackPointExtension xmlns:gpxtpx="http://www.garmin.com/xmlschemas/TrackPointExtension/v1">
            <gpxtpx:hr>138</gpxtpx:hr>
          </gpxtpx:TrackPointExtension>
        </extensions>
      </trkpt>
      <trkpt lat="43.17932" lon="6.18668">
        <ele>295.60000610352</ele>
        <time>2023-05-24T11:10:39.000Z</time>
        <extensions>
          <gpxtpx:TrackPointExtension xmlns:gpxtpx="http://www.garmin.com/xmlschemas/TrackPointExtension/v1">
            <gpxtpx:hr>137</gpxtpx:hr>
          </gpxtpx:TrackPointExtension>
        </extensions>
      </trkpt>
      <trkpt lat="43.17932" lon="6.18684">
        <ele>294.39999389648</ele>
        <time>2023-05-24T11:10:44.000Z</time>
        <extensions>
          <gpxtpx:TrackPointExtension xmlns:gpxtpx="http://www.garmin.com/xmlschemas/TrackPointExtension/v1">
            <gpxtpx:hr>138</gpxtpx:hr>
          </gpxtpx:TrackPointExtension>
        </extensions>
      </trkpt>
      <trkpt lat="43.17934" lon="6.1872">
        <ele>295.20001220703</ele>
        <time>2023-05-24T11:10:49.000Z</time>
        <extensions>
          <gpxtpx:TrackPointExtension xmlns:gpxtpx="http://www.garmin.com/xmlschemas/TrackPointExtension/v1">
            <gpxtpx:hr>138</gpxtpx:hr>
          </gpxtpx:TrackPointExtension>
        </extensions>
      </trkpt>
      <trkpt lat="43.17936" lon="6.18758">
        <ele>296.39999389648</ele>
        <time>2023-05-24T11:10:53.000Z</time>
        <extensions>
          <gpxtpx:TrackPointExtension xmlns:gpxtpx="http://www.garmin.com/xmlschemas/TrackPointExtension/v1">
            <gpxtpx:hr>138</gpxtpx:hr>
          </gpxtpx:TrackPointExtension>
        </extensions>
      </trkpt>
      <trkpt lat="43.17936" lon="6.18806">
        <ele>295.20001220703</ele>
        <time>2023-05-24T11:10:58.000Z</time>
        <extensions>
          <gpxtpx:TrackPointExtension xmlns:gpxtpx="http://www.garmin.com/xmlschemas/TrackPointExtension/v1">
            <gpxtpx:hr>138</gpxtpx:hr>
          </gpxtpx:TrackPointExtension>
        </extensions>
      </trkpt>
      <trkpt lat="43.1794" lon="6.18815">
        <ele>293.79998779297</ele>
        <time>2023-05-24T11:11:00.000Z</time>
        <extensions>
          <gpxtpx:TrackPointExtension xmlns:gpxtpx="http://www.garmin.com/xmlschemas/TrackPointExtension/v1">
            <gpxtpx:hr>143</gpxtpx:hr>
          </gpxtpx:TrackPointExtension>
        </extensions>
      </trkpt>
      <trkpt lat="43.17942" lon="6.18818">
        <ele>293.20001220703</ele>
        <time>2023-05-24T11:11:01.000Z</time>
        <extensions>
          <gpxtpx:TrackPointExtension xmlns:gpxtpx="http://www.garmin.com/xmlschemas/TrackPointExtension/v1">
            <gpxtpx:hr>143</gpxtpx:hr>
          </gpxtpx:TrackPointExtension>
        </extensions>
      </trkpt>
      <trkpt lat="43.17945" lon="6.18822">
        <ele>292.60000610352</ele>
        <time>2023-05-24T11:11:02.000Z</time>
        <extensions>
          <gpxtpx:TrackPointExtension xmlns:gpxtpx="http://www.garmin.com/xmlschemas/TrackPointExtension/v1">
            <gpxtpx:hr>142</gpxtpx:hr>
          </gpxtpx:TrackPointExtension>
        </extensions>
      </trkpt>
      <trkpt lat="43.17951" lon="6.18831">
        <ele>290.20001220703</ele>
        <time>2023-05-24T11:11:05.000Z</time>
        <extensions>
          <gpxtpx:TrackPointExtension xmlns:gpxtpx="http://www.garmin.com/xmlschemas/TrackPointExtension/v1">
            <gpxtpx:hr>139</gpxtpx:hr>
          </gpxtpx:TrackPointExtension>
        </extensions>
      </trkpt>
      <trkpt lat="43.1796" lon="6.18844">
        <ele>286.79998779297</ele>
        <time>2023-05-24T11:11:09.000Z</time>
        <extensions>
          <gpxtpx:TrackPointExtension xmlns:gpxtpx="http://www.garmin.com/xmlschemas/TrackPointExtension/v1">
            <gpxtpx:hr>138</gpxtpx:hr>
          </gpxtpx:TrackPointExtension>
        </extensions>
      </trkpt>
      <trkpt lat="43.17973" lon="6.1886">
        <ele>280.79998779297</ele>
        <time>2023-05-24T11:11:14.000Z</time>
        <extensions>
          <gpxtpx:TrackPointExtension xmlns:gpxtpx="http://www.garmin.com/xmlschemas/TrackPointExtension/v1">
            <gpxtpx:hr>135</gpxtpx:hr>
          </gpxtpx:TrackPointExtension>
        </extensions>
      </trkpt>
      <trkpt lat="43.17977" lon="6.18864">
        <ele>279.20001220703</ele>
        <time>2023-05-24T11:11:15.000Z</time>
        <extensions>
          <gpxtpx:TrackPointExtension xmlns:gpxtpx="http://www.garmin.com/xmlschemas/TrackPointExtension/v1">
            <gpxtpx:hr>135</gpxtpx:hr>
          </gpxtpx:TrackPointExtension>
        </extensions>
      </trkpt>
      <trkpt lat="43.17998" lon="6.18888">
        <ele>271.20001220703</ele>
        <time>2023-05-24T11:11:21.000Z</time>
        <extensions>
          <gpxtpx:TrackPointExtension xmlns:gpxtpx="http://www.garmin.com/xmlschemas/TrackPointExtension/v1">
            <gpxtpx:hr>134</gpxtpx:hr>
          </gpxtpx:TrackPointExtension>
        </extensions>
      </trkpt>
      <trkpt lat="43.18014" lon="6.18907">
        <ele>266.60000610352</ele>
        <time>2023-05-24T11:11:26.000Z</time>
        <extensions>
          <gpxtpx:TrackPointExtension xmlns:gpxtpx="http://www.garmin.com/xmlschemas/TrackPointExtension/v1">
            <gpxtpx:hr>133</gpxtpx:hr>
          </gpxtpx:TrackPointExtension>
        </extensions>
      </trkpt>
      <trkpt lat="43.18029" lon="6.18929">
        <ele>261.79998779297</ele>
        <time>2023-05-24T11:11:31.000Z</time>
        <extensions>
          <gpxtpx:TrackPointExtension xmlns:gpxtpx="http://www.garmin.com/xmlschemas/TrackPointExtension/v1">
            <gpxtpx:hr>132</gpxtpx:hr>
          </gpxtpx:TrackPointExtension>
        </extensions>
      </trkpt>
      <trkpt lat="43.18047" lon="6.18954">
        <ele>258.79998779297</ele>
        <time>2023-05-24T11:11:35.000Z</time>
        <extensions>
          <gpxtpx:TrackPointExtension xmlns:gpxtpx="http://www.garmin.com/xmlschemas/TrackPointExtension/v1">
            <gpxtpx:hr>132</gpxtpx:hr>
          </gpxtpx:TrackPointExtension>
        </extensions>
      </trkpt>
      <trkpt lat="43.1807" lon="6.18988">
        <ele>259.60000610352</ele>
        <time>2023-05-24T11:11:40.000Z</time>
        <extensions>
          <gpxtpx:TrackPointExtension xmlns:gpxtpx="http://www.garmin.com/xmlschemas/TrackPointExtension/v1">
            <gpxtpx:hr>131</gpxtpx:hr>
          </gpxtpx:TrackPointExtension>
        </extensions>
      </trkpt>
      <trkpt lat="43.18076" lon="6.18998">
        <ele>260</ele>
        <time>2023-05-24T11:11:42.000Z</time>
        <extensions>
          <gpxtpx:TrackPointExtension xmlns:gpxtpx="http://www.garmin.com/xmlschemas/TrackPointExtension/v1">
            <gpxtpx:hr>127</gpxtpx:hr>
          </gpxtpx:TrackPointExtension>
        </extensions>
      </trkpt>
      <trkpt lat="43.18083" lon="6.19009">
        <ele>259.79998779297</ele>
        <time>2023-05-24T11:11:45.000Z</time>
        <extensions>
          <gpxtpx:TrackPointExtension xmlns:gpxtpx="http://www.garmin.com/xmlschemas/TrackPointExtension/v1">
            <gpxtpx:hr>130</gpxtpx:hr>
          </gpxtpx:TrackPointExtension>
        </extensions>
      </trkpt>
      <trkpt lat="43.18094" lon="6.19029">
        <ele>259.39999389648</ele>
        <time>2023-05-24T11:11:51.000Z</time>
        <extensions>
          <gpxtpx:TrackPointExtension xmlns:gpxtpx="http://www.garmin.com/xmlschemas/TrackPointExtension/v1">
            <gpxtpx:hr>133</gpxtpx:hr>
          </gpxtpx:TrackPointExtension>
        </extensions>
      </trkpt>
      <trkpt lat="43.18097" lon="6.19035">
        <ele>259.20001220703</ele>
        <time>2023-05-24T11:11:55.000Z</time>
        <extensions>
          <gpxtpx:TrackPointExtension xmlns:gpxtpx="http://www.garmin.com/xmlschemas/TrackPointExtension/v1">
            <gpxtpx:hr>133</gpxtpx:hr>
          </gpxtpx:TrackPointExtension>
        </extensions>
      </trkpt>
      <trkpt lat="43.18097" lon="6.19035">
        <ele>259.20001220703</ele>
        <time>2023-05-24T11:12:08.000Z</time>
        <extensions>
          <gpxtpx:TrackPointExtension xmlns:gpxtpx="http://www.garmin.com/xmlschemas/TrackPointExtension/v1">
            <gpxtpx:hr>131</gpxtpx:hr>
          </gpxtpx:TrackPointExtension>
        </extensions>
      </trkpt>
      <trkpt lat="43.18097" lon="6.19035">
        <ele>259.20001220703</ele>
        <time>2023-05-24T11:12:27.000Z</time>
        <extensions>
          <gpxtpx:TrackPointExtension xmlns:gpxtpx="http://www.garmin.com/xmlschemas/TrackPointExtension/v1">
            <gpxtpx:hr>130</gpxtpx:hr>
          </gpxtpx:TrackPointExtension>
        </extensions>
      </trkpt>
      <trkpt lat="43.18097" lon="6.19035">
        <ele>259.20001220703</ele>
        <time>2023-05-24T11:12:33.000Z</time>
        <extensions>
          <gpxtpx:TrackPointExtension xmlns:gpxtpx="http://www.garmin.com/xmlschemas/TrackPointExtension/v1">
            <gpxtpx:hr>126</gpxtpx:hr>
          </gpxtpx:TrackPointExtension>
        </extensions>
      </trkpt>
      <trkpt lat="43.18097" lon="6.19035">
        <ele>259.20001220703</ele>
        <time>2023-05-24T11:12:40.000Z</time>
        <extensions>
          <gpxtpx:TrackPointExtension xmlns:gpxtpx="http://www.garmin.com/xmlschemas/TrackPointExtension/v1">
            <gpxtpx:hr>127</gpxtpx:hr>
          </gpxtpx:TrackPointExtension>
        </extensions>
      </trkpt>
      <trkpt lat="43.18097" lon="6.19035">
        <ele>259.20001220703</ele>
        <time>2023-05-24T11:12:46.000Z</time>
        <extensions>
          <gpxtpx:TrackPointExtension xmlns:gpxtpx="http://www.garmin.com/xmlschemas/TrackPointExtension/v1">
            <gpxtpx:hr>123</gpxtpx:hr>
          </gpxtpx:TrackPointExtension>
        </extensions>
      </trkpt>
      <trkpt lat="43.18097" lon="6.19035">
        <ele>259.20001220703</ele>
        <time>2023-05-24T11:13:00.000Z</time>
        <extensions>
          <gpxtpx:TrackPointExtension xmlns:gpxtpx="http://www.garmin.com/xmlschemas/TrackPointExtension/v1">
            <gpxtpx:hr>122</gpxtpx:hr>
          </gpxtpx:TrackPointExtension>
        </extensions>
      </trkpt>
      <trkpt lat="43.18097" lon="6.19035">
        <ele>259.20001220703</ele>
        <time>2023-05-24T11:13:12.000Z</time>
        <extensions>
          <gpxtpx:TrackPointExtension xmlns:gpxtpx="http://www.garmin.com/xmlschemas/TrackPointExtension/v1">
            <gpxtpx:hr>120</gpxtpx:hr>
          </gpxtpx:TrackPointExtension>
        </extensions>
      </trkpt>
      <trkpt lat="43.18097" lon="6.19035">
        <ele>259.20001220703</ele>
        <time>2023-05-24T11:13:24.000Z</time>
        <extensions>
          <gpxtpx:TrackPointExtension xmlns:gpxtpx="http://www.garmin.com/xmlschemas/TrackPointExtension/v1">
            <gpxtpx:hr>117</gpxtpx:hr>
          </gpxtpx:TrackPointExtension>
        </extensions>
      </trkpt>
      <trkpt lat="43.18097" lon="6.19035">
        <ele>259.20001220703</ele>
        <time>2023-05-24T11:13:25.000Z</time>
        <extensions>
          <gpxtpx:TrackPointExtension xmlns:gpxtpx="http://www.garmin.com/xmlschemas/TrackPointExtension/v1">
            <gpxtpx:hr>117</gpxtpx:hr>
          </gpxtpx:TrackPointExtension>
        </extensions>
      </trkpt>
      <trkpt lat="43.18097" lon="6.19035">
        <ele>259.20001220703</ele>
        <time>2023-05-24T11:13:40.000Z</time>
        <extensions>
          <gpxtpx:TrackPointExtension xmlns:gpxtpx="http://www.garmin.com/xmlschemas/TrackPointExtension/v1">
            <gpxtpx:hr>118</gpxtpx:hr>
          </gpxtpx:TrackPointExtension>
        </extensions>
      </trkpt>
      <trkpt lat="43.18097" lon="6.19035">
        <ele>259.20001220703</ele>
        <time>2023-05-24T11:13:58.000Z</time>
        <extensions>
          <gpxtpx:TrackPointExtension xmlns:gpxtpx="http://www.garmin.com/xmlschemas/TrackPointExtension/v1">
            <gpxtpx:hr>116</gpxtpx:hr>
          </gpxtpx:TrackPointExtension>
        </extensions>
      </trkpt>
      <trkpt lat="43.18097" lon="6.19035">
        <ele>259.20001220703</ele>
        <time>2023-05-24T11:14:04.000Z</time>
        <extensions>
          <gpxtpx:TrackPointExtension xmlns:gpxtpx="http://www.garmin.com/xmlschemas/TrackPointExtension/v1">
            <gpxtpx:hr>113</gpxtpx:hr>
          </gpxtpx:TrackPointExtension>
        </extensions>
      </trkpt>
      <trkpt lat="43.18097" lon="6.19035">
        <ele>259.20001220703</ele>
        <time>2023-05-24T11:14:16.000Z</time>
        <extensions>
          <gpxtpx:TrackPointExtension xmlns:gpxtpx="http://www.garmin.com/xmlschemas/TrackPointExtension/v1">
            <gpxtpx:hr>114</gpxtpx:hr>
          </gpxtpx:TrackPointExtension>
        </extensions>
      </trkpt>
      <trkpt lat="43.18097" lon="6.19035">
        <ele>259.20001220703</ele>
        <time>2023-05-24T11:14:34.000Z</time>
        <extensions>
          <gpxtpx:TrackPointExtension xmlns:gpxtpx="http://www.garmin.com/xmlschemas/TrackPointExtension/v1">
            <gpxtpx:hr>117</gpxtpx:hr>
          </gpxtpx:TrackPointExtension>
        </extensions>
      </trkpt>
      <trkpt lat="43.181" lon="6.19042">
        <ele>259</ele>
        <time>2023-05-24T11:14:39.000Z</time>
        <extensions>
          <gpxtpx:TrackPointExtension xmlns:gpxtpx="http://www.garmin.com/xmlschemas/TrackPointExtension/v1">
            <gpxtpx:hr>117</gpxtpx:hr>
          </gpxtpx:TrackPointExtension>
        </extensions>
      </trkpt>
      <trkpt lat="43.18103" lon="6.1906">
        <ele>257.60000610352</ele>
        <time>2023-05-24T11:14:44.000Z</time>
        <extensions>
          <gpxtpx:TrackPointExtension xmlns:gpxtpx="http://www.garmin.com/xmlschemas/TrackPointExtension/v1">
            <gpxtpx:hr>117</gpxtpx:hr>
          </gpxtpx:TrackPointExtension>
        </extensions>
      </trkpt>
      <trkpt lat="43.18098" lon="6.19078">
        <ele>255.19999694824</ele>
        <time>2023-05-24T11:14:48.000Z</time>
        <extensions>
          <gpxtpx:TrackPointExtension xmlns:gpxtpx="http://www.garmin.com/xmlschemas/TrackPointExtension/v1">
            <gpxtpx:hr>116</gpxtpx:hr>
          </gpxtpx:TrackPointExtension>
        </extensions>
      </trkpt>
      <trkpt lat="43.18088" lon="6.19111">
        <ele>248.80000305176</ele>
        <time>2023-05-24T11:14:54.000Z</time>
        <extensions>
          <gpxtpx:TrackPointExtension xmlns:gpxtpx="http://www.garmin.com/xmlschemas/TrackPointExtension/v1">
            <gpxtpx:hr>116</gpxtpx:hr>
          </gpxtpx:TrackPointExtension>
        </extensions>
      </trkpt>
      <trkpt lat="43.18087" lon="6.19117">
        <ele>247.60000610352</ele>
        <time>2023-05-24T11:14:55.000Z</time>
        <extensions>
          <gpxtpx:TrackPointExtension xmlns:gpxtpx="http://www.garmin.com/xmlschemas/TrackPointExtension/v1">
            <gpxtpx:hr>116</gpxtpx:hr>
          </gpxtpx:TrackPointExtension>
        </extensions>
      </trkpt>
      <trkpt lat="43.18086" lon="6.1914">
        <ele>244.60000610352</ele>
        <time>2023-05-24T11:14:58.000Z</time>
        <extensions>
          <gpxtpx:TrackPointExtension xmlns:gpxtpx="http://www.garmin.com/xmlschemas/TrackPointExtension/v1">
            <gpxtpx:hr>116</gpxtpx:hr>
          </gpxtpx:TrackPointExtension>
        </extensions>
      </trkpt>
      <trkpt lat="43.1809" lon="6.19181">
        <ele>241</ele>
        <time>2023-05-24T11:15:02.000Z</time>
        <extensions>
          <gpxtpx:TrackPointExtension xmlns:gpxtpx="http://www.garmin.com/xmlschemas/TrackPointExtension/v1">
            <gpxtpx:hr>116</gpxtpx:hr>
          </gpxtpx:TrackPointExtension>
        </extensions>
      </trkpt>
      <trkpt lat="43.18092" lon="6.19237">
        <ele>238.19999694824</ele>
        <time>2023-05-24T11:15:07.000Z</time>
        <extensions>
          <gpxtpx:TrackPointExtension xmlns:gpxtpx="http://www.garmin.com/xmlschemas/TrackPointExtension/v1">
            <gpxtpx:hr>116</gpxtpx:hr>
          </gpxtpx:TrackPointExtension>
        </extensions>
      </trkpt>
      <trkpt lat="43.18096" lon="6.19299">
        <ele>232.39999389648</ele>
        <time>2023-05-24T11:15:13.000Z</time>
        <extensions>
          <gpxtpx:TrackPointExtension xmlns:gpxtpx="http://www.garmin.com/xmlschemas/TrackPointExtension/v1">
            <gpxtpx:hr>116</gpxtpx:hr>
          </gpxtpx:TrackPointExtension>
        </extensions>
      </trkpt>
      <trkpt lat="43.18101" lon="6.19357">
        <ele>231.39999389648</ele>
        <time>2023-05-24T11:15:18.000Z</time>
        <extensions>
          <gpxtpx:TrackPointExtension xmlns:gpxtpx="http://www.garmin.com/xmlschemas/TrackPointExtension/v1">
            <gpxtpx:hr>115</gpxtpx:hr>
          </gpxtpx:TrackPointExtension>
        </extensions>
      </trkpt>
      <trkpt lat="43.18113" lon="6.19397">
        <ele>231.39999389648</ele>
        <time>2023-05-24T11:15:22.000Z</time>
        <extensions>
          <gpxtpx:TrackPointExtension xmlns:gpxtpx="http://www.garmin.com/xmlschemas/TrackPointExtension/v1">
            <gpxtpx:hr>115</gpxtpx:hr>
          </gpxtpx:TrackPointExtension>
        </extensions>
      </trkpt>
      <trkpt lat="43.18117" lon="6.19408">
        <ele>230.80000305176</ele>
        <time>2023-05-24T11:15:23.000Z</time>
        <extensions>
          <gpxtpx:TrackPointExtension xmlns:gpxtpx="http://www.garmin.com/xmlschemas/TrackPointExtension/v1">
            <gpxtpx:hr>116</gpxtpx:hr>
          </gpxtpx:TrackPointExtension>
        </extensions>
      </trkpt>
      <trkpt lat="43.18118" lon="6.19414">
        <ele>231.39999389648</ele>
        <time>2023-05-24T11:15:25.000Z</time>
        <extensions>
          <gpxtpx:TrackPointExtension xmlns:gpxtpx="http://www.garmin.com/xmlschemas/TrackPointExtension/v1">
            <gpxtpx:hr>117</gpxtpx:hr>
          </gpxtpx:TrackPointExtension>
        </extensions>
      </trkpt>
      <trkpt lat="43.18119" lon="6.19419">
        <ele>231.80000305176</ele>
        <time>2023-05-24T11:15:26.000Z</time>
        <extensions>
          <gpxtpx:TrackPointExtension xmlns:gpxtpx="http://www.garmin.com/xmlschemas/TrackPointExtension/v1">
            <gpxtpx:hr>122</gpxtpx:hr>
          </gpxtpx:TrackPointExtension>
        </extensions>
      </trkpt>
      <trkpt lat="43.18121" lon="6.19425">
        <ele>232.39999389648</ele>
        <time>2023-05-24T11:15:27.000Z</time>
        <extensions>
          <gpxtpx:TrackPointExtension xmlns:gpxtpx="http://www.garmin.com/xmlschemas/TrackPointExtension/v1">
            <gpxtpx:hr>121</gpxtpx:hr>
          </gpxtpx:TrackPointExtension>
        </extensions>
      </trkpt>
      <trkpt lat="43.18123" lon="6.19447">
        <ele>232.39999389648</ele>
        <time>2023-05-24T11:15:30.000Z</time>
        <extensions>
          <gpxtpx:TrackPointExtension xmlns:gpxtpx="http://www.garmin.com/xmlschemas/TrackPointExtension/v1">
            <gpxtpx:hr>122</gpxtpx:hr>
          </gpxtpx:TrackPointExtension>
        </extensions>
      </trkpt>
      <trkpt lat="43.18127" lon="6.19476">
        <ele>232.19999694824</ele>
        <time>2023-05-24T11:15:34.000Z</time>
        <extensions>
          <gpxtpx:TrackPointExtension xmlns:gpxtpx="http://www.garmin.com/xmlschemas/TrackPointExtension/v1">
            <gpxtpx:hr>123</gpxtpx:hr>
          </gpxtpx:TrackPointExtension>
        </extensions>
      </trkpt>
      <trkpt lat="43.18127" lon="6.19483">
        <ele>232.19999694824</ele>
        <time>2023-05-24T11:15:35.000Z</time>
        <extensions>
          <gpxtpx:TrackPointExtension xmlns:gpxtpx="http://www.garmin.com/xmlschemas/TrackPointExtension/v1">
            <gpxtpx:hr>123</gpxtpx:hr>
          </gpxtpx:TrackPointExtension>
        </extensions>
      </trkpt>
      <trkpt lat="43.18125" lon="6.1949">
        <ele>232.39999389648</ele>
        <time>2023-05-24T11:15:36.000Z</time>
        <extensions>
          <gpxtpx:TrackPointExtension xmlns:gpxtpx="http://www.garmin.com/xmlschemas/TrackPointExtension/v1">
            <gpxtpx:hr>123</gpxtpx:hr>
          </gpxtpx:TrackPointExtension>
        </extensions>
      </trkpt>
      <trkpt lat="43.18119" lon="6.19504">
        <ele>231.80000305176</ele>
        <time>2023-05-24T11:15:38.000Z</time>
        <extensions>
          <gpxtpx:TrackPointExtension xmlns:gpxtpx="http://www.garmin.com/xmlschemas/TrackPointExtension/v1">
            <gpxtpx:hr>123</gpxtpx:hr>
          </gpxtpx:TrackPointExtension>
        </extensions>
      </trkpt>
      <trkpt lat="43.18103" lon="6.19539">
        <ele>234</ele>
        <time>2023-05-24T11:15:43.000Z</time>
        <extensions>
          <gpxtpx:TrackPointExtension xmlns:gpxtpx="http://www.garmin.com/xmlschemas/TrackPointExtension/v1">
            <gpxtpx:hr>124</gpxtpx:hr>
          </gpxtpx:TrackPointExtension>
        </extensions>
      </trkpt>
      <trkpt lat="43.181" lon="6.19559">
        <ele>232.60000610352</ele>
        <time>2023-05-24T11:15:46.000Z</time>
        <extensions>
          <gpxtpx:TrackPointExtension xmlns:gpxtpx="http://www.garmin.com/xmlschemas/TrackPointExtension/v1">
            <gpxtpx:hr>126</gpxtpx:hr>
          </gpxtpx:TrackPointExtension>
        </extensions>
      </trkpt>
      <trkpt lat="43.18099" lon="6.19571">
        <ele>231.19999694824</ele>
        <time>2023-05-24T11:15:48.000Z</time>
        <extensions>
          <gpxtpx:TrackPointExtension xmlns:gpxtpx="http://www.garmin.com/xmlschemas/TrackPointExtension/v1">
            <gpxtpx:hr>127</gpxtpx:hr>
          </gpxtpx:TrackPointExtension>
        </extensions>
      </trkpt>
      <trkpt lat="43.18099" lon="6.19586">
        <ele>230</ele>
        <time>2023-05-24T11:15:50.000Z</time>
        <extensions>
          <gpxtpx:TrackPointExtension xmlns:gpxtpx="http://www.garmin.com/xmlschemas/TrackPointExtension/v1">
            <gpxtpx:hr>128</gpxtpx:hr>
          </gpxtpx:TrackPointExtension>
        </extensions>
      </trkpt>
      <trkpt lat="43.18102" lon="6.19602">
        <ele>228.19999694824</ele>
        <time>2023-05-24T11:15:52.000Z</time>
        <extensions>
          <gpxtpx:TrackPointExtension xmlns:gpxtpx="http://www.garmin.com/xmlschemas/TrackPointExtension/v1">
            <gpxtpx:hr>129</gpxtpx:hr>
          </gpxtpx:TrackPointExtension>
        </extensions>
      </trkpt>
      <trkpt lat="43.18116" lon="6.19635">
        <ele>223</ele>
        <time>2023-05-24T11:15:57.000Z</time>
        <extensions>
          <gpxtpx:TrackPointExtension xmlns:gpxtpx="http://www.garmin.com/xmlschemas/TrackPointExtension/v1">
            <gpxtpx:hr>131</gpxtpx:hr>
          </gpxtpx:TrackPointExtension>
        </extensions>
      </trkpt>
      <trkpt lat="43.18118" lon="6.19643">
        <ele>222.80000305176</ele>
        <time>2023-05-24T11:15:58.000Z</time>
        <extensions>
          <gpxtpx:TrackPointExtension xmlns:gpxtpx="http://www.garmin.com/xmlschemas/TrackPointExtension/v1">
            <gpxtpx:hr>131</gpxtpx:hr>
          </gpxtpx:TrackPointExtension>
        </extensions>
      </trkpt>
      <trkpt lat="43.18123" lon="6.19666">
        <ele>222</ele>
        <time>2023-05-24T11:16:01.000Z</time>
        <extensions>
          <gpxtpx:TrackPointExtension xmlns:gpxtpx="http://www.garmin.com/xmlschemas/TrackPointExtension/v1">
            <gpxtpx:hr>130</gpxtpx:hr>
          </gpxtpx:TrackPointExtension>
        </extensions>
      </trkpt>
      <trkpt lat="43.18123" lon="6.19674">
        <ele>222</ele>
        <time>2023-05-24T11:16:02.000Z</time>
        <extensions>
          <gpxtpx:TrackPointExtension xmlns:gpxtpx="http://www.garmin.com/xmlschemas/TrackPointExtension/v1">
            <gpxtpx:hr>130</gpxtpx:hr>
          </gpxtpx:TrackPointExtension>
        </extensions>
      </trkpt>
      <trkpt lat="43.18119" lon="6.19699">
        <ele>221</ele>
        <time>2023-05-24T11:16:05.000Z</time>
        <extensions>
          <gpxtpx:TrackPointExtension xmlns:gpxtpx="http://www.garmin.com/xmlschemas/TrackPointExtension/v1">
            <gpxtpx:hr>130</gpxtpx:hr>
          </gpxtpx:TrackPointExtension>
        </extensions>
      </trkpt>
      <trkpt lat="43.18117" lon="6.19709">
        <ele>221</ele>
        <time>2023-05-24T11:16:06.000Z</time>
        <extensions>
          <gpxtpx:TrackPointExtension xmlns:gpxtpx="http://www.garmin.com/xmlschemas/TrackPointExtension/v1">
            <gpxtpx:hr>130</gpxtpx:hr>
          </gpxtpx:TrackPointExtension>
        </extensions>
      </trkpt>
      <trkpt lat="43.18113" lon="6.19729">
        <ele>220</ele>
        <time>2023-05-24T11:16:08.000Z</time>
        <extensions>
          <gpxtpx:TrackPointExtension xmlns:gpxtpx="http://www.garmin.com/xmlschemas/TrackPointExtension/v1">
            <gpxtpx:hr>129</gpxtpx:hr>
          </gpxtpx:TrackPointExtension>
        </extensions>
      </trkpt>
      <trkpt lat="43.18114" lon="6.19748">
        <ele>218.19999694824</ele>
        <time>2023-05-24T11:16:10.000Z</time>
        <extensions>
          <gpxtpx:TrackPointExtension xmlns:gpxtpx="http://www.garmin.com/xmlschemas/TrackPointExtension/v1">
            <gpxtpx:hr>129</gpxtpx:hr>
          </gpxtpx:TrackPointExtension>
        </extensions>
      </trkpt>
      <trkpt lat="43.18118" lon="6.19779">
        <ele>217.80000305176</ele>
        <time>2023-05-24T11:16:14.000Z</time>
        <extensions>
          <gpxtpx:TrackPointExtension xmlns:gpxtpx="http://www.garmin.com/xmlschemas/TrackPointExtension/v1">
            <gpxtpx:hr>129</gpxtpx:hr>
          </gpxtpx:TrackPointExtension>
        </extensions>
      </trkpt>
      <trkpt lat="43.18121" lon="6.19809">
        <ele>217.80000305176</ele>
        <time>2023-05-24T11:16:18.000Z</time>
        <extensions>
          <gpxtpx:TrackPointExtension xmlns:gpxtpx="http://www.garmin.com/xmlschemas/TrackPointExtension/v1">
            <gpxtpx:hr>132</gpxtpx:hr>
          </gpxtpx:TrackPointExtension>
        </extensions>
      </trkpt>
      <trkpt lat="43.18122" lon="6.19817">
        <ele>218.19999694824</ele>
        <time>2023-05-24T11:16:19.000Z</time>
        <extensions>
          <gpxtpx:TrackPointExtension xmlns:gpxtpx="http://www.garmin.com/xmlschemas/TrackPointExtension/v1">
            <gpxtpx:hr>130</gpxtpx:hr>
          </gpxtpx:TrackPointExtension>
        </extensions>
      </trkpt>
      <trkpt lat="43.18122" lon="6.19849">
        <ele>218.60000610352</ele>
        <time>2023-05-24T11:16:23.000Z</time>
        <extensions>
          <gpxtpx:TrackPointExtension xmlns:gpxtpx="http://www.garmin.com/xmlschemas/TrackPointExtension/v1">
            <gpxtpx:hr>133</gpxtpx:hr>
          </gpxtpx:TrackPointExtension>
        </extensions>
      </trkpt>
      <trkpt lat="43.18122" lon="6.19872">
        <ele>218.19999694824</ele>
        <time>2023-05-24T11:16:26.000Z</time>
        <extensions>
          <gpxtpx:TrackPointExtension xmlns:gpxtpx="http://www.garmin.com/xmlschemas/TrackPointExtension/v1">
            <gpxtpx:hr>132</gpxtpx:hr>
          </gpxtpx:TrackPointExtension>
        </extensions>
      </trkpt>
      <trkpt lat="43.18122" lon="6.19888">
        <ele>218.80000305176</ele>
        <time>2023-05-24T11:16:28.000Z</time>
        <extensions>
          <gpxtpx:TrackPointExtension xmlns:gpxtpx="http://www.garmin.com/xmlschemas/TrackPointExtension/v1">
            <gpxtpx:hr>137</gpxtpx:hr>
          </gpxtpx:TrackPointExtension>
        </extensions>
      </trkpt>
      <trkpt lat="43.18121" lon="6.19903">
        <ele>219</ele>
        <time>2023-05-24T11:16:30.000Z</time>
        <extensions>
          <gpxtpx:TrackPointExtension xmlns:gpxtpx="http://www.garmin.com/xmlschemas/TrackPointExtension/v1">
            <gpxtpx:hr>134</gpxtpx:hr>
          </gpxtpx:TrackPointExtension>
        </extensions>
      </trkpt>
      <trkpt lat="43.18121" lon="6.19924">
        <ele>217.80000305176</ele>
        <time>2023-05-24T11:16:33.000Z</time>
        <extensions>
          <gpxtpx:TrackPointExtension xmlns:gpxtpx="http://www.garmin.com/xmlschemas/TrackPointExtension/v1">
            <gpxtpx:hr>133</gpxtpx:hr>
          </gpxtpx:TrackPointExtension>
        </extensions>
      </trkpt>
      <trkpt lat="43.18117" lon="6.19954">
        <ele>217.19999694824</ele>
        <time>2023-05-24T11:16:38.000Z</time>
        <extensions>
          <gpxtpx:TrackPointExtension xmlns:gpxtpx="http://www.garmin.com/xmlschemas/TrackPointExtension/v1">
            <gpxtpx:hr>135</gpxtpx:hr>
          </gpxtpx:TrackPointExtension>
        </extensions>
      </trkpt>
      <trkpt lat="43.18115" lon="6.19962">
        <ele>217.19999694824</ele>
        <time>2023-05-24T11:16:39.000Z</time>
        <extensions>
          <gpxtpx:TrackPointExtension xmlns:gpxtpx="http://www.garmin.com/xmlschemas/TrackPointExtension/v1">
            <gpxtpx:hr>134</gpxtpx:hr>
          </gpxtpx:TrackPointExtension>
        </extensions>
      </trkpt>
      <trkpt lat="43.18102" lon="6.20005">
        <ele>217</ele>
        <time>2023-05-24T11:16:44.000Z</time>
        <extensions>
          <gpxtpx:TrackPointExtension xmlns:gpxtpx="http://www.garmin.com/xmlschemas/TrackPointExtension/v1">
            <gpxtpx:hr>134</gpxtpx:hr>
          </gpxtpx:TrackPointExtension>
        </extensions>
      </trkpt>
      <trkpt lat="43.18092" lon="6.20028">
        <ele>214.80000305176</ele>
        <time>2023-05-24T11:16:47.000Z</time>
        <extensions>
          <gpxtpx:TrackPointExtension xmlns:gpxtpx="http://www.garmin.com/xmlschemas/TrackPointExtension/v1">
            <gpxtpx:hr>134</gpxtpx:hr>
          </gpxtpx:TrackPointExtension>
        </extensions>
      </trkpt>
      <trkpt lat="43.18083" lon="6.20043">
        <ele>214.60000610352</ele>
        <time>2023-05-24T11:16:49.000Z</time>
        <extensions>
          <gpxtpx:TrackPointExtension xmlns:gpxtpx="http://www.garmin.com/xmlschemas/TrackPointExtension/v1">
            <gpxtpx:hr>135</gpxtpx:hr>
          </gpxtpx:TrackPointExtension>
        </extensions>
      </trkpt>
      <trkpt lat="43.1805" lon="6.20091">
        <ele>211.80000305176</ele>
        <time>2023-05-24T11:16:55.000Z</time>
        <extensions>
          <gpxtpx:TrackPointExtension xmlns:gpxtpx="http://www.garmin.com/xmlschemas/TrackPointExtension/v1">
            <gpxtpx:hr>134</gpxtpx:hr>
          </gpxtpx:TrackPointExtension>
        </extensions>
      </trkpt>
      <trkpt lat="43.18039" lon="6.20125">
        <ele>209.19999694824</ele>
        <time>2023-05-24T11:16:58.000Z</time>
        <extensions>
          <gpxtpx:TrackPointExtension xmlns:gpxtpx="http://www.garmin.com/xmlschemas/TrackPointExtension/v1">
            <gpxtpx:hr>133</gpxtpx:hr>
          </gpxtpx:TrackPointExtension>
        </extensions>
      </trkpt>
      <trkpt lat="43.18029" lon="6.20161">
        <ele>207.60000610352</ele>
        <time>2023-05-24T11:17:02.000Z</time>
        <extensions>
          <gpxtpx:TrackPointExtension xmlns:gpxtpx="http://www.garmin.com/xmlschemas/TrackPointExtension/v1">
            <gpxtpx:hr>132</gpxtpx:hr>
          </gpxtpx:TrackPointExtension>
        </extensions>
      </trkpt>
      <trkpt lat="43.18026" lon="6.20168">
        <ele>207.60000610352</ele>
        <time>2023-05-24T11:17:03.000Z</time>
        <extensions>
          <gpxtpx:TrackPointExtension xmlns:gpxtpx="http://www.garmin.com/xmlschemas/TrackPointExtension/v1">
            <gpxtpx:hr>132</gpxtpx:hr>
          </gpxtpx:TrackPointExtension>
        </extensions>
      </trkpt>
      <trkpt lat="43.18023" lon="6.20178">
        <ele>207.80000305176</ele>
        <time>2023-05-24T11:17:05.000Z</time>
        <extensions>
          <gpxtpx:TrackPointExtension xmlns:gpxtpx="http://www.garmin.com/xmlschemas/TrackPointExtension/v1">
            <gpxtpx:hr>131</gpxtpx:hr>
          </gpxtpx:TrackPointExtension>
        </extensions>
      </trkpt>
      <trkpt lat="43.18019" lon="6.20189">
        <ele>207.60000610352</ele>
        <time>2023-05-24T11:17:09.000Z</time>
        <extensions>
          <gpxtpx:TrackPointExtension xmlns:gpxtpx="http://www.garmin.com/xmlschemas/TrackPointExtension/v1">
            <gpxtpx:hr>130</gpxtpx:hr>
          </gpxtpx:TrackPointExtension>
        </extensions>
      </trkpt>
      <trkpt lat="43.1802" lon="6.20208">
        <ele>205.39999389648</ele>
        <time>2023-05-24T11:17:13.000Z</time>
        <extensions>
          <gpxtpx:TrackPointExtension xmlns:gpxtpx="http://www.garmin.com/xmlschemas/TrackPointExtension/v1">
            <gpxtpx:hr>129</gpxtpx:hr>
          </gpxtpx:TrackPointExtension>
        </extensions>
      </trkpt>
      <trkpt lat="43.18021" lon="6.20242">
        <ele>201.80000305176</ele>
        <time>2023-05-24T11:17:17.000Z</time>
        <extensions>
          <gpxtpx:TrackPointExtension xmlns:gpxtpx="http://www.garmin.com/xmlschemas/TrackPointExtension/v1">
            <gpxtpx:hr>128</gpxtpx:hr>
          </gpxtpx:TrackPointExtension>
        </extensions>
      </trkpt>
      <trkpt lat="43.18018" lon="6.20288">
        <ele>194.39999389648</ele>
        <time>2023-05-24T11:17:21.000Z</time>
        <extensions>
          <gpxtpx:TrackPointExtension xmlns:gpxtpx="http://www.garmin.com/xmlschemas/TrackPointExtension/v1">
            <gpxtpx:hr>128</gpxtpx:hr>
          </gpxtpx:TrackPointExtension>
        </extensions>
      </trkpt>
      <trkpt lat="43.18021" lon="6.20337">
        <ele>190.80000305176</ele>
        <time>2023-05-24T11:17:25.000Z</time>
        <extensions>
          <gpxtpx:TrackPointExtension xmlns:gpxtpx="http://www.garmin.com/xmlschemas/TrackPointExtension/v1">
            <gpxtpx:hr>127</gpxtpx:hr>
          </gpxtpx:TrackPointExtension>
        </extensions>
      </trkpt>
      <trkpt lat="43.18023" lon="6.20354">
        <ele>190.80000305176</ele>
        <time>2023-05-24T11:17:27.000Z</time>
        <extensions>
          <gpxtpx:TrackPointExtension xmlns:gpxtpx="http://www.garmin.com/xmlschemas/TrackPointExtension/v1">
            <gpxtpx:hr>127</gpxtpx:hr>
          </gpxtpx:TrackPointExtension>
        </extensions>
      </trkpt>
      <trkpt lat="43.18024" lon="6.20361">
        <ele>191.19999694824</ele>
        <time>2023-05-24T11:17:28.000Z</time>
        <extensions>
          <gpxtpx:TrackPointExtension xmlns:gpxtpx="http://www.garmin.com/xmlschemas/TrackPointExtension/v1">
            <gpxtpx:hr>127</gpxtpx:hr>
          </gpxtpx:TrackPointExtension>
        </extensions>
      </trkpt>
      <trkpt lat="43.18023" lon="6.20396">
        <ele>192.19999694824</ele>
        <time>2023-05-24T11:17:32.000Z</time>
        <extensions>
          <gpxtpx:TrackPointExtension xmlns:gpxtpx="http://www.garmin.com/xmlschemas/TrackPointExtension/v1">
            <gpxtpx:hr>127</gpxtpx:hr>
          </gpxtpx:TrackPointExtension>
        </extensions>
      </trkpt>
      <trkpt lat="43.18023" lon="6.20413">
        <ele>192.39999389648</ele>
        <time>2023-05-24T11:17:34.000Z</time>
        <extensions>
          <gpxtpx:TrackPointExtension xmlns:gpxtpx="http://www.garmin.com/xmlschemas/TrackPointExtension/v1">
            <gpxtpx:hr>126</gpxtpx:hr>
          </gpxtpx:TrackPointExtension>
        </extensions>
      </trkpt>
      <trkpt lat="43.18027" lon="6.20426">
        <ele>192.60000610352</ele>
        <time>2023-05-24T11:17:36.000Z</time>
        <extensions>
          <gpxtpx:TrackPointExtension xmlns:gpxtpx="http://www.garmin.com/xmlschemas/TrackPointExtension/v1">
            <gpxtpx:hr>129</gpxtpx:hr>
          </gpxtpx:TrackPointExtension>
        </extensions>
      </trkpt>
      <trkpt lat="43.18045" lon="6.20448">
        <ele>193.39999389648</ele>
        <time>2023-05-24T11:17:41.000Z</time>
        <extensions>
          <gpxtpx:TrackPointExtension xmlns:gpxtpx="http://www.garmin.com/xmlschemas/TrackPointExtension/v1">
            <gpxtpx:hr>131</gpxtpx:hr>
          </gpxtpx:TrackPointExtension>
        </extensions>
      </trkpt>
      <trkpt lat="43.18066" lon="6.20477">
        <ele>192.60000610352</ele>
        <time>2023-05-24T11:17:47.000Z</time>
        <extensions>
          <gpxtpx:TrackPointExtension xmlns:gpxtpx="http://www.garmin.com/xmlschemas/TrackPointExtension/v1">
            <gpxtpx:hr>130</gpxtpx:hr>
          </gpxtpx:TrackPointExtension>
        </extensions>
      </trkpt>
      <trkpt lat="43.1807" lon="6.20484">
        <ele>192.80000305176</ele>
        <time>2023-05-24T11:17:48.000Z</time>
        <extensions>
          <gpxtpx:TrackPointExtension xmlns:gpxtpx="http://www.garmin.com/xmlschemas/TrackPointExtension/v1">
            <gpxtpx:hr>130</gpxtpx:hr>
          </gpxtpx:TrackPointExtension>
        </extensions>
      </trkpt>
      <trkpt lat="43.18084" lon="6.2051">
        <ele>193</ele>
        <time>2023-05-24T11:17:52.000Z</time>
        <extensions>
          <gpxtpx:TrackPointExtension xmlns:gpxtpx="http://www.garmin.com/xmlschemas/TrackPointExtension/v1">
            <gpxtpx:hr>130</gpxtpx:hr>
          </gpxtpx:TrackPointExtension>
        </extensions>
      </trkpt>
      <trkpt lat="43.18093" lon="6.20521">
        <ele>193.39999389648</ele>
        <time>2023-05-24T11:17:54.000Z</time>
        <extensions>
          <gpxtpx:TrackPointExtension xmlns:gpxtpx="http://www.garmin.com/xmlschemas/TrackPointExtension/v1">
            <gpxtpx:hr>131</gpxtpx:hr>
          </gpxtpx:TrackPointExtension>
        </extensions>
      </trkpt>
      <trkpt lat="43.18118" lon="6.20555">
        <ele>194.80000305176</ele>
        <time>2023-05-24T11:18:00.000Z</time>
        <extensions>
          <gpxtpx:TrackPointExtension xmlns:gpxtpx="http://www.garmin.com/xmlschemas/TrackPointExtension/v1">
            <gpxtpx:hr>131</gpxtpx:hr>
          </gpxtpx:TrackPointExtension>
        </extensions>
      </trkpt>
      <trkpt lat="43.18135" lon="6.2058">
        <ele>194.60000610352</ele>
        <time>2023-05-24T11:18:05.000Z</time>
        <extensions>
          <gpxtpx:TrackPointExtension xmlns:gpxtpx="http://www.garmin.com/xmlschemas/TrackPointExtension/v1">
            <gpxtpx:hr>131</gpxtpx:hr>
          </gpxtpx:TrackPointExtension>
        </extensions>
      </trkpt>
      <trkpt lat="43.18138" lon="6.20585">
        <ele>193.80000305176</ele>
        <time>2023-05-24T11:18:06.000Z</time>
        <extensions>
          <gpxtpx:TrackPointExtension xmlns:gpxtpx="http://www.garmin.com/xmlschemas/TrackPointExtension/v1">
            <gpxtpx:hr>131</gpxtpx:hr>
          </gpxtpx:TrackPointExtension>
        </extensions>
      </trkpt>
      <trkpt lat="43.18148" lon="6.20601">
        <ele>190.39999389648</ele>
        <time>2023-05-24T11:18:10.000Z</time>
        <extensions>
          <gpxtpx:TrackPointExtension xmlns:gpxtpx="http://www.garmin.com/xmlschemas/TrackPointExtension/v1">
            <gpxtpx:hr>131</gpxtpx:hr>
          </gpxtpx:TrackPointExtension>
        </extensions>
      </trkpt>
      <trkpt lat="43.18162" lon="6.20618">
        <ele>186.39999389648</ele>
        <time>2023-05-24T11:18:14.000Z</time>
        <extensions>
          <gpxtpx:TrackPointExtension xmlns:gpxtpx="http://www.garmin.com/xmlschemas/TrackPointExtension/v1">
            <gpxtpx:hr>132</gpxtpx:hr>
          </gpxtpx:TrackPointExtension>
        </extensions>
      </trkpt>
      <trkpt lat="43.18167" lon="6.20622">
        <ele>185.19999694824</ele>
        <time>2023-05-24T11:18:15.000Z</time>
        <extensions>
          <gpxtpx:TrackPointExtension xmlns:gpxtpx="http://www.garmin.com/xmlschemas/TrackPointExtension/v1">
            <gpxtpx:hr>133</gpxtpx:hr>
          </gpxtpx:TrackPointExtension>
        </extensions>
      </trkpt>
      <trkpt lat="43.18175" lon="6.20632">
        <ele>183</ele>
        <time>2023-05-24T11:18:17.000Z</time>
        <extensions>
          <gpxtpx:TrackPointExtension xmlns:gpxtpx="http://www.garmin.com/xmlschemas/TrackPointExtension/v1">
            <gpxtpx:hr>133</gpxtpx:hr>
          </gpxtpx:TrackPointExtension>
        </extensions>
      </trkpt>
      <trkpt lat="43.18182" lon="6.20644">
        <ele>181.39999389648</ele>
        <time>2023-05-24T11:18:19.000Z</time>
        <extensions>
          <gpxtpx:TrackPointExtension xmlns:gpxtpx="http://www.garmin.com/xmlschemas/TrackPointExtension/v1">
            <gpxtpx:hr>132</gpxtpx:hr>
          </gpxtpx:TrackPointExtension>
        </extensions>
      </trkpt>
      <trkpt lat="43.18207" lon="6.20689">
        <ele>174.80000305176</ele>
        <time>2023-05-24T11:18:25.000Z</time>
        <extensions>
          <gpxtpx:TrackPointExtension xmlns:gpxtpx="http://www.garmin.com/xmlschemas/TrackPointExtension/v1">
            <gpxtpx:hr>131</gpxtpx:hr>
          </gpxtpx:TrackPointExtension>
        </extensions>
      </trkpt>
      <trkpt lat="43.18233" lon="6.20739">
        <ele>169.80000305176</ele>
        <time>2023-05-24T11:18:31.000Z</time>
        <extensions>
          <gpxtpx:TrackPointExtension xmlns:gpxtpx="http://www.garmin.com/xmlschemas/TrackPointExtension/v1">
            <gpxtpx:hr>129</gpxtpx:hr>
          </gpxtpx:TrackPointExtension>
        </extensions>
      </trkpt>
      <trkpt lat="43.18262" lon="6.20784">
        <ele>168.19999694824</ele>
        <time>2023-05-24T11:18:36.000Z</time>
        <extensions>
          <gpxtpx:TrackPointExtension xmlns:gpxtpx="http://www.garmin.com/xmlschemas/TrackPointExtension/v1">
            <gpxtpx:hr>126</gpxtpx:hr>
          </gpxtpx:TrackPointExtension>
        </extensions>
      </trkpt>
      <trkpt lat="43.18275" lon="6.20808">
        <ele>166.60000610352</ele>
        <time>2023-05-24T11:18:39.000Z</time>
        <extensions>
          <gpxtpx:TrackPointExtension xmlns:gpxtpx="http://www.garmin.com/xmlschemas/TrackPointExtension/v1">
            <gpxtpx:hr>126</gpxtpx:hr>
          </gpxtpx:TrackPointExtension>
        </extensions>
      </trkpt>
      <trkpt lat="43.18277" lon="6.20815">
        <ele>166</ele>
        <time>2023-05-24T11:18:40.000Z</time>
        <extensions>
          <gpxtpx:TrackPointExtension xmlns:gpxtpx="http://www.garmin.com/xmlschemas/TrackPointExtension/v1">
            <gpxtpx:hr>125</gpxtpx:hr>
          </gpxtpx:TrackPointExtension>
        </extensions>
      </trkpt>
      <trkpt lat="43.18294" lon="6.20861">
        <ele>161.80000305176</ele>
        <time>2023-05-24T11:18:46.000Z</time>
        <extensions>
          <gpxtpx:TrackPointExtension xmlns:gpxtpx="http://www.garmin.com/xmlschemas/TrackPointExtension/v1">
            <gpxtpx:hr>124</gpxtpx:hr>
          </gpxtpx:TrackPointExtension>
        </extensions>
      </trkpt>
      <trkpt lat="43.1831" lon="6.20893">
        <ele>160.60000610352</ele>
        <time>2023-05-24T11:18:50.000Z</time>
        <extensions>
          <gpxtpx:TrackPointExtension xmlns:gpxtpx="http://www.garmin.com/xmlschemas/TrackPointExtension/v1">
            <gpxtpx:hr>124</gpxtpx:hr>
          </gpxtpx:TrackPointExtension>
        </extensions>
      </trkpt>
      <trkpt lat="43.1833" lon="6.20911">
        <ele>159.19999694824</ele>
        <time>2023-05-24T11:18:54.000Z</time>
        <extensions>
          <gpxtpx:TrackPointExtension xmlns:gpxtpx="http://www.garmin.com/xmlschemas/TrackPointExtension/v1">
            <gpxtpx:hr>123</gpxtpx:hr>
          </gpxtpx:TrackPointExtension>
        </extensions>
      </trkpt>
      <trkpt lat="43.18339" lon="6.20919">
        <ele>157.39999389648</ele>
        <time>2023-05-24T11:18:56.000Z</time>
        <extensions>
          <gpxtpx:TrackPointExtension xmlns:gpxtpx="http://www.garmin.com/xmlschemas/TrackPointExtension/v1">
            <gpxtpx:hr>123</gpxtpx:hr>
          </gpxtpx:TrackPointExtension>
        </extensions>
      </trkpt>
      <trkpt lat="43.18347" lon="6.20929">
        <ele>156</ele>
        <time>2023-05-24T11:18:58.000Z</time>
        <extensions>
          <gpxtpx:TrackPointExtension xmlns:gpxtpx="http://www.garmin.com/xmlschemas/TrackPointExtension/v1">
            <gpxtpx:hr>123</gpxtpx:hr>
          </gpxtpx:TrackPointExtension>
        </extensions>
      </trkpt>
      <trkpt lat="43.18364" lon="6.20969">
        <ele>149.60000610352</ele>
        <time>2023-05-24T11:19:04.000Z</time>
        <extensions>
          <gpxtpx:TrackPointExtension xmlns:gpxtpx="http://www.garmin.com/xmlschemas/TrackPointExtension/v1">
            <gpxtpx:hr>122</gpxtpx:hr>
          </gpxtpx:TrackPointExtension>
        </extensions>
      </trkpt>
      <trkpt lat="43.18366" lon="6.20988">
        <ele>147.60000610352</ele>
        <time>2023-05-24T11:19:08.000Z</time>
        <extensions>
          <gpxtpx:TrackPointExtension xmlns:gpxtpx="http://www.garmin.com/xmlschemas/TrackPointExtension/v1">
            <gpxtpx:hr>121</gpxtpx:hr>
          </gpxtpx:TrackPointExtension>
        </extensions>
      </trkpt>
      <trkpt lat="43.18366" lon="6.20992">
        <ele>147</ele>
        <time>2023-05-24T11:19:11.000Z</time>
        <extensions>
          <gpxtpx:TrackPointExtension xmlns:gpxtpx="http://www.garmin.com/xmlschemas/TrackPointExtension/v1">
            <gpxtpx:hr>121</gpxtpx:hr>
          </gpxtpx:TrackPointExtension>
        </extensions>
      </trkpt>
      <trkpt lat="43.18366" lon="6.20992">
        <ele>147</ele>
        <time>2023-05-24T11:19:20.000Z</time>
        <extensions>
          <gpxtpx:TrackPointExtension xmlns:gpxtpx="http://www.garmin.com/xmlschemas/TrackPointExtension/v1">
            <gpxtpx:hr>122</gpxtpx:hr>
          </gpxtpx:TrackPointExtension>
        </extensions>
      </trkpt>
      <trkpt lat="43.18366" lon="6.20992">
        <ele>147</ele>
        <time>2023-05-24T11:19:33.000Z</time>
        <extensions>
          <gpxtpx:TrackPointExtension xmlns:gpxtpx="http://www.garmin.com/xmlschemas/TrackPointExtension/v1">
            <gpxtpx:hr>119</gpxtpx:hr>
          </gpxtpx:TrackPointExtension>
        </extensions>
      </trkpt>
      <trkpt lat="43.18366" lon="6.20992">
        <ele>147</ele>
        <time>2023-05-24T11:19:35.000Z</time>
        <extensions>
          <gpxtpx:TrackPointExtension xmlns:gpxtpx="http://www.garmin.com/xmlschemas/TrackPointExtension/v1">
            <gpxtpx:hr>119</gpxtpx:hr>
          </gpxtpx:TrackPointExtension>
        </extensions>
      </trkpt>
      <trkpt lat="43.18365" lon="6.20993">
        <ele>146.80000305176</ele>
        <time>2023-05-24T11:19:51.000Z</time>
        <extensions>
          <gpxtpx:TrackPointExtension xmlns:gpxtpx="http://www.garmin.com/xmlschemas/TrackPointExtension/v1">
            <gpxtpx:hr>122</gpxtpx:hr>
          </gpxtpx:TrackPointExtension>
        </extensions>
      </trkpt>
      <trkpt lat="43.18367" lon="6.21004">
        <ele>144.80000305176</ele>
        <time>2023-05-24T11:19:54.000Z</time>
        <extensions>
          <gpxtpx:TrackPointExtension xmlns:gpxtpx="http://www.garmin.com/xmlschemas/TrackPointExtension/v1">
            <gpxtpx:hr>123</gpxtpx:hr>
          </gpxtpx:TrackPointExtension>
        </extensions>
      </trkpt>
      <trkpt lat="43.1837" lon="6.21024">
        <ele>141.39999389648</ele>
        <time>2023-05-24T11:19:57.000Z</time>
        <extensions>
          <gpxtpx:TrackPointExtension xmlns:gpxtpx="http://www.garmin.com/xmlschemas/TrackPointExtension/v1">
            <gpxtpx:hr>122</gpxtpx:hr>
          </gpxtpx:TrackPointExtension>
        </extensions>
      </trkpt>
      <trkpt lat="43.1837" lon="6.21037">
        <ele>139.39999389648</ele>
        <time>2023-05-24T11:19:59.000Z</time>
        <extensions>
          <gpxtpx:TrackPointExtension xmlns:gpxtpx="http://www.garmin.com/xmlschemas/TrackPointExtension/v1">
            <gpxtpx:hr>120</gpxtpx:hr>
          </gpxtpx:TrackPointExtension>
        </extensions>
      </trkpt>
      <trkpt lat="43.18368" lon="6.21059">
        <ele>135.39999389648</ele>
        <time>2023-05-24T11:20:03.000Z</time>
        <extensions>
          <gpxtpx:TrackPointExtension xmlns:gpxtpx="http://www.garmin.com/xmlschemas/TrackPointExtension/v1">
            <gpxtpx:hr>118</gpxtpx:hr>
          </gpxtpx:TrackPointExtension>
        </extensions>
      </trkpt>
      <trkpt lat="43.18366" lon="6.2107">
        <ele>133.39999389648</ele>
        <time>2023-05-24T11:20:05.000Z</time>
        <extensions>
          <gpxtpx:TrackPointExtension xmlns:gpxtpx="http://www.garmin.com/xmlschemas/TrackPointExtension/v1">
            <gpxtpx:hr>118</gpxtpx:hr>
          </gpxtpx:TrackPointExtension>
        </extensions>
      </trkpt>
      <trkpt lat="43.18363" lon="6.21092">
        <ele>130.19999694824</ele>
        <time>2023-05-24T11:20:09.000Z</time>
        <extensions>
          <gpxtpx:TrackPointExtension xmlns:gpxtpx="http://www.garmin.com/xmlschemas/TrackPointExtension/v1">
            <gpxtpx:hr>118</gpxtpx:hr>
          </gpxtpx:TrackPointExtension>
        </extensions>
      </trkpt>
      <trkpt lat="43.18358" lon="6.21122">
        <ele>125.19999694824</ele>
        <time>2023-05-24T11:20:14.000Z</time>
        <extensions>
          <gpxtpx:TrackPointExtension xmlns:gpxtpx="http://www.garmin.com/xmlschemas/TrackPointExtension/v1">
            <gpxtpx:hr>119</gpxtpx:hr>
          </gpxtpx:TrackPointExtension>
        </extensions>
      </trkpt>
      <trkpt lat="43.18354" lon="6.21148">
        <ele>120</ele>
        <time>2023-05-24T11:20:18.000Z</time>
        <extensions>
          <gpxtpx:TrackPointExtension xmlns:gpxtpx="http://www.garmin.com/xmlschemas/TrackPointExtension/v1">
            <gpxtpx:hr>119</gpxtpx:hr>
          </gpxtpx:TrackPointExtension>
        </extensions>
      </trkpt>
      <trkpt lat="43.18351" lon="6.2116">
        <ele>117.59999847412</ele>
        <time>2023-05-24T11:20:20.000Z</time>
        <extensions>
          <gpxtpx:TrackPointExtension xmlns:gpxtpx="http://www.garmin.com/xmlschemas/TrackPointExtension/v1">
            <gpxtpx:hr>118</gpxtpx:hr>
          </gpxtpx:TrackPointExtension>
        </extensions>
      </trkpt>
      <trkpt lat="43.1835" lon="6.21166">
        <ele>116.19999694824</ele>
        <time>2023-05-24T11:20:21.000Z</time>
        <extensions>
          <gpxtpx:TrackPointExtension xmlns:gpxtpx="http://www.garmin.com/xmlschemas/TrackPointExtension/v1">
            <gpxtpx:hr>118</gpxtpx:hr>
          </gpxtpx:TrackPointExtension>
        </extensions>
      </trkpt>
      <trkpt lat="43.18346" lon="6.21198">
        <ele>110.40000152588</ele>
        <time>2023-05-24T11:20:27.000Z</time>
        <extensions>
          <gpxtpx:TrackPointExtension xmlns:gpxtpx="http://www.garmin.com/xmlschemas/TrackPointExtension/v1">
            <gpxtpx:hr>117</gpxtpx:hr>
          </gpxtpx:TrackPointExtension>
        </extensions>
      </trkpt>
      <trkpt lat="43.1834" lon="6.21227">
        <ele>104</ele>
        <time>2023-05-24T11:20:33.000Z</time>
        <extensions>
          <gpxtpx:TrackPointExtension xmlns:gpxtpx="http://www.garmin.com/xmlschemas/TrackPointExtension/v1">
            <gpxtpx:hr>118</gpxtpx:hr>
          </gpxtpx:TrackPointExtension>
        </extensions>
      </trkpt>
      <trkpt lat="43.18341" lon="6.21249">
        <ele>100.59999847412</ele>
        <time>2023-05-24T11:20:37.000Z</time>
        <extensions>
          <gpxtpx:TrackPointExtension xmlns:gpxtpx="http://www.garmin.com/xmlschemas/TrackPointExtension/v1">
            <gpxtpx:hr>119</gpxtpx:hr>
          </gpxtpx:TrackPointExtension>
        </extensions>
      </trkpt>
      <trkpt lat="43.18335" lon="6.21284">
        <ele>94.599998474121</ele>
        <time>2023-05-24T11:20:42.000Z</time>
        <extensions>
          <gpxtpx:TrackPointExtension xmlns:gpxtpx="http://www.garmin.com/xmlschemas/TrackPointExtension/v1">
            <gpxtpx:hr>121</gpxtpx:hr>
          </gpxtpx:TrackPointExtension>
        </extensions>
      </trkpt>
      <trkpt lat="43.18327" lon="6.21321">
        <ele>87.800003051758</ele>
        <time>2023-05-24T11:20:47.000Z</time>
        <extensions>
          <gpxtpx:TrackPointExtension xmlns:gpxtpx="http://www.garmin.com/xmlschemas/TrackPointExtension/v1">
            <gpxtpx:hr>122</gpxtpx:hr>
          </gpxtpx:TrackPointExtension>
        </extensions>
      </trkpt>
      <trkpt lat="43.18323" lon="6.21347">
        <ele>85.400001525879</ele>
        <time>2023-05-24T11:20:50.000Z</time>
        <extensions>
          <gpxtpx:TrackPointExtension xmlns:gpxtpx="http://www.garmin.com/xmlschemas/TrackPointExtension/v1">
            <gpxtpx:hr>122</gpxtpx:hr>
          </gpxtpx:TrackPointExtension>
        </extensions>
      </trkpt>
      <trkpt lat="43.18319" lon="6.21362">
        <ele>83.599998474121</ele>
        <time>2023-05-24T11:20:52.000Z</time>
        <extensions>
          <gpxtpx:TrackPointExtension xmlns:gpxtpx="http://www.garmin.com/xmlschemas/TrackPointExtension/v1">
            <gpxtpx:hr>122</gpxtpx:hr>
          </gpxtpx:TrackPointExtension>
        </extensions>
      </trkpt>
      <trkpt lat="43.18314" lon="6.21386">
        <ele>81.199996948242</ele>
        <time>2023-05-24T11:20:55.000Z</time>
        <extensions>
          <gpxtpx:TrackPointExtension xmlns:gpxtpx="http://www.garmin.com/xmlschemas/TrackPointExtension/v1">
            <gpxtpx:hr>122</gpxtpx:hr>
          </gpxtpx:TrackPointExtension>
        </extensions>
      </trkpt>
      <trkpt lat="43.18307" lon="6.21397">
        <ele>80</ele>
        <time>2023-05-24T11:20:57.000Z</time>
        <extensions>
          <gpxtpx:TrackPointExtension xmlns:gpxtpx="http://www.garmin.com/xmlschemas/TrackPointExtension/v1">
            <gpxtpx:hr>122</gpxtpx:hr>
          </gpxtpx:TrackPointExtension>
        </extensions>
      </trkpt>
      <trkpt lat="43.18297" lon="6.21407">
        <ele>78.199996948242</ele>
        <time>2023-05-24T11:20:59.000Z</time>
        <extensions>
          <gpxtpx:TrackPointExtension xmlns:gpxtpx="http://www.garmin.com/xmlschemas/TrackPointExtension/v1">
            <gpxtpx:hr>122</gpxtpx:hr>
          </gpxtpx:TrackPointExtension>
        </extensions>
      </trkpt>
      <trkpt lat="43.18292" lon="6.21418">
        <ele>76.800003051758</ele>
        <time>2023-05-24T11:21:01.000Z</time>
        <extensions>
          <gpxtpx:TrackPointExtension xmlns:gpxtpx="http://www.garmin.com/xmlschemas/TrackPointExtension/v1">
            <gpxtpx:hr>122</gpxtpx:hr>
          </gpxtpx:TrackPointExtension>
        </extensions>
      </trkpt>
      <trkpt lat="43.18292" lon="6.21422">
        <ele>76.199996948242</ele>
        <time>2023-05-24T11:21:02.000Z</time>
        <extensions>
          <gpxtpx:TrackPointExtension xmlns:gpxtpx="http://www.garmin.com/xmlschemas/TrackPointExtension/v1">
            <gpxtpx:hr>122</gpxtpx:hr>
          </gpxtpx:TrackPointExtension>
        </extensions>
      </trkpt>
      <trkpt lat="43.18296" lon="6.2143">
        <ele>75.599998474121</ele>
        <time>2023-05-24T11:21:04.000Z</time>
        <extensions>
          <gpxtpx:TrackPointExtension xmlns:gpxtpx="http://www.garmin.com/xmlschemas/TrackPointExtension/v1">
            <gpxtpx:hr>122</gpxtpx:hr>
          </gpxtpx:TrackPointExtension>
        </extensions>
      </trkpt>
      <trkpt lat="43.18298" lon="6.21431">
        <ele>75.599998474121</ele>
        <time>2023-05-24T11:21:05.000Z</time>
        <extensions>
          <gpxtpx:TrackPointExtension xmlns:gpxtpx="http://www.garmin.com/xmlschemas/TrackPointExtension/v1">
            <gpxtpx:hr>122</gpxtpx:hr>
          </gpxtpx:TrackPointExtension>
        </extensions>
      </trkpt>
      <trkpt lat="43.18305" lon="6.21433">
        <ele>76</ele>
        <time>2023-05-24T11:21:07.000Z</time>
        <extensions>
          <gpxtpx:TrackPointExtension xmlns:gpxtpx="http://www.garmin.com/xmlschemas/TrackPointExtension/v1">
            <gpxtpx:hr>122</gpxtpx:hr>
          </gpxtpx:TrackPointExtension>
        </extensions>
      </trkpt>
      <trkpt lat="43.18317" lon="6.21438">
        <ele>76.199996948242</ele>
        <time>2023-05-24T11:21:10.000Z</time>
        <extensions>
          <gpxtpx:TrackPointExtension xmlns:gpxtpx="http://www.garmin.com/xmlschemas/TrackPointExtension/v1">
            <gpxtpx:hr>123</gpxtpx:hr>
          </gpxtpx:TrackPointExtension>
        </extensions>
      </trkpt>
      <trkpt lat="43.18326" lon="6.21447">
        <ele>75.599998474121</ele>
        <time>2023-05-24T11:21:13.000Z</time>
        <extensions>
          <gpxtpx:TrackPointExtension xmlns:gpxtpx="http://www.garmin.com/xmlschemas/TrackPointExtension/v1">
            <gpxtpx:hr>123</gpxtpx:hr>
          </gpxtpx:TrackPointExtension>
        </extensions>
      </trkpt>
      <trkpt lat="43.18326" lon="6.21459">
        <ele>73.800003051758</ele>
        <time>2023-05-24T11:21:16.000Z</time>
        <extensions>
          <gpxtpx:TrackPointExtension xmlns:gpxtpx="http://www.garmin.com/xmlschemas/TrackPointExtension/v1">
            <gpxtpx:hr>121</gpxtpx:hr>
          </gpxtpx:TrackPointExtension>
        </extensions>
      </trkpt>
      <trkpt lat="43.18321" lon="6.21471">
        <ele>72</ele>
        <time>2023-05-24T11:21:20.000Z</time>
        <extensions>
          <gpxtpx:TrackPointExtension xmlns:gpxtpx="http://www.garmin.com/xmlschemas/TrackPointExtension/v1">
            <gpxtpx:hr>119</gpxtpx:hr>
          </gpxtpx:TrackPointExtension>
        </extensions>
      </trkpt>
      <trkpt lat="43.18319" lon="6.21475">
        <ele>71.599998474121</ele>
        <time>2023-05-24T11:21:24.000Z</time>
        <extensions>
          <gpxtpx:TrackPointExtension xmlns:gpxtpx="http://www.garmin.com/xmlschemas/TrackPointExtension/v1">
            <gpxtpx:hr>118</gpxtpx:hr>
          </gpxtpx:TrackPointExtension>
        </extensions>
      </trkpt>
      <trkpt lat="43.1831" lon="6.21479">
        <ele>70.800003051758</ele>
        <time>2023-05-24T11:21:28.000Z</time>
        <extensions>
          <gpxtpx:TrackPointExtension xmlns:gpxtpx="http://www.garmin.com/xmlschemas/TrackPointExtension/v1">
            <gpxtpx:hr>120</gpxtpx:hr>
          </gpxtpx:TrackPointExtension>
        </extensions>
      </trkpt>
      <trkpt lat="43.18289" lon="6.21481">
        <ele>70</ele>
        <time>2023-05-24T11:21:33.000Z</time>
        <extensions>
          <gpxtpx:TrackPointExtension xmlns:gpxtpx="http://www.garmin.com/xmlschemas/TrackPointExtension/v1">
            <gpxtpx:hr>120</gpxtpx:hr>
          </gpxtpx:TrackPointExtension>
        </extensions>
      </trkpt>
      <trkpt lat="43.18256" lon="6.21484">
        <ele>68.800003051758</ele>
        <time>2023-05-24T11:21:40.000Z</time>
        <extensions>
          <gpxtpx:TrackPointExtension xmlns:gpxtpx="http://www.garmin.com/xmlschemas/TrackPointExtension/v1">
            <gpxtpx:hr>121</gpxtpx:hr>
          </gpxtpx:TrackPointExtension>
        </extensions>
      </trkpt>
      <trkpt lat="43.1821" lon="6.21486">
        <ele>68.199996948242</ele>
        <time>2023-05-24T11:21:48.000Z</time>
        <extensions>
          <gpxtpx:TrackPointExtension xmlns:gpxtpx="http://www.garmin.com/xmlschemas/TrackPointExtension/v1">
            <gpxtpx:hr>121</gpxtpx:hr>
          </gpxtpx:TrackPointExtension>
        </extensions>
      </trkpt>
      <trkpt lat="43.18181" lon="6.21485">
        <ele>68.199996948242</ele>
        <time>2023-05-24T11:21:53.000Z</time>
        <extensions>
          <gpxtpx:TrackPointExtension xmlns:gpxtpx="http://www.garmin.com/xmlschemas/TrackPointExtension/v1">
            <gpxtpx:hr>123</gpxtpx:hr>
          </gpxtpx:TrackPointExtension>
        </extensions>
      </trkpt>
      <trkpt lat="43.18132" lon="6.21479">
        <ele>67.599998474121</ele>
        <time>2023-05-24T11:22:01.000Z</time>
        <extensions>
          <gpxtpx:TrackPointExtension xmlns:gpxtpx="http://www.garmin.com/xmlschemas/TrackPointExtension/v1">
            <gpxtpx:hr>125</gpxtpx:hr>
          </gpxtpx:TrackPointExtension>
        </extensions>
      </trkpt>
      <trkpt lat="43.18096" lon="6.2147">
        <ele>66.599998474121</ele>
        <time>2023-05-24T11:22:07.000Z</time>
        <extensions>
          <gpxtpx:TrackPointExtension xmlns:gpxtpx="http://www.garmin.com/xmlschemas/TrackPointExtension/v1">
            <gpxtpx:hr>127</gpxtpx:hr>
          </gpxtpx:TrackPointExtension>
        </extensions>
      </trkpt>
      <trkpt lat="43.18068" lon="6.21449">
        <ele>66.199996948242</ele>
        <time>2023-05-24T11:22:12.000Z</time>
        <extensions>
          <gpxtpx:TrackPointExtension xmlns:gpxtpx="http://www.garmin.com/xmlschemas/TrackPointExtension/v1">
            <gpxtpx:hr>129</gpxtpx:hr>
          </gpxtpx:TrackPointExtension>
        </extensions>
      </trkpt>
      <trkpt lat="43.18033" lon="6.2141">
        <ele>66.400001525879</ele>
        <time>2023-05-24T11:22:19.000Z</time>
        <extensions>
          <gpxtpx:TrackPointExtension xmlns:gpxtpx="http://www.garmin.com/xmlschemas/TrackPointExtension/v1">
            <gpxtpx:hr>130</gpxtpx:hr>
          </gpxtpx:TrackPointExtension>
        </extensions>
      </trkpt>
      <trkpt lat="43.17994" lon="6.21372">
        <ele>66.199996948242</ele>
        <time>2023-05-24T11:22:26.000Z</time>
        <extensions>
          <gpxtpx:TrackPointExtension xmlns:gpxtpx="http://www.garmin.com/xmlschemas/TrackPointExtension/v1">
            <gpxtpx:hr>132</gpxtpx:hr>
          </gpxtpx:TrackPointExtension>
        </extensions>
      </trkpt>
      <trkpt lat="43.17957" lon="6.21348">
        <ele>66.199996948242</ele>
        <time>2023-05-24T11:22:32.000Z</time>
        <extensions>
          <gpxtpx:TrackPointExtension xmlns:gpxtpx="http://www.garmin.com/xmlschemas/TrackPointExtension/v1">
            <gpxtpx:hr>133</gpxtpx:hr>
          </gpxtpx:TrackPointExtension>
        </extensions>
      </trkpt>
      <trkpt lat="43.17915" lon="6.21328">
        <ele>66.199996948242</ele>
        <time>2023-05-24T11:22:39.000Z</time>
        <extensions>
          <gpxtpx:TrackPointExtension xmlns:gpxtpx="http://www.garmin.com/xmlschemas/TrackPointExtension/v1">
            <gpxtpx:hr>135</gpxtpx:hr>
          </gpxtpx:TrackPointExtension>
        </extensions>
      </trkpt>
      <trkpt lat="43.17896" lon="6.21322">
        <ele>65.800003051758</ele>
        <time>2023-05-24T11:22:42.000Z</time>
        <extensions>
          <gpxtpx:TrackPointExtension xmlns:gpxtpx="http://www.garmin.com/xmlschemas/TrackPointExtension/v1">
            <gpxtpx:hr>135</gpxtpx:hr>
          </gpxtpx:TrackPointExtension>
        </extensions>
      </trkpt>
      <trkpt lat="43.17884" lon="6.21323">
        <ele>65.400001525879</ele>
        <time>2023-05-24T11:22:44.000Z</time>
        <extensions>
          <gpxtpx:TrackPointExtension xmlns:gpxtpx="http://www.garmin.com/xmlschemas/TrackPointExtension/v1">
            <gpxtpx:hr>136</gpxtpx:hr>
          </gpxtpx:TrackPointExtension>
        </extensions>
      </trkpt>
      <trkpt lat="43.17865" lon="6.21328">
        <ele>65.400001525879</ele>
        <time>2023-05-24T11:22:47.000Z</time>
        <extensions>
          <gpxtpx:TrackPointExtension xmlns:gpxtpx="http://www.garmin.com/xmlschemas/TrackPointExtension/v1">
            <gpxtpx:hr>136</gpxtpx:hr>
          </gpxtpx:TrackPointExtension>
        </extensions>
      </trkpt>
      <trkpt lat="43.17852" lon="6.21334">
        <ele>65</ele>
        <time>2023-05-24T11:22:49.000Z</time>
        <extensions>
          <gpxtpx:TrackPointExtension xmlns:gpxtpx="http://www.garmin.com/xmlschemas/TrackPointExtension/v1">
            <gpxtpx:hr>136</gpxtpx:hr>
          </gpxtpx:TrackPointExtension>
        </extensions>
      </trkpt>
      <trkpt lat="43.17825" lon="6.21361">
        <ele>63.799999237061</ele>
        <time>2023-05-24T11:22:54.000Z</time>
        <extensions>
          <gpxtpx:TrackPointExtension xmlns:gpxtpx="http://www.garmin.com/xmlschemas/TrackPointExtension/v1">
            <gpxtpx:hr>136</gpxtpx:hr>
          </gpxtpx:TrackPointExtension>
        </extensions>
      </trkpt>
      <trkpt lat="43.17792" lon="6.21405">
        <ele>64.400001525879</ele>
        <time>2023-05-24T11:23:01.000Z</time>
        <extensions>
          <gpxtpx:TrackPointExtension xmlns:gpxtpx="http://www.garmin.com/xmlschemas/TrackPointExtension/v1">
            <gpxtpx:hr>136</gpxtpx:hr>
          </gpxtpx:TrackPointExtension>
        </extensions>
      </trkpt>
      <trkpt lat="43.17767" lon="6.2143">
        <ele>63.599998474121</ele>
        <time>2023-05-24T11:23:06.000Z</time>
        <extensions>
          <gpxtpx:TrackPointExtension xmlns:gpxtpx="http://www.garmin.com/xmlschemas/TrackPointExtension/v1">
            <gpxtpx:hr>136</gpxtpx:hr>
          </gpxtpx:TrackPointExtension>
        </extensions>
      </trkpt>
      <trkpt lat="43.17735" lon="6.21455">
        <ele>61.799999237061</ele>
        <time>2023-05-24T11:23:12.000Z</time>
        <extensions>
          <gpxtpx:TrackPointExtension xmlns:gpxtpx="http://www.garmin.com/xmlschemas/TrackPointExtension/v1">
            <gpxtpx:hr>136</gpxtpx:hr>
          </gpxtpx:TrackPointExtension>
        </extensions>
      </trkpt>
      <trkpt lat="43.17686" lon="6.21494">
        <ele>60</ele>
        <time>2023-05-24T11:23:21.000Z</time>
        <extensions>
          <gpxtpx:TrackPointExtension xmlns:gpxtpx="http://www.garmin.com/xmlschemas/TrackPointExtension/v1">
            <gpxtpx:hr>136</gpxtpx:hr>
          </gpxtpx:TrackPointExtension>
        </extensions>
      </trkpt>
      <trkpt lat="43.17681" lon="6.21499">
        <ele>60.200000762939</ele>
        <time>2023-05-24T11:23:22.000Z</time>
        <extensions>
          <gpxtpx:TrackPointExtension xmlns:gpxtpx="http://www.garmin.com/xmlschemas/TrackPointExtension/v1">
            <gpxtpx:hr>136</gpxtpx:hr>
          </gpxtpx:TrackPointExtension>
        </extensions>
      </trkpt>
      <trkpt lat="43.17633" lon="6.21537">
        <ele>58.799999237061</ele>
        <time>2023-05-24T11:23:31.000Z</time>
        <extensions>
          <gpxtpx:TrackPointExtension xmlns:gpxtpx="http://www.garmin.com/xmlschemas/TrackPointExtension/v1">
            <gpxtpx:hr>136</gpxtpx:hr>
          </gpxtpx:TrackPointExtension>
        </extensions>
      </trkpt>
      <trkpt lat="43.176" lon="6.21558">
        <ele>58.599998474121</ele>
        <time>2023-05-24T11:23:37.000Z</time>
        <extensions>
          <gpxtpx:TrackPointExtension xmlns:gpxtpx="http://www.garmin.com/xmlschemas/TrackPointExtension/v1">
            <gpxtpx:hr>137</gpxtpx:hr>
          </gpxtpx:TrackPointExtension>
        </extensions>
      </trkpt>
      <trkpt lat="43.17594" lon="6.2156">
        <ele>58.799999237061</ele>
        <time>2023-05-24T11:23:38.000Z</time>
        <extensions>
          <gpxtpx:TrackPointExtension xmlns:gpxtpx="http://www.garmin.com/xmlschemas/TrackPointExtension/v1">
            <gpxtpx:hr>137</gpxtpx:hr>
          </gpxtpx:TrackPointExtension>
        </extensions>
      </trkpt>
      <trkpt lat="43.1757" lon="6.21566">
        <ele>59.599998474121</ele>
        <time>2023-05-24T11:23:42.000Z</time>
        <extensions>
          <gpxtpx:TrackPointExtension xmlns:gpxtpx="http://www.garmin.com/xmlschemas/TrackPointExtension/v1">
            <gpxtpx:hr>137</gpxtpx:hr>
          </gpxtpx:TrackPointExtension>
        </extensions>
      </trkpt>
      <trkpt lat="43.17515" lon="6.21578">
        <ele>58.799999237061</ele>
        <time>2023-05-24T11:23:51.000Z</time>
        <extensions>
          <gpxtpx:TrackPointExtension xmlns:gpxtpx="http://www.garmin.com/xmlschemas/TrackPointExtension/v1">
            <gpxtpx:hr>136</gpxtpx:hr>
          </gpxtpx:TrackPointExtension>
        </extensions>
      </trkpt>
      <trkpt lat="43.17504" lon="6.2158">
        <ele>58.200000762939</ele>
        <time>2023-05-24T11:23:53.000Z</time>
        <extensions>
          <gpxtpx:TrackPointExtension xmlns:gpxtpx="http://www.garmin.com/xmlschemas/TrackPointExtension/v1">
            <gpxtpx:hr>136</gpxtpx:hr>
          </gpxtpx:TrackPointExtension>
        </extensions>
      </trkpt>
      <trkpt lat="43.17455" lon="6.21591">
        <ele>58</ele>
        <time>2023-05-24T11:24:01.000Z</time>
        <extensions>
          <gpxtpx:TrackPointExtension xmlns:gpxtpx="http://www.garmin.com/xmlschemas/TrackPointExtension/v1">
            <gpxtpx:hr>136</gpxtpx:hr>
          </gpxtpx:TrackPointExtension>
        </extensions>
      </trkpt>
      <trkpt lat="43.17401" lon="6.21598">
        <ele>58</ele>
        <time>2023-05-24T11:24:10.000Z</time>
        <extensions>
          <gpxtpx:TrackPointExtension xmlns:gpxtpx="http://www.garmin.com/xmlschemas/TrackPointExtension/v1">
            <gpxtpx:hr>136</gpxtpx:hr>
          </gpxtpx:TrackPointExtension>
        </extensions>
      </trkpt>
      <trkpt lat="43.17359" lon="6.21593">
        <ele>58.400001525879</ele>
        <time>2023-05-24T11:24:17.000Z</time>
        <extensions>
          <gpxtpx:TrackPointExtension xmlns:gpxtpx="http://www.garmin.com/xmlschemas/TrackPointExtension/v1">
            <gpxtpx:hr>136</gpxtpx:hr>
          </gpxtpx:TrackPointExtension>
        </extensions>
      </trkpt>
      <trkpt lat="43.17322" lon="6.21586">
        <ele>57.599998474121</ele>
        <time>2023-05-24T11:24:23.000Z</time>
        <extensions>
          <gpxtpx:TrackPointExtension xmlns:gpxtpx="http://www.garmin.com/xmlschemas/TrackPointExtension/v1">
            <gpxtpx:hr>136</gpxtpx:hr>
          </gpxtpx:TrackPointExtension>
        </extensions>
      </trkpt>
      <trkpt lat="43.17292" lon="6.21581">
        <ele>58</ele>
        <time>2023-05-24T11:24:28.000Z</time>
        <extensions>
          <gpxtpx:TrackPointExtension xmlns:gpxtpx="http://www.garmin.com/xmlschemas/TrackPointExtension/v1">
            <gpxtpx:hr>136</gpxtpx:hr>
          </gpxtpx:TrackPointExtension>
        </extensions>
      </trkpt>
      <trkpt lat="43.17275" lon="6.21578">
        <ele>58.799999237061</ele>
        <time>2023-05-24T11:24:31.000Z</time>
        <extensions>
          <gpxtpx:TrackPointExtension xmlns:gpxtpx="http://www.garmin.com/xmlschemas/TrackPointExtension/v1">
            <gpxtpx:hr>135</gpxtpx:hr>
          </gpxtpx:TrackPointExtension>
        </extensions>
      </trkpt>
      <trkpt lat="43.17271" lon="6.21574">
        <ele>59</ele>
        <time>2023-05-24T11:24:32.000Z</time>
        <extensions>
          <gpxtpx:TrackPointExtension xmlns:gpxtpx="http://www.garmin.com/xmlschemas/TrackPointExtension/v1">
            <gpxtpx:hr>134</gpxtpx:hr>
          </gpxtpx:TrackPointExtension>
        </extensions>
      </trkpt>
      <trkpt lat="43.17274" lon="6.21559">
        <ele>58.799999237061</ele>
        <time>2023-05-24T11:24:35.000Z</time>
        <extensions>
          <gpxtpx:TrackPointExtension xmlns:gpxtpx="http://www.garmin.com/xmlschemas/TrackPointExtension/v1">
            <gpxtpx:hr>133</gpxtpx:hr>
          </gpxtpx:TrackPointExtension>
        </extensions>
      </trkpt>
      <trkpt lat="43.17283" lon="6.21534">
        <ele>59.400001525879</ele>
        <time>2023-05-24T11:24:40.000Z</time>
        <extensions>
          <gpxtpx:TrackPointExtension xmlns:gpxtpx="http://www.garmin.com/xmlschemas/TrackPointExtension/v1">
            <gpxtpx:hr>133</gpxtpx:hr>
          </gpxtpx:TrackPointExtension>
        </extensions>
      </trkpt>
      <trkpt lat="43.17286" lon="6.21523">
        <ele>60</ele>
        <time>2023-05-24T11:24:42.000Z</time>
        <extensions>
          <gpxtpx:TrackPointExtension xmlns:gpxtpx="http://www.garmin.com/xmlschemas/TrackPointExtension/v1">
            <gpxtpx:hr>133</gpxtpx:hr>
          </gpxtpx:TrackPointExtension>
        </extensions>
      </trkpt>
      <trkpt lat="43.17293" lon="6.21474">
        <ele>61.400001525879</ele>
        <time>2023-05-24T11:24:50.000Z</time>
        <extensions>
          <gpxtpx:TrackPointExtension xmlns:gpxtpx="http://www.garmin.com/xmlschemas/TrackPointExtension/v1">
            <gpxtpx:hr>134</gpxtpx:hr>
          </gpxtpx:TrackPointExtension>
        </extensions>
      </trkpt>
      <trkpt lat="43.17296" lon="6.21456">
        <ele>62.599998474121</ele>
        <time>2023-05-24T11:24:53.000Z</time>
        <extensions>
          <gpxtpx:TrackPointExtension xmlns:gpxtpx="http://www.garmin.com/xmlschemas/TrackPointExtension/v1">
            <gpxtpx:hr>134</gpxtpx:hr>
          </gpxtpx:TrackPointExtension>
        </extensions>
      </trkpt>
      <trkpt lat="43.173" lon="6.21434">
        <ele>64.199996948242</ele>
        <time>2023-05-24T11:24:57.000Z</time>
        <extensions>
          <gpxtpx:TrackPointExtension xmlns:gpxtpx="http://www.garmin.com/xmlschemas/TrackPointExtension/v1">
            <gpxtpx:hr>134</gpxtpx:hr>
          </gpxtpx:TrackPointExtension>
        </extensions>
      </trkpt>
      <trkpt lat="43.17306" lon="6.21403">
        <ele>65</ele>
        <time>2023-05-24T11:25:02.000Z</time>
        <extensions>
          <gpxtpx:TrackPointExtension xmlns:gpxtpx="http://www.garmin.com/xmlschemas/TrackPointExtension/v1">
            <gpxtpx:hr>133</gpxtpx:hr>
          </gpxtpx:TrackPointExtension>
        </extensions>
      </trkpt>
      <trkpt lat="43.1731" lon="6.21382">
        <ele>65.400001525879</ele>
        <time>2023-05-24T11:25:05.000Z</time>
        <extensions>
          <gpxtpx:TrackPointExtension xmlns:gpxtpx="http://www.garmin.com/xmlschemas/TrackPointExtension/v1">
            <gpxtpx:hr>132</gpxtpx:hr>
          </gpxtpx:TrackPointExtension>
        </extensions>
      </trkpt>
      <trkpt lat="43.17311" lon="6.21375">
        <ele>65.599998474121</ele>
        <time>2023-05-24T11:25:06.000Z</time>
        <extensions>
          <gpxtpx:TrackPointExtension xmlns:gpxtpx="http://www.garmin.com/xmlschemas/TrackPointExtension/v1">
            <gpxtpx:hr>132</gpxtpx:hr>
          </gpxtpx:TrackPointExtension>
        </extensions>
      </trkpt>
      <trkpt lat="43.17323" lon="6.2133">
        <ele>67</ele>
        <time>2023-05-24T11:25:12.000Z</time>
        <extensions>
          <gpxtpx:TrackPointExtension xmlns:gpxtpx="http://www.garmin.com/xmlschemas/TrackPointExtension/v1">
            <gpxtpx:hr>135</gpxtpx:hr>
          </gpxtpx:TrackPointExtension>
        </extensions>
      </trkpt>
      <trkpt lat="43.17328" lon="6.21317">
        <ele>67.199996948242</ele>
        <time>2023-05-24T11:25:14.000Z</time>
        <extensions>
          <gpxtpx:TrackPointExtension xmlns:gpxtpx="http://www.garmin.com/xmlschemas/TrackPointExtension/v1">
            <gpxtpx:hr>135</gpxtpx:hr>
          </gpxtpx:TrackPointExtension>
        </extensions>
      </trkpt>
      <trkpt lat="43.1733" lon="6.21311">
        <ele>67.199996948242</ele>
        <time>2023-05-24T11:25:15.000Z</time>
        <extensions>
          <gpxtpx:TrackPointExtension xmlns:gpxtpx="http://www.garmin.com/xmlschemas/TrackPointExtension/v1">
            <gpxtpx:hr>136</gpxtpx:hr>
          </gpxtpx:TrackPointExtension>
        </extensions>
      </trkpt>
      <trkpt lat="43.17336" lon="6.2129">
        <ele>67.400001525879</ele>
        <time>2023-05-24T11:25:18.000Z</time>
        <extensions>
          <gpxtpx:TrackPointExtension xmlns:gpxtpx="http://www.garmin.com/xmlschemas/TrackPointExtension/v1">
            <gpxtpx:hr>137</gpxtpx:hr>
          </gpxtpx:TrackPointExtension>
        </extensions>
      </trkpt>
      <trkpt lat="43.17337" lon="6.21283">
        <ele>67.400001525879</ele>
        <time>2023-05-24T11:25:19.000Z</time>
        <extensions>
          <gpxtpx:TrackPointExtension xmlns:gpxtpx="http://www.garmin.com/xmlschemas/TrackPointExtension/v1">
            <gpxtpx:hr>137</gpxtpx:hr>
          </gpxtpx:TrackPointExtension>
        </extensions>
      </trkpt>
      <trkpt lat="43.17337" lon="6.21276">
        <ele>67.400001525879</ele>
        <time>2023-05-24T11:25:20.000Z</time>
        <extensions>
          <gpxtpx:TrackPointExtension xmlns:gpxtpx="http://www.garmin.com/xmlschemas/TrackPointExtension/v1">
            <gpxtpx:hr>137</gpxtpx:hr>
          </gpxtpx:TrackPointExtension>
        </extensions>
      </trkpt>
      <trkpt lat="43.17338" lon="6.21243">
        <ele>67</ele>
        <time>2023-05-24T11:25:24.000Z</time>
        <extensions>
          <gpxtpx:TrackPointExtension xmlns:gpxtpx="http://www.garmin.com/xmlschemas/TrackPointExtension/v1">
            <gpxtpx:hr>136</gpxtpx:hr>
          </gpxtpx:TrackPointExtension>
        </extensions>
      </trkpt>
      <trkpt lat="43.17338" lon="6.21179">
        <ele>65.599998474121</ele>
        <time>2023-05-24T11:25:31.000Z</time>
        <extensions>
          <gpxtpx:TrackPointExtension xmlns:gpxtpx="http://www.garmin.com/xmlschemas/TrackPointExtension/v1">
            <gpxtpx:hr>136</gpxtpx:hr>
          </gpxtpx:TrackPointExtension>
        </extensions>
      </trkpt>
      <trkpt lat="43.17333" lon="6.21125">
        <ele>65.199996948242</ele>
        <time>2023-05-24T11:25:38.000Z</time>
        <extensions>
          <gpxtpx:TrackPointExtension xmlns:gpxtpx="http://www.garmin.com/xmlschemas/TrackPointExtension/v1">
            <gpxtpx:hr>137</gpxtpx:hr>
          </gpxtpx:TrackPointExtension>
        </extensions>
      </trkpt>
      <trkpt lat="43.17323" lon="6.21072">
        <ele>67.199996948242</ele>
        <time>2023-05-24T11:25:46.000Z</time>
        <extensions>
          <gpxtpx:TrackPointExtension xmlns:gpxtpx="http://www.garmin.com/xmlschemas/TrackPointExtension/v1">
            <gpxtpx:hr>138</gpxtpx:hr>
          </gpxtpx:TrackPointExtension>
        </extensions>
      </trkpt>
      <trkpt lat="43.17317" lon="6.21044">
        <ele>68.400001525879</ele>
        <time>2023-05-24T11:25:50.000Z</time>
        <extensions>
          <gpxtpx:TrackPointExtension xmlns:gpxtpx="http://www.garmin.com/xmlschemas/TrackPointExtension/v1">
            <gpxtpx:hr>138</gpxtpx:hr>
          </gpxtpx:TrackPointExtension>
        </extensions>
      </trkpt>
      <trkpt lat="43.17315" lon="6.21031">
        <ele>68.599998474121</ele>
        <time>2023-05-24T11:25:52.000Z</time>
        <extensions>
          <gpxtpx:TrackPointExtension xmlns:gpxtpx="http://www.garmin.com/xmlschemas/TrackPointExtension/v1">
            <gpxtpx:hr>138</gpxtpx:hr>
          </gpxtpx:TrackPointExtension>
        </extensions>
      </trkpt>
      <trkpt lat="43.17312" lon="6.21017">
        <ele>69</ele>
        <time>2023-05-24T11:25:54.000Z</time>
        <extensions>
          <gpxtpx:TrackPointExtension xmlns:gpxtpx="http://www.garmin.com/xmlschemas/TrackPointExtension/v1">
            <gpxtpx:hr>137</gpxtpx:hr>
          </gpxtpx:TrackPointExtension>
        </extensions>
      </trkpt>
      <trkpt lat="43.17308" lon="6.20997">
        <ele>69.199996948242</ele>
        <time>2023-05-24T11:25:57.000Z</time>
        <extensions>
          <gpxtpx:TrackPointExtension xmlns:gpxtpx="http://www.garmin.com/xmlschemas/TrackPointExtension/v1">
            <gpxtpx:hr>137</gpxtpx:hr>
          </gpxtpx:TrackPointExtension>
        </extensions>
      </trkpt>
      <trkpt lat="43.17299" lon="6.20971">
        <ele>69.199996948242</ele>
        <time>2023-05-24T11:26:01.000Z</time>
        <extensions>
          <gpxtpx:TrackPointExtension xmlns:gpxtpx="http://www.garmin.com/xmlschemas/TrackPointExtension/v1">
            <gpxtpx:hr>134</gpxtpx:hr>
          </gpxtpx:TrackPointExtension>
        </extensions>
      </trkpt>
      <trkpt lat="43.17298" lon="6.20964">
        <ele>69.199996948242</ele>
        <time>2023-05-24T11:26:02.000Z</time>
        <extensions>
          <gpxtpx:TrackPointExtension xmlns:gpxtpx="http://www.garmin.com/xmlschemas/TrackPointExtension/v1">
            <gpxtpx:hr>134</gpxtpx:hr>
          </gpxtpx:TrackPointExtension>
        </extensions>
      </trkpt>
      <trkpt lat="43.17292" lon="6.20941">
        <ele>70.199996948242</ele>
        <time>2023-05-24T11:26:05.000Z</time>
        <extensions>
          <gpxtpx:TrackPointExtension xmlns:gpxtpx="http://www.garmin.com/xmlschemas/TrackPointExtension/v1">
            <gpxtpx:hr>133</gpxtpx:hr>
          </gpxtpx:TrackPointExtension>
        </extensions>
      </trkpt>
      <trkpt lat="43.17288" lon="6.20936">
        <ele>70.599998474121</ele>
        <time>2023-05-24T11:26:06.000Z</time>
        <extensions>
          <gpxtpx:TrackPointExtension xmlns:gpxtpx="http://www.garmin.com/xmlschemas/TrackPointExtension/v1">
            <gpxtpx:hr>133</gpxtpx:hr>
          </gpxtpx:TrackPointExtension>
        </extensions>
      </trkpt>
      <trkpt lat="43.17284" lon="6.20931">
        <ele>71.199996948242</ele>
        <time>2023-05-24T11:26:07.000Z</time>
        <extensions>
          <gpxtpx:TrackPointExtension xmlns:gpxtpx="http://www.garmin.com/xmlschemas/TrackPointExtension/v1">
            <gpxtpx:hr>133</gpxtpx:hr>
          </gpxtpx:TrackPointExtension>
        </extensions>
      </trkpt>
      <trkpt lat="43.17277" lon="6.20926">
        <ele>72.199996948242</ele>
        <time>2023-05-24T11:26:09.000Z</time>
        <extensions>
          <gpxtpx:TrackPointExtension xmlns:gpxtpx="http://www.garmin.com/xmlschemas/TrackPointExtension/v1">
            <gpxtpx:hr>132</gpxtpx:hr>
          </gpxtpx:TrackPointExtension>
        </extensions>
      </trkpt>
      <trkpt lat="43.17275" lon="6.20923">
        <ele>72.400001525879</ele>
        <time>2023-05-24T11:26:10.000Z</time>
        <extensions>
          <gpxtpx:TrackPointExtension xmlns:gpxtpx="http://www.garmin.com/xmlschemas/TrackPointExtension/v1">
            <gpxtpx:hr>137</gpxtpx:hr>
          </gpxtpx:TrackPointExtension>
        </extensions>
      </trkpt>
      <trkpt lat="43.17268" lon="6.20913">
        <ele>73.800003051758</ele>
        <time>2023-05-24T11:26:14.000Z</time>
        <extensions>
          <gpxtpx:TrackPointExtension xmlns:gpxtpx="http://www.garmin.com/xmlschemas/TrackPointExtension/v1">
            <gpxtpx:hr>134</gpxtpx:hr>
          </gpxtpx:TrackPointExtension>
        </extensions>
      </trkpt>
      <trkpt lat="43.17266" lon="6.2091">
        <ele>74.400001525879</ele>
        <time>2023-05-24T11:26:15.000Z</time>
        <extensions>
          <gpxtpx:TrackPointExtension xmlns:gpxtpx="http://www.garmin.com/xmlschemas/TrackPointExtension/v1">
            <gpxtpx:hr>134</gpxtpx:hr>
          </gpxtpx:TrackPointExtension>
        </extensions>
      </trkpt>
      <trkpt lat="43.17261" lon="6.20905">
        <ele>74.800003051758</ele>
        <time>2023-05-24T11:26:17.000Z</time>
        <extensions>
          <gpxtpx:TrackPointExtension xmlns:gpxtpx="http://www.garmin.com/xmlschemas/TrackPointExtension/v1">
            <gpxtpx:hr>138</gpxtpx:hr>
          </gpxtpx:TrackPointExtension>
        </extensions>
      </trkpt>
      <trkpt lat="43.17256" lon="6.20896">
        <ele>75</ele>
        <time>2023-05-24T11:26:20.000Z</time>
        <extensions>
          <gpxtpx:TrackPointExtension xmlns:gpxtpx="http://www.garmin.com/xmlschemas/TrackPointExtension/v1">
            <gpxtpx:hr>135</gpxtpx:hr>
          </gpxtpx:TrackPointExtension>
        </extensions>
      </trkpt>
      <trkpt lat="43.17254" lon="6.20892">
        <ele>75</ele>
        <time>2023-05-24T11:26:21.000Z</time>
        <extensions>
          <gpxtpx:TrackPointExtension xmlns:gpxtpx="http://www.garmin.com/xmlschemas/TrackPointExtension/v1">
            <gpxtpx:hr>135</gpxtpx:hr>
          </gpxtpx:TrackPointExtension>
        </extensions>
      </trkpt>
      <trkpt lat="43.17241" lon="6.20869">
        <ele>75.599998474121</ele>
        <time>2023-05-24T11:26:28.000Z</time>
        <extensions>
          <gpxtpx:TrackPointExtension xmlns:gpxtpx="http://www.garmin.com/xmlschemas/TrackPointExtension/v1">
            <gpxtpx:hr>138</gpxtpx:hr>
          </gpxtpx:TrackPointExtension>
        </extensions>
      </trkpt>
      <trkpt lat="43.17225" lon="6.20848">
        <ele>77.199996948242</ele>
        <time>2023-05-24T11:26:36.000Z</time>
        <extensions>
          <gpxtpx:TrackPointExtension xmlns:gpxtpx="http://www.garmin.com/xmlschemas/TrackPointExtension/v1">
            <gpxtpx:hr>138</gpxtpx:hr>
          </gpxtpx:TrackPointExtension>
        </extensions>
      </trkpt>
      <trkpt lat="43.17211" lon="6.2084">
        <ele>79.400001525879</ele>
        <time>2023-05-24T11:26:42.000Z</time>
        <extensions>
          <gpxtpx:TrackPointExtension xmlns:gpxtpx="http://www.garmin.com/xmlschemas/TrackPointExtension/v1">
            <gpxtpx:hr>139</gpxtpx:hr>
          </gpxtpx:TrackPointExtension>
        </extensions>
      </trkpt>
      <trkpt lat="43.17201" lon="6.20845">
        <ele>81.800003051758</ele>
        <time>2023-05-24T11:26:47.000Z</time>
        <extensions>
          <gpxtpx:TrackPointExtension xmlns:gpxtpx="http://www.garmin.com/xmlschemas/TrackPointExtension/v1">
            <gpxtpx:hr>140</gpxtpx:hr>
          </gpxtpx:TrackPointExtension>
        </extensions>
      </trkpt>
      <trkpt lat="43.17188" lon="6.20855">
        <ele>87.199996948242</ele>
        <time>2023-05-24T11:26:54.000Z</time>
        <extensions>
          <gpxtpx:TrackPointExtension xmlns:gpxtpx="http://www.garmin.com/xmlschemas/TrackPointExtension/v1">
            <gpxtpx:hr>141</gpxtpx:hr>
          </gpxtpx:TrackPointExtension>
        </extensions>
      </trkpt>
      <trkpt lat="43.1718" lon="6.20863">
        <ele>91</ele>
        <time>2023-05-24T11:26:59.000Z</time>
        <extensions>
          <gpxtpx:TrackPointExtension xmlns:gpxtpx="http://www.garmin.com/xmlschemas/TrackPointExtension/v1">
            <gpxtpx:hr>144</gpxtpx:hr>
          </gpxtpx:TrackPointExtension>
        </extensions>
      </trkpt>
      <trkpt lat="43.17173" lon="6.20875">
        <ele>94.400001525879</ele>
        <time>2023-05-24T11:27:04.000Z</time>
        <extensions>
          <gpxtpx:TrackPointExtension xmlns:gpxtpx="http://www.garmin.com/xmlschemas/TrackPointExtension/v1">
            <gpxtpx:hr>143</gpxtpx:hr>
          </gpxtpx:TrackPointExtension>
        </extensions>
      </trkpt>
      <trkpt lat="43.17167" lon="6.20884">
        <ele>96.599998474121</ele>
        <time>2023-05-24T11:27:08.000Z</time>
        <extensions>
          <gpxtpx:TrackPointExtension xmlns:gpxtpx="http://www.garmin.com/xmlschemas/TrackPointExtension/v1">
            <gpxtpx:hr>143</gpxtpx:hr>
          </gpxtpx:TrackPointExtension>
        </extensions>
      </trkpt>
      <trkpt lat="43.17166" lon="6.20886">
        <ele>97.199996948242</ele>
        <time>2023-05-24T11:27:09.000Z</time>
        <extensions>
          <gpxtpx:TrackPointExtension xmlns:gpxtpx="http://www.garmin.com/xmlschemas/TrackPointExtension/v1">
            <gpxtpx:hr>144</gpxtpx:hr>
          </gpxtpx:TrackPointExtension>
        </extensions>
      </trkpt>
      <trkpt lat="43.17157" lon="6.20895">
        <ele>99.599998474121</ele>
        <time>2023-05-24T11:27:14.000Z</time>
        <extensions>
          <gpxtpx:TrackPointExtension xmlns:gpxtpx="http://www.garmin.com/xmlschemas/TrackPointExtension/v1">
            <gpxtpx:hr>144</gpxtpx:hr>
          </gpxtpx:TrackPointExtension>
        </extensions>
      </trkpt>
      <trkpt lat="43.17155" lon="6.20895">
        <ele>100</ele>
        <time>2023-05-24T11:27:15.000Z</time>
        <extensions>
          <gpxtpx:TrackPointExtension xmlns:gpxtpx="http://www.garmin.com/xmlschemas/TrackPointExtension/v1">
            <gpxtpx:hr>144</gpxtpx:hr>
          </gpxtpx:TrackPointExtension>
        </extensions>
      </trkpt>
      <trkpt lat="43.17152" lon="6.20894">
        <ele>100.19999694824</ele>
        <time>2023-05-24T11:27:16.000Z</time>
        <extensions>
          <gpxtpx:TrackPointExtension xmlns:gpxtpx="http://www.garmin.com/xmlschemas/TrackPointExtension/v1">
            <gpxtpx:hr>145</gpxtpx:hr>
          </gpxtpx:TrackPointExtension>
        </extensions>
      </trkpt>
      <trkpt lat="43.17144" lon="6.20887">
        <ele>100.59999847412</ele>
        <time>2023-05-24T11:27:20.000Z</time>
        <extensions>
          <gpxtpx:TrackPointExtension xmlns:gpxtpx="http://www.garmin.com/xmlschemas/TrackPointExtension/v1">
            <gpxtpx:hr>144</gpxtpx:hr>
          </gpxtpx:TrackPointExtension>
        </extensions>
      </trkpt>
      <trkpt lat="43.17136" lon="6.2087">
        <ele>99.599998474121</ele>
        <time>2023-05-24T11:27:27.000Z</time>
        <extensions>
          <gpxtpx:TrackPointExtension xmlns:gpxtpx="http://www.garmin.com/xmlschemas/TrackPointExtension/v1">
            <gpxtpx:hr>144</gpxtpx:hr>
          </gpxtpx:TrackPointExtension>
        </extensions>
      </trkpt>
      <trkpt lat="43.17126" lon="6.20855">
        <ele>99.400001525879</ele>
        <time>2023-05-24T11:27:34.000Z</time>
        <extensions>
          <gpxtpx:TrackPointExtension xmlns:gpxtpx="http://www.garmin.com/xmlschemas/TrackPointExtension/v1">
            <gpxtpx:hr>145</gpxtpx:hr>
          </gpxtpx:TrackPointExtension>
        </extensions>
      </trkpt>
      <trkpt lat="43.17124" lon="6.20854">
        <ele>99.800003051758</ele>
        <time>2023-05-24T11:27:35.000Z</time>
        <extensions>
          <gpxtpx:TrackPointExtension xmlns:gpxtpx="http://www.garmin.com/xmlschemas/TrackPointExtension/v1">
            <gpxtpx:hr>152</gpxtpx:hr>
          </gpxtpx:TrackPointExtension>
        </extensions>
      </trkpt>
      <trkpt lat="43.17122" lon="6.20853">
        <ele>100.19999694824</ele>
        <time>2023-05-24T11:27:36.000Z</time>
        <extensions>
          <gpxtpx:TrackPointExtension xmlns:gpxtpx="http://www.garmin.com/xmlschemas/TrackPointExtension/v1">
            <gpxtpx:hr>150</gpxtpx:hr>
          </gpxtpx:TrackPointExtension>
        </extensions>
      </trkpt>
      <trkpt lat="43.1712" lon="6.20852">
        <ele>100.59999847412</ele>
        <time>2023-05-24T11:27:37.000Z</time>
        <extensions>
          <gpxtpx:TrackPointExtension xmlns:gpxtpx="http://www.garmin.com/xmlschemas/TrackPointExtension/v1">
            <gpxtpx:hr>148</gpxtpx:hr>
          </gpxtpx:TrackPointExtension>
        </extensions>
      </trkpt>
      <trkpt lat="43.17117" lon="6.20852">
        <ele>101.59999847412</ele>
        <time>2023-05-24T11:27:39.000Z</time>
        <extensions>
          <gpxtpx:TrackPointExtension xmlns:gpxtpx="http://www.garmin.com/xmlschemas/TrackPointExtension/v1">
            <gpxtpx:hr>147</gpxtpx:hr>
          </gpxtpx:TrackPointExtension>
        </extensions>
      </trkpt>
      <trkpt lat="43.17115" lon="6.20851">
        <ele>102</ele>
        <time>2023-05-24T11:27:40.000Z</time>
        <extensions>
          <gpxtpx:TrackPointExtension xmlns:gpxtpx="http://www.garmin.com/xmlschemas/TrackPointExtension/v1">
            <gpxtpx:hr>145</gpxtpx:hr>
          </gpxtpx:TrackPointExtension>
        </extensions>
      </trkpt>
      <trkpt lat="43.17105" lon="6.20849">
        <ele>104.40000152588</ele>
        <time>2023-05-24T11:27:46.000Z</time>
        <extensions>
          <gpxtpx:TrackPointExtension xmlns:gpxtpx="http://www.garmin.com/xmlschemas/TrackPointExtension/v1">
            <gpxtpx:hr>145</gpxtpx:hr>
          </gpxtpx:TrackPointExtension>
        </extensions>
      </trkpt>
      <trkpt lat="43.17095" lon="6.2085">
        <ele>107.59999847412</ele>
        <time>2023-05-24T11:27:52.000Z</time>
        <extensions>
          <gpxtpx:TrackPointExtension xmlns:gpxtpx="http://www.garmin.com/xmlschemas/TrackPointExtension/v1">
            <gpxtpx:hr>142</gpxtpx:hr>
          </gpxtpx:TrackPointExtension>
        </extensions>
      </trkpt>
      <trkpt lat="43.17093" lon="6.2085">
        <ele>108.19999694824</ele>
        <time>2023-05-24T11:27:53.000Z</time>
        <extensions>
          <gpxtpx:TrackPointExtension xmlns:gpxtpx="http://www.garmin.com/xmlschemas/TrackPointExtension/v1">
            <gpxtpx:hr>142</gpxtpx:hr>
          </gpxtpx:TrackPointExtension>
        </extensions>
      </trkpt>
      <trkpt lat="43.17077" lon="6.20855">
        <ele>113.40000152588</ele>
        <time>2023-05-24T11:28:01.000Z</time>
        <extensions>
          <gpxtpx:TrackPointExtension xmlns:gpxtpx="http://www.garmin.com/xmlschemas/TrackPointExtension/v1">
            <gpxtpx:hr>144</gpxtpx:hr>
          </gpxtpx:TrackPointExtension>
        </extensions>
      </trkpt>
      <trkpt lat="43.1706" lon="6.20864">
        <ele>117.59999847412</ele>
        <time>2023-05-24T11:28:09.000Z</time>
        <extensions>
          <gpxtpx:TrackPointExtension xmlns:gpxtpx="http://www.garmin.com/xmlschemas/TrackPointExtension/v1">
            <gpxtpx:hr>144</gpxtpx:hr>
          </gpxtpx:TrackPointExtension>
        </extensions>
      </trkpt>
      <trkpt lat="43.17046" lon="6.20865">
        <ele>119.59999847412</ele>
        <time>2023-05-24T11:28:15.000Z</time>
        <extensions>
          <gpxtpx:TrackPointExtension xmlns:gpxtpx="http://www.garmin.com/xmlschemas/TrackPointExtension/v1">
            <gpxtpx:hr>143</gpxtpx:hr>
          </gpxtpx:TrackPointExtension>
        </extensions>
      </trkpt>
      <trkpt lat="43.17037" lon="6.20871">
        <ele>122.40000152588</ele>
        <time>2023-05-24T11:28:20.000Z</time>
        <extensions>
          <gpxtpx:TrackPointExtension xmlns:gpxtpx="http://www.garmin.com/xmlschemas/TrackPointExtension/v1">
            <gpxtpx:hr>144</gpxtpx:hr>
          </gpxtpx:TrackPointExtension>
        </extensions>
      </trkpt>
      <trkpt lat="43.17036" lon="6.20873">
        <ele>122.80000305176</ele>
        <time>2023-05-24T11:28:21.000Z</time>
        <extensions>
          <gpxtpx:TrackPointExtension xmlns:gpxtpx="http://www.garmin.com/xmlschemas/TrackPointExtension/v1">
            <gpxtpx:hr>143</gpxtpx:hr>
          </gpxtpx:TrackPointExtension>
        </extensions>
      </trkpt>
      <trkpt lat="43.17035" lon="6.20874">
        <ele>123</ele>
        <time>2023-05-24T11:28:25.000Z</time>
        <extensions>
          <gpxtpx:TrackPointExtension xmlns:gpxtpx="http://www.garmin.com/xmlschemas/TrackPointExtension/v1">
            <gpxtpx:hr>142</gpxtpx:hr>
          </gpxtpx:TrackPointExtension>
        </extensions>
      </trkpt>
      <trkpt lat="43.17035" lon="6.20875">
        <ele>123</ele>
        <time>2023-05-24T11:28:32.000Z</time>
        <extensions>
          <gpxtpx:TrackPointExtension xmlns:gpxtpx="http://www.garmin.com/xmlschemas/TrackPointExtension/v1">
            <gpxtpx:hr>144</gpxtpx:hr>
          </gpxtpx:TrackPointExtension>
        </extensions>
      </trkpt>
      <trkpt lat="43.17036" lon="6.20876">
        <ele>122.80000305176</ele>
        <time>2023-05-24T11:28:33.000Z</time>
        <extensions>
          <gpxtpx:TrackPointExtension xmlns:gpxtpx="http://www.garmin.com/xmlschemas/TrackPointExtension/v1">
            <gpxtpx:hr>143</gpxtpx:hr>
          </gpxtpx:TrackPointExtension>
        </extensions>
      </trkpt>
      <trkpt lat="43.17036" lon="6.20878">
        <ele>123</ele>
        <time>2023-05-24T11:28:35.000Z</time>
        <extensions>
          <gpxtpx:TrackPointExtension xmlns:gpxtpx="http://www.garmin.com/xmlschemas/TrackPointExtension/v1">
            <gpxtpx:hr>143</gpxtpx:hr>
          </gpxtpx:TrackPointExtension>
        </extensions>
      </trkpt>
      <trkpt lat="43.17038" lon="6.20881">
        <ele>123</ele>
        <time>2023-05-24T11:28:36.000Z</time>
        <extensions>
          <gpxtpx:TrackPointExtension xmlns:gpxtpx="http://www.garmin.com/xmlschemas/TrackPointExtension/v1">
            <gpxtpx:hr>141</gpxtpx:hr>
          </gpxtpx:TrackPointExtension>
        </extensions>
      </trkpt>
      <trkpt lat="43.17048" lon="6.2089">
        <ele>123</ele>
        <time>2023-05-24T11:28:41.000Z</time>
        <extensions>
          <gpxtpx:TrackPointExtension xmlns:gpxtpx="http://www.garmin.com/xmlschemas/TrackPointExtension/v1">
            <gpxtpx:hr>141</gpxtpx:hr>
          </gpxtpx:TrackPointExtension>
        </extensions>
      </trkpt>
      <trkpt lat="43.17063" lon="6.20894">
        <ele>121.19999694824</ele>
        <time>2023-05-24T11:28:47.000Z</time>
        <extensions>
          <gpxtpx:TrackPointExtension xmlns:gpxtpx="http://www.garmin.com/xmlschemas/TrackPointExtension/v1">
            <gpxtpx:hr>140</gpxtpx:hr>
          </gpxtpx:TrackPointExtension>
        </extensions>
      </trkpt>
      <trkpt lat="43.17071" lon="6.20906">
        <ele>122</ele>
        <time>2023-05-24T11:28:51.000Z</time>
        <extensions>
          <gpxtpx:TrackPointExtension xmlns:gpxtpx="http://www.garmin.com/xmlschemas/TrackPointExtension/v1">
            <gpxtpx:hr>138</gpxtpx:hr>
          </gpxtpx:TrackPointExtension>
        </extensions>
      </trkpt>
      <trkpt lat="43.17075" lon="6.20928">
        <ele>123.80000305176</ele>
        <time>2023-05-24T11:28:57.000Z</time>
        <extensions>
          <gpxtpx:TrackPointExtension xmlns:gpxtpx="http://www.garmin.com/xmlschemas/TrackPointExtension/v1">
            <gpxtpx:hr>138</gpxtpx:hr>
          </gpxtpx:TrackPointExtension>
        </extensions>
      </trkpt>
      <trkpt lat="43.17076" lon="6.20955">
        <ele>126.19999694824</ele>
        <time>2023-05-24T11:29:04.000Z</time>
        <extensions>
          <gpxtpx:TrackPointExtension xmlns:gpxtpx="http://www.garmin.com/xmlschemas/TrackPointExtension/v1">
            <gpxtpx:hr>136</gpxtpx:hr>
          </gpxtpx:TrackPointExtension>
        </extensions>
      </trkpt>
      <trkpt lat="43.17079" lon="6.20984">
        <ele>127.40000152588</ele>
        <time>2023-05-24T11:29:12.000Z</time>
        <extensions>
          <gpxtpx:TrackPointExtension xmlns:gpxtpx="http://www.garmin.com/xmlschemas/TrackPointExtension/v1">
            <gpxtpx:hr>137</gpxtpx:hr>
          </gpxtpx:TrackPointExtension>
        </extensions>
      </trkpt>
      <trkpt lat="43.17085" lon="6.21009">
        <ele>126.59999847412</ele>
        <time>2023-05-24T11:29:19.000Z</time>
        <extensions>
          <gpxtpx:TrackPointExtension xmlns:gpxtpx="http://www.garmin.com/xmlschemas/TrackPointExtension/v1">
            <gpxtpx:hr>134</gpxtpx:hr>
          </gpxtpx:TrackPointExtension>
        </extensions>
      </trkpt>
      <trkpt lat="43.17082" lon="6.21025">
        <ele>127.19999694824</ele>
        <time>2023-05-24T11:29:23.000Z</time>
        <extensions>
          <gpxtpx:TrackPointExtension xmlns:gpxtpx="http://www.garmin.com/xmlschemas/TrackPointExtension/v1">
            <gpxtpx:hr>135</gpxtpx:hr>
          </gpxtpx:TrackPointExtension>
        </extensions>
      </trkpt>
      <trkpt lat="43.17079" lon="6.21031">
        <ele>127.40000152588</ele>
        <time>2023-05-24T11:29:25.000Z</time>
        <extensions>
          <gpxtpx:TrackPointExtension xmlns:gpxtpx="http://www.garmin.com/xmlschemas/TrackPointExtension/v1">
            <gpxtpx:hr>139</gpxtpx:hr>
          </gpxtpx:TrackPointExtension>
        </extensions>
      </trkpt>
      <trkpt lat="43.1707" lon="6.21035">
        <ele>127.19999694824</ele>
        <time>2023-05-24T11:29:28.000Z</time>
        <extensions>
          <gpxtpx:TrackPointExtension xmlns:gpxtpx="http://www.garmin.com/xmlschemas/TrackPointExtension/v1">
            <gpxtpx:hr>137</gpxtpx:hr>
          </gpxtpx:TrackPointExtension>
        </extensions>
      </trkpt>
      <trkpt lat="43.17057" lon="6.21028">
        <ele>127.40000152588</ele>
        <time>2023-05-24T11:29:32.000Z</time>
        <extensions>
          <gpxtpx:TrackPointExtension xmlns:gpxtpx="http://www.garmin.com/xmlschemas/TrackPointExtension/v1">
            <gpxtpx:hr>136</gpxtpx:hr>
          </gpxtpx:TrackPointExtension>
        </extensions>
      </trkpt>
      <trkpt lat="43.17047" lon="6.21012">
        <ele>129.19999694824</ele>
        <time>2023-05-24T11:29:37.000Z</time>
        <extensions>
          <gpxtpx:TrackPointExtension xmlns:gpxtpx="http://www.garmin.com/xmlschemas/TrackPointExtension/v1">
            <gpxtpx:hr>137</gpxtpx:hr>
          </gpxtpx:TrackPointExtension>
        </extensions>
      </trkpt>
      <trkpt lat="43.17036" lon="6.20992">
        <ele>131.60000610352</ele>
        <time>2023-05-24T11:29:43.000Z</time>
        <extensions>
          <gpxtpx:TrackPointExtension xmlns:gpxtpx="http://www.garmin.com/xmlschemas/TrackPointExtension/v1">
            <gpxtpx:hr>137</gpxtpx:hr>
          </gpxtpx:TrackPointExtension>
        </extensions>
      </trkpt>
      <trkpt lat="43.17026" lon="6.20974">
        <ele>133.19999694824</ele>
        <time>2023-05-24T11:29:49.000Z</time>
        <extensions>
          <gpxtpx:TrackPointExtension xmlns:gpxtpx="http://www.garmin.com/xmlschemas/TrackPointExtension/v1">
            <gpxtpx:hr>137</gpxtpx:hr>
          </gpxtpx:TrackPointExtension>
        </extensions>
      </trkpt>
      <trkpt lat="43.17011" lon="6.20958">
        <ele>134.80000305176</ele>
        <time>2023-05-24T11:29:56.000Z</time>
        <extensions>
          <gpxtpx:TrackPointExtension xmlns:gpxtpx="http://www.garmin.com/xmlschemas/TrackPointExtension/v1">
            <gpxtpx:hr>135</gpxtpx:hr>
          </gpxtpx:TrackPointExtension>
        </extensions>
      </trkpt>
      <trkpt lat="43.16997" lon="6.20952">
        <ele>135.60000610352</ele>
        <time>2023-05-24T11:30:01.000Z</time>
        <extensions>
          <gpxtpx:TrackPointExtension xmlns:gpxtpx="http://www.garmin.com/xmlschemas/TrackPointExtension/v1">
            <gpxtpx:hr>134</gpxtpx:hr>
          </gpxtpx:TrackPointExtension>
        </extensions>
      </trkpt>
      <trkpt lat="43.16979" lon="6.20948">
        <ele>137.39999389648</ele>
        <time>2023-05-24T11:30:08.000Z</time>
        <extensions>
          <gpxtpx:TrackPointExtension xmlns:gpxtpx="http://www.garmin.com/xmlschemas/TrackPointExtension/v1">
            <gpxtpx:hr>135</gpxtpx:hr>
          </gpxtpx:TrackPointExtension>
        </extensions>
      </trkpt>
      <trkpt lat="43.16963" lon="6.20949">
        <ele>137.80000305176</ele>
        <time>2023-05-24T11:30:13.000Z</time>
        <extensions>
          <gpxtpx:TrackPointExtension xmlns:gpxtpx="http://www.garmin.com/xmlschemas/TrackPointExtension/v1">
            <gpxtpx:hr>134</gpxtpx:hr>
          </gpxtpx:TrackPointExtension>
        </extensions>
      </trkpt>
      <trkpt lat="43.16938" lon="6.20938">
        <ele>140.60000610352</ele>
        <time>2023-05-24T11:30:21.000Z</time>
        <extensions>
          <gpxtpx:TrackPointExtension xmlns:gpxtpx="http://www.garmin.com/xmlschemas/TrackPointExtension/v1">
            <gpxtpx:hr>135</gpxtpx:hr>
          </gpxtpx:TrackPointExtension>
        </extensions>
      </trkpt>
      <trkpt lat="43.16914" lon="6.20932">
        <ele>144.39999389648</ele>
        <time>2023-05-24T11:30:29.000Z</time>
        <extensions>
          <gpxtpx:TrackPointExtension xmlns:gpxtpx="http://www.garmin.com/xmlschemas/TrackPointExtension/v1">
            <gpxtpx:hr>136</gpxtpx:hr>
          </gpxtpx:TrackPointExtension>
        </extensions>
      </trkpt>
      <trkpt lat="43.16902" lon="6.20929">
        <ele>146</ele>
        <time>2023-05-24T11:30:33.000Z</time>
        <extensions>
          <gpxtpx:TrackPointExtension xmlns:gpxtpx="http://www.garmin.com/xmlschemas/TrackPointExtension/v1">
            <gpxtpx:hr>133</gpxtpx:hr>
          </gpxtpx:TrackPointExtension>
        </extensions>
      </trkpt>
      <trkpt lat="43.169" lon="6.20929">
        <ele>146.19999694824</ele>
        <time>2023-05-24T11:30:34.000Z</time>
        <extensions>
          <gpxtpx:TrackPointExtension xmlns:gpxtpx="http://www.garmin.com/xmlschemas/TrackPointExtension/v1">
            <gpxtpx:hr>129</gpxtpx:hr>
          </gpxtpx:TrackPointExtension>
        </extensions>
      </trkpt>
      <trkpt lat="43.16897" lon="6.20928">
        <ele>146.60000610352</ele>
        <time>2023-05-24T11:30:35.000Z</time>
        <extensions>
          <gpxtpx:TrackPointExtension xmlns:gpxtpx="http://www.garmin.com/xmlschemas/TrackPointExtension/v1">
            <gpxtpx:hr>133</gpxtpx:hr>
          </gpxtpx:TrackPointExtension>
        </extensions>
      </trkpt>
      <trkpt lat="43.16889" lon="6.20923">
        <ele>148.39999389648</ele>
        <time>2023-05-24T11:30:38.000Z</time>
        <extensions>
          <gpxtpx:TrackPointExtension xmlns:gpxtpx="http://www.garmin.com/xmlschemas/TrackPointExtension/v1">
            <gpxtpx:hr>136</gpxtpx:hr>
          </gpxtpx:TrackPointExtension>
        </extensions>
      </trkpt>
      <trkpt lat="43.16884" lon="6.20917">
        <ele>150</ele>
        <time>2023-05-24T11:30:40.000Z</time>
        <extensions>
          <gpxtpx:TrackPointExtension xmlns:gpxtpx="http://www.garmin.com/xmlschemas/TrackPointExtension/v1">
            <gpxtpx:hr>136</gpxtpx:hr>
          </gpxtpx:TrackPointExtension>
        </extensions>
      </trkpt>
      <trkpt lat="43.16877" lon="6.20909">
        <ele>151.60000610352</ele>
        <time>2023-05-24T11:30:44.000Z</time>
        <extensions>
          <gpxtpx:TrackPointExtension xmlns:gpxtpx="http://www.garmin.com/xmlschemas/TrackPointExtension/v1">
            <gpxtpx:hr>140</gpxtpx:hr>
          </gpxtpx:TrackPointExtension>
        </extensions>
      </trkpt>
      <trkpt lat="43.16876" lon="6.20908">
        <ele>151.60000610352</ele>
        <time>2023-05-24T11:30:45.000Z</time>
        <extensions>
          <gpxtpx:TrackPointExtension xmlns:gpxtpx="http://www.garmin.com/xmlschemas/TrackPointExtension/v1">
            <gpxtpx:hr>137</gpxtpx:hr>
          </gpxtpx:TrackPointExtension>
        </extensions>
      </trkpt>
      <trkpt lat="43.16876" lon="6.20908">
        <ele>151.60000610352</ele>
        <time>2023-05-24T11:30:57.000Z</time>
        <extensions>
          <gpxtpx:TrackPointExtension xmlns:gpxtpx="http://www.garmin.com/xmlschemas/TrackPointExtension/v1">
            <gpxtpx:hr>134</gpxtpx:hr>
          </gpxtpx:TrackPointExtension>
        </extensions>
      </trkpt>
      <trkpt lat="43.16876" lon="6.20908">
        <ele>151.60000610352</ele>
        <time>2023-05-24T11:30:58.000Z</time>
        <extensions>
          <gpxtpx:TrackPointExtension xmlns:gpxtpx="http://www.garmin.com/xmlschemas/TrackPointExtension/v1">
            <gpxtpx:hr>134</gpxtpx:hr>
          </gpxtpx:TrackPointExtension>
        </extensions>
      </trkpt>
      <trkpt lat="43.16876" lon="6.20908">
        <ele>151.60000610352</ele>
        <time>2023-05-24T11:31:10.000Z</time>
        <extensions>
          <gpxtpx:TrackPointExtension xmlns:gpxtpx="http://www.garmin.com/xmlschemas/TrackPointExtension/v1">
            <gpxtpx:hr>134</gpxtpx:hr>
          </gpxtpx:TrackPointExtension>
        </extensions>
      </trkpt>
      <trkpt lat="43.16876" lon="6.20908">
        <ele>151.60000610352</ele>
        <time>2023-05-24T11:31:22.000Z</time>
        <extensions>
          <gpxtpx:TrackPointExtension xmlns:gpxtpx="http://www.garmin.com/xmlschemas/TrackPointExtension/v1">
            <gpxtpx:hr>131</gpxtpx:hr>
          </gpxtpx:TrackPointExtension>
        </extensions>
      </trkpt>
      <trkpt lat="43.16876" lon="6.20908">
        <ele>151.60000610352</ele>
        <time>2023-05-24T11:31:28.000Z</time>
        <extensions>
          <gpxtpx:TrackPointExtension xmlns:gpxtpx="http://www.garmin.com/xmlschemas/TrackPointExtension/v1">
            <gpxtpx:hr>128</gpxtpx:hr>
          </gpxtpx:TrackPointExtension>
        </extensions>
      </trkpt>
      <trkpt lat="43.16876" lon="6.20908">
        <ele>151.60000610352</ele>
        <time>2023-05-24T11:31:32.000Z</time>
        <extensions>
          <gpxtpx:TrackPointExtension xmlns:gpxtpx="http://www.garmin.com/xmlschemas/TrackPointExtension/v1">
            <gpxtpx:hr>126</gpxtpx:hr>
          </gpxtpx:TrackPointExtension>
        </extensions>
      </trkpt>
      <trkpt lat="43.16876" lon="6.20908">
        <ele>151.60000610352</ele>
        <time>2023-05-24T11:31:36.000Z</time>
        <extensions>
          <gpxtpx:TrackPointExtension xmlns:gpxtpx="http://www.garmin.com/xmlschemas/TrackPointExtension/v1">
            <gpxtpx:hr>123</gpxtpx:hr>
          </gpxtpx:TrackPointExtension>
        </extensions>
      </trkpt>
      <trkpt lat="43.16876" lon="6.20908">
        <ele>151.60000610352</ele>
        <time>2023-05-24T11:31:47.000Z</time>
        <extensions>
          <gpxtpx:TrackPointExtension xmlns:gpxtpx="http://www.garmin.com/xmlschemas/TrackPointExtension/v1">
            <gpxtpx:hr>123</gpxtpx:hr>
          </gpxtpx:TrackPointExtension>
        </extensions>
      </trkpt>
      <trkpt lat="43.16876" lon="6.20907">
        <ele>151.60000610352</ele>
        <time>2023-05-24T11:32:09.000Z</time>
        <extensions>
          <gpxtpx:TrackPointExtension xmlns:gpxtpx="http://www.garmin.com/xmlschemas/TrackPointExtension/v1">
            <gpxtpx:hr>121</gpxtpx:hr>
          </gpxtpx:TrackPointExtension>
        </extensions>
      </trkpt>
      <trkpt lat="43.16874" lon="6.20905">
        <ele>151.80000305176</ele>
        <time>2023-05-24T11:32:20.000Z</time>
        <extensions>
          <gpxtpx:TrackPointExtension xmlns:gpxtpx="http://www.garmin.com/xmlschemas/TrackPointExtension/v1">
            <gpxtpx:hr>122</gpxtpx:hr>
          </gpxtpx:TrackPointExtension>
        </extensions>
      </trkpt>
      <trkpt lat="43.16863" lon="6.20894">
        <ele>152.19999694824</ele>
        <time>2023-05-24T11:32:24.000Z</time>
        <extensions>
          <gpxtpx:TrackPointExtension xmlns:gpxtpx="http://www.garmin.com/xmlschemas/TrackPointExtension/v1">
            <gpxtpx:hr>122</gpxtpx:hr>
          </gpxtpx:TrackPointExtension>
        </extensions>
      </trkpt>
      <trkpt lat="43.16859" lon="6.20889">
        <ele>152.60000610352</ele>
        <time>2023-05-24T11:32:25.000Z</time>
        <extensions>
          <gpxtpx:TrackPointExtension xmlns:gpxtpx="http://www.garmin.com/xmlschemas/TrackPointExtension/v1">
            <gpxtpx:hr>121</gpxtpx:hr>
          </gpxtpx:TrackPointExtension>
        </extensions>
      </trkpt>
      <trkpt lat="43.16851" lon="6.20875">
        <ele>153</ele>
        <time>2023-05-24T11:32:27.000Z</time>
        <extensions>
          <gpxtpx:TrackPointExtension xmlns:gpxtpx="http://www.garmin.com/xmlschemas/TrackPointExtension/v1">
            <gpxtpx:hr>120</gpxtpx:hr>
          </gpxtpx:TrackPointExtension>
        </extensions>
      </trkpt>
      <trkpt lat="43.1684" lon="6.20853">
        <ele>151.80000305176</ele>
        <time>2023-05-24T11:32:30.000Z</time>
        <extensions>
          <gpxtpx:TrackPointExtension xmlns:gpxtpx="http://www.garmin.com/xmlschemas/TrackPointExtension/v1">
            <gpxtpx:hr>118</gpxtpx:hr>
          </gpxtpx:TrackPointExtension>
        </extensions>
      </trkpt>
      <trkpt lat="43.16831" lon="6.20839">
        <ele>150.19999694824</ele>
        <time>2023-05-24T11:32:32.000Z</time>
        <extensions>
          <gpxtpx:TrackPointExtension xmlns:gpxtpx="http://www.garmin.com/xmlschemas/TrackPointExtension/v1">
            <gpxtpx:hr>117</gpxtpx:hr>
          </gpxtpx:TrackPointExtension>
        </extensions>
      </trkpt>
      <trkpt lat="43.16811" lon="6.2081">
        <ele>146.60000610352</ele>
        <time>2023-05-24T11:32:36.000Z</time>
        <extensions>
          <gpxtpx:TrackPointExtension xmlns:gpxtpx="http://www.garmin.com/xmlschemas/TrackPointExtension/v1">
            <gpxtpx:hr>117</gpxtpx:hr>
          </gpxtpx:TrackPointExtension>
        </extensions>
      </trkpt>
      <trkpt lat="43.16806" lon="6.20801">
        <ele>145.60000610352</ele>
        <time>2023-05-24T11:32:37.000Z</time>
        <extensions>
          <gpxtpx:TrackPointExtension xmlns:gpxtpx="http://www.garmin.com/xmlschemas/TrackPointExtension/v1">
            <gpxtpx:hr>117</gpxtpx:hr>
          </gpxtpx:TrackPointExtension>
        </extensions>
      </trkpt>
      <trkpt lat="43.16795" lon="6.20772">
        <ele>146.60000610352</ele>
        <time>2023-05-24T11:32:41.000Z</time>
        <extensions>
          <gpxtpx:TrackPointExtension xmlns:gpxtpx="http://www.garmin.com/xmlschemas/TrackPointExtension/v1">
            <gpxtpx:hr>118</gpxtpx:hr>
          </gpxtpx:TrackPointExtension>
        </extensions>
      </trkpt>
      <trkpt lat="43.1679" lon="6.20754">
        <ele>147.80000305176</ele>
        <time>2023-05-24T11:32:45.000Z</time>
        <extensions>
          <gpxtpx:TrackPointExtension xmlns:gpxtpx="http://www.garmin.com/xmlschemas/TrackPointExtension/v1">
            <gpxtpx:hr>118</gpxtpx:hr>
          </gpxtpx:TrackPointExtension>
        </extensions>
      </trkpt>
      <trkpt lat="43.16788" lon="6.20751">
        <ele>148</ele>
        <time>2023-05-24T11:32:46.000Z</time>
        <extensions>
          <gpxtpx:TrackPointExtension xmlns:gpxtpx="http://www.garmin.com/xmlschemas/TrackPointExtension/v1">
            <gpxtpx:hr>119</gpxtpx:hr>
          </gpxtpx:TrackPointExtension>
        </extensions>
      </trkpt>
      <trkpt lat="43.16783" lon="6.20745">
        <ele>148.19999694824</ele>
        <time>2023-05-24T11:32:48.000Z</time>
        <extensions>
          <gpxtpx:TrackPointExtension xmlns:gpxtpx="http://www.garmin.com/xmlschemas/TrackPointExtension/v1">
            <gpxtpx:hr>126</gpxtpx:hr>
          </gpxtpx:TrackPointExtension>
        </extensions>
      </trkpt>
      <trkpt lat="43.1678" lon="6.20742">
        <ele>148.39999389648</ele>
        <time>2023-05-24T11:32:49.000Z</time>
        <extensions>
          <gpxtpx:TrackPointExtension xmlns:gpxtpx="http://www.garmin.com/xmlschemas/TrackPointExtension/v1">
            <gpxtpx:hr>125</gpxtpx:hr>
          </gpxtpx:TrackPointExtension>
        </extensions>
      </trkpt>
      <trkpt lat="43.16765" lon="6.2072">
        <ele>148.39999389648</ele>
        <time>2023-05-24T11:32:55.000Z</time>
        <extensions>
          <gpxtpx:TrackPointExtension xmlns:gpxtpx="http://www.garmin.com/xmlschemas/TrackPointExtension/v1">
            <gpxtpx:hr>127</gpxtpx:hr>
          </gpxtpx:TrackPointExtension>
        </extensions>
      </trkpt>
      <trkpt lat="43.16752" lon="6.20699">
        <ele>147.80000305176</ele>
        <time>2023-05-24T11:33:00.000Z</time>
        <extensions>
          <gpxtpx:TrackPointExtension xmlns:gpxtpx="http://www.garmin.com/xmlschemas/TrackPointExtension/v1">
            <gpxtpx:hr>124</gpxtpx:hr>
          </gpxtpx:TrackPointExtension>
        </extensions>
      </trkpt>
      <trkpt lat="43.16745" lon="6.20689">
        <ele>147.39999389648</ele>
        <time>2023-05-24T11:33:02.000Z</time>
        <extensions>
          <gpxtpx:TrackPointExtension xmlns:gpxtpx="http://www.garmin.com/xmlschemas/TrackPointExtension/v1">
            <gpxtpx:hr>123</gpxtpx:hr>
          </gpxtpx:TrackPointExtension>
        </extensions>
      </trkpt>
      <trkpt lat="43.16734" lon="6.20673">
        <ele>146.19999694824</ele>
        <time>2023-05-24T11:33:05.000Z</time>
        <extensions>
          <gpxtpx:TrackPointExtension xmlns:gpxtpx="http://www.garmin.com/xmlschemas/TrackPointExtension/v1">
            <gpxtpx:hr>122</gpxtpx:hr>
          </gpxtpx:TrackPointExtension>
        </extensions>
      </trkpt>
      <trkpt lat="43.16725" lon="6.20662">
        <ele>145.60000610352</ele>
        <time>2023-05-24T11:33:07.000Z</time>
        <extensions>
          <gpxtpx:TrackPointExtension xmlns:gpxtpx="http://www.garmin.com/xmlschemas/TrackPointExtension/v1">
            <gpxtpx:hr>122</gpxtpx:hr>
          </gpxtpx:TrackPointExtension>
        </extensions>
      </trkpt>
      <trkpt lat="43.16704" lon="6.20644">
        <ele>145.39999389648</ele>
        <time>2023-05-24T11:33:12.000Z</time>
        <extensions>
          <gpxtpx:TrackPointExtension xmlns:gpxtpx="http://www.garmin.com/xmlschemas/TrackPointExtension/v1">
            <gpxtpx:hr>123</gpxtpx:hr>
          </gpxtpx:TrackPointExtension>
        </extensions>
      </trkpt>
      <trkpt lat="43.16693" lon="6.20636">
        <ele>146.39999389648</ele>
        <time>2023-05-24T11:33:15.000Z</time>
        <extensions>
          <gpxtpx:TrackPointExtension xmlns:gpxtpx="http://www.garmin.com/xmlschemas/TrackPointExtension/v1">
            <gpxtpx:hr>120</gpxtpx:hr>
          </gpxtpx:TrackPointExtension>
        </extensions>
      </trkpt>
      <trkpt lat="43.16689" lon="6.20634">
        <ele>146.60000610352</ele>
        <time>2023-05-24T11:33:16.000Z</time>
        <extensions>
          <gpxtpx:TrackPointExtension xmlns:gpxtpx="http://www.garmin.com/xmlschemas/TrackPointExtension/v1">
            <gpxtpx:hr>126</gpxtpx:hr>
          </gpxtpx:TrackPointExtension>
        </extensions>
      </trkpt>
      <trkpt lat="43.16679" lon="6.20628">
        <ele>148</ele>
        <time>2023-05-24T11:33:19.000Z</time>
        <extensions>
          <gpxtpx:TrackPointExtension xmlns:gpxtpx="http://www.garmin.com/xmlschemas/TrackPointExtension/v1">
            <gpxtpx:hr>128</gpxtpx:hr>
          </gpxtpx:TrackPointExtension>
        </extensions>
      </trkpt>
      <trkpt lat="43.16672" lon="6.20622">
        <ele>149.39999389648</ele>
        <time>2023-05-24T11:33:22.000Z</time>
        <extensions>
          <gpxtpx:TrackPointExtension xmlns:gpxtpx="http://www.garmin.com/xmlschemas/TrackPointExtension/v1">
            <gpxtpx:hr>131</gpxtpx:hr>
          </gpxtpx:TrackPointExtension>
        </extensions>
      </trkpt>
      <trkpt lat="43.16668" lon="6.20618">
        <ele>150.19999694824</ele>
        <time>2023-05-24T11:33:24.000Z</time>
        <extensions>
          <gpxtpx:TrackPointExtension xmlns:gpxtpx="http://www.garmin.com/xmlschemas/TrackPointExtension/v1">
            <gpxtpx:hr>133</gpxtpx:hr>
          </gpxtpx:TrackPointExtension>
        </extensions>
      </trkpt>
      <trkpt lat="43.16664" lon="6.2061">
        <ele>151.60000610352</ele>
        <time>2023-05-24T11:33:27.000Z</time>
        <extensions>
          <gpxtpx:TrackPointExtension xmlns:gpxtpx="http://www.garmin.com/xmlschemas/TrackPointExtension/v1">
            <gpxtpx:hr>137</gpxtpx:hr>
          </gpxtpx:TrackPointExtension>
        </extensions>
      </trkpt>
      <trkpt lat="43.16659" lon="6.20601">
        <ele>153</ele>
        <time>2023-05-24T11:33:30.000Z</time>
        <extensions>
          <gpxtpx:TrackPointExtension xmlns:gpxtpx="http://www.garmin.com/xmlschemas/TrackPointExtension/v1">
            <gpxtpx:hr>135</gpxtpx:hr>
          </gpxtpx:TrackPointExtension>
        </extensions>
      </trkpt>
      <trkpt lat="43.16657" lon="6.20599">
        <ele>153.60000610352</ele>
        <time>2023-05-24T11:33:31.000Z</time>
        <extensions>
          <gpxtpx:TrackPointExtension xmlns:gpxtpx="http://www.garmin.com/xmlschemas/TrackPointExtension/v1">
            <gpxtpx:hr>130</gpxtpx:hr>
          </gpxtpx:TrackPointExtension>
        </extensions>
      </trkpt>
      <trkpt lat="43.16655" lon="6.20596">
        <ele>154.19999694824</ele>
        <time>2023-05-24T11:33:32.000Z</time>
        <extensions>
          <gpxtpx:TrackPointExtension xmlns:gpxtpx="http://www.garmin.com/xmlschemas/TrackPointExtension/v1">
            <gpxtpx:hr>130</gpxtpx:hr>
          </gpxtpx:TrackPointExtension>
        </extensions>
      </trkpt>
      <trkpt lat="43.16649" lon="6.2059">
        <ele>155.60000610352</ele>
        <time>2023-05-24T11:33:35.000Z</time>
        <extensions>
          <gpxtpx:TrackPointExtension xmlns:gpxtpx="http://www.garmin.com/xmlschemas/TrackPointExtension/v1">
            <gpxtpx:hr>133</gpxtpx:hr>
          </gpxtpx:TrackPointExtension>
        </extensions>
      </trkpt>
      <trkpt lat="43.16647" lon="6.20587">
        <ele>156</ele>
        <time>2023-05-24T11:33:36.000Z</time>
        <extensions>
          <gpxtpx:TrackPointExtension xmlns:gpxtpx="http://www.garmin.com/xmlschemas/TrackPointExtension/v1">
            <gpxtpx:hr>134</gpxtpx:hr>
          </gpxtpx:TrackPointExtension>
        </extensions>
      </trkpt>
      <trkpt lat="43.16638" lon="6.20569">
        <ele>159.60000610352</ele>
        <time>2023-05-24T11:33:42.000Z</time>
        <extensions>
          <gpxtpx:TrackPointExtension xmlns:gpxtpx="http://www.garmin.com/xmlschemas/TrackPointExtension/v1">
            <gpxtpx:hr>138</gpxtpx:hr>
          </gpxtpx:TrackPointExtension>
        </extensions>
      </trkpt>
      <trkpt lat="43.1663" lon="6.20547">
        <ele>164</ele>
        <time>2023-05-24T11:33:50.000Z</time>
        <extensions>
          <gpxtpx:TrackPointExtension xmlns:gpxtpx="http://www.garmin.com/xmlschemas/TrackPointExtension/v1">
            <gpxtpx:hr>140</gpxtpx:hr>
          </gpxtpx:TrackPointExtension>
        </extensions>
      </trkpt>
      <trkpt lat="43.1663" lon="6.20545">
        <ele>164.60000610352</ele>
        <time>2023-05-24T11:33:51.000Z</time>
        <extensions>
          <gpxtpx:TrackPointExtension xmlns:gpxtpx="http://www.garmin.com/xmlschemas/TrackPointExtension/v1">
            <gpxtpx:hr>137</gpxtpx:hr>
          </gpxtpx:TrackPointExtension>
        </extensions>
      </trkpt>
      <trkpt lat="43.16629" lon="6.20539">
        <ele>165.80000305176</ele>
        <time>2023-05-24T11:33:53.000Z</time>
        <extensions>
          <gpxtpx:TrackPointExtension xmlns:gpxtpx="http://www.garmin.com/xmlschemas/TrackPointExtension/v1">
            <gpxtpx:hr>140</gpxtpx:hr>
          </gpxtpx:TrackPointExtension>
        </extensions>
      </trkpt>
      <trkpt lat="43.16627" lon="6.2053">
        <ele>167.60000610352</ele>
        <time>2023-05-24T11:33:56.000Z</time>
        <extensions>
          <gpxtpx:TrackPointExtension xmlns:gpxtpx="http://www.garmin.com/xmlschemas/TrackPointExtension/v1">
            <gpxtpx:hr>139</gpxtpx:hr>
          </gpxtpx:TrackPointExtension>
        </extensions>
      </trkpt>
      <trkpt lat="43.16627" lon="6.20519">
        <ele>170</ele>
        <time>2023-05-24T11:34:00.000Z</time>
        <extensions>
          <gpxtpx:TrackPointExtension xmlns:gpxtpx="http://www.garmin.com/xmlschemas/TrackPointExtension/v1">
            <gpxtpx:hr>141</gpxtpx:hr>
          </gpxtpx:TrackPointExtension>
        </extensions>
      </trkpt>
      <trkpt lat="43.16626" lon="6.20516">
        <ele>170.60000610352</ele>
        <time>2023-05-24T11:34:01.000Z</time>
        <extensions>
          <gpxtpx:TrackPointExtension xmlns:gpxtpx="http://www.garmin.com/xmlschemas/TrackPointExtension/v1">
            <gpxtpx:hr>142</gpxtpx:hr>
          </gpxtpx:TrackPointExtension>
        </extensions>
      </trkpt>
      <trkpt lat="43.1662" lon="6.20504">
        <ele>172.60000610352</ele>
        <time>2023-05-24T11:34:06.000Z</time>
        <extensions>
          <gpxtpx:TrackPointExtension xmlns:gpxtpx="http://www.garmin.com/xmlschemas/TrackPointExtension/v1">
            <gpxtpx:hr>142</gpxtpx:hr>
          </gpxtpx:TrackPointExtension>
        </extensions>
      </trkpt>
      <trkpt lat="43.16618" lon="6.205">
        <ele>173.19999694824</ele>
        <time>2023-05-24T11:34:08.000Z</time>
        <extensions>
          <gpxtpx:TrackPointExtension xmlns:gpxtpx="http://www.garmin.com/xmlschemas/TrackPointExtension/v1">
            <gpxtpx:hr>149</gpxtpx:hr>
          </gpxtpx:TrackPointExtension>
        </extensions>
      </trkpt>
      <trkpt lat="43.16616" lon="6.20498">
        <ele>173.60000610352</ele>
        <time>2023-05-24T11:34:09.000Z</time>
        <extensions>
          <gpxtpx:TrackPointExtension xmlns:gpxtpx="http://www.garmin.com/xmlschemas/TrackPointExtension/v1">
            <gpxtpx:hr>148</gpxtpx:hr>
          </gpxtpx:TrackPointExtension>
        </extensions>
      </trkpt>
      <trkpt lat="43.16614" lon="6.20495">
        <ele>174.19999694824</ele>
        <time>2023-05-24T11:34:11.000Z</time>
        <extensions>
          <gpxtpx:TrackPointExtension xmlns:gpxtpx="http://www.garmin.com/xmlschemas/TrackPointExtension/v1">
            <gpxtpx:hr>145</gpxtpx:hr>
          </gpxtpx:TrackPointExtension>
        </extensions>
      </trkpt>
      <trkpt lat="43.16611" lon="6.20491">
        <ele>174.80000305176</ele>
        <time>2023-05-24T11:34:13.000Z</time>
        <extensions>
          <gpxtpx:TrackPointExtension xmlns:gpxtpx="http://www.garmin.com/xmlschemas/TrackPointExtension/v1">
            <gpxtpx:hr>145</gpxtpx:hr>
          </gpxtpx:TrackPointExtension>
        </extensions>
      </trkpt>
      <trkpt lat="43.16603" lon="6.20473">
        <ele>177</ele>
        <time>2023-05-24T11:34:20.000Z</time>
        <extensions>
          <gpxtpx:TrackPointExtension xmlns:gpxtpx="http://www.garmin.com/xmlschemas/TrackPointExtension/v1">
            <gpxtpx:hr>143</gpxtpx:hr>
          </gpxtpx:TrackPointExtension>
        </extensions>
      </trkpt>
      <trkpt lat="43.16599" lon="6.20464">
        <ele>178.19999694824</ele>
        <time>2023-05-24T11:34:25.000Z</time>
        <extensions>
          <gpxtpx:TrackPointExtension xmlns:gpxtpx="http://www.garmin.com/xmlschemas/TrackPointExtension/v1">
            <gpxtpx:hr>143</gpxtpx:hr>
          </gpxtpx:TrackPointExtension>
        </extensions>
      </trkpt>
      <trkpt lat="43.16599" lon="6.20463">
        <ele>178.19999694824</ele>
        <time>2023-05-24T11:34:29.000Z</time>
        <extensions>
          <gpxtpx:TrackPointExtension xmlns:gpxtpx="http://www.garmin.com/xmlschemas/TrackPointExtension/v1">
            <gpxtpx:hr>145</gpxtpx:hr>
          </gpxtpx:TrackPointExtension>
        </extensions>
      </trkpt>
      <trkpt lat="43.16599" lon="6.20463">
        <ele>178.19999694824</ele>
        <time>2023-05-24T11:34:36.000Z</time>
        <extensions>
          <gpxtpx:TrackPointExtension xmlns:gpxtpx="http://www.garmin.com/xmlschemas/TrackPointExtension/v1">
            <gpxtpx:hr>142</gpxtpx:hr>
          </gpxtpx:TrackPointExtension>
        </extensions>
      </trkpt>
      <trkpt lat="43.16599" lon="6.20463">
        <ele>178.19999694824</ele>
        <time>2023-05-24T11:34:38.000Z</time>
        <extensions>
          <gpxtpx:TrackPointExtension xmlns:gpxtpx="http://www.garmin.com/xmlschemas/TrackPointExtension/v1">
            <gpxtpx:hr>142</gpxtpx:hr>
          </gpxtpx:TrackPointExtension>
        </extensions>
      </trkpt>
      <trkpt lat="43.16599" lon="6.20463">
        <ele>178.19999694824</ele>
        <time>2023-05-24T11:34:47.000Z</time>
        <extensions>
          <gpxtpx:TrackPointExtension xmlns:gpxtpx="http://www.garmin.com/xmlschemas/TrackPointExtension/v1">
            <gpxtpx:hr>142</gpxtpx:hr>
          </gpxtpx:TrackPointExtension>
        </extensions>
      </trkpt>
      <trkpt lat="43.16599" lon="6.20463">
        <ele>178.19999694824</ele>
        <time>2023-05-24T11:34:58.000Z</time>
        <extensions>
          <gpxtpx:TrackPointExtension xmlns:gpxtpx="http://www.garmin.com/xmlschemas/TrackPointExtension/v1">
            <gpxtpx:hr>139</gpxtpx:hr>
          </gpxtpx:TrackPointExtension>
        </extensions>
      </trkpt>
      <trkpt lat="43.16599" lon="6.20463">
        <ele>178.19999694824</ele>
        <time>2023-05-24T11:34:59.000Z</time>
        <extensions>
          <gpxtpx:TrackPointExtension xmlns:gpxtpx="http://www.garmin.com/xmlschemas/TrackPointExtension/v1">
            <gpxtpx:hr>139</gpxtpx:hr>
          </gpxtpx:TrackPointExtension>
        </extensions>
      </trkpt>
      <trkpt lat="43.16599" lon="6.20463">
        <ele>178.19999694824</ele>
        <time>2023-05-24T11:35:04.000Z</time>
        <extensions>
          <gpxtpx:TrackPointExtension xmlns:gpxtpx="http://www.garmin.com/xmlschemas/TrackPointExtension/v1">
            <gpxtpx:hr>136</gpxtpx:hr>
          </gpxtpx:TrackPointExtension>
        </extensions>
      </trkpt>
      <trkpt lat="43.16599" lon="6.20463">
        <ele>178.19999694824</ele>
        <time>2023-05-24T11:35:09.000Z</time>
        <extensions>
          <gpxtpx:TrackPointExtension xmlns:gpxtpx="http://www.garmin.com/xmlschemas/TrackPointExtension/v1">
            <gpxtpx:hr>133</gpxtpx:hr>
          </gpxtpx:TrackPointExtension>
        </extensions>
      </trkpt>
      <trkpt lat="43.16599" lon="6.20463">
        <ele>178.19999694824</ele>
        <time>2023-05-24T11:35:14.000Z</time>
        <extensions>
          <gpxtpx:TrackPointExtension xmlns:gpxtpx="http://www.garmin.com/xmlschemas/TrackPointExtension/v1">
            <gpxtpx:hr>129</gpxtpx:hr>
          </gpxtpx:TrackPointExtension>
        </extensions>
      </trkpt>
      <trkpt lat="43.16598" lon="6.20463">
        <ele>178.19999694824</ele>
        <time>2023-05-24T11:35:17.000Z</time>
        <extensions>
          <gpxtpx:TrackPointExtension xmlns:gpxtpx="http://www.garmin.com/xmlschemas/TrackPointExtension/v1">
            <gpxtpx:hr>128</gpxtpx:hr>
          </gpxtpx:TrackPointExtension>
        </extensions>
      </trkpt>
      <trkpt lat="43.16592" lon="6.20458">
        <ele>178.80000305176</ele>
        <time>2023-05-24T11:35:22.000Z</time>
        <extensions>
          <gpxtpx:TrackPointExtension xmlns:gpxtpx="http://www.garmin.com/xmlschemas/TrackPointExtension/v1">
            <gpxtpx:hr>128</gpxtpx:hr>
          </gpxtpx:TrackPointExtension>
        </extensions>
      </trkpt>
      <trkpt lat="43.16592" lon="6.20458">
        <ele>178.80000305176</ele>
        <time>2023-05-24T11:35:30.000Z</time>
        <extensions>
          <gpxtpx:TrackPointExtension xmlns:gpxtpx="http://www.garmin.com/xmlschemas/TrackPointExtension/v1">
            <gpxtpx:hr>125</gpxtpx:hr>
          </gpxtpx:TrackPointExtension>
        </extensions>
      </trkpt>
      <trkpt lat="43.16592" lon="6.20458">
        <ele>178.80000305176</ele>
        <time>2023-05-24T11:35:32.000Z</time>
        <extensions>
          <gpxtpx:TrackPointExtension xmlns:gpxtpx="http://www.garmin.com/xmlschemas/TrackPointExtension/v1">
            <gpxtpx:hr>124</gpxtpx:hr>
          </gpxtpx:TrackPointExtension>
        </extensions>
      </trkpt>
      <trkpt lat="43.16592" lon="6.20458">
        <ele>178.80000305176</ele>
        <time>2023-05-24T11:35:48.000Z</time>
        <extensions>
          <gpxtpx:TrackPointExtension xmlns:gpxtpx="http://www.garmin.com/xmlschemas/TrackPointExtension/v1">
            <gpxtpx:hr>122</gpxtpx:hr>
          </gpxtpx:TrackPointExtension>
        </extensions>
      </trkpt>
      <trkpt lat="43.16592" lon="6.20458">
        <ele>178.80000305176</ele>
        <time>2023-05-24T11:36:02.000Z</time>
        <extensions>
          <gpxtpx:TrackPointExtension xmlns:gpxtpx="http://www.garmin.com/xmlschemas/TrackPointExtension/v1">
            <gpxtpx:hr>119</gpxtpx:hr>
          </gpxtpx:TrackPointExtension>
        </extensions>
      </trkpt>
      <trkpt lat="43.16592" lon="6.20458">
        <ele>178.80000305176</ele>
        <time>2023-05-24T11:36:05.000Z</time>
        <extensions>
          <gpxtpx:TrackPointExtension xmlns:gpxtpx="http://www.garmin.com/xmlschemas/TrackPointExtension/v1">
            <gpxtpx:hr>119</gpxtpx:hr>
          </gpxtpx:TrackPointExtension>
        </extensions>
      </trkpt>
      <trkpt lat="43.16592" lon="6.20458">
        <ele>178.80000305176</ele>
        <time>2023-05-24T11:36:22.000Z</time>
        <extensions>
          <gpxtpx:TrackPointExtension xmlns:gpxtpx="http://www.garmin.com/xmlschemas/TrackPointExtension/v1">
            <gpxtpx:hr>117</gpxtpx:hr>
          </gpxtpx:TrackPointExtension>
        </extensions>
      </trkpt>
      <trkpt lat="43.16592" lon="6.20458">
        <ele>178.80000305176</ele>
        <time>2023-05-24T11:36:45.000Z</time>
        <extensions>
          <gpxtpx:TrackPointExtension xmlns:gpxtpx="http://www.garmin.com/xmlschemas/TrackPointExtension/v1">
            <gpxtpx:hr>117</gpxtpx:hr>
          </gpxtpx:TrackPointExtension>
        </extensions>
      </trkpt>
      <trkpt lat="43.1659" lon="6.20457">
        <ele>178.80000305176</ele>
        <time>2023-05-24T11:37:00.000Z</time>
        <extensions>
          <gpxtpx:TrackPointExtension xmlns:gpxtpx="http://www.garmin.com/xmlschemas/TrackPointExtension/v1">
            <gpxtpx:hr>120</gpxtpx:hr>
          </gpxtpx:TrackPointExtension>
        </extensions>
      </trkpt>
      <trkpt lat="43.1658" lon="6.20451">
        <ele>179.80000305176</ele>
        <time>2023-05-24T11:37:06.000Z</time>
        <extensions>
          <gpxtpx:TrackPointExtension xmlns:gpxtpx="http://www.garmin.com/xmlschemas/TrackPointExtension/v1">
            <gpxtpx:hr>117</gpxtpx:hr>
          </gpxtpx:TrackPointExtension>
        </extensions>
      </trkpt>
      <trkpt lat="43.1657" lon="6.20446">
        <ele>180.80000305176</ele>
        <time>2023-05-24T11:37:14.000Z</time>
        <extensions>
          <gpxtpx:TrackPointExtension xmlns:gpxtpx="http://www.garmin.com/xmlschemas/TrackPointExtension/v1">
            <gpxtpx:hr>116</gpxtpx:hr>
          </gpxtpx:TrackPointExtension>
        </extensions>
      </trkpt>
      <trkpt lat="43.16562" lon="6.2044">
        <ele>182</ele>
        <time>2023-05-24T11:37:20.000Z</time>
        <extensions>
          <gpxtpx:TrackPointExtension xmlns:gpxtpx="http://www.garmin.com/xmlschemas/TrackPointExtension/v1">
            <gpxtpx:hr>118</gpxtpx:hr>
          </gpxtpx:TrackPointExtension>
        </extensions>
      </trkpt>
      <trkpt lat="43.1655" lon="6.20432">
        <ele>183.80000305176</ele>
        <time>2023-05-24T11:37:27.000Z</time>
        <extensions>
          <gpxtpx:TrackPointExtension xmlns:gpxtpx="http://www.garmin.com/xmlschemas/TrackPointExtension/v1">
            <gpxtpx:hr>118</gpxtpx:hr>
          </gpxtpx:TrackPointExtension>
        </extensions>
      </trkpt>
      <trkpt lat="43.16541" lon="6.20424">
        <ele>185.39999389648</ele>
        <time>2023-05-24T11:37:33.000Z</time>
        <extensions>
          <gpxtpx:TrackPointExtension xmlns:gpxtpx="http://www.garmin.com/xmlschemas/TrackPointExtension/v1">
            <gpxtpx:hr>121</gpxtpx:hr>
          </gpxtpx:TrackPointExtension>
        </extensions>
      </trkpt>
      <trkpt lat="43.16535" lon="6.20417">
        <ele>186.80000305176</ele>
        <time>2023-05-24T11:37:37.000Z</time>
        <extensions>
          <gpxtpx:TrackPointExtension xmlns:gpxtpx="http://www.garmin.com/xmlschemas/TrackPointExtension/v1">
            <gpxtpx:hr>118</gpxtpx:hr>
          </gpxtpx:TrackPointExtension>
        </extensions>
      </trkpt>
      <trkpt lat="43.16534" lon="6.20414">
        <ele>187</ele>
        <time>2023-05-24T11:37:39.000Z</time>
        <extensions>
          <gpxtpx:TrackPointExtension xmlns:gpxtpx="http://www.garmin.com/xmlschemas/TrackPointExtension/v1">
            <gpxtpx:hr>123</gpxtpx:hr>
          </gpxtpx:TrackPointExtension>
        </extensions>
      </trkpt>
      <trkpt lat="43.1653" lon="6.20412">
        <ele>187.80000305176</ele>
        <time>2023-05-24T11:37:43.000Z</time>
        <extensions>
          <gpxtpx:TrackPointExtension xmlns:gpxtpx="http://www.garmin.com/xmlschemas/TrackPointExtension/v1">
            <gpxtpx:hr>122</gpxtpx:hr>
          </gpxtpx:TrackPointExtension>
        </extensions>
      </trkpt>
      <trkpt lat="43.1653" lon="6.20412">
        <ele>187.80000305176</ele>
        <time>2023-05-24T11:37:55.000Z</time>
        <extensions>
          <gpxtpx:TrackPointExtension xmlns:gpxtpx="http://www.garmin.com/xmlschemas/TrackPointExtension/v1">
            <gpxtpx:hr>122</gpxtpx:hr>
          </gpxtpx:TrackPointExtension>
        </extensions>
      </trkpt>
      <trkpt lat="43.1653" lon="6.20412">
        <ele>187.80000305176</ele>
        <time>2023-05-24T11:38:13.000Z</time>
        <extensions>
          <gpxtpx:TrackPointExtension xmlns:gpxtpx="http://www.garmin.com/xmlschemas/TrackPointExtension/v1">
            <gpxtpx:hr>120</gpxtpx:hr>
          </gpxtpx:TrackPointExtension>
        </extensions>
      </trkpt>
      <trkpt lat="43.1653" lon="6.20412">
        <ele>187.80000305176</ele>
        <time>2023-05-24T11:38:32.000Z</time>
        <extensions>
          <gpxtpx:TrackPointExtension xmlns:gpxtpx="http://www.garmin.com/xmlschemas/TrackPointExtension/v1">
            <gpxtpx:hr>119</gpxtpx:hr>
          </gpxtpx:TrackPointExtension>
        </extensions>
      </trkpt>
      <trkpt lat="43.1653" lon="6.20412">
        <ele>187.80000305176</ele>
        <time>2023-05-24T11:38:50.000Z</time>
        <extensions>
          <gpxtpx:TrackPointExtension xmlns:gpxtpx="http://www.garmin.com/xmlschemas/TrackPointExtension/v1">
            <gpxtpx:hr>118</gpxtpx:hr>
          </gpxtpx:TrackPointExtension>
        </extensions>
      </trkpt>
      <trkpt lat="43.1652" lon="6.20406">
        <ele>190</ele>
        <time>2023-05-24T11:38:55.000Z</time>
        <extensions>
          <gpxtpx:TrackPointExtension xmlns:gpxtpx="http://www.garmin.com/xmlschemas/TrackPointExtension/v1">
            <gpxtpx:hr>119</gpxtpx:hr>
          </gpxtpx:TrackPointExtension>
        </extensions>
      </trkpt>
      <trkpt lat="43.16502" lon="6.20401">
        <ele>192</ele>
        <time>2023-05-24T11:39:03.000Z</time>
        <extensions>
          <gpxtpx:TrackPointExtension xmlns:gpxtpx="http://www.garmin.com/xmlschemas/TrackPointExtension/v1">
            <gpxtpx:hr>120</gpxtpx:hr>
          </gpxtpx:TrackPointExtension>
        </extensions>
      </trkpt>
      <trkpt lat="43.16495" lon="6.20399">
        <ele>192.80000305176</ele>
        <time>2023-05-24T11:39:06.000Z</time>
        <extensions>
          <gpxtpx:TrackPointExtension xmlns:gpxtpx="http://www.garmin.com/xmlschemas/TrackPointExtension/v1">
            <gpxtpx:hr>117</gpxtpx:hr>
          </gpxtpx:TrackPointExtension>
        </extensions>
      </trkpt>
      <trkpt lat="43.1649" lon="6.20397">
        <ele>193.19999694824</ele>
        <time>2023-05-24T11:39:08.000Z</time>
        <extensions>
          <gpxtpx:TrackPointExtension xmlns:gpxtpx="http://www.garmin.com/xmlschemas/TrackPointExtension/v1">
            <gpxtpx:hr>119</gpxtpx:hr>
          </gpxtpx:TrackPointExtension>
        </extensions>
      </trkpt>
      <trkpt lat="43.16475" lon="6.20396">
        <ele>192.39999389648</ele>
        <time>2023-05-24T11:39:15.000Z</time>
        <extensions>
          <gpxtpx:TrackPointExtension xmlns:gpxtpx="http://www.garmin.com/xmlschemas/TrackPointExtension/v1">
            <gpxtpx:hr>119</gpxtpx:hr>
          </gpxtpx:TrackPointExtension>
        </extensions>
      </trkpt>
      <trkpt lat="43.16472" lon="6.20395">
        <ele>192.19999694824</ele>
        <time>2023-05-24T11:39:17.000Z</time>
        <extensions>
          <gpxtpx:TrackPointExtension xmlns:gpxtpx="http://www.garmin.com/xmlschemas/TrackPointExtension/v1">
            <gpxtpx:hr>124</gpxtpx:hr>
          </gpxtpx:TrackPointExtension>
        </extensions>
      </trkpt>
      <trkpt lat="43.1647" lon="6.20395">
        <ele>192.19999694824</ele>
        <time>2023-05-24T11:39:18.000Z</time>
        <extensions>
          <gpxtpx:TrackPointExtension xmlns:gpxtpx="http://www.garmin.com/xmlschemas/TrackPointExtension/v1">
            <gpxtpx:hr>124</gpxtpx:hr>
          </gpxtpx:TrackPointExtension>
        </extensions>
      </trkpt>
      <trkpt lat="43.16469" lon="6.20396">
        <ele>192.19999694824</ele>
        <time>2023-05-24T11:39:20.000Z</time>
        <extensions>
          <gpxtpx:TrackPointExtension xmlns:gpxtpx="http://www.garmin.com/xmlschemas/TrackPointExtension/v1">
            <gpxtpx:hr>122</gpxtpx:hr>
          </gpxtpx:TrackPointExtension>
        </extensions>
      </trkpt>
      <trkpt lat="43.16468" lon="6.20395">
        <ele>192.19999694824</ele>
        <time>2023-05-24T11:39:28.000Z</time>
        <extensions>
          <gpxtpx:TrackPointExtension xmlns:gpxtpx="http://www.garmin.com/xmlschemas/TrackPointExtension/v1">
            <gpxtpx:hr>119</gpxtpx:hr>
          </gpxtpx:TrackPointExtension>
        </extensions>
      </trkpt>
      <trkpt lat="43.16466" lon="6.20395">
        <ele>192</ele>
        <time>2023-05-24T11:39:29.000Z</time>
        <extensions>
          <gpxtpx:TrackPointExtension xmlns:gpxtpx="http://www.garmin.com/xmlschemas/TrackPointExtension/v1">
            <gpxtpx:hr>116</gpxtpx:hr>
          </gpxtpx:TrackPointExtension>
        </extensions>
      </trkpt>
      <trkpt lat="43.16464" lon="6.20395">
        <ele>192</ele>
        <time>2023-05-24T11:39:30.000Z</time>
        <extensions>
          <gpxtpx:TrackPointExtension xmlns:gpxtpx="http://www.garmin.com/xmlschemas/TrackPointExtension/v1">
            <gpxtpx:hr>118</gpxtpx:hr>
          </gpxtpx:TrackPointExtension>
        </extensions>
      </trkpt>
      <trkpt lat="43.16454" lon="6.20399">
        <ele>190.19999694824</ele>
        <time>2023-05-24T11:39:34.000Z</time>
        <extensions>
          <gpxtpx:TrackPointExtension xmlns:gpxtpx="http://www.garmin.com/xmlschemas/TrackPointExtension/v1">
            <gpxtpx:hr>121</gpxtpx:hr>
          </gpxtpx:TrackPointExtension>
        </extensions>
      </trkpt>
      <trkpt lat="43.16453" lon="6.204">
        <ele>189.80000305176</ele>
        <time>2023-05-24T11:39:35.000Z</time>
        <extensions>
          <gpxtpx:TrackPointExtension xmlns:gpxtpx="http://www.garmin.com/xmlschemas/TrackPointExtension/v1">
            <gpxtpx:hr>121</gpxtpx:hr>
          </gpxtpx:TrackPointExtension>
        </extensions>
      </trkpt>
      <trkpt lat="43.16441" lon="6.20409">
        <ele>187.80000305176</ele>
        <time>2023-05-24T11:39:40.000Z</time>
        <extensions>
          <gpxtpx:TrackPointExtension xmlns:gpxtpx="http://www.garmin.com/xmlschemas/TrackPointExtension/v1">
            <gpxtpx:hr>123</gpxtpx:hr>
          </gpxtpx:TrackPointExtension>
        </extensions>
      </trkpt>
      <trkpt lat="43.16429" lon="6.20423">
        <ele>182.80000305176</ele>
        <time>2023-05-24T11:39:46.000Z</time>
        <extensions>
          <gpxtpx:TrackPointExtension xmlns:gpxtpx="http://www.garmin.com/xmlschemas/TrackPointExtension/v1">
            <gpxtpx:hr>124</gpxtpx:hr>
          </gpxtpx:TrackPointExtension>
        </extensions>
      </trkpt>
      <trkpt lat="43.16419" lon="6.20442">
        <ele>177.80000305176</ele>
        <time>2023-05-24T11:39:51.000Z</time>
        <extensions>
          <gpxtpx:TrackPointExtension xmlns:gpxtpx="http://www.garmin.com/xmlschemas/TrackPointExtension/v1">
            <gpxtpx:hr>123</gpxtpx:hr>
          </gpxtpx:TrackPointExtension>
        </extensions>
      </trkpt>
      <trkpt lat="43.16412" lon="6.20452">
        <ele>175.39999389648</ele>
        <time>2023-05-24T11:39:53.000Z</time>
        <extensions>
          <gpxtpx:TrackPointExtension xmlns:gpxtpx="http://www.garmin.com/xmlschemas/TrackPointExtension/v1">
            <gpxtpx:hr>123</gpxtpx:hr>
          </gpxtpx:TrackPointExtension>
        </extensions>
      </trkpt>
      <trkpt lat="43.16403" lon="6.20463">
        <ele>173.60000610352</ele>
        <time>2023-05-24T11:39:55.000Z</time>
        <extensions>
          <gpxtpx:TrackPointExtension xmlns:gpxtpx="http://www.garmin.com/xmlschemas/TrackPointExtension/v1">
            <gpxtpx:hr>123</gpxtpx:hr>
          </gpxtpx:TrackPointExtension>
        </extensions>
      </trkpt>
      <trkpt lat="43.16392" lon="6.20473">
        <ele>170.80000305176</ele>
        <time>2023-05-24T11:39:57.000Z</time>
        <extensions>
          <gpxtpx:TrackPointExtension xmlns:gpxtpx="http://www.garmin.com/xmlschemas/TrackPointExtension/v1">
            <gpxtpx:hr>123</gpxtpx:hr>
          </gpxtpx:TrackPointExtension>
        </extensions>
      </trkpt>
      <trkpt lat="43.16379" lon="6.20479">
        <ele>169.80000305176</ele>
        <time>2023-05-24T11:39:59.000Z</time>
        <extensions>
          <gpxtpx:TrackPointExtension xmlns:gpxtpx="http://www.garmin.com/xmlschemas/TrackPointExtension/v1">
            <gpxtpx:hr>123</gpxtpx:hr>
          </gpxtpx:TrackPointExtension>
        </extensions>
      </trkpt>
      <trkpt lat="43.16373" lon="6.20481">
        <ele>169</ele>
        <time>2023-05-24T11:40:00.000Z</time>
        <extensions>
          <gpxtpx:TrackPointExtension xmlns:gpxtpx="http://www.garmin.com/xmlschemas/TrackPointExtension/v1">
            <gpxtpx:hr>123</gpxtpx:hr>
          </gpxtpx:TrackPointExtension>
        </extensions>
      </trkpt>
      <trkpt lat="43.16362" lon="6.20481">
        <ele>167.60000610352</ele>
        <time>2023-05-24T11:40:02.000Z</time>
        <extensions>
          <gpxtpx:TrackPointExtension xmlns:gpxtpx="http://www.garmin.com/xmlschemas/TrackPointExtension/v1">
            <gpxtpx:hr>123</gpxtpx:hr>
          </gpxtpx:TrackPointExtension>
        </extensions>
      </trkpt>
      <trkpt lat="43.16352" lon="6.20477">
        <ele>166.60000610352</ele>
        <time>2023-05-24T11:40:05.000Z</time>
        <extensions>
          <gpxtpx:TrackPointExtension xmlns:gpxtpx="http://www.garmin.com/xmlschemas/TrackPointExtension/v1">
            <gpxtpx:hr>122</gpxtpx:hr>
          </gpxtpx:TrackPointExtension>
        </extensions>
      </trkpt>
      <trkpt lat="43.16351" lon="6.20477">
        <ele>166.60000610352</ele>
        <time>2023-05-24T11:40:09.000Z</time>
        <extensions>
          <gpxtpx:TrackPointExtension xmlns:gpxtpx="http://www.garmin.com/xmlschemas/TrackPointExtension/v1">
            <gpxtpx:hr>121</gpxtpx:hr>
          </gpxtpx:TrackPointExtension>
        </extensions>
      </trkpt>
      <trkpt lat="43.16351" lon="6.20477">
        <ele>166.60000610352</ele>
        <time>2023-05-24T11:40:22.000Z</time>
        <extensions>
          <gpxtpx:TrackPointExtension xmlns:gpxtpx="http://www.garmin.com/xmlschemas/TrackPointExtension/v1">
            <gpxtpx:hr>120</gpxtpx:hr>
          </gpxtpx:TrackPointExtension>
        </extensions>
      </trkpt>
      <trkpt lat="43.16341" lon="6.20473">
        <ele>166.19999694824</ele>
        <time>2023-05-24T11:40:27.000Z</time>
        <extensions>
          <gpxtpx:TrackPointExtension xmlns:gpxtpx="http://www.garmin.com/xmlschemas/TrackPointExtension/v1">
            <gpxtpx:hr>128</gpxtpx:hr>
          </gpxtpx:TrackPointExtension>
        </extensions>
      </trkpt>
      <trkpt lat="43.16268" lon="6.20448">
        <ele>183.7</ele>
      </trkpt>
      <trkpt lat="43.16175" lon="6.20353">
        <ele>186.1</ele>
      </trkpt>
      <trkpt lat="43.16112" lon="6.20317">
        <ele>189.3</ele>
      </trkpt>
      <trkpt lat="43.16021" lon="6.20188">
        <ele>220.1</ele>
      </trkpt>
      <trkpt lat="43.15975" lon="6.20115">
        <ele>225.4</ele>
      </trkpt>
      <trkpt lat="43.15875" lon="6.20032">
        <ele>222.5</ele>
      </trkpt>
      <trkpt lat="43.15817" lon="6.2001">
        <ele>230</ele>
      </trkpt>
      <trkpt lat="43.15707" lon="6.19847">
        <ele>228.1</ele>
      </trkpt>
      <trkpt lat="43.15653" lon="6.19793">
        <ele>215.1</ele>
      </trkpt>
      <trkpt lat="43.1562" lon="6.1977">
        <ele>210.80000305176</ele>
        <time>2023-05-24T11:46:53.000Z</time>
        <extensions>
          <gpxtpx:TrackPointExtension xmlns:gpxtpx="http://www.garmin.com/xmlschemas/TrackPointExtension/v1">
            <gpxtpx:hr>140</gpxtpx:hr>
          </gpxtpx:TrackPointExtension>
        </extensions>
      </trkpt>
      <trkpt lat="43.15619" lon="6.1977">
        <ele>210.39999389648</ele>
        <time>2023-05-24T11:46:56.000Z</time>
        <extensions>
          <gpxtpx:TrackPointExtension xmlns:gpxtpx="http://www.garmin.com/xmlschemas/TrackPointExtension/v1">
            <gpxtpx:hr>140</gpxtpx:hr>
          </gpxtpx:TrackPointExtension>
        </extensions>
      </trkpt>
      <trkpt lat="43.15619" lon="6.1977">
        <ele>210.39999389648</ele>
        <time>2023-05-24T11:47:15.000Z</time>
        <extensions>
          <gpxtpx:TrackPointExtension xmlns:gpxtpx="http://www.garmin.com/xmlschemas/TrackPointExtension/v1">
            <gpxtpx:hr>140</gpxtpx:hr>
          </gpxtpx:TrackPointExtension>
        </extensions>
      </trkpt>
      <trkpt lat="43.15619" lon="6.19769">
        <ele>210.60000610352</ele>
        <time>2023-05-24T11:47:37.000Z</time>
        <extensions>
          <gpxtpx:TrackPointExtension xmlns:gpxtpx="http://www.garmin.com/xmlschemas/TrackPointExtension/v1">
            <gpxtpx:hr>138</gpxtpx:hr>
          </gpxtpx:TrackPointExtension>
        </extensions>
      </trkpt>
      <trkpt lat="43.15619" lon="6.19769">
        <ele>210.60000610352</ele>
        <time>2023-05-24T11:47:51.000Z</time>
        <extensions>
          <gpxtpx:TrackPointExtension xmlns:gpxtpx="http://www.garmin.com/xmlschemas/TrackPointExtension/v1">
            <gpxtpx:hr>135</gpxtpx:hr>
          </gpxtpx:TrackPointExtension>
        </extensions>
      </trkpt>
      <trkpt lat="43.15619" lon="6.19769">
        <ele>210.60000610352</ele>
        <time>2023-05-24T11:47:55.000Z</time>
        <extensions>
          <gpxtpx:TrackPointExtension xmlns:gpxtpx="http://www.garmin.com/xmlschemas/TrackPointExtension/v1">
            <gpxtpx:hr>132</gpxtpx:hr>
          </gpxtpx:TrackPointExtension>
        </extensions>
      </trkpt>
      <trkpt lat="43.15619" lon="6.19769">
        <ele>210.60000610352</ele>
        <time>2023-05-24T11:47:56.000Z</time>
        <extensions>
          <gpxtpx:TrackPointExtension xmlns:gpxtpx="http://www.garmin.com/xmlschemas/TrackPointExtension/v1">
            <gpxtpx:hr>132</gpxtpx:hr>
          </gpxtpx:TrackPointExtension>
        </extensions>
      </trkpt>
      <trkpt lat="43.15619" lon="6.19769">
        <ele>210.60000610352</ele>
        <time>2023-05-24T11:48:01.000Z</time>
        <extensions>
          <gpxtpx:TrackPointExtension xmlns:gpxtpx="http://www.garmin.com/xmlschemas/TrackPointExtension/v1">
            <gpxtpx:hr>129</gpxtpx:hr>
          </gpxtpx:TrackPointExtension>
        </extensions>
      </trkpt>
      <trkpt lat="43.15619" lon="6.19769">
        <ele>210.60000610352</ele>
        <time>2023-05-24T11:48:06.000Z</time>
        <extensions>
          <gpxtpx:TrackPointExtension xmlns:gpxtpx="http://www.garmin.com/xmlschemas/TrackPointExtension/v1">
            <gpxtpx:hr>126</gpxtpx:hr>
          </gpxtpx:TrackPointExtension>
        </extensions>
      </trkpt>
      <trkpt lat="43.15616" lon="6.19767">
        <ele>210.39999389648</ele>
        <time>2023-05-24T11:48:09.000Z</time>
        <extensions>
          <gpxtpx:TrackPointExtension xmlns:gpxtpx="http://www.garmin.com/xmlschemas/TrackPointExtension/v1">
            <gpxtpx:hr>128</gpxtpx:hr>
          </gpxtpx:TrackPointExtension>
        </extensions>
      </trkpt>
      <trkpt lat="43.15606" lon="6.19754">
        <ele>210.80000305176</ele>
        <time>2023-05-24T11:48:14.000Z</time>
        <extensions>
          <gpxtpx:TrackPointExtension xmlns:gpxtpx="http://www.garmin.com/xmlschemas/TrackPointExtension/v1">
            <gpxtpx:hr>129</gpxtpx:hr>
          </gpxtpx:TrackPointExtension>
        </extensions>
      </trkpt>
      <trkpt lat="43.156" lon="6.19743">
        <ele>211.80000305176</ele>
        <time>2023-05-24T11:48:17.000Z</time>
        <extensions>
          <gpxtpx:TrackPointExtension xmlns:gpxtpx="http://www.garmin.com/xmlschemas/TrackPointExtension/v1">
            <gpxtpx:hr>134</gpxtpx:hr>
          </gpxtpx:TrackPointExtension>
        </extensions>
      </trkpt>
      <trkpt lat="43.15599" lon="6.19739">
        <ele>212.19999694824</ele>
        <time>2023-05-24T11:48:18.000Z</time>
        <extensions>
          <gpxtpx:TrackPointExtension xmlns:gpxtpx="http://www.garmin.com/xmlschemas/TrackPointExtension/v1">
            <gpxtpx:hr>134</gpxtpx:hr>
          </gpxtpx:TrackPointExtension>
        </extensions>
      </trkpt>
      <trkpt lat="43.15597" lon="6.19736">
        <ele>212.60000610352</ele>
        <time>2023-05-24T11:48:19.000Z</time>
        <extensions>
          <gpxtpx:TrackPointExtension xmlns:gpxtpx="http://www.garmin.com/xmlschemas/TrackPointExtension/v1">
            <gpxtpx:hr>130</gpxtpx:hr>
          </gpxtpx:TrackPointExtension>
        </extensions>
      </trkpt>
      <trkpt lat="43.15592" lon="6.19719">
        <ele>213.60000610352</ele>
        <time>2023-05-24T11:48:23.000Z</time>
        <extensions>
          <gpxtpx:TrackPointExtension xmlns:gpxtpx="http://www.garmin.com/xmlschemas/TrackPointExtension/v1">
            <gpxtpx:hr>134</gpxtpx:hr>
          </gpxtpx:TrackPointExtension>
        </extensions>
      </trkpt>
      <trkpt lat="43.15585" lon="6.19693">
        <ele>215.39999389648</ele>
        <time>2023-05-24T11:48:29.000Z</time>
        <extensions>
          <gpxtpx:TrackPointExtension xmlns:gpxtpx="http://www.garmin.com/xmlschemas/TrackPointExtension/v1">
            <gpxtpx:hr>129</gpxtpx:hr>
          </gpxtpx:TrackPointExtension>
        </extensions>
      </trkpt>
      <trkpt lat="43.15584" lon="6.19688">
        <ele>215.39999389648</ele>
        <time>2023-05-24T11:48:30.000Z</time>
        <extensions>
          <gpxtpx:TrackPointExtension xmlns:gpxtpx="http://www.garmin.com/xmlschemas/TrackPointExtension/v1">
            <gpxtpx:hr>129</gpxtpx:hr>
          </gpxtpx:TrackPointExtension>
        </extensions>
      </trkpt>
      <trkpt lat="43.1558" lon="6.19665">
        <ele>216.80000305176</ele>
        <time>2023-05-24T11:48:35.000Z</time>
        <extensions>
          <gpxtpx:TrackPointExtension xmlns:gpxtpx="http://www.garmin.com/xmlschemas/TrackPointExtension/v1">
            <gpxtpx:hr>132</gpxtpx:hr>
          </gpxtpx:TrackPointExtension>
        </extensions>
      </trkpt>
      <trkpt lat="43.15578" lon="6.19656">
        <ele>216.80000305176</ele>
        <time>2023-05-24T11:48:37.000Z</time>
        <extensions>
          <gpxtpx:TrackPointExtension xmlns:gpxtpx="http://www.garmin.com/xmlschemas/TrackPointExtension/v1">
            <gpxtpx:hr>131</gpxtpx:hr>
          </gpxtpx:TrackPointExtension>
        </extensions>
      </trkpt>
      <trkpt lat="43.15573" lon="6.19628">
        <ele>219.39999389648</ele>
        <time>2023-05-24T11:48:44.000Z</time>
        <extensions>
          <gpxtpx:TrackPointExtension xmlns:gpxtpx="http://www.garmin.com/xmlschemas/TrackPointExtension/v1">
            <gpxtpx:hr>133</gpxtpx:hr>
          </gpxtpx:TrackPointExtension>
        </extensions>
      </trkpt>
      <trkpt lat="43.15571" lon="6.19615">
        <ele>220.60000610352</ele>
        <time>2023-05-24T11:48:48.000Z</time>
        <extensions>
          <gpxtpx:TrackPointExtension xmlns:gpxtpx="http://www.garmin.com/xmlschemas/TrackPointExtension/v1">
            <gpxtpx:hr>136</gpxtpx:hr>
          </gpxtpx:TrackPointExtension>
        </extensions>
      </trkpt>
      <trkpt lat="43.15569" lon="6.19607">
        <ele>221.39999389648</ele>
        <time>2023-05-24T11:48:50.000Z</time>
        <extensions>
          <gpxtpx:TrackPointExtension xmlns:gpxtpx="http://www.garmin.com/xmlschemas/TrackPointExtension/v1">
            <gpxtpx:hr>134</gpxtpx:hr>
          </gpxtpx:TrackPointExtension>
        </extensions>
      </trkpt>
      <trkpt lat="43.15564" lon="6.19585">
        <ele>223</ele>
        <time>2023-05-24T11:48:56.000Z</time>
        <extensions>
          <gpxtpx:TrackPointExtension xmlns:gpxtpx="http://www.garmin.com/xmlschemas/TrackPointExtension/v1">
            <gpxtpx:hr>137</gpxtpx:hr>
          </gpxtpx:TrackPointExtension>
        </extensions>
      </trkpt>
      <trkpt lat="43.15563" lon="6.19582">
        <ele>223.19999694824</ele>
        <time>2023-05-24T11:48:57.000Z</time>
        <extensions>
          <gpxtpx:TrackPointExtension xmlns:gpxtpx="http://www.garmin.com/xmlschemas/TrackPointExtension/v1">
            <gpxtpx:hr>136</gpxtpx:hr>
          </gpxtpx:TrackPointExtension>
        </extensions>
      </trkpt>
      <trkpt lat="43.15562" lon="6.19569">
        <ele>224</ele>
        <time>2023-05-24T11:49:00.000Z</time>
        <extensions>
          <gpxtpx:TrackPointExtension xmlns:gpxtpx="http://www.garmin.com/xmlschemas/TrackPointExtension/v1">
            <gpxtpx:hr>138</gpxtpx:hr>
          </gpxtpx:TrackPointExtension>
        </extensions>
      </trkpt>
      <trkpt lat="43.1556" lon="6.19551">
        <ele>224.19999694824</ele>
        <time>2023-05-24T11:49:04.000Z</time>
        <extensions>
          <gpxtpx:TrackPointExtension xmlns:gpxtpx="http://www.garmin.com/xmlschemas/TrackPointExtension/v1">
            <gpxtpx:hr>137</gpxtpx:hr>
          </gpxtpx:TrackPointExtension>
        </extensions>
      </trkpt>
      <trkpt lat="43.15556" lon="6.19506">
        <ele>222.80000305176</ele>
        <time>2023-05-24T11:49:13.000Z</time>
        <extensions>
          <gpxtpx:TrackPointExtension xmlns:gpxtpx="http://www.garmin.com/xmlschemas/TrackPointExtension/v1">
            <gpxtpx:hr>134</gpxtpx:hr>
          </gpxtpx:TrackPointExtension>
        </extensions>
      </trkpt>
      <trkpt lat="43.15555" lon="6.19478">
        <ele>221</ele>
        <time>2023-05-24T11:49:18.000Z</time>
        <extensions>
          <gpxtpx:TrackPointExtension xmlns:gpxtpx="http://www.garmin.com/xmlschemas/TrackPointExtension/v1">
            <gpxtpx:hr>132</gpxtpx:hr>
          </gpxtpx:TrackPointExtension>
        </extensions>
      </trkpt>
      <trkpt lat="43.1555" lon="6.19449">
        <ele>219.80000305176</ele>
        <time>2023-05-24T11:49:24.000Z</time>
        <extensions>
          <gpxtpx:TrackPointExtension xmlns:gpxtpx="http://www.garmin.com/xmlschemas/TrackPointExtension/v1">
            <gpxtpx:hr>131</gpxtpx:hr>
          </gpxtpx:TrackPointExtension>
        </extensions>
      </trkpt>
      <trkpt lat="43.15543" lon="6.19421">
        <ele>217.19999694824</ele>
        <time>2023-05-24T11:49:29.000Z</time>
        <extensions>
          <gpxtpx:TrackPointExtension xmlns:gpxtpx="http://www.garmin.com/xmlschemas/TrackPointExtension/v1">
            <gpxtpx:hr>132</gpxtpx:hr>
          </gpxtpx:TrackPointExtension>
        </extensions>
      </trkpt>
      <trkpt lat="43.15541" lon="6.19414">
        <ele>216.19999694824</ele>
        <time>2023-05-24T11:49:30.000Z</time>
        <extensions>
          <gpxtpx:TrackPointExtension xmlns:gpxtpx="http://www.garmin.com/xmlschemas/TrackPointExtension/v1">
            <gpxtpx:hr>132</gpxtpx:hr>
          </gpxtpx:TrackPointExtension>
        </extensions>
      </trkpt>
      <trkpt lat="43.15537" lon="6.19407">
        <ele>215</ele>
        <time>2023-05-24T11:49:31.000Z</time>
        <extensions>
          <gpxtpx:TrackPointExtension xmlns:gpxtpx="http://www.garmin.com/xmlschemas/TrackPointExtension/v1">
            <gpxtpx:hr>132</gpxtpx:hr>
          </gpxtpx:TrackPointExtension>
        </extensions>
      </trkpt>
      <trkpt lat="43.15525" lon="6.19385">
        <ele>212.80000305176</ele>
        <time>2023-05-24T11:49:34.000Z</time>
        <extensions>
          <gpxtpx:TrackPointExtension xmlns:gpxtpx="http://www.garmin.com/xmlschemas/TrackPointExtension/v1">
            <gpxtpx:hr>129</gpxtpx:hr>
          </gpxtpx:TrackPointExtension>
        </extensions>
      </trkpt>
      <trkpt lat="43.15521" lon="6.19378">
        <ele>212</ele>
        <time>2023-05-24T11:49:35.000Z</time>
        <extensions>
          <gpxtpx:TrackPointExtension xmlns:gpxtpx="http://www.garmin.com/xmlschemas/TrackPointExtension/v1">
            <gpxtpx:hr>128</gpxtpx:hr>
          </gpxtpx:TrackPointExtension>
        </extensions>
      </trkpt>
      <trkpt lat="43.15506" lon="6.19339">
        <ele>207.80000305176</ele>
        <time>2023-05-24T11:49:39.000Z</time>
        <extensions>
          <gpxtpx:TrackPointExtension xmlns:gpxtpx="http://www.garmin.com/xmlschemas/TrackPointExtension/v1">
            <gpxtpx:hr>127</gpxtpx:hr>
          </gpxtpx:TrackPointExtension>
        </extensions>
      </trkpt>
      <trkpt lat="43.15499" lon="6.19309">
        <ele>205.39999389648</ele>
        <time>2023-05-24T11:49:42.000Z</time>
        <extensions>
          <gpxtpx:TrackPointExtension xmlns:gpxtpx="http://www.garmin.com/xmlschemas/TrackPointExtension/v1">
            <gpxtpx:hr>125</gpxtpx:hr>
          </gpxtpx:TrackPointExtension>
        </extensions>
      </trkpt>
      <trkpt lat="43.15498" lon="6.19298">
        <ele>204.19999694824</ele>
        <time>2023-05-24T11:49:43.000Z</time>
        <extensions>
          <gpxtpx:TrackPointExtension xmlns:gpxtpx="http://www.garmin.com/xmlschemas/TrackPointExtension/v1">
            <gpxtpx:hr>125</gpxtpx:hr>
          </gpxtpx:TrackPointExtension>
        </extensions>
      </trkpt>
      <trkpt lat="43.15497" lon="6.19261">
        <ele>201.19999694824</ele>
        <time>2023-05-24T11:49:47.000Z</time>
        <extensions>
          <gpxtpx:TrackPointExtension xmlns:gpxtpx="http://www.garmin.com/xmlschemas/TrackPointExtension/v1">
            <gpxtpx:hr>124</gpxtpx:hr>
          </gpxtpx:TrackPointExtension>
        </extensions>
      </trkpt>
      <trkpt lat="43.15492" lon="6.19213">
        <ele>197.80000305176</ele>
        <time>2023-05-24T11:49:52.000Z</time>
        <extensions>
          <gpxtpx:TrackPointExtension xmlns:gpxtpx="http://www.garmin.com/xmlschemas/TrackPointExtension/v1">
            <gpxtpx:hr>124</gpxtpx:hr>
          </gpxtpx:TrackPointExtension>
        </extensions>
      </trkpt>
      <trkpt lat="43.15486" lon="6.19152">
        <ele>197</ele>
        <time>2023-05-24T11:49:57.000Z</time>
        <extensions>
          <gpxtpx:TrackPointExtension xmlns:gpxtpx="http://www.garmin.com/xmlschemas/TrackPointExtension/v1">
            <gpxtpx:hr>123</gpxtpx:hr>
          </gpxtpx:TrackPointExtension>
        </extensions>
      </trkpt>
      <trkpt lat="43.15484" lon="6.19129">
        <ele>197</ele>
        <time>2023-05-24T11:50:00.000Z</time>
        <extensions>
          <gpxtpx:TrackPointExtension xmlns:gpxtpx="http://www.garmin.com/xmlschemas/TrackPointExtension/v1">
            <gpxtpx:hr>123</gpxtpx:hr>
          </gpxtpx:TrackPointExtension>
        </extensions>
      </trkpt>
      <trkpt lat="43.15482" lon="6.19119">
        <ele>196.80000305176</ele>
        <time>2023-05-24T11:50:02.000Z</time>
        <extensions>
          <gpxtpx:TrackPointExtension xmlns:gpxtpx="http://www.garmin.com/xmlschemas/TrackPointExtension/v1">
            <gpxtpx:hr>129</gpxtpx:hr>
          </gpxtpx:TrackPointExtension>
        </extensions>
      </trkpt>
      <trkpt lat="43.15481" lon="6.19115">
        <ele>196.80000305176</ele>
        <time>2023-05-24T11:50:03.000Z</time>
        <extensions>
          <gpxtpx:TrackPointExtension xmlns:gpxtpx="http://www.garmin.com/xmlschemas/TrackPointExtension/v1">
            <gpxtpx:hr>128</gpxtpx:hr>
          </gpxtpx:TrackPointExtension>
        </extensions>
      </trkpt>
      <trkpt lat="43.15479" lon="6.19106">
        <ele>196.60000610352</ele>
        <time>2023-05-24T11:50:05.000Z</time>
        <extensions>
          <gpxtpx:TrackPointExtension xmlns:gpxtpx="http://www.garmin.com/xmlschemas/TrackPointExtension/v1">
            <gpxtpx:hr>128</gpxtpx:hr>
          </gpxtpx:TrackPointExtension>
        </extensions>
      </trkpt>
      <trkpt lat="43.15469" lon="6.19084">
        <ele>195.39999389648</ele>
        <time>2023-05-24T11:50:09.000Z</time>
        <extensions>
          <gpxtpx:TrackPointExtension xmlns:gpxtpx="http://www.garmin.com/xmlschemas/TrackPointExtension/v1">
            <gpxtpx:hr>125</gpxtpx:hr>
          </gpxtpx:TrackPointExtension>
        </extensions>
      </trkpt>
      <trkpt lat="43.15458" lon="6.19049">
        <ele>193.60000610352</ele>
        <time>2023-05-24T11:50:14.000Z</time>
        <extensions>
          <gpxtpx:TrackPointExtension xmlns:gpxtpx="http://www.garmin.com/xmlschemas/TrackPointExtension/v1">
            <gpxtpx:hr>127</gpxtpx:hr>
          </gpxtpx:TrackPointExtension>
        </extensions>
      </trkpt>
      <trkpt lat="43.15456" lon="6.19043">
        <ele>193.60000610352</ele>
        <time>2023-05-24T11:50:15.000Z</time>
        <extensions>
          <gpxtpx:TrackPointExtension xmlns:gpxtpx="http://www.garmin.com/xmlschemas/TrackPointExtension/v1">
            <gpxtpx:hr>126</gpxtpx:hr>
          </gpxtpx:TrackPointExtension>
        </extensions>
      </trkpt>
      <trkpt lat="43.15452" lon="6.19037">
        <ele>194</ele>
        <time>2023-05-24T11:50:16.000Z</time>
        <extensions>
          <gpxtpx:TrackPointExtension xmlns:gpxtpx="http://www.garmin.com/xmlschemas/TrackPointExtension/v1">
            <gpxtpx:hr>125</gpxtpx:hr>
          </gpxtpx:TrackPointExtension>
        </extensions>
      </trkpt>
      <trkpt lat="43.15442" lon="6.19025">
        <ele>194</ele>
        <time>2023-05-24T11:50:18.000Z</time>
        <extensions>
          <gpxtpx:TrackPointExtension xmlns:gpxtpx="http://www.garmin.com/xmlschemas/TrackPointExtension/v1">
            <gpxtpx:hr>124</gpxtpx:hr>
          </gpxtpx:TrackPointExtension>
        </extensions>
      </trkpt>
      <trkpt lat="43.15417" lon="6.19006">
        <ele>193.39999389648</ele>
        <time>2023-05-24T11:50:23.000Z</time>
        <extensions>
          <gpxtpx:TrackPointExtension xmlns:gpxtpx="http://www.garmin.com/xmlschemas/TrackPointExtension/v1">
            <gpxtpx:hr>122</gpxtpx:hr>
          </gpxtpx:TrackPointExtension>
        </extensions>
      </trkpt>
      <trkpt lat="43.15413" lon="6.19001">
        <ele>193.39999389648</ele>
        <time>2023-05-24T11:50:24.000Z</time>
        <extensions>
          <gpxtpx:TrackPointExtension xmlns:gpxtpx="http://www.garmin.com/xmlschemas/TrackPointExtension/v1">
            <gpxtpx:hr>126</gpxtpx:hr>
          </gpxtpx:TrackPointExtension>
        </extensions>
      </trkpt>
      <trkpt lat="43.15394" lon="6.18976">
        <ele>194.39999389648</ele>
        <time>2023-05-24T11:50:28.000Z</time>
        <extensions>
          <gpxtpx:TrackPointExtension xmlns:gpxtpx="http://www.garmin.com/xmlschemas/TrackPointExtension/v1">
            <gpxtpx:hr>124</gpxtpx:hr>
          </gpxtpx:TrackPointExtension>
        </extensions>
      </trkpt>
      <trkpt lat="43.15367" lon="6.1895">
        <ele>195.80000305176</ele>
        <time>2023-05-24T11:50:32.000Z</time>
        <extensions>
          <gpxtpx:TrackPointExtension xmlns:gpxtpx="http://www.garmin.com/xmlschemas/TrackPointExtension/v1">
            <gpxtpx:hr>122</gpxtpx:hr>
          </gpxtpx:TrackPointExtension>
        </extensions>
      </trkpt>
      <trkpt lat="43.15352" lon="6.18946">
        <ele>194.19999694824</ele>
        <time>2023-05-24T11:50:34.000Z</time>
        <extensions>
          <gpxtpx:TrackPointExtension xmlns:gpxtpx="http://www.garmin.com/xmlschemas/TrackPointExtension/v1">
            <gpxtpx:hr>120</gpxtpx:hr>
          </gpxtpx:TrackPointExtension>
        </extensions>
      </trkpt>
      <trkpt lat="43.15344" lon="6.18946">
        <ele>193.19999694824</ele>
        <time>2023-05-24T11:50:35.000Z</time>
        <extensions>
          <gpxtpx:TrackPointExtension xmlns:gpxtpx="http://www.garmin.com/xmlschemas/TrackPointExtension/v1">
            <gpxtpx:hr>118</gpxtpx:hr>
          </gpxtpx:TrackPointExtension>
        </extensions>
      </trkpt>
      <trkpt lat="43.1531" lon="6.18947">
        <ele>187.80000305176</ele>
        <time>2023-05-24T11:50:40.000Z</time>
        <extensions>
          <gpxtpx:TrackPointExtension xmlns:gpxtpx="http://www.garmin.com/xmlschemas/TrackPointExtension/v1">
            <gpxtpx:hr>117</gpxtpx:hr>
          </gpxtpx:TrackPointExtension>
        </extensions>
      </trkpt>
      <trkpt lat="43.15293" lon="6.18947">
        <ele>185.39999389648</ele>
        <time>2023-05-24T11:50:44.000Z</time>
        <extensions>
          <gpxtpx:TrackPointExtension xmlns:gpxtpx="http://www.garmin.com/xmlschemas/TrackPointExtension/v1">
            <gpxtpx:hr>117</gpxtpx:hr>
          </gpxtpx:TrackPointExtension>
        </extensions>
      </trkpt>
      <trkpt lat="43.15277" lon="6.18938">
        <ele>183.60000610352</ele>
        <time>2023-05-24T11:50:48.000Z</time>
        <extensions>
          <gpxtpx:TrackPointExtension xmlns:gpxtpx="http://www.garmin.com/xmlschemas/TrackPointExtension/v1">
            <gpxtpx:hr>118</gpxtpx:hr>
          </gpxtpx:TrackPointExtension>
        </extensions>
      </trkpt>
      <trkpt lat="43.15274" lon="6.18935">
        <ele>183.19999694824</ele>
        <time>2023-05-24T11:50:49.000Z</time>
        <extensions>
          <gpxtpx:TrackPointExtension xmlns:gpxtpx="http://www.garmin.com/xmlschemas/TrackPointExtension/v1">
            <gpxtpx:hr>118</gpxtpx:hr>
          </gpxtpx:TrackPointExtension>
        </extensions>
      </trkpt>
      <trkpt lat="43.15265" lon="6.18918">
        <ele>182.39999389648</ele>
        <time>2023-05-24T11:50:53.000Z</time>
        <extensions>
          <gpxtpx:TrackPointExtension xmlns:gpxtpx="http://www.garmin.com/xmlschemas/TrackPointExtension/v1">
            <gpxtpx:hr>118</gpxtpx:hr>
          </gpxtpx:TrackPointExtension>
        </extensions>
      </trkpt>
      <trkpt lat="43.15264" lon="6.18899">
        <ele>183.19999694824</ele>
        <time>2023-05-24T11:50:56.000Z</time>
        <extensions>
          <gpxtpx:TrackPointExtension xmlns:gpxtpx="http://www.garmin.com/xmlschemas/TrackPointExtension/v1">
            <gpxtpx:hr>118</gpxtpx:hr>
          </gpxtpx:TrackPointExtension>
        </extensions>
      </trkpt>
      <trkpt lat="43.15264" lon="6.18892">
        <ele>184</ele>
        <time>2023-05-24T11:50:57.000Z</time>
        <extensions>
          <gpxtpx:TrackPointExtension xmlns:gpxtpx="http://www.garmin.com/xmlschemas/TrackPointExtension/v1">
            <gpxtpx:hr>118</gpxtpx:hr>
          </gpxtpx:TrackPointExtension>
        </extensions>
      </trkpt>
      <trkpt lat="43.15266" lon="6.18879">
        <ele>186</ele>
        <time>2023-05-24T11:50:59.000Z</time>
        <extensions>
          <gpxtpx:TrackPointExtension xmlns:gpxtpx="http://www.garmin.com/xmlschemas/TrackPointExtension/v1">
            <gpxtpx:hr>119</gpxtpx:hr>
          </gpxtpx:TrackPointExtension>
        </extensions>
      </trkpt>
      <trkpt lat="43.15266" lon="6.1886">
        <ele>186.80000305176</ele>
        <time>2023-05-24T11:51:02.000Z</time>
        <extensions>
          <gpxtpx:TrackPointExtension xmlns:gpxtpx="http://www.garmin.com/xmlschemas/TrackPointExtension/v1">
            <gpxtpx:hr>124</gpxtpx:hr>
          </gpxtpx:TrackPointExtension>
        </extensions>
      </trkpt>
      <trkpt lat="43.15267" lon="6.18854">
        <ele>187.19999694824</ele>
        <time>2023-05-24T11:51:03.000Z</time>
        <extensions>
          <gpxtpx:TrackPointExtension xmlns:gpxtpx="http://www.garmin.com/xmlschemas/TrackPointExtension/v1">
            <gpxtpx:hr>121</gpxtpx:hr>
          </gpxtpx:TrackPointExtension>
        </extensions>
      </trkpt>
      <trkpt lat="43.1527" lon="6.18819">
        <ele>191.39999389648</ele>
        <time>2023-05-24T11:51:09.000Z</time>
        <extensions>
          <gpxtpx:TrackPointExtension xmlns:gpxtpx="http://www.garmin.com/xmlschemas/TrackPointExtension/v1">
            <gpxtpx:hr>121</gpxtpx:hr>
          </gpxtpx:TrackPointExtension>
        </extensions>
      </trkpt>
      <trkpt lat="43.1527" lon="6.18812">
        <ele>191.60000610352</ele>
        <time>2023-05-24T11:51:10.000Z</time>
        <extensions>
          <gpxtpx:TrackPointExtension xmlns:gpxtpx="http://www.garmin.com/xmlschemas/TrackPointExtension/v1">
            <gpxtpx:hr>124</gpxtpx:hr>
          </gpxtpx:TrackPointExtension>
        </extensions>
      </trkpt>
      <trkpt lat="43.15266" lon="6.18792">
        <ele>191.19999694824</ele>
        <time>2023-05-24T11:51:13.000Z</time>
        <extensions>
          <gpxtpx:TrackPointExtension xmlns:gpxtpx="http://www.garmin.com/xmlschemas/TrackPointExtension/v1">
            <gpxtpx:hr>123</gpxtpx:hr>
          </gpxtpx:TrackPointExtension>
        </extensions>
      </trkpt>
      <trkpt lat="43.15263" lon="6.18786">
        <ele>190.60000610352</ele>
        <time>2023-05-24T11:51:14.000Z</time>
        <extensions>
          <gpxtpx:TrackPointExtension xmlns:gpxtpx="http://www.garmin.com/xmlschemas/TrackPointExtension/v1">
            <gpxtpx:hr>124</gpxtpx:hr>
          </gpxtpx:TrackPointExtension>
        </extensions>
      </trkpt>
      <trkpt lat="43.1526" lon="6.18781">
        <ele>189.39999389648</ele>
        <time>2023-05-24T11:51:15.000Z</time>
        <extensions>
          <gpxtpx:TrackPointExtension xmlns:gpxtpx="http://www.garmin.com/xmlschemas/TrackPointExtension/v1">
            <gpxtpx:hr>125</gpxtpx:hr>
          </gpxtpx:TrackPointExtension>
        </extensions>
      </trkpt>
      <trkpt lat="43.15254" lon="6.18771">
        <ele>187.39999389648</ele>
        <time>2023-05-24T11:51:17.000Z</time>
        <extensions>
          <gpxtpx:TrackPointExtension xmlns:gpxtpx="http://www.garmin.com/xmlschemas/TrackPointExtension/v1">
            <gpxtpx:hr>124</gpxtpx:hr>
          </gpxtpx:TrackPointExtension>
        </extensions>
      </trkpt>
      <trkpt lat="43.15253" lon="6.18765">
        <ele>186.80000305176</ele>
        <time>2023-05-24T11:51:18.000Z</time>
        <extensions>
          <gpxtpx:TrackPointExtension xmlns:gpxtpx="http://www.garmin.com/xmlschemas/TrackPointExtension/v1">
            <gpxtpx:hr>127</gpxtpx:hr>
          </gpxtpx:TrackPointExtension>
        </extensions>
      </trkpt>
      <trkpt lat="43.15253" lon="6.18758">
        <ele>187</ele>
        <time>2023-05-24T11:51:19.000Z</time>
        <extensions>
          <gpxtpx:TrackPointExtension xmlns:gpxtpx="http://www.garmin.com/xmlschemas/TrackPointExtension/v1">
            <gpxtpx:hr>128</gpxtpx:hr>
          </gpxtpx:TrackPointExtension>
        </extensions>
      </trkpt>
      <trkpt lat="43.15256" lon="6.18746">
        <ele>188</ele>
        <time>2023-05-24T11:51:21.000Z</time>
        <extensions>
          <gpxtpx:TrackPointExtension xmlns:gpxtpx="http://www.garmin.com/xmlschemas/TrackPointExtension/v1">
            <gpxtpx:hr>132</gpxtpx:hr>
          </gpxtpx:TrackPointExtension>
        </extensions>
      </trkpt>
      <trkpt lat="43.15259" lon="6.1874">
        <ele>188.60000610352</ele>
        <time>2023-05-24T11:51:22.000Z</time>
        <extensions>
          <gpxtpx:TrackPointExtension xmlns:gpxtpx="http://www.garmin.com/xmlschemas/TrackPointExtension/v1">
            <gpxtpx:hr>133</gpxtpx:hr>
          </gpxtpx:TrackPointExtension>
        </extensions>
      </trkpt>
      <trkpt lat="43.15283" lon="6.18701">
        <ele>191.80000305176</ele>
        <time>2023-05-24T11:51:29.000Z</time>
        <extensions>
          <gpxtpx:TrackPointExtension xmlns:gpxtpx="http://www.garmin.com/xmlschemas/TrackPointExtension/v1">
            <gpxtpx:hr>134</gpxtpx:hr>
          </gpxtpx:TrackPointExtension>
        </extensions>
      </trkpt>
      <trkpt lat="43.15295" lon="6.18684">
        <ele>193.19999694824</ele>
        <time>2023-05-24T11:51:32.000Z</time>
        <extensions>
          <gpxtpx:TrackPointExtension xmlns:gpxtpx="http://www.garmin.com/xmlschemas/TrackPointExtension/v1">
            <gpxtpx:hr>136</gpxtpx:hr>
          </gpxtpx:TrackPointExtension>
        </extensions>
      </trkpt>
      <trkpt lat="43.15298" lon="6.18676">
        <ele>192.80000305176</ele>
        <time>2023-05-24T11:51:33.000Z</time>
        <extensions>
          <gpxtpx:TrackPointExtension xmlns:gpxtpx="http://www.garmin.com/xmlschemas/TrackPointExtension/v1">
            <gpxtpx:hr>136</gpxtpx:hr>
          </gpxtpx:TrackPointExtension>
        </extensions>
      </trkpt>
      <trkpt lat="43.15301" lon="6.18663">
        <ele>191</ele>
        <time>2023-05-24T11:51:35.000Z</time>
        <extensions>
          <gpxtpx:TrackPointExtension xmlns:gpxtpx="http://www.garmin.com/xmlschemas/TrackPointExtension/v1">
            <gpxtpx:hr>137</gpxtpx:hr>
          </gpxtpx:TrackPointExtension>
        </extensions>
      </trkpt>
      <trkpt lat="43.15305" lon="6.18641">
        <ele>191</ele>
        <time>2023-05-24T11:51:38.000Z</time>
        <extensions>
          <gpxtpx:TrackPointExtension xmlns:gpxtpx="http://www.garmin.com/xmlschemas/TrackPointExtension/v1">
            <gpxtpx:hr>137</gpxtpx:hr>
          </gpxtpx:TrackPointExtension>
        </extensions>
      </trkpt>
      <trkpt lat="43.1531" lon="6.18628">
        <ele>191.60000610352</ele>
        <time>2023-05-24T11:51:40.000Z</time>
        <extensions>
          <gpxtpx:TrackPointExtension xmlns:gpxtpx="http://www.garmin.com/xmlschemas/TrackPointExtension/v1">
            <gpxtpx:hr>139</gpxtpx:hr>
          </gpxtpx:TrackPointExtension>
        </extensions>
      </trkpt>
      <trkpt lat="43.15317" lon="6.18618">
        <ele>193.80000305176</ele>
        <time>2023-05-24T11:51:42.000Z</time>
        <extensions>
          <gpxtpx:TrackPointExtension xmlns:gpxtpx="http://www.garmin.com/xmlschemas/TrackPointExtension/v1">
            <gpxtpx:hr>140</gpxtpx:hr>
          </gpxtpx:TrackPointExtension>
        </extensions>
      </trkpt>
      <trkpt lat="43.1533" lon="6.18607">
        <ele>199.60000610352</ele>
        <time>2023-05-24T11:51:45.000Z</time>
        <extensions>
          <gpxtpx:TrackPointExtension xmlns:gpxtpx="http://www.garmin.com/xmlschemas/TrackPointExtension/v1">
            <gpxtpx:hr>140</gpxtpx:hr>
          </gpxtpx:TrackPointExtension>
        </extensions>
      </trkpt>
      <trkpt lat="43.15334" lon="6.18601">
        <ele>200.39999389648</ele>
        <time>2023-05-24T11:51:46.000Z</time>
        <extensions>
          <gpxtpx:TrackPointExtension xmlns:gpxtpx="http://www.garmin.com/xmlschemas/TrackPointExtension/v1">
            <gpxtpx:hr>140</gpxtpx:hr>
          </gpxtpx:TrackPointExtension>
        </extensions>
      </trkpt>
      <trkpt lat="43.15339" lon="6.18591">
        <ele>203.19999694824</ele>
        <time>2023-05-24T11:51:48.000Z</time>
        <extensions>
          <gpxtpx:TrackPointExtension xmlns:gpxtpx="http://www.garmin.com/xmlschemas/TrackPointExtension/v1">
            <gpxtpx:hr>141</gpxtpx:hr>
          </gpxtpx:TrackPointExtension>
        </extensions>
      </trkpt>
      <trkpt lat="43.15341" lon="6.18579">
        <ele>203.80000305176</ele>
        <time>2023-05-24T11:51:50.000Z</time>
        <extensions>
          <gpxtpx:TrackPointExtension xmlns:gpxtpx="http://www.garmin.com/xmlschemas/TrackPointExtension/v1">
            <gpxtpx:hr>137</gpxtpx:hr>
          </gpxtpx:TrackPointExtension>
        </extensions>
      </trkpt>
      <trkpt lat="43.15338" lon="6.18568">
        <ele>203</ele>
        <time>2023-05-24T11:51:52.000Z</time>
        <extensions>
          <gpxtpx:TrackPointExtension xmlns:gpxtpx="http://www.garmin.com/xmlschemas/TrackPointExtension/v1">
            <gpxtpx:hr>140</gpxtpx:hr>
          </gpxtpx:TrackPointExtension>
        </extensions>
      </trkpt>
      <trkpt lat="43.15337" lon="6.18562">
        <ele>202.60000610352</ele>
        <time>2023-05-24T11:51:53.000Z</time>
        <extensions>
          <gpxtpx:TrackPointExtension xmlns:gpxtpx="http://www.garmin.com/xmlschemas/TrackPointExtension/v1">
            <gpxtpx:hr>140</gpxtpx:hr>
          </gpxtpx:TrackPointExtension>
        </extensions>
      </trkpt>
      <trkpt lat="43.15336" lon="6.18551">
        <ele>203</ele>
        <time>2023-05-24T11:51:55.000Z</time>
        <extensions>
          <gpxtpx:TrackPointExtension xmlns:gpxtpx="http://www.garmin.com/xmlschemas/TrackPointExtension/v1">
            <gpxtpx:hr>140</gpxtpx:hr>
          </gpxtpx:TrackPointExtension>
        </extensions>
      </trkpt>
      <trkpt lat="43.1534" lon="6.18516">
        <ele>206</ele>
        <time>2023-05-24T11:52:02.000Z</time>
        <extensions>
          <gpxtpx:TrackPointExtension xmlns:gpxtpx="http://www.garmin.com/xmlschemas/TrackPointExtension/v1">
            <gpxtpx:hr>141</gpxtpx:hr>
          </gpxtpx:TrackPointExtension>
        </extensions>
      </trkpt>
      <trkpt lat="43.15342" lon="6.1849">
        <ele>208.60000610352</ele>
        <time>2023-05-24T11:52:07.000Z</time>
        <extensions>
          <gpxtpx:TrackPointExtension xmlns:gpxtpx="http://www.garmin.com/xmlschemas/TrackPointExtension/v1">
            <gpxtpx:hr>140</gpxtpx:hr>
          </gpxtpx:TrackPointExtension>
        </extensions>
      </trkpt>
      <trkpt lat="43.15339" lon="6.18471">
        <ele>208.80000305176</ele>
        <time>2023-05-24T11:52:11.000Z</time>
        <extensions>
          <gpxtpx:TrackPointExtension xmlns:gpxtpx="http://www.garmin.com/xmlschemas/TrackPointExtension/v1">
            <gpxtpx:hr>142</gpxtpx:hr>
          </gpxtpx:TrackPointExtension>
        </extensions>
      </trkpt>
      <trkpt lat="43.15336" lon="6.18466">
        <ele>208.39999389648</ele>
        <time>2023-05-24T11:52:12.000Z</time>
        <extensions>
          <gpxtpx:TrackPointExtension xmlns:gpxtpx="http://www.garmin.com/xmlschemas/TrackPointExtension/v1">
            <gpxtpx:hr>142</gpxtpx:hr>
          </gpxtpx:TrackPointExtension>
        </extensions>
      </trkpt>
      <trkpt lat="43.1533" lon="6.18452">
        <ele>208.39999389648</ele>
        <time>2023-05-24T11:52:15.000Z</time>
        <extensions>
          <gpxtpx:TrackPointExtension xmlns:gpxtpx="http://www.garmin.com/xmlschemas/TrackPointExtension/v1">
            <gpxtpx:hr>142</gpxtpx:hr>
          </gpxtpx:TrackPointExtension>
        </extensions>
      </trkpt>
      <trkpt lat="43.15323" lon="6.18445">
        <ele>207.19999694824</ele>
        <time>2023-05-24T11:52:17.000Z</time>
        <extensions>
          <gpxtpx:TrackPointExtension xmlns:gpxtpx="http://www.garmin.com/xmlschemas/TrackPointExtension/v1">
            <gpxtpx:hr>141</gpxtpx:hr>
          </gpxtpx:TrackPointExtension>
        </extensions>
      </trkpt>
      <trkpt lat="43.15315" lon="6.18442">
        <ele>205.39999389648</ele>
        <time>2023-05-24T11:52:19.000Z</time>
        <extensions>
          <gpxtpx:TrackPointExtension xmlns:gpxtpx="http://www.garmin.com/xmlschemas/TrackPointExtension/v1">
            <gpxtpx:hr>142</gpxtpx:hr>
          </gpxtpx:TrackPointExtension>
        </extensions>
      </trkpt>
      <trkpt lat="43.15304" lon="6.18443">
        <ele>202</ele>
        <time>2023-05-24T11:52:21.000Z</time>
        <extensions>
          <gpxtpx:TrackPointExtension xmlns:gpxtpx="http://www.garmin.com/xmlschemas/TrackPointExtension/v1">
            <gpxtpx:hr>141</gpxtpx:hr>
          </gpxtpx:TrackPointExtension>
        </extensions>
      </trkpt>
      <trkpt lat="43.15294" lon="6.18446">
        <ele>199.60000610352</ele>
        <time>2023-05-24T11:52:23.000Z</time>
        <extensions>
          <gpxtpx:TrackPointExtension xmlns:gpxtpx="http://www.garmin.com/xmlschemas/TrackPointExtension/v1">
            <gpxtpx:hr>138</gpxtpx:hr>
          </gpxtpx:TrackPointExtension>
        </extensions>
      </trkpt>
      <trkpt lat="43.15281" lon="6.18451">
        <ele>198.39999389648</ele>
        <time>2023-05-24T11:52:26.000Z</time>
        <extensions>
          <gpxtpx:TrackPointExtension xmlns:gpxtpx="http://www.garmin.com/xmlschemas/TrackPointExtension/v1">
            <gpxtpx:hr>141</gpxtpx:hr>
          </gpxtpx:TrackPointExtension>
        </extensions>
      </trkpt>
      <trkpt lat="43.15268" lon="6.18451">
        <ele>196.39999389648</ele>
        <time>2023-05-24T11:52:29.000Z</time>
        <extensions>
          <gpxtpx:TrackPointExtension xmlns:gpxtpx="http://www.garmin.com/xmlschemas/TrackPointExtension/v1">
            <gpxtpx:hr>139</gpxtpx:hr>
          </gpxtpx:TrackPointExtension>
        </extensions>
      </trkpt>
      <trkpt lat="43.1526" lon="6.18449">
        <ele>197.39999389648</ele>
        <time>2023-05-24T11:52:31.000Z</time>
        <extensions>
          <gpxtpx:TrackPointExtension xmlns:gpxtpx="http://www.garmin.com/xmlschemas/TrackPointExtension/v1">
            <gpxtpx:hr>140</gpxtpx:hr>
          </gpxtpx:TrackPointExtension>
        </extensions>
      </trkpt>
      <trkpt lat="43.15251" lon="6.18445">
        <ele>199</ele>
        <time>2023-05-24T11:52:33.000Z</time>
        <extensions>
          <gpxtpx:TrackPointExtension xmlns:gpxtpx="http://www.garmin.com/xmlschemas/TrackPointExtension/v1">
            <gpxtpx:hr>142</gpxtpx:hr>
          </gpxtpx:TrackPointExtension>
        </extensions>
      </trkpt>
      <trkpt lat="43.15239" lon="6.18437">
        <ele>201.60000610352</ele>
        <time>2023-05-24T11:52:36.000Z</time>
        <extensions>
          <gpxtpx:TrackPointExtension xmlns:gpxtpx="http://www.garmin.com/xmlschemas/TrackPointExtension/v1">
            <gpxtpx:hr>146</gpxtpx:hr>
          </gpxtpx:TrackPointExtension>
        </extensions>
      </trkpt>
      <trkpt lat="43.15235" lon="6.18434">
        <ele>202</ele>
        <time>2023-05-24T11:52:37.000Z</time>
        <extensions>
          <gpxtpx:TrackPointExtension xmlns:gpxtpx="http://www.garmin.com/xmlschemas/TrackPointExtension/v1">
            <gpxtpx:hr>145</gpxtpx:hr>
          </gpxtpx:TrackPointExtension>
        </extensions>
      </trkpt>
      <trkpt lat="43.15226" lon="6.18428">
        <ele>203.19999694824</ele>
        <time>2023-05-24T11:52:39.000Z</time>
        <extensions>
          <gpxtpx:TrackPointExtension xmlns:gpxtpx="http://www.garmin.com/xmlschemas/TrackPointExtension/v1">
            <gpxtpx:hr>144</gpxtpx:hr>
          </gpxtpx:TrackPointExtension>
        </extensions>
      </trkpt>
      <trkpt lat="43.15215" lon="6.18425">
        <ele>203.19999694824</ele>
        <time>2023-05-24T11:52:41.000Z</time>
        <extensions>
          <gpxtpx:TrackPointExtension xmlns:gpxtpx="http://www.garmin.com/xmlschemas/TrackPointExtension/v1">
            <gpxtpx:hr>140</gpxtpx:hr>
          </gpxtpx:TrackPointExtension>
        </extensions>
      </trkpt>
      <trkpt lat="43.1521" lon="6.18425">
        <ele>202.80000305176</ele>
        <time>2023-05-24T11:52:42.000Z</time>
        <extensions>
          <gpxtpx:TrackPointExtension xmlns:gpxtpx="http://www.garmin.com/xmlschemas/TrackPointExtension/v1">
            <gpxtpx:hr>142</gpxtpx:hr>
          </gpxtpx:TrackPointExtension>
        </extensions>
      </trkpt>
      <trkpt lat="43.15204" lon="6.18426">
        <ele>202</ele>
        <time>2023-05-24T11:52:43.000Z</time>
        <extensions>
          <gpxtpx:TrackPointExtension xmlns:gpxtpx="http://www.garmin.com/xmlschemas/TrackPointExtension/v1">
            <gpxtpx:hr>142</gpxtpx:hr>
          </gpxtpx:TrackPointExtension>
        </extensions>
      </trkpt>
      <trkpt lat="43.15199" lon="6.18428">
        <ele>201.39999389648</ele>
        <time>2023-05-24T11:52:44.000Z</time>
        <extensions>
          <gpxtpx:TrackPointExtension xmlns:gpxtpx="http://www.garmin.com/xmlschemas/TrackPointExtension/v1">
            <gpxtpx:hr>148</gpxtpx:hr>
          </gpxtpx:TrackPointExtension>
        </extensions>
      </trkpt>
      <trkpt lat="43.15193" lon="6.1843">
        <ele>200.80000305176</ele>
        <time>2023-05-24T11:52:45.000Z</time>
        <extensions>
          <gpxtpx:TrackPointExtension xmlns:gpxtpx="http://www.garmin.com/xmlschemas/TrackPointExtension/v1">
            <gpxtpx:hr>144</gpxtpx:hr>
          </gpxtpx:TrackPointExtension>
        </extensions>
      </trkpt>
      <trkpt lat="43.15176" lon="6.18434">
        <ele>199.39999389648</ele>
        <time>2023-05-24T11:52:48.000Z</time>
        <extensions>
          <gpxtpx:TrackPointExtension xmlns:gpxtpx="http://www.garmin.com/xmlschemas/TrackPointExtension/v1">
            <gpxtpx:hr>143</gpxtpx:hr>
          </gpxtpx:TrackPointExtension>
        </extensions>
      </trkpt>
      <trkpt lat="43.15171" lon="6.18434">
        <ele>199.19999694824</ele>
        <time>2023-05-24T11:52:49.000Z</time>
        <extensions>
          <gpxtpx:TrackPointExtension xmlns:gpxtpx="http://www.garmin.com/xmlschemas/TrackPointExtension/v1">
            <gpxtpx:hr>144</gpxtpx:hr>
          </gpxtpx:TrackPointExtension>
        </extensions>
      </trkpt>
      <trkpt lat="43.15151" lon="6.18433">
        <ele>199.19999694824</ele>
        <time>2023-05-24T11:52:53.000Z</time>
        <extensions>
          <gpxtpx:TrackPointExtension xmlns:gpxtpx="http://www.garmin.com/xmlschemas/TrackPointExtension/v1">
            <gpxtpx:hr>144</gpxtpx:hr>
          </gpxtpx:TrackPointExtension>
        </extensions>
      </trkpt>
      <trkpt lat="43.15146" lon="6.18433">
        <ele>199.19999694824</ele>
        <time>2023-05-24T11:52:56.000Z</time>
        <extensions>
          <gpxtpx:TrackPointExtension xmlns:gpxtpx="http://www.garmin.com/xmlschemas/TrackPointExtension/v1">
            <gpxtpx:hr>143</gpxtpx:hr>
          </gpxtpx:TrackPointExtension>
        </extensions>
      </trkpt>
      <trkpt lat="43.15145" lon="6.18432">
        <ele>199.19999694824</ele>
        <time>2023-05-24T11:52:57.000Z</time>
        <extensions>
          <gpxtpx:TrackPointExtension xmlns:gpxtpx="http://www.garmin.com/xmlschemas/TrackPointExtension/v1">
            <gpxtpx:hr>143</gpxtpx:hr>
          </gpxtpx:TrackPointExtension>
        </extensions>
      </trkpt>
      <trkpt lat="43.15144" lon="6.18425">
        <ele>199.80000305176</ele>
        <time>2023-05-24T11:53:00.000Z</time>
        <extensions>
          <gpxtpx:TrackPointExtension xmlns:gpxtpx="http://www.garmin.com/xmlschemas/TrackPointExtension/v1">
            <gpxtpx:hr>142</gpxtpx:hr>
          </gpxtpx:TrackPointExtension>
        </extensions>
      </trkpt>
      <trkpt lat="43.15053" lon="6.18359">
        <ele>177</ele>
      </trkpt>
      <trkpt lat="43.15144" lon="6.18226">
        <ele>186.1</ele>
      </trkpt>
      <trkpt lat="43.15069" lon="6.18178">
        <ele>166.3</ele>
      </trkpt>
      <trkpt lat="43.14975" lon="6.17934">
        <ele>158.2</ele>
      </trkpt>
      <trkpt lat="43.14787" lon="6.17724">
        <ele>110.4</ele>
      </trkpt>
      <trkpt lat="43.14784" lon="6.17608">
        <ele>116.4</ele>
      </trkpt>
      <trkpt lat="43.14913" lon="6.17582">
        <ele>132.2</ele>
      </trkpt>
      <trkpt lat="43.15091" lon="6.17724">
        <ele>165.8</ele>
      </trkpt>
      <trkpt lat="43.15316" lon="6.17998">
        <ele>213.2</ele>
      </trkpt>
      <trkpt lat="43.15351" lon="6.17749">
        <ele>193.8</ele>
      </trkpt>
      <trkpt lat="43.1542" lon="6.17625">
        <ele>195.5</ele>
      </trkpt>
      <trkpt lat="43.15439" lon="6.17685">
        <ele>197.7</ele>
      </trkpt>
      <trkpt lat="43.15473" lon="6.17878">
        <ele>207</ele>
      </trkpt>
      <trkpt lat="43.15598" lon="6.17869">
        <ele>199.6</ele>
      </trkpt>
      <trkpt lat="43.15598" lon="6.1793">
        <ele>191.7</ele>
      </trkpt>
      <trkpt lat="43.15705" lon="6.17775">
        <ele>161.4</ele>
      </trkpt>
      <trkpt lat="43.15648" lon="6.17724">
        <ele>152.4</ele>
      </trkpt>
      <trkpt lat="43.15695" lon="6.17711">
        <ele>147.1</ele>
      </trkpt>
      <trkpt lat="43.15767" lon="6.17724">
        <ele>135.4</ele>
      </trkpt>
      <trkpt lat="43.15933" lon="6.17582">
        <ele>95.7</ele>
      </trkpt>
      <trkpt lat="43.15893" lon="6.17402">
        <ele>70.9</ele>
      </trkpt>
      <trkpt lat="43.15918" lon="6.17264">
        <ele>63</ele>
      </trkpt>
      <trkpt lat="43.15827" lon="6.17127">
        <ele>60.2</ele>
      </trkpt>
      <trkpt lat="43.15867" lon="6.16955">
        <ele>48.7</ele>
      </trkpt>
      <trkpt lat="43.15855" lon="6.16895">
        <ele>44.8</ele>
      </trkpt>
      <trkpt lat="43.15927" lon="6.16869">
        <ele>38.1</ele>
      </trkpt>
      <trkpt lat="43.15842" lon="6.16694">
        <ele>34.4</ele>
      </trkpt>
      <trkpt lat="43.15846" lon="6.16677">
        <ele>38</ele>
        <time>2023-05-24T12:13:29.000Z</time>
        <extensions>
          <gpxtpx:TrackPointExtension xmlns:gpxtpx="http://www.garmin.com/xmlschemas/TrackPointExtension/v1">
            <gpxtpx:hr>129</gpxtpx:hr>
          </gpxtpx:TrackPointExtension>
        </extensions>
      </trkpt>
      <trkpt lat="43.15834" lon="6.16666">
        <ele>38</ele>
        <time>2023-05-24T12:13:31.000Z</time>
        <extensions>
          <gpxtpx:TrackPointExtension xmlns:gpxtpx="http://www.garmin.com/xmlschemas/TrackPointExtension/v1">
            <gpxtpx:hr>131</gpxtpx:hr>
          </gpxtpx:TrackPointExtension>
        </extensions>
      </trkpt>
      <trkpt lat="43.15824" lon="6.16655">
        <ele>37.799999237061</ele>
        <time>2023-05-24T12:13:33.000Z</time>
        <extensions>
          <gpxtpx:TrackPointExtension xmlns:gpxtpx="http://www.garmin.com/xmlschemas/TrackPointExtension/v1">
            <gpxtpx:hr>129</gpxtpx:hr>
          </gpxtpx:TrackPointExtension>
        </extensions>
      </trkpt>
      <trkpt lat="43.15818" lon="6.16652">
        <ele>37.599998474121</ele>
        <time>2023-05-24T12:13:34.000Z</time>
        <extensions>
          <gpxtpx:TrackPointExtension xmlns:gpxtpx="http://www.garmin.com/xmlschemas/TrackPointExtension/v1">
            <gpxtpx:hr>128</gpxtpx:hr>
          </gpxtpx:TrackPointExtension>
        </extensions>
      </trkpt>
      <trkpt lat="43.15808" lon="6.16648">
        <ele>37.599998474121</ele>
        <time>2023-05-24T12:13:37.000Z</time>
        <extensions>
          <gpxtpx:TrackPointExtension xmlns:gpxtpx="http://www.garmin.com/xmlschemas/TrackPointExtension/v1">
            <gpxtpx:hr>126</gpxtpx:hr>
          </gpxtpx:TrackPointExtension>
        </extensions>
      </trkpt>
      <trkpt lat="43.15806" lon="6.16645">
        <ele>37.400001525879</ele>
        <time>2023-05-24T12:13:41.000Z</time>
        <extensions>
          <gpxtpx:TrackPointExtension xmlns:gpxtpx="http://www.garmin.com/xmlschemas/TrackPointExtension/v1">
            <gpxtpx:hr>125</gpxtpx:hr>
          </gpxtpx:TrackPointExtension>
        </extensions>
      </trkpt>
      <trkpt lat="43.15806" lon="6.16645">
        <ele>37.400001525879</ele>
        <time>2023-05-24T12:13:50.000Z</time>
        <extensions>
          <gpxtpx:TrackPointExtension xmlns:gpxtpx="http://www.garmin.com/xmlschemas/TrackPointExtension/v1">
            <gpxtpx:hr>125</gpxtpx:hr>
          </gpxtpx:TrackPointExtension>
        </extensions>
      </trkpt>
    </trkseg>
  </trk>
</gpx>